<?xml version='1.0' encoding='UTF-8'?><gpx version="1.1" creator="JPX - https://github.com/jenetics/jpx" xmlns="http://www.topografix.com/GPX/1/1"><trk><trkseg><trkpt lat="41.94413875128844" lon="12.466816655604218"><ele>57.99999999999999</ele><time>2026-04-03T14:14:48Z</time></trkpt><trkpt lat="41.944222953058826" lon="12.466804094737306"><ele>58.0</ele><time>2026-04-03T14:15:08Z</time></trkpt><trkpt lat="41.94420025847781" lon="12.466710738889782"><ele>58.0</ele><time>2026-04-03T14:15:13Z</time></trkpt><trkpt lat="41.94419776681392" lon="12.466565158437568"><ele>58.0</ele><time>2026-04-03T14:15:33Z</time></trkpt><trkpt lat="41.944194398406715" lon="12.46647135372822"><ele>57.99999999999999</ele><time>2026-04-03T14:15:34Z</time></trkpt><trkpt lat="41.944187697971145" lon="12.466371291312715"><ele>58.0</ele><time>2026-04-03T14:15:35Z</time></trkpt><trkpt lat="41.944186078651335" lon="12.466273420613915"><ele>58.33333333333333</ele><time>2026-04-03T14:15:36Z</time></trkpt><trkpt lat="41.94418950363948" lon="12.466145875188374"><ele>58.666666666666664</ele><time>2026-04-03T14:15:38Z</time></trkpt><trkpt lat="41.94417705055211" lon="12.46604537224358"><ele>59.0</ele><time>2026-04-03T14:15:41Z</time></trkpt><trkpt lat="41.94409099846863" lon="12.466020659168912"><ele>59.33333333333333</ele><time>2026-04-03T14:15:43.999Z</time></trkpt><trkpt lat="41.944019898882765" lon="12.466047572976763"><ele>59.666666666666664</ele><time>2026-04-03T14:15:44.999Z</time></trkpt><trkpt lat="41.94394266610166" lon="12.466079143613118"><ele>60.0</ele><time>2026-04-03T14:15:45.999Z</time></trkpt><trkpt lat="41.943857101133844" lon="12.466115841482818"><ele>59.6</ele><time>2026-04-03T14:15:47.999Z</time></trkpt><trkpt lat="41.94387299616508" lon="12.466303619327439"><ele>59.2</ele><time>2026-04-03T14:15:50.999Z</time></trkpt><trkpt lat="41.94389871880232" lon="12.4664115587641"><ele>58.8</ele><time>2026-04-03T14:15:51.999Z</time></trkpt><trkpt lat="41.94391277422877" lon="12.46654724867947"><ele>58.4</ele><time>2026-04-03T14:15:52.999Z</time></trkpt><trkpt lat="41.94391183227217" lon="12.466696143344569"><ele>58.0</ele><time>2026-04-03T14:15:53.999Z</time></trkpt><trkpt lat="41.943911517196454" lon="12.466866648485116"><ele>58.0</ele><time>2026-04-03T14:15:54.999Z</time></trkpt><trkpt lat="41.94389226848711" lon="12.467031677005187"><ele>58.0</ele><time>2026-04-03T14:15:55.999Z</time></trkpt><trkpt lat="41.94385990952139" lon="12.467178304257786"><ele>58.0</ele><time>2026-04-03T14:15:56.999Z</time></trkpt><trkpt lat="41.943825341480384" lon="12.467303931603343"><ele>58.0</ele><time>2026-04-03T14:15:57.999Z</time></trkpt><trkpt lat="41.943786331727516" lon="12.467410826051358"><ele>58.0</ele><time>2026-04-03T14:15:58.999Z</time></trkpt><trkpt lat="41.94374377766631" lon="12.467501906528462"><ele>57.666666666666664</ele><time>2026-04-03T14:15:59.999Z</time></trkpt><trkpt lat="41.94370565733463" lon="12.467571111698312"><ele>57.33333333333333</ele><time>2026-04-03T14:16:00.999Z</time></trkpt><trkpt lat="41.94365170251531" lon="12.467663486427528"><ele>57.0</ele><time>2026-04-03T14:16:02.999Z</time></trkpt><trkpt lat="41.94372692094935" lon="12.46774802196621"><ele>56.66666666666667</ele><time>2026-04-03T14:16:03.999Z</time></trkpt><trkpt lat="41.943796492732716" lon="12.467792235745925"><ele>56.333333333333336</ele><time>2026-04-03T14:16:04.999Z</time></trkpt><trkpt lat="41.9438714708098" lon="12.467862609374667"><ele>56.0</ele><time>2026-04-03T14:16:05.999Z</time></trkpt><trkpt lat="41.94394851898824" lon="12.467965264171253"><ele>54.833333333333336</ele><time>2026-04-03T14:16:06.999Z</time></trkpt><trkpt lat="41.944037878582776" lon="12.46802371222286"><ele>53.66666666666667</ele><time>2026-04-03T14:16:07.999Z</time></trkpt><trkpt lat="41.944118333143734" lon="12.46803352702659"><ele>52.5</ele><time>2026-04-03T14:16:08.999Z</time></trkpt><trkpt lat="41.94419656495147" lon="12.468017265446836"><ele>51.33333333333333</ele><time>2026-04-03T14:16:09.999Z</time></trkpt><trkpt lat="41.944280884459566" lon="12.467973655288944"><ele>50.166666666666664</ele><time>2026-04-03T14:16:10.999Z</time></trkpt><trkpt lat="41.94434221392333" lon="12.46788806227539"><ele>49.0</ele><time>2026-04-03T14:16:11.999Z</time></trkpt><trkpt lat="41.94438442601266" lon="12.467784686642807"><ele>49.0</ele><time>2026-04-03T14:16:12.999Z</time></trkpt><trkpt lat="41.94439249420096" lon="12.46765497740515"><ele>49.0</ele><time>2026-04-03T14:16:13.999Z</time></trkpt><trkpt lat="41.94439276973396" lon="12.467499412900723"><ele>49.0</ele><time>2026-04-03T14:16:14.999Z</time></trkpt><trkpt lat="41.944395914719124" lon="12.467345484347623"><ele>49.0</ele><time>2026-04-03T14:16:15.999Z</time></trkpt><trkpt lat="41.94439299446901" lon="12.467202163128695"><ele>49.0</ele><time>2026-04-03T14:16:16.999Z</time></trkpt><trkpt lat="41.94440344544834" lon="12.467088109237979"><ele>49.666666666666664</ele><time>2026-04-03T14:16:17.999Z</time></trkpt><trkpt lat="41.9444066613963" lon="12.466977110190594"><ele>50.33333333333333</ele><time>2026-04-03T14:16:18.999Z</time></trkpt><trkpt lat="41.94442893773334" lon="12.466879856119329"><ele>51.0</ele><time>2026-04-03T14:16:19.999Z</time></trkpt><trkpt lat="41.944471582318656" lon="12.466805220865519"><ele>51.66666666666667</ele><time>2026-04-03T14:16:20.999Z</time></trkpt><trkpt lat="41.94458029047796" lon="12.466733320828586"><ele>52.333333333333336</ele><time>2026-04-03T14:16:22.999Z</time></trkpt><trkpt lat="41.944676372086946" lon="12.46676421649467"><ele>53.0</ele><time>2026-04-03T14:16:23.999Z</time></trkpt><trkpt lat="41.94477255678363" lon="12.466770682091418"><ele>53.0</ele><time>2026-04-03T14:16:24.999Z</time></trkpt><trkpt lat="41.94484993292156" lon="12.46675856785424"><ele>53.0</ele><time>2026-04-03T14:16:25.999Z</time></trkpt><trkpt lat="41.94504271900946" lon="12.46686676654416"><ele>53.0</ele><time>2026-04-03T14:16:32.999Z</time></trkpt><trkpt lat="41.945040149795076" lon="12.466983188760748"><ele>53.0</ele><time>2026-04-03T14:16:33.999Z</time></trkpt><trkpt lat="41.94501684382576" lon="12.467115434090262"><ele>52.333333333333336</ele><time>2026-04-03T14:16:34.999Z</time></trkpt><trkpt lat="41.945014210717844" lon="12.467251172804149"><ele>51.66666666666667</ele><time>2026-04-03T14:16:36Z</time></trkpt><trkpt lat="41.94500817052698" lon="12.46737594731716"><ele>51.0</ele><time>2026-04-03T14:16:37Z</time></trkpt><trkpt lat="41.94500203339586" lon="12.467492209634921"><ele>50.33333333333333</ele><time>2026-04-03T14:16:38Z</time></trkpt><trkpt lat="41.94499783859644" lon="12.467592723093231"><ele>49.666666666666664</ele><time>2026-04-03T14:16:39Z</time></trkpt><trkpt lat="41.94499109087629" lon="12.467683860437967"><ele>49.0</ele><time>2026-04-03T14:16:40Z</time></trkpt><trkpt lat="41.94498738951549" lon="12.467839019013415"><ele>46.6</ele><time>2026-04-03T14:16:42Z</time></trkpt><trkpt lat="41.94497890547665" lon="12.467944024791741"><ele>44.2</ele><time>2026-04-03T14:16:44Z</time></trkpt><trkpt lat="41.94496995634534" lon="12.468077168050444"><ele>41.800000000000004</ele><time>2026-04-03T14:16:47Z</time></trkpt><trkpt lat="41.94493890933986" lon="12.468245902356857"><ele>39.400000000000006</ele><time>2026-04-03T14:16:49Z</time></trkpt><trkpt lat="41.944924233751905" lon="12.468343881257189"><ele>37.0</ele><time>2026-04-03T14:16:50Z</time></trkpt><trkpt lat="41.944909527847194" lon="12.468435785724802"><ele>37.0</ele><time>2026-04-03T14:16:51Z</time></trkpt><trkpt lat="41.94489636513615" lon="12.468520894593512"><ele>37.0</ele><time>2026-04-03T14:16:52Z</time></trkpt><trkpt lat="41.94486687244469" lon="12.468675064310654"><ele>37.0</ele><time>2026-04-03T14:16:54Z</time></trkpt><trkpt lat="41.94485009212146" lon="12.468758094179535"><ele>37.0</ele><time>2026-04-03T14:16:55Z</time></trkpt><trkpt lat="41.944840281995255" lon="12.46884733286056"><ele>37.0</ele><time>2026-04-03T14:16:57Z</time></trkpt><trkpt lat="41.94481995552154" lon="12.468936362612084"><ele>37.0</ele><time>2026-04-03T14:16:59Z</time></trkpt><trkpt lat="41.94482385514053" lon="12.469027382423178"><ele>37.4</ele><time>2026-04-03T14:17:02Z</time></trkpt><trkpt lat="41.94484092147978" lon="12.469111202363564"><ele>37.800000000000004</ele><time>2026-04-03T14:17:04Z</time></trkpt><trkpt lat="41.94486498854995" lon="12.469213126551615"><ele>38.2</ele><time>2026-04-03T14:17:07Z</time></trkpt><trkpt lat="41.94498760904136" lon="12.469214748696057"><ele>38.6</ele><time>2026-04-03T14:17:08Z</time></trkpt><trkpt lat="41.94505750382303" lon="12.46928390699362"><ele>39.0</ele><time>2026-04-03T14:17:09Z</time></trkpt><trkpt lat="41.94515714135713" lon="12.469294091450633"><ele>39.0</ele><time>2026-04-03T14:17:10Z</time></trkpt><trkpt lat="41.9452656941444" lon="12.46929351515386"><ele>39.0</ele><time>2026-04-03T14:17:11Z</time></trkpt><trkpt lat="41.945385057766785" lon="12.469290364977343"><ele>39.0</ele><time>2026-04-03T14:17:12Z</time></trkpt><trkpt lat="41.94551417829192" lon="12.469283775834256"><ele>39.0</ele><time>2026-04-03T14:17:13Z</time></trkpt><trkpt lat="41.94567013644304" lon="12.469294249948883"><ele>39.0</ele><time>2026-04-03T14:17:14Z</time></trkpt><trkpt lat="41.94584151722642" lon="12.46934244592652"><ele>39.0</ele><time>2026-04-03T14:17:15Z</time></trkpt><trkpt lat="41.946009108291484" lon="12.46941531600467"><ele>39.0</ele><time>2026-04-03T14:17:16Z</time></trkpt><trkpt lat="41.94614055835789" lon="12.469493746802232"><ele>39.333333333333336</ele><time>2026-04-03T14:17:17Z</time></trkpt><trkpt lat="41.94623752112906" lon="12.46957003517181"><ele>39.666666666666664</ele><time>2026-04-03T14:17:18Z</time></trkpt><trkpt lat="41.946313182169796" lon="12.4696267180106"><ele>40.0</ele><time>2026-04-03T14:17:19Z</time></trkpt><trkpt lat="41.946369283823536" lon="12.4696684040076"><ele>40.33333333333333</ele><time>2026-04-03T14:17:20Z</time></trkpt><trkpt lat="41.94645357958745" lon="12.469727825422105"><ele>40.666666666666664</ele><time>2026-04-03T14:17:22Z</time></trkpt><trkpt lat="41.94653195410025" lon="12.469727966659681"><ele>41.0</ele><time>2026-04-03T14:17:24Z</time></trkpt><trkpt lat="41.946507770445756" lon="12.469876010150816"><ele>41.33333333333333</ele><time>2026-04-03T14:17:25Z</time></trkpt><trkpt lat="41.9465582016609" lon="12.469949604466374"><ele>41.666666666666664</ele><time>2026-04-03T14:17:27Z</time></trkpt><trkpt lat="41.946613819410196" lon="12.469998498476507"><ele>42.0</ele><time>2026-04-03T14:17:30Z</time></trkpt><trkpt lat="41.94658141591435" lon="12.47007624189238"><ele>42.333333333333336</ele><time>2026-04-03T14:17:57.999Z</time></trkpt><trkpt lat="41.946526238207305" lon="12.469995257805193"><ele>42.66666666666667</ele><time>2026-04-03T14:20:42.999Z</time></trkpt><trkpt lat="41.946665824577366" lon="12.469988965229167"><ele>43.0</ele><time>2026-04-03T14:21:32Z</time></trkpt><trkpt lat="41.94672177722688" lon="12.469905875804413"><ele>43.0</ele><time>2026-04-03T14:22:26Z</time></trkpt><trkpt lat="41.94677176176748" lon="12.46984413150959"><ele>43.0</ele><time>2026-04-03T14:22:29Z</time></trkpt><trkpt lat="41.94684323714512" lon="12.469833103864943"><ele>43.0</ele><time>2026-04-03T14:22:31Z</time></trkpt><trkpt lat="41.946916269233206" lon="12.469862116356387"><ele>43.0</ele><time>2026-04-03T14:22:32Z</time></trkpt><trkpt lat="41.94700469817204" lon="12.469908233661618"><ele>43.0</ele><time>2026-04-03T14:22:33Z</time></trkpt><trkpt lat="41.94710514142007" lon="12.469953127975067"><ele>43.0</ele><time>2026-04-03T14:22:34Z</time></trkpt><trkpt lat="41.94721887518158" lon="12.470000256155306"><ele>43.0</ele><time>2026-04-03T14:22:35Z</time></trkpt><trkpt lat="41.94733749737782" lon="12.470046864648134"><ele>43.0</ele><time>2026-04-03T14:22:36Z</time></trkpt><trkpt lat="41.94744117894828" lon="12.470113464236105"><ele>43.0</ele><time>2026-04-03T14:22:37Z</time></trkpt><trkpt lat="41.94754014976145" lon="12.470168173642028"><ele>43.0</ele><time>2026-04-03T14:22:38Z</time></trkpt><trkpt lat="41.94764979372652" lon="12.470217668148202"><ele>42.5</ele><time>2026-04-03T14:22:39Z</time></trkpt><trkpt lat="41.94777057256519" lon="12.4702608423699"><ele>42.0</ele><time>2026-04-03T14:22:40Z</time></trkpt><trkpt lat="41.94790273904359" lon="12.47027571408372"><ele>41.5</ele><time>2026-04-03T14:22:41Z</time></trkpt><trkpt lat="41.948025274310986" lon="12.47032713694325"><ele>41.0</ele><time>2026-04-03T14:22:42Z</time></trkpt><trkpt lat="41.94814165338474" lon="12.470374296833807"><ele>41.0</ele><time>2026-04-03T14:22:43Z</time></trkpt><trkpt lat="41.94826471675501" lon="12.470418127769982"><ele>41.0</ele><time>2026-04-03T14:22:44Z</time></trkpt><trkpt lat="41.94838185299775" lon="12.470461858428319"><ele>41.0</ele><time>2026-04-03T14:22:45Z</time></trkpt><trkpt lat="41.94849002827544" lon="12.47050650499619"><ele>41.0</ele><time>2026-04-03T14:22:46Z</time></trkpt><trkpt lat="41.948604397619725" lon="12.470555904194784"><ele>40.5</ele><time>2026-04-03T14:22:47Z</time></trkpt><trkpt lat="41.94871926707972" lon="12.470608788089077"><ele>40.0</ele><time>2026-04-03T14:22:48Z</time></trkpt><trkpt lat="41.94883054084246" lon="12.4706594910431"><ele>39.5</ele><time>2026-04-03T14:22:49Z</time></trkpt><trkpt lat="41.94894902344928" lon="12.470713936122026"><ele>39.0</ele><time>2026-04-03T14:22:50Z</time></trkpt><trkpt lat="41.94908016893383" lon="12.470782619160223"><ele>39.0</ele><time>2026-04-03T14:22:51Z</time></trkpt><trkpt lat="41.94920219127017" lon="12.470852151089671"><ele>39.0</ele><time>2026-04-03T14:22:52Z</time></trkpt><trkpt lat="41.9493160863309" lon="12.470915977054586"><ele>39.0</ele><time>2026-04-03T14:22:53Z</time></trkpt><trkpt lat="41.949421197616154" lon="12.470973242756171"><ele>39.0</ele><time>2026-04-03T14:22:54Z</time></trkpt><trkpt lat="41.949524981457095" lon="12.471031067486475"><ele>39.0</ele><time>2026-04-03T14:22:55Z</time></trkpt><trkpt lat="41.94963088390386" lon="12.47109315262896"><ele>39.0</ele><time>2026-04-03T14:22:56Z</time></trkpt><trkpt lat="41.949742543139074" lon="12.471155009817611"><ele>39.0</ele><time>2026-04-03T14:22:57Z</time></trkpt><trkpt lat="41.949868312335894" lon="12.471224734350463"><ele>39.0</ele><time>2026-04-03T14:22:58Z</time></trkpt><trkpt lat="41.950006683719636" lon="12.471303235554686"><ele>36.666666666666664</ele><time>2026-04-03T14:22:59Z</time></trkpt><trkpt lat="41.95014800697713" lon="12.471384418317614"><ele>34.33333333333333</ele><time>2026-04-03T14:23:00Z</time></trkpt><trkpt lat="41.95029573249921" lon="12.471466909447743"><ele>32.0</ele><time>2026-04-03T14:23:01Z</time></trkpt><trkpt lat="41.95042808032576" lon="12.471544419808186"><ele>32.0</ele><time>2026-04-03T14:23:02Z</time></trkpt><trkpt lat="41.95055043825156" lon="12.47161663924333"><ele>32.0</ele><time>2026-04-03T14:23:03Z</time></trkpt><trkpt lat="41.950666374174105" lon="12.471676305884515"><ele>32.0</ele><time>2026-04-03T14:23:04Z</time></trkpt><trkpt lat="41.95077874086791" lon="12.47173653445736"><ele>32.0</ele><time>2026-04-03T14:23:05Z</time></trkpt><trkpt lat="41.950881611318245" lon="12.47179831170844"><ele>30.75</ele><time>2026-04-03T14:23:06Z</time></trkpt><trkpt lat="41.95098205599874" lon="12.471856454492219"><ele>29.5</ele><time>2026-04-03T14:23:07Z</time></trkpt><trkpt lat="41.951091970983406" lon="12.471915702534266"><ele>28.25</ele><time>2026-04-03T14:23:08Z</time></trkpt><trkpt lat="41.951213108102586" lon="12.471977225903936"><ele>27.0</ele><time>2026-04-03T14:23:09Z</time></trkpt><trkpt lat="41.95135197876735" lon="12.472046526594186"><ele>27.0</ele><time>2026-04-03T14:23:10Z</time></trkpt><trkpt lat="41.951491597788" lon="12.472123347381508"><ele>27.0</ele><time>2026-04-03T14:23:11Z</time></trkpt><trkpt lat="41.95162228840937" lon="12.472191741083536"><ele>27.0</ele><time>2026-04-03T14:23:12Z</time></trkpt><trkpt lat="41.95174006362219" lon="12.47225432988745"><ele>27.0</ele><time>2026-04-03T14:23:13Z</time></trkpt><trkpt lat="41.95184895429249" lon="12.472316495989872"><ele>27.0</ele><time>2026-04-03T14:23:14Z</time></trkpt><trkpt lat="41.951958554039585" lon="12.47237743589266"><ele>27.000000000000004</ele><time>2026-04-03T14:23:15Z</time></trkpt><trkpt lat="41.95206777755857" lon="12.472440012126324"><ele>27.000000000000004</ele><time>2026-04-03T14:23:16Z</time></trkpt><trkpt lat="41.95216939406266" lon="12.472495073039445"><ele>27.0</ele><time>2026-04-03T14:23:17Z</time></trkpt><trkpt lat="41.95225988194278" lon="12.472546062739287"><ele>27.0</ele><time>2026-04-03T14:23:18Z</time></trkpt><trkpt lat="41.952349124847956" lon="12.472594631434779"><ele>27.0</ele><time>2026-04-03T14:23:19Z</time></trkpt><trkpt lat="41.95245602407807" lon="12.472648996005375"><ele>27.0</ele><time>2026-04-03T14:23:20Z</time></trkpt><trkpt lat="41.952586830158644" lon="12.472716672985559"><ele>27.0</ele><time>2026-04-03T14:23:21Z</time></trkpt><trkpt lat="41.952707481117876" lon="12.472781054906106"><ele>27.0</ele><time>2026-04-03T14:23:22Z</time></trkpt><trkpt lat="41.952809317392486" lon="12.472850932747956"><ele>28.0</ele><time>2026-04-03T14:23:23Z</time></trkpt><trkpt lat="41.95291002799081" lon="12.472934844462381"><ele>29.0</ele><time>2026-04-03T14:23:24Z</time></trkpt><trkpt lat="41.95301785676722" lon="12.473041973532855"><ele>30.0</ele><time>2026-04-03T14:23:25Z</time></trkpt><trkpt lat="41.9531241649619" lon="12.473162544939385"><ele>31.0</ele><time>2026-04-03T14:23:26Z</time></trkpt><trkpt lat="41.95323515159139" lon="12.4732982248934"><ele>31.0</ele><time>2026-04-03T14:23:27Z</time></trkpt><trkpt lat="41.95333888482612" lon="12.47343795646331"><ele>31.0</ele><time>2026-04-03T14:23:28Z</time></trkpt><trkpt lat="41.95343546679293" lon="12.473575933583522"><ele>31.0</ele><time>2026-04-03T14:23:29Z</time></trkpt><trkpt lat="41.95352928508216" lon="12.473727040039018"><ele>31.0</ele><time>2026-04-03T14:23:30Z</time></trkpt><trkpt lat="41.95361347267234" lon="12.473885271717897"><ele>30.0</ele><time>2026-04-03T14:23:31Z</time></trkpt><trkpt lat="41.95368731123328" lon="12.474045185702245"><ele>29.0</ele><time>2026-04-03T14:23:32Z</time></trkpt><trkpt lat="41.95376378018206" lon="12.474222710546394"><ele>28.0</ele><time>2026-04-03T14:23:33Z</time></trkpt><trkpt lat="41.95383885946766" lon="12.474414657039604"><ele>28.25</ele><time>2026-04-03T14:23:34Z</time></trkpt><trkpt lat="41.953899063261744" lon="12.474612574835984"><ele>28.5</ele><time>2026-04-03T14:23:35Z</time></trkpt><trkpt lat="41.953950120117085" lon="12.474798785229472"><ele>28.75</ele><time>2026-04-03T14:23:36Z</time></trkpt><trkpt lat="41.954001819504846" lon="12.474975625417205"><ele>29.0</ele><time>2026-04-03T14:23:37Z</time></trkpt><trkpt lat="41.954049254594146" lon="12.475144488962822"><ele>29.0</ele><time>2026-04-03T14:23:38Z</time></trkpt><trkpt lat="41.954098037042236" lon="12.475316164896448"><ele>29.0</ele><time>2026-04-03T14:23:39Z</time></trkpt><trkpt lat="41.954147072810876" lon="12.475484707797525"><ele>29.0</ele><time>2026-04-03T14:23:40Z</time></trkpt><trkpt lat="41.95420251679666" lon="12.47567801733183"><ele>29.0</ele><time>2026-04-03T14:23:41Z</time></trkpt><trkpt lat="41.954265815839946" lon="12.475892381807672"><ele>29.666666666666664</ele><time>2026-04-03T14:23:42Z</time></trkpt><trkpt lat="41.95433389212027" lon="12.476129193874938"><ele>30.333333333333336</ele><time>2026-04-03T14:23:43Z</time></trkpt><trkpt lat="41.95440172369144" lon="12.476380582815164"><ele>31.0</ele><time>2026-04-03T14:23:44Z</time></trkpt><trkpt lat="41.95447412871325" lon="12.476645526121715"><ele>31.0</ele><time>2026-04-03T14:23:45Z</time></trkpt><trkpt lat="41.95453649448918" lon="12.47692638393802"><ele>31.0</ele><time>2026-04-03T14:23:46Z</time></trkpt><trkpt lat="41.954624073719245" lon="12.47719692369688"><ele>31.0</ele><time>2026-04-03T14:23:47Z</time></trkpt><trkpt lat="41.95469912399507" lon="12.477472117684929"><ele>29.0</ele><time>2026-04-03T14:23:48Z</time></trkpt><trkpt lat="41.954764024926305" lon="12.477727543440528"><ele>27.0</ele><time>2026-04-03T14:23:49Z</time></trkpt><trkpt lat="41.95481741477277" lon="12.47795094788668"><ele>25.0</ele><time>2026-04-03T14:23:50Z</time></trkpt><trkpt lat="41.95486528487335" lon="12.478157355384909"><ele>24.5</ele><time>2026-04-03T14:23:51Z</time></trkpt><trkpt lat="41.9549172104698" lon="12.478345445325026"><ele>24.0</ele><time>2026-04-03T14:23:52Z</time></trkpt><trkpt lat="41.95496332597513" lon="12.47851216050336"><ele>23.5</ele><time>2026-04-03T14:23:53Z</time></trkpt><trkpt lat="41.955000696258814" lon="12.47867039688727"><ele>23.0</ele><time>2026-04-03T14:23:54Z</time></trkpt><trkpt lat="41.955041975979725" lon="12.478825544556232"><ele>22.25</ele><time>2026-04-03T14:23:55Z</time></trkpt><trkpt lat="41.95509145137233" lon="12.478997929581384"><ele>21.5</ele><time>2026-04-03T14:23:56Z</time></trkpt><trkpt lat="41.95514579969383" lon="12.479186416193564"><ele>20.75</ele><time>2026-04-03T14:23:57Z</time></trkpt><trkpt lat="41.95519911144966" lon="12.47937801542812"><ele>20.0</ele><time>2026-04-03T14:23:58Z</time></trkpt><trkpt lat="41.95524544445403" lon="12.47957103051458"><ele>20.25</ele><time>2026-04-03T14:23:59Z</time></trkpt><trkpt lat="41.95529169949774" lon="12.479755580303788"><ele>20.5</ele><time>2026-04-03T14:24:00Z</time></trkpt><trkpt lat="41.955339658297476" lon="12.479942594497691"><ele>20.75</ele><time>2026-04-03T14:24:01Z</time></trkpt><trkpt lat="41.955395111267" lon="12.480140238789936"><ele>21.0</ele><time>2026-04-03T14:24:02Z</time></trkpt><trkpt lat="41.95544702630613" lon="12.480327453062628"><ele>21.0</ele><time>2026-04-03T14:24:03Z</time></trkpt><trkpt lat="41.95549657141653" lon="12.480510575862432"><ele>21.0</ele><time>2026-04-03T14:24:04Z</time></trkpt><trkpt lat="41.95554552298853" lon="12.480692037700353"><ele>21.0</ele><time>2026-04-03T14:24:05Z</time></trkpt><trkpt lat="41.95558770015872" lon="12.480870060320338"><ele>21.0</ele><time>2026-04-03T14:24:06Z</time></trkpt><trkpt lat="41.955629456481226" lon="12.481036457555284"><ele>21.0</ele><time>2026-04-03T14:24:07Z</time></trkpt><trkpt lat="41.95567388725398" lon="12.481191932381401"><ele>21.0</ele><time>2026-04-03T14:24:08Z</time></trkpt><trkpt lat="41.9557151906978" lon="12.481329062890778"><ele>21.0</ele><time>2026-04-03T14:24:09Z</time></trkpt><trkpt lat="41.95575159351754" lon="12.48145916642846"><ele>21.0</ele><time>2026-04-03T14:24:10Z</time></trkpt><trkpt lat="41.95578515211725" lon="12.481569120687677"><ele>21.0</ele><time>2026-04-03T14:24:11Z</time></trkpt><trkpt lat="41.95581127354522" lon="12.481657557093383"><ele>20.8</ele><time>2026-04-03T14:24:12Z</time></trkpt><trkpt lat="41.95585415738873" lon="12.48179872536607"><ele>20.6</ele><time>2026-04-03T14:24:14Z</time></trkpt><trkpt lat="41.95589030759145" lon="12.48191876204105"><ele>20.4</ele><time>2026-04-03T14:24:16Z</time></trkpt><trkpt lat="41.95591533949693" lon="12.482005479074395"><ele>20.2</ele><time>2026-04-03T14:24:18Z</time></trkpt><trkpt lat="41.955934406849906" lon="12.482092286288768"><ele>20.0</ele><time>2026-04-03T14:24:21Z</time></trkpt><trkpt lat="41.95597773044192" lon="12.482241979824806"><ele>22.25</ele><time>2026-04-03T14:24:30.999Z</time></trkpt><trkpt lat="41.95601578392411" lon="12.482364449055503"><ele>24.5</ele><time>2026-04-03T14:24:31.999Z</time></trkpt><trkpt lat="41.95605867688494" lon="12.482524125233873"><ele>26.75</ele><time>2026-04-03T14:24:32.999Z</time></trkpt><trkpt lat="41.95610978912244" lon="12.482695262322851"><ele>29.0</ele><time>2026-04-03T14:24:33.999Z</time></trkpt><trkpt lat="41.956164378535554" lon="12.48287645611058"><ele>28.666666666666664</ele><time>2026-04-03T14:24:34.999Z</time></trkpt><trkpt lat="41.95622298598101" lon="12.483063809788726"><ele>28.333333333333336</ele><time>2026-04-03T14:24:35.999Z</time></trkpt><trkpt lat="41.95628805752866" lon="12.483255900522757"><ele>28.0</ele><time>2026-04-03T14:24:36.999Z</time></trkpt><trkpt lat="41.956355560291605" lon="12.483449257938766"><ele>28.0</ele><time>2026-04-03T14:24:37.999Z</time></trkpt><trkpt lat="41.95641429717189" lon="12.483617994604243"><ele>28.0</ele><time>2026-04-03T14:24:38.999Z</time></trkpt><trkpt lat="41.956465077851654" lon="12.483772012283673"><ele>28.0</ele><time>2026-04-03T14:24:39.999Z</time></trkpt><trkpt lat="41.9565129836073" lon="12.483922531436091"><ele>28.0</ele><time>2026-04-03T14:24:40.999Z</time></trkpt><trkpt lat="41.956566999808615" lon="12.484071318888667"><ele>27.0</ele><time>2026-04-03T14:24:41.999Z</time></trkpt><trkpt lat="41.95663185547869" lon="12.484219934616224"><ele>26.0</ele><time>2026-04-03T14:24:42.999Z</time></trkpt><trkpt lat="41.95669925391928" lon="12.484369878104722"><ele>25.0</ele><time>2026-04-03T14:24:43.999Z</time></trkpt><trkpt lat="41.956770414515724" lon="12.484520445232373"><ele>24.0</ele><time>2026-04-03T14:24:44.999Z</time></trkpt><trkpt lat="41.956841888055834" lon="12.484663213759116"><ele>23.5</ele><time>2026-04-03T14:24:45.999Z</time></trkpt><trkpt lat="41.956916266674725" lon="12.484804342678794"><ele>23.0</ele><time>2026-04-03T14:24:46.999Z</time></trkpt><trkpt lat="41.95699586327648" lon="12.484940255808533"><ele>22.5</ele><time>2026-04-03T14:24:47.999Z</time></trkpt><trkpt lat="41.95706821228342" lon="12.485056302096893"><ele>22.0</ele><time>2026-04-03T14:24:48.999Z</time></trkpt><trkpt lat="41.95713509647355" lon="12.485152262823705"><ele>22.0</ele><time>2026-04-03T14:24:49.999Z</time></trkpt><trkpt lat="41.95719631890339" lon="12.485242669995069"><ele>22.0</ele><time>2026-04-03T14:24:50.999Z</time></trkpt><trkpt lat="41.95725138092791" lon="12.48531921825486"><ele>22.0</ele><time>2026-04-03T14:24:51.999Z</time></trkpt><trkpt lat="41.957301030323364" lon="12.48539004939883"><ele>22.0</ele><time>2026-04-03T14:24:52.999Z</time></trkpt><trkpt lat="41.95737819951142" lon="12.485453771692189"><ele>22.0</ele><time>2026-04-03T14:24:53.999Z</time></trkpt><trkpt lat="41.95745388738156" lon="12.485554276958723"><ele>22.0</ele><time>2026-04-03T14:24:54.999Z</time></trkpt><trkpt lat="41.957546363673565" lon="12.485640712768161"><ele>22.25</ele><time>2026-04-03T14:24:55.999Z</time></trkpt><trkpt lat="41.95764683927211" lon="12.48574123300644"><ele>22.5</ele><time>2026-04-03T14:24:56.999Z</time></trkpt><trkpt lat="41.95774957424077" lon="12.485852726176182"><ele>22.75</ele><time>2026-04-03T14:24:57.999Z</time></trkpt><trkpt lat="41.95785958099999" lon="12.485946153838935"><ele>23.0</ele><time>2026-04-03T14:24:58.999Z</time></trkpt><trkpt lat="41.95796398558581" lon="12.486036580624381"><ele>23.0</ele><time>2026-04-03T14:24:59.999Z</time></trkpt><trkpt lat="41.95807154185289" lon="12.48611552262018"><ele>23.0</ele><time>2026-04-03T14:25:00.999Z</time></trkpt><trkpt lat="41.958177984379525" lon="12.48619531286475"><ele>23.0</ele><time>2026-04-03T14:25:01.999Z</time></trkpt><trkpt lat="41.95829279766038" lon="12.48627388671797"><ele>23.0</ele><time>2026-04-03T14:25:02.999Z</time></trkpt><trkpt lat="41.958405108396946" lon="12.486350266556741"><ele>23.25</ele><time>2026-04-03T14:25:03.999Z</time></trkpt><trkpt lat="41.9585102280441" lon="12.48641423347545"><ele>23.5</ele><time>2026-04-03T14:25:04.999Z</time></trkpt><trkpt lat="41.958618908753984" lon="12.486466546180774"><ele>23.75</ele><time>2026-04-03T14:25:05.999Z</time></trkpt><trkpt lat="41.958740101263984" lon="12.486524282663977"><ele>24.0</ele><time>2026-04-03T14:25:06.999Z</time></trkpt><trkpt lat="41.958860180343365" lon="12.486576642241086"><ele>24.0</ele><time>2026-04-03T14:25:07.999Z</time></trkpt><trkpt lat="41.95897083853721" lon="12.486621410573335"><ele>24.0</ele><time>2026-04-03T14:25:08.999Z</time></trkpt><trkpt lat="41.959074290858" lon="12.486660790618354"><ele>24.0</ele><time>2026-04-03T14:25:09.999Z</time></trkpt><trkpt lat="41.959172058847784" lon="12.486690405600415"><ele>24.0</ele><time>2026-04-03T14:25:10.999Z</time></trkpt><trkpt lat="41.95927662590841" lon="12.48671874979606"><ele>24.0</ele><time>2026-04-03T14:25:11.999Z</time></trkpt><trkpt lat="41.959365851370364" lon="12.486746827831645"><ele>24.2</ele><time>2026-04-03T14:25:12.999Z</time></trkpt><trkpt lat="41.95944202771515" lon="12.486770775086798"><ele>24.4</ele><time>2026-04-03T14:25:13.999Z</time></trkpt><trkpt lat="41.95952344464879" lon="12.48679346545091"><ele>24.6</ele><time>2026-04-03T14:25:14.999Z</time></trkpt><trkpt lat="41.95960865611189" lon="12.48681926333679"><ele>24.8</ele><time>2026-04-03T14:25:15.999Z</time></trkpt><trkpt lat="41.959704727732515" lon="12.486847540263097"><ele>25.0</ele><time>2026-04-03T14:25:16.999Z</time></trkpt><trkpt lat="41.95983634727531" lon="12.486881354667686"><ele>25.0</ele><time>2026-04-03T14:25:17.999Z</time></trkpt><trkpt lat="41.959981030424615" lon="12.48692700437016"><ele>25.0</ele><time>2026-04-03T14:25:18.999Z</time></trkpt><trkpt lat="41.96012976170646" lon="12.48697162616563"><ele>25.0</ele><time>2026-04-03T14:25:19.999Z</time></trkpt><trkpt lat="41.96025974682009" lon="12.487012633636393"><ele>25.0</ele><time>2026-04-03T14:25:20.999Z</time></trkpt><trkpt lat="41.96036889389323" lon="12.487051323443643"><ele>25.25</ele><time>2026-04-03T14:25:21.999Z</time></trkpt><trkpt lat="41.960479716131154" lon="12.487088421118894"><ele>25.5</ele><time>2026-04-03T14:25:22.999Z</time></trkpt><trkpt lat="41.96060089225947" lon="12.487144163691061"><ele>25.75</ele><time>2026-04-03T14:25:24Z</time></trkpt><trkpt lat="41.960704895896505" lon="12.487200253352805"><ele>26.0</ele><time>2026-04-03T14:25:25Z</time></trkpt><trkpt lat="41.960797298460655" lon="12.487240416614986"><ele>25.4</ele><time>2026-04-03T14:25:26Z</time></trkpt><trkpt lat="41.96089373013155" lon="12.487288406941481"><ele>24.8</ele><time>2026-04-03T14:25:27Z</time></trkpt><trkpt lat="41.96098875615653" lon="12.487351616176797"><ele>24.2</ele><time>2026-04-03T14:25:28Z</time></trkpt><trkpt lat="41.961084634887385" lon="12.487422632762474"><ele>23.599999999999998</ele><time>2026-04-03T14:25:29Z</time></trkpt><trkpt lat="41.9611823538003" lon="12.487490904740433"><ele>23.0</ele><time>2026-04-03T14:25:30Z</time></trkpt><trkpt lat="41.96129849370903" lon="12.487583202031502"><ele>23.0</ele><time>2026-04-03T14:25:31Z</time></trkpt><trkpt lat="41.96140411081752" lon="12.487678296305374"><ele>23.0</ele><time>2026-04-03T14:25:32Z</time></trkpt><trkpt lat="41.96151356880264" lon="12.487785140538591"><ele>23.0</ele><time>2026-04-03T14:25:33Z</time></trkpt><trkpt lat="41.96162859033442" lon="12.48789440063793"><ele>23.0</ele><time>2026-04-03T14:25:34Z</time></trkpt><trkpt lat="41.96174070660231" lon="12.48799956515689"><ele>22.25</ele><time>2026-04-03T14:25:35Z</time></trkpt><trkpt lat="41.96184226923281" lon="12.488103493430394"><ele>21.5</ele><time>2026-04-03T14:25:36Z</time></trkpt><trkpt lat="41.961948848604486" lon="12.488202896382434"><ele>20.75</ele><time>2026-04-03T14:25:37Z</time></trkpt><trkpt lat="41.962057072527315" lon="12.488298570827943"><ele>20.0</ele><time>2026-04-03T14:25:38Z</time></trkpt><trkpt lat="41.96216218795796" lon="12.488395588444689"><ele>20.0</ele><time>2026-04-03T14:25:39Z</time></trkpt><trkpt lat="41.962263570070604" lon="12.488479712413332"><ele>20.0</ele><time>2026-04-03T14:25:40Z</time></trkpt><trkpt lat="41.962349477019" lon="12.488548349067838"><ele>20.0</ele><time>2026-04-03T14:25:41Z</time></trkpt><trkpt lat="41.96244164712549" lon="12.488613474647387"><ele>20.0</ele><time>2026-04-03T14:25:42Z</time></trkpt><trkpt lat="41.962548143243815" lon="12.488687154820056"><ele>20.0</ele><time>2026-04-03T14:25:43Z</time></trkpt><trkpt lat="41.962654046950746" lon="12.488754315839033"><ele>20.5</ele><time>2026-04-03T14:25:44Z</time></trkpt><trkpt lat="41.962759223802784" lon="12.488816433488305"><ele>21.0</ele><time>2026-04-03T14:25:45Z</time></trkpt><trkpt lat="41.96286123684173" lon="12.488870801915896"><ele>21.5</ele><time>2026-04-03T14:25:46Z</time></trkpt><trkpt lat="41.96297297209909" lon="12.488921101126031"><ele>22.0</ele><time>2026-04-03T14:25:47Z</time></trkpt><trkpt lat="41.96308429507022" lon="12.488973020146883"><ele>22.0</ele><time>2026-04-03T14:25:48Z</time></trkpt><trkpt lat="41.963179758408614" lon="12.489011439276767"><ele>22.0</ele><time>2026-04-03T14:25:49Z</time></trkpt><trkpt lat="41.96326767098743" lon="12.48905238287287"><ele>22.0</ele><time>2026-04-03T14:25:50Z</time></trkpt><trkpt lat="41.96337483735447" lon="12.48909701336764"><ele>22.0</ele><time>2026-04-03T14:25:51Z</time></trkpt><trkpt lat="41.963479495457165" lon="12.489142886180735"><ele>22.0</ele><time>2026-04-03T14:25:52Z</time></trkpt><trkpt lat="41.96359124682903" lon="12.489185298503315"><ele>22.5</ele><time>2026-04-03T14:25:53Z</time></trkpt><trkpt lat="41.96370957963507" lon="12.489235813834837"><ele>23.0</ele><time>2026-04-03T14:25:54Z</time></trkpt><trkpt lat="41.96382699003268" lon="12.489285549020062"><ele>23.5</ele><time>2026-04-03T14:25:55Z</time></trkpt><trkpt lat="41.96393969443641" lon="12.489328845539655"><ele>24.0</ele><time>2026-04-03T14:25:56Z</time></trkpt><trkpt lat="41.96405032481773" lon="12.489379459862693"><ele>24.0</ele><time>2026-04-03T14:25:57Z</time></trkpt><trkpt lat="41.964172275982584" lon="12.48942908281637"><ele>24.0</ele><time>2026-04-03T14:25:58Z</time></trkpt><trkpt lat="41.96429063262921" lon="12.48947947888797"><ele>24.0</ele><time>2026-04-03T14:25:59Z</time></trkpt><trkpt lat="41.96441645965645" lon="12.489531610705221"><ele>24.0</ele><time>2026-04-03T14:26:00Z</time></trkpt><trkpt lat="41.96456201484263" lon="12.489589996378346"><ele>23.666666666666668</ele><time>2026-04-03T14:26:01Z</time></trkpt><trkpt lat="41.96471570108928" lon="12.489652197501933"><ele>23.333333333333336</ele><time>2026-04-03T14:26:02Z</time></trkpt><trkpt lat="41.96487339275788" lon="12.489713842443795"><ele>23.0</ele><time>2026-04-03T14:26:03Z</time></trkpt><trkpt lat="41.96503212973853" lon="12.489778023223288"><ele>23.0</ele><time>2026-04-03T14:26:04Z</time></trkpt><trkpt lat="41.965191364705944" lon="12.489843573374957"><ele>23.0</ele><time>2026-04-03T14:26:05Z</time></trkpt><trkpt lat="41.965342884634325" lon="12.489904047186673"><ele>23.0</ele><time>2026-04-03T14:26:06Z</time></trkpt><trkpt lat="41.965490832372254" lon="12.489964757440099"><ele>23.0</ele><time>2026-04-03T14:26:07Z</time></trkpt><trkpt lat="41.965643096077756" lon="12.490025244910987"><ele>23.0</ele><time>2026-04-03T14:26:08Z</time></trkpt><trkpt lat="41.96579707059969" lon="12.490093405018692"><ele>23.0</ele><time>2026-04-03T14:26:09Z</time></trkpt><trkpt lat="41.96595590650215" lon="12.490163167853698"><ele>23.666666666666668</ele><time>2026-04-03T14:26:10Z</time></trkpt><trkpt lat="41.96611728862662" lon="12.490235889387742"><ele>24.333333333333336</ele><time>2026-04-03T14:26:11Z</time></trkpt><trkpt lat="41.96627814095812" lon="12.490305884343124"><ele>25.0</ele><time>2026-04-03T14:26:12Z</time></trkpt><trkpt lat="41.96643135142244" lon="12.490373398007831"><ele>24.333333333333336</ele><time>2026-04-03T14:26:13Z</time></trkpt><trkpt lat="41.96658376686589" lon="12.490439914848954"><ele>23.666666666666668</ele><time>2026-04-03T14:26:13.999Z</time></trkpt><trkpt lat="41.966733963034834" lon="12.490503098983144"><ele>23.0</ele><time>2026-04-03T14:26:14.999Z</time></trkpt><trkpt lat="41.96688384552643" lon="12.490562525949255"><ele>23.0</ele><time>2026-04-03T14:26:15.999Z</time></trkpt><trkpt lat="41.96703161929815" lon="12.490623438935664"><ele>23.0</ele><time>2026-04-03T14:26:16.999Z</time></trkpt><trkpt lat="41.967178996819115" lon="12.490686297337595"><ele>23.0</ele><time>2026-04-03T14:26:17.999Z</time></trkpt><trkpt lat="41.96732117397877" lon="12.490746176813131"><ele>23.0</ele><time>2026-04-03T14:26:18.999Z</time></trkpt><trkpt lat="41.96746225021396" lon="12.490806889442048"><ele>23.0</ele><time>2026-04-03T14:26:19.999Z</time></trkpt><trkpt lat="41.96760297535187" lon="12.490864581341583"><ele>23.0</ele><time>2026-04-03T14:26:20.999Z</time></trkpt><trkpt lat="41.96774274024759" lon="12.490918988929796"><ele>23.0</ele><time>2026-04-03T14:26:21.999Z</time></trkpt><trkpt lat="41.96789440805847" lon="12.490973738896875"><ele>26.333333333333336</ele><time>2026-04-03T14:26:22.999Z</time></trkpt><trkpt lat="41.968060273615464" lon="12.491039600106498"><ele>29.666666666666668</ele><time>2026-04-03T14:26:23.999Z</time></trkpt><trkpt lat="41.968230279557226" lon="12.491110134694445"><ele>33.0</ele><time>2026-04-03T14:26:24.999Z</time></trkpt><trkpt lat="41.96839525559142" lon="12.491162840704792"><ele>30.0</ele><time>2026-04-03T14:26:25.999Z</time></trkpt><trkpt lat="41.968569644750254" lon="12.491235179812024"><ele>27.0</ele><time>2026-04-03T14:26:26.999Z</time></trkpt><trkpt lat="41.96874748995637" lon="12.49131272613925"><ele>24.0</ele><time>2026-04-03T14:26:27.999Z</time></trkpt><trkpt lat="41.96892612345664" lon="12.491390837438392"><ele>24.0</ele><time>2026-04-03T14:26:28.999Z</time></trkpt><trkpt lat="41.96911453716558" lon="12.491462950309721"><ele>24.0</ele><time>2026-04-03T14:26:29.999Z</time></trkpt><trkpt lat="41.96930658213435" lon="12.491531209258287"><ele>24.0</ele><time>2026-04-03T14:26:30.999Z</time></trkpt><trkpt lat="41.96949376662924" lon="12.491594640651732"><ele>25.666666666666664</ele><time>2026-04-03T14:26:31.999Z</time></trkpt><trkpt lat="41.96967818383388" lon="12.491658458307985"><ele>27.333333333333332</ele><time>2026-04-03T14:26:32.999Z</time></trkpt><trkpt lat="41.96986140656364" lon="12.491726444995395"><ele>29.0</ele><time>2026-04-03T14:26:33.999Z</time></trkpt><trkpt lat="41.970044956950524" lon="12.491785065732008"><ele>29.0</ele><time>2026-04-03T14:26:34.999Z</time></trkpt><trkpt lat="41.97022975081529" lon="12.491841041429316"><ele>29.0</ele><time>2026-04-03T14:26:35.999Z</time></trkpt><trkpt lat="41.97041349704495" lon="12.491892399199063"><ele>29.0</ele><time>2026-04-03T14:26:36.999Z</time></trkpt><trkpt lat="41.970583131579595" lon="12.491934891434289"><ele>29.0</ele><time>2026-04-03T14:26:37.999Z</time></trkpt><trkpt lat="41.97073122908362" lon="12.491976692419755"><ele>29.0</ele><time>2026-04-03T14:26:38.999Z</time></trkpt><trkpt lat="41.97085675444214" lon="12.492006558008141"><ele>29.0</ele><time>2026-04-03T14:26:39.999Z</time></trkpt><trkpt lat="41.97095913174137" lon="12.49202728821305"><ele>29.0</ele><time>2026-04-03T14:26:40.999Z</time></trkpt><trkpt lat="41.97104547695757" lon="12.492049428063885"><ele>29.6</ele><time>2026-04-03T14:26:41.999Z</time></trkpt><trkpt lat="41.971148053976066" lon="12.492063791506796"><ele>30.2</ele><time>2026-04-03T14:26:42.999Z</time></trkpt><trkpt lat="41.971253294544915" lon="12.492091409091891"><ele>30.800000000000004</ele><time>2026-04-03T14:26:43.999Z</time></trkpt><trkpt lat="41.971325846735134" lon="12.492116454180488"><ele>31.400000000000002</ele><time>2026-04-03T14:26:44.999Z</time></trkpt><trkpt lat="41.9714467100372" lon="12.49215219577867"><ele>32.0</ele><time>2026-04-03T14:26:46.999Z</time></trkpt><trkpt lat="41.971539911728826" lon="12.49216913911444"><ele>30.400000000000002</ele><time>2026-04-03T14:26:47.999Z</time></trkpt><trkpt lat="41.97164612871262" lon="12.492192358940585"><ele>28.800000000000004</ele><time>2026-04-03T14:26:48.999Z</time></trkpt><trkpt lat="41.97175165173069" lon="12.49221545596757"><ele>27.2</ele><time>2026-04-03T14:26:49.999Z</time></trkpt><trkpt lat="41.971850409550854" lon="12.492237657981347"><ele>25.6</ele><time>2026-04-03T14:26:50.999Z</time></trkpt><trkpt lat="41.97194206599232" lon="12.492256860376632"><ele>24.0</ele><time>2026-04-03T14:26:51.999Z</time></trkpt><trkpt lat="41.97203409959901" lon="12.492273583195598"><ele>24.0</ele><time>2026-04-03T14:26:52.999Z</time></trkpt><trkpt lat="41.972151758560315" lon="12.492287185465079"><ele>24.0</ele><time>2026-04-03T14:26:53.999Z</time></trkpt><trkpt lat="41.97229177103128" lon="12.492306073677295"><ele>24.0</ele><time>2026-04-03T14:26:54.999Z</time></trkpt><trkpt lat="41.97243409270574" lon="12.492335624996228"><ele>24.0</ele><time>2026-04-03T14:26:55.999Z</time></trkpt><trkpt lat="41.97257536995383" lon="12.49236965448624"><ele>25.666666666666664</ele><time>2026-04-03T14:26:56.999Z</time></trkpt><trkpt lat="41.97272020029551" lon="12.4923970279088"><ele>27.333333333333332</ele><time>2026-04-03T14:26:57.999Z</time></trkpt><trkpt lat="41.972873013151364" lon="12.492428470015938"><ele>29.0</ele><time>2026-04-03T14:26:58.999Z</time></trkpt><trkpt lat="41.97303582734931" lon="12.492469426013967"><ele>29.0</ele><time>2026-04-03T14:26:59.999Z</time></trkpt><trkpt lat="41.9731901820564" lon="12.492509280702702"><ele>29.0</ele><time>2026-04-03T14:27:00.999Z</time></trkpt><trkpt lat="41.97333189100137" lon="12.492539862978724"><ele>29.0</ele><time>2026-04-03T14:27:01.999Z</time></trkpt><trkpt lat="41.97347252309958" lon="12.492566712628921"><ele>29.0</ele><time>2026-04-03T14:27:02.999Z</time></trkpt><trkpt lat="41.97360626051881" lon="12.492594602342674"><ele>30.0</ele><time>2026-04-03T14:27:03.999Z</time></trkpt><trkpt lat="41.97373908790177" lon="12.492625516348511"><ele>31.0</ele><time>2026-04-03T14:27:04.999Z</time></trkpt><trkpt lat="41.973862838168905" lon="12.4926484380113"><ele>32.0</ele><time>2026-04-03T14:27:05.999Z</time></trkpt><trkpt lat="41.973977477107745" lon="12.492671495848578"><ele>33.0</ele><time>2026-04-03T14:27:06.999Z</time></trkpt><trkpt lat="41.974078032114264" lon="12.492692928961047"><ele>33.0</ele><time>2026-04-03T14:27:07.999Z</time></trkpt><trkpt lat="41.974175273980215" lon="12.492713838902366"><ele>33.0</ele><time>2026-04-03T14:27:08.999Z</time></trkpt><trkpt lat="41.97428322646668" lon="12.492738066379422"><ele>33.0</ele><time>2026-04-03T14:27:09.999Z</time></trkpt><trkpt lat="41.974398406224665" lon="12.49276429144258"><ele>33.0</ele><time>2026-04-03T14:27:10.999Z</time></trkpt><trkpt lat="41.97451575785076" lon="12.492791780003607"><ele>33.0</ele><time>2026-04-03T14:27:11.999Z</time></trkpt><trkpt lat="41.974633931358994" lon="12.492816752730672"><ele>34.0</ele><time>2026-04-03T14:27:12.999Z</time></trkpt><trkpt lat="41.97474946340925" lon="12.492838471741793"><ele>35.0</ele><time>2026-04-03T14:27:13.999Z</time></trkpt><trkpt lat="41.97486457244091" lon="12.49286237583035"><ele>36.0</ele><time>2026-04-03T14:27:14.999Z</time></trkpt><trkpt lat="41.97497971753873" lon="12.492887112932621"><ele>37.0</ele><time>2026-04-03T14:27:15.999Z</time></trkpt><trkpt lat="41.975094226429796" lon="12.492912618402231"><ele>34.0</ele><time>2026-04-03T14:27:16.999Z</time></trkpt><trkpt lat="41.97520615879933" lon="12.492939309624044"><ele>31.0</ele><time>2026-04-03T14:27:17.999Z</time></trkpt><trkpt lat="41.97532882489384" lon="12.492971592545905"><ele>28.0</ele><time>2026-04-03T14:27:18.999Z</time></trkpt><trkpt lat="41.97545761619642" lon="12.493002310873974"><ele>25.0</ele><time>2026-04-03T14:27:19.999Z</time></trkpt><trkpt lat="41.975586976900395" lon="12.493035821406968"><ele>25.0</ele><time>2026-04-03T14:27:20.999Z</time></trkpt><trkpt lat="41.97571557918275" lon="12.493067976193553"><ele>25.0</ele><time>2026-04-03T14:27:21.999Z</time></trkpt><trkpt lat="41.97584465062758" lon="12.493102000190504"><ele>25.0</ele><time>2026-04-03T14:27:22.999Z</time></trkpt><trkpt lat="41.975961997577684" lon="12.493132323879419"><ele>25.0</ele><time>2026-04-03T14:27:23.999Z</time></trkpt><trkpt lat="41.97606494952129" lon="12.493162412709477"><ele>24.8</ele><time>2026-04-03T14:27:24.999Z</time></trkpt><trkpt lat="41.97615988340164" lon="12.493187578886925"><ele>24.6</ele><time>2026-04-03T14:27:25.999Z</time></trkpt><trkpt lat="41.976258034941" lon="12.49321916662603"><ele>24.4</ele><time>2026-04-03T14:27:26.999Z</time></trkpt><trkpt lat="41.976372387784096" lon="12.49325485310137"><ele>24.2</ele><time>2026-04-03T14:27:27.999Z</time></trkpt><trkpt lat="41.976492184024266" lon="12.493289331321549"><ele>24.0</ele><time>2026-04-03T14:27:28.999Z</time></trkpt><trkpt lat="41.976618336952434" lon="12.493327948795537"><ele>24.25</ele><time>2026-04-03T14:27:29.999Z</time></trkpt><trkpt lat="41.97674838454767" lon="12.493366763352691"><ele>24.5</ele><time>2026-04-03T14:27:31Z</time></trkpt><trkpt lat="41.976875569638956" lon="12.493406546911512"><ele>24.75</ele><time>2026-04-03T14:27:32Z</time></trkpt><trkpt lat="41.9769912378242" lon="12.49344169008491"><ele>25.0</ele><time>2026-04-03T14:27:33Z</time></trkpt><trkpt lat="41.977094947916726" lon="12.49347639949907"><ele>25.0</ele><time>2026-04-03T14:27:34Z</time></trkpt><trkpt lat="41.97718645858611" lon="12.493506992043569"><ele>25.0</ele><time>2026-04-03T14:27:35Z</time></trkpt><trkpt lat="41.97726649467458" lon="12.493532743728894"><ele>25.0</ele><time>2026-04-03T14:27:36Z</time></trkpt><trkpt lat="41.977332908888" lon="12.493556768734706"><ele>25.0</ele><time>2026-04-03T14:27:37Z</time></trkpt><trkpt lat="41.97745740399574" lon="12.49360465381768"><ele>25.0</ele><time>2026-04-03T14:27:39Z</time></trkpt><trkpt lat="41.97753191590013" lon="12.493630793027275"><ele>27.75</ele><time>2026-04-03T14:27:40Z</time></trkpt><trkpt lat="41.977636528510395" lon="12.493649255032004"><ele>30.5</ele><time>2026-04-03T14:27:41Z</time></trkpt><trkpt lat="41.97775664749209" lon="12.493663246117372"><ele>33.25</ele><time>2026-04-03T14:27:42Z</time></trkpt><trkpt lat="41.977881354083806" lon="12.493693707545551"><ele>36.0</ele><time>2026-04-03T14:27:43Z</time></trkpt><trkpt lat="41.97801581277509" lon="12.493728855605898"><ele>36.0</ele><time>2026-04-03T14:27:44Z</time></trkpt><trkpt lat="41.97815259608772" lon="12.49375373725494"><ele>36.0</ele><time>2026-04-03T14:27:45Z</time></trkpt><trkpt lat="41.9782917201457" lon="12.493767245158645"><ele>36.0</ele><time>2026-04-03T14:27:46Z</time></trkpt><trkpt lat="41.97843076693255" lon="12.493781187705455"><ele>36.0</ele><time>2026-04-03T14:27:47Z</time></trkpt><trkpt lat="41.978569413321075" lon="12.493788680153735"><ele>36.75</ele><time>2026-04-03T14:27:48Z</time></trkpt><trkpt lat="41.97870364662567" lon="12.493786927169172"><ele>37.5</ele><time>2026-04-03T14:27:49Z</time></trkpt><trkpt lat="41.9788343867115" lon="12.49378261312704"><ele>38.25</ele><time>2026-04-03T14:27:50Z</time></trkpt><trkpt lat="41.97896691579623" lon="12.493769674430185"><ele>39.0</ele><time>2026-04-03T14:27:51Z</time></trkpt><trkpt lat="41.97910219992664" lon="12.49374878438415"><ele>38.25</ele><time>2026-04-03T14:27:52Z</time></trkpt><trkpt lat="41.97924302629453" lon="12.493727091090383"><ele>37.5</ele><time>2026-04-03T14:27:53Z</time></trkpt><trkpt lat="41.979383360311914" lon="12.49370233705653"><ele>36.75</ele><time>2026-04-03T14:27:54Z</time></trkpt><trkpt lat="41.979523139854756" lon="12.493672376161385"><ele>36.0</ele><time>2026-04-03T14:27:55Z</time></trkpt><trkpt lat="41.979662258899594" lon="12.493642272163616"><ele>36.0</ele><time>2026-04-03T14:27:56Z</time></trkpt><trkpt lat="41.97979978270727" lon="12.49361123754003"><ele>36.0</ele><time>2026-04-03T14:27:57Z</time></trkpt><trkpt lat="41.979934002227715" lon="12.49358071425452"><ele>36.0</ele><time>2026-04-03T14:27:58Z</time></trkpt><trkpt lat="41.98006471109611" lon="12.493554951242071"><ele>36.0</ele><time>2026-04-03T14:27:59Z</time></trkpt><trkpt lat="41.98019165516449" lon="12.493530996633867"><ele>34.75</ele><time>2026-04-03T14:28:00Z</time></trkpt><trkpt lat="41.980318923314066" lon="12.493508965781345"><ele>33.5</ele><time>2026-04-03T14:28:01Z</time></trkpt><trkpt lat="41.98044924985784" lon="12.49349040148879"><ele>32.25</ele><time>2026-04-03T14:28:02Z</time></trkpt><trkpt lat="41.980583136916096" lon="12.493473100351903"><ele>31.0</ele><time>2026-04-03T14:28:03Z</time></trkpt><trkpt lat="41.98072623999193" lon="12.493456979972176"><ele>32.0</ele><time>2026-04-03T14:28:04Z</time></trkpt><trkpt lat="41.980882088582746" lon="12.49344875652214"><ele>33.0</ele><time>2026-04-03T14:28:05Z</time></trkpt><trkpt lat="41.981040191906594" lon="12.49344612542941"><ele>34.0</ele><time>2026-04-03T14:28:06Z</time></trkpt><trkpt lat="41.98120115921499" lon="12.49344111455467"><ele>34.0</ele><time>2026-04-03T14:28:07Z</time></trkpt><trkpt lat="41.981356900863574" lon="12.49343931144156"><ele>34.0</ele><time>2026-04-03T14:28:08Z</time></trkpt><trkpt lat="41.981498340676445" lon="12.49344377543692"><ele>34.0</ele><time>2026-04-03T14:28:09Z</time></trkpt><trkpt lat="41.98163525395086" lon="12.493453978509761"><ele>34.0</ele><time>2026-04-03T14:28:10Z</time></trkpt><trkpt lat="41.981770435811285" lon="12.493464238088933"><ele>34.5</ele><time>2026-04-03T14:28:11Z</time></trkpt><trkpt lat="41.98190254827835" lon="12.493477555565386"><ele>35.0</ele><time>2026-04-03T14:28:12Z</time></trkpt><trkpt lat="41.98203959403563" lon="12.493490009552314"><ele>35.5</ele><time>2026-04-03T14:28:13Z</time></trkpt><trkpt lat="41.982179731287296" lon="12.493503678996369"><ele>36.0</ele><time>2026-04-03T14:28:14Z</time></trkpt><trkpt lat="41.982320846601276" lon="12.493519651708366"><ele>36.0</ele><time>2026-04-03T14:28:15Z</time></trkpt><trkpt lat="41.98246492693506" lon="12.493537935754222"><ele>36.0</ele><time>2026-04-03T14:28:16Z</time></trkpt><trkpt lat="41.98260897818458" lon="12.493557996108375"><ele>36.0</ele><time>2026-04-03T14:28:17Z</time></trkpt><trkpt lat="41.98275386793257" lon="12.493578072723654"><ele>36.0</ele><time>2026-04-03T14:28:18Z</time></trkpt><trkpt lat="41.98290940089933" lon="12.493594689557181"><ele>34.333333333333336</ele><time>2026-04-03T14:28:19Z</time></trkpt><trkpt lat="41.983077118586515" lon="12.49360041680503"><ele>32.66666666666667</ele><time>2026-04-03T14:28:20Z</time></trkpt><trkpt lat="41.98323321547684" lon="12.49360034848101"><ele>31.0</ele><time>2026-04-03T14:28:21Z</time></trkpt><trkpt lat="41.983372917895224" lon="12.493593236988144"><ele>29.5</ele><time>2026-04-03T14:28:22Z</time></trkpt><trkpt lat="41.9834915677488" lon="12.493576694577419"><ele>28.0</ele><time>2026-04-03T14:28:23Z</time></trkpt><trkpt lat="41.98361330869656" lon="12.493546350314304"><ele>26.5</ele><time>2026-04-03T14:28:24Z</time></trkpt><trkpt lat="41.98374282050026" lon="12.493508445174145"><ele>25.0</ele><time>2026-04-03T14:28:25Z</time></trkpt><trkpt lat="41.98387171503015" lon="12.493459145567478"><ele>25.0</ele><time>2026-04-03T14:28:26Z</time></trkpt><trkpt lat="41.98400216737064" lon="12.493401053235395"><ele>25.0</ele><time>2026-04-03T14:28:27Z</time></trkpt><trkpt lat="41.98413565954312" lon="12.493337575703139"><ele>25.0</ele><time>2026-04-03T14:28:28Z</time></trkpt><trkpt lat="41.98426400260303" lon="12.493273991572943"><ele>25.0</ele><time>2026-04-03T14:28:29Z</time></trkpt><trkpt lat="41.98439129136253" lon="12.493216150995908"><ele>24.75</ele><time>2026-04-03T14:28:30Z</time></trkpt><trkpt lat="41.98452255022406" lon="12.493154519944907"><ele>24.5</ele><time>2026-04-03T14:28:31Z</time></trkpt><trkpt lat="41.98465490449758" lon="12.493088857063492"><ele>24.25</ele><time>2026-04-03T14:28:32Z</time></trkpt><trkpt lat="41.98479409781794" lon="12.493014929817562"><ele>24.0</ele><time>2026-04-03T14:28:33Z</time></trkpt><trkpt lat="41.98493460886205" lon="12.492944574546707"><ele>24.666666666666664</ele><time>2026-04-03T14:28:34Z</time></trkpt><trkpt lat="41.98508014496617" lon="12.49287375196954"><ele>25.333333333333332</ele><time>2026-04-03T14:28:35Z</time></trkpt><trkpt lat="41.98522490576422" lon="12.492806944222973"><ele>26.0</ele><time>2026-04-03T14:28:36Z</time></trkpt><trkpt lat="41.985370807678486" lon="12.492745976776579"><ele>26.0</ele><time>2026-04-03T14:28:37Z</time></trkpt><trkpt lat="41.98551271092544" lon="12.492693104123902"><ele>26.0</ele><time>2026-04-03T14:28:38Z</time></trkpt><trkpt lat="41.98564783480389" lon="12.49265356867211"><ele>26.0</ele><time>2026-04-03T14:28:39Z</time></trkpt><trkpt lat="41.98578146863731" lon="12.4926289887923"><ele>26.0</ele><time>2026-04-03T14:28:40Z</time></trkpt><trkpt lat="41.98592642698108" lon="12.49262753895864"><ele>25.75</ele><time>2026-04-03T14:28:41Z</time></trkpt><trkpt lat="41.98607026129359" lon="12.492653508707027"><ele>25.5</ele><time>2026-04-03T14:28:42Z</time></trkpt><trkpt lat="41.98620924649787" lon="12.49270118819454"><ele>25.25</ele><time>2026-04-03T14:28:43Z</time></trkpt><trkpt lat="41.98634891030956" lon="12.492768042986377"><ele>25.0</ele><time>2026-04-03T14:28:44Z</time></trkpt><trkpt lat="41.986479274617096" lon="12.492850715603103"><ele>25.25</ele><time>2026-04-03T14:28:45Z</time></trkpt><trkpt lat="41.9865983964407" lon="12.492952250222713"><ele>25.5</ele><time>2026-04-03T14:28:46Z</time></trkpt><trkpt lat="41.98670521066098" lon="12.493071813502423"><ele>25.75</ele><time>2026-04-03T14:28:47Z</time></trkpt><trkpt lat="41.98680223415312" lon="12.493213151346358"><ele>26.0</ele><time>2026-04-03T14:28:48Z</time></trkpt><trkpt lat="41.986895728219245" lon="12.493370015742618"><ele>25.75</ele><time>2026-04-03T14:28:49Z</time></trkpt><trkpt lat="41.98698612106137" lon="12.493528797691871"><ele>25.5</ele><time>2026-04-03T14:28:50Z</time></trkpt><trkpt lat="41.987064015147325" lon="12.49367175252492"><ele>25.25</ele><time>2026-04-03T14:28:51Z</time></trkpt><trkpt lat="41.98714268559281" lon="12.493812720434601"><ele>25.0</ele><time>2026-04-03T14:28:52Z</time></trkpt><trkpt lat="41.98722935745123" lon="12.493972113957073"><ele>25.0</ele><time>2026-04-03T14:28:53Z</time></trkpt><trkpt lat="41.98730911029235" lon="12.49415223904224"><ele>25.0</ele><time>2026-04-03T14:28:54Z</time></trkpt><trkpt lat="41.98739714032215" lon="12.494327799935528"><ele>25.0</ele><time>2026-04-03T14:28:55Z</time></trkpt><trkpt lat="41.98748470399318" lon="12.49447738458107"><ele>25.4</ele><time>2026-04-03T14:28:56Z</time></trkpt><trkpt lat="41.98756045540574" lon="12.494618463739293"><ele>25.8</ele><time>2026-04-03T14:28:57Z</time></trkpt><trkpt lat="41.98761605594358" lon="12.49475893055454"><ele>26.200000000000003</ele><time>2026-04-03T14:28:58Z</time></trkpt><trkpt lat="41.987645866201376" lon="12.494895790206591"><ele>26.6</ele><time>2026-04-03T14:28:59Z</time></trkpt><trkpt lat="41.98764368702721" lon="12.495022140274886"><ele>27.0</ele><time>2026-04-03T14:29:00Z</time></trkpt><trkpt lat="41.987611227914186" lon="12.495149860902462"><ele>27.0</ele><time>2026-04-03T14:29:01Z</time></trkpt><trkpt lat="41.987553064249695" lon="12.495278475778019"><ele>27.0</ele><time>2026-04-03T14:29:02Z</time></trkpt><trkpt lat="41.98746913271475" lon="12.495380701769303"><ele>27.0</ele><time>2026-04-03T14:29:03Z</time></trkpt><trkpt lat="41.98736137315245" lon="12.495444525303906"><ele>27.0</ele><time>2026-04-03T14:29:04Z</time></trkpt><trkpt lat="41.987240337646426" lon="12.495461491434803"><ele>26.75</ele><time>2026-04-03T14:29:05Z</time></trkpt><trkpt lat="41.98711353806879" lon="12.495448069107828"><ele>26.5</ele><time>2026-04-03T14:29:06Z</time></trkpt><trkpt lat="41.986987061425886" lon="12.495407783037468"><ele>26.25</ele><time>2026-04-03T14:29:07Z</time></trkpt><trkpt lat="41.986875216418966" lon="12.495339809630932"><ele>26.0</ele><time>2026-04-03T14:29:08Z</time></trkpt><trkpt lat="41.98678104644604" lon="12.49525502676659"><ele>26.0</ele><time>2026-04-03T14:29:09Z</time></trkpt><trkpt lat="41.986697418953675" lon="12.495149159565436"><ele>26.0</ele><time>2026-04-03T14:29:10Z</time></trkpt><trkpt lat="41.98662773406794" lon="12.49501484279485"><ele>26.0</ele><time>2026-04-03T14:29:11Z</time></trkpt><trkpt lat="41.986564396467585" lon="12.494862516286233"><ele>26.0</ele><time>2026-04-03T14:29:11.999Z</time></trkpt><trkpt lat="41.98648670593143" lon="12.494687306803979"><ele>26.0</ele><time>2026-04-03T14:29:12.999Z</time></trkpt><trkpt lat="41.986406055081325" lon="12.494489985348169"><ele>26.0</ele><time>2026-04-03T14:29:13.999Z</time></trkpt><trkpt lat="41.98633079453859" lon="12.494276012884526"><ele>26.0</ele><time>2026-04-03T14:29:14.999Z</time></trkpt><trkpt lat="41.98626126409374" lon="12.49404974624175"><ele>26.0</ele><time>2026-04-03T14:29:15.999Z</time></trkpt><trkpt lat="41.98619561737448" lon="12.493805432303766"><ele>26.0</ele><time>2026-04-03T14:29:16.999Z</time></trkpt><trkpt lat="41.986139718235755" lon="12.49355816644787"><ele>26.0</ele><time>2026-04-03T14:29:17.999Z</time></trkpt><trkpt lat="41.98609719253244" lon="12.493327562017956"><ele>26.0</ele><time>2026-04-03T14:29:18.999Z</time></trkpt><trkpt lat="41.986073962106104" lon="12.49311396463093"><ele>26.0</ele><time>2026-04-03T14:29:19.999Z</time></trkpt><trkpt lat="41.98603556861641" lon="12.492915193582082"><ele>26.0</ele><time>2026-04-03T14:29:20.999Z</time></trkpt><trkpt lat="41.98600510703305" lon="12.492713042507887"><ele>25.666666666666664</ele><time>2026-04-03T14:29:21.999Z</time></trkpt><trkpt lat="41.98600765950775" lon="12.4924947143861"><ele>25.333333333333336</ele><time>2026-04-03T14:29:22.999Z</time></trkpt><trkpt lat="41.985995542872914" lon="12.492262210496559"><ele>25.0</ele><time>2026-04-03T14:29:23.999Z</time></trkpt><trkpt lat="41.98598304833758" lon="12.49201517354795"><ele>23.333333333333336</ele><time>2026-04-03T14:29:24.999Z</time></trkpt><trkpt lat="41.985970479809" lon="12.491763076430583"><ele>21.666666666666668</ele><time>2026-04-03T14:29:26Z</time></trkpt><trkpt lat="41.98600174546173" lon="12.491488186366272"><ele>20.0</ele><time>2026-04-03T14:29:27Z</time></trkpt><trkpt lat="41.98598483133308" lon="12.491224633362402"><ele>19.0</ele><time>2026-04-03T14:29:28Z</time></trkpt><trkpt lat="41.98597082611454" lon="12.490968559588039"><ele>18.0</ele><time>2026-04-03T14:29:29Z</time></trkpt><trkpt lat="41.98596116832336" lon="12.49070385406271"><ele>17.0</ele><time>2026-04-03T14:29:30Z</time></trkpt><trkpt lat="41.985950481653475" lon="12.490429329079932"><ele>17.333333333333336</ele><time>2026-04-03T14:29:31Z</time></trkpt><trkpt lat="41.985934504781795" lon="12.490148299851109"><ele>17.666666666666668</ele><time>2026-04-03T14:29:32Z</time></trkpt><trkpt lat="41.98592055180154" lon="12.4898617984081"><ele>18.0</ele><time>2026-04-03T14:29:33Z</time></trkpt><trkpt lat="41.98590445302255" lon="12.489564916637887"><ele>18.5</ele><time>2026-04-03T14:29:34Z</time></trkpt><trkpt lat="41.9858880625634" lon="12.48925025471642"><ele>19.0</ele><time>2026-04-03T14:29:35Z</time></trkpt><trkpt lat="41.98587559121208" lon="12.48892213213731"><ele>19.0</ele><time>2026-04-03T14:29:36Z</time></trkpt><trkpt lat="41.98587595380342" lon="12.488592032791168"><ele>19.0</ele><time>2026-04-03T14:29:37Z</time></trkpt><trkpt lat="41.985884878777746" lon="12.488254025375047"><ele>18.0</ele><time>2026-04-03T14:29:38Z</time></trkpt><trkpt lat="41.985906764055315" lon="12.487920912334298"><ele>17.0</ele><time>2026-04-03T14:29:39Z</time></trkpt><trkpt lat="41.98594048263187" lon="12.487595438448032"><ele>17.0</ele><time>2026-04-03T14:29:40Z</time></trkpt><trkpt lat="41.98598232276299" lon="12.487296793522196"><ele>17.0</ele><time>2026-04-03T14:29:41Z</time></trkpt><trkpt lat="41.986027053417274" lon="12.487013778471148"><ele>17.0</ele><time>2026-04-03T14:29:42Z</time></trkpt><trkpt lat="41.98606733161122" lon="12.486740623108131"><ele>18.0</ele><time>2026-04-03T14:29:43Z</time></trkpt><trkpt lat="41.98610789691575" lon="12.486457400049696"><ele>19.0</ele><time>2026-04-03T14:29:44Z</time></trkpt><trkpt lat="41.98615079926474" lon="12.486142358356112"><ele>19.5</ele><time>2026-04-03T14:29:45Z</time></trkpt><trkpt lat="41.98618811684224" lon="12.485810411229206"><ele>20.0</ele><time>2026-04-03T14:29:46Z</time></trkpt><trkpt lat="41.98622905881748" lon="12.485475314633508"><ele>20.0</ele><time>2026-04-03T14:29:47Z</time></trkpt><trkpt lat="41.986269479112" lon="12.48514167287786"><ele>20.0</ele><time>2026-04-03T14:29:48Z</time></trkpt><trkpt lat="41.98630821436512" lon="12.484802279899023"><ele>21.0</ele><time>2026-04-03T14:29:49Z</time></trkpt><trkpt lat="41.986327479841435" lon="12.484485420288543"><ele>22.0</ele><time>2026-04-03T14:29:50Z</time></trkpt><trkpt lat="41.98637142303897" lon="12.484204128648098"><ele>22.0</ele><time>2026-04-03T14:29:51Z</time></trkpt><trkpt lat="41.98638346581707" lon="12.483835663757844"><ele>22.0</ele><time>2026-04-03T14:29:52Z</time></trkpt><trkpt lat="41.98639120132029" lon="12.483470609111853"><ele>22.5</ele><time>2026-04-03T14:29:53Z</time></trkpt><trkpt lat="41.98642090510072" lon="12.483094250336423"><ele>23.0</ele><time>2026-04-03T14:29:54Z</time></trkpt><trkpt lat="41.98645851169653" lon="12.482740799176371"><ele>23.0</ele><time>2026-04-03T14:29:55Z</time></trkpt><trkpt lat="41.986491405781734" lon="12.482397432790092"><ele>23.0</ele><time>2026-04-03T14:29:56Z</time></trkpt><trkpt lat="41.98651988283372" lon="12.48206245554309"><ele>23.5</ele><time>2026-04-03T14:29:57Z</time></trkpt><trkpt lat="41.98654164455801" lon="12.48175631743644"><ele>24.0</ele><time>2026-04-03T14:29:58Z</time></trkpt><trkpt lat="41.986550078887845" lon="12.481457993907526"><ele>23.666666666666668</ele><time>2026-04-03T14:29:59Z</time></trkpt><trkpt lat="41.98655829787515" lon="12.481168193201201"><ele>23.333333333333336</ele><time>2026-04-03T14:30:00Z</time></trkpt><trkpt lat="41.98656814205734" lon="12.480886455663777"><ele>23.0</ele><time>2026-04-03T14:30:01Z</time></trkpt><trkpt lat="41.98657272537959" lon="12.480616087491924"><ele>23.666666666666668</ele><time>2026-04-03T14:30:02Z</time></trkpt><trkpt lat="41.98657134855607" lon="12.480337422246931"><ele>24.333333333333336</ele><time>2026-04-03T14:30:03Z</time></trkpt><trkpt lat="41.9865794226675" lon="12.480057615585618"><ele>25.0</ele><time>2026-04-03T14:30:04Z</time></trkpt><trkpt lat="41.98657658685997" lon="12.479774308464165"><ele>26.333333333333336</ele><time>2026-04-03T14:30:05Z</time></trkpt><trkpt lat="41.9865714543629" lon="12.4794790714437"><ele>27.666666666666664</ele><time>2026-04-03T14:30:06Z</time></trkpt><trkpt lat="41.986569640151174" lon="12.479176897458833"><ele>29.0</ele><time>2026-04-03T14:30:07Z</time></trkpt><trkpt lat="41.98656349412056" lon="12.478868847912054"><ele>28.0</ele><time>2026-04-03T14:30:08Z</time></trkpt><trkpt lat="41.98655130083845" lon="12.478539024398334"><ele>27.0</ele><time>2026-04-03T14:30:09Z</time></trkpt><trkpt lat="41.98653164587892" lon="12.478202099087255"><ele>28.0</ele><time>2026-04-03T14:30:10Z</time></trkpt><trkpt lat="41.98651687797905" lon="12.477850231996056"><ele>29.0</ele><time>2026-04-03T14:30:11Z</time></trkpt><trkpt lat="41.98649531057613" lon="12.477503501689592"><ele>29.0</ele><time>2026-04-03T14:30:12Z</time></trkpt><trkpt lat="41.98647951425695" lon="12.477164646926953"><ele>29.0</ele><time>2026-04-03T14:30:13Z</time></trkpt><trkpt lat="41.986473790724595" lon="12.476837315292745"><ele>30.5</ele><time>2026-04-03T14:30:14Z</time></trkpt><trkpt lat="41.98647892984152" lon="12.476514207380797"><ele>32.0</ele><time>2026-04-03T14:30:15Z</time></trkpt><trkpt lat="41.98649638379501" lon="12.476193879465491"><ele>33.0</ele><time>2026-04-03T14:30:16Z</time></trkpt><trkpt lat="41.98652723299768" lon="12.475871713045123"><ele>34.0</ele><time>2026-04-03T14:30:17Z</time></trkpt><trkpt lat="41.986547272921236" lon="12.475537160403118"><ele>36.0</ele><time>2026-04-03T14:30:18Z</time></trkpt><trkpt lat="41.98658005931946" lon="12.475211955068596"><ele>38.0</ele><time>2026-04-03T14:30:19Z</time></trkpt><trkpt lat="41.98662804770496" lon="12.474889533774558"><ele>33.0</ele><time>2026-04-03T14:30:20Z</time></trkpt><trkpt lat="41.98668828961429" lon="12.474560985280041"><ele>28.0</ele><time>2026-04-03T14:30:21Z</time></trkpt><trkpt lat="41.986755837781864" lon="12.474240792238373"><ele>28.0</ele><time>2026-04-03T14:30:22Z</time></trkpt><trkpt lat="41.98683759768799" lon="12.473931804160781"><ele>28.0</ele><time>2026-04-03T14:30:23Z</time></trkpt><trkpt lat="41.986929648291195" lon="12.473631611740814"><ele>27.5</ele><time>2026-04-03T14:30:24Z</time></trkpt><trkpt lat="41.98702600089705" lon="12.473329200713227"><ele>27.0</ele><time>2026-04-03T14:30:25Z</time></trkpt><trkpt lat="41.987135292710086" lon="12.473016061365827"><ele>27.0</ele><time>2026-04-03T14:30:26Z</time></trkpt><trkpt lat="41.98725560116452" lon="12.472712183029312"><ele>27.0</ele><time>2026-04-03T14:30:27Z</time></trkpt><trkpt lat="41.98739249802507" lon="12.472417752495172"><ele>26.5</ele><time>2026-04-03T14:30:28Z</time></trkpt><trkpt lat="41.987539381247075" lon="12.472129409699999"><ele>26.0</ele><time>2026-04-03T14:30:29Z</time></trkpt><trkpt lat="41.987696208602436" lon="12.471847833599863"><ele>26.0</ele><time>2026-04-03T14:30:30Z</time></trkpt><trkpt lat="41.98786728903298" lon="12.471575513727672"><ele>26.0</ele><time>2026-04-03T14:30:31Z</time></trkpt><trkpt lat="41.98804627458538" lon="12.471315569677587"><ele>26.5</ele><time>2026-04-03T14:30:32Z</time></trkpt><trkpt lat="41.98822999110516" lon="12.471062578108574"><ele>27.0</ele><time>2026-04-03T14:30:33Z</time></trkpt><trkpt lat="41.988422640907125" lon="12.4708214296932"><ele>27.0</ele><time>2026-04-03T14:30:34Z</time></trkpt><trkpt lat="41.988622466314915" lon="12.470599297689384"><ele>27.0</ele><time>2026-04-03T14:30:35Z</time></trkpt><trkpt lat="41.98882131549594" lon="12.470401696078708"><ele>27.0</ele><time>2026-04-03T14:30:36Z</time></trkpt><trkpt lat="41.989013439091515" lon="12.470214733100505"><ele>27.0</ele><time>2026-04-03T14:30:37Z</time></trkpt><trkpt lat="41.98922726284114" lon="12.47004049774873"><ele>27.0</ele><time>2026-04-03T14:30:38Z</time></trkpt><trkpt lat="41.989434042829494" lon="12.469873517097268"><ele>27.0</ele><time>2026-04-03T14:30:39Z</time></trkpt><trkpt lat="41.98964238517694" lon="12.469718145731099"><ele>26.0</ele><time>2026-04-03T14:30:40Z</time></trkpt><trkpt lat="41.98987038952382" lon="12.4695632391837"><ele>25.0</ele><time>2026-04-03T14:30:41Z</time></trkpt><trkpt lat="41.9901116465965" lon="12.46940567601554"><ele>24.5</ele><time>2026-04-03T14:30:42Z</time></trkpt><trkpt lat="41.99035559926338" lon="12.469241082290157"><ele>24.0</ele><time>2026-04-03T14:30:43Z</time></trkpt><trkpt lat="41.99059675125249" lon="12.469082312861097"><ele>24.0</ele><time>2026-04-03T14:30:44Z</time></trkpt><trkpt lat="41.99084392318935" lon="12.468925318906026"><ele>24.0</ele><time>2026-04-03T14:30:45Z</time></trkpt><trkpt lat="41.99108872052175" lon="12.468767452711313"><ele>26.5</ele><time>2026-04-03T14:30:46Z</time></trkpt><trkpt lat="41.99132314768377" lon="12.468618784269319"><ele>29.0</ele><time>2026-04-03T14:30:47Z</time></trkpt><trkpt lat="41.991542992631324" lon="12.468474593076698"><ele>28.0</ele><time>2026-04-03T14:30:48Z</time></trkpt><trkpt lat="41.99175443902689" lon="12.46834219091079"><ele>27.0</ele><time>2026-04-03T14:30:49Z</time></trkpt><trkpt lat="41.99196771806581" lon="12.468206184160493"><ele>27.0</ele><time>2026-04-03T14:30:50Z</time></trkpt><trkpt lat="41.9921865926975" lon="12.468059255276687"><ele>27.0</ele><time>2026-04-03T14:30:51Z</time></trkpt><trkpt lat="41.992408233738985" lon="12.467922211450125"><ele>26.5</ele><time>2026-04-03T14:30:52Z</time></trkpt><trkpt lat="41.99263358940888" lon="12.467774630675379"><ele>26.0</ele><time>2026-04-03T14:30:53Z</time></trkpt><trkpt lat="41.99285589089252" lon="12.467633298035533"><ele>26.0</ele><time>2026-04-03T14:30:54Z</time></trkpt><trkpt lat="41.99308037294985" lon="12.4674837078927"><ele>26.0</ele><time>2026-04-03T14:30:55Z</time></trkpt><trkpt lat="41.993298659679446" lon="12.467336484600887"><ele>26.0</ele><time>2026-04-03T14:30:56Z</time></trkpt><trkpt lat="41.993517608629865" lon="12.46718604041659"><ele>26.0</ele><time>2026-04-03T14:30:57Z</time></trkpt><trkpt lat="41.99373184477316" lon="12.467010636227785"><ele>26.5</ele><time>2026-04-03T14:30:58Z</time></trkpt><trkpt lat="41.9939490189083" lon="12.466824918016876"><ele>27.0</ele><time>2026-04-03T14:30:59Z</time></trkpt><trkpt lat="41.99414763926158" lon="12.466622230529351"><ele>28.0</ele><time>2026-04-03T14:31:00Z</time></trkpt><trkpt lat="41.99433661093138" lon="12.46640671558689"><ele>29.0</ele><time>2026-04-03T14:31:01Z</time></trkpt><trkpt lat="41.99451415859928" lon="12.46617187227393"><ele>29.0</ele><time>2026-04-03T14:31:02Z</time></trkpt><trkpt lat="41.99468369592816" lon="12.465920050944861"><ele>29.0</ele><time>2026-04-03T14:31:03Z</time></trkpt><trkpt lat="41.99484222096701" lon="12.465653012902239"><ele>29.0</ele><time>2026-04-03T14:31:04Z</time></trkpt><trkpt lat="41.994991522758916" lon="12.465371399589333"><ele>29.0</ele><time>2026-04-03T14:31:05Z</time></trkpt><trkpt lat="41.99512868944998" lon="12.465078825862506"><ele>28.5</ele><time>2026-04-03T14:31:06Z</time></trkpt><trkpt lat="41.99525001518366" lon="12.46478498818219"><ele>28.0</ele><time>2026-04-03T14:31:07Z</time></trkpt><trkpt lat="41.99536042532256" lon="12.464481131284286"><ele>27.0</ele><time>2026-04-03T14:31:08Z</time></trkpt><trkpt lat="41.99545877292051" lon="12.464177717484493"><ele>26.0</ele><time>2026-04-03T14:31:09Z</time></trkpt><trkpt lat="41.99553993574081" lon="12.463869422090681"><ele>27.0</ele><time>2026-04-03T14:31:10Z</time></trkpt><trkpt lat="41.99562097279864" lon="12.463553528863638"><ele>28.0</ele><time>2026-04-03T14:31:11Z</time></trkpt><trkpt lat="41.99570316598303" lon="12.463236704752864"><ele>28.0</ele><time>2026-04-03T14:31:12Z</time></trkpt><trkpt lat="41.99579065995764" lon="12.462914085950603"><ele>28.0</ele><time>2026-04-03T14:31:13Z</time></trkpt><trkpt lat="41.995878708215066" lon="12.462590189329458"><ele>30.0</ele><time>2026-04-03T14:31:14Z</time></trkpt><trkpt lat="41.995965476003974" lon="12.46227061340366"><ele>32.0</ele><time>2026-04-03T14:31:15Z</time></trkpt><trkpt lat="41.996050777970204" lon="12.461960657687111"><ele>32.0</ele><time>2026-04-03T14:31:16Z</time></trkpt><trkpt lat="41.996134500048356" lon="12.461651894967746"><ele>32.0</ele><time>2026-04-03T14:31:17Z</time></trkpt><trkpt lat="41.99622020282661" lon="12.461341794336507"><ele>32.0</ele><time>2026-04-03T14:31:18Z</time></trkpt><trkpt lat="41.99631404472403" lon="12.461040883293503"><ele>32.0</ele><time>2026-04-03T14:31:19Z</time></trkpt><trkpt lat="41.996405523611294" lon="12.4607417103051"><ele>31.0</ele><time>2026-04-03T14:31:20Z</time></trkpt><trkpt lat="41.996504006283836" lon="12.46044517971807"><ele>30.0</ele><time>2026-04-03T14:31:21Z</time></trkpt><trkpt lat="41.99660749115732" lon="12.460145848093116"><ele>30.5</ele><time>2026-04-03T14:31:22Z</time></trkpt><trkpt lat="41.996715116464536" lon="12.459833562852541"><ele>31.0</ele><time>2026-04-03T14:31:23Z</time></trkpt><trkpt lat="41.99682579505419" lon="12.459505876693616"><ele>31.0</ele><time>2026-04-03T14:31:24Z</time></trkpt><trkpt lat="41.99694264431084" lon="12.45918187705625"><ele>31.0</ele><time>2026-04-03T14:31:25Z</time></trkpt><trkpt lat="41.997064971374776" lon="12.45886276000995"><ele>31.0</ele><time>2026-04-03T14:31:26Z</time></trkpt><trkpt lat="41.997183382760916" lon="12.458547751298386"><ele>31.0</ele><time>2026-04-03T14:31:27Z</time></trkpt><trkpt lat="41.997301674394784" lon="12.45823104146955"><ele>30.5</ele><time>2026-04-03T14:31:28Z</time></trkpt><trkpt lat="41.99741861784293" lon="12.457921267160675"><ele>30.0</ele><time>2026-04-03T14:31:29Z</time></trkpt><trkpt lat="41.99753690855248" lon="12.457611070527522"><ele>29.5</ele><time>2026-04-03T14:31:30Z</time></trkpt><trkpt lat="41.99765043342755" lon="12.457305014646442"><ele>29.0</ele><time>2026-04-03T14:31:31Z</time></trkpt><trkpt lat="41.99776733108457" lon="12.457000210566548"><ele>29.0</ele><time>2026-04-03T14:31:32Z</time></trkpt><trkpt lat="41.99788236726974" lon="12.456696091643972"><ele>29.0</ele><time>2026-04-03T14:31:33Z</time></trkpt><trkpt lat="41.99799857894761" lon="12.456385987540445"><ele>30.0</ele><time>2026-04-03T14:31:34Z</time></trkpt><trkpt lat="41.99811221198184" lon="12.45607579169723"><ele>31.0</ele><time>2026-04-03T14:31:35Z</time></trkpt><trkpt lat="41.99822863447367" lon="12.455765910649646"><ele>31.5</ele><time>2026-04-03T14:31:36Z</time></trkpt><trkpt lat="41.99834688720544" lon="12.455458164140202"><ele>32.0</ele><time>2026-04-03T14:31:37Z</time></trkpt><trkpt lat="41.99846591316582" lon="12.45515033418871"><ele>32.0</ele><time>2026-04-03T14:31:38Z</time></trkpt><trkpt lat="41.99858121527431" lon="12.454838821240084"><ele>32.0</ele><time>2026-04-03T14:31:39Z</time></trkpt><trkpt lat="41.99869718588242" lon="12.454526249366616"><ele>32.0</ele><time>2026-04-03T14:31:40Z</time></trkpt><trkpt lat="41.998814431325755" lon="12.454216241437692"><ele>32.0</ele><time>2026-04-03T14:31:41Z</time></trkpt><trkpt lat="41.99893373800628" lon="12.453902647619822"><ele>31.5</ele><time>2026-04-03T14:31:42Z</time></trkpt><trkpt lat="41.99905647583426" lon="12.453590253661831"><ele>31.0</ele><time>2026-04-03T14:31:43Z</time></trkpt><trkpt lat="41.99918974881652" lon="12.453284210579804"><ele>31.5</ele><time>2026-04-03T14:31:44Z</time></trkpt><trkpt lat="41.99933719602454" lon="12.452977307922975"><ele>32.0</ele><time>2026-04-03T14:31:45Z</time></trkpt><trkpt lat="41.99948971189533" lon="12.452677722213782"><ele>32.0</ele><time>2026-04-03T14:31:46Z</time></trkpt><trkpt lat="41.99964682323891" lon="12.452384098171894"><ele>32.0</ele><time>2026-04-03T14:31:47Z</time></trkpt><trkpt lat="41.99980357073181" lon="12.452083534835083"><ele>33.5</ele><time>2026-04-03T14:31:48Z</time></trkpt><trkpt lat="41.99995863886637" lon="12.451786938557277"><ele>35.0</ele><time>2026-04-03T14:31:49Z</time></trkpt><trkpt lat="42.00011590966806" lon="12.451489802990386"><ele>34.5</ele><time>2026-04-03T14:31:50Z</time></trkpt><trkpt lat="42.000267104177915" lon="12.451193020483316"><ele>34.0</ele><time>2026-04-03T14:31:51Z</time></trkpt><trkpt lat="42.000416232614484" lon="12.450898834805876"><ele>34.0</ele><time>2026-04-03T14:31:52Z</time></trkpt><trkpt lat="42.00056660196278" lon="12.450606982693452"><ele>34.0</ele><time>2026-04-03T14:31:53Z</time></trkpt><trkpt lat="42.00071674755886" lon="12.450313812351414"><ele>33.5</ele><time>2026-04-03T14:31:54Z</time></trkpt><trkpt lat="42.00086822224147" lon="12.450013228818746"><ele>33.0</ele><time>2026-04-03T14:31:55Z</time></trkpt><trkpt lat="42.00102353609457" lon="12.44971112455628"><ele>32.5</ele><time>2026-04-03T14:31:56Z</time></trkpt><trkpt lat="42.001178374228765" lon="12.449412367397725"><ele>32.0</ele><time>2026-04-03T14:31:57Z</time></trkpt><trkpt lat="42.0013325593464" lon="12.449112787088827"><ele>32.0</ele><time>2026-04-03T14:31:58Z</time></trkpt><trkpt lat="42.001482988550244" lon="12.448820039397976"><ele>32.0</ele><time>2026-04-03T14:31:59Z</time></trkpt><trkpt lat="42.001634493812574" lon="12.448526492735304"><ele>32.0</ele><time>2026-04-03T14:32:00Z</time></trkpt><trkpt lat="42.00178561901855" lon="12.44823204382321"><ele>32.0</ele><time>2026-04-03T14:32:01Z</time></trkpt><trkpt lat="42.00194026236007" lon="12.447936635853813"><ele>32.0</ele><time>2026-04-03T14:32:02Z</time></trkpt><trkpt lat="42.00209649794163" lon="12.447639246869874"><ele>32.0</ele><time>2026-04-03T14:32:03Z</time></trkpt><trkpt lat="42.002251154760266" lon="12.447340335629672"><ele>32.5</ele><time>2026-04-03T14:32:04Z</time></trkpt><trkpt lat="42.002411645667465" lon="12.447036162526214"><ele>33.0</ele><time>2026-04-03T14:32:05Z</time></trkpt><trkpt lat="42.002572884810654" lon="12.4467298929711"><ele>32.5</ele><time>2026-04-03T14:32:06Z</time></trkpt><trkpt lat="42.00273116946702" lon="12.446430071940863"><ele>32.0</ele><time>2026-04-03T14:32:07Z</time></trkpt><trkpt lat="42.00288204961174" lon="12.446138094137144"><ele>32.0</ele><time>2026-04-03T14:32:08Z</time></trkpt><trkpt lat="42.00302949395732" lon="12.445860860463629"><ele>32.0</ele><time>2026-04-03T14:32:09Z</time></trkpt><trkpt lat="42.00317334636725" lon="12.445587137607186"><ele>32.0</ele><time>2026-04-03T14:32:10Z</time></trkpt><trkpt lat="42.00330677154749" lon="12.445334640004038"><ele>32.0</ele><time>2026-04-03T14:32:11Z</time></trkpt><trkpt lat="42.00343257021056" lon="12.445094244424423"><ele>32.0</ele><time>2026-04-03T14:32:12Z</time></trkpt><trkpt lat="42.003554804113655" lon="12.444857441167827"><ele>36.0</ele><time>2026-04-03T14:32:13Z</time></trkpt><trkpt lat="42.003690066541836" lon="12.444598447506959"><ele>40.0</ele><time>2026-04-03T14:32:14Z</time></trkpt><trkpt lat="42.00382252156646" lon="12.44434310367286"><ele>40.0</ele><time>2026-04-03T14:32:15Z</time></trkpt><trkpt lat="42.003951217618244" lon="12.444088383207337"><ele>40.0</ele><time>2026-04-03T14:32:16Z</time></trkpt><trkpt lat="42.004078779753684" lon="12.443845328782757"><ele>38.333333333333336</ele><time>2026-04-03T14:32:17Z</time></trkpt><trkpt lat="42.0042024572806" lon="12.443608414583489"><ele>36.666666666666664</ele><time>2026-04-03T14:32:18Z</time></trkpt><trkpt lat="42.0043261516731" lon="12.443377555961913"><ele>35.0</ele><time>2026-04-03T14:32:19Z</time></trkpt><trkpt lat="42.00445429187975" lon="12.44313900292402"><ele>34.0</ele><time>2026-04-03T14:32:20Z</time></trkpt><trkpt lat="42.004587170813025" lon="12.442893116658611"><ele>33.0</ele><time>2026-04-03T14:32:21Z</time></trkpt><trkpt lat="42.00472672294846" lon="12.442630907127711"><ele>33.0</ele><time>2026-04-03T14:32:22Z</time></trkpt><trkpt lat="42.00488271720908" lon="12.442368391646298"><ele>33.0</ele><time>2026-04-03T14:32:23Z</time></trkpt><trkpt lat="42.00505211136455" lon="12.442115182239519"><ele>33.5</ele><time>2026-04-03T14:32:24Z</time></trkpt><trkpt lat="42.005230681902376" lon="12.441861461534428"><ele>34.0</ele><time>2026-04-03T14:32:25Z</time></trkpt><trkpt lat="42.005414863829294" lon="12.441612691889326"><ele>34.0</ele><time>2026-04-03T14:32:26Z</time></trkpt><trkpt lat="42.005608415253235" lon="12.44136984991311"><ele>34.0</ele><time>2026-04-03T14:32:27Z</time></trkpt><trkpt lat="42.00580996945489" lon="12.4411306929502"><ele>35.0</ele><time>2026-04-03T14:32:28Z</time></trkpt><trkpt lat="42.00601554135006" lon="12.440897033911739"><ele>36.0</ele><time>2026-04-03T14:32:29Z</time></trkpt><trkpt lat="42.00622805058919" lon="12.440672476954209"><ele>35.5</ele><time>2026-04-03T14:32:30Z</time></trkpt><trkpt lat="42.006441736684394" lon="12.44045467484337"><ele>35.0</ele><time>2026-04-03T14:32:31Z</time></trkpt><trkpt lat="42.006662978380824" lon="12.440248015191575"><ele>37.0</ele><time>2026-04-03T14:32:32Z</time></trkpt><trkpt lat="42.006890522979454" lon="12.440053207163235"><ele>39.0</ele><time>2026-04-03T14:32:33Z</time></trkpt><trkpt lat="42.007120098769654" lon="12.439866546033556"><ele>39.0</ele><time>2026-04-03T14:32:34Z</time></trkpt><trkpt lat="42.00735298583309" lon="12.439689181393193"><ele>39.0</ele><time>2026-04-03T14:32:35Z</time></trkpt><trkpt lat="42.00758876487377" lon="12.439523971286759"><ele>36.5</ele><time>2026-04-03T14:32:36Z</time></trkpt><trkpt lat="42.00782994236976" lon="12.439377387644901"><ele>34.0</ele><time>2026-04-03T14:32:37Z</time></trkpt><trkpt lat="42.00807303298723" lon="12.439242966145775"><ele>34.0</ele><time>2026-04-03T14:32:38Z</time></trkpt><trkpt lat="42.00831242358919" lon="12.439113845044876"><ele>34.0</ele><time>2026-04-03T14:32:39Z</time></trkpt><trkpt lat="42.00855039670237" lon="12.438993964053426"><ele>33.5</ele><time>2026-04-03T14:32:40Z</time></trkpt><trkpt lat="42.008787932580205" lon="12.438881527461975"><ele>33.0</ele><time>2026-04-03T14:32:41Z</time></trkpt><trkpt lat="42.00902574874969" lon="12.438776535631177"><ele>35.5</ele><time>2026-04-03T14:32:42Z</time></trkpt><trkpt lat="42.00926596439815" lon="12.438679206518676"><ele>38.0</ele><time>2026-04-03T14:32:43Z</time></trkpt><trkpt lat="42.00950771083674" lon="12.438588485679576"><ele>38.0</ele><time>2026-04-03T14:32:44Z</time></trkpt><trkpt lat="42.009751392247644" lon="12.438497559139883"><ele>38.0</ele><time>2026-04-03T14:32:45Z</time></trkpt><trkpt lat="42.009996784831124" lon="12.438403964351739"><ele>39.5</ele><time>2026-04-03T14:32:46Z</time></trkpt><trkpt lat="42.010240555812686" lon="12.438304785672115"><ele>41.0</ele><time>2026-04-03T14:32:47Z</time></trkpt><trkpt lat="42.01048371442473" lon="12.438205492687565"><ele>41.0</ele><time>2026-04-03T14:32:48Z</time></trkpt><trkpt lat="42.01072544610813" lon="12.43810971463761"><ele>41.0</ele><time>2026-04-03T14:32:49Z</time></trkpt><trkpt lat="42.0109692052235" lon="12.438016557610956"><ele>42.5</ele><time>2026-04-03T14:32:50Z</time></trkpt><trkpt lat="42.01120995810975" lon="12.437920549684108"><ele>44.0</ele><time>2026-04-03T14:32:51Z</time></trkpt><trkpt lat="42.01144721101187" lon="12.437826412637765"><ele>53.5</ele><time>2026-04-03T14:32:52Z</time></trkpt><trkpt lat="42.01167997023537" lon="12.437731832307094"><ele>63.0</ele><time>2026-04-03T14:32:53Z</time></trkpt><trkpt lat="42.011924513321986" lon="12.437634861895459"><ele>63.0</ele><time>2026-04-03T14:32:54Z</time></trkpt><trkpt lat="42.01218137694253" lon="12.43752349409054"><ele>63.0</ele><time>2026-04-03T14:32:55.024Z</time></trkpt><trkpt lat="42.01243789597804" lon="12.43741947990952"><ele>74.5</ele><time>2026-04-03T14:32:56.021Z</time></trkpt><trkpt lat="42.01270254283814" lon="12.43732103450597"><ele>86.0</ele><time>2026-04-03T14:32:57.022Z</time></trkpt><trkpt lat="42.01296728307951" lon="12.437227408408422"><ele>83.5</ele><time>2026-04-03T14:32:58.013Z</time></trkpt><trkpt lat="42.01323904309303" lon="12.43713463573659"><ele>81.0</ele><time>2026-04-03T14:32:59.024Z</time></trkpt><trkpt lat="42.014038316013306" lon="12.436798112478513"><ele>65.5</ele><time>2026-04-03T14:33:02Z</time></trkpt><trkpt lat="42.014302763138545" lon="12.43669763229868"><ele>50.0</ele><time>2026-04-03T14:33:03Z</time></trkpt><trkpt lat="42.0145755934312" lon="12.436616342991066"><ele>50.0</ele><time>2026-04-03T14:33:04Z</time></trkpt><trkpt lat="42.01482003378048" lon="12.436522215035112"><ele>50.0</ele><time>2026-04-03T14:33:05Z</time></trkpt><trkpt lat="42.015052091507904" lon="12.436408545972801"><ele>49.0</ele><time>2026-04-03T14:33:06Z</time></trkpt><trkpt lat="42.01527961808321" lon="12.436314745357116"><ele>48.0</ele><time>2026-04-03T14:33:07Z</time></trkpt><trkpt lat="42.01548993665974" lon="12.436204550077413"><ele>48.0</ele><time>2026-04-03T14:33:08Z</time></trkpt><trkpt lat="42.01572549028658" lon="12.43610546600394"><ele>48.0</ele><time>2026-04-03T14:33:09Z</time></trkpt><trkpt lat="42.01596039159341" lon="12.436009552688551"><ele>55.5</ele><time>2026-04-03T14:33:10Z</time></trkpt><trkpt lat="42.01619178208188" lon="12.435925927891661"><ele>63.0</ele><time>2026-04-03T14:33:11Z</time></trkpt><trkpt lat="42.01642484693289" lon="12.435841155703164"><ele>67.0</ele><time>2026-04-03T14:33:12Z</time></trkpt><trkpt lat="42.016660891776226" lon="12.435748598193026"><ele>71.0</ele><time>2026-04-03T14:33:13Z</time></trkpt><trkpt lat="42.0168959669095" lon="12.435645801470198"><ele>71.0</ele><time>2026-04-03T14:33:14Z</time></trkpt><trkpt lat="42.01713360502059" lon="12.435541878531403"><ele>71.0</ele><time>2026-04-03T14:33:15Z</time></trkpt><trkpt lat="42.01737351971458" lon="12.435438808139983"><ele>70.0</ele><time>2026-04-03T14:33:16Z</time></trkpt><trkpt lat="42.01761855404038" lon="12.435337270424421"><ele>69.0</ele><time>2026-04-03T14:33:17Z</time></trkpt><trkpt lat="42.01786694353694" lon="12.4352377591651"><ele>69.0</ele><time>2026-04-03T14:33:18Z</time></trkpt><trkpt lat="42.01812022837644" lon="12.4351430245"><ele>69.0</ele><time>2026-04-03T14:33:19Z</time></trkpt><trkpt lat="42.01837410464369" lon="12.435051949594104"><ele>73.5</ele><time>2026-04-03T14:33:20Z</time></trkpt><trkpt lat="42.01862775081694" lon="12.43496194864704"><ele>78.0</ele><time>2026-04-03T14:33:21Z</time></trkpt><trkpt lat="42.01887808735264" lon="12.434869712061134"><ele>78.0</ele><time>2026-04-03T14:33:22Z</time></trkpt><trkpt lat="42.019127064827586" lon="12.434775649231195"><ele>78.0</ele><time>2026-04-03T14:33:23Z</time></trkpt><trkpt lat="42.019380189243805" lon="12.434676588962601"><ele>83.5</ele><time>2026-04-03T14:33:24Z</time></trkpt><trkpt lat="42.01963279471314" lon="12.434575451960818"><ele>89.0</ele><time>2026-04-03T14:33:25Z</time></trkpt><trkpt lat="42.019889360632995" lon="12.434474081172501"><ele>91.0</ele><time>2026-04-03T14:33:26Z</time></trkpt><trkpt lat="42.020145596361395" lon="12.434373804864702"><ele>93.0</ele><time>2026-04-03T14:33:27Z</time></trkpt><trkpt lat="42.02039995897716" lon="12.434274837419109"><ele>93.0</ele><time>2026-04-03T14:33:28Z</time></trkpt><trkpt lat="42.02065406696469" lon="12.43418094196956"><ele>93.0</ele><time>2026-04-03T14:33:29Z</time></trkpt><trkpt lat="42.02090869905589" lon="12.43408946197379"><ele>95.5</ele><time>2026-04-03T14:33:30Z</time></trkpt><trkpt lat="42.02116209226064" lon="12.434000031077677"><ele>98.0</ele><time>2026-04-03T14:33:31Z</time></trkpt><trkpt lat="42.02141112201953" lon="12.433918126298009"><ele>98.0</ele><time>2026-04-03T14:33:32Z</time></trkpt><trkpt lat="42.02165952716328" lon="12.43383745612773"><ele>98.0</ele><time>2026-04-03T14:33:33Z</time></trkpt><trkpt lat="42.02190364627731" lon="12.433756388579651"><ele>96.5</ele><time>2026-04-03T14:33:34Z</time></trkpt><trkpt lat="42.02214408174867" lon="12.433666798683284"><ele>95.0</ele><time>2026-04-03T14:33:35Z</time></trkpt><trkpt lat="42.02238520667003" lon="12.433577069701487"><ele>95.5</ele><time>2026-04-03T14:33:36Z</time></trkpt><trkpt lat="42.0226214212748" lon="12.433491230798337"><ele>96.0</ele><time>2026-04-03T14:33:37Z</time></trkpt><trkpt lat="42.022862332159335" lon="12.433408186987938"><ele>96.0</ele><time>2026-04-03T14:33:38Z</time></trkpt><trkpt lat="42.02310288037333" lon="12.433328921827636"><ele>96.0</ele><time>2026-04-03T14:33:39Z</time></trkpt><trkpt lat="42.023340431315425" lon="12.433247647287287"><ele>95.0</ele><time>2026-04-03T14:33:40Z</time></trkpt><trkpt lat="42.023579131102956" lon="12.433171060830453"><ele>94.0</ele><time>2026-04-03T14:33:41Z</time></trkpt><trkpt lat="42.02382261190478" lon="12.433109562628946"><ele>94.0</ele><time>2026-04-03T14:33:42Z</time></trkpt><trkpt lat="42.024082275729626" lon="12.433065755290833"><ele>94.0</ele><time>2026-04-03T14:33:43Z</time></trkpt><trkpt lat="42.024347708555915" lon="12.432981110890037"><ele>94.0</ele><time>2026-04-03T14:33:44Z</time></trkpt><trkpt lat="42.02464443034841" lon="12.433030343820606"><ele>94.0</ele><time>2026-04-03T14:33:45Z</time></trkpt><trkpt lat="42.02475596299572" lon="12.432765457436595"><ele>93.5</ele><time>2026-04-03T14:33:46Z</time></trkpt><trkpt lat="42.0249955847393" lon="12.43268140680334"><ele>93.0</ele><time>2026-04-03T14:33:47Z</time></trkpt><trkpt lat="42.02523368034481" lon="12.43260169417799"><ele>93.0</ele><time>2026-04-03T14:33:48Z</time></trkpt><trkpt lat="42.02547168891155" lon="12.43252055330896"><ele>93.0</ele><time>2026-04-03T14:33:49Z</time></trkpt><trkpt lat="42.02570854720025" lon="12.43243616007225"><ele>92.5</ele><time>2026-04-03T14:33:50Z</time></trkpt><trkpt lat="42.02594907956315" lon="12.43235682602098"><ele>92.0</ele><time>2026-04-03T14:33:51Z</time></trkpt><trkpt lat="42.02618937325899" lon="12.432279699745575"><ele>92.0</ele><time>2026-04-03T14:33:52Z</time></trkpt><trkpt lat="42.02643295311597" lon="12.43219678605876"><ele>92.0</ele><time>2026-04-03T14:33:53Z</time></trkpt><trkpt lat="42.026678268866426" lon="12.432112136099681"><ele>94.5</ele><time>2026-04-03T14:33:54Z</time></trkpt><trkpt lat="42.026919575155624" lon="12.432026733666461"><ele>97.0</ele><time>2026-04-03T14:33:55Z</time></trkpt><trkpt lat="42.02716311707317" lon="12.431940404669477"><ele>97.0</ele><time>2026-04-03T14:33:56Z</time></trkpt><trkpt lat="42.02740398944529" lon="12.431857087763394"><ele>97.0</ele><time>2026-04-03T14:33:57Z</time></trkpt><trkpt lat="42.027641723445605" lon="12.431773836533392"><ele>96.33333333333334</ele><time>2026-04-03T14:33:58Z</time></trkpt><trkpt lat="42.02785525140669" lon="12.431701053374244"><ele>95.66666666666667</ele><time>2026-04-03T14:33:59Z</time></trkpt><trkpt lat="42.028029381401325" lon="12.431646894535106"><ele>95.0</ele><time>2026-04-03T14:34:00Z</time></trkpt><trkpt lat="42.02816905236375" lon="12.431608239703333"><ele>95.0</ele><time>2026-04-03T14:34:01Z</time></trkpt><trkpt lat="42.028282018482656" lon="12.431588074415764"><ele>95.0</ele><time>2026-04-03T14:34:02Z</time></trkpt><trkpt lat="42.028370939817634" lon="12.4315683367235"><ele>95.0</ele><time>2026-04-03T14:34:03Z</time></trkpt><trkpt lat="42.02843625701657" lon="12.431547501776297"><ele>95.0</ele><time>2026-04-03T14:34:05Z</time></trkpt><trkpt lat="42.02836945989982" lon="12.431569195657755"><ele>95.0</ele><time>2026-04-03T14:34:16Z</time></trkpt><trkpt lat="42.02844923548551" lon="12.431517736153964"><ele>95.0</ele><time>2026-04-03T14:35:30.001Z</time></trkpt><trkpt lat="42.028511736024264" lon="12.431479866873453"><ele>95.25</ele><time>2026-04-03T14:35:31.001Z</time></trkpt><trkpt lat="42.028611808879006" lon="12.431422205476114"><ele>95.5</ele><time>2026-04-03T14:35:32.001Z</time></trkpt><trkpt lat="42.02874512023887" lon="12.431357587475782"><ele>95.75</ele><time>2026-04-03T14:35:33.001Z</time></trkpt><trkpt lat="42.02890733699444" lon="12.431287058149756"><ele>96.0</ele><time>2026-04-03T14:35:34.001Z</time></trkpt><trkpt lat="42.02908925730637" lon="12.431212324739269"><ele>94.0</ele><time>2026-04-03T14:35:35.001Z</time></trkpt><trkpt lat="42.02927440176046" lon="12.431133347786897"><ele>92.0</ele><time>2026-04-03T14:35:36.001Z</time></trkpt><trkpt lat="42.029469084788865" lon="12.431042269337455"><ele>90.0</ele><time>2026-04-03T14:35:37.001Z</time></trkpt><trkpt lat="42.02966966054097" lon="12.430930893484788"><ele>90.0</ele><time>2026-04-03T14:35:38.001Z</time></trkpt><trkpt lat="42.029880767805864" lon="12.430800661215349"><ele>90.0</ele><time>2026-04-03T14:35:39.001Z</time></trkpt><trkpt lat="42.030097183958816" lon="12.430677504752076"><ele>90.5</ele><time>2026-04-03T14:35:40.001Z</time></trkpt><trkpt lat="42.03032572094746" lon="12.430559561708527"><ele>91.0</ele><time>2026-04-03T14:35:41.001Z</time></trkpt><trkpt lat="42.03054222053599" lon="12.430437328583206"><ele>91.66666666666666</ele><time>2026-04-03T14:35:42.001Z</time></trkpt><trkpt lat="42.0307464230073" lon="12.43032529298715"><ele>92.33333333333333</ele><time>2026-04-03T14:35:43.001Z</time></trkpt><trkpt lat="42.03094883839063" lon="12.430214809749103"><ele>93.0</ele><time>2026-04-03T14:35:44.001Z</time></trkpt><trkpt lat="42.03113354472854" lon="12.430107319143774"><ele>93.0</ele><time>2026-04-03T14:35:45.001Z</time></trkpt><trkpt lat="42.03131979046566" lon="12.42998341294821"><ele>93.0</ele><time>2026-04-03T14:35:46.001Z</time></trkpt><trkpt lat="42.03151122354517" lon="12.429849080946914"><ele>93.0</ele><time>2026-04-03T14:35:47.001Z</time></trkpt><trkpt lat="42.03170944200645" lon="12.429709294046276"><ele>95.0</ele><time>2026-04-03T14:35:48.001Z</time></trkpt><trkpt lat="42.03190740612187" lon="12.429565160828995"><ele>97.0</ele><time>2026-04-03T14:35:49Z</time></trkpt><trkpt lat="42.032109680531754" lon="12.429410790091284"><ele>97.0</ele><time>2026-04-03T14:35:50Z</time></trkpt><trkpt lat="42.03231102519789" lon="12.429242299863214"><ele>97.0</ele><time>2026-04-03T14:35:51Z</time></trkpt><trkpt lat="42.032523373500055" lon="12.42907737328646"><ele>98.5</ele><time>2026-04-03T14:35:52Z</time></trkpt><trkpt lat="42.032729327315245" lon="12.428897952348384"><ele>100.0</ele><time>2026-04-03T14:35:53Z</time></trkpt><trkpt lat="42.03292825941257" lon="12.4287225028948"><ele>100.0</ele><time>2026-04-03T14:35:54Z</time></trkpt><trkpt lat="42.03312917997313" lon="12.428544272111782"><ele>100.0</ele><time>2026-04-03T14:35:55Z</time></trkpt><trkpt lat="42.03332506508886" lon="12.428368423430918"><ele>100.0</ele><time>2026-04-03T14:35:56Z</time></trkpt><trkpt lat="42.03351830012203" lon="12.428188454501798"><ele>100.0</ele><time>2026-04-03T14:35:57Z</time></trkpt><trkpt lat="42.03371598960527" lon="12.428013003471275"><ele>95.5</ele><time>2026-04-03T14:35:58Z</time></trkpt><trkpt lat="42.03391201647781" lon="12.42783742025618"><ele>91.0</ele><time>2026-04-03T14:35:59Z</time></trkpt><trkpt lat="42.03410834156131" lon="12.427660139895355"><ele>94.0</ele><time>2026-04-03T14:36:00Z</time></trkpt><trkpt lat="42.034309922696444" lon="12.427480767694501"><ele>97.0</ele><time>2026-04-03T14:36:01Z</time></trkpt><trkpt lat="42.034511484661834" lon="12.427303104098995"><ele>93.0</ele><time>2026-04-03T14:36:02Z</time></trkpt><trkpt lat="42.034708429669145" lon="12.427118004250513"><ele>89.0</ele><time>2026-04-03T14:36:03Z</time></trkpt><trkpt lat="42.034910412532255" lon="12.426930939103837"><ele>93.5</ele><time>2026-04-03T14:36:04Z</time></trkpt><trkpt lat="42.03510947915353" lon="12.426752421434117"><ele>98.0</ele><time>2026-04-03T14:36:05Z</time></trkpt><trkpt lat="42.035308313805594" lon="12.426580136793396"><ele>98.0</ele><time>2026-04-03T14:36:06Z</time></trkpt><trkpt lat="42.035507970354644" lon="12.426404210373727"><ele>98.0</ele><time>2026-04-03T14:36:07Z</time></trkpt><trkpt lat="42.035712582060896" lon="12.42622061490233"><ele>96.5</ele><time>2026-04-03T14:36:08Z</time></trkpt><trkpt lat="42.035921789328654" lon="12.426031220979148"><ele>95.0</ele><time>2026-04-03T14:36:09Z</time></trkpt><trkpt lat="42.03613962451014" lon="12.425831523032715"><ele>95.0</ele><time>2026-04-03T14:36:10Z</time></trkpt><trkpt lat="42.036356195966206" lon="12.425632800213101"><ele>95.0</ele><time>2026-04-03T14:36:11Z</time></trkpt><trkpt lat="42.036566221504046" lon="12.425451501314566"><ele>92.0</ele><time>2026-04-03T14:36:12Z</time></trkpt><trkpt lat="42.036770501381696" lon="12.425263698254485"><ele>89.0</ele><time>2026-04-03T14:36:13Z</time></trkpt><trkpt lat="42.036975299427944" lon="12.4250828197072"><ele>89.0</ele><time>2026-04-03T14:36:14Z</time></trkpt><trkpt lat="42.037179090067724" lon="12.424895634037503"><ele>89.0</ele><time>2026-04-03T14:36:15Z</time></trkpt><trkpt lat="42.037380783468656" lon="12.424711159335667"><ele>86.5</ele><time>2026-04-03T14:36:16Z</time></trkpt><trkpt lat="42.037573875307174" lon="12.424516891755294"><ele>84.0</ele><time>2026-04-03T14:36:17Z</time></trkpt><trkpt lat="42.037777281906706" lon="12.424342456469116"><ele>84.0</ele><time>2026-04-03T14:36:18Z</time></trkpt><trkpt lat="42.03798747653065" lon="12.424167622184553"><ele>84.0</ele><time>2026-04-03T14:36:19Z</time></trkpt><trkpt lat="42.038202871356546" lon="12.423973371405218"><ele>84.0</ele><time>2026-04-03T14:36:20Z</time></trkpt><trkpt lat="42.03841802992811" lon="12.423776479873155"><ele>84.0</ele><time>2026-04-03T14:36:21Z</time></trkpt><trkpt lat="42.038636800435896" lon="12.423577953363374"><ele>84.0</ele><time>2026-04-03T14:36:22Z</time></trkpt><trkpt lat="42.03885840656814" lon="12.423377226384503"><ele>84.0</ele><time>2026-04-03T14:36:23Z</time></trkpt><trkpt lat="42.03907421119055" lon="12.423173270503627"><ele>86.0</ele><time>2026-04-03T14:36:24Z</time></trkpt><trkpt lat="42.03929035423681" lon="12.42297008208871"><ele>88.0</ele><time>2026-04-03T14:36:25Z</time></trkpt><trkpt lat="42.039510464344914" lon="12.422755249961355"><ele>88.0</ele><time>2026-04-03T14:36:26Z</time></trkpt><trkpt lat="42.039735687084075" lon="12.422528692692122"><ele>88.0</ele><time>2026-04-03T14:36:27Z</time></trkpt><trkpt lat="42.039967216924204" lon="12.422300325118275"><ele>90.0</ele><time>2026-04-03T14:36:28Z</time></trkpt><trkpt lat="42.04018963783645" lon="12.422058940249164"><ele>92.0</ele><time>2026-04-03T14:36:29Z</time></trkpt><trkpt lat="42.040409708808994" lon="12.421810582446465"><ele>92.0</ele><time>2026-04-03T14:36:30Z</time></trkpt><trkpt lat="42.04062825763489" lon="12.421558775180223"><ele>92.0</ele><time>2026-04-03T14:36:31Z</time></trkpt><trkpt lat="42.040831453050345" lon="12.421298280138691"><ele>92.0</ele><time>2026-04-03T14:36:32Z</time></trkpt><trkpt lat="42.04102024352862" lon="12.421034221979419"><ele>92.0</ele><time>2026-04-03T14:36:33Z</time></trkpt><trkpt lat="42.04119846389658" lon="12.420769213761364"><ele>92.0</ele><time>2026-04-03T14:36:34Z</time></trkpt><trkpt lat="42.04136784192504" lon="12.420503868326703"><ele>92.0</ele><time>2026-04-03T14:36:35Z</time></trkpt><trkpt lat="42.041528530881635" lon="12.420233735839862"><ele>94.5</ele><time>2026-04-03T14:36:36Z</time></trkpt><trkpt lat="42.04167932353444" lon="12.419962212108942"><ele>97.0</ele><time>2026-04-03T14:36:37Z</time></trkpt><trkpt lat="42.041823104909966" lon="12.419692986820957"><ele>95.0</ele><time>2026-04-03T14:36:38Z</time></trkpt><trkpt lat="42.041960382128615" lon="12.419413362573204"><ele>93.0</ele><time>2026-04-03T14:36:39Z</time></trkpt><trkpt lat="42.042088806920276" lon="12.419129435008191"><ele>93.0</ele><time>2026-04-03T14:36:40Z</time></trkpt><trkpt lat="42.042210873588026" lon="12.418863057621973"><ele>93.0</ele><time>2026-04-03T14:36:41Z</time></trkpt><trkpt lat="42.04232169547574" lon="12.418606847785245"><ele>93.66666666666667</ele><time>2026-04-03T14:36:42Z</time></trkpt><trkpt lat="42.042421489384886" lon="12.418348828366753"><ele>94.33333333333334</ele><time>2026-04-03T14:36:43Z</time></trkpt><trkpt lat="42.04251702772" lon="12.418081879777004"><ele>95.0</ele><time>2026-04-03T14:36:44Z</time></trkpt><trkpt lat="42.04260994821148" lon="12.417801010992982"><ele>96.33333333333334</ele><time>2026-04-03T14:36:45Z</time></trkpt><trkpt lat="42.04269614075626" lon="12.417520666050741"><ele>97.66666666666667</ele><time>2026-04-03T14:36:46Z</time></trkpt><trkpt lat="42.04277484184999" lon="12.417241594066887"><ele>99.0</ele><time>2026-04-03T14:36:47Z</time></trkpt><trkpt lat="42.04285097083651" lon="12.416962896513628"><ele>100.33333333333334</ele><time>2026-04-03T14:36:48Z</time></trkpt><trkpt lat="42.0429243468156" lon="12.416681065367385"><ele>101.66666666666667</ele><time>2026-04-03T14:36:49Z</time></trkpt><trkpt lat="42.04299257181939" lon="12.416391469332686"><ele>103.0</ele><time>2026-04-03T14:36:50Z</time></trkpt><trkpt lat="42.04305586590259" lon="12.416097015178456"><ele>103.0</ele><time>2026-04-03T14:36:51Z</time></trkpt><trkpt lat="42.04311618242488" lon="12.41580008982909"><ele>103.0</ele><time>2026-04-03T14:36:52Z</time></trkpt><trkpt lat="42.043175236124995" lon="12.415496589026324"><ele>105.0</ele><time>2026-04-03T14:36:53Z</time></trkpt><trkpt lat="42.043224145368676" lon="12.415180937061459"><ele>107.0</ele><time>2026-04-03T14:36:54Z</time></trkpt><trkpt lat="42.04327052255247" lon="12.414865937033847"><ele>107.5</ele><time>2026-04-03T14:36:55Z</time></trkpt><trkpt lat="42.04331419787505" lon="12.414549804019455"><ele>108.0</ele><time>2026-04-03T14:36:56Z</time></trkpt><trkpt lat="42.04335746186045" lon="12.414239355101746"><ele>108.0</ele><time>2026-04-03T14:36:57Z</time></trkpt><trkpt lat="42.04340361618168" lon="12.4139408361611"><ele>108.0</ele><time>2026-04-03T14:36:58Z</time></trkpt><trkpt lat="42.04345177858267" lon="12.413651956508712"><ele>108.0</ele><time>2026-04-03T14:36:59Z</time></trkpt><trkpt lat="42.04349417397767" lon="12.413370959341123"><ele>107.66666666666666</ele><time>2026-04-03T14:37:00Z</time></trkpt><trkpt lat="42.04353623416157" lon="12.413093191113695"><ele>107.33333333333333</ele><time>2026-04-03T14:37:01Z</time></trkpt><trkpt lat="42.043575766870006" lon="12.412816091271614"><ele>107.0</ele><time>2026-04-03T14:37:02Z</time></trkpt><trkpt lat="42.04361618089352" lon="12.412535494475852"><ele>107.0</ele><time>2026-04-03T14:37:03Z</time></trkpt><trkpt lat="42.0436592200915" lon="12.412248814378701"><ele>107.0</ele><time>2026-04-03T14:37:04Z</time></trkpt><trkpt lat="42.043700494809684" lon="12.411974907968645"><ele>107.0</ele><time>2026-04-03T14:37:05Z</time></trkpt><trkpt lat="42.04374311759292" lon="12.411700437771668"><ele>107.33333333333333</ele><time>2026-04-03T14:37:06Z</time></trkpt><trkpt lat="42.04378625560476" lon="12.41142167215754"><ele>107.66666666666666</ele><time>2026-04-03T14:37:07Z</time></trkpt><trkpt lat="42.04383201252809" lon="12.411139339857678"><ele>108.0</ele><time>2026-04-03T14:37:08Z</time></trkpt><trkpt lat="42.043878415457606" lon="12.410845909934134"><ele>109.0</ele><time>2026-04-03T14:37:09Z</time></trkpt><trkpt lat="42.043926069250574" lon="12.41054777729683"><ele>110.0</ele><time>2026-04-03T14:37:10Z</time></trkpt><trkpt lat="42.04397071473116" lon="12.41024571188914"><ele>107.5</ele><time>2026-04-03T14:37:11Z</time></trkpt><trkpt lat="42.04401296762767" lon="12.40994078339646"><ele>105.0</ele><time>2026-04-03T14:37:12Z</time></trkpt><trkpt lat="42.04405334565708" lon="12.409636868067018"><ele>106.5</ele><time>2026-04-03T14:37:13Z</time></trkpt><trkpt lat="42.044096205268055" lon="12.409338072984442"><ele>108.0</ele><time>2026-04-03T14:37:14Z</time></trkpt><trkpt lat="42.04413943073977" lon="12.409039632010796"><ele>106.5</ele><time>2026-04-03T14:37:15Z</time></trkpt><trkpt lat="42.04418267057362" lon="12.408743683214988"><ele>105.0</ele><time>2026-04-03T14:37:16Z</time></trkpt><trkpt lat="42.04422722263761" lon="12.40844492033324"><ele>105.0</ele><time>2026-04-03T14:37:17Z</time></trkpt><trkpt lat="42.0442721626138" lon="12.408145577145953"><ele>105.0</ele><time>2026-04-03T14:37:18Z</time></trkpt><trkpt lat="42.044317391784986" lon="12.407846398320087"><ele>104.0</ele><time>2026-04-03T14:37:19Z</time></trkpt><trkpt lat="42.04436186148227" lon="12.407548989833666"><ele>103.0</ele><time>2026-04-03T14:37:20Z</time></trkpt><trkpt lat="42.04440540199565" lon="12.407251342497545"><ele>103.66666666666667</ele><time>2026-04-03T14:37:21Z</time></trkpt><trkpt lat="42.04444774045564" lon="12.406953966307755"><ele>104.33333333333334</ele><time>2026-04-03T14:37:22Z</time></trkpt><trkpt lat="42.04449320454156" lon="12.40665822062506"><ele>105.0</ele><time>2026-04-03T14:37:23Z</time></trkpt><trkpt lat="42.04453636631845" lon="12.406359889289606"><ele>109.5</ele><time>2026-04-03T14:37:24Z</time></trkpt><trkpt lat="42.04457536456095" lon="12.406060052601221"><ele>114.0</ele><time>2026-04-03T14:37:25Z</time></trkpt><trkpt lat="42.044608973913114" lon="12.405762154508205"><ele>115.66666666666666</ele><time>2026-04-03T14:37:26Z</time></trkpt><trkpt lat="42.044641525924" lon="12.405469430230637"><ele>117.33333333333333</ele><time>2026-04-03T14:37:27Z</time></trkpt><trkpt lat="42.044672438207456" lon="12.405177100632269"><ele>119.0</ele><time>2026-04-03T14:37:28Z</time></trkpt><trkpt lat="42.04469896418362" lon="12.404877769662109"><ele>118.0</ele><time>2026-04-03T14:37:29Z</time></trkpt><trkpt lat="42.04471946589612" lon="12.404570949387182"><ele>117.0</ele><time>2026-04-03T14:37:30Z</time></trkpt><trkpt lat="42.04474069909385" lon="12.404259223517613"><ele>117.0</ele><time>2026-04-03T14:37:31Z</time></trkpt><trkpt lat="42.044761370223185" lon="12.403944827277035"><ele>117.0</ele><time>2026-04-03T14:37:32Z</time></trkpt><trkpt lat="42.04477983788154" lon="12.4036254638912"><ele>114.0</ele><time>2026-04-03T14:37:33Z</time></trkpt><trkpt lat="42.04479617363512" lon="12.403296366306645"><ele>111.0</ele><time>2026-04-03T14:37:34Z</time></trkpt><trkpt lat="42.044809337814144" lon="12.402954554085923"><ele>111.0</ele><time>2026-04-03T14:37:35Z</time></trkpt><trkpt lat="42.044814047621436" lon="12.402608050849603"><ele>111.0</ele><time>2026-04-03T14:37:36Z</time></trkpt><trkpt lat="42.04481358505465" lon="12.402264216096567"><ele>114.0</ele><time>2026-04-03T14:37:37Z</time></trkpt><trkpt lat="42.044812338708" lon="12.401919131486173"><ele>117.0</ele><time>2026-04-03T14:37:38Z</time></trkpt><trkpt lat="42.04480710519896" lon="12.401559543336326"><ele>120.0</ele><time>2026-04-03T14:37:39Z</time></trkpt><trkpt lat="42.0447984339674" lon="12.4011960527524"><ele>123.0</ele><time>2026-04-03T14:37:40Z</time></trkpt><trkpt lat="42.04479088144812" lon="12.40083157861503"><ele>123.5</ele><time>2026-04-03T14:37:41Z</time></trkpt><trkpt lat="42.04478609144146" lon="12.400467561971704"><ele>124.0</ele><time>2026-04-03T14:37:42Z</time></trkpt><trkpt lat="42.04478704210766" lon="12.400100186260508"><ele>124.0</ele><time>2026-04-03T14:37:43Z</time></trkpt><trkpt lat="42.044789828956056" lon="12.39973521670369"><ele>124.0</ele><time>2026-04-03T14:37:44Z</time></trkpt><trkpt lat="42.04480100467771" lon="12.399372888196009"><ele>123.0</ele><time>2026-04-03T14:37:45Z</time></trkpt><trkpt lat="42.04482267556726" lon="12.399016241944649"><ele>122.0</ele><time>2026-04-03T14:37:46Z</time></trkpt><trkpt lat="42.04485089652003" lon="12.398663274152582"><ele>122.0</ele><time>2026-04-03T14:37:47Z</time></trkpt><trkpt lat="42.0448858037147" lon="12.398312082108475"><ele>122.0</ele><time>2026-04-03T14:37:48Z</time></trkpt><trkpt lat="42.04492775145721" lon="12.397964640780181"><ele>122.0</ele><time>2026-04-03T14:37:49Z</time></trkpt><trkpt lat="42.04498286509673" lon="12.397612552757726"><ele>122.0</ele><time>2026-04-03T14:37:50Z</time></trkpt><trkpt lat="42.04504797979687" lon="12.397248346122831"><ele>122.5</ele><time>2026-04-03T14:37:51Z</time></trkpt><trkpt lat="42.045125309605176" lon="12.396872408173031"><ele>123.0</ele><time>2026-04-03T14:37:52Z</time></trkpt><trkpt lat="42.04521411851283" lon="12.396493256462163"><ele>123.5</ele><time>2026-04-03T14:37:53Z</time></trkpt><trkpt lat="42.04531539642351" lon="12.396118370052468"><ele>124.0</ele><time>2026-04-03T14:37:54Z</time></trkpt><trkpt lat="42.045420147370244" lon="12.395756497709334"><ele>124.5</ele><time>2026-04-03T14:37:55Z</time></trkpt><trkpt lat="42.045527698444836" lon="12.395404193273466"><ele>125.0</ele><time>2026-04-03T14:37:56Z</time></trkpt><trkpt lat="42.045633595432996" lon="12.395057787805767"><ele>125.0</ele><time>2026-04-03T14:37:57Z</time></trkpt><trkpt lat="42.04573287463498" lon="12.394722742112961"><ele>125.0</ele><time>2026-04-03T14:37:58Z</time></trkpt><trkpt lat="42.04582747681423" lon="12.394387572141309"><ele>125.0</ele><time>2026-04-03T14:37:59Z</time></trkpt><trkpt lat="42.0459175111925" lon="12.394050326256705"><ele>125.0</ele><time>2026-04-03T14:38:00Z</time></trkpt><trkpt lat="42.046004294639125" lon="12.393710966788696"><ele>126.5</ele><time>2026-04-03T14:38:01Z</time></trkpt><trkpt lat="42.04608782287456" lon="12.393370996388176"><ele>128.0</ele><time>2026-04-03T14:38:02Z</time></trkpt><trkpt lat="42.04617104837948" lon="12.393026394451894"><ele>129.0</ele><time>2026-04-03T14:38:03Z</time></trkpt><trkpt lat="42.046251029843575" lon="12.392681248596961"><ele>130.0</ele><time>2026-04-03T14:38:04Z</time></trkpt><trkpt lat="42.046330338993926" lon="12.392338011833793"><ele>128.5</ele><time>2026-04-03T14:38:05Z</time></trkpt><trkpt lat="42.04640302263565" lon="12.392003283382488"><ele>127.0</ele><time>2026-04-03T14:38:06Z</time></trkpt><trkpt lat="42.046474079821515" lon="12.391668336207255"><ele>123.5</ele><time>2026-04-03T14:38:07Z</time></trkpt><trkpt lat="42.046543001964714" lon="12.391338949036385"><ele>120.0</ele><time>2026-04-03T14:38:08Z</time></trkpt><trkpt lat="42.04660996949251" lon="12.391020476299047"><ele>119.66666666666666</ele><time>2026-04-03T14:38:09Z</time></trkpt><trkpt lat="42.04667545552578" lon="12.390731543607055"><ele>119.33333333333333</ele><time>2026-04-03T14:38:10Z</time></trkpt><trkpt lat="42.04674534270807" lon="12.390463020415737"><ele>119.0</ele><time>2026-04-03T14:38:11Z</time></trkpt><trkpt lat="42.046811676029776" lon="12.39020897003547"><ele>117.0</ele><time>2026-04-03T14:38:12Z</time></trkpt><trkpt lat="42.046879815727145" lon="12.389944234872681"><ele>115.0</ele><time>2026-04-03T14:38:13Z</time></trkpt><trkpt lat="42.04695256941255" lon="12.389649942386392"><ele>113.0</ele><time>2026-04-03T14:38:14Z</time></trkpt><trkpt lat="42.04702970339168" lon="12.389335969903984"><ele>111.0</ele><time>2026-04-03T14:38:15Z</time></trkpt><trkpt lat="42.04711386968669" lon="12.389007957110442"><ele>109.0</ele><time>2026-04-03T14:38:16Z</time></trkpt><trkpt lat="42.04720128184274" lon="12.388666800529426"><ele>107.0</ele><time>2026-04-03T14:38:17Z</time></trkpt><trkpt lat="42.04729245759948" lon="12.38832036624177"><ele>105.0</ele><time>2026-04-03T14:38:18Z</time></trkpt><trkpt lat="42.04738857029869" lon="12.387971424172163"><ele>107.5</ele><time>2026-04-03T14:38:19Z</time></trkpt><trkpt lat="42.047489022196515" lon="12.387618195026516"><ele>110.0</ele><time>2026-04-03T14:38:20Z</time></trkpt><trkpt lat="42.04759383099123" lon="12.387267072645683"><ele>108.0</ele><time>2026-04-03T14:38:21Z</time></trkpt><trkpt lat="42.04770152101626" lon="12.386916658796093"><ele>106.0</ele><time>2026-04-03T14:38:22Z</time></trkpt><trkpt lat="42.04781321542545" lon="12.386568840698537"><ele>106.0</ele><time>2026-04-03T14:38:23Z</time></trkpt><trkpt lat="42.047926334275985" lon="12.386223401659187"><ele>106.0</ele><time>2026-04-03T14:38:24Z</time></trkpt><trkpt lat="42.048046071650276" lon="12.385880126427885"><ele>106.0</ele><time>2026-04-03T14:38:25Z</time></trkpt><trkpt lat="42.04816654678486" lon="12.385542635949925"><ele>106.0</ele><time>2026-04-03T14:38:26Z</time></trkpt><trkpt lat="42.048291530198924" lon="12.385209749962497"><ele>106.0</ele><time>2026-04-03T14:38:27Z</time></trkpt><trkpt lat="42.04841918552354" lon="12.384877840260675"><ele>106.0</ele><time>2026-04-03T14:38:28Z</time></trkpt><trkpt lat="42.048550022239525" lon="12.384553920863205"><ele>106.0</ele><time>2026-04-03T14:38:29Z</time></trkpt><trkpt lat="42.04868432429938" lon="12.384233501702914"><ele>106.0</ele><time>2026-04-03T14:38:30Z</time></trkpt><trkpt lat="42.04882390366705" lon="12.383918980412588"><ele>111.5</ele><time>2026-04-03T14:38:31Z</time></trkpt><trkpt lat="42.04896501975824" lon="12.383606425786077"><ele>117.0</ele><time>2026-04-03T14:38:32Z</time></trkpt><trkpt lat="42.04911049546926" lon="12.383296033772462"><ele>121.0</ele><time>2026-04-03T14:38:33Z</time></trkpt><trkpt lat="42.049256841159895" lon="12.382989655541065"><ele>125.0</ele><time>2026-04-03T14:38:34Z</time></trkpt><trkpt lat="42.04940639807488" lon="12.38268477755834"><ele>125.0</ele><time>2026-04-03T14:38:35Z</time></trkpt><trkpt lat="42.04955993498697" lon="12.382382220089399"><ele>125.0</ele><time>2026-04-03T14:38:36Z</time></trkpt><trkpt lat="42.0497245835561" lon="12.382076108560689"><ele>126.0</ele><time>2026-04-03T14:38:37Z</time></trkpt><trkpt lat="42.04989094206915" lon="12.38176048860054"><ele>127.0</ele><time>2026-04-03T14:38:38Z</time></trkpt><trkpt lat="42.05005625717586" lon="12.381446391832856"><ele>133.5</ele><time>2026-04-03T14:38:39Z</time></trkpt><trkpt lat="42.050225855417885" lon="12.38113435173308"><ele>140.0</ele><time>2026-04-03T14:38:40Z</time></trkpt><trkpt lat="42.050399640090156" lon="12.380817652909233"><ele>139.5</ele><time>2026-04-03T14:38:41Z</time></trkpt><trkpt lat="42.05057454434362" lon="12.380501684742956"><ele>139.0</ele><time>2026-04-03T14:38:42Z</time></trkpt><trkpt lat="42.050747118833314" lon="12.380189555242602"><ele>139.0</ele><time>2026-04-03T14:38:43Z</time></trkpt><trkpt lat="42.050916068891944" lon="12.379878785335238"><ele>139.0</ele><time>2026-04-03T14:38:44Z</time></trkpt><trkpt lat="42.051079750691734" lon="12.379570557606888"><ele>139.0</ele><time>2026-04-03T14:38:45Z</time></trkpt><trkpt lat="42.051236720149205" lon="12.379272491914916"><ele>139.0</ele><time>2026-04-03T14:38:46Z</time></trkpt><trkpt lat="42.05138880980695" lon="12.378981419721825"><ele>139.0</ele><time>2026-04-03T14:38:47Z</time></trkpt><trkpt lat="42.051538353583126" lon="12.378698716783813"><ele>139.0</ele><time>2026-04-03T14:38:48Z</time></trkpt><trkpt lat="42.05168667516067" lon="12.378421403062521"><ele>140.5</ele><time>2026-04-03T14:38:49Z</time></trkpt><trkpt lat="42.05183773752429" lon="12.378141194664138"><ele>142.0</ele><time>2026-04-03T14:38:50Z</time></trkpt><trkpt lat="42.05199023780944" lon="12.377857441444942"><ele>143.0</ele><time>2026-04-03T14:38:51Z</time></trkpt><trkpt lat="42.05214042487111" lon="12.377569214517008"><ele>144.0</ele><time>2026-04-03T14:38:52Z</time></trkpt><trkpt lat="42.052293998963975" lon="12.377279391849909"><ele>145.0</ele><time>2026-04-03T14:38:53Z</time></trkpt><trkpt lat="42.052450806659614" lon="12.37698439414165"><ele>146.0</ele><time>2026-04-03T14:38:54Z</time></trkpt><trkpt lat="42.05260683749549" lon="12.376688398178914"><ele>146.0</ele><time>2026-04-03T14:38:55Z</time></trkpt><trkpt lat="42.052763656474404" lon="12.376388232468484"><ele>146.0</ele><time>2026-04-03T14:38:56Z</time></trkpt><trkpt lat="42.05292038873505" lon="12.376100012548127"><ele>146.0</ele><time>2026-04-03T14:38:57Z</time></trkpt><trkpt lat="42.05307364442282" lon="12.37580452566173"><ele>146.0</ele><time>2026-04-03T14:38:58Z</time></trkpt><trkpt lat="42.05322626164266" lon="12.375510740146531"><ele>147.0</ele><time>2026-04-03T14:38:59Z</time></trkpt><trkpt lat="42.05337786871942" lon="12.37522354944302"><ele>148.0</ele><time>2026-04-03T14:39:00Z</time></trkpt><trkpt lat="42.05353215974669" lon="12.374947469813089"><ele>149.0</ele><time>2026-04-03T14:39:01Z</time></trkpt><trkpt lat="42.053682098165915" lon="12.374681301514714"><ele>150.0</ele><time>2026-04-03T14:39:02Z</time></trkpt><trkpt lat="42.05384279451226" lon="12.374421959939507"><ele>150.0</ele><time>2026-04-03T14:39:03Z</time></trkpt><trkpt lat="42.05402129221647" lon="12.374178539280729"><ele>150.0</ele><time>2026-04-03T14:39:04Z</time></trkpt><trkpt lat="42.0542153506964" lon="12.373946781812501"><ele>150.0</ele><time>2026-04-03T14:39:05Z</time></trkpt><trkpt lat="42.054420414410814" lon="12.373732520863653"><ele>150.0</ele><time>2026-04-03T14:39:06Z</time></trkpt><trkpt lat="42.05463298854595" lon="12.373542944737418"><ele>150.0</ele><time>2026-04-03T14:39:07Z</time></trkpt><trkpt lat="42.05485571332913" lon="12.37337168557701"><ele>150.0</ele><time>2026-04-03T14:39:08Z</time></trkpt><trkpt lat="42.055076690260144" lon="12.373218061435466"><ele>150.5</ele><time>2026-04-03T14:39:09Z</time></trkpt><trkpt lat="42.05529972632262" lon="12.373086385258688"><ele>151.0</ele><time>2026-04-03T14:39:10Z</time></trkpt><trkpt lat="42.055519038822034" lon="12.372967689212695"><ele>151.0</ele><time>2026-04-03T14:39:11Z</time></trkpt><trkpt lat="42.05573862202422" lon="12.372874775940199"><ele>151.0</ele><time>2026-04-03T14:39:12Z</time></trkpt><trkpt lat="42.05595886114635" lon="12.372797705732719"><ele>152.5</ele><time>2026-04-03T14:39:13Z</time></trkpt><trkpt lat="42.05617845017318" lon="12.372743011061639"><ele>154.0</ele><time>2026-04-03T14:39:14Z</time></trkpt><trkpt lat="42.05641282777114" lon="12.372719687643473"><ele>155.0</ele><time>2026-04-03T14:39:15Z</time></trkpt><trkpt lat="42.056658873124654" lon="12.372694430849737"><ele>156.0</ele><time>2026-04-03T14:39:16Z</time></trkpt><trkpt lat="42.05691167495385" lon="12.372674095805598"><ele>156.0</ele><time>2026-04-03T14:39:17Z</time></trkpt><trkpt lat="42.057172556816916" lon="12.37268443486409"><ele>156.0</ele><time>2026-04-03T14:39:18Z</time></trkpt><trkpt lat="42.057440915299146" lon="12.372713601408144"><ele>157.0</ele><time>2026-04-03T14:39:19Z</time></trkpt><trkpt lat="42.057716689127" lon="12.372742952380172"><ele>158.0</ele><time>2026-04-03T14:39:20Z</time></trkpt><trkpt lat="42.05798865736295" lon="12.372767961288277"><ele>158.0</ele><time>2026-04-03T14:39:21Z</time></trkpt><trkpt lat="42.05825153549949" lon="12.372797671467922"><ele>158.0</ele><time>2026-04-03T14:39:22Z</time></trkpt><trkpt lat="42.058510667931756" lon="12.372826455794966"><ele>158.5</ele><time>2026-04-03T14:39:23Z</time></trkpt><trkpt lat="42.058769633038864" lon="12.372851419235264"><ele>159.0</ele><time>2026-04-03T14:39:24Z</time></trkpt><trkpt lat="42.059026773478074" lon="12.372878323658744"><ele>161.5</ele><time>2026-04-03T14:39:25Z</time></trkpt><trkpt lat="42.05928293164248" lon="12.372907287270335"><ele>164.0</ele><time>2026-04-03T14:39:26Z</time></trkpt><trkpt lat="42.059538404279074" lon="12.372937385837844"><ele>164.0</ele><time>2026-04-03T14:39:27Z</time></trkpt><trkpt lat="42.05979599023709" lon="12.372961964943759"><ele>164.0</ele><time>2026-04-03T14:39:28Z</time></trkpt><trkpt lat="42.06005167727731" lon="12.3729879992696"><ele>165.0</ele><time>2026-04-03T14:39:29Z</time></trkpt><trkpt lat="42.06030784411922" lon="12.373008471040082"><ele>166.0</ele><time>2026-04-03T14:39:30Z</time></trkpt><trkpt lat="42.06056191949942" lon="12.373032421017323"><ele>165.0</ele><time>2026-04-03T14:39:31Z</time></trkpt><trkpt lat="42.06081374498799" lon="12.373047749837248"><ele>164.0</ele><time>2026-04-03T14:39:32Z</time></trkpt><trkpt lat="42.06106633531868" lon="12.37305071674496"><ele>164.0</ele><time>2026-04-03T14:39:33Z</time></trkpt><trkpt lat="42.061319261645224" lon="12.373041068690974"><ele>164.0</ele><time>2026-04-03T14:39:34Z</time></trkpt><trkpt lat="42.06157352504033" lon="12.373026650696518"><ele>165.0</ele><time>2026-04-03T14:39:35Z</time></trkpt><trkpt lat="42.06182975441789" lon="12.373011836996042"><ele>166.0</ele><time>2026-04-03T14:39:36Z</time></trkpt><trkpt lat="42.062085380116145" lon="12.372999705567926"><ele>166.0</ele><time>2026-04-03T14:39:37Z</time></trkpt><trkpt lat="42.06233790430552" lon="12.372987420607291"><ele>166.0</ele><time>2026-04-03T14:39:38Z</time></trkpt><trkpt lat="42.06258662945966" lon="12.372972880042571"><ele>167.0</ele><time>2026-04-03T14:39:39Z</time></trkpt><trkpt lat="42.062834101989395" lon="12.372955595739926"><ele>168.0</ele><time>2026-04-03T14:39:40Z</time></trkpt><trkpt lat="42.063083394324266" lon="12.372939789395986"><ele>169.0</ele><time>2026-04-03T14:39:41Z</time></trkpt><trkpt lat="42.063330434930464" lon="12.372926885123293"><ele>170.0</ele><time>2026-04-03T14:39:42Z</time></trkpt><trkpt lat="42.06357749710789" lon="12.37291568677482"><ele>170.0</ele><time>2026-04-03T14:39:43Z</time></trkpt><trkpt lat="42.06382544491974" lon="12.372904314425732"><ele>170.0</ele><time>2026-04-03T14:39:44Z</time></trkpt><trkpt lat="42.06407626193821" lon="12.372890189237795"><ele>170.0</ele><time>2026-04-03T14:39:45Z</time></trkpt><trkpt lat="42.06432868739239" lon="12.372876290311876"><ele>170.0</ele><time>2026-04-03T14:39:46Z</time></trkpt><trkpt lat="42.064584574098866" lon="12.372862311265743"><ele>170.0</ele><time>2026-04-03T14:39:47Z</time></trkpt><trkpt lat="42.064841258968954" lon="12.372844662419244"><ele>170.0</ele><time>2026-04-03T14:39:48Z</time></trkpt><trkpt lat="42.06509738436154" lon="12.372829728249206"><ele>173.0</ele><time>2026-04-03T14:39:49Z</time></trkpt><trkpt lat="42.06535658636102" lon="12.372812616193345"><ele>176.0</ele><time>2026-04-03T14:39:50Z</time></trkpt><trkpt lat="42.06562014007414" lon="12.372794547869663"><ele>177.0</ele><time>2026-04-03T14:39:51Z</time></trkpt><trkpt lat="42.06589033195535" lon="12.372775525018874"><ele>178.0</ele><time>2026-04-03T14:39:52Z</time></trkpt><trkpt lat="42.066168382580095" lon="12.372760020306945"><ele>178.0</ele><time>2026-04-03T14:39:53Z</time></trkpt><trkpt lat="42.06644961425246" lon="12.372744181678911"><ele>178.0</ele><time>2026-04-03T14:39:54Z</time></trkpt><trkpt lat="42.06673019900203" lon="12.372724266543955"><ele>179.5</ele><time>2026-04-03T14:39:55Z</time></trkpt><trkpt lat="42.067008018985746" lon="12.372708365275383"><ele>181.0</ele><time>2026-04-03T14:39:56Z</time></trkpt><trkpt lat="42.067280733172964" lon="12.372703386565721"><ele>183.0</ele><time>2026-04-03T14:39:57Z</time></trkpt><trkpt lat="42.067551877583796" lon="12.372703862121963"><ele>185.0</ele><time>2026-04-03T14:39:58Z</time></trkpt><trkpt lat="42.067821305888046" lon="12.372714279293673"><ele>185.0</ele><time>2026-04-03T14:39:59Z</time></trkpt><trkpt lat="42.06808750286371" lon="12.372721261017729"><ele>185.0</ele><time>2026-04-03T14:40:00Z</time></trkpt><trkpt lat="42.06835106678044" lon="12.372721300469076"><ele>186.5</ele><time>2026-04-03T14:40:01Z</time></trkpt><trkpt lat="42.068609291269425" lon="12.372716326873565"><ele>188.0</ele><time>2026-04-03T14:40:02Z</time></trkpt><trkpt lat="42.06886654043597" lon="12.372714662574607"><ele>189.5</ele><time>2026-04-03T14:40:03Z</time></trkpt><trkpt lat="42.06912290723288" lon="12.372713899848534"><ele>191.0</ele><time>2026-04-03T14:40:04Z</time></trkpt><trkpt lat="42.06937794468999" lon="12.372712432652373"><ele>191.0</ele><time>2026-04-03T14:40:05Z</time></trkpt><trkpt lat="42.06963485591707" lon="12.37271149563246"><ele>191.0</ele><time>2026-04-03T14:40:06Z</time></trkpt><trkpt lat="42.06988797338616" lon="12.372711069600536"><ele>193.0</ele><time>2026-04-03T14:40:07Z</time></trkpt><trkpt lat="42.070140756706" lon="12.372709280022802"><ele>195.0</ele><time>2026-04-03T14:40:08Z</time></trkpt><trkpt lat="42.070391171367035" lon="12.372710045802366"><ele>195.0</ele><time>2026-04-03T14:40:09Z</time></trkpt><trkpt lat="42.0706413102023" lon="12.372708865565897"><ele>195.0</ele><time>2026-04-03T14:40:10Z</time></trkpt><trkpt lat="42.0708920050992" lon="12.372707959160051"><ele>198.0</ele><time>2026-04-03T14:40:11Z</time></trkpt><trkpt lat="42.071141634030425" lon="12.372703627468105"><ele>201.0</ele><time>2026-04-03T14:40:12Z</time></trkpt><trkpt lat="42.071392277956846" lon="12.372703028914394"><ele>205.0</ele><time>2026-04-03T14:40:13Z</time></trkpt><trkpt lat="42.07164251415215" lon="12.372701359426692"><ele>209.0</ele><time>2026-04-03T14:40:14Z</time></trkpt><trkpt lat="42.071891669725794" lon="12.372700380205544"><ele>209.0</ele><time>2026-04-03T14:40:15Z</time></trkpt><trkpt lat="42.07213936412414" lon="12.372697931314097"><ele>209.0</ele><time>2026-04-03T14:40:16Z</time></trkpt><trkpt lat="42.0723893732385" lon="12.37269162630481"><ele>211.0</ele><time>2026-04-03T14:40:17Z</time></trkpt><trkpt lat="42.07264084871852" lon="12.37268772995771"><ele>213.0</ele><time>2026-04-03T14:40:18Z</time></trkpt><trkpt lat="42.07289238599967" lon="12.37268676262578"><ele>213.0</ele><time>2026-04-03T14:40:19Z</time></trkpt><trkpt lat="42.07313957464144" lon="12.372685446032907"><ele>213.0</ele><time>2026-04-03T14:40:20Z</time></trkpt><trkpt lat="42.073390516344816" lon="12.3726848353383"><ele>213.5</ele><time>2026-04-03T14:40:21Z</time></trkpt><trkpt lat="42.07364530113571" lon="12.372683192002427"><ele>214.0</ele><time>2026-04-03T14:40:22Z</time></trkpt><trkpt lat="42.07390291192065" lon="12.372681903368507"><ele>215.0</ele><time>2026-04-03T14:40:23Z</time></trkpt><trkpt lat="42.07416659803525" lon="12.372685792087687"><ele>216.0</ele><time>2026-04-03T14:40:24Z</time></trkpt><trkpt lat="42.0744350292188" lon="12.372703388211836"><ele>216.0</ele><time>2026-04-03T14:40:25Z</time></trkpt><trkpt lat="42.07468468645774" lon="12.3727363303896"><ele>216.0</ele><time>2026-04-03T14:40:26Z</time></trkpt><trkpt lat="42.074936405789266" lon="12.372766376660204"><ele>217.5</ele><time>2026-04-03T14:40:27Z</time></trkpt><trkpt lat="42.075183509930646" lon="12.372793773557753"><ele>219.0</ele><time>2026-04-03T14:40:28Z</time></trkpt><trkpt lat="42.07542218317305" lon="12.372818062725935"><ele>219.0</ele><time>2026-04-03T14:40:29Z</time></trkpt><trkpt lat="42.075641699214366" lon="12.372845683159824"><ele>219.0</ele><time>2026-04-03T14:40:30Z</time></trkpt><trkpt lat="42.075835722290414" lon="12.372869419979262"><ele>219.0</ele><time>2026-04-03T14:40:31Z</time></trkpt><trkpt lat="42.07600753125081" lon="12.372891739095591"><ele>220.66666666666669</ele><time>2026-04-03T14:40:32Z</time></trkpt><trkpt lat="42.07616749024569" lon="12.37291402140281"><ele>222.33333333333334</ele><time>2026-04-03T14:40:33Z</time></trkpt><trkpt lat="42.076327664341456" lon="12.372932833672865"><ele>224.0</ele><time>2026-04-03T14:40:34Z</time></trkpt><trkpt lat="42.07649080064541" lon="12.37295050493281"><ele>224.66666666666669</ele><time>2026-04-03T14:40:35Z</time></trkpt><trkpt lat="42.07665414002043" lon="12.372969575486438"><ele>225.33333333333331</ele><time>2026-04-03T14:40:36Z</time></trkpt><trkpt lat="42.07681615784207" lon="12.372986432151972"><ele>226.0</ele><time>2026-04-03T14:40:37Z</time></trkpt><trkpt lat="42.076978958424455" lon="12.373003937745887"><ele>226.0</ele><time>2026-04-03T14:40:38Z</time></trkpt><trkpt lat="42.07714387812302" lon="12.373022490584852"><ele>226.0</ele><time>2026-04-03T14:40:39Z</time></trkpt><trkpt lat="42.07730869701562" lon="12.373040317141557"><ele>226.0</ele><time>2026-04-03T14:40:40Z</time></trkpt><trkpt lat="42.07747368123872" lon="12.373058213728049"><ele>229.66666666666666</ele><time>2026-04-03T14:40:41Z</time></trkpt><trkpt lat="42.07763996461486" lon="12.3730770405194"><ele>233.33333333333331</ele><time>2026-04-03T14:40:42Z</time></trkpt><trkpt lat="42.07780459947697" lon="12.373097010585258"><ele>237.0</ele><time>2026-04-03T14:40:43Z</time></trkpt><trkpt lat="42.07796261325509" lon="12.373117337362057"><ele>237.0</ele><time>2026-04-03T14:40:44Z</time></trkpt><trkpt lat="42.07811675083357" lon="12.373136430058215"><ele>237.0</ele><time>2026-04-03T14:40:45Z</time></trkpt><trkpt lat="42.078270265795474" lon="12.37315547053749"><ele>237.0</ele><time>2026-04-03T14:40:46Z</time></trkpt><trkpt lat="42.078417221153394" lon="12.373171941687714"><ele>238.0</ele><time>2026-04-03T14:40:47Z</time></trkpt><trkpt lat="42.07856161826296" lon="12.373188412043358"><ele>239.0</ele><time>2026-04-03T14:40:48Z</time></trkpt><trkpt lat="42.07870471138998" lon="12.37320399517777"><ele>240.0</ele><time>2026-04-03T14:40:49Z</time></trkpt><trkpt lat="42.07885041101306" lon="12.373220027338558"><ele>241.0</ele><time>2026-04-03T14:40:50Z</time></trkpt><trkpt lat="42.07900224367704" lon="12.373234899324979"><ele>242.66666666666666</ele><time>2026-04-03T14:40:51Z</time></trkpt><trkpt lat="42.079164200830846" lon="12.373246488710883"><ele>244.33333333333331</ele><time>2026-04-03T14:40:52Z</time></trkpt><trkpt lat="42.0793375069684" lon="12.37326732702014"><ele>246.0</ele><time>2026-04-03T14:40:53Z</time></trkpt><trkpt lat="42.0795143631782" lon="12.373291375983408"><ele>246.0</ele><time>2026-04-03T14:40:54Z</time></trkpt><trkpt lat="42.0796892890303" lon="12.373315233301316"><ele>246.0</ele><time>2026-04-03T14:40:55Z</time></trkpt><trkpt lat="42.07985662046317" lon="12.373337876626232"><ele>246.0</ele><time>2026-04-03T14:40:56Z</time></trkpt><trkpt lat="42.0800104867799" lon="12.373360286822473"><ele>249.33333333333331</ele><time>2026-04-03T14:40:57Z</time></trkpt><trkpt lat="42.08016702134488" lon="12.37338021796595"><ele>252.66666666666666</ele><time>2026-04-03T14:40:58Z</time></trkpt><trkpt lat="42.08033874840843" lon="12.373396837447173"><ele>256.0</ele><time>2026-04-03T14:40:59Z</time></trkpt><trkpt lat="42.08052290280306" lon="12.373405805917297"><ele>256.0</ele><time>2026-04-03T14:41:00Z</time></trkpt><trkpt lat="42.08072549141881" lon="12.373413626080113"><ele>256.0</ele><time>2026-04-03T14:41:01Z</time></trkpt><trkpt lat="42.08093663436013" lon="12.373436463328998"><ele>256.0</ele><time>2026-04-03T14:41:02Z</time></trkpt><trkpt lat="42.08115805097558" lon="12.373464985436211"><ele>257.5</ele><time>2026-04-03T14:41:03Z</time></trkpt><trkpt lat="42.081388685168015" lon="12.373503602519774"><ele>259.0</ele><time>2026-04-03T14:41:04Z</time></trkpt><trkpt lat="42.08162952135781" lon="12.37354707176759"><ele>262.0</ele><time>2026-04-03T14:41:05Z</time></trkpt><trkpt lat="42.08186426701216" lon="12.37358543422009"><ele>265.0</ele><time>2026-04-03T14:41:06Z</time></trkpt><trkpt lat="42.08209456379928" lon="12.373619029645312"><ele>265.0</ele><time>2026-04-03T14:41:07Z</time></trkpt><trkpt lat="42.08231951043421" lon="12.37364470623758"><ele>265.0</ele><time>2026-04-03T14:41:08Z</time></trkpt><trkpt lat="42.0825548411037" lon="12.37367257143773"><ele>268.5</ele><time>2026-04-03T14:41:09Z</time></trkpt><trkpt lat="42.082791710827046" lon="12.373690540976806"><ele>272.0</ele><time>2026-04-03T14:41:10Z</time></trkpt><trkpt lat="42.08301525064344" lon="12.37371599116235"><ele>272.0</ele><time>2026-04-03T14:41:11Z</time></trkpt><trkpt lat="42.083248291750444" lon="12.373742974129375"><ele>272.0</ele><time>2026-04-03T14:41:12Z</time></trkpt><trkpt lat="42.0834829448204" lon="12.373778588245308"><ele>272.0</ele><time>2026-04-03T14:41:13Z</time></trkpt><trkpt lat="42.08371876000307" lon="12.373811927091504"><ele>272.0</ele><time>2026-04-03T14:41:14Z</time></trkpt><trkpt lat="42.083954465123895" lon="12.373841629342337"><ele>274.5</ele><time>2026-04-03T14:41:15Z</time></trkpt><trkpt lat="42.084191237172966" lon="12.37386983446232"><ele>277.0</ele><time>2026-04-03T14:41:16Z</time></trkpt><trkpt lat="42.084433746278116" lon="12.373898484801433"><ele>277.0</ele><time>2026-04-03T14:41:17Z</time></trkpt><trkpt lat="42.08468313684835" lon="12.37392509883889"><ele>277.0</ele><time>2026-04-03T14:41:18Z</time></trkpt><trkpt lat="42.084933938860644" lon="12.373955670481545"><ele>277.0</ele><time>2026-04-03T14:41:19Z</time></trkpt><trkpt lat="42.085179442317525" lon="12.37398761155536"><ele>277.0</ele><time>2026-04-03T14:41:20Z</time></trkpt><trkpt lat="42.08542391866829" lon="12.374018591537375"><ele>277.0</ele><time>2026-04-03T14:41:21Z</time></trkpt><trkpt lat="42.085666616121635" lon="12.37404912787072"><ele>277.0</ele><time>2026-04-03T14:41:22Z</time></trkpt><trkpt lat="42.085909884881616" lon="12.37407629558067"><ele>273.0</ele><time>2026-04-03T14:41:23Z</time></trkpt><trkpt lat="42.08615788863484" lon="12.374101416360158"><ele>269.0</ele><time>2026-04-03T14:41:24Z</time></trkpt><trkpt lat="42.08640166805116" lon="12.37413318497245"><ele>268.5</ele><time>2026-04-03T14:41:25Z</time></trkpt><trkpt lat="42.08664871645274" lon="12.374164647197007"><ele>268.0</ele><time>2026-04-03T14:41:26Z</time></trkpt><trkpt lat="42.086896721362486" lon="12.374193350284758"><ele>268.0</ele><time>2026-04-03T14:41:27Z</time></trkpt><trkpt lat="42.08715140531004" lon="12.374201122788033"><ele>268.0</ele><time>2026-04-03T14:41:28Z</time></trkpt><trkpt lat="42.08740664719103" lon="12.374176910691624"><ele>271.0</ele><time>2026-04-03T14:41:29Z</time></trkpt><trkpt lat="42.087654035852765" lon="12.374119538400668"><ele>274.0</ele><time>2026-04-03T14:41:30Z</time></trkpt><trkpt lat="42.08789833501894" lon="12.374041092912226"><ele>274.0</ele><time>2026-04-03T14:41:31Z</time></trkpt><trkpt lat="42.0881340607578" lon="12.373943728644779"><ele>274.0</ele><time>2026-04-03T14:41:32Z</time></trkpt><trkpt lat="42.08836225786973" lon="12.373828961347819"><ele>272.5</ele><time>2026-04-03T14:41:33Z</time></trkpt><trkpt lat="42.08857994344313" lon="12.373694658111392"><ele>271.0</ele><time>2026-04-03T14:41:34Z</time></trkpt><trkpt lat="42.088787323498636" lon="12.373541367210626"><ele>271.0</ele><time>2026-04-03T14:41:35Z</time></trkpt><trkpt lat="42.08898596472528" lon="12.373360488684405"><ele>271.0</ele><time>2026-04-03T14:41:36Z</time></trkpt><trkpt lat="42.0891827106019" lon="12.373150317752598"><ele>268.5</ele><time>2026-04-03T14:41:37Z</time></trkpt><trkpt lat="42.08936898992335" lon="12.372922828631273"><ele>266.0</ele><time>2026-04-03T14:41:38Z</time></trkpt><trkpt lat="42.08954884773364" lon="12.372687464345153"><ele>266.0</ele><time>2026-04-03T14:41:39Z</time></trkpt><trkpt lat="42.089726403256854" lon="12.372448027944754"><ele>266.0</ele><time>2026-04-03T14:41:40Z</time></trkpt><trkpt lat="42.08989984354233" lon="12.372212571944559"><ele>268.0</ele><time>2026-04-03T14:41:41Z</time></trkpt><trkpt lat="42.0900638130488" lon="12.371976035857251"><ele>270.0</ele><time>2026-04-03T14:41:42Z</time></trkpt><trkpt lat="42.090226737582014" lon="12.371745413546416"><ele>270.0</ele><time>2026-04-03T14:41:43Z</time></trkpt><trkpt lat="42.09038919327156" lon="12.371515969848423"><ele>270.0</ele><time>2026-04-03T14:41:44Z</time></trkpt><trkpt lat="42.09055280363162" lon="12.371286022811036"><ele>271.0</ele><time>2026-04-03T14:41:45Z</time></trkpt><trkpt lat="42.09073220007667" lon="12.37105750024756"><ele>272.0</ele><time>2026-04-03T14:41:46Z</time></trkpt><trkpt lat="42.09091341198202" lon="12.370836388747273"><ele>272.5</ele><time>2026-04-03T14:41:47Z</time></trkpt><trkpt lat="42.091090736567786" lon="12.370619659921298"><ele>273.0</ele><time>2026-04-03T14:41:48Z</time></trkpt><trkpt lat="42.09126629442105" lon="12.37039897892345"><ele>273.0</ele><time>2026-04-03T14:41:49Z</time></trkpt><trkpt lat="42.09143275176345" lon="12.370177023798009"><ele>273.0</ele><time>2026-04-03T14:41:50Z</time></trkpt><trkpt lat="42.09159126230456" lon="12.369957503111467"><ele>273.6666666666667</ele><time>2026-04-03T14:41:51Z</time></trkpt><trkpt lat="42.091748525146286" lon="12.369742492516707"><ele>274.33333333333337</ele><time>2026-04-03T14:41:52Z</time></trkpt><trkpt lat="42.091904029625276" lon="12.36953199245172"><ele>275.0</ele><time>2026-04-03T14:41:53Z</time></trkpt><trkpt lat="42.0920587519547" lon="12.369323414943393"><ele>275.33333333333337</ele><time>2026-04-03T14:41:54Z</time></trkpt><trkpt lat="42.092206335505644" lon="12.369123217891476"><ele>275.6666666666667</ele><time>2026-04-03T14:41:55Z</time></trkpt><trkpt lat="42.0923549523627" lon="12.368931026049552"><ele>276.0</ele><time>2026-04-03T14:41:56Z</time></trkpt><trkpt lat="42.09250444344567" lon="12.36874209901406"><ele>279.3333333333333</ele><time>2026-04-03T14:41:57Z</time></trkpt><trkpt lat="42.09265807540853" lon="12.368553028525268"><ele>282.66666666666663</ele><time>2026-04-03T14:41:58Z</time></trkpt><trkpt lat="42.092827117986296" lon="12.368378227216528"><ele>286.0</ele><time>2026-04-03T14:41:59Z</time></trkpt><trkpt lat="42.093013580195986" lon="12.368201309477517"><ele>286.0</ele><time>2026-04-03T14:42:00Z</time></trkpt><trkpt lat="42.093206090142424" lon="12.368039906609159"><ele>286.0</ele><time>2026-04-03T14:42:01Z</time></trkpt><trkpt lat="42.09340686501118" lon="12.36788865164993"><ele>289.5</ele><time>2026-04-03T14:42:02Z</time></trkpt><trkpt lat="42.09362508177085" lon="12.367747661724703"><ele>293.0</ele><time>2026-04-03T14:42:03Z</time></trkpt><trkpt lat="42.09385328662262" lon="12.36761970891795"><ele>293.0</ele><time>2026-04-03T14:42:04Z</time></trkpt><trkpt lat="42.09408790735982" lon="12.367514528546076"><ele>293.0</ele><time>2026-04-03T14:42:05Z</time></trkpt><trkpt lat="42.09433353151367" lon="12.3674333773815"><ele>296.5</ele><time>2026-04-03T14:42:06Z</time></trkpt><trkpt lat="42.094582652799254" lon="12.367379557578037"><ele>300.0</ele><time>2026-04-03T14:42:07Z</time></trkpt><trkpt lat="42.09483132133855" lon="12.367347998978689"><ele>302.5</ele><time>2026-04-03T14:42:08Z</time></trkpt><trkpt lat="42.09507860218986" lon="12.367337486803166"><ele>305.0</ele><time>2026-04-03T14:42:09Z</time></trkpt><trkpt lat="42.095325938350356" lon="12.367348204049113"><ele>305.0</ele><time>2026-04-03T14:42:10Z</time></trkpt><trkpt lat="42.09557341720944" lon="12.367376136382308"><ele>305.0</ele><time>2026-04-03T14:42:11Z</time></trkpt><trkpt lat="42.09581851278688" lon="12.367428969876435"><ele>306.0</ele><time>2026-04-03T14:42:12Z</time></trkpt><trkpt lat="42.0960616776793" lon="12.367495634570453"><ele>307.0</ele><time>2026-04-03T14:42:13Z</time></trkpt><trkpt lat="42.096304733483265" lon="12.367565521550803"><ele>307.0</ele><time>2026-04-03T14:42:14Z</time></trkpt><trkpt lat="42.096546802476794" lon="12.367628274731956"><ele>307.0</ele><time>2026-04-03T14:42:15Z</time></trkpt><trkpt lat="42.09678869849089" lon="12.367689735406856"><ele>302.0</ele><time>2026-04-03T14:42:16Z</time></trkpt><trkpt lat="42.09702505067324" lon="12.367748203825139"><ele>297.0</ele><time>2026-04-03T14:42:17Z</time></trkpt><trkpt lat="42.09726167019881" lon="12.367806751117913"><ele>294.5</ele><time>2026-04-03T14:42:18Z</time></trkpt><trkpt lat="42.09749860819453" lon="12.367857132016322"><ele>292.0</ele><time>2026-04-03T14:42:19Z</time></trkpt><trkpt lat="42.09774064245159" lon="12.367887509337232"><ele>292.0</ele><time>2026-04-03T14:42:20Z</time></trkpt><trkpt lat="42.09798555146947" lon="12.367895629007617"><ele>292.0</ele><time>2026-04-03T14:42:21Z</time></trkpt><trkpt lat="42.09823107169713" lon="12.367885870755229"><ele>289.0</ele><time>2026-04-03T14:42:22Z</time></trkpt><trkpt lat="42.0984809066862" lon="12.36784677828293"><ele>286.0</ele><time>2026-04-03T14:42:23Z</time></trkpt><trkpt lat="42.09873185094161" lon="12.367777204422419"><ele>286.0</ele><time>2026-04-03T14:42:24Z</time></trkpt><trkpt lat="42.098979560263395" lon="12.367679991478646"><ele>286.0</ele><time>2026-04-03T14:42:25Z</time></trkpt><trkpt lat="42.09922095796565" lon="12.367562372109838"><ele>286.5</ele><time>2026-04-03T14:42:26Z</time></trkpt><trkpt lat="42.09945402941737" lon="12.367427320797193"><ele>287.0</ele><time>2026-04-03T14:42:27Z</time></trkpt><trkpt lat="42.099674777242015" lon="12.367286148277547"><ele>284.5</ele><time>2026-04-03T14:42:28Z</time></trkpt><trkpt lat="42.099893591507424" lon="12.367137326352882"><ele>282.0</ele><time>2026-04-03T14:42:29Z</time></trkpt><trkpt lat="42.1001076484966" lon="12.36694493315157"><ele>282.0</ele><time>2026-04-03T14:42:30Z</time></trkpt><trkpt lat="42.10034860374897" lon="12.366811107270664"><ele>282.0</ele><time>2026-04-03T14:42:31Z</time></trkpt><trkpt lat="42.10058970921773" lon="12.366663435098411"><ele>283.0</ele><time>2026-04-03T14:42:32Z</time></trkpt><trkpt lat="42.100822365894075" lon="12.366589236681914"><ele>284.0</ele><time>2026-04-03T14:42:33Z</time></trkpt><trkpt lat="42.10106288704593" lon="12.366444100602257"><ele>278.0</ele><time>2026-04-03T14:42:34Z</time></trkpt><trkpt lat="42.10131270182757" lon="12.366299635720447"><ele>272.0</ele><time>2026-04-03T14:42:35Z</time></trkpt><trkpt lat="42.1015629876857" lon="12.366160401526251"><ele>272.5</ele><time>2026-04-03T14:42:36Z</time></trkpt><trkpt lat="42.10180942467138" lon="12.366025981249944"><ele>273.0</ele><time>2026-04-03T14:42:37Z</time></trkpt><trkpt lat="42.10205159322329" lon="12.365888305250753"><ele>273.0</ele><time>2026-04-03T14:42:38Z</time></trkpt><trkpt lat="42.102290743949546" lon="12.365748838996623"><ele>273.0</ele><time>2026-04-03T14:42:39Z</time></trkpt><trkpt lat="42.10252795164903" lon="12.365613433342585"><ele>273.0</ele><time>2026-04-03T14:42:40Z</time></trkpt><trkpt lat="42.10276395104853" lon="12.365480431391035"><ele>273.0</ele><time>2026-04-03T14:42:41Z</time></trkpt><trkpt lat="42.103001376587265" lon="12.365349466474637"><ele>273.0</ele><time>2026-04-03T14:42:42Z</time></trkpt><trkpt lat="42.103236058055394" lon="12.365218835770307"><ele>273.0</ele><time>2026-04-03T14:42:43Z</time></trkpt><trkpt lat="42.10346791951395" lon="12.365089931165484"><ele>270.5</ele><time>2026-04-03T14:42:44Z</time></trkpt><trkpt lat="42.1037018415917" lon="12.364962359026302"><ele>268.0</ele><time>2026-04-03T14:42:45Z</time></trkpt><trkpt lat="42.10393537705809" lon="12.364828545477936"><ele>264.0</ele><time>2026-04-03T14:42:46Z</time></trkpt><trkpt lat="42.10418538097288" lon="12.364683744939864"><ele>260.0</ele><time>2026-04-03T14:42:47Z</time></trkpt><trkpt lat="42.10443616884737" lon="12.364540885187303"><ele>260.0</ele><time>2026-04-03T14:42:48Z</time></trkpt><trkpt lat="42.10468045921355" lon="12.364396985939926"><ele>260.0</ele><time>2026-04-03T14:42:49Z</time></trkpt><trkpt lat="42.104917875691434" lon="12.364263370133472"><ele>257.5</ele><time>2026-04-03T14:42:50Z</time></trkpt><trkpt lat="42.105152339626784" lon="12.364140276426228"><ele>255.0</ele><time>2026-04-03T14:42:51Z</time></trkpt><trkpt lat="42.10539290566631" lon="12.364019514402642"><ele>255.0</ele><time>2026-04-03T14:42:52Z</time></trkpt><trkpt lat="42.10564455583734" lon="12.363912172886161"><ele>255.0</ele><time>2026-04-03T14:42:53Z</time></trkpt><trkpt lat="42.10590537922312" lon="12.363819121184541"><ele>253.0</ele><time>2026-04-03T14:42:54Z</time></trkpt><trkpt lat="42.106181891829344" lon="12.363773972052222"><ele>251.0</ele><time>2026-04-03T14:42:55Z</time></trkpt><trkpt lat="42.10645154130367" lon="12.363728218550936"><ele>249.0</ele><time>2026-04-03T14:42:56Z</time></trkpt><trkpt lat="42.10671864413368" lon="12.363708008779291"><ele>247.0</ele><time>2026-04-03T14:42:57Z</time></trkpt><trkpt lat="42.10698792393155" lon="12.363703394439517"><ele>247.0</ele><time>2026-04-03T14:42:58Z</time></trkpt><trkpt lat="42.10725748900843" lon="12.363708232043926"><ele>247.0</ele><time>2026-04-03T14:42:59Z</time></trkpt><trkpt lat="42.10752674842355" lon="12.363721646665384"><ele>244.5</ele><time>2026-04-03T14:43:00Z</time></trkpt><trkpt lat="42.107794890729046" lon="12.36372570642304"><ele>242.0</ele><time>2026-04-03T14:43:01Z</time></trkpt><trkpt lat="42.10806510745365" lon="12.363730269997365"><ele>240.5</ele><time>2026-04-03T14:43:02Z</time></trkpt><trkpt lat="42.108333701873754" lon="12.36373663057963"><ele>239.0</ele><time>2026-04-03T14:43:03Z</time></trkpt><trkpt lat="42.108603218331766" lon="12.363741866518769"><ele>239.0</ele><time>2026-04-03T14:43:04Z</time></trkpt><trkpt lat="42.108870570584685" lon="12.363748194435962"><ele>239.0</ele><time>2026-04-03T14:43:05Z</time></trkpt><trkpt lat="42.10913690225733" lon="12.363752497147106"><ele>237.0</ele><time>2026-04-03T14:43:06Z</time></trkpt><trkpt lat="42.109400702826505" lon="12.363755330030974"><ele>235.0</ele><time>2026-04-03T14:43:07Z</time></trkpt><trkpt lat="42.109662147773804" lon="12.363763963017705"><ele>233.5</ele><time>2026-04-03T14:43:08Z</time></trkpt><trkpt lat="42.109921694141946" lon="12.363768874429269"><ele>232.0</ele><time>2026-04-03T14:43:09Z</time></trkpt><trkpt lat="42.11018098134648" lon="12.363771660550853"><ele>232.0</ele><time>2026-04-03T14:43:10Z</time></trkpt><trkpt lat="42.11044632198724" lon="12.363776292726593"><ele>232.0</ele><time>2026-04-03T14:43:11Z</time></trkpt><trkpt lat="42.11071191551397" lon="12.363785736577524"><ele>229.0</ele><time>2026-04-03T14:43:12Z</time></trkpt><trkpt lat="42.11098199365123" lon="12.363792536375737"><ele>226.0</ele><time>2026-04-03T14:43:13Z</time></trkpt><trkpt lat="42.11125093402572" lon="12.363794107026678"><ele>226.0</ele><time>2026-04-03T14:43:14Z</time></trkpt><trkpt lat="42.111519691037856" lon="12.36380188838495"><ele>226.0</ele><time>2026-04-03T14:43:15Z</time></trkpt><trkpt lat="42.11178643647532" lon="12.363813485986796"><ele>223.5</ele><time>2026-04-03T14:43:16Z</time></trkpt><trkpt lat="42.112050379925286" lon="12.363817121632794"><ele>221.0</ele><time>2026-04-03T14:43:17Z</time></trkpt><trkpt lat="42.11230065322451" lon="12.363824126063543"><ele>220.0</ele><time>2026-04-03T14:43:18Z</time></trkpt><trkpt lat="42.11255374306607" lon="12.363827817729492"><ele>219.0</ele><time>2026-04-03T14:43:19Z</time></trkpt><trkpt lat="42.11280534474013" lon="12.363837571872777"><ele>219.0</ele><time>2026-04-03T14:43:20Z</time></trkpt><trkpt lat="42.113060556055984" lon="12.363844637177408"><ele>219.0</ele><time>2026-04-03T14:43:21Z</time></trkpt><trkpt lat="42.113317154997844" lon="12.363853781528583"><ele>218.0</ele><time>2026-04-03T14:43:22Z</time></trkpt><trkpt lat="42.11357575252693" lon="12.363860501102522"><ele>217.0</ele><time>2026-04-03T14:43:23Z</time></trkpt><trkpt lat="42.113838710253106" lon="12.36386445441035"><ele>216.0</ele><time>2026-04-03T14:43:24Z</time></trkpt><trkpt lat="42.11410624375384" lon="12.363868521724651"><ele>215.0</ele><time>2026-04-03T14:43:25Z</time></trkpt><trkpt lat="42.11437406948775" lon="12.363874453606389"><ele>215.0</ele><time>2026-04-03T14:43:26Z</time></trkpt><trkpt lat="42.11465879106421" lon="12.363877068328476"><ele>215.0</ele><time>2026-04-03T14:43:27Z</time></trkpt><trkpt lat="42.11495109356118" lon="12.363879861397624"><ele>214.5</ele><time>2026-04-03T14:43:28Z</time></trkpt><trkpt lat="42.11525953303037" lon="12.363878993469124"><ele>214.0</ele><time>2026-04-03T14:43:29Z</time></trkpt><trkpt lat="42.11557480977757" lon="12.363885506531131"><ele>213.5</ele><time>2026-04-03T14:43:30Z</time></trkpt><trkpt lat="42.11588684910867" lon="12.363894198243566"><ele>213.0</ele><time>2026-04-03T14:43:31Z</time></trkpt><trkpt lat="42.11619328833708" lon="12.36390585889146"><ele>213.0</ele><time>2026-04-03T14:43:32Z</time></trkpt><trkpt lat="42.11649320769191" lon="12.363913851967462"><ele>213.0</ele><time>2026-04-03T14:43:33Z</time></trkpt><trkpt lat="42.11678274789536" lon="12.363918852935464"><ele>212.5</ele><time>2026-04-03T14:43:34Z</time></trkpt><trkpt lat="42.117063299593156" lon="12.363919508172412"><ele>212.0</ele><time>2026-04-03T14:43:35Z</time></trkpt><trkpt lat="42.1173348966359" lon="12.363928175998424"><ele>212.5</ele><time>2026-04-03T14:43:36Z</time></trkpt><trkpt lat="42.117600694060926" lon="12.363936079607079"><ele>213.0</ele><time>2026-04-03T14:43:37Z</time></trkpt><trkpt lat="42.11786037927551" lon="12.363941060907885"><ele>213.0</ele><time>2026-04-03T14:43:38Z</time></trkpt><trkpt lat="42.118119320305276" lon="12.36394854470232"><ele>213.0</ele><time>2026-04-03T14:43:39Z</time></trkpt><trkpt lat="42.11837335225197" lon="12.363964108090705"><ele>213.5</ele><time>2026-04-03T14:43:40Z</time></trkpt><trkpt lat="42.11862577712292" lon="12.36398258349582"><ele>214.0</ele><time>2026-04-03T14:43:41Z</time></trkpt><trkpt lat="42.118878502544" lon="12.3639914397726"><ele>214.0</ele><time>2026-04-03T14:43:42Z</time></trkpt><trkpt lat="42.119131782750635" lon="12.36399568084304"><ele>214.0</ele><time>2026-04-03T14:43:43Z</time></trkpt><trkpt lat="42.11939017069325" lon="12.363998697225881"><ele>214.0</ele><time>2026-04-03T14:43:44Z</time></trkpt><trkpt lat="42.11964740788546" lon="12.364004675603086"><ele>214.0</ele><time>2026-04-03T14:43:45Z</time></trkpt><trkpt lat="42.11990616628935" lon="12.364014455931327"><ele>216.0</ele><time>2026-04-03T14:43:46Z</time></trkpt><trkpt lat="42.120166772835006" lon="12.364020581761356"><ele>218.0</ele><time>2026-04-03T14:43:46.999Z</time></trkpt><trkpt lat="42.12042039727268" lon="12.36402951489653"><ele>218.0</ele><time>2026-04-03T14:43:47.999Z</time></trkpt><trkpt lat="42.12066544355789" lon="12.364033598932535"><ele>218.0</ele><time>2026-04-03T14:43:48.999Z</time></trkpt><trkpt lat="42.1209073102516" lon="12.36402695368885"><ele>217.5</ele><time>2026-04-03T14:43:49.999Z</time></trkpt><trkpt lat="42.121140319310065" lon="12.364042295967328"><ele>217.0</ele><time>2026-04-03T14:43:50.999Z</time></trkpt><trkpt lat="42.12137557518" lon="12.364044913671563"><ele>218.5</ele><time>2026-04-03T14:43:51.999Z</time></trkpt><trkpt lat="42.12161449929565" lon="12.364023032289321"><ele>220.0</ele><time>2026-04-03T14:43:52.999Z</time></trkpt><trkpt lat="42.12185580582714" lon="12.364000121970989"><ele>220.0</ele><time>2026-04-03T14:43:54Z</time></trkpt><trkpt lat="42.12209669666292" lon="12.36397286543021"><ele>220.0</ele><time>2026-04-03T14:43:55Z</time></trkpt><trkpt lat="42.12233994191595" lon="12.363933780852296"><ele>220.0</ele><time>2026-04-03T14:43:56Z</time></trkpt><trkpt lat="42.12258426639188" lon="12.363870838300983"><ele>220.0</ele><time>2026-04-03T14:43:57Z</time></trkpt><trkpt lat="42.12282640984361" lon="12.36380927762971"><ele>220.0</ele><time>2026-04-03T14:43:58Z</time></trkpt><trkpt lat="42.123071418167584" lon="12.363740419035699"><ele>220.0</ele><time>2026-04-03T14:43:59Z</time></trkpt><trkpt lat="42.123313876663836" lon="12.363649599780436"><ele>221.5</ele><time>2026-04-03T14:44:00Z</time></trkpt><trkpt lat="42.12355067722247" lon="12.36354622228354"><ele>223.0</ele><time>2026-04-03T14:44:01Z</time></trkpt><trkpt lat="42.12378651853508" lon="12.363430558418665"><ele>223.0</ele><time>2026-04-03T14:44:02Z</time></trkpt><trkpt lat="42.12401901153452" lon="12.363305490956586"><ele>223.0</ele><time>2026-04-03T14:44:03Z</time></trkpt><trkpt lat="42.124250333618285" lon="12.363188593314481"><ele>224.0</ele><time>2026-04-03T14:44:04Z</time></trkpt><trkpt lat="42.124486223794065" lon="12.363071214543114"><ele>225.0</ele><time>2026-04-03T14:44:05Z</time></trkpt><trkpt lat="42.12471998568888" lon="12.362952154618105"><ele>226.0</ele><time>2026-04-03T14:44:06Z</time></trkpt><trkpt lat="42.12495280394307" lon="12.362834465770307"><ele>227.0</ele><time>2026-04-03T14:44:07Z</time></trkpt><trkpt lat="42.125187044044544" lon="12.362715169456628"><ele>227.0</ele><time>2026-04-03T14:44:08Z</time></trkpt><trkpt lat="42.12542123691712" lon="12.362594985826073"><ele>227.0</ele><time>2026-04-03T14:44:09Z</time></trkpt><trkpt lat="42.12565300803367" lon="12.362478001430237"><ele>227.5</ele><time>2026-04-03T14:44:10Z</time></trkpt><trkpt lat="42.12588335565339" lon="12.362360151300496"><ele>228.0</ele><time>2026-04-03T14:44:11Z</time></trkpt><trkpt lat="42.12611502492628" lon="12.362242100481401"><ele>228.5</ele><time>2026-04-03T14:44:12Z</time></trkpt><trkpt lat="42.126342976682686" lon="12.362119956886643"><ele>229.0</ele><time>2026-04-03T14:44:13Z</time></trkpt><trkpt lat="42.12656929089872" lon="12.361986215340941"><ele>229.0</ele><time>2026-04-03T14:44:14Z</time></trkpt><trkpt lat="42.12679019598981" lon="12.361840124872916"><ele>229.0</ele><time>2026-04-03T14:44:15Z</time></trkpt><trkpt lat="42.127014875743725" lon="12.361684203121701"><ele>229.0</ele><time>2026-04-03T14:44:16Z</time></trkpt><trkpt lat="42.12723650611671" lon="12.361498831496842"><ele>229.0</ele><time>2026-04-03T14:44:17Z</time></trkpt><trkpt lat="42.12745387177351" lon="12.361305166423424"><ele>228.0</ele><time>2026-04-03T14:44:18Z</time></trkpt><trkpt lat="42.127660084070286" lon="12.361088481906872"><ele>227.0</ele><time>2026-04-03T14:44:19Z</time></trkpt><trkpt lat="42.12785635995365" lon="12.360857516368768"><ele>227.0</ele><time>2026-04-03T14:44:20Z</time></trkpt><trkpt lat="42.12804284521714" lon="12.360609880323073"><ele>227.0</ele><time>2026-04-03T14:44:21Z</time></trkpt><trkpt lat="42.12821588480046" lon="12.36035345459469"><ele>229.0</ele><time>2026-04-03T14:44:22Z</time></trkpt><trkpt lat="42.12837933217426" lon="12.360080852853699"><ele>231.0</ele><time>2026-04-03T14:44:23Z</time></trkpt><trkpt lat="42.12853645427399" lon="12.359805936192918"><ele>230.5</ele><time>2026-04-03T14:44:24Z</time></trkpt><trkpt lat="42.12869251577458" lon="12.359527911732398"><ele>230.0</ele><time>2026-04-03T14:44:25Z</time></trkpt><trkpt lat="42.12884934623846" lon="12.359241758479865"><ele>230.0</ele><time>2026-04-03T14:44:26Z</time></trkpt><trkpt lat="42.12901375172711" lon="12.358947502834996"><ele>230.0</ele><time>2026-04-03T14:44:27Z</time></trkpt><trkpt lat="42.12919179222271" lon="12.358656568757691"><ele>232.0</ele><time>2026-04-03T14:44:28Z</time></trkpt><trkpt lat="42.12939100311141" lon="12.35837435736005"><ele>234.0</ele><time>2026-04-03T14:44:29Z</time></trkpt><trkpt lat="42.129606829668994" lon="12.358106639523145"><ele>233.0</ele><time>2026-04-03T14:44:30Z</time></trkpt><trkpt lat="42.12983422776933" lon="12.357861528998326"><ele>232.0</ele><time>2026-04-03T14:44:31Z</time></trkpt><trkpt lat="42.13006419881125" lon="12.357634610549816"><ele>235.5</ele><time>2026-04-03T14:44:32Z</time></trkpt><trkpt lat="42.130294958751655" lon="12.357421063931625"><ele>239.0</ele><time>2026-04-03T14:44:33Z</time></trkpt><trkpt lat="42.1305326407736" lon="12.357226568571203"><ele>241.0</ele><time>2026-04-03T14:44:34Z</time></trkpt><trkpt lat="42.130771499332326" lon="12.357042445744996"><ele>243.0</ele><time>2026-04-03T14:44:35Z</time></trkpt><trkpt lat="42.131009827169265" lon="12.356862348354335"><ele>243.0</ele><time>2026-04-03T14:44:36Z</time></trkpt><trkpt lat="42.13124545747481" lon="12.356677935109888"><ele>243.0</ele><time>2026-04-03T14:44:37Z</time></trkpt><trkpt lat="42.13148060587708" lon="12.356499976513796"><ele>247.0</ele><time>2026-04-03T14:44:38Z</time></trkpt><trkpt lat="42.13171372618327" lon="12.356321952322991"><ele>251.0</ele><time>2026-04-03T14:44:39Z</time></trkpt><trkpt lat="42.131944417718934" lon="12.356141836258457"><ele>251.0</ele><time>2026-04-03T14:44:40Z</time></trkpt><trkpt lat="42.13217972038842" lon="12.355959930153983"><ele>251.0</ele><time>2026-04-03T14:44:41Z</time></trkpt><trkpt lat="42.13241846966869" lon="12.3557799316735"><ele>254.0</ele><time>2026-04-03T14:44:42Z</time></trkpt><trkpt lat="42.13265365444805" lon="12.355601553532413"><ele>257.0</ele><time>2026-04-03T14:44:43Z</time></trkpt><trkpt lat="42.132884909483636" lon="12.35543048651025"><ele>259.5</ele><time>2026-04-03T14:44:44Z</time></trkpt><trkpt lat="42.13311164651315" lon="12.35525670782276"><ele>262.0</ele><time>2026-04-03T14:44:45Z</time></trkpt><trkpt lat="42.13334222132893" lon="12.355080295263203"><ele>263.5</ele><time>2026-04-03T14:44:46Z</time></trkpt><trkpt lat="42.13357704623593" lon="12.35489505673413"><ele>265.0</ele><time>2026-04-03T14:44:47Z</time></trkpt><trkpt lat="42.133809824771625" lon="12.354713669679953"><ele>267.5</ele><time>2026-04-03T14:44:48Z</time></trkpt><trkpt lat="42.13404338525127" lon="12.354532846381268"><ele>270.0</ele><time>2026-04-03T14:44:49Z</time></trkpt><trkpt lat="42.13426581432947" lon="12.354367372852838"><ele>270.0</ele><time>2026-04-03T14:44:50Z</time></trkpt><trkpt lat="42.13447378104475" lon="12.354213738002578"><ele>270.0</ele><time>2026-04-03T14:44:51Z</time></trkpt><trkpt lat="42.134682548055984" lon="12.35406863789285"><ele>270.0</ele><time>2026-04-03T14:44:52Z</time></trkpt><trkpt lat="42.13488430616131" lon="12.353929917934735"><ele>270.0</ele><time>2026-04-03T14:44:53Z</time></trkpt><trkpt lat="42.13507117253131" lon="12.353789293783425"><ele>270.0</ele><time>2026-04-03T14:44:54Z</time></trkpt><trkpt lat="42.13525108158299" lon="12.353650089820919"><ele>274.0</ele><time>2026-04-03T14:44:55Z</time></trkpt><trkpt lat="42.13542850898841" lon="12.353512981107995"><ele>278.0</ele><time>2026-04-03T14:44:56Z</time></trkpt><trkpt lat="42.13560695712996" lon="12.353373144201182"><ele>282.0</ele><time>2026-04-03T14:44:57Z</time></trkpt><trkpt lat="42.13578084826382" lon="12.353238989516285"><ele>282.0</ele><time>2026-04-03T14:44:58Z</time></trkpt><trkpt lat="42.135958366602225" lon="12.353107226194396"><ele>282.0</ele><time>2026-04-03T14:44:59Z</time></trkpt><trkpt lat="42.13613753258178" lon="12.352975549717314"><ele>282.0</ele><time>2026-04-03T14:45:00Z</time></trkpt><trkpt lat="42.1363220201831" lon="12.352856993058971"><ele>282.0</ele><time>2026-04-03T14:45:01Z</time></trkpt><trkpt lat="42.1365137325514" lon="12.352746362415724"><ele>282.0</ele><time>2026-04-03T14:45:02Z</time></trkpt><trkpt lat="42.13671215890366" lon="12.352655744239078"><ele>282.0</ele><time>2026-04-03T14:45:03Z</time></trkpt><trkpt lat="42.136915072354256" lon="12.352572859528792"><ele>280.3333333333333</ele><time>2026-04-03T14:45:04Z</time></trkpt><trkpt lat="42.13712545436467" lon="12.352504347759549"><ele>278.66666666666663</ele><time>2026-04-03T14:45:05Z</time></trkpt><trkpt lat="42.13733399225363" lon="12.352451203883614"><ele>277.0</ele><time>2026-04-03T14:45:06Z</time></trkpt><trkpt lat="42.1375477607276" lon="12.352396701931037"><ele>273.66666666666663</ele><time>2026-04-03T14:45:07Z</time></trkpt><trkpt lat="42.137759368019054" lon="12.352344812609493"><ele>270.3333333333333</ele><time>2026-04-03T14:45:08Z</time></trkpt><trkpt lat="42.13796994004681" lon="12.352289799662973"><ele>267.0</ele><time>2026-04-03T14:45:09Z</time></trkpt><trkpt lat="42.13818228448784" lon="12.352235987598373"><ele>263.6666666666667</ele><time>2026-04-03T14:45:10Z</time></trkpt><trkpt lat="42.138398145942446" lon="12.352175465007832"><ele>260.33333333333337</ele><time>2026-04-03T14:45:11Z</time></trkpt><trkpt lat="42.13861450550297" lon="12.352123130289153"><ele>257.0</ele><time>2026-04-03T14:45:12Z</time></trkpt><trkpt lat="42.138837636636744" lon="12.352061577968309"><ele>253.0</ele><time>2026-04-03T14:45:13Z</time></trkpt><trkpt lat="42.13906037218723" lon="12.351999851157743"><ele>249.0</ele><time>2026-04-03T14:45:14Z</time></trkpt><trkpt lat="42.13928085505886" lon="12.35194465909039"><ele>249.0</ele><time>2026-04-03T14:45:15Z</time></trkpt><trkpt lat="42.13949959214346" lon="12.351889469223684"><ele>249.0</ele><time>2026-04-03T14:45:16Z</time></trkpt><trkpt lat="42.139711659217866" lon="12.351839272682183"><ele>249.0</ele><time>2026-04-03T14:45:17Z</time></trkpt><trkpt lat="42.13991328600827" lon="12.351787046180126"><ele>247.66666666666669</ele><time>2026-04-03T14:45:18Z</time></trkpt><trkpt lat="42.140111834528696" lon="12.35173035433574"><ele>246.33333333333334</ele><time>2026-04-03T14:45:19Z</time></trkpt><trkpt lat="42.14030755857644" lon="12.351677689950977"><ele>245.0</ele><time>2026-04-03T14:45:20Z</time></trkpt><trkpt lat="42.140494438966606" lon="12.351624628121629"><ele>245.0</ele><time>2026-04-03T14:45:21Z</time></trkpt><trkpt lat="42.14068171027841" lon="12.351573660697346"><ele>245.0</ele><time>2026-04-03T14:45:22Z</time></trkpt><trkpt lat="42.140878635388205" lon="12.351523297863807"><ele>245.0</ele><time>2026-04-03T14:45:23Z</time></trkpt><trkpt lat="42.14108284494876" lon="12.351480676472661"><ele>244.66666666666669</ele><time>2026-04-03T14:45:24Z</time></trkpt><trkpt lat="42.141283595939015" lon="12.351427190153776"><ele>244.33333333333331</ele><time>2026-04-03T14:45:25Z</time></trkpt><trkpt lat="42.14147847140185" lon="12.351376074546883"><ele>244.0</ele><time>2026-04-03T14:45:26Z</time></trkpt><trkpt lat="42.141667021528605" lon="12.351331079534521"><ele>241.0</ele><time>2026-04-03T14:45:27Z</time></trkpt><trkpt lat="42.14185039792371" lon="12.351285081604418"><ele>238.0</ele><time>2026-04-03T14:45:28Z</time></trkpt><trkpt lat="42.14203160669203" lon="12.351241446537193"><ele>235.0</ele><time>2026-04-03T14:45:29Z</time></trkpt><trkpt lat="42.1422078386784" lon="12.351198703210171"><ele>234.33333333333331</ele><time>2026-04-03T14:45:30Z</time></trkpt><trkpt lat="42.14238500412092" lon="12.351159190466007"><ele>233.66666666666669</ele><time>2026-04-03T14:45:31Z</time></trkpt><trkpt lat="42.142561552326676" lon="12.351109679110483"><ele>233.0</ele><time>2026-04-03T14:45:32Z</time></trkpt><trkpt lat="42.14273463212111" lon="12.351063061988516"><ele>233.0</ele><time>2026-04-03T14:45:33Z</time></trkpt><trkpt lat="42.14290761580512" lon="12.351021752001309"><ele>233.0</ele><time>2026-04-03T14:45:34Z</time></trkpt><trkpt lat="42.14308109301014" lon="12.350977114222676"><ele>233.0</ele><time>2026-04-03T14:45:35Z</time></trkpt><trkpt lat="42.14325010602788" lon="12.350930246642243"><ele>231.0</ele><time>2026-04-03T14:45:36Z</time></trkpt><trkpt lat="42.14341390731621" lon="12.350884704739775"><ele>229.0</ele><time>2026-04-03T14:45:37Z</time></trkpt><trkpt lat="42.14357205737951" lon="12.350844998979898"><ele>227.0</ele><time>2026-04-03T14:45:38Z</time></trkpt><trkpt lat="42.14373164680891" lon="12.350805031634836"><ele>227.0</ele><time>2026-04-03T14:45:39Z</time></trkpt><trkpt lat="42.14389218768252" lon="12.350768136715947"><ele>227.0</ele><time>2026-04-03T14:45:40Z</time></trkpt><trkpt lat="42.14405332720155" lon="12.350727117497433"><ele>227.0</ele><time>2026-04-03T14:45:41Z</time></trkpt><trkpt lat="42.14421390322934" lon="12.350684371840737"><ele>226.33333333333334</ele><time>2026-04-03T14:45:42Z</time></trkpt><trkpt lat="42.14437152216568" lon="12.350641733165101"><ele>225.66666666666669</ele><time>2026-04-03T14:45:43Z</time></trkpt><trkpt lat="42.144529822614054" lon="12.350601088257253"><ele>225.0</ele><time>2026-04-03T14:45:44Z</time></trkpt><trkpt lat="42.14469087186539" lon="12.350555788484517"><ele>224.66666666666669</ele><time>2026-04-03T14:45:45Z</time></trkpt><trkpt lat="42.144853824491214" lon="12.350513108962565"><ele>224.33333333333334</ele><time>2026-04-03T14:45:46Z</time></trkpt><trkpt lat="42.145007912638015" lon="12.350468899270917"><ele>224.0</ele><time>2026-04-03T14:45:47Z</time></trkpt><trkpt lat="42.145162778098516" lon="12.350436447834639"><ele>223.0</ele><time>2026-04-03T14:45:48Z</time></trkpt><trkpt lat="42.145323461254065" lon="12.350401233264593"><ele>222.0</ele><time>2026-04-03T14:45:49Z</time></trkpt><trkpt lat="42.145489100774675" lon="12.350361666683373"><ele>221.0</ele><time>2026-04-03T14:45:50Z</time></trkpt><trkpt lat="42.145656390862804" lon="12.350315771578185"><ele>220.66666666666669</ele><time>2026-04-03T14:45:51Z</time></trkpt><trkpt lat="42.14582738256493" lon="12.350273949931257"><ele>220.33333333333331</ele><time>2026-04-03T14:45:52Z</time></trkpt><trkpt lat="42.14600078648057" lon="12.350231600549575"><ele>220.0</ele><time>2026-04-03T14:45:52.999Z</time></trkpt><trkpt lat="42.14617782815093" lon="12.350182834316783"><ele>220.0</ele><time>2026-04-03T14:45:53.999Z</time></trkpt><trkpt lat="42.14636044244484" lon="12.350126222949157"><ele>220.0</ele><time>2026-04-03T14:45:54.999Z</time></trkpt><trkpt lat="42.14654640495995" lon="12.350059308799603"><ele>220.0</ele><time>2026-04-03T14:45:55.999Z</time></trkpt><trkpt lat="42.146735317902376" lon="12.349995775315831"><ele>219.33333333333331</ele><time>2026-04-03T14:45:56.999Z</time></trkpt><trkpt lat="42.14692822552876" lon="12.349940755364912"><ele>218.66666666666669</ele><time>2026-04-03T14:45:57.999Z</time></trkpt><trkpt lat="42.14712882689407" lon="12.349891355175142"><ele>218.0</ele><time>2026-04-03T14:45:58.999Z</time></trkpt><trkpt lat="42.147340464124234" lon="12.349836020547016"><ele>217.0</ele><time>2026-04-03T14:46:00Z</time></trkpt><trkpt lat="42.147553908524394" lon="12.349778257841292"><ele>216.0</ele><time>2026-04-03T14:46:01Z</time></trkpt><trkpt lat="42.14777097120333" lon="12.349724528351796"><ele>215.0</ele><time>2026-04-03T14:46:02Z</time></trkpt><trkpt lat="42.14798324019325" lon="12.349672657882847"><ele>214.66666666666669</ele><time>2026-04-03T14:46:03Z</time></trkpt><trkpt lat="42.14819379152638" lon="12.349621756655747"><ele>214.33333333333331</ele><time>2026-04-03T14:46:04Z</time></trkpt><trkpt lat="42.1484014493464" lon="12.349571249664924"><ele>214.0</ele><time>2026-04-03T14:46:05Z</time></trkpt><trkpt lat="42.14860607149312" lon="12.349519451953572"><ele>214.0</ele><time>2026-04-03T14:46:06Z</time></trkpt><trkpt lat="42.14881292230829" lon="12.349471509072242"><ele>214.0</ele><time>2026-04-03T14:46:07Z</time></trkpt><trkpt lat="42.149023992678" lon="12.349419945612734"><ele>214.0</ele><time>2026-04-03T14:46:08Z</time></trkpt><trkpt lat="42.14923605906647" lon="12.349364358609705"><ele>212.66666666666666</ele><time>2026-04-03T14:46:09Z</time></trkpt><trkpt lat="42.14944939789323" lon="12.349300277545069"><ele>211.33333333333331</ele><time>2026-04-03T14:46:10Z</time></trkpt><trkpt lat="42.14966540438959" lon="12.349225463520389"><ele>210.0</ele><time>2026-04-03T14:46:11Z</time></trkpt><trkpt lat="42.14987937698193" lon="12.349139962734332"><ele>209.66666666666669</ele><time>2026-04-03T14:46:12Z</time></trkpt><trkpt lat="42.15009156306624" lon="12.34904427593203"><ele>209.33333333333334</ele><time>2026-04-03T14:46:13Z</time></trkpt><trkpt lat="42.15030432406811" lon="12.348946517597483"><ele>209.0</ele><time>2026-04-03T14:46:14Z</time></trkpt><trkpt lat="42.15051548230924" lon="12.348842388450656"><ele>208.0</ele><time>2026-04-03T14:46:15Z</time></trkpt><trkpt lat="42.15072603528456" lon="12.348735544147646"><ele>207.0</ele><time>2026-04-03T14:46:16Z</time></trkpt><trkpt lat="42.150930806382256" lon="12.34861997811597"><ele>206.0</ele><time>2026-04-03T14:46:17Z</time></trkpt><trkpt lat="42.1511325796634" lon="12.348497490058202"><ele>206.0</ele><time>2026-04-03T14:46:18Z</time></trkpt><trkpt lat="42.15132939769337" lon="12.348370691376857"><ele>206.0</ele><time>2026-04-03T14:46:19Z</time></trkpt><trkpt lat="42.15152293372967" lon="12.348235004957546"><ele>206.0</ele><time>2026-04-03T14:46:20Z</time></trkpt><trkpt lat="42.151715932112836" lon="12.348093767381837"><ele>205.33333333333334</ele><time>2026-04-03T14:46:21Z</time></trkpt><trkpt lat="42.151907683667666" lon="12.347947257648546"><ele>204.66666666666669</ele><time>2026-04-03T14:46:22Z</time></trkpt><trkpt lat="42.1520982885889" lon="12.347794338604274"><ele>204.0</ele><time>2026-04-03T14:46:23Z</time></trkpt><trkpt lat="42.152287073837535" lon="12.347638155475272"><ele>203.0</ele><time>2026-04-03T14:46:24Z</time></trkpt><trkpt lat="42.15247939881222" lon="12.347468324697756"><ele>202.0</ele><time>2026-04-03T14:46:25Z</time></trkpt><trkpt lat="42.15266890518841" lon="12.34728938145686"><ele>202.5</ele><time>2026-04-03T14:46:26Z</time></trkpt><trkpt lat="42.152852411541815" lon="12.3471014098939"><ele>203.0</ele><time>2026-04-03T14:46:27Z</time></trkpt><trkpt lat="42.15302513273202" lon="12.346917406910858"><ele>203.0</ele><time>2026-04-03T14:46:28Z</time></trkpt><trkpt lat="42.15318573700361" lon="12.346741571606445"><ele>203.0</ele><time>2026-04-03T14:46:29Z</time></trkpt><trkpt lat="42.15333813135787" lon="12.34657023351735"><ele>203.0</ele><time>2026-04-03T14:46:30Z</time></trkpt><trkpt lat="42.15348707963911" lon="12.346397924254168"><ele>201.0</ele><time>2026-04-03T14:46:31Z</time></trkpt><trkpt lat="42.15362772354704" lon="12.346232726115536"><ele>199.0</ele><time>2026-04-03T14:46:32Z</time></trkpt><trkpt lat="42.153756519994666" lon="12.346080347840815"><ele>197.0</ele><time>2026-04-03T14:46:33Z</time></trkpt><trkpt lat="42.15388318721543" lon="12.34591945218318"><ele>197.0</ele><time>2026-04-03T14:46:34Z</time></trkpt><trkpt lat="42.15402161355329" lon="12.345735081068328"><ele>197.0</ele><time>2026-04-03T14:46:35Z</time></trkpt><trkpt lat="42.15417592403249" lon="12.345539078819655"><ele>197.0</ele><time>2026-04-03T14:46:36Z</time></trkpt><trkpt lat="42.15434564438445" lon="12.345333777899597"><ele>198.5</ele><time>2026-04-03T14:46:37Z</time></trkpt><trkpt lat="42.15452399429409" lon="12.345125057453123"><ele>200.0</ele><time>2026-04-03T14:46:38Z</time></trkpt><trkpt lat="42.15470888067029" lon="12.344908397858104"><ele>198.0</ele><time>2026-04-03T14:46:39Z</time></trkpt><trkpt lat="42.15490214646106" lon="12.344681891906118"><ele>196.0</ele><time>2026-04-03T14:46:40Z</time></trkpt><trkpt lat="42.155093714980666" lon="12.344448283743862"><ele>196.0</ele><time>2026-04-03T14:46:41Z</time></trkpt><trkpt lat="42.15528360908413" lon="12.34421680929797"><ele>196.0</ele><time>2026-04-03T14:46:42Z</time></trkpt><trkpt lat="42.155475569676106" lon="12.343985141515839"><ele>195.5</ele><time>2026-04-03T14:46:43Z</time></trkpt><trkpt lat="42.15566870648698" lon="12.343752532815232"><ele>195.0</ele><time>2026-04-03T14:46:44Z</time></trkpt><trkpt lat="42.15586594704853" lon="12.343513162136244"><ele>197.0</ele><time>2026-04-03T14:46:45Z</time></trkpt><trkpt lat="42.15606318971335" lon="12.34327512675637"><ele>199.0</ele><time>2026-04-03T14:46:46Z</time></trkpt><trkpt lat="42.15626034151636" lon="12.343038205315818"><ele>200.0</ele><time>2026-04-03T14:46:47Z</time></trkpt><trkpt lat="42.15645655356411" lon="12.342802012302544"><ele>201.0</ele><time>2026-04-03T14:46:48Z</time></trkpt><trkpt lat="42.156652593030174" lon="12.342566055097452"><ele>201.5</ele><time>2026-04-03T14:46:49Z</time></trkpt><trkpt lat="42.15685437715424" lon="12.342322601199475"><ele>202.0</ele><time>2026-04-03T14:46:50Z</time></trkpt><trkpt lat="42.1570640613171" lon="12.342070631988362"><ele>204.0</ele><time>2026-04-03T14:46:51Z</time></trkpt><trkpt lat="42.157276285628356" lon="12.341817118671974"><ele>206.0</ele><time>2026-04-03T14:46:52Z</time></trkpt><trkpt lat="42.1574898856816" lon="12.341564016322419"><ele>206.5</ele><time>2026-04-03T14:46:53Z</time></trkpt><trkpt lat="42.15770424946663" lon="12.341313435467937"><ele>207.0</ele><time>2026-04-03T14:46:54Z</time></trkpt><trkpt lat="42.15791995396407" lon="12.34106677780256"><ele>207.0</ele><time>2026-04-03T14:46:55Z</time></trkpt><trkpt lat="42.15813374647131" lon="12.340837856101844"><ele>207.0</ele><time>2026-04-03T14:46:56Z</time></trkpt><trkpt lat="42.158345195456015" lon="12.34062993612509"><ele>206.5</ele><time>2026-04-03T14:46:57Z</time></trkpt><trkpt lat="42.15855548871045" lon="12.34043220529338"><ele>206.0</ele><time>2026-04-03T14:46:58Z</time></trkpt><trkpt lat="42.1587605800959" lon="12.340230713877427"><ele>206.0</ele><time>2026-04-03T14:46:59Z</time></trkpt><trkpt lat="42.15895995681978" lon="12.340026851411759"><ele>206.0</ele><time>2026-04-03T14:47:00Z</time></trkpt><trkpt lat="42.15916088613351" lon="12.339827111837971"><ele>208.5</ele><time>2026-04-03T14:47:01Z</time></trkpt><trkpt lat="42.159361306937605" lon="12.339619460705865"><ele>211.0</ele><time>2026-04-03T14:47:02Z</time></trkpt><trkpt lat="42.15955753528966" lon="12.339405608085292"><ele>211.0</ele><time>2026-04-03T14:47:03Z</time></trkpt><trkpt lat="42.15975745552336" lon="12.339185728429799"><ele>211.0</ele><time>2026-04-03T14:47:04Z</time></trkpt><trkpt lat="42.1599600254974" lon="12.338968463559157"><ele>211.0</ele><time>2026-04-03T14:47:05Z</time></trkpt><trkpt lat="42.16016913632909" lon="12.33874508432766"><ele>211.0</ele><time>2026-04-03T14:47:06Z</time></trkpt><trkpt lat="42.16038210014675" lon="12.338529585841169"><ele>211.0</ele><time>2026-04-03T14:47:07Z</time></trkpt><trkpt lat="42.16060678972504" lon="12.33830759744338"><ele>211.0</ele><time>2026-04-03T14:47:08Z</time></trkpt><trkpt lat="42.160830931574836" lon="12.33808849402502"><ele>208.5</ele><time>2026-04-03T14:47:09Z</time></trkpt><trkpt lat="42.16104974041933" lon="12.337877708230709"><ele>206.0</ele><time>2026-04-03T14:47:10Z</time></trkpt><trkpt lat="42.161262796945074" lon="12.337666611057061"><ele>206.0</ele><time>2026-04-03T14:47:11Z</time></trkpt><trkpt lat="42.1614714774201" lon="12.337458231046408"><ele>206.0</ele><time>2026-04-03T14:47:12Z</time></trkpt><trkpt lat="42.16167821355845" lon="12.337266213112269"><ele>205.0</ele><time>2026-04-03T14:47:13Z</time></trkpt><trkpt lat="42.161886516634546" lon="12.337088372196485"><ele>204.0</ele><time>2026-04-03T14:47:14Z</time></trkpt><trkpt lat="42.16209692286021" lon="12.336917006186365"><ele>204.0</ele><time>2026-04-03T14:47:15Z</time></trkpt><trkpt lat="42.16230809227286" lon="12.33675678574882"><ele>204.0</ele><time>2026-04-03T14:47:16Z</time></trkpt><trkpt lat="42.16252026298246" lon="12.336603068891463"><ele>205.5</ele><time>2026-04-03T14:47:17Z</time></trkpt><trkpt lat="42.162732564612064" lon="12.336469844045412"><ele>207.0</ele><time>2026-04-03T14:47:18Z</time></trkpt><trkpt lat="42.16295200079402" lon="12.33635320012085"><ele>207.5</ele><time>2026-04-03T14:47:19Z</time></trkpt><trkpt lat="42.163173409595316" lon="12.336245460416443"><ele>208.0</ele><time>2026-04-03T14:47:20Z</time></trkpt><trkpt lat="42.163350759786496" lon="12.335904626389446"><ele>208.5</ele><time>2026-04-03T14:47:21Z</time></trkpt><trkpt lat="42.16355741590999" lon="12.335738671397868"><ele>209.0</ele><time>2026-04-03T14:47:22Z</time></trkpt><trkpt lat="42.16376221329803" lon="12.335581390409258"><ele>209.0</ele><time>2026-04-03T14:47:23Z</time></trkpt><trkpt lat="42.163970677083185" lon="12.335437088520582"><ele>209.0</ele><time>2026-04-03T14:47:24Z</time></trkpt><trkpt lat="42.164198567540275" lon="12.335318256653613"><ele>209.0</ele><time>2026-04-03T14:47:25Z</time></trkpt><trkpt lat="42.164447353204864" lon="12.33523104636296"><ele>209.0</ele><time>2026-04-03T14:47:26Z</time></trkpt><trkpt lat="42.16470607387712" lon="12.335164485283906"><ele>210.0</ele><time>2026-04-03T14:47:27Z</time></trkpt><trkpt lat="42.16495691936575" lon="12.335092428193459"><ele>211.0</ele><time>2026-04-03T14:47:28Z</time></trkpt><trkpt lat="42.16520305496327" lon="12.335010129831792"><ele>211.0</ele><time>2026-04-03T14:47:29Z</time></trkpt><trkpt lat="42.165441684721124" lon="12.334923028205894"><ele>211.0</ele><time>2026-04-03T14:47:30Z</time></trkpt><trkpt lat="42.16568158820442" lon="12.334838356179887"><ele>212.0</ele><time>2026-04-03T14:47:31Z</time></trkpt><trkpt lat="42.16592067263179" lon="12.33475829709839"><ele>213.0</ele><time>2026-04-03T14:47:32Z</time></trkpt><trkpt lat="42.166161890033536" lon="12.334678356965574"><ele>214.0</ele><time>2026-04-03T14:47:33Z</time></trkpt><trkpt lat="42.16640823264686" lon="12.33459499866218"><ele>215.0</ele><time>2026-04-03T14:47:34Z</time></trkpt><trkpt lat="42.16665442492633" lon="12.334512350721623"><ele>215.0</ele><time>2026-04-03T14:47:35Z</time></trkpt><trkpt lat="42.16690399703933" lon="12.33442589505034"><ele>215.0</ele><time>2026-04-03T14:47:36Z</time></trkpt><trkpt lat="42.16715306519207" lon="12.334337160184376"><ele>216.0</ele><time>2026-04-03T14:47:37Z</time></trkpt><trkpt lat="42.16740145259313" lon="12.33424956421166"><ele>217.0</ele><time>2026-04-03T14:47:38Z</time></trkpt><trkpt lat="42.16764546709943" lon="12.334164362900795"><ele>217.0</ele><time>2026-04-03T14:47:39Z</time></trkpt><trkpt lat="42.16788857053463" lon="12.334082708295579"><ele>217.0</ele><time>2026-04-03T14:47:40Z</time></trkpt><trkpt lat="42.1681305418541" lon="12.333998101494307"><ele>216.5</ele><time>2026-04-03T14:47:41Z</time></trkpt><trkpt lat="42.1683707896157" lon="12.333911512355542"><ele>216.0</ele><time>2026-04-03T14:47:42Z</time></trkpt><trkpt lat="42.16860654330549" lon="12.333821161338443"><ele>217.5</ele><time>2026-04-03T14:47:43Z</time></trkpt><trkpt lat="42.16882616107666" lon="12.333709426162903"><ele>219.0</ele><time>2026-04-03T14:47:44Z</time></trkpt><trkpt lat="42.169058693198" lon="12.333585034173316"><ele>219.0</ele><time>2026-04-03T14:47:45Z</time></trkpt><trkpt lat="42.169286293731574" lon="12.333439807980254"><ele>219.0</ele><time>2026-04-03T14:47:46Z</time></trkpt><trkpt lat="42.169497952349346" lon="12.333269906730049"><ele>219.0</ele><time>2026-04-03T14:47:46.999Z</time></trkpt><trkpt lat="42.169703725770965" lon="12.333071406268417"><ele>219.0</ele><time>2026-04-03T14:47:47.999Z</time></trkpt><trkpt lat="42.16989879643639" lon="12.332839506437145"><ele>221.5</ele><time>2026-04-03T14:47:48.999Z</time></trkpt><trkpt lat="42.17008855172829" lon="12.332581971691788"><ele>224.0</ele><time>2026-04-03T14:47:49.999Z</time></trkpt><trkpt lat="42.17026880867907" lon="12.33229793783911"><ele>224.5</ele><time>2026-04-03T14:47:50.999Z</time></trkpt><trkpt lat="42.17044982067228" lon="12.332000642317693"><ele>225.0</ele><time>2026-04-03T14:47:51.999Z</time></trkpt><trkpt lat="42.1706320233542" lon="12.331703805714879"><ele>227.0</ele><time>2026-04-03T14:47:52.999Z</time></trkpt><trkpt lat="42.17081532578197" lon="12.331406649952173"><ele>229.0</ele><time>2026-04-03T14:47:53.999Z</time></trkpt><trkpt lat="42.17099706528886" lon="12.331112803467464"><ele>229.0</ele><time>2026-04-03T14:47:54.999Z</time></trkpt><trkpt lat="42.171173890539386" lon="12.330828750215954"><ele>229.0</ele><time>2026-04-03T14:47:55.999Z</time></trkpt><trkpt lat="42.17135073889026" lon="12.330545660073033"><ele>229.5</ele><time>2026-04-03T14:47:56.999Z</time></trkpt><trkpt lat="42.171523558149126" lon="12.330268260679844"><ele>230.0</ele><time>2026-04-03T14:47:57.999Z</time></trkpt><trkpt lat="42.1716917449558" lon="12.329995350273238"><ele>234.5</ele><time>2026-04-03T14:47:58.999Z</time></trkpt><trkpt lat="42.17185520541524" lon="12.32972726316746"><ele>239.0</ele><time>2026-04-03T14:47:59.999Z</time></trkpt><trkpt lat="42.17201223860022" lon="12.329460552663411"><ele>239.0</ele><time>2026-04-03T14:48:00.999Z</time></trkpt><trkpt lat="42.17217289629609" lon="12.329198393881374"><ele>239.0</ele><time>2026-04-03T14:48:01.999Z</time></trkpt><trkpt lat="42.172331109504704" lon="12.328942677645452"><ele>242.5</ele><time>2026-04-03T14:48:02.999Z</time></trkpt><trkpt lat="42.172489742527226" lon="12.328692365863283"><ele>246.0</ele><time>2026-04-03T14:48:03.999Z</time></trkpt><trkpt lat="42.17265280573587" lon="12.328432378066413"><ele>246.0</ele><time>2026-04-03T14:48:04.999Z</time></trkpt><trkpt lat="42.17281839857762" lon="12.328175206682133"><ele>246.0</ele><time>2026-04-03T14:48:06Z</time></trkpt><trkpt lat="42.1729909294226" lon="12.32792681927696"><ele>245.5</ele><time>2026-04-03T14:48:07Z</time></trkpt><trkpt lat="42.1731699073543" lon="12.327680743239592"><ele>245.0</ele><time>2026-04-03T14:48:08Z</time></trkpt><trkpt lat="42.173354883225315" lon="12.327436533737465"><ele>247.0</ele><time>2026-04-03T14:48:09Z</time></trkpt><trkpt lat="42.17354793128767" lon="12.327192701513457"><ele>249.0</ele><time>2026-04-03T14:48:10Z</time></trkpt><trkpt lat="42.173751422675565" lon="12.326943916688114"><ele>249.0</ele><time>2026-04-03T14:48:11Z</time></trkpt><trkpt lat="42.173966266070856" lon="12.326694813713347"><ele>249.0</ele><time>2026-04-03T14:48:12Z</time></trkpt><trkpt lat="42.174193065016276" lon="12.326463669089732"><ele>251.0</ele><time>2026-04-03T14:48:13Z</time></trkpt><trkpt lat="42.17442924793467" lon="12.326252460295011"><ele>253.0</ele><time>2026-04-03T14:48:14Z</time></trkpt><trkpt lat="42.174669985116196" lon="12.326045071877047"><ele>255.0</ele><time>2026-04-03T14:48:15Z</time></trkpt><trkpt lat="42.1749122797303" lon="12.32585206050113"><ele>257.0</ele><time>2026-04-03T14:48:16Z</time></trkpt><trkpt lat="42.175158515743135" lon="12.325665556171044"><ele>257.0</ele><time>2026-04-03T14:48:17Z</time></trkpt><trkpt lat="42.17539835781138" lon="12.325489788534087"><ele>257.0</ele><time>2026-04-03T14:48:18Z</time></trkpt><trkpt lat="42.17563157825655" lon="12.325330052249077"><ele>258.0</ele><time>2026-04-03T14:48:19Z</time></trkpt><trkpt lat="42.17586371169066" lon="12.325175946441238"><ele>259.0</ele><time>2026-04-03T14:48:20Z</time></trkpt><trkpt lat="42.176100490297905" lon="12.325028745112952"><ele>259.0</ele><time>2026-04-03T14:48:21Z</time></trkpt><trkpt lat="42.176335517928585" lon="12.324888156026837"><ele>259.0</ele><time>2026-04-03T14:48:22Z</time></trkpt><trkpt lat="42.17657075812166" lon="12.324755127563662"><ele>258.5</ele><time>2026-04-03T14:48:23Z</time></trkpt><trkpt lat="42.176803532006105" lon="12.324618119795423"><ele>258.0</ele><time>2026-04-03T14:48:24Z</time></trkpt><trkpt lat="42.17703072647666" lon="12.324478270289369"><ele>258.0</ele><time>2026-04-03T14:48:25Z</time></trkpt><trkpt lat="42.17725981709536" lon="12.324328053636235"><ele>258.0</ele><time>2026-04-03T14:48:26Z</time></trkpt><trkpt lat="42.17748983393592" lon="12.324187043290722"><ele>257.5</ele><time>2026-04-03T14:48:27Z</time></trkpt><trkpt lat="42.17772168660761" lon="12.324041039086419"><ele>257.0</ele><time>2026-04-03T14:48:28Z</time></trkpt><trkpt lat="42.17795922284144" lon="12.32389649806074"><ele>258.5</ele><time>2026-04-03T14:48:29Z</time></trkpt><trkpt lat="42.17819613795425" lon="12.32375623596379"><ele>260.0</ele><time>2026-04-03T14:48:30Z</time></trkpt><trkpt lat="42.17843333486875" lon="12.32362263049296"><ele>260.0</ele><time>2026-04-03T14:48:31Z</time></trkpt><trkpt lat="42.17867058560027" lon="12.323490631029685"><ele>260.0</ele><time>2026-04-03T14:48:32Z</time></trkpt><trkpt lat="42.17890806985203" lon="12.323366227413127"><ele>259.5</ele><time>2026-04-03T14:48:33Z</time></trkpt><trkpt lat="42.17914660201284" lon="12.323251744607377"><ele>259.0</ele><time>2026-04-03T14:48:34Z</time></trkpt><trkpt lat="42.1793855500185" lon="12.323132615724118"><ele>261.0</ele><time>2026-04-03T14:48:35Z</time></trkpt><trkpt lat="42.179633187255156" lon="12.323007999944727"><ele>263.0</ele><time>2026-04-03T14:48:36Z</time></trkpt><trkpt lat="42.17988596463247" lon="12.322880120410932"><ele>263.5</ele><time>2026-04-03T14:48:37Z</time></trkpt><trkpt lat="42.18014263689948" lon="12.322763589210439"><ele>264.0</ele><time>2026-04-03T14:48:38Z</time></trkpt><trkpt lat="42.18040087967382" lon="12.322655732595651"><ele>264.0</ele><time>2026-04-03T14:48:39Z</time></trkpt><trkpt lat="42.18066169310512" lon="12.322556496682624"><ele>264.0</ele><time>2026-04-03T14:48:40Z</time></trkpt><trkpt lat="42.18091940117748" lon="12.322469793088752"><ele>263.0</ele><time>2026-04-03T14:48:41Z</time></trkpt><trkpt lat="42.181173547748685" lon="12.322383124723615"><ele>262.0</ele><time>2026-04-03T14:48:42Z</time></trkpt><trkpt lat="42.18142721088572" lon="12.322290063328248"><ele>259.0</ele><time>2026-04-03T14:48:43Z</time></trkpt><trkpt lat="42.18167659828132" lon="12.322199424609066"><ele>256.0</ele><time>2026-04-03T14:48:44Z</time></trkpt><trkpt lat="42.181931789014705" lon="12.322110934189293"><ele>256.0</ele><time>2026-04-03T14:48:45Z</time></trkpt><trkpt lat="42.18218587256063" lon="12.322032870547066"><ele>256.0</ele><time>2026-04-03T14:48:46Z</time></trkpt><trkpt lat="42.18244005978264" lon="12.321958516997748"><ele>253.0</ele><time>2026-04-03T14:48:47Z</time></trkpt><trkpt lat="42.18269505288662" lon="12.321876075422571"><ele>250.0</ele><time>2026-04-03T14:48:48Z</time></trkpt><trkpt lat="42.18295334736162" lon="12.321787545299886"><ele>248.5</ele><time>2026-04-03T14:48:49Z</time></trkpt><trkpt lat="42.183210293826804" lon="12.321697270576147"><ele>247.0</ele><time>2026-04-03T14:48:50Z</time></trkpt><trkpt lat="42.18347772891348" lon="12.321594217722252"><ele>247.0</ele><time>2026-04-03T14:48:51Z</time></trkpt><trkpt lat="42.18372412207122" lon="12.32151097659852"><ele>247.0</ele><time>2026-04-03T14:48:52Z</time></trkpt><trkpt lat="42.18397883957766" lon="12.321419647503024"><ele>244.5</ele><time>2026-04-03T14:48:53Z</time></trkpt><trkpt lat="42.18423449086216" lon="12.321328117723853"><ele>242.0</ele><time>2026-04-03T14:48:54Z</time></trkpt><trkpt lat="42.18448355391426" lon="12.321236054354298"><ele>242.0</ele><time>2026-04-03T14:48:55Z</time></trkpt><trkpt lat="42.18473368723882" lon="12.321142593281504"><ele>242.0</ele><time>2026-04-03T14:48:56Z</time></trkpt><trkpt lat="42.18498491193424" lon="12.321046510580166"><ele>242.0</ele><time>2026-04-03T14:48:57Z</time></trkpt><trkpt lat="42.18523821786538" lon="12.320955774465872"><ele>242.0</ele><time>2026-04-03T14:48:58Z</time></trkpt><trkpt lat="42.18549037682045" lon="12.320863735437797"><ele>241.5</ele><time>2026-04-03T14:48:59Z</time></trkpt><trkpt lat="42.1857377272546" lon="12.320775909732973"><ele>241.0</ele><time>2026-04-03T14:49:00Z</time></trkpt><trkpt lat="42.18598688031676" lon="12.320685602786199"><ele>241.0</ele><time>2026-04-03T14:49:01Z</time></trkpt><trkpt lat="42.186240638657544" lon="12.320593988383004"><ele>241.0</ele><time>2026-04-03T14:49:02Z</time></trkpt><trkpt lat="42.186492779896476" lon="12.320499686410267"><ele>240.5</ele><time>2026-04-03T14:49:03Z</time></trkpt><trkpt lat="42.18674486685504" lon="12.320404348495819"><ele>240.0</ele><time>2026-04-03T14:49:04Z</time></trkpt><trkpt lat="42.18700519270674" lon="12.320307805412034"><ele>240.0</ele><time>2026-04-03T14:49:05Z</time></trkpt><trkpt lat="42.18727391908708" lon="12.320206389874743"><ele>240.0</ele><time>2026-04-03T14:49:06Z</time></trkpt><trkpt lat="42.18753472204403" lon="12.320095134747021"><ele>240.0</ele><time>2026-04-03T14:49:07Z</time></trkpt><trkpt lat="42.18779132808129" lon="12.3199618183911"><ele>240.0</ele><time>2026-04-03T14:49:08Z</time></trkpt><trkpt lat="42.18804904627712" lon="12.319800845684222"><ele>240.0</ele><time>2026-04-03T14:49:09Z</time></trkpt><trkpt lat="42.188298300761524" lon="12.319626599788311"><ele>240.0</ele><time>2026-04-03T14:49:10Z</time></trkpt><trkpt lat="42.18854243210347" lon="12.319436060973864"><ele>240.0</ele><time>2026-04-03T14:49:11Z</time></trkpt><trkpt lat="42.188779755818096" lon="12.319231358434383"><ele>240.0</ele><time>2026-04-03T14:49:12Z</time></trkpt><trkpt lat="42.18900729431628" lon="12.319006000964531"><ele>241.5</ele><time>2026-04-03T14:49:13Z</time></trkpt><trkpt lat="42.18922385487313" lon="12.318755840829706"><ele>243.0</ele><time>2026-04-03T14:49:14Z</time></trkpt><trkpt lat="42.1894311267023" lon="12.31848354615965"><ele>243.0</ele><time>2026-04-03T14:49:15Z</time></trkpt><trkpt lat="42.18963824301953" lon="12.318200218509219"><ele>243.0</ele><time>2026-04-03T14:49:16Z</time></trkpt><trkpt lat="42.18984487061009" lon="12.317906569914769"><ele>244.0</ele><time>2026-04-03T14:49:17Z</time></trkpt><trkpt lat="42.19005326342513" lon="12.317602029621046"><ele>245.0</ele><time>2026-04-03T14:49:18Z</time></trkpt><trkpt lat="42.19026532289878" lon="12.31730423119763"><ele>245.5</ele><time>2026-04-03T14:49:19Z</time></trkpt><trkpt lat="42.19048086593624" lon="12.316998477284722"><ele>246.0</ele><time>2026-04-03T14:49:20Z</time></trkpt><trkpt lat="42.190698191684" lon="12.316686884003566"><ele>248.5</ele><time>2026-04-03T14:49:21Z</time></trkpt><trkpt lat="42.19091629514352" lon="12.316370922103422"><ele>251.0</ele><time>2026-04-03T14:49:22Z</time></trkpt><trkpt lat="42.19112955388813" lon="12.316058390071833"><ele>251.0</ele><time>2026-04-03T14:49:23Z</time></trkpt><trkpt lat="42.19135070129267" lon="12.315749693794732"><ele>251.0</ele><time>2026-04-03T14:49:24Z</time></trkpt><trkpt lat="42.19156368896953" lon="12.315466882709975"><ele>253.5</ele><time>2026-04-03T14:49:25Z</time></trkpt><trkpt lat="42.19177780852817" lon="12.315198506522803"><ele>256.0</ele><time>2026-04-03T14:49:26Z</time></trkpt><trkpt lat="42.19200070847009" lon="12.314951979058172"><ele>257.0</ele><time>2026-04-03T14:49:27Z</time></trkpt><trkpt lat="42.19223157128822" lon="12.314728298165859"><ele>258.0</ele><time>2026-04-03T14:49:28Z</time></trkpt><trkpt lat="42.19247458525872" lon="12.314522950688588"><ele>258.0</ele><time>2026-04-03T14:49:29Z</time></trkpt><trkpt lat="42.19272764160987" lon="12.31433731418061"><ele>258.0</ele><time>2026-04-03T14:49:30Z</time></trkpt><trkpt lat="42.192980886316505" lon="12.314185826411938"><ele>257.5</ele><time>2026-04-03T14:49:31Z</time></trkpt><trkpt lat="42.19323843681279" lon="12.31406074389498"><ele>257.0</ele><time>2026-04-03T14:49:32Z</time></trkpt><trkpt lat="42.19349540303839" lon="12.31395599772702"><ele>258.5</ele><time>2026-04-03T14:49:33Z</time></trkpt><trkpt lat="42.193748270778755" lon="12.31386687917321"><ele>260.0</ele><time>2026-04-03T14:49:34Z</time></trkpt><trkpt lat="42.194002936677286" lon="12.313790728867884"><ele>260.0</ele><time>2026-04-03T14:49:35Z</time></trkpt><trkpt lat="42.19425222657169" lon="12.313714048013372"><ele>260.0</ele><time>2026-04-03T14:49:36Z</time></trkpt><trkpt lat="42.19450024236841" lon="12.313647823280649"><ele>260.0</ele><time>2026-04-03T14:49:37Z</time></trkpt><trkpt lat="42.19474480889875" lon="12.313591537076373"><ele>260.0</ele><time>2026-04-03T14:49:38Z</time></trkpt><trkpt lat="42.19499101535306" lon="12.313529818733056"><ele>260.0</ele><time>2026-04-03T14:49:39Z</time></trkpt><trkpt lat="42.195233806706256" lon="12.313467375310418"><ele>260.0</ele><time>2026-04-03T14:49:40Z</time></trkpt><trkpt lat="42.19547610274927" lon="12.313408285065917"><ele>258.0</ele><time>2026-04-03T14:49:41Z</time></trkpt><trkpt lat="42.195718196284865" lon="12.313350383328293"><ele>256.0</ele><time>2026-04-03T14:49:42Z</time></trkpt><trkpt lat="42.195960559139685" lon="12.313292647189202"><ele>256.0</ele><time>2026-04-03T14:49:43Z</time></trkpt><trkpt lat="42.19620224802208" lon="12.313233997106169"><ele>256.0</ele><time>2026-04-03T14:49:44Z</time></trkpt><trkpt lat="42.19644135014375" lon="12.313175685200957"><ele>255.5</ele><time>2026-04-03T14:49:45Z</time></trkpt><trkpt lat="42.196683041342865" lon="12.313113724607886"><ele>255.0</ele><time>2026-04-03T14:49:46Z</time></trkpt><trkpt lat="42.19691896211781" lon="12.31306886525"><ele>255.5</ele><time>2026-04-03T14:49:46.999Z</time></trkpt><trkpt lat="42.19715738299631" lon="12.313005741967824"><ele>256.0</ele><time>2026-04-03T14:49:47.999Z</time></trkpt><trkpt lat="42.19739333955373" lon="12.312954899740632"><ele>256.0</ele><time>2026-04-03T14:49:48.999Z</time></trkpt><trkpt lat="42.19763987783468" lon="12.312857554026516"><ele>256.0</ele><time>2026-04-03T14:49:49.999Z</time></trkpt><trkpt lat="42.19788500269491" lon="12.31280302403586"><ele>256.0</ele><time>2026-04-03T14:49:50.999Z</time></trkpt><trkpt lat="42.19812728538001" lon="12.312740111852104"><ele>256.0</ele><time>2026-04-03T14:49:51.999Z</time></trkpt><trkpt lat="42.198377757603794" lon="12.312657901893035"><ele>255.5</ele><time>2026-04-03T14:49:52.999Z</time></trkpt><trkpt lat="42.19860768013343" lon="12.312558102056302"><ele>255.0</ele><time>2026-04-03T14:49:53.999Z</time></trkpt><trkpt lat="42.19884949481423" lon="12.312453222807282"><ele>254.5</ele><time>2026-04-03T14:49:54.999Z</time></trkpt><trkpt lat="42.199101440179234" lon="12.312342931876143"><ele>254.0</ele><time>2026-04-03T14:49:55.999Z</time></trkpt><trkpt lat="42.19934469907183" lon="12.312216055448873"><ele>255.0</ele><time>2026-04-03T14:49:56.999Z</time></trkpt><trkpt lat="42.19957910004448" lon="12.31206737766357"><ele>256.0</ele><time>2026-04-03T14:49:57.999Z</time></trkpt><trkpt lat="42.199800877672246" lon="12.311899858059329"><ele>254.5</ele><time>2026-04-03T14:49:58.999Z</time></trkpt><trkpt lat="42.20001320908324" lon="12.311717524323663"><ele>253.0</ele><time>2026-04-03T14:49:59.999Z</time></trkpt><trkpt lat="42.200224479759974" lon="12.31152652326807"><ele>252.0</ele><time>2026-04-03T14:50:00.999Z</time></trkpt><trkpt lat="42.20043707038892" lon="12.311337778135204"><ele>251.0</ele><time>2026-04-03T14:50:01.999Z</time></trkpt><trkpt lat="42.200651707532046" lon="12.311144876264267"><ele>249.0</ele><time>2026-04-03T14:50:02.999Z</time></trkpt><trkpt lat="42.20086342314503" lon="12.31095318180115"><ele>247.0</ele><time>2026-04-03T14:50:03.999Z</time></trkpt><trkpt lat="42.20107503392652" lon="12.31075904834846"><ele>245.5</ele><time>2026-04-03T14:50:04.999Z</time></trkpt><trkpt lat="42.20128720026955" lon="12.310564400918901"><ele>244.0</ele><time>2026-04-03T14:50:05.999Z</time></trkpt><trkpt lat="42.20150263520709" lon="12.310369673799492"><ele>243.5</ele><time>2026-04-03T14:50:06.999Z</time></trkpt><trkpt lat="42.20172148487372" lon="12.310179990099085"><ele>243.0</ele><time>2026-04-03T14:50:07.999Z</time></trkpt><trkpt lat="42.20194260927192" lon="12.309990442146214"><ele>243.0</ele><time>2026-04-03T14:50:08.999Z</time></trkpt><trkpt lat="42.20216483845976" lon="12.309808316112374"><ele>243.0</ele><time>2026-04-03T14:50:09.999Z</time></trkpt><trkpt lat="42.202393655755756" lon="12.309632866197711"><ele>241.5</ele><time>2026-04-03T14:50:10.999Z</time></trkpt><trkpt lat="42.202626231811166" lon="12.309469138879486"><ele>240.0</ele><time>2026-04-03T14:50:12Z</time></trkpt><trkpt lat="42.20286128195714" lon="12.309313216652487"><ele>240.0</ele><time>2026-04-03T14:50:13Z</time></trkpt><trkpt lat="42.20309640126447" lon="12.309163663450011"><ele>240.0</ele><time>2026-04-03T14:50:14Z</time></trkpt><trkpt lat="42.20333110111961" lon="12.309017872744743"><ele>240.5</ele><time>2026-04-03T14:50:15Z</time></trkpt><trkpt lat="42.20356471073655" lon="12.308874415329008"><ele>241.0</ele><time>2026-04-03T14:50:16Z</time></trkpt><trkpt lat="42.20379773330929" lon="12.308732283282122"><ele>238.5</ele><time>2026-04-03T14:50:17Z</time></trkpt><trkpt lat="42.204024398729686" lon="12.308594915941507"><ele>236.0</ele><time>2026-04-03T14:50:18Z</time></trkpt><trkpt lat="42.204246115690836" lon="12.308461612249875"><ele>236.0</ele><time>2026-04-03T14:50:19Z</time></trkpt><trkpt lat="42.204456206865764" lon="12.308338437035237"><ele>236.0</ele><time>2026-04-03T14:50:20Z</time></trkpt><trkpt lat="42.204660471291966" lon="12.308218814109146"><ele>236.0</ele><time>2026-04-03T14:50:21Z</time></trkpt><trkpt lat="42.20485947266687" lon="12.308099685995773"><ele>236.0</ele><time>2026-04-03T14:50:22Z</time></trkpt><trkpt lat="42.20505481715493" lon="12.307987091027305"><ele>236.0</ele><time>2026-04-03T14:50:23Z</time></trkpt><trkpt lat="42.20523728400101" lon="12.307884891655569"><ele>237.0</ele><time>2026-04-03T14:50:24Z</time></trkpt><trkpt lat="42.205416805832165" lon="12.307770902353804"><ele>238.0</ele><time>2026-04-03T14:50:25Z</time></trkpt><trkpt lat="42.20560288620102" lon="12.307645147728412"><ele>239.0</ele><time>2026-04-03T14:50:26Z</time></trkpt><trkpt lat="42.205793907181" lon="12.30752147922923"><ele>239.33333333333334</ele><time>2026-04-03T14:50:27Z</time></trkpt><trkpt lat="42.205977880031845" lon="12.30739892724169"><ele>239.66666666666669</ele><time>2026-04-03T14:50:28Z</time></trkpt><trkpt lat="42.2061523490419" lon="12.307275026647803"><ele>240.0</ele><time>2026-04-03T14:50:29Z</time></trkpt><trkpt lat="42.206315148827436" lon="12.307152124375218"><ele>241.0</ele><time>2026-04-03T14:50:30Z</time></trkpt><trkpt lat="42.206458651896135" lon="12.30702445508791"><ele>242.0</ele><time>2026-04-03T14:50:31Z</time></trkpt><trkpt lat="42.20659110886467" lon="12.306904600726197"><ele>243.0</ele><time>2026-04-03T14:50:32Z</time></trkpt><trkpt lat="42.20670959102878" lon="12.306786925418148"><ele>243.75</ele><time>2026-04-03T14:50:33Z</time></trkpt><trkpt lat="42.206815537937196" lon="12.306676891263757"><ele>244.5</ele><time>2026-04-03T14:50:34Z</time></trkpt><trkpt lat="42.206915851257946" lon="12.306578115869712"><ele>245.25</ele><time>2026-04-03T14:50:35Z</time></trkpt><trkpt lat="42.20701078385821" lon="12.306496157899083"><ele>246.0</ele><time>2026-04-03T14:50:36Z</time></trkpt><trkpt lat="42.20710110979872" lon="12.306435291785927"><ele>246.0</ele><time>2026-04-03T14:50:37Z</time></trkpt><trkpt lat="42.20719392819145" lon="12.306391205988312"><ele>246.0</ele><time>2026-04-03T14:50:38Z</time></trkpt><trkpt lat="42.20728802144687" lon="12.306380229035254"><ele>246.0</ele><time>2026-04-03T14:50:39Z</time></trkpt><trkpt lat="42.20737281137723" lon="12.306385565554127"><ele>246.0</ele><time>2026-04-03T14:50:40Z</time></trkpt><trkpt lat="42.20744934030394" lon="12.306351908954255"><ele>246.0</ele><time>2026-04-03T14:50:41Z</time></trkpt><trkpt lat="42.207515674527365" lon="12.306268069559577"><ele>246.0</ele><time>2026-04-03T14:50:42Z</time></trkpt><trkpt lat="42.20754666009534" lon="12.306154361501221"><ele>246.0</ele><time>2026-04-03T14:50:43Z</time></trkpt><trkpt lat="42.207532220792764" lon="12.306036752752929"><ele>246.0</ele><time>2026-04-03T14:50:44Z</time></trkpt><trkpt lat="42.207480151223216" lon="12.305934614322712"><ele>246.0</ele><time>2026-04-03T14:50:45Z</time></trkpt><trkpt lat="42.20743513328296" lon="12.305843403655233"><ele>246.0</ele><time>2026-04-03T14:50:46Z</time></trkpt><trkpt lat="42.207432424165845" lon="12.305746535451027"><ele>246.0</ele><time>2026-04-03T14:50:47Z</time></trkpt><trkpt lat="42.20747430241961" lon="12.305642964067363"><ele>246.0</ele><time>2026-04-03T14:50:48Z</time></trkpt><trkpt lat="42.207549572055804" lon="12.30551738474953"><ele>246.0</ele><time>2026-04-03T14:50:49Z</time></trkpt><trkpt lat="42.20763784668103" lon="12.305364145187376"><ele>246.0</ele><time>2026-04-03T14:50:50Z</time></trkpt><trkpt lat="42.207738046488004" lon="12.30518206865583"><ele>246.0</ele><time>2026-04-03T14:50:51Z</time></trkpt><trkpt lat="42.20784573208907" lon="12.304984359808767"><ele>246.0</ele><time>2026-04-03T14:50:52Z</time></trkpt><trkpt lat="42.207969272153214" lon="12.30476439187558"><ele>246.0</ele><time>2026-04-03T14:50:53Z</time></trkpt><trkpt lat="42.208099647608854" lon="12.304528245067154"><ele>246.0</ele><time>2026-04-03T14:50:54Z</time></trkpt><trkpt lat="42.20823881794698" lon="12.304283863248003"><ele>246.5</ele><time>2026-04-03T14:50:55Z</time></trkpt><trkpt lat="42.20838156690114" lon="12.304036332826227"><ele>247.0</ele><time>2026-04-03T14:50:56Z</time></trkpt><trkpt lat="42.20852369556991" lon="12.303786845291823"><ele>243.5</ele><time>2026-04-03T14:50:57Z</time></trkpt><trkpt lat="42.2086638543501" lon="12.303538135713195"><ele>240.0</ele><time>2026-04-03T14:50:58Z</time></trkpt><trkpt lat="42.20880354577018" lon="12.303274568767808"><ele>238.5</ele><time>2026-04-03T14:50:59Z</time></trkpt><trkpt lat="42.20894827322786" lon="12.303012995091818"><ele>237.0</ele><time>2026-04-03T14:51:00Z</time></trkpt><trkpt lat="42.20909878851468" lon="12.302754607435528"><ele>240.0</ele><time>2026-04-03T14:51:01Z</time></trkpt><trkpt lat="42.209242203868726" lon="12.302494668055326"><ele>243.0</ele><time>2026-04-03T14:51:02Z</time></trkpt><trkpt lat="42.209384270549734" lon="12.302237854638884"><ele>243.0</ele><time>2026-04-03T14:51:03Z</time></trkpt><trkpt lat="42.20952472842599" lon="12.301984848007429"><ele>243.0</ele><time>2026-04-03T14:51:04Z</time></trkpt><trkpt lat="42.209667837293544" lon="12.301727316142577"><ele>243.0</ele><time>2026-04-03T14:51:05Z</time></trkpt><trkpt lat="42.20981427409475" lon="12.30146518737235"><ele>243.0</ele><time>2026-04-03T14:51:06Z</time></trkpt><trkpt lat="42.20995649556141" lon="12.301198391412328"><ele>245.5</ele><time>2026-04-03T14:51:07Z</time></trkpt><trkpt lat="42.21009008974148" lon="12.300929940314125"><ele>248.0</ele><time>2026-04-03T14:51:08Z</time></trkpt><trkpt lat="42.210230298767705" lon="12.300664360815249"><ele>248.0</ele><time>2026-04-03T14:51:09Z</time></trkpt><trkpt lat="42.210346442835316" lon="12.300377841359678"><ele>248.0</ele><time>2026-04-03T14:51:10Z</time></trkpt><trkpt lat="42.21044611934287" lon="12.300077368204438"><ele>248.0</ele><time>2026-04-03T14:51:11Z</time></trkpt><trkpt lat="42.21053501762442" lon="12.299777361280224"><ele>248.0</ele><time>2026-04-03T14:51:12Z</time></trkpt><trkpt lat="42.2106152993322" lon="12.29947844427258"><ele>244.5</ele><time>2026-04-03T14:51:13Z</time></trkpt><trkpt lat="42.210672322052226" lon="12.299166736536378"><ele>241.0</ele><time>2026-04-03T14:51:14Z</time></trkpt><trkpt lat="42.21075648176139" lon="12.298874682196848"><ele>241.0</ele><time>2026-04-03T14:51:15Z</time></trkpt><trkpt lat="42.21084994516825" lon="12.298591852956712"><ele>241.0</ele><time>2026-04-03T14:51:16Z</time></trkpt><trkpt lat="42.2109582339085" lon="12.298303894911992"><ele>242.5</ele><time>2026-04-03T14:51:17Z</time></trkpt><trkpt lat="42.21101331875561" lon="12.298005138840763"><ele>244.0</ele><time>2026-04-03T14:51:18Z</time></trkpt><trkpt lat="42.21108307799221" lon="12.297705800085359"><ele>244.0</ele><time>2026-04-03T14:51:19Z</time></trkpt><trkpt lat="42.2111724182523" lon="12.297400377573195"><ele>244.0</ele><time>2026-04-03T14:51:20Z</time></trkpt><trkpt lat="42.211236538661666" lon="12.297014603523609"><ele>244.0</ele><time>2026-04-03T14:51:21Z</time></trkpt><trkpt lat="42.211349475245605" lon="12.296730966449624"><ele>244.0</ele><time>2026-04-03T14:51:22Z</time></trkpt><trkpt lat="42.21147162274261" lon="12.296465647177394"><ele>241.5</ele><time>2026-04-03T14:51:23Z</time></trkpt><trkpt lat="42.211607363595384" lon="12.296204301627276"><ele>239.0</ele><time>2026-04-03T14:51:24Z</time></trkpt><trkpt lat="42.21175358297429" lon="12.295955510955519"><ele>239.0</ele><time>2026-04-03T14:51:25Z</time></trkpt><trkpt lat="42.21190604966324" lon="12.29572608635402"><ele>239.0</ele><time>2026-04-03T14:51:26Z</time></trkpt><trkpt lat="42.21206618026376" lon="12.295505821578454"><ele>239.0</ele><time>2026-04-03T14:51:27Z</time></trkpt><trkpt lat="42.21223816463924" lon="12.295289943155343"><ele>239.0</ele><time>2026-04-03T14:51:28Z</time></trkpt><trkpt lat="42.21241903350697" lon="12.295078338618753"><ele>238.0</ele><time>2026-04-03T14:51:29Z</time></trkpt><trkpt lat="42.21260851037843" lon="12.294858672813467"><ele>237.0</ele><time>2026-04-03T14:51:30Z</time></trkpt><trkpt lat="42.212790296189354" lon="12.294627308053743"><ele>237.0</ele><time>2026-04-03T14:51:31Z</time></trkpt><trkpt lat="42.21298012967034" lon="12.294411918005837"><ele>237.0</ele><time>2026-04-03T14:51:32Z</time></trkpt><trkpt lat="42.21316777804747" lon="12.294202944090896"><ele>236.0</ele><time>2026-04-03T14:51:33Z</time></trkpt><trkpt lat="42.21335096964678" lon="12.294001955511378"><ele>235.0</ele><time>2026-04-03T14:51:34Z</time></trkpt><trkpt lat="42.21352408406903" lon="12.293808763558857"><ele>237.0</ele><time>2026-04-03T14:51:35Z</time></trkpt><trkpt lat="42.21368512162812" lon="12.293634282624199"><ele>239.0</ele><time>2026-04-03T14:51:36Z</time></trkpt><trkpt lat="42.21383597771239" lon="12.293470416256667"><ele>241.0</ele><time>2026-04-03T14:51:37Z</time></trkpt><trkpt lat="42.21397700419903" lon="12.293316097279153"><ele>242.0</ele><time>2026-04-03T14:51:38Z</time></trkpt><trkpt lat="42.214106754853454" lon="12.293171868873813"><ele>243.0</ele><time>2026-04-03T14:51:39Z</time></trkpt><trkpt lat="42.21423228186159" lon="12.293035144229384"><ele>244.0</ele><time>2026-04-03T14:51:40Z</time></trkpt><trkpt lat="42.21435479130072" lon="12.29288709874745"><ele>245.0</ele><time>2026-04-03T14:51:41Z</time></trkpt><trkpt lat="42.214485582707454" lon="12.292733236248289"><ele>246.0</ele><time>2026-04-03T14:51:42Z</time></trkpt><trkpt lat="42.214610243612064" lon="12.292573360238384"><ele>247.0</ele><time>2026-04-03T14:51:43Z</time></trkpt><trkpt lat="42.21473540719924" lon="12.29240024713252"><ele>246.33333333333331</ele><time>2026-04-03T14:51:44Z</time></trkpt><trkpt lat="42.21484946681231" lon="12.292204655225659"><ele>245.66666666666669</ele><time>2026-04-03T14:51:45Z</time></trkpt><trkpt lat="42.21494976586169" lon="12.291994198057237"><ele>245.0</ele><time>2026-04-03T14:51:46Z</time></trkpt><trkpt lat="42.21503825563521" lon="12.2917775709902"><ele>245.0</ele><time>2026-04-03T14:51:46.999Z</time></trkpt><trkpt lat="42.21511555809831" lon="12.29155225616892"><ele>245.0</ele><time>2026-04-03T14:51:47.999Z</time></trkpt><trkpt lat="42.21518060060843" lon="12.291320801259522"><ele>245.0</ele><time>2026-04-03T14:51:48.999Z</time></trkpt><trkpt lat="42.21524052128452" lon="12.291081360443842"><ele>246.0</ele><time>2026-04-03T14:51:49.999Z</time></trkpt><trkpt lat="42.21527954867322" lon="12.290830168274555"><ele>247.0</ele><time>2026-04-03T14:51:50.999Z</time></trkpt><trkpt lat="42.215295585636134" lon="12.290573488653125"><ele>248.0</ele><time>2026-04-03T14:51:51.999Z</time></trkpt><trkpt lat="42.215300718202364" lon="12.290305962368913"><ele>248.33333333333334</ele><time>2026-04-03T14:51:52.999Z</time></trkpt><trkpt lat="42.21528888380597" lon="12.290035497724396"><ele>248.66666666666669</ele><time>2026-04-03T14:51:53.999Z</time></trkpt><trkpt lat="42.21527389639979" lon="12.2897426756837"><ele>249.0</ele><time>2026-04-03T14:51:54.999Z</time></trkpt><trkpt lat="42.21526602988737" lon="12.289425192505448"><ele>247.0</ele><time>2026-04-03T14:51:55.999Z</time></trkpt><trkpt lat="42.21524529734394" lon="12.289099771104585"><ele>245.0</ele><time>2026-04-03T14:51:56.999Z</time></trkpt><trkpt lat="42.21522506658412" lon="12.288782225292346"><ele>244.0</ele><time>2026-04-03T14:51:57.999Z</time></trkpt><trkpt lat="42.215203448630184" lon="12.288442906099968"><ele>243.0</ele><time>2026-04-03T14:51:58.999Z</time></trkpt><trkpt lat="42.215182421713614" lon="12.288106628873098"><ele>243.0</ele><time>2026-04-03T14:51:59.999Z</time></trkpt><trkpt lat="42.21516127485746" lon="12.287752679364784"><ele>243.0</ele><time>2026-04-03T14:52:00.999Z</time></trkpt><trkpt lat="42.21513776677512" lon="12.287392196276924"><ele>243.0</ele><time>2026-04-03T14:52:01.999Z</time></trkpt><trkpt lat="42.21511401921264" lon="12.28702804098732"><ele>243.0</ele><time>2026-04-03T14:52:02.999Z</time></trkpt><trkpt lat="42.21509102271693" lon="12.286674363006693"><ele>242.5</ele><time>2026-04-03T14:52:03.999Z</time></trkpt><trkpt lat="42.215070864596306" lon="12.286349361210979"><ele>242.0</ele><time>2026-04-03T14:52:04.999Z</time></trkpt><trkpt lat="42.21504997550882" lon="12.286037766270564"><ele>242.0</ele><time>2026-04-03T14:52:05.999Z</time></trkpt><trkpt lat="42.21503040296365" lon="12.28574433221764"><ele>242.0</ele><time>2026-04-03T14:52:06.999Z</time></trkpt><trkpt lat="42.21501113924411" lon="12.28544731638461"><ele>242.0</ele><time>2026-04-03T14:52:07.999Z</time></trkpt><trkpt lat="42.21499305483379" lon="12.285157533907496"><ele>242.0</ele><time>2026-04-03T14:52:08.999Z</time></trkpt><trkpt lat="42.214974736278556" lon="12.2848660928874"><ele>242.0</ele><time>2026-04-03T14:52:09.999Z</time></trkpt><trkpt lat="42.21495473102775" lon="12.284575200834063"><ele>242.0</ele><time>2026-04-03T14:52:10.999Z</time></trkpt><trkpt lat="42.214934468910634" lon="12.28428057380137"><ele>242.0</ele><time>2026-04-03T14:52:11.999Z</time></trkpt><trkpt lat="42.21489303383382" lon="12.283982184095791"><ele>242.0</ele><time>2026-04-03T14:52:12.999Z</time></trkpt><trkpt lat="42.21486830309824" lon="12.283681659147227"><ele>242.0</ele><time>2026-04-03T14:52:13.999Z</time></trkpt><trkpt lat="42.214848787912636" lon="12.283384676987021"><ele>242.33333333333334</ele><time>2026-04-03T14:52:14.999Z</time></trkpt><trkpt lat="42.214838747792086" lon="12.283088255268856"><ele>242.66666666666669</ele><time>2026-04-03T14:52:15.999Z</time></trkpt><trkpt lat="42.21481703329623" lon="12.282806280064403"><ele>243.0</ele><time>2026-04-03T14:52:16.999Z</time></trkpt><trkpt lat="42.214817739506245" lon="12.282531917427375"><ele>243.0</ele><time>2026-04-03T14:52:18Z</time></trkpt><trkpt lat="42.21480326414523" lon="12.282273546215547"><ele>243.0</ele><time>2026-04-03T14:52:19Z</time></trkpt><trkpt lat="42.21479165505155" lon="12.28204278540527"><ele>243.0</ele><time>2026-04-03T14:52:20Z</time></trkpt><trkpt lat="42.21478373050818" lon="12.28181076783598"><ele>242.66666666666669</ele><time>2026-04-03T14:52:21Z</time></trkpt><trkpt lat="42.214782730539156" lon="12.281586999093772"><ele>242.33333333333334</ele><time>2026-04-03T14:52:22Z</time></trkpt><trkpt lat="42.21479080275361" lon="12.281359118381072"><ele>242.0</ele><time>2026-04-03T14:52:23Z</time></trkpt><trkpt lat="42.21480521790527" lon="12.281132219938591"><ele>242.0</ele><time>2026-04-03T14:52:24Z</time></trkpt><trkpt lat="42.21481254172186" lon="12.280893731721964"><ele>242.0</ele><time>2026-04-03T14:52:25Z</time></trkpt><trkpt lat="42.214847634569274" lon="12.280658655747885"><ele>242.0</ele><time>2026-04-03T14:52:26Z</time></trkpt><trkpt lat="42.214880874505624" lon="12.28042231791341"><ele>242.0</ele><time>2026-04-03T14:52:27Z</time></trkpt><trkpt lat="42.21492533095676" lon="12.28018915401773"><ele>242.0</ele><time>2026-04-03T14:52:28Z</time></trkpt><trkpt lat="42.214979659775715" lon="12.279968225893292"><ele>242.0</ele><time>2026-04-03T14:52:29Z</time></trkpt><trkpt lat="42.21503340384434" lon="12.279755855918113"><ele>242.0</ele><time>2026-04-03T14:52:30Z</time></trkpt><trkpt lat="42.215094147999054" lon="12.279549009311802"><ele>242.0</ele><time>2026-04-03T14:52:31Z</time></trkpt><trkpt lat="42.215159100663165" lon="12.27935205067059"><ele>242.0</ele><time>2026-04-03T14:52:32Z</time></trkpt><trkpt lat="42.215236072602124" lon="12.279143422517553"><ele>242.0</ele><time>2026-04-03T14:52:33Z</time></trkpt><trkpt lat="42.215322884766444" lon="12.278928491833128"><ele>242.0</ele><time>2026-04-03T14:52:34Z</time></trkpt><trkpt lat="42.21541985475047" lon="12.278716813948831"><ele>242.0</ele><time>2026-04-03T14:52:35Z</time></trkpt><trkpt lat="42.21551707570476" lon="12.278527624738716"><ele>242.0</ele><time>2026-04-03T14:52:36Z</time></trkpt><trkpt lat="42.21562360054108" lon="12.278340719324936"><ele>242.0</ele><time>2026-04-03T14:52:37Z</time></trkpt><trkpt lat="42.215729579143414" lon="12.278170686764607"><ele>242.0</ele><time>2026-04-03T14:52:38Z</time></trkpt><trkpt lat="42.215843941577646" lon="12.277991205067476"><ele>242.0</ele><time>2026-04-03T14:52:39Z</time></trkpt><trkpt lat="42.215965069249734" lon="12.277818043063302"><ele>242.0</ele><time>2026-04-03T14:52:40Z</time></trkpt><trkpt lat="42.216093115832244" lon="12.277645727890786"><ele>242.0</ele><time>2026-04-03T14:52:41Z</time></trkpt><trkpt lat="42.216227656249906" lon="12.277494732200088"><ele>242.0</ele><time>2026-04-03T14:52:42Z</time></trkpt><trkpt lat="42.21637117031385" lon="12.277339192665613"><ele>242.0</ele><time>2026-04-03T14:52:43Z</time></trkpt><trkpt lat="42.21651465848813" lon="12.2771940377116"><ele>242.0</ele><time>2026-04-03T14:52:44Z</time></trkpt><trkpt lat="42.21665910871652" lon="12.27705411768351"><ele>242.0</ele><time>2026-04-03T14:52:45Z</time></trkpt><trkpt lat="42.21680183258887" lon="12.276915981925736"><ele>242.0</ele><time>2026-04-03T14:52:46Z</time></trkpt><trkpt lat="42.21694224118862" lon="12.276783074807861"><ele>242.0</ele><time>2026-04-03T14:52:47Z</time></trkpt><trkpt lat="42.21708218994536" lon="12.27665427664118"><ele>242.0</ele><time>2026-04-03T14:52:48Z</time></trkpt><trkpt lat="42.21722462524833" lon="12.276520219127116"><ele>242.0</ele><time>2026-04-03T14:52:49Z</time></trkpt><trkpt lat="42.21736399728433" lon="12.276384158591314"><ele>242.0</ele><time>2026-04-03T14:52:50Z</time></trkpt><trkpt lat="42.21750606809811" lon="12.276247105908558"><ele>242.33333333333334</ele><time>2026-04-03T14:52:51Z</time></trkpt><trkpt lat="42.21764893351823" lon="12.276114287768511"><ele>242.66666666666669</ele><time>2026-04-03T14:52:52Z</time></trkpt><trkpt lat="42.21779500530672" lon="12.27597834921694"><ele>243.0</ele><time>2026-04-03T14:52:53Z</time></trkpt><trkpt lat="42.21794419243329" lon="12.275846496525812"><ele>243.0</ele><time>2026-04-03T14:52:54Z</time></trkpt><trkpt lat="42.2180926802118" lon="12.27571284577701"><ele>243.0</ele><time>2026-04-03T14:52:55Z</time></trkpt><trkpt lat="42.21823673928805" lon="12.27558632478329"><ele>243.0</ele><time>2026-04-03T14:52:56Z</time></trkpt><trkpt lat="42.21838010618464" lon="12.275455043983424"><ele>243.66666666666669</ele><time>2026-04-03T14:52:57Z</time></trkpt><trkpt lat="42.21852710387781" lon="12.275329649527212"><ele>244.33333333333334</ele><time>2026-04-03T14:52:58Z</time></trkpt><trkpt lat="42.2186748758705" lon="12.275195760907256"><ele>245.0</ele><time>2026-04-03T14:52:59Z</time></trkpt><trkpt lat="42.218824949935744" lon="12.275063374849582"><ele>245.0</ele><time>2026-04-03T14:53:00Z</time></trkpt><trkpt lat="42.2189694539673" lon="12.27492758977801"><ele>245.0</ele><time>2026-04-03T14:53:01Z</time></trkpt><trkpt lat="42.21912848142845" lon="12.274777232545953"><ele>245.0</ele><time>2026-04-03T14:53:02Z</time></trkpt><trkpt lat="42.21929907779139" lon="12.274608854170236"><ele>245.0</ele><time>2026-04-03T14:53:03Z</time></trkpt><trkpt lat="42.21948369907896" lon="12.274436036255386"><ele>245.0</ele><time>2026-04-03T14:53:04Z</time></trkpt><trkpt lat="42.21969064656446" lon="12.274275168010721"><ele>245.0</ele><time>2026-04-03T14:53:05Z</time></trkpt><trkpt lat="42.21988604984076" lon="12.27407942079001"><ele>245.0</ele><time>2026-04-03T14:53:06Z</time></trkpt><trkpt lat="42.220100275902965" lon="12.273895222312122"><ele>244.0</ele><time>2026-04-03T14:53:07Z</time></trkpt><trkpt lat="42.22032268042585" lon="12.273709865823317"><ele>243.0</ele><time>2026-04-03T14:53:08Z</time></trkpt><trkpt lat="42.22053981436348" lon="12.273519740429318"><ele>244.0</ele><time>2026-04-03T14:53:09Z</time></trkpt><trkpt lat="42.22075451572175" lon="12.273328106990393"><ele>245.0</ele><time>2026-04-03T14:53:10Z</time></trkpt><trkpt lat="42.22096590030174" lon="12.273138097202732"><ele>245.0</ele><time>2026-04-03T14:53:11Z</time></trkpt><trkpt lat="42.22117622511512" lon="12.27294609557191"><ele>245.0</ele><time>2026-04-03T14:53:12Z</time></trkpt><trkpt lat="42.22138219678695" lon="12.272772138945781"><ele>245.5</ele><time>2026-04-03T14:53:13Z</time></trkpt><trkpt lat="42.221588679974886" lon="12.272584919167171"><ele>246.0</ele><time>2026-04-03T14:53:14Z</time></trkpt><trkpt lat="42.22178790913992" lon="12.27241248518206"><ele>246.5</ele><time>2026-04-03T14:53:15Z</time></trkpt><trkpt lat="42.22199239465246" lon="12.272225439893923"><ele>247.0</ele><time>2026-04-03T14:53:16Z</time></trkpt><trkpt lat="42.22219121182717" lon="12.27204577961801"><ele>247.0</ele><time>2026-04-03T14:53:17Z</time></trkpt><trkpt lat="42.22239503193239" lon="12.27187070283553"><ele>247.0</ele><time>2026-04-03T14:53:18Z</time></trkpt><trkpt lat="42.22259576403629" lon="12.271689298899485"><ele>247.0</ele><time>2026-04-03T14:53:19Z</time></trkpt><trkpt lat="42.2227958581899" lon="12.271500586051703"><ele>247.0</ele><time>2026-04-03T14:53:20Z</time></trkpt><trkpt lat="42.222997478089574" lon="12.271310600644684"><ele>248.0</ele><time>2026-04-03T14:53:21Z</time></trkpt><trkpt lat="42.22320655070952" lon="12.271141489234385"><ele>249.0</ele><time>2026-04-03T14:53:22Z</time></trkpt><trkpt lat="42.223432920830604" lon="12.270947306221517"><ele>249.0</ele><time>2026-04-03T14:53:23Z</time></trkpt><trkpt lat="42.223660782915786" lon="12.270743472573091"><ele>249.0</ele><time>2026-04-03T14:53:24Z</time></trkpt><trkpt lat="42.22389042370924" lon="12.270528372641133"><ele>249.0</ele><time>2026-04-03T14:53:25Z</time></trkpt><trkpt lat="42.22412538953235" lon="12.270313145154343"><ele>249.0</ele><time>2026-04-03T14:53:26Z</time></trkpt><trkpt lat="42.224361929036476" lon="12.270105329969967"><ele>249.0</ele><time>2026-04-03T14:53:27Z</time></trkpt><trkpt lat="42.224579972026106" lon="12.269904937214717"><ele>249.0</ele><time>2026-04-03T14:53:28Z</time></trkpt><trkpt lat="42.22479277517873" lon="12.269708837446409"><ele>249.5</ele><time>2026-04-03T14:53:29Z</time></trkpt><trkpt lat="42.2249960060079" lon="12.269525510161236"><ele>250.0</ele><time>2026-04-03T14:53:30Z</time></trkpt><trkpt lat="42.22518395642747" lon="12.269352238684931"><ele>250.0</ele><time>2026-04-03T14:53:31Z</time></trkpt><trkpt lat="42.22537692641255" lon="12.269194951638726"><ele>250.0</ele><time>2026-04-03T14:53:32Z</time></trkpt><trkpt lat="42.225561949993754" lon="12.269028882871872"><ele>250.0</ele><time>2026-04-03T14:53:33Z</time></trkpt><trkpt lat="42.225742696176965" lon="12.26886327453007"><ele>250.0</ele><time>2026-04-03T14:53:34Z</time></trkpt><trkpt lat="42.22592237146605" lon="12.268684920103295"><ele>250.0</ele><time>2026-04-03T14:53:35Z</time></trkpt><trkpt lat="42.22611740125924" lon="12.26850924596557"><ele>250.0</ele><time>2026-04-03T14:53:36Z</time></trkpt><trkpt lat="42.226315736380805" lon="12.268335456334443"><ele>250.0</ele><time>2026-04-03T14:53:37Z</time></trkpt><trkpt lat="42.22651201218724" lon="12.268158602799094"><ele>251.0</ele><time>2026-04-03T14:53:38Z</time></trkpt><trkpt lat="42.226706398077695" lon="12.267979678249576"><ele>252.0</ele><time>2026-04-03T14:53:39Z</time></trkpt><trkpt lat="42.22688618326327" lon="12.26781454685754"><ele>252.0</ele><time>2026-04-03T14:53:40Z</time></trkpt><trkpt lat="42.227057236874714" lon="12.267655938220821"><ele>252.0</ele><time>2026-04-03T14:53:41Z</time></trkpt><trkpt lat="42.22722334422988" lon="12.26750898666084"><ele>252.0</ele><time>2026-04-03T14:53:42Z</time></trkpt><trkpt lat="42.22739224206867" lon="12.267355603711456"><ele>253.0</ele><time>2026-04-03T14:53:42.999Z</time></trkpt><trkpt lat="42.22755798291243" lon="12.267214331792704"><ele>254.0</ele><time>2026-04-03T14:53:43.999Z</time></trkpt><trkpt lat="42.227716039941185" lon="12.267069647628295"><ele>255.0</ele><time>2026-04-03T14:53:44.999Z</time></trkpt><trkpt lat="42.22787075009672" lon="12.266910860573516"><ele>255.0</ele><time>2026-04-03T14:53:45.999Z</time></trkpt><trkpt lat="42.228002903590756" lon="12.26671921729361"><ele>255.0</ele><time>2026-04-03T14:53:46.999Z</time></trkpt><trkpt lat="42.228114666606295" lon="12.266488877887092"><ele>255.0</ele><time>2026-04-03T14:53:47.999Z</time></trkpt><trkpt lat="42.22820435657445" lon="12.266247818306052"><ele>257.6666666666667</ele><time>2026-04-03T14:53:48.999Z</time></trkpt><trkpt lat="42.228289295015315" lon="12.266010946962261"><ele>260.33333333333337</ele><time>2026-04-03T14:53:49.999Z</time></trkpt><trkpt lat="42.228365897175244" lon="12.26579179295322"><ele>263.0</ele><time>2026-04-03T14:53:50.999Z</time></trkpt><trkpt lat="42.22843368617095" lon="12.265596922425024"><ele>263.0</ele><time>2026-04-03T14:53:51.999Z</time></trkpt><trkpt lat="42.228497318132696" lon="12.265424902593386"><ele>263.0</ele><time>2026-04-03T14:53:52.999Z</time></trkpt><trkpt lat="42.22856207361871" lon="12.2652612207729"><ele>263.0</ele><time>2026-04-03T14:53:53.999Z</time></trkpt><trkpt lat="42.22861575082788" lon="12.265097975731898"><ele>263.0</ele><time>2026-04-03T14:53:54.999Z</time></trkpt><trkpt lat="42.228679524001514" lon="12.26492872688007"><ele>263.0</ele><time>2026-04-03T14:53:55.999Z</time></trkpt><trkpt lat="42.22874070181054" lon="12.264757542803634"><ele>263.0</ele><time>2026-04-03T14:53:56.999Z</time></trkpt><trkpt lat="42.228799274390454" lon="12.2645869580503"><ele>263.0</ele><time>2026-04-03T14:53:57.999Z</time></trkpt><trkpt lat="42.22886065713491" lon="12.264403775592058"><ele>263.0</ele><time>2026-04-03T14:53:58.999Z</time></trkpt><trkpt lat="42.22892149744823" lon="12.264216360577523"><ele>264.75</ele><time>2026-04-03T14:53:59.999Z</time></trkpt><trkpt lat="42.228987689774726" lon="12.264031613379688"><ele>266.5</ele><time>2026-04-03T14:54:00.999Z</time></trkpt><trkpt lat="42.22904696436894" lon="12.263858958390438"><ele>268.25</ele><time>2026-04-03T14:54:01.999Z</time></trkpt><trkpt lat="42.22909913376824" lon="12.263697796346438"><ele>270.0</ele><time>2026-04-03T14:54:02.999Z</time></trkpt><trkpt lat="42.229149305199314" lon="12.263536227865867"><ele>270.0</ele><time>2026-04-03T14:54:03.999Z</time></trkpt><trkpt lat="42.2291987086158" lon="12.263369467561775"><ele>270.0</ele><time>2026-04-03T14:54:04.999Z</time></trkpt><trkpt lat="42.22925085921209" lon="12.263210732912462"><ele>270.0</ele><time>2026-04-03T14:54:05.999Z</time></trkpt><trkpt lat="42.229301739824315" lon="12.263059950994963"><ele>270.0</ele><time>2026-04-03T14:54:06.999Z</time></trkpt><trkpt lat="42.22934930692816" lon="12.26291291693141"><ele>270.0</ele><time>2026-04-03T14:54:07.999Z</time></trkpt><trkpt lat="42.22940010440259" lon="12.262760790252859"><ele>270.0</ele><time>2026-04-03T14:54:08.999Z</time></trkpt><trkpt lat="42.22944834781607" lon="12.26260506518005"><ele>270.0</ele><time>2026-04-03T14:54:09.999Z</time></trkpt><trkpt lat="42.22949897807755" lon="12.262449102241582"><ele>270.0</ele><time>2026-04-03T14:54:10.999Z</time></trkpt><trkpt lat="42.22955160152921" lon="12.262288072526847"><ele>270.5</ele><time>2026-04-03T14:54:11.999Z</time></trkpt><trkpt lat="42.229606043003976" lon="12.26211753014744"><ele>271.0</ele><time>2026-04-03T14:54:12.999Z</time></trkpt><trkpt lat="42.229665919445374" lon="12.261941969720155"><ele>271.5</ele><time>2026-04-03T14:54:13.999Z</time></trkpt><trkpt lat="42.22972661353946" lon="12.261757383870501"><ele>272.0</ele><time>2026-04-03T14:54:14.999Z</time></trkpt><trkpt lat="42.229784862384356" lon="12.261544699508057"><ele>272.0</ele><time>2026-04-03T14:54:15.999Z</time></trkpt><trkpt lat="42.229865694394704" lon="12.26131377108683"><ele>272.0</ele><time>2026-04-03T14:54:16.999Z</time></trkpt><trkpt lat="42.229945521984554" lon="12.261066399315785"><ele>272.0</ele><time>2026-04-03T14:54:17.999Z</time></trkpt><trkpt lat="42.23002034423589" lon="12.260834381432346"><ele>272.0</ele><time>2026-04-03T14:54:18.999Z</time></trkpt><trkpt lat="42.23008122872959" lon="12.26063356623811"><ele>272.0</ele><time>2026-04-03T14:54:19.999Z</time></trkpt><trkpt lat="42.2301445443048" lon="12.260462556521599"><ele>272.0</ele><time>2026-04-03T14:54:20.999Z</time></trkpt><trkpt lat="42.230194985429755" lon="12.260326915400876"><ele>272.0</ele><time>2026-04-03T14:54:21.999Z</time></trkpt><trkpt lat="42.23024092432596" lon="12.260191098377968"><ele>272.0</ele><time>2026-04-03T14:54:22.999Z</time></trkpt><trkpt lat="42.2302870238037" lon="12.260043235937783"><ele>272.0</ele><time>2026-04-03T14:54:24Z</time></trkpt><trkpt lat="42.230337010515164" lon="12.259888343180277"><ele>272.0</ele><time>2026-04-03T14:54:25Z</time></trkpt><trkpt lat="42.23039638920541" lon="12.259727686486066"><ele>272.0</ele><time>2026-04-03T14:54:26Z</time></trkpt><trkpt lat="42.230451505305815" lon="12.259581904063204"><ele>270.6666666666667</ele><time>2026-04-03T14:54:27Z</time></trkpt><trkpt lat="42.23049911284226" lon="12.259429127000955"><ele>269.3333333333333</ele><time>2026-04-03T14:54:28Z</time></trkpt><trkpt lat="42.2305621818188" lon="12.259234277315661"><ele>268.0</ele><time>2026-04-03T14:54:29Z</time></trkpt><trkpt lat="42.23063157488656" lon="12.259017699535312"><ele>268.3333333333333</ele><time>2026-04-03T14:54:30Z</time></trkpt><trkpt lat="42.23070133153452" lon="12.258780338285128"><ele>268.6666666666667</ele><time>2026-04-03T14:54:31Z</time></trkpt><trkpt lat="42.230781305637706" lon="12.258531272931808"><ele>269.0</ele><time>2026-04-03T14:54:32Z</time></trkpt><trkpt lat="42.23085778689655" lon="12.258285356020217"><ele>270.0</ele><time>2026-04-03T14:54:33Z</time></trkpt><trkpt lat="42.23091895198339" lon="12.258052372528988"><ele>271.0</ele><time>2026-04-03T14:54:34Z</time></trkpt><trkpt lat="42.23096344931915" lon="12.25782077801238"><ele>272.0</ele><time>2026-04-03T14:54:35Z</time></trkpt><trkpt lat="42.23099925442532" lon="12.257578259389765"><ele>272.0</ele><time>2026-04-03T14:54:36Z</time></trkpt><trkpt lat="42.23101577716966" lon="12.257328129264765"><ele>272.0</ele><time>2026-04-03T14:54:37Z</time></trkpt><trkpt lat="42.23103682988686" lon="12.257100115736966"><ele>272.0</ele><time>2026-04-03T14:54:38Z</time></trkpt><trkpt lat="42.23104096403261" lon="12.2568589229309"><ele>272.6666666666667</ele><time>2026-04-03T14:54:39Z</time></trkpt><trkpt lat="42.231043282992225" lon="12.256598186959334"><ele>273.3333333333333</ele><time>2026-04-03T14:54:40Z</time></trkpt><trkpt lat="42.23104431526165" lon="12.25631584131899"><ele>274.0</ele><time>2026-04-03T14:54:41Z</time></trkpt><trkpt lat="42.231045425780756" lon="12.256012092492098"><ele>274.0</ele><time>2026-04-03T14:54:42Z</time></trkpt><trkpt lat="42.23104658026689" lon="12.255696317841494"><ele>274.0</ele><time>2026-04-03T14:54:43Z</time></trkpt><trkpt lat="42.23104964083857" lon="12.255387193944935"><ele>274.3333333333333</ele><time>2026-04-03T14:54:44Z</time></trkpt><trkpt lat="42.23105287136073" lon="12.255102475300756"><ele>274.6666666666667</ele><time>2026-04-03T14:54:45Z</time></trkpt><trkpt lat="42.23105637270584" lon="12.254834968778008"><ele>275.0</ele><time>2026-04-03T14:54:46Z</time></trkpt><trkpt lat="42.23104505507707" lon="12.254580956235158"><ele>275.33333333333337</ele><time>2026-04-03T14:54:47Z</time></trkpt><trkpt lat="42.23105378788512" lon="12.254338626045614"><ele>275.6666666666667</ele><time>2026-04-03T14:54:48Z</time></trkpt><trkpt lat="42.23106589866716" lon="12.254094012026263"><ele>276.0</ele><time>2026-04-03T14:54:49Z</time></trkpt><trkpt lat="42.23108555925626" lon="12.253849480540733"><ele>276.0</ele><time>2026-04-03T14:54:50Z</time></trkpt><trkpt lat="42.2311257137447" lon="12.253619618962597"><ele>276.0</ele><time>2026-04-03T14:54:51Z</time></trkpt><trkpt lat="42.23113742702204" lon="12.253405373624544"><ele>276.0</ele><time>2026-04-03T14:54:52Z</time></trkpt><trkpt lat="42.2311647620592" lon="12.253206110697331"><ele>276.0</ele><time>2026-04-03T14:54:53Z</time></trkpt><trkpt lat="42.231193821486436" lon="12.253018537106286"><ele>276.0</ele><time>2026-04-03T14:54:54Z</time></trkpt><trkpt lat="42.231224945092286" lon="12.252842413532825"><ele>276.0</ele><time>2026-04-03T14:54:55Z</time></trkpt><trkpt lat="42.231266653718194" lon="12.25264687242186"><ele>276.0</ele><time>2026-04-03T14:54:56Z</time></trkpt><trkpt lat="42.23131984107591" lon="12.252434384764701"><ele>275.6666666666667</ele><time>2026-04-03T14:54:57Z</time></trkpt><trkpt lat="42.23139824200425" lon="12.25223167594107"><ele>275.33333333333337</ele><time>2026-04-03T14:54:58Z</time></trkpt><trkpt lat="42.23146588817274" lon="12.252016421671474"><ele>275.0</ele><time>2026-04-03T14:54:59Z</time></trkpt><trkpt lat="42.231536818174064" lon="12.25179881301632"><ele>275.0</ele><time>2026-04-03T14:55:00Z</time></trkpt><trkpt lat="42.231608516077046" lon="12.251576289754215"><ele>275.0</ele><time>2026-04-03T14:55:01Z</time></trkpt><trkpt lat="42.231663452745615" lon="12.251350198104719"><ele>275.0</ele><time>2026-04-03T14:55:02Z</time></trkpt><trkpt lat="42.231729178319775" lon="12.25114416362171"><ele>275.0</ele><time>2026-04-03T14:55:03Z</time></trkpt><trkpt lat="42.23179339187648" lon="12.250942303857641"><ele>275.0</ele><time>2026-04-03T14:55:04Z</time></trkpt><trkpt lat="42.23186096668301" lon="12.250740979758985"><ele>275.0</ele><time>2026-04-03T14:55:05Z</time></trkpt><trkpt lat="42.23193026388723" lon="12.250534157524546"><ele>275.0</ele><time>2026-04-03T14:55:06Z</time></trkpt><trkpt lat="42.231999416476256" lon="12.250316663906126"><ele>275.0</ele><time>2026-04-03T14:55:07Z</time></trkpt><trkpt lat="42.23207292439235" lon="12.250089137979733"><ele>275.0</ele><time>2026-04-03T14:55:08Z</time></trkpt><trkpt lat="42.232150913858995" lon="12.249858138854602"><ele>274.6666666666667</ele><time>2026-04-03T14:55:09Z</time></trkpt><trkpt lat="42.232221855546406" lon="12.249632695323344"><ele>274.3333333333333</ele><time>2026-04-03T14:55:10Z</time></trkpt><trkpt lat="42.232296084153475" lon="12.249408376927107"><ele>274.0</ele><time>2026-04-03T14:55:11Z</time></trkpt><trkpt lat="42.23237164629516" lon="12.249178589109677"><ele>274.0</ele><time>2026-04-03T14:55:12Z</time></trkpt><trkpt lat="42.23245931561141" lon="12.248965439082205"><ele>274.0</ele><time>2026-04-03T14:55:13Z</time></trkpt><trkpt lat="42.23251528292956" lon="12.248742575022224"><ele>274.0</ele><time>2026-04-03T14:55:14Z</time></trkpt><trkpt lat="42.23257584654369" lon="12.248535468081505"><ele>273.66666666666663</ele><time>2026-04-03T14:55:15Z</time></trkpt><trkpt lat="42.232639820618786" lon="12.248322623582943"><ele>273.3333333333333</ele><time>2026-04-03T14:55:16Z</time></trkpt><trkpt lat="42.23265547158278" lon="12.248083060886886"><ele>273.0</ele><time>2026-04-03T14:55:17Z</time></trkpt><trkpt lat="42.232677244700334" lon="12.247856699364513"><ele>273.0</ele><time>2026-04-03T14:55:18Z</time></trkpt><trkpt lat="42.23269436672052" lon="12.247627857409286"><ele>273.0</ele><time>2026-04-03T14:55:19Z</time></trkpt><trkpt lat="42.23272919592816" lon="12.247374848733552"><ele>273.0</ele><time>2026-04-03T14:55:20Z</time></trkpt><trkpt lat="42.23275123857793" lon="12.247091750938761"><ele>274.5</ele><time>2026-04-03T14:55:21Z</time></trkpt><trkpt lat="42.23277368016928" lon="12.246789750950256"><ele>276.0</ele><time>2026-04-03T14:55:22Z</time></trkpt><trkpt lat="42.23279789157141" lon="12.246470173324276"><ele>276.5</ele><time>2026-04-03T14:55:23Z</time></trkpt><trkpt lat="42.2328232255662" lon="12.246141845399249"><ele>277.0</ele><time>2026-04-03T14:55:24Z</time></trkpt><trkpt lat="42.2328451214664" lon="12.245844777255906"><ele>275.66666666666663</ele><time>2026-04-03T14:55:25Z</time></trkpt><trkpt lat="42.2328640402806" lon="12.245567884541234"><ele>274.3333333333333</ele><time>2026-04-03T14:55:26Z</time></trkpt><trkpt lat="42.23288040988958" lon="12.24532830150825"><ele>273.0</ele><time>2026-04-03T14:55:27Z</time></trkpt><trkpt lat="42.23289497040713" lon="12.245099976798102"><ele>273.0</ele><time>2026-04-03T14:55:28Z</time></trkpt><trkpt lat="42.232908114057324" lon="12.244885639456598"><ele>273.0</ele><time>2026-04-03T14:55:29Z</time></trkpt><trkpt lat="42.23292202427008" lon="12.244684998157181"><ele>273.0</ele><time>2026-04-03T14:55:30Z</time></trkpt><trkpt lat="42.23293813134949" lon="12.244478017460334"><ele>272.25</ele><time>2026-04-03T14:55:31Z</time></trkpt><trkpt lat="42.232954340387565" lon="12.24428953667031"><ele>271.5</ele><time>2026-04-03T14:55:32Z</time></trkpt><trkpt lat="42.232971224905214" lon="12.244093201297057"><ele>270.75</ele><time>2026-04-03T14:55:33Z</time></trkpt><trkpt lat="42.232990670138506" lon="12.243890169568493"><ele>270.0</ele><time>2026-04-03T14:55:34Z</time></trkpt><trkpt lat="42.23301358621942" lon="12.243687292308215"><ele>269.0</ele><time>2026-04-03T14:55:35Z</time></trkpt><trkpt lat="42.23304125545505" lon="12.243484317589212"><ele>268.0</ele><time>2026-04-03T14:55:36Z</time></trkpt><trkpt lat="42.2330744326185" lon="12.243262963121053"><ele>267.0</ele><time>2026-04-03T14:55:37Z</time></trkpt><trkpt lat="42.233116097096804" lon="12.243033386854393"><ele>267.3333333333333</ele><time>2026-04-03T14:55:38Z</time></trkpt><trkpt lat="42.23316334631329" lon="12.242798884275462"><ele>267.66666666666663</ele><time>2026-04-03T14:55:39Z</time></trkpt><trkpt lat="42.23321043862345" lon="12.242563569126728"><ele>268.0</ele><time>2026-04-03T14:55:40Z</time></trkpt><trkpt lat="42.233253932594245" lon="12.242334330928998"><ele>268.0</ele><time>2026-04-03T14:55:41Z</time></trkpt><trkpt lat="42.23327976199735" lon="12.242103079181375"><ele>268.0</ele><time>2026-04-03T14:55:42Z</time></trkpt><trkpt lat="42.23333709631145" lon="12.241879672405643"><ele>268.0</ele><time>2026-04-03T14:55:43Z</time></trkpt><trkpt lat="42.23337598743531" lon="12.241658470652105"><ele>267.3333333333333</ele><time>2026-04-03T14:55:44Z</time></trkpt><trkpt lat="42.23339362294084" lon="12.241434881935161"><ele>266.6666666666667</ele><time>2026-04-03T14:55:45Z</time></trkpt><trkpt lat="42.233420387251066" lon="12.241215249348683"><ele>266.0</ele><time>2026-04-03T14:55:46Z</time></trkpt><trkpt lat="42.23343310971749" lon="12.240991131781218"><ele>266.0</ele><time>2026-04-03T14:55:47Z</time></trkpt><trkpt lat="42.233448915901064" lon="12.240763634234964"><ele>266.0</ele><time>2026-04-03T14:55:48Z</time></trkpt><trkpt lat="42.233434097825835" lon="12.240535982194665"><ele>266.0</ele><time>2026-04-03T14:55:49Z</time></trkpt><trkpt lat="42.233408287267714" lon="12.24031139933818"><ele>266.0</ele><time>2026-04-03T14:55:49.999Z</time></trkpt><trkpt lat="42.23336875730828" lon="12.240100782413766"><ele>266.0</ele><time>2026-04-03T14:55:50.999Z</time></trkpt><trkpt lat="42.23333706835855" lon="12.239882405874706"><ele>266.0</ele><time>2026-04-03T14:55:51.999Z</time></trkpt><trkpt lat="42.233306795360136" lon="12.23967469626487"><ele>266.0</ele><time>2026-04-03T14:55:52.999Z</time></trkpt><trkpt lat="42.23327245452446" lon="12.239470797001028"><ele>266.0</ele><time>2026-04-03T14:55:53.999Z</time></trkpt><trkpt lat="42.23324123748861" lon="12.239271117592201"><ele>266.0</ele><time>2026-04-03T14:55:54.999Z</time></trkpt><trkpt lat="42.23322760739805" lon="12.239075517248882"><ele>265.75</ele><time>2026-04-03T14:55:55.999Z</time></trkpt><trkpt lat="42.23318950847577" lon="12.238879826860668"><ele>265.5</ele><time>2026-04-03T14:55:56.999Z</time></trkpt><trkpt lat="42.233176157641246" lon="12.238681032132797"><ele>265.25</ele><time>2026-04-03T14:55:57.999Z</time></trkpt><trkpt lat="42.233176974484884" lon="12.238480287751754"><ele>265.0</ele><time>2026-04-03T14:55:58.999Z</time></trkpt><trkpt lat="42.23319675203467" lon="12.238256503322358"><ele>266.3333333333333</ele><time>2026-04-03T14:55:59.999Z</time></trkpt><trkpt lat="42.233237937508044" lon="12.238018175221134"><ele>267.6666666666667</ele><time>2026-04-03T14:56:00.999Z</time></trkpt><trkpt lat="42.23329591370682" lon="12.23777842642578"><ele>269.0</ele><time>2026-04-03T14:56:01.999Z</time></trkpt><trkpt lat="42.23336281788028" lon="12.237537650952161"><ele>269.0</ele><time>2026-04-03T14:56:02.999Z</time></trkpt><trkpt lat="42.23343068727572" lon="12.237307209729094"><ele>269.0</ele><time>2026-04-03T14:56:03.999Z</time></trkpt><trkpt lat="42.23349827620735" lon="12.237098987101815"><ele>269.0</ele><time>2026-04-03T14:56:04.999Z</time></trkpt><trkpt lat="42.23357103942169" lon="12.23692409767596"><ele>270.25</ele><time>2026-04-03T14:56:05.999Z</time></trkpt><trkpt lat="42.23364290948559" lon="12.236765995959122"><ele>271.5</ele><time>2026-04-03T14:56:06.999Z</time></trkpt><trkpt lat="42.23370906292054" lon="12.236615308230748"><ele>272.75</ele><time>2026-04-03T14:56:07.999Z</time></trkpt><trkpt lat="42.23377564422658" lon="12.236457364291418"><ele>274.0</ele><time>2026-04-03T14:56:08.999Z</time></trkpt><trkpt lat="42.233843120838884" lon="12.236298339323232"><ele>273.75</ele><time>2026-04-03T14:56:09.999Z</time></trkpt><trkpt lat="42.233909891225586" lon="12.236139533700628"><ele>273.5</ele><time>2026-04-03T14:56:10.999Z</time></trkpt><trkpt lat="42.233978678625895" lon="12.235981725515419"><ele>273.25</ele><time>2026-04-03T14:56:11.999Z</time></trkpt><trkpt lat="42.23404720811082" lon="12.235827896166077"><ele>273.0</ele><time>2026-04-03T14:56:12.999Z</time></trkpt><trkpt lat="42.234114455353186" lon="12.235672244870212"><ele>273.75</ele><time>2026-04-03T14:56:13.999Z</time></trkpt><trkpt lat="42.23418362890272" lon="12.235511117211743"><ele>274.5</ele><time>2026-04-03T14:56:14.999Z</time></trkpt><trkpt lat="42.234256370479386" lon="12.235341316272637"><ele>275.25</ele><time>2026-04-03T14:56:15.999Z</time></trkpt><trkpt lat="42.23432949619879" lon="12.235168622767272"><ele>276.0</ele><time>2026-04-03T14:56:16.999Z</time></trkpt><trkpt lat="42.234404888971675" lon="12.234998573132332"><ele>276.0</ele><time>2026-04-03T14:56:17.999Z</time></trkpt><trkpt lat="42.23447776705142" lon="12.234829930821038"><ele>276.0</ele><time>2026-04-03T14:56:18.999Z</time></trkpt><trkpt lat="42.23455124412625" lon="12.234656403132943"><ele>276.0</ele><time>2026-04-03T14:56:19.999Z</time></trkpt><trkpt lat="42.23463003905964" lon="12.234483005295235"><ele>276.0</ele><time>2026-04-03T14:56:20.999Z</time></trkpt><trkpt lat="42.23470681427307" lon="12.234310015456057"><ele>276.0</ele><time>2026-04-03T14:56:21.999Z</time></trkpt><trkpt lat="42.234780175095544" lon="12.234139962410298"><ele>276.0</ele><time>2026-04-03T14:56:22.999Z</time></trkpt><trkpt lat="42.234854297542505" lon="12.23396855856266"><ele>276.0</ele><time>2026-04-03T14:56:23.999Z</time></trkpt><trkpt lat="42.23492570850491" lon="12.233807950971393"><ele>276.0</ele><time>2026-04-03T14:56:24.999Z</time></trkpt><trkpt lat="42.23499490685639" lon="12.23365228652015"><ele>276.0</ele><time>2026-04-03T14:56:25.999Z</time></trkpt><trkpt lat="42.23506439359418" lon="12.233498199899252"><ele>276.0</ele><time>2026-04-03T14:56:26.999Z</time></trkpt><trkpt lat="42.23514429227126" lon="12.233352910115677"><ele>276.0</ele><time>2026-04-03T14:56:27.999Z</time></trkpt><trkpt lat="42.23524369789484" lon="12.233216361426017"><ele>276.0</ele><time>2026-04-03T14:56:29Z</time></trkpt><trkpt lat="42.23536135302764" lon="12.233091563201125"><ele>276.3333333333333</ele><time>2026-04-03T14:56:30Z</time></trkpt><trkpt lat="42.235499170597976" lon="12.232970580100746"><ele>276.66666666666663</ele><time>2026-04-03T14:56:31Z</time></trkpt><trkpt lat="42.235647287369716" lon="12.232842894549218"><ele>277.0</ele><time>2026-04-03T14:56:32Z</time></trkpt><trkpt lat="42.2357978041829" lon="12.232719667869622"><ele>278.0</ele><time>2026-04-03T14:56:33Z</time></trkpt><trkpt lat="42.23594333565486" lon="12.232614344849425"><ele>279.0</ele><time>2026-04-03T14:56:34Z</time></trkpt><trkpt lat="42.236086832170116" lon="12.232520566090482"><ele>280.0</ele><time>2026-04-03T14:56:35Z</time></trkpt><trkpt lat="42.23622249606864" lon="12.232441852130826"><ele>280.0</ele><time>2026-04-03T14:56:36Z</time></trkpt><trkpt lat="42.2363592392134" lon="12.232376697150318"><ele>280.0</ele><time>2026-04-03T14:56:37Z</time></trkpt><trkpt lat="42.236499683331864" lon="12.232313989508494"><ele>280.0</ele><time>2026-04-03T14:56:38Z</time></trkpt><trkpt lat="42.23664531596758" lon="12.232256754802322"><ele>280.0</ele><time>2026-04-03T14:56:39Z</time></trkpt><trkpt lat="42.236787033319814" lon="12.232188738553841"><ele>281.0</ele><time>2026-04-03T14:56:40Z</time></trkpt><trkpt lat="42.23693030099802" lon="12.23213327086829"><ele>282.0</ele><time>2026-04-03T14:56:41Z</time></trkpt><trkpt lat="42.237074849137294" lon="12.232061222819624"><ele>283.0</ele><time>2026-04-03T14:56:42Z</time></trkpt><trkpt lat="42.23722755055674" lon="12.231970449249259"><ele>279.66666666666663</ele><time>2026-04-03T14:56:43Z</time></trkpt><trkpt lat="42.2373699260163" lon="12.231868571446746"><ele>276.3333333333333</ele><time>2026-04-03T14:56:44Z</time></trkpt><trkpt lat="42.23750760087747" lon="12.231758463815055"><ele>273.0</ele><time>2026-04-03T14:56:45Z</time></trkpt><trkpt lat="42.23764283345958" lon="12.231644419214565"><ele>273.0</ele><time>2026-04-03T14:56:46Z</time></trkpt><trkpt lat="42.237780448236904" lon="12.231543464243597"><ele>273.0</ele><time>2026-04-03T14:56:47Z</time></trkpt><trkpt lat="42.2379120053819" lon="12.231428303164956"><ele>273.0</ele><time>2026-04-03T14:56:48Z</time></trkpt><trkpt lat="42.23804392172676" lon="12.23130546449702"><ele>271.3333333333333</ele><time>2026-04-03T14:56:49Z</time></trkpt><trkpt lat="42.23817221467086" lon="12.231180240265706"><ele>269.66666666666663</ele><time>2026-04-03T14:56:50Z</time></trkpt><trkpt lat="42.23829419692057" lon="12.231054559148337"><ele>268.0</ele><time>2026-04-03T14:56:51Z</time></trkpt><trkpt lat="42.23841222512321" lon="12.230930946278958"><ele>268.0</ele><time>2026-04-03T14:56:52Z</time></trkpt><trkpt lat="42.23853832601946" lon="12.230802409874206"><ele>268.0</ele><time>2026-04-03T14:56:53Z</time></trkpt><trkpt lat="42.238659308878894" lon="12.230678968574418"><ele>268.0</ele><time>2026-04-03T14:56:54Z</time></trkpt><trkpt lat="42.238777636852035" lon="12.230551438356558"><ele>267.75</ele><time>2026-04-03T14:56:55Z</time></trkpt><trkpt lat="42.23889362826226" lon="12.230430361896156"><ele>267.5</ele><time>2026-04-03T14:56:56Z</time></trkpt><trkpt lat="42.23900645472756" lon="12.230309434208316"><ele>267.25</ele><time>2026-04-03T14:56:57Z</time></trkpt><trkpt lat="42.239129406133586" lon="12.230183143627919"><ele>267.0</ele><time>2026-04-03T14:56:58Z</time></trkpt><trkpt lat="42.23925501439694" lon="12.230053266889145"><ele>267.0</ele><time>2026-04-03T14:56:59Z</time></trkpt><trkpt lat="42.23937510395028" lon="12.229924559353522"><ele>267.0</ele><time>2026-04-03T14:57:00Z</time></trkpt><trkpt lat="42.2394880258571" lon="12.229807330394337"><ele>267.0</ele><time>2026-04-03T14:57:01Z</time></trkpt><trkpt lat="42.23959673830417" lon="12.22969655879248"><ele>267.0</ele><time>2026-04-03T14:57:02Z</time></trkpt><trkpt lat="42.23970664992454" lon="12.229583236787775"><ele>266.75</ele><time>2026-04-03T14:57:03Z</time></trkpt><trkpt lat="42.23981539419488" lon="12.22946763738021"><ele>266.5</ele><time>2026-04-03T14:57:04Z</time></trkpt><trkpt lat="42.239919128412886" lon="12.229354131748966"><ele>266.25</ele><time>2026-04-03T14:57:05Z</time></trkpt><trkpt lat="42.240019069431426" lon="12.229240861598033"><ele>266.0</ele><time>2026-04-03T14:57:06Z</time></trkpt><trkpt lat="42.24010925181846" lon="12.22911556126651"><ele>266.0</ele><time>2026-04-03T14:57:07Z</time></trkpt><trkpt lat="42.24019318526892" lon="12.22897841496901"><ele>266.0</ele><time>2026-04-03T14:57:08Z</time></trkpt><trkpt lat="42.2402639801041" lon="12.2288289046887"><ele>266.0</ele><time>2026-04-03T14:57:09Z</time></trkpt><trkpt lat="42.24031850159637" lon="12.228668282835638"><ele>266.0</ele><time>2026-04-03T14:57:10Z</time></trkpt><trkpt lat="42.24035535254551" lon="12.228498545239287"><ele>268.0</ele><time>2026-04-03T14:57:11Z</time></trkpt><trkpt lat="42.240383349475685" lon="12.228318862954042"><ele>270.0</ele><time>2026-04-03T14:57:12Z</time></trkpt><trkpt lat="42.24040568213862" lon="12.228135983307798"><ele>272.0</ele><time>2026-04-03T14:57:13Z</time></trkpt><trkpt lat="42.240427645435915" lon="12.227955497898279"><ele>274.0</ele><time>2026-04-03T14:57:14Z</time></trkpt><trkpt lat="42.24044704951418" lon="12.227780269595511"><ele>274.5</ele><time>2026-04-03T14:57:15Z</time></trkpt><trkpt lat="42.24046354679998" lon="12.227617611325837"><ele>275.0</ele><time>2026-04-03T14:57:16Z</time></trkpt><trkpt lat="42.24047990403507" lon="12.227461039082524"><ele>275.5</ele><time>2026-04-03T14:57:17Z</time></trkpt><trkpt lat="42.24049378118982" lon="12.227315850637638"><ele>276.0</ele><time>2026-04-03T14:57:18Z</time></trkpt><trkpt lat="42.24050763972979" lon="12.227177827527614"><ele>276.0</ele><time>2026-04-03T14:57:19Z</time></trkpt><trkpt lat="42.24051883432853" lon="12.227022368647313"><ele>276.0</ele><time>2026-04-03T14:57:20Z</time></trkpt><trkpt lat="42.240527599216875" lon="12.22685627261007"><ele>276.0</ele><time>2026-04-03T14:57:21Z</time></trkpt><trkpt lat="42.240537555910734" lon="12.2267206183095"><ele>276.0</ele><time>2026-04-03T14:57:22Z</time></trkpt><trkpt lat="42.240546583309595" lon="12.226599903997833"><ele>276.0</ele><time>2026-04-03T14:57:23Z</time></trkpt><trkpt lat="42.24055974096961" lon="12.226499955660298"><ele>275.5</ele><time>2026-04-03T14:57:24Z</time></trkpt><trkpt lat="42.24057050241859" lon="12.226410055618878"><ele>275.0</ele><time>2026-04-03T14:57:25Z</time></trkpt><trkpt lat="42.24058196258775" lon="12.226319065869344"><ele>274.5</ele><time>2026-04-03T14:57:26Z</time></trkpt><trkpt lat="42.24058931143902" lon="12.226226957166022"><ele>274.0</ele><time>2026-04-03T14:57:27Z</time></trkpt><trkpt lat="42.24060021043291" lon="12.22606756955714"><ele>273.5</ele><time>2026-04-03T14:57:29Z</time></trkpt><trkpt lat="42.240626111087884" lon="12.225958216061935"><ele>273.0</ele><time>2026-04-03T14:57:30Z</time></trkpt><trkpt lat="42.24061948184159" lon="12.225811706851408"><ele>273.0</ele><time>2026-04-03T14:57:31Z</time></trkpt><trkpt lat="42.240589393723475" lon="12.22566588601755"><ele>273.0</ele><time>2026-04-03T14:57:32Z</time></trkpt><trkpt lat="42.24057639313379" lon="12.225552743024927"><ele>273.0</ele><time>2026-04-03T14:57:33Z</time></trkpt><trkpt lat="42.240562294091646" lon="12.225457534202919"><ele>273.0</ele><time>2026-04-03T14:57:34Z</time></trkpt><trkpt lat="42.24055743525798" lon="12.225356232614343"><ele>273.0</ele><time>2026-04-03T14:57:35Z</time></trkpt><trkpt lat="42.240539127046354" lon="12.225212274094956"><ele>273.8</ele><time>2026-04-03T14:57:37Z</time></trkpt><trkpt lat="42.24054009353814" lon="12.225066203867796"><ele>274.6</ele><time>2026-04-03T14:57:40Z</time></trkpt><trkpt lat="42.24055296487119" lon="12.224970285075777"><ele>275.4</ele><time>2026-04-03T14:57:41Z</time></trkpt><trkpt lat="42.24058346217144" lon="12.224845419224376"><ele>276.2</ele><time>2026-04-03T14:57:42Z</time></trkpt><trkpt lat="42.24061900166143" lon="12.224675188917436"><ele>277.0</ele><time>2026-04-03T14:57:43Z</time></trkpt><trkpt lat="42.240679883233405" lon="12.224497582287157"><ele>277.0</ele><time>2026-04-03T14:57:43.999Z</time></trkpt><trkpt lat="42.240742611813396" lon="12.224317180200291"><ele>277.0</ele><time>2026-04-03T14:57:44.999Z</time></trkpt><trkpt lat="42.24080153787505" lon="12.224160553010938"><ele>277.0</ele><time>2026-04-03T14:57:45.999Z</time></trkpt><trkpt lat="42.240852311603" lon="12.224013227622773"><ele>277.0</ele><time>2026-04-03T14:57:46.999Z</time></trkpt><trkpt lat="42.24090319093967" lon="12.223860412161011"><ele>276.0</ele><time>2026-04-03T14:57:47.999Z</time></trkpt><trkpt lat="42.24095353421104" lon="12.223702258836223"><ele>275.0</ele><time>2026-04-03T14:57:48.999Z</time></trkpt><trkpt lat="42.24100108360026" lon="12.223561782306044"><ele>274.0</ele><time>2026-04-03T14:57:49.999Z</time></trkpt><trkpt lat="42.24106667176109" lon="12.223450265308175"><ele>273.0</ele><time>2026-04-03T14:57:50.999Z</time></trkpt><trkpt lat="42.24111425928482" lon="12.223315070064627"><ele>273.0</ele><time>2026-04-03T14:57:51.999Z</time></trkpt><trkpt lat="42.24114311427466" lon="12.223192696006018"><ele>273.0</ele><time>2026-04-03T14:57:52.999Z</time></trkpt><trkpt lat="42.24120222037973" lon="12.223068925000735"><ele>273.0</ele><time>2026-04-03T14:57:54.999Z</time></trkpt><trkpt lat="42.241250082298684" lon="12.222966544696725"><ele>273.0</ele><time>2026-04-03T14:57:56.999Z</time></trkpt><trkpt lat="42.241289573954354" lon="12.222896756850453"><ele>273.0</ele><time>2026-04-03T14:57:58.999Z</time></trkpt><trkpt lat="42.24133581333092" lon="12.222822502695454"><ele>273.0</ele><time>2026-04-03T14:58:44Z</time></trkpt><trkpt lat="42.241416724614865" lon="12.222688314902536"><ele>273.4</ele><time>2026-04-03T14:58:47Z</time></trkpt><trkpt lat="42.24146854409356" lon="12.2225961434399"><ele>273.8</ele><time>2026-04-03T14:58:48Z</time></trkpt><trkpt lat="42.24153016347573" lon="12.222476562352666"><ele>274.2</ele><time>2026-04-03T14:58:49Z</time></trkpt><trkpt lat="42.241597843687664" lon="12.22234593276381"><ele>274.6</ele><time>2026-04-03T14:58:50Z</time></trkpt><trkpt lat="42.2416657452391" lon="12.222209478353808"><ele>275.0</ele><time>2026-04-03T14:58:51Z</time></trkpt><trkpt lat="42.24173296069739" lon="12.222067461127914"><ele>275.0</ele><time>2026-04-03T14:58:52Z</time></trkpt><trkpt lat="42.241816613291704" lon="12.221906383384566"><ele>275.0</ele><time>2026-04-03T14:58:53Z</time></trkpt><trkpt lat="42.24189986199449" lon="12.221731334346924"><ele>275.0</ele><time>2026-04-03T14:58:54Z</time></trkpt><trkpt lat="42.24197761170804" lon="12.221542767774741"><ele>273.6666666666667</ele><time>2026-04-03T14:58:55Z</time></trkpt><trkpt lat="42.24204244048813" lon="12.221339631274759"><ele>272.3333333333333</ele><time>2026-04-03T14:58:56Z</time></trkpt><trkpt lat="42.242085076548705" lon="12.221119059632507"><ele>271.0</ele><time>2026-04-03T14:58:57Z</time></trkpt><trkpt lat="42.24210919275279" lon="12.220879416818411"><ele>271.3333333333333</ele><time>2026-04-03T14:58:58Z</time></trkpt><trkpt lat="42.24211813779204" lon="12.220614423013272"><ele>271.6666666666667</ele><time>2026-04-03T14:58:59Z</time></trkpt><trkpt lat="42.24216224577963" lon="12.22033527608193"><ele>272.0</ele><time>2026-04-03T14:59:00Z</time></trkpt><trkpt lat="42.24217478582316" lon="12.2200285609133"><ele>273.0</ele><time>2026-04-03T14:59:01Z</time></trkpt><trkpt lat="42.24218784560039" lon="12.219709134043267"><ele>274.0</ele><time>2026-04-03T14:59:02Z</time></trkpt><trkpt lat="42.242182806094846" lon="12.219375218109962"><ele>274.0</ele><time>2026-04-03T14:59:03Z</time></trkpt><trkpt lat="42.24220705083651" lon="12.219038584496756"><ele>274.0</ele><time>2026-04-03T14:59:04Z</time></trkpt><trkpt lat="42.242231592738776" lon="12.218699599299914"><ele>274.5</ele><time>2026-04-03T14:59:05Z</time></trkpt><trkpt lat="42.24224495157576" lon="12.218367578028937"><ele>275.0</ele><time>2026-04-03T14:59:06Z</time></trkpt><trkpt lat="42.24224415224524" lon="12.218040987241851"><ele>275.0</ele><time>2026-04-03T14:59:07Z</time></trkpt><trkpt lat="42.242240551028836" lon="12.217726311213358"><ele>275.0</ele><time>2026-04-03T14:59:08Z</time></trkpt><trkpt lat="42.24223094260008" lon="12.21743439650296"><ele>275.0</ele><time>2026-04-03T14:59:09Z</time></trkpt><trkpt lat="42.242218966545714" lon="12.21715796130111"><ele>275.33333333333337</ele><time>2026-04-03T14:59:10Z</time></trkpt><trkpt lat="42.24221869705732" lon="12.216871591676046"><ele>275.6666666666667</ele><time>2026-04-03T14:59:11Z</time></trkpt><trkpt lat="42.242237325107304" lon="12.216579296815924"><ele>276.0</ele><time>2026-04-03T14:59:12Z</time></trkpt><trkpt lat="42.24227003177787" lon="12.2162810492645"><ele>276.0</ele><time>2026-04-03T14:59:13Z</time></trkpt><trkpt lat="42.24231920991427" lon="12.215990831793004"><ele>276.0</ele><time>2026-04-03T14:59:14Z</time></trkpt><trkpt lat="42.242378409207255" lon="12.215704309132503"><ele>276.0</ele><time>2026-04-03T14:59:15Z</time></trkpt><trkpt lat="42.24244688670965" lon="12.215415510178026"><ele>276.0</ele><time>2026-04-03T14:59:16Z</time></trkpt><trkpt lat="42.24252592234048" lon="12.21512974765485"><ele>276.0</ele><time>2026-04-03T14:59:17Z</time></trkpt><trkpt lat="42.24261719888355" lon="12.214848504049964"><ele>276.5</ele><time>2026-04-03T14:59:18Z</time></trkpt><trkpt lat="42.242725219358654" lon="12.21456386768157"><ele>277.0</ele><time>2026-04-03T14:59:19Z</time></trkpt><trkpt lat="42.24285006457568" lon="12.21429055985782"><ele>277.0</ele><time>2026-04-03T14:59:20Z</time></trkpt><trkpt lat="42.24298689710716" lon="12.21403764953522"><ele>277.0</ele><time>2026-04-03T14:59:21Z</time></trkpt><trkpt lat="42.243132418037916" lon="12.213794357138116"><ele>278.0</ele><time>2026-04-03T14:59:22Z</time></trkpt><trkpt lat="42.24328713022242" lon="12.213561925611621"><ele>279.0</ele><time>2026-04-03T14:59:23Z</time></trkpt><trkpt lat="42.24344633814637" lon="12.21334254787711"><ele>281.5</ele><time>2026-04-03T14:59:24Z</time></trkpt><trkpt lat="42.24361900934128" lon="12.213121214240903"><ele>284.0</ele><time>2026-04-03T14:59:25Z</time></trkpt><trkpt lat="42.2438066246809" lon="12.212900344182387"><ele>286.5</ele><time>2026-04-03T14:59:26Z</time></trkpt><trkpt lat="42.24400131160576" lon="12.212685069827117"><ele>289.0</ele><time>2026-04-03T14:59:27Z</time></trkpt><trkpt lat="42.244193220784894" lon="12.212471806293575"><ele>284.0</ele><time>2026-04-03T14:59:28Z</time></trkpt><trkpt lat="42.24438133205569" lon="12.21226447051664"><ele>279.0</ele><time>2026-04-03T14:59:29Z</time></trkpt><trkpt lat="42.2445668275955" lon="12.212065633964666"><ele>279.0</ele><time>2026-04-03T14:59:30Z</time></trkpt><trkpt lat="42.244745931934446" lon="12.211865264078897"><ele>279.0</ele><time>2026-04-03T14:59:31Z</time></trkpt><trkpt lat="42.24492108020891" lon="12.211660769639344"><ele>279.0</ele><time>2026-04-03T14:59:32Z</time></trkpt><trkpt lat="42.245089500906694" lon="12.211450290718687"><ele>279.0</ele><time>2026-04-03T14:59:33Z</time></trkpt><trkpt lat="42.245247116641" lon="12.21123662203845"><ele>279.0</ele><time>2026-04-03T14:59:34Z</time></trkpt><trkpt lat="42.24538911635715" lon="12.211009855672744"><ele>279.0</ele><time>2026-04-03T14:59:35Z</time></trkpt><trkpt lat="42.245517974961665" lon="12.210770294279252"><ele>279.0</ele><time>2026-04-03T14:59:36Z</time></trkpt><trkpt lat="42.24562709245109" lon="12.210507655007568"><ele>278.5</ele><time>2026-04-03T14:59:37Z</time></trkpt><trkpt lat="42.24571976368291" lon="12.21023100461163"><ele>278.0</ele><time>2026-04-03T14:59:38Z</time></trkpt><trkpt lat="42.24579428763036" lon="12.20993402338779"><ele>281.0</ele><time>2026-04-03T14:59:39Z</time></trkpt><trkpt lat="42.24584512019512" lon="12.209627142444715"><ele>284.0</ele><time>2026-04-03T14:59:40Z</time></trkpt><trkpt lat="42.2458739432888" lon="12.209318408855848"><ele>284.0</ele><time>2026-04-03T14:59:41Z</time></trkpt><trkpt lat="42.245878524188825" lon="12.208999163362837"><ele>284.0</ele><time>2026-04-03T14:59:42Z</time></trkpt><trkpt lat="42.24589197283712" lon="12.208688853207812"><ele>284.33333333333337</ele><time>2026-04-03T14:59:43Z</time></trkpt><trkpt lat="42.24593501956467" lon="12.208397758492284"><ele>284.6666666666667</ele><time>2026-04-03T14:59:44Z</time></trkpt><trkpt lat="42.246001794733644" lon="12.208108358929522"><ele>285.0</ele><time>2026-04-03T14:59:45Z</time></trkpt><trkpt lat="42.24607665994886" lon="12.207809708741244"><ele>285.0</ele><time>2026-04-03T14:59:46Z</time></trkpt><trkpt lat="42.246144816800026" lon="12.207506762925702"><ele>285.0</ele><time>2026-04-03T14:59:47Z</time></trkpt><trkpt lat="42.246210161018105" lon="12.207204885692255"><ele>285.3333333333333</ele><time>2026-04-03T14:59:48Z</time></trkpt><trkpt lat="42.24627391690304" lon="12.206912060355872"><ele>285.66666666666663</ele><time>2026-04-03T14:59:48.999Z</time></trkpt><trkpt lat="42.2463425013767" lon="12.206630194786271"><ele>286.0</ele><time>2026-04-03T14:59:49.999Z</time></trkpt><trkpt lat="42.246409531474306" lon="12.206361449373665"><ele>287.0</ele><time>2026-04-03T14:59:50.999Z</time></trkpt><trkpt lat="42.24648619224032" lon="12.206099771920597"><ele>288.0</ele><time>2026-04-03T14:59:51.999Z</time></trkpt><trkpt lat="42.24657634166235" lon="12.205836127381518"><ele>289.0</ele><time>2026-04-03T14:59:52.999Z</time></trkpt><trkpt lat="42.2466640701739" lon="12.205564092688553"><ele>289.0</ele><time>2026-04-03T14:59:53.999Z</time></trkpt><trkpt lat="42.24676044897669" lon="12.205302445823774"><ele>289.0</ele><time>2026-04-03T14:59:54.999Z</time></trkpt><trkpt lat="42.24685394100872" lon="12.205042276510783"><ele>289.0</ele><time>2026-04-03T14:59:55.999Z</time></trkpt><trkpt lat="42.2469408901065" lon="12.204792797133734"><ele>288.66666666666663</ele><time>2026-04-03T14:59:56.999Z</time></trkpt><trkpt lat="42.24702788261306" lon="12.204559651681205"><ele>288.3333333333333</ele><time>2026-04-03T14:59:57.999Z</time></trkpt><trkpt lat="42.247109430837334" lon="12.204342886327913"><ele>288.0</ele><time>2026-04-03T14:59:58.999Z</time></trkpt><trkpt lat="42.24718632256084" lon="12.204139457537364"><ele>288.6666666666667</ele><time>2026-04-03T14:59:59.999Z</time></trkpt><trkpt lat="42.24725870724314" lon="12.203946079160387"><ele>289.33333333333337</ele><time>2026-04-03T15:00:00.999Z</time></trkpt><trkpt lat="42.24734058891177" lon="12.203750877305666"><ele>290.0</ele><time>2026-04-03T15:00:01.999Z</time></trkpt><trkpt lat="42.24744193361018" lon="12.20356006957025"><ele>290.0</ele><time>2026-04-03T15:00:02.999Z</time></trkpt><trkpt lat="42.24755259627268" lon="12.20337957305256"><ele>290.0</ele><time>2026-04-03T15:00:03.999Z</time></trkpt><trkpt lat="42.24767947272696" lon="12.203197195805085"><ele>290.0</ele><time>2026-04-03T15:00:04.999Z</time></trkpt><trkpt lat="42.24782302531067" lon="12.203008720808642"><ele>289.5</ele><time>2026-04-03T15:00:05.999Z</time></trkpt><trkpt lat="42.24798563064858" lon="12.202809182179186"><ele>289.0</ele><time>2026-04-03T15:00:06.999Z</time></trkpt><trkpt lat="42.248164015445354" lon="12.202598439025001"><ele>289.0</ele><time>2026-04-03T15:00:07.999Z</time></trkpt><trkpt lat="42.248348586219116" lon="12.20236930715627"><ele>289.0</ele><time>2026-04-03T15:00:08.999Z</time></trkpt><trkpt lat="42.24854765637753" lon="12.202135805375736"><ele>288.5</ele><time>2026-04-03T15:00:09.999Z</time></trkpt><trkpt lat="42.24875785161452" lon="12.20191060422126"><ele>288.0</ele><time>2026-04-03T15:00:10.999Z</time></trkpt><trkpt lat="42.24896769370439" lon="12.201674815697663"><ele>287.5</ele><time>2026-04-03T15:00:11.999Z</time></trkpt><trkpt lat="42.24917647904056" lon="12.201440483180452"><ele>287.0</ele><time>2026-04-03T15:00:12.999Z</time></trkpt><trkpt lat="42.24938085150136" lon="12.201207710217485"><ele>287.0</ele><time>2026-04-03T15:00:13.999Z</time></trkpt><trkpt lat="42.24958261856715" lon="12.200978011960656"><ele>287.0</ele><time>2026-04-03T15:00:14.999Z</time></trkpt><trkpt lat="42.24978381429512" lon="12.200753991432915"><ele>289.0</ele><time>2026-04-03T15:00:15.999Z</time></trkpt><trkpt lat="42.24998327005044" lon="12.200538414262567"><ele>291.0</ele><time>2026-04-03T15:00:16.999Z</time></trkpt><trkpt lat="42.250183101183566" lon="12.200327999637224"><ele>291.0</ele><time>2026-04-03T15:00:17.999Z</time></trkpt><trkpt lat="42.2503803695842" lon="12.200122541320011"><ele>291.0</ele><time>2026-04-03T15:00:18.999Z</time></trkpt><trkpt lat="42.25056664034416" lon="12.199920595995307"><ele>292.5</ele><time>2026-04-03T15:00:19.999Z</time></trkpt><trkpt lat="42.250746187151144" lon="12.199716794652494"><ele>294.0</ele><time>2026-04-03T15:00:20.999Z</time></trkpt><trkpt lat="42.25092365546023" lon="12.19953173121562"><ele>294.0</ele><time>2026-04-03T15:00:21.999Z</time></trkpt><trkpt lat="42.25106025831649" lon="12.199309306917142"><ele>294.0</ele><time>2026-04-03T15:00:22.999Z</time></trkpt><trkpt lat="42.25116510278976" lon="12.199048850694245"><ele>294.0</ele><time>2026-04-03T15:00:23.999Z</time></trkpt><trkpt lat="42.25123009182948" lon="12.198742333544812"><ele>294.0</ele><time>2026-04-03T15:00:24.999Z</time></trkpt><trkpt lat="42.25127406998204" lon="12.198424342002774"><ele>294.0</ele><time>2026-04-03T15:00:25.999Z</time></trkpt><trkpt lat="42.25130663926483" lon="12.198103599698904"><ele>294.3333333333333</ele><time>2026-04-03T15:00:26.999Z</time></trkpt><trkpt lat="42.251324418688334" lon="12.197797405955361"><ele>294.66666666666663</ele><time>2026-04-03T15:00:27.999Z</time></trkpt><trkpt lat="42.25130824052705" lon="12.197498090546754"><ele>295.0</ele><time>2026-04-03T15:00:28.999Z</time></trkpt><trkpt lat="42.251265936595225" lon="12.19724528158688"><ele>295.66666666666663</ele><time>2026-04-03T15:00:29.999Z</time></trkpt><trkpt lat="42.25120645911161" lon="12.196988704417418"><ele>296.3333333333333</ele><time>2026-04-03T15:00:30.999Z</time></trkpt><trkpt lat="42.251148801678305" lon="12.196753113909539"><ele>297.0</ele><time>2026-04-03T15:00:31.999Z</time></trkpt><trkpt lat="42.2511162155401" lon="12.196527213977255"><ele>298.0</ele><time>2026-04-03T15:00:32.999Z</time></trkpt><trkpt lat="42.25110969328677" lon="12.19630163845984"><ele>299.0</ele><time>2026-04-03T15:00:33.999Z</time></trkpt><trkpt lat="42.25115175243078" lon="12.196069200871126"><ele>300.0</ele><time>2026-04-03T15:00:34.999Z</time></trkpt><trkpt lat="42.25120751657181" lon="12.195837147933327"><ele>301.6666666666667</ele><time>2026-04-03T15:00:35.999Z</time></trkpt><trkpt lat="42.251231996245274" lon="12.19562260127756"><ele>303.33333333333337</ele><time>2026-04-03T15:00:36.999Z</time></trkpt><trkpt lat="42.25127458165519" lon="12.195420551690644"><ele>305.0</ele><time>2026-04-03T15:00:37.999Z</time></trkpt><trkpt lat="42.25133790041835" lon="12.195232873743876"><ele>305.0</ele><time>2026-04-03T15:00:38.999Z</time></trkpt><trkpt lat="42.251441122982555" lon="12.195087317408671"><ele>305.0</ele><time>2026-04-03T15:00:39.999Z</time></trkpt><trkpt lat="42.251585438981465" lon="12.19498567778913"><ele>305.0</ele><time>2026-04-03T15:00:41Z</time></trkpt><trkpt lat="42.25175017048571" lon="12.194925787792322"><ele>307.0</ele><time>2026-04-03T15:00:42Z</time></trkpt><trkpt lat="42.25187869867286" lon="12.194859124363363"><ele>309.0</ele><time>2026-04-03T15:00:43Z</time></trkpt><trkpt lat="42.252027099651464" lon="12.19476030726569"><ele>311.0</ele><time>2026-04-03T15:00:44Z</time></trkpt><trkpt lat="42.25216134977304" lon="12.19461087386866"><ele>311.33333333333337</ele><time>2026-04-03T15:00:45Z</time></trkpt><trkpt lat="42.25227649603997" lon="12.194416290947178"><ele>311.6666666666667</ele><time>2026-04-03T15:00:46Z</time></trkpt><trkpt lat="42.252361270508196" lon="12.194192344357667"><ele>312.0</ele><time>2026-04-03T15:00:47Z</time></trkpt><trkpt lat="42.252420343275304" lon="12.193959159540093"><ele>312.0</ele><time>2026-04-03T15:00:48Z</time></trkpt><trkpt lat="42.25244083667564" lon="12.193724076648396"><ele>312.0</ele><time>2026-04-03T15:00:49Z</time></trkpt><trkpt lat="42.252417999738" lon="12.193500498919938"><ele>312.0</ele><time>2026-04-03T15:00:50Z</time></trkpt><trkpt lat="42.252377187751364" lon="12.193276369834322"><ele>312.3333333333333</ele><time>2026-04-03T15:00:51Z</time></trkpt><trkpt lat="42.25235773003295" lon="12.193041035543438"><ele>312.66666666666663</ele><time>2026-04-03T15:00:52Z</time></trkpt><trkpt lat="42.25237526206526" lon="12.192801236440472"><ele>313.0</ele><time>2026-04-03T15:00:53Z</time></trkpt><trkpt lat="42.2524125872229" lon="12.192568876780065"><ele>313.0</ele><time>2026-04-03T15:00:54Z</time></trkpt><trkpt lat="42.25248750359309" lon="12.192344561162022"><ele>313.0</ele><time>2026-04-03T15:00:55Z</time></trkpt><trkpt lat="42.2525687046595" lon="12.192112547639134"><ele>313.0</ele><time>2026-04-03T15:00:56Z</time></trkpt><trkpt lat="42.252658462912564" lon="12.191879376022207"><ele>314.0</ele><time>2026-04-03T15:00:57Z</time></trkpt><trkpt lat="42.25275883999824" lon="12.191638430050885"><ele>315.0</ele><time>2026-04-03T15:00:58Z</time></trkpt><trkpt lat="42.252868869928605" lon="12.191382990448062"><ele>316.0</ele><time>2026-04-03T15:00:59Z</time></trkpt><trkpt lat="42.252982051549026" lon="12.191123816701694"><ele>316.0</ele><time>2026-04-03T15:01:00Z</time></trkpt><trkpt lat="42.25309311824055" lon="12.190858330244529"><ele>316.0</ele><time>2026-04-03T15:01:01Z</time></trkpt><trkpt lat="42.25321472541487" lon="12.190579076521935"><ele>319.0</ele><time>2026-04-03T15:01:02Z</time></trkpt><trkpt lat="42.253355282208375" lon="12.190299728570174"><ele>322.0</ele><time>2026-04-03T15:01:03Z</time></trkpt><trkpt lat="42.25351618919557" lon="12.190020444825159"><ele>329.0</ele><time>2026-04-03T15:01:04Z</time></trkpt><trkpt lat="42.25368295419122" lon="12.189748673641919"><ele>336.0</ele><time>2026-04-03T15:01:05Z</time></trkpt><trkpt lat="42.25384458847088" lon="12.189486507911605"><ele>327.0</ele><time>2026-04-03T15:01:06Z</time></trkpt><trkpt lat="42.253998677029166" lon="12.189236000425366"><ele>318.0</ele><time>2026-04-03T15:01:07Z</time></trkpt><trkpt lat="42.25413792186268" lon="12.1889895808437"><ele>318.0</ele><time>2026-04-03T15:01:08Z</time></trkpt><trkpt lat="42.25425119335551" lon="12.188730499757357"><ele>318.0</ele><time>2026-04-03T15:01:09Z</time></trkpt><trkpt lat="42.254336144626976" lon="12.18843040858416"><ele>316.5</ele><time>2026-04-03T15:01:10Z</time></trkpt><trkpt lat="42.2543860281807" lon="12.188102144395899"><ele>315.0</ele><time>2026-04-03T15:01:11Z</time></trkpt><trkpt lat="42.254410445210404" lon="12.18777284997126"><ele>315.0</ele><time>2026-04-03T15:01:12Z</time></trkpt><trkpt lat="42.254433492456634" lon="12.187468773582623"><ele>315.0</ele><time>2026-04-03T15:01:13Z</time></trkpt><trkpt lat="42.25444521720407" lon="12.18718891940285"><ele>315.0</ele><time>2026-04-03T15:01:14Z</time></trkpt><trkpt lat="42.25445861272442" lon="12.186932444371237"><ele>314.3333333333333</ele><time>2026-04-03T15:01:15Z</time></trkpt><trkpt lat="42.254470891563415" lon="12.186684012782314"><ele>313.66666666666663</ele><time>2026-04-03T15:01:16Z</time></trkpt><trkpt lat="42.25450094927455" lon="12.186462077197099"><ele>313.0</ele><time>2026-04-03T15:01:17Z</time></trkpt><trkpt lat="42.25454336739989" lon="12.186247128069025"><ele>313.0</ele><time>2026-04-03T15:01:18Z</time></trkpt><trkpt lat="42.254609225041115" lon="12.186035241672435"><ele>313.0</ele><time>2026-04-03T15:01:19Z</time></trkpt><trkpt lat="42.25469740208818" lon="12.185825840937115"><ele>313.0</ele><time>2026-04-03T15:01:20Z</time></trkpt><trkpt lat="42.25479779041076" lon="12.185626990708412"><ele>313.0</ele><time>2026-04-03T15:01:21Z</time></trkpt><trkpt lat="42.25489035178678" lon="12.185450916418887"><ele>313.0</ele><time>2026-04-03T15:01:22Z</time></trkpt><trkpt lat="42.25498300075276" lon="12.185276333551682"><ele>313.0</ele><time>2026-04-03T15:01:23Z</time></trkpt><trkpt lat="42.255079214615655" lon="12.185115616681635"><ele>313.0</ele><time>2026-04-03T15:01:24Z</time></trkpt><trkpt lat="42.255196081887156" lon="12.184974520483399"><ele>313.0</ele><time>2026-04-03T15:01:25Z</time></trkpt><trkpt lat="42.25533588031493" lon="12.184837635854755"><ele>313.0</ele><time>2026-04-03T15:01:26Z</time></trkpt><trkpt lat="42.25547705416892" lon="12.184730289135029"><ele>316.66666666666663</ele><time>2026-04-03T15:01:27Z</time></trkpt><trkpt lat="42.255618161271975" lon="12.184624812253322"><ele>320.3333333333333</ele><time>2026-04-03T15:01:28Z</time></trkpt><trkpt lat="42.255752451749544" lon="12.184481779391833"><ele>324.0</ele><time>2026-04-03T15:01:29Z</time></trkpt><trkpt lat="42.255874455959315" lon="12.184292788737665"><ele>324.6666666666667</ele><time>2026-04-03T15:01:30Z</time></trkpt><trkpt lat="42.255984489011745" lon="12.184086610977959"><ele>325.33333333333337</ele><time>2026-04-03T15:01:31Z</time></trkpt><trkpt lat="42.2560923592005" lon="12.183880983921012"><ele>326.0</ele><time>2026-04-03T15:01:32Z</time></trkpt><trkpt lat="42.25619901267792" lon="12.18368067065388"><ele>332.0</ele><time>2026-04-03T15:01:33Z</time></trkpt><trkpt lat="42.25630771890516" lon="12.1834862394381"><ele>338.0</ele><time>2026-04-03T15:01:34Z</time></trkpt><trkpt lat="42.25641504865066" lon="12.183289492173747"><ele>344.0</ele><time>2026-04-03T15:01:35Z</time></trkpt><trkpt lat="42.25651248336495" lon="12.183098774511041"><ele>344.0</ele><time>2026-04-03T15:01:36Z</time></trkpt><trkpt lat="42.25659690228469" lon="12.182899317023715"><ele>344.0</ele><time>2026-04-03T15:01:37Z</time></trkpt><trkpt lat="42.25667577230098" lon="12.182685598032377"><ele>344.0</ele><time>2026-04-03T15:01:38Z</time></trkpt><trkpt lat="42.256736764318134" lon="12.182465121179035"><ele>344.33333333333337</ele><time>2026-04-03T15:01:39Z</time></trkpt><trkpt lat="42.25679420199535" lon="12.182235933305869"><ele>344.6666666666667</ele><time>2026-04-03T15:01:40Z</time></trkpt><trkpt lat="42.25684929692495" lon="12.182006553612998"><ele>345.0</ele><time>2026-04-03T15:01:41Z</time></trkpt><trkpt lat="42.25689944661068" lon="12.181791394331544"><ele>345.0</ele><time>2026-04-03T15:01:42Z</time></trkpt><trkpt lat="42.25694657227865" lon="12.181600888478586"><ele>345.0</ele><time>2026-04-03T15:01:43Z</time></trkpt><trkpt lat="42.25698763329569" lon="12.181427579008805"><ele>345.0</ele><time>2026-04-03T15:01:44Z</time></trkpt><trkpt lat="42.25702386164579" lon="12.18126994416025"><ele>345.0</ele><time>2026-04-03T15:01:45Z</time></trkpt><trkpt lat="42.25706427052522" lon="12.181113443121784"><ele>346.5</ele><time>2026-04-03T15:01:46Z</time></trkpt><trkpt lat="42.25710579408192" lon="12.180952497846722"><ele>348.0</ele><time>2026-04-03T15:01:47Z</time></trkpt><trkpt lat="42.25715636495826" lon="12.18077868608077"><ele>349.5</ele><time>2026-04-03T15:01:47.999Z</time></trkpt><trkpt lat="42.25720859325818" lon="12.180579425494393"><ele>351.0</ele><time>2026-04-03T15:01:48.999Z</time></trkpt><trkpt lat="42.257272474256624" lon="12.180352680833025"><ele>349.6666666666667</ele><time>2026-04-03T15:01:49.999Z</time></trkpt><trkpt lat="42.25734136686676" lon="12.180103158242343"><ele>348.33333333333337</ele><time>2026-04-03T15:01:50.999Z</time></trkpt><trkpt lat="42.25741947550446" lon="12.17984923751254"><ele>347.0</ele><time>2026-04-03T15:01:51.999Z</time></trkpt><trkpt lat="42.257496446972674" lon="12.179593462317385"><ele>347.0</ele><time>2026-04-03T15:01:52.999Z</time></trkpt><trkpt lat="42.25756399253149" lon="12.179351214396357"><ele>347.0</ele><time>2026-04-03T15:01:53.999Z</time></trkpt><trkpt lat="42.257622213043035" lon="12.179115554260907"><ele>347.0</ele><time>2026-04-03T15:01:54.999Z</time></trkpt><trkpt lat="42.25767797949583" lon="12.178897159047906"><ele>348.25</ele><time>2026-04-03T15:01:55.999Z</time></trkpt><trkpt lat="42.25772423816232" lon="12.178697304602007"><ele>349.5</ele><time>2026-04-03T15:01:56.999Z</time></trkpt><trkpt lat="42.2577658547949" lon="12.178513017740007"><ele>350.75</ele><time>2026-04-03T15:01:57.999Z</time></trkpt><trkpt lat="42.25780485754613" lon="12.178341538068212"><ele>352.0</ele><time>2026-04-03T15:01:58.999Z</time></trkpt><trkpt lat="42.25783865700321" lon="12.178184223959661"><ele>354.25</ele><time>2026-04-03T15:01:59.999Z</time></trkpt><trkpt lat="42.25787785038328" lon="12.178040774431244"><ele>356.5</ele><time>2026-04-03T15:02:00.999Z</time></trkpt><trkpt lat="42.25792276326075" lon="12.177880062781275"><ele>358.75</ele><time>2026-04-03T15:02:01.999Z</time></trkpt><trkpt lat="42.257964298701864" lon="12.177707200382768"><ele>361.0</ele><time>2026-04-03T15:02:02.999Z</time></trkpt><trkpt lat="42.25800147743105" lon="12.177528635322307"><ele>361.75</ele><time>2026-04-03T15:02:03.999Z</time></trkpt><trkpt lat="42.258041335712804" lon="12.177349007897543"><ele>362.5</ele><time>2026-04-03T15:02:04.999Z</time></trkpt><trkpt lat="42.25808248255821" lon="12.177168572390451"><ele>363.25</ele><time>2026-04-03T15:02:05.999Z</time></trkpt><trkpt lat="42.258123988692084" lon="12.176991740696197"><ele>364.0</ele><time>2026-04-03T15:02:06.999Z</time></trkpt><trkpt lat="42.25816400984331" lon="12.176823379728427"><ele>364.0</ele><time>2026-04-03T15:02:07.999Z</time></trkpt><trkpt lat="42.25820984948445" lon="12.17665795873034"><ele>364.0</ele><time>2026-04-03T15:02:08.999Z</time></trkpt><trkpt lat="42.25826647375918" lon="12.176488087056326"><ele>364.0</ele><time>2026-04-03T15:02:09.999Z</time></trkpt><trkpt lat="42.25834131359082" lon="12.176315624687481"><ele>364.0</ele><time>2026-04-03T15:02:10.999Z</time></trkpt><trkpt lat="42.2584312593989" lon="12.176160464026935"><ele>364.5</ele><time>2026-04-03T15:02:11.999Z</time></trkpt><trkpt lat="42.25852372832903" lon="12.176026917455122"><ele>365.0</ele><time>2026-04-03T15:02:12.999Z</time></trkpt><trkpt lat="42.258611334957386" lon="12.175909527949763"><ele>365.5</ele><time>2026-04-03T15:02:13.999Z</time></trkpt><trkpt lat="42.25869778011522" lon="12.175804000211825"><ele>366.0</ele><time>2026-04-03T15:02:14.999Z</time></trkpt><trkpt lat="42.258776101049754" lon="12.175713521482612"><ele>366.5</ele><time>2026-04-03T15:02:15.999Z</time></trkpt><trkpt lat="42.25886414796643" lon="12.17562320665464"><ele>367.0</ele><time>2026-04-03T15:02:16.999Z</time></trkpt><trkpt lat="42.258958136698546" lon="12.17552633802983"><ele>367.5</ele><time>2026-04-03T15:02:17.999Z</time></trkpt><trkpt lat="42.25906407365841" lon="12.17542363625567"><ele>368.0</ele><time>2026-04-03T15:02:18.999Z</time></trkpt><trkpt lat="42.25917549364098" lon="12.175322767702797"><ele>368.0</ele><time>2026-04-03T15:02:19.999Z</time></trkpt><trkpt lat="42.259285912763964" lon="12.175219984111498"><ele>368.0</ele><time>2026-04-03T15:02:20.999Z</time></trkpt><trkpt lat="42.259383827370684" lon="12.17512743039328"><ele>368.0</ele><time>2026-04-03T15:02:21.999Z</time></trkpt><trkpt lat="42.25945783247168" lon="12.175034592353859"><ele>368.0</ele><time>2026-04-03T15:02:22.999Z</time></trkpt><trkpt lat="42.25950649210725" lon="12.174953195249838"><ele>368.0</ele><time>2026-04-03T15:02:23.999Z</time></trkpt><trkpt lat="42.25953016227191" lon="12.17486726380893"><ele>369.79999999999995</ele><time>2026-04-03T15:02:24.999Z</time></trkpt><trkpt lat="42.259519719564196" lon="12.174716677096395"><ele>371.6</ele><time>2026-04-03T15:02:26.999Z</time></trkpt><trkpt lat="42.2594435585637" lon="12.174575768846513"><ele>373.4</ele><time>2026-04-03T15:02:28.999Z</time></trkpt><trkpt lat="42.25939354930413" lon="12.174513345924423"><ele>375.20000000000005</ele><time>2026-04-03T15:02:29.999Z</time></trkpt><trkpt lat="42.25929187881196" lon="12.17451421019849"><ele>377.0</ele><time>2026-04-03T15:02:30.999Z</time></trkpt><trkpt lat="42.25919618731368" lon="12.174596479134442"><ele>377.0</ele><time>2026-04-03T15:02:31.999Z</time></trkpt><trkpt lat="42.25912409994161" lon="12.174725007434054"><ele>377.0</ele><time>2026-04-03T15:02:32.999Z</time></trkpt><trkpt lat="42.25902846656403" lon="12.174821951127322"><ele>377.0</ele><time>2026-04-03T15:02:33.999Z</time></trkpt><trkpt lat="42.25893146722785" lon="12.174959806054066"><ele>377.0</ele><time>2026-04-03T15:02:34.999Z</time></trkpt><trkpt lat="42.25878784982641" lon="12.175074433495302"><ele>379.6666666666667</ele><time>2026-04-03T15:02:35.999Z</time></trkpt><trkpt lat="42.258640709509834" lon="12.175190862775475"><ele>382.33333333333337</ele><time>2026-04-03T15:02:36.999Z</time></trkpt><trkpt lat="42.258493181623514" lon="12.175316347248666"><ele>385.0</ele><time>2026-04-03T15:02:37.999Z</time></trkpt><trkpt lat="42.25835521053057" lon="12.175413995377454"><ele>385.0</ele><time>2026-04-03T15:02:38.999Z</time></trkpt><trkpt lat="42.2582190781846" lon="12.175488747969862"><ele>385.0</ele><time>2026-04-03T15:02:39.999Z</time></trkpt><trkpt lat="42.258094485082495" lon="12.1755762456644"><ele>385.0</ele><time>2026-04-03T15:02:40.999Z</time></trkpt><trkpt lat="42.2579795546627" lon="12.175663765829759"><ele>385.0</ele><time>2026-04-03T15:02:41.999Z</time></trkpt><trkpt lat="42.25787730050313" lon="12.175752385364216"><ele>384.1666666666667</ele><time>2026-04-03T15:02:42.999Z</time></trkpt><trkpt lat="42.25779648166413" lon="12.175838033829647"><ele>383.33333333333337</ele><time>2026-04-03T15:02:43.999Z</time></trkpt><trkpt lat="42.25773820622503" lon="12.175919306816352"><ele>382.5</ele><time>2026-04-03T15:02:44.999Z</time></trkpt><trkpt lat="42.25770305767732" lon="12.17600174144804"><ele>381.6666666666667</ele><time>2026-04-03T15:02:45.999Z</time></trkpt><trkpt lat="42.25763494477184" lon="12.176067546658775"><ele>380.83333333333337</ele><time>2026-04-03T15:02:47Z</time></trkpt><trkpt lat="42.25759559640985" lon="12.176199814989227"><ele>380.0</ele><time>2026-04-03T15:02:48Z</time></trkpt><trkpt lat="42.25754029082681" lon="12.176288330654746"><ele>380.0</ele><time>2026-04-03T15:02:49Z</time></trkpt><trkpt lat="42.25748881484669" lon="12.176369444185886"><ele>380.0</ele><time>2026-04-03T15:02:50Z</time></trkpt><trkpt lat="42.25743458952813" lon="12.176445730995178"><ele>380.0</ele><time>2026-04-03T15:02:51Z</time></trkpt><trkpt lat="42.25735571979276" lon="12.176560471307738"><ele>380.0</ele><time>2026-04-03T15:02:53Z</time></trkpt><trkpt lat="42.25730703626198" lon="12.176630592979025"><ele>380.0</ele><time>2026-04-03T15:02:56Z</time></trkpt><trkpt lat="42.25724467545103" lon="12.176714198386133"><ele>380.0</ele><time>2026-04-03T15:03:04Z</time></trkpt><trkpt lat="42.257186536721015" lon="12.176747086192877"><ele>377.83333333333337</ele><time>2026-04-03T15:03:06Z</time></trkpt><trkpt lat="42.257118690974735" lon="12.176739439858162"><ele>375.6666666666667</ele><time>2026-04-03T15:03:09Z</time></trkpt><trkpt lat="42.2570487352665" lon="12.17665512126915"><ele>373.5</ele><time>2026-04-03T15:03:13Z</time></trkpt><trkpt lat="42.25704542037154" lon="12.176565953493224"><ele>371.3333333333333</ele><time>2026-04-03T15:03:14Z</time></trkpt><trkpt lat="42.257069197727596" lon="12.17646214908456"><ele>369.16666666666663</ele><time>2026-04-03T15:03:15Z</time></trkpt><trkpt lat="42.25710500128178" lon="12.176351446234603"><ele>367.0</ele><time>2026-04-03T15:03:16Z</time></trkpt><trkpt lat="42.25714905698036" lon="12.176219652109587"><ele>365.8333333333333</ele><time>2026-04-03T15:03:17Z</time></trkpt><trkpt lat="42.25719671640505" lon="12.176102437383634"><ele>364.66666666666663</ele><time>2026-04-03T15:03:18Z</time></trkpt><trkpt lat="42.25723238854451" lon="12.17599563736062"><ele>363.5</ele><time>2026-04-03T15:03:19Z</time></trkpt><trkpt lat="42.25726774995508" lon="12.175880672712804"><ele>362.3333333333333</ele><time>2026-04-03T15:03:20Z</time></trkpt><trkpt lat="42.257302172944634" lon="12.175782467734644"><ele>361.1666666666667</ele><time>2026-04-03T15:03:21Z</time></trkpt><trkpt lat="42.25733648036235" lon="12.175694886448904"><ele>360.0</ele><time>2026-04-03T15:03:22Z</time></trkpt><trkpt lat="42.257370153259096" lon="12.175600847480784"><ele>365.2</ele><time>2026-04-03T15:03:23Z</time></trkpt><trkpt lat="42.25740883330424" lon="12.175489265166522"><ele>370.4</ele><time>2026-04-03T15:03:24Z</time></trkpt><trkpt lat="42.2574435564753" lon="12.175377089909967"><ele>375.6</ele><time>2026-04-03T15:03:25Z</time></trkpt><trkpt lat="42.25747400273837" lon="12.175237787687179"><ele>380.8</ele><time>2026-04-03T15:03:26Z</time></trkpt><trkpt lat="42.25754651510321" lon="12.17508192909033"><ele>386.0</ele><time>2026-04-03T15:03:27Z</time></trkpt><trkpt lat="42.25761105319411" lon="12.174895905617632"><ele>385.25</ele><time>2026-04-03T15:03:28Z</time></trkpt><trkpt lat="42.257655569978766" lon="12.174716736376133"><ele>384.5</ele><time>2026-04-03T15:03:29Z</time></trkpt><trkpt lat="42.25770918035043" lon="12.174562488148128"><ele>383.75</ele><time>2026-04-03T15:03:30Z</time></trkpt><trkpt lat="42.25776178723328" lon="12.17442819592374"><ele>383.0</ele><time>2026-04-03T15:03:31Z</time></trkpt><trkpt lat="42.2578052248567" lon="12.174307390822996"><ele>383.0</ele><time>2026-04-03T15:03:32Z</time></trkpt><trkpt lat="42.25785810431547" lon="12.174184530306063"><ele>383.0</ele><time>2026-04-03T15:03:33Z</time></trkpt><trkpt lat="42.25791923025577" lon="12.174038427368236"><ele>383.0</ele><time>2026-04-03T15:03:34Z</time></trkpt><trkpt lat="42.25797727278844" lon="12.173865687738534"><ele>383.0</ele><time>2026-04-03T15:03:35Z</time></trkpt><trkpt lat="42.258032505348396" lon="12.173691870145976"><ele>383.75</ele><time>2026-04-03T15:03:36Z</time></trkpt><trkpt lat="42.25808204022689" lon="12.173537160286571"><ele>384.5</ele><time>2026-04-03T15:03:37Z</time></trkpt><trkpt lat="42.25813120026165" lon="12.173379083255952"><ele>385.25</ele><time>2026-04-03T15:03:38Z</time></trkpt><trkpt lat="42.258185481130354" lon="12.17321311322914"><ele>386.0</ele><time>2026-04-03T15:03:39Z</time></trkpt><trkpt lat="42.258236884189266" lon="12.173047318129845"><ele>386.0</ele><time>2026-04-03T15:03:40Z</time></trkpt><trkpt lat="42.25827996594957" lon="12.172888621470767"><ele>386.0</ele><time>2026-04-03T15:03:41Z</time></trkpt><trkpt lat="42.25832035214329" lon="12.172709550955041"><ele>386.0</ele><time>2026-04-03T15:03:42Z</time></trkpt><trkpt lat="42.25835934743647" lon="12.172521700853315"><ele>386.0</ele><time>2026-04-03T15:03:43Z</time></trkpt><trkpt lat="42.258398810005886" lon="12.172338348886884"><ele>385.0</ele><time>2026-04-03T15:03:44Z</time></trkpt><trkpt lat="42.25843482690202" lon="12.172160449516566"><ele>384.0</ele><time>2026-04-03T15:03:45Z</time></trkpt><trkpt lat="42.25846977320861" lon="12.17198435063247"><ele>383.0</ele><time>2026-04-03T15:03:46Z</time></trkpt><trkpt lat="42.25850373392704" lon="12.171811902476332"><ele>382.0</ele><time>2026-04-03T15:03:47Z</time></trkpt><trkpt lat="42.25853798116133" lon="12.171656884450426"><ele>381.6</ele><time>2026-04-03T15:03:47.999Z</time></trkpt><trkpt lat="42.25856366647568" lon="12.171521170460641"><ele>381.20000000000005</ele><time>2026-04-03T15:03:48.999Z</time></trkpt><trkpt lat="42.258587968699956" lon="12.171399708529256"><ele>380.8</ele><time>2026-04-03T15:03:49.999Z</time></trkpt><trkpt lat="42.25861317404595" lon="12.171288371821134"><ele>380.4</ele><time>2026-04-03T15:03:50.999Z</time></trkpt><trkpt lat="42.25863590672395" lon="12.17117393396503"><ele>380.0</ele><time>2026-04-03T15:03:51.999Z</time></trkpt><trkpt lat="42.25866036938994" lon="12.171060521879683"><ele>380.0</ele><time>2026-04-03T15:03:52.999Z</time></trkpt><trkpt lat="42.258678618537544" lon="12.17096547671382"><ele>380.0</ele><time>2026-04-03T15:03:53.999Z</time></trkpt><trkpt lat="42.25871336026459" lon="12.170844913658334"><ele>380.0</ele><time>2026-04-03T15:03:55.999Z</time></trkpt><trkpt lat="42.25874378134331" lon="12.170767364284542"><ele>380.0</ele><time>2026-04-03T15:03:57.999Z</time></trkpt><trkpt lat="42.25876565652814" lon="12.170633117293558"><ele>380.0</ele><time>2026-04-03T15:03:59.999Z</time></trkpt><trkpt lat="42.25879076882305" lon="12.170517675103575"><ele>380.0</ele><time>2026-04-03T15:04:01.999Z</time></trkpt><trkpt lat="42.25880000325868" lon="12.170422105421297"><ele>380.1666666666667</ele><time>2026-04-03T15:04:09.999Z</time></trkpt><trkpt lat="42.258836106394384" lon="12.170324685116535"><ele>380.33333333333337</ele><time>2026-04-03T15:04:21.999Z</time></trkpt><trkpt lat="42.2588607014788" lon="12.170228125486345"><ele>380.5</ele><time>2026-04-03T15:04:22.999Z</time></trkpt><trkpt lat="42.25888789357317" lon="12.170121658216614"><ele>380.6666666666667</ele><time>2026-04-03T15:04:23.999Z</time></trkpt><trkpt lat="42.25891827125603" lon="12.170002862579565"><ele>380.8333333333333</ele><time>2026-04-03T15:04:24.999Z</time></trkpt><trkpt lat="42.25895375423113" lon="12.169864101927052"><ele>381.0</ele><time>2026-04-03T15:04:25.999Z</time></trkpt><trkpt lat="42.2589936792664" lon="12.169708382457838"><ele>385.75</ele><time>2026-04-03T15:04:26.999Z</time></trkpt><trkpt lat="42.259037955797595" lon="12.169542533373358"><ele>390.5</ele><time>2026-04-03T15:04:27.999Z</time></trkpt><trkpt lat="42.25907381550153" lon="12.169355089867874"><ele>395.25</ele><time>2026-04-03T15:04:28.999Z</time></trkpt><trkpt lat="42.259138593055184" lon="12.169161108608412"><ele>400.0</ele><time>2026-04-03T15:04:29.999Z</time></trkpt><trkpt lat="42.25920227713675" lon="12.16896932670237"><ele>400.6666666666667</ele><time>2026-04-03T15:04:30.999Z</time></trkpt><trkpt lat="42.259270183342956" lon="12.168781667933455"><ele>401.33333333333337</ele><time>2026-04-03T15:04:31.999Z</time></trkpt><trkpt lat="42.25933995373563" lon="12.16859899809769"><ele>402.0</ele><time>2026-04-03T15:04:32.999Z</time></trkpt><trkpt lat="42.25941476066244" lon="12.168423858058365"><ele>402.0</ele><time>2026-04-03T15:04:33.999Z</time></trkpt><trkpt lat="42.259493519571414" lon="12.168259753548053"><ele>402.0</ele><time>2026-04-03T15:04:34.999Z</time></trkpt><trkpt lat="42.2595922022364" lon="12.168108506857834"><ele>402.0</ele><time>2026-04-03T15:04:35.999Z</time></trkpt><trkpt lat="42.25971891494787" lon="12.167967151987755"><ele>403.33333333333337</ele><time>2026-04-03T15:04:36.999Z</time></trkpt><trkpt lat="42.259855243304926" lon="12.167844986954773"><ele>404.6666666666667</ele><time>2026-04-03T15:04:37.999Z</time></trkpt><trkpt lat="42.259990257793255" lon="12.167727605134539"><ele>406.0</ele><time>2026-04-03T15:04:38.999Z</time></trkpt><trkpt lat="42.26012370378473" lon="12.167604898502212"><ele>406.0</ele><time>2026-04-03T15:04:39.999Z</time></trkpt><trkpt lat="42.26025287639352" lon="12.167475654678693"><ele>406.0</ele><time>2026-04-03T15:04:40.999Z</time></trkpt><trkpt lat="42.26037009315976" lon="12.167350277382242"><ele>406.0</ele><time>2026-04-03T15:04:41.999Z</time></trkpt><trkpt lat="42.260474365098034" lon="12.16722790518778"><ele>406.0</ele><time>2026-04-03T15:04:42.999Z</time></trkpt><trkpt lat="42.26055917857011" lon="12.167098923991631"><ele>406.25</ele><time>2026-04-03T15:04:43.999Z</time></trkpt><trkpt lat="42.260616451606225" lon="12.166941754054625"><ele>406.5</ele><time>2026-04-03T15:04:44.999Z</time></trkpt><trkpt lat="42.26062861646127" lon="12.166752544317427"><ele>406.75</ele><time>2026-04-03T15:04:45.999Z</time></trkpt><trkpt lat="42.26060939316153" lon="12.166534209431504"><ele>407.0</ele><time>2026-04-03T15:04:46.999Z</time></trkpt><trkpt lat="42.26055703015148" lon="12.166321804651576"><ele>407.0</ele><time>2026-04-03T15:04:47.999Z</time></trkpt><trkpt lat="42.260498815265734" lon="12.166112001420071"><ele>407.0</ele><time>2026-04-03T15:04:48.999Z</time></trkpt><trkpt lat="42.26044284363429" lon="12.16591244646417"><ele>407.0</ele><time>2026-04-03T15:04:49.999Z</time></trkpt><trkpt lat="42.26039507418386" lon="12.165717309260472"><ele>407.66666666666663</ele><time>2026-04-03T15:04:50.999Z</time></trkpt><trkpt lat="42.26035608486673" lon="12.165516566837846"><ele>408.33333333333337</ele><time>2026-04-03T15:04:51.999Z</time></trkpt><trkpt lat="42.260338044218614" lon="12.16530529903907"><ele>409.0</ele><time>2026-04-03T15:04:53Z</time></trkpt><trkpt lat="42.26033077464647" lon="12.165072096699067"><ele>409.6666666666667</ele><time>2026-04-03T15:04:54Z</time></trkpt><trkpt lat="42.26036888877967" lon="12.164842751895998"><ele>410.33333333333337</ele><time>2026-04-03T15:04:55Z</time></trkpt><trkpt lat="42.26041585825729" lon="12.164638909348877"><ele>411.0</ele><time>2026-04-03T15:04:56Z</time></trkpt><trkpt lat="42.260478086349735" lon="12.164442939251222"><ele>411.0</ele><time>2026-04-03T15:04:57Z</time></trkpt><trkpt lat="42.26055319306451" lon="12.16424574198873"><ele>411.0</ele><time>2026-04-03T15:04:58Z</time></trkpt><trkpt lat="42.26063486562507" lon="12.164046760179367"><ele>411.0</ele><time>2026-04-03T15:04:59Z</time></trkpt><trkpt lat="42.26072221348899" lon="12.163841928021679"><ele>412.0</ele><time>2026-04-03T15:05:00Z</time></trkpt><trkpt lat="42.26081027243952" lon="12.163637189540102"><ele>413.0</ele><time>2026-04-03T15:05:01Z</time></trkpt><trkpt lat="42.260903531354195" lon="12.163427182115017"><ele>414.0</ele><time>2026-04-03T15:05:02Z</time></trkpt><trkpt lat="42.26099295573489" lon="12.163223889903371"><ele>415.0</ele><time>2026-04-03T15:05:03Z</time></trkpt><trkpt lat="42.26107518276794" lon="12.163037006409075"><ele>416.0</ele><time>2026-04-03T15:05:04Z</time></trkpt><trkpt lat="42.26115561751831" lon="12.162852031749416"><ele>417.0</ele><time>2026-04-03T15:05:05Z</time></trkpt><trkpt lat="42.26123993458737" lon="12.162657914663384"><ele>417.0</ele><time>2026-04-03T15:05:06Z</time></trkpt><trkpt lat="42.261316958036005" lon="12.162459140789302"><ele>417.0</ele><time>2026-04-03T15:05:07Z</time></trkpt><trkpt lat="42.261397668207486" lon="12.162260463447764"><ele>417.0</ele><time>2026-04-03T15:05:08Z</time></trkpt><trkpt lat="42.26148585513674" lon="12.16206149435126"><ele>419.0</ele><time>2026-04-03T15:05:09Z</time></trkpt><trkpt lat="42.26157639461137" lon="12.161859943610919"><ele>421.0</ele><time>2026-04-03T15:05:10Z</time></trkpt><trkpt lat="42.261671012713805" lon="12.161663081619189"><ele>423.0</ele><time>2026-04-03T15:05:11Z</time></trkpt><trkpt lat="42.261771315529984" lon="12.161471263509622"><ele>423.33333333333337</ele><time>2026-04-03T15:05:12Z</time></trkpt><trkpt lat="42.26186889845351" lon="12.161283305584845"><ele>423.6666666666667</ele><time>2026-04-03T15:05:13Z</time></trkpt><trkpt lat="42.261958651669765" lon="12.161098989273912"><ele>424.0</ele><time>2026-04-03T15:05:14Z</time></trkpt><trkpt lat="42.26203609655595" lon="12.160927660434275"><ele>424.0</ele><time>2026-04-03T15:05:15Z</time></trkpt><trkpt lat="42.262114154616164" lon="12.1607510401392"><ele>424.0</ele><time>2026-04-03T15:05:16Z</time></trkpt><trkpt lat="42.26219789702072" lon="12.160549496997245"><ele>424.0</ele><time>2026-04-03T15:05:17Z</time></trkpt><trkpt lat="42.26227690974934" lon="12.160345507757576"><ele>424.0</ele><time>2026-04-03T15:05:18Z</time></trkpt><trkpt lat="42.2623504416527" lon="12.160146292658677"><ele>424.0</ele><time>2026-04-03T15:05:19Z</time></trkpt><trkpt lat="42.26241563638773" lon="12.159958959605278"><ele>424.0</ele><time>2026-04-03T15:05:20Z</time></trkpt><trkpt lat="42.262478334649316" lon="12.159771682615608"><ele>425.25</ele><time>2026-04-03T15:05:21Z</time></trkpt><trkpt lat="42.26253916116376" lon="12.159595950223482"><ele>426.5</ele><time>2026-04-03T15:05:22Z</time></trkpt><trkpt lat="42.26260145374501" lon="12.1594263286413"><ele>427.75</ele><time>2026-04-03T15:05:23Z</time></trkpt><trkpt lat="42.26266316532882" lon="12.159256906497504"><ele>429.0</ele><time>2026-04-03T15:05:24Z</time></trkpt><trkpt lat="42.262728944208774" lon="12.159087375773458"><ele>429.0</ele><time>2026-04-03T15:05:25Z</time></trkpt><trkpt lat="42.2628032056177" lon="12.158922506854049"><ele>429.0</ele><time>2026-04-03T15:05:26Z</time></trkpt><trkpt lat="42.262890537913485" lon="12.158764697510376"><ele>429.0</ele><time>2026-04-03T15:05:27Z</time></trkpt><trkpt lat="42.26299192144461" lon="12.15861608531018"><ele>429.0</ele><time>2026-04-03T15:05:28Z</time></trkpt><trkpt lat="42.263106344275286" lon="12.158481411642907"><ele>430.0</ele><time>2026-04-03T15:05:29Z</time></trkpt><trkpt lat="42.263235481934274" lon="12.158359441133515"><ele>431.0</ele><time>2026-04-03T15:05:30Z</time></trkpt><trkpt lat="42.26337537563453" lon="12.15823832490128"><ele>432.0</ele><time>2026-04-03T15:05:31Z</time></trkpt><trkpt lat="42.26351926605925" lon="12.158116780181974"><ele>432.33333333333337</ele><time>2026-04-03T15:05:32Z</time></trkpt><trkpt lat="42.263655524915194" lon="12.157992976638662"><ele>432.6666666666667</ele><time>2026-04-03T15:05:33Z</time></trkpt><trkpt lat="42.26378712117835" lon="12.157865606679733"><ele>433.0</ele><time>2026-04-03T15:05:34Z</time></trkpt><trkpt lat="42.26391394000314" lon="12.157736116877437"><ele>433.33333333333337</ele><time>2026-04-03T15:05:35Z</time></trkpt><trkpt lat="42.264037578209" lon="12.157597559619816"><ele>433.66666666666663</ele><time>2026-04-03T15:05:36Z</time></trkpt><trkpt lat="42.26416850053449" lon="12.157441796593403"><ele>434.0</ele><time>2026-04-03T15:05:37Z</time></trkpt><trkpt lat="42.26430655173591" lon="12.15728828498311"><ele>434.0</ele><time>2026-04-03T15:05:38Z</time></trkpt><trkpt lat="42.26444245301221" lon="12.157136400726804"><ele>434.0</ele><time>2026-04-03T15:05:39Z</time></trkpt><trkpt lat="42.264581354233506" lon="12.156979452330093"><ele>434.0</ele><time>2026-04-03T15:05:40Z</time></trkpt><trkpt lat="42.26472392169172" lon="12.156813704216027"><ele>435.3333333333333</ele><time>2026-04-03T15:05:41Z</time></trkpt><trkpt lat="42.26487137920809" lon="12.156625685600789"><ele>436.66666666666663</ele><time>2026-04-03T15:05:42Z</time></trkpt><trkpt lat="42.26503491655708" lon="12.156428076838408"><ele>438.0</ele><time>2026-04-03T15:05:43Z</time></trkpt><trkpt lat="42.26521548725037" lon="12.156232119559954"><ele>438.5</ele><time>2026-04-03T15:05:44Z</time></trkpt><trkpt lat="42.26540458459799" lon="12.15602935231829"><ele>439.0</ele><time>2026-04-03T15:05:45Z</time></trkpt><trkpt lat="42.26559918446095" lon="12.155823571286005"><ele>441.33333333333337</ele><time>2026-04-03T15:05:46Z</time></trkpt><trkpt lat="42.26578553432943" lon="12.155629405116967"><ele>443.66666666666663</ele><time>2026-04-03T15:05:47Z</time></trkpt><trkpt lat="42.265951559944135" lon="12.155455462862799"><ele>446.0</ele><time>2026-04-03T15:05:48Z</time></trkpt><trkpt lat="42.266105362246485" lon="12.155289241004484"><ele>446.0</ele><time>2026-04-03T15:05:49Z</time></trkpt><trkpt lat="42.26624701598014" lon="12.155125038529617"><ele>446.0</ele><time>2026-04-03T15:05:50Z</time></trkpt><trkpt lat="42.26639755197896" lon="12.154953743824011"><ele>446.0</ele><time>2026-04-03T15:05:51Z</time></trkpt><trkpt lat="42.26654081506938" lon="12.154789223087924"><ele>447.3333333333333</ele><time>2026-04-03T15:05:52Z</time></trkpt><trkpt lat="42.26668053154228" lon="12.154634902986766"><ele>448.66666666666663</ele><time>2026-04-03T15:05:53Z</time></trkpt><trkpt lat="42.26681484105976" lon="12.154476285234535"><ele>450.0</ele><time>2026-04-03T15:05:53.999Z</time></trkpt><trkpt lat="42.26694760983844" lon="12.15431967339556"><ele>450.0</ele><time>2026-04-03T15:05:54.999Z</time></trkpt><trkpt lat="42.26708604031699" lon="12.154176868023388"><ele>450.0</ele><time>2026-04-03T15:05:55.999Z</time></trkpt><trkpt lat="42.2672251971414" lon="12.154038983920483"><ele>450.0</ele><time>2026-04-03T15:05:56.999Z</time></trkpt><trkpt lat="42.267363557525094" lon="12.153909108955997"><ele>450.33333333333337</ele><time>2026-04-03T15:05:57.999Z</time></trkpt><trkpt lat="42.26750338665025" lon="12.153780254662646"><ele>450.6666666666667</ele><time>2026-04-03T15:05:58.999Z</time></trkpt><trkpt lat="42.26763852099216" lon="12.153631492322992"><ele>451.0</ele><time>2026-04-03T15:05:59.999Z</time></trkpt><trkpt lat="42.26777895159635" lon="12.153487360290217"><ele>451.0</ele><time>2026-04-03T15:06:00.999Z</time></trkpt><trkpt lat="42.2679162189662" lon="12.153335035106043"><ele>451.0</ele><time>2026-04-03T15:06:01.999Z</time></trkpt><trkpt lat="42.26805319647871" lon="12.153176919188523"><ele>451.0</ele><time>2026-04-03T15:06:02.999Z</time></trkpt><trkpt lat="42.268191215076" lon="12.153014002105643"><ele>452.6666666666667</ele><time>2026-04-03T15:06:03.999Z</time></trkpt><trkpt lat="42.26832169356454" lon="12.152838345539262"><ele>454.33333333333337</ele><time>2026-04-03T15:06:04.999Z</time></trkpt><trkpt lat="42.26844729115211" lon="12.152654759484275"><ele>456.0</ele><time>2026-04-03T15:06:05.999Z</time></trkpt><trkpt lat="42.26856537525121" lon="12.152464644938878"><ele>456.33333333333337</ele><time>2026-04-03T15:06:06.999Z</time></trkpt><trkpt lat="42.268677474069634" lon="12.152275662282397"><ele>456.6666666666667</ele><time>2026-04-03T15:06:07.999Z</time></trkpt><trkpt lat="42.26878199823535" lon="12.152091770218714"><ele>457.0</ele><time>2026-04-03T15:06:08.999Z</time></trkpt><trkpt lat="42.26887819419552" lon="12.151904485001385"><ele>458.33333333333337</ele><time>2026-04-03T15:06:09.999Z</time></trkpt><trkpt lat="42.268965776174916" lon="12.15171090545146"><ele>459.66666666666663</ele><time>2026-04-03T15:06:10.999Z</time></trkpt><trkpt lat="42.26904285149777" lon="12.151525597900873"><ele>461.0</ele><time>2026-04-03T15:06:11.999Z</time></trkpt><trkpt lat="42.26910122844864" lon="12.151331341567166"><ele>461.0</ele><time>2026-04-03T15:06:12.999Z</time></trkpt><trkpt lat="42.26915347834894" lon="12.15114280511059"><ele>461.0</ele><time>2026-04-03T15:06:13.999Z</time></trkpt><trkpt lat="42.26921219571726" lon="12.150964300024182"><ele>461.0</ele><time>2026-04-03T15:06:14.999Z</time></trkpt><trkpt lat="42.2692795197685" lon="12.15079950250757"><ele>461.0</ele><time>2026-04-03T15:06:15.999Z</time></trkpt><trkpt lat="42.26936974983102" lon="12.15062462422305"><ele>459.3333333333333</ele><time>2026-04-03T15:06:16.999Z</time></trkpt><trkpt lat="42.269482191115884" lon="12.150450363976045"><ele>457.66666666666663</ele><time>2026-04-03T15:06:17.999Z</time></trkpt><trkpt lat="42.269609640796396" lon="12.15027925392262"><ele>456.0</ele><time>2026-04-03T15:06:18.999Z</time></trkpt><trkpt lat="42.269737926225034" lon="12.150119349335958"><ele>457.0</ele><time>2026-04-03T15:06:19.999Z</time></trkpt><trkpt lat="42.26985807868051" lon="12.149971977160451"><ele>458.0</ele><time>2026-04-03T15:06:20.999Z</time></trkpt><trkpt lat="42.269980207047524" lon="12.149833270462437"><ele>459.0</ele><time>2026-04-03T15:06:21.999Z</time></trkpt><trkpt lat="42.270109720028074" lon="12.149686527769987"><ele>459.0</ele><time>2026-04-03T15:06:22.999Z</time></trkpt><trkpt lat="42.270243133613384" lon="12.149541922301175"><ele>459.0</ele><time>2026-04-03T15:06:23.999Z</time></trkpt><trkpt lat="42.270377862089234" lon="12.14939868075303"><ele>459.0</ele><time>2026-04-03T15:06:24.999Z</time></trkpt><trkpt lat="42.270512007398146" lon="12.149254027213773"><ele>460.33333333333337</ele><time>2026-04-03T15:06:25.999Z</time></trkpt><trkpt lat="42.27064414251658" lon="12.149118205297798"><ele>461.6666666666667</ele><time>2026-04-03T15:06:26.999Z</time></trkpt><trkpt lat="42.27079121566389" lon="12.148975385194198"><ele>463.0</ele><time>2026-04-03T15:06:27.999Z</time></trkpt><trkpt lat="42.27094318144048" lon="12.148833500020533"><ele>463.0</ele><time>2026-04-03T15:06:28.999Z</time></trkpt><trkpt lat="42.27109114956821" lon="12.148690157724634"><ele>463.0</ele><time>2026-04-03T15:06:29.999Z</time></trkpt><trkpt lat="42.271229937681966" lon="12.148542840759273"><ele>463.0</ele><time>2026-04-03T15:06:30.999Z</time></trkpt><trkpt lat="42.271361653194035" lon="12.14839136386166"><ele>462.6666666666667</ele><time>2026-04-03T15:06:31.999Z</time></trkpt><trkpt lat="42.27148550349081" lon="12.14823480944065"><ele>462.33333333333337</ele><time>2026-04-03T15:06:32.999Z</time></trkpt><trkpt lat="42.271608213097785" lon="12.148066908571648"><ele>462.0</ele><time>2026-04-03T15:06:33.999Z</time></trkpt><trkpt lat="42.2717258839743" lon="12.147898314443534"><ele>462.0</ele><time>2026-04-03T15:06:34.999Z</time></trkpt><trkpt lat="42.271830199772836" lon="12.147745785643774"><ele>462.0</ele><time>2026-04-03T15:06:35.999Z</time></trkpt><trkpt lat="42.27192526179185" lon="12.14759760145731"><ele>462.0</ele><time>2026-04-03T15:06:36.999Z</time></trkpt><trkpt lat="42.27201413460716" lon="12.147461740743196"><ele>462.0</ele><time>2026-04-03T15:06:37.999Z</time></trkpt><trkpt lat="42.272098789300436" lon="12.147330480322841"><ele>460.25</ele><time>2026-04-03T15:06:38.999Z</time></trkpt><trkpt lat="42.272183070862596" lon="12.147199994530999"><ele>458.5</ele><time>2026-04-03T15:06:39.999Z</time></trkpt><trkpt lat="42.27227543956232" lon="12.147050514539597"><ele>456.75</ele><time>2026-04-03T15:06:40.999Z</time></trkpt><trkpt lat="42.272366685634644" lon="12.146901381189208"><ele>455.0</ele><time>2026-04-03T15:06:41.999Z</time></trkpt><trkpt lat="42.272453947939624" lon="12.146763291538203"><ele>455.0</ele><time>2026-04-03T15:06:42.999Z</time></trkpt><trkpt lat="42.27254096031843" lon="12.14662306584118"><ele>455.0</ele><time>2026-04-03T15:06:43.999Z</time></trkpt><trkpt lat="42.27263239808909" lon="12.146478826594286"><ele>455.0</ele><time>2026-04-03T15:06:44.999Z</time></trkpt><trkpt lat="42.2727241650327" lon="12.146332838086925"><ele>455.0</ele><time>2026-04-03T15:06:45.999Z</time></trkpt><trkpt lat="42.27282383029828" lon="12.146160101472843"><ele>454.3333333333333</ele><time>2026-04-03T15:06:46.999Z</time></trkpt><trkpt lat="42.2729378056569" lon="12.145961131435046"><ele>453.66666666666663</ele><time>2026-04-03T15:06:47.999Z</time></trkpt><trkpt lat="42.27307136472891" lon="12.14574680687937"><ele>453.0</ele><time>2026-04-03T15:06:48.999Z</time></trkpt><trkpt lat="42.27321718258685" lon="12.145530175052539"><ele>455.66666666666663</ele><time>2026-04-03T15:06:49.999Z</time></trkpt><trkpt lat="42.2733683084138" lon="12.145303906432229"><ele>458.3333333333333</ele><time>2026-04-03T15:06:50.999Z</time></trkpt><trkpt lat="42.27350565340777" lon="12.145094334740033"><ele>461.0</ele><time>2026-04-03T15:06:51.999Z</time></trkpt><trkpt lat="42.2736281695859" lon="12.14489438275582"><ele>462.3333333333333</ele><time>2026-04-03T15:06:52.999Z</time></trkpt><trkpt lat="42.27374515774464" lon="12.144705315722474"><ele>463.66666666666663</ele><time>2026-04-03T15:06:53.999Z</time></trkpt><trkpt lat="42.27386638872572" lon="12.144511727369643"><ele>465.0</ele><time>2026-04-03T15:06:54.999Z</time></trkpt><trkpt lat="42.273981093175614" lon="12.14433041629842"><ele>465.0</ele><time>2026-04-03T15:06:55.999Z</time></trkpt><trkpt lat="42.274093244570366" lon="12.14414888784657"><ele>465.0</ele><time>2026-04-03T15:06:56.999Z</time></trkpt><trkpt lat="42.27421419759975" lon="12.143959538692929"><ele>465.0</ele><time>2026-04-03T15:06:57.999Z</time></trkpt><trkpt lat="42.27434583599403" lon="12.143769591572044"><ele>464.33333333333337</ele><time>2026-04-03T15:06:59Z</time></trkpt><trkpt lat="42.274480847899845" lon="12.143583786935357"><ele>463.6666666666667</ele><time>2026-04-03T15:07:00Z</time></trkpt><trkpt lat="42.274618044693476" lon="12.143407392361276"><ele>463.0</ele><time>2026-04-03T15:07:01Z</time></trkpt><trkpt lat="42.2747577116499" lon="12.143242748940434"><ele>463.33333333333337</ele><time>2026-04-03T15:07:02Z</time></trkpt><trkpt lat="42.27490000161224" lon="12.143084611259852"><ele>463.66666666666663</ele><time>2026-04-03T15:07:03Z</time></trkpt><trkpt lat="42.27504355294335" lon="12.142937883814328"><ele>464.0</ele><time>2026-04-03T15:07:04Z</time></trkpt><trkpt lat="42.275187335426885" lon="12.14279347181677"><ele>464.0</ele><time>2026-04-03T15:07:05Z</time></trkpt><trkpt lat="42.27533286355622" lon="12.142658779035033"><ele>464.0</ele><time>2026-04-03T15:07:06Z</time></trkpt><trkpt lat="42.275476417465214" lon="12.142533834693063"><ele>464.0</ele><time>2026-04-03T15:07:07Z</time></trkpt><trkpt lat="42.275614412222325" lon="12.142418329708917"><ele>465.66666666666663</ele><time>2026-04-03T15:07:08Z</time></trkpt><trkpt lat="42.275749929992735" lon="12.142309429955063"><ele>467.33333333333337</ele><time>2026-04-03T15:07:09Z</time></trkpt><trkpt lat="42.27589103437809" lon="12.142202615953153"><ele>469.0</ele><time>2026-04-03T15:07:10Z</time></trkpt><trkpt lat="42.27603609507068" lon="12.142093185366797"><ele>469.0</ele><time>2026-04-03T15:07:11Z</time></trkpt><trkpt lat="42.2761903068082" lon="12.141983069834634"><ele>469.0</ele><time>2026-04-03T15:07:12Z</time></trkpt><trkpt lat="42.276341142360415" lon="12.141880835476647"><ele>469.0</ele><time>2026-04-03T15:07:13Z</time></trkpt><trkpt lat="42.27648332873582" lon="12.14179238258279"><ele>469.33333333333337</ele><time>2026-04-03T15:07:14Z</time></trkpt><trkpt lat="42.27661884664209" lon="12.141699143512081"><ele>469.66666666666663</ele><time>2026-04-03T15:07:15Z</time></trkpt><trkpt lat="42.276753296753" lon="12.141603616279827"><ele>470.0</ele><time>2026-04-03T15:07:16Z</time></trkpt><trkpt lat="42.27689785943877" lon="12.141508053152295"><ele>470.0</ele><time>2026-04-03T15:07:17Z</time></trkpt><trkpt lat="42.277041507262126" lon="12.141412549818403"><ele>470.0</ele><time>2026-04-03T15:07:18Z</time></trkpt><trkpt lat="42.27718301640486" lon="12.141315600609719"><ele>470.0</ele><time>2026-04-03T15:07:19Z</time></trkpt><trkpt lat="42.27733140184312" lon="12.141219639125838"><ele>469.3333333333333</ele><time>2026-04-03T15:07:20Z</time></trkpt><trkpt lat="42.27748100600392" lon="12.141121509701255"><ele>468.66666666666663</ele><time>2026-04-03T15:07:21Z</time></trkpt><trkpt lat="42.277634049644625" lon="12.141020991092201"><ele>468.0</ele><time>2026-04-03T15:07:22Z</time></trkpt><trkpt lat="42.27777816099351" lon="12.140908775843105"><ele>468.0</ele><time>2026-04-03T15:07:23Z</time></trkpt><trkpt lat="42.27791152984918" lon="12.140796190863249"><ele>468.0</ele><time>2026-04-03T15:07:24Z</time></trkpt><trkpt lat="42.27805195207621" lon="12.14066647165885"><ele>468.0</ele><time>2026-04-03T15:07:25Z</time></trkpt><trkpt lat="42.27819330634158" lon="12.140518677873397"><ele>465.66666666666663</ele><time>2026-04-03T15:07:26Z</time></trkpt><trkpt lat="42.27833075239297" lon="12.140360019360138"><ele>463.3333333333333</ele><time>2026-04-03T15:07:27Z</time></trkpt><trkpt lat="42.278457599600195" lon="12.140212128511163"><ele>461.0</ele><time>2026-04-03T15:07:28Z</time></trkpt><trkpt lat="42.27859632428239" lon="12.140051108376817"><ele>461.3333333333333</ele><time>2026-04-03T15:07:29Z</time></trkpt><trkpt lat="42.278743450669666" lon="12.139873818122092"><ele>461.66666666666663</ele><time>2026-04-03T15:07:30Z</time></trkpt><trkpt lat="42.27889508954746" lon="12.139682884154713"><ele>462.0</ele><time>2026-04-03T15:07:31Z</time></trkpt><trkpt lat="42.27906026434602" lon="12.139476626373414"><ele>463.5</ele><time>2026-04-03T15:07:32Z</time></trkpt><trkpt lat="42.27923630487848" lon="12.139264925923005"><ele>465.0</ele><time>2026-04-03T15:07:33Z</time></trkpt><trkpt lat="42.27942339871602" lon="12.139046102545855"><ele>465.0</ele><time>2026-04-03T15:07:34Z</time></trkpt><trkpt lat="42.2796222887132" lon="12.138825312461154"><ele>465.0</ele><time>2026-04-03T15:07:35Z</time></trkpt><trkpt lat="42.27982059138974" lon="12.138601802048347"><ele>466.5</ele><time>2026-04-03T15:07:36Z</time></trkpt><trkpt lat="42.280005209775524" lon="12.138377903378194"><ele>468.0</ele><time>2026-04-03T15:07:37Z</time></trkpt><trkpt lat="42.2801799650189" lon="12.13816113132982"><ele>468.0</ele><time>2026-04-03T15:07:38Z</time></trkpt><trkpt lat="42.28034366794516" lon="12.137947538318308"><ele>468.0</ele><time>2026-04-03T15:07:39Z</time></trkpt><trkpt lat="42.28050642815709" lon="12.137735032821496"><ele>469.33333333333337</ele><time>2026-04-03T15:07:40Z</time></trkpt><trkpt lat="42.28066043658387" lon="12.137521921209354"><ele>470.6666666666667</ele><time>2026-04-03T15:07:41Z</time></trkpt><trkpt lat="42.28080151631995" lon="12.13731154575616"><ele>472.0</ele><time>2026-04-03T15:07:42Z</time></trkpt><trkpt lat="42.280936837382065" lon="12.137100520779851"><ele>473.33333333333337</ele><time>2026-04-03T15:07:43Z</time></trkpt><trkpt lat="42.281067315823684" lon="12.136885105823522"><ele>474.66666666666663</ele><time>2026-04-03T15:07:44Z</time></trkpt><trkpt lat="42.28119424909767" lon="12.136662763351975"><ele>476.0</ele><time>2026-04-03T15:07:45Z</time></trkpt><trkpt lat="42.28132253901941" lon="12.136428954450937"><ele>478.66666666666663</ele><time>2026-04-03T15:07:46Z</time></trkpt><trkpt lat="42.28144585357327" lon="12.136192883677186"><ele>481.33333333333337</ele><time>2026-04-03T15:07:47Z</time></trkpt><trkpt lat="42.28156322598818" lon="12.135960299913112"><ele>484.0</ele><time>2026-04-03T15:07:48Z</time></trkpt><trkpt lat="42.28166704009538" lon="12.135735075167892"><ele>484.0</ele><time>2026-04-03T15:07:49Z</time></trkpt><trkpt lat="42.28176549282956" lon="12.1355314106406"><ele>484.0</ele><time>2026-04-03T15:07:50Z</time></trkpt><trkpt lat="42.281857620415785" lon="12.135343836758436"><ele>484.0</ele><time>2026-04-03T15:07:51Z</time></trkpt><trkpt lat="42.28193744069854" lon="12.135164889981493"><ele>484.0</ele><time>2026-04-03T15:07:52Z</time></trkpt><trkpt lat="42.28201321635035" lon="12.135000371657817"><ele>484.0</ele><time>2026-04-03T15:07:53Z</time></trkpt><trkpt lat="42.282082830670014" lon="12.134851819709246"><ele>484.0</ele><time>2026-04-03T15:07:54Z</time></trkpt><trkpt lat="42.282142279989" lon="12.134724980317463"><ele>484.0</ele><time>2026-04-03T15:07:55Z</time></trkpt><trkpt lat="42.28219226687244" lon="12.134615038483194"><ele>484.00000000000006</ele><time>2026-04-03T15:07:56Z</time></trkpt><trkpt lat="42.28223242250719" lon="12.134523347216385"><ele>484.0</ele><time>2026-04-03T15:07:57Z</time></trkpt><trkpt lat="42.282267188374156" lon="12.134443876378365"><ele>484.0</ele><time>2026-04-03T15:07:58Z</time></trkpt><trkpt lat="42.28232054049192" lon="12.134335764370311"><ele>484.0</ele><time>2026-04-03T15:08:00Z</time></trkpt><trkpt lat="42.28239621476936" lon="12.134240138092606"><ele>484.00000000000006</ele><time>2026-04-03T15:08:02Z</time></trkpt><trkpt lat="42.28245338430137" lon="12.134201173663836"><ele>484.0</ele><time>2026-04-03T15:08:03Z</time></trkpt><trkpt lat="42.282523003272544" lon="12.13405034415015"><ele>483.79999999999995</ele><time>2026-04-03T15:08:05Z</time></trkpt><trkpt lat="42.28257096934997" lon="12.133946366198177"><ele>483.59999999999997</ele><time>2026-04-03T15:08:06Z</time></trkpt><trkpt lat="42.2826133894402" lon="12.133831053223679"><ele>483.4</ele><time>2026-04-03T15:08:07Z</time></trkpt><trkpt lat="42.28262250757244" lon="12.133699569143317"><ele>483.2</ele><time>2026-04-03T15:08:08Z</time></trkpt><trkpt lat="42.282654512499036" lon="12.133569670448054"><ele>483.0</ele><time>2026-04-03T15:08:08.999Z</time></trkpt><trkpt lat="42.282704129922465" lon="12.133419181109902"><ele>483.0</ele><time>2026-04-03T15:08:09.999Z</time></trkpt><trkpt lat="42.28279427986479" lon="12.133248978187392"><ele>483.0</ele><time>2026-04-03T15:08:10.999Z</time></trkpt><trkpt lat="42.28287671178815" lon="12.133042463969513"><ele>483.0</ele><time>2026-04-03T15:08:11.999Z</time></trkpt><trkpt lat="42.28296175584042" lon="12.132818078813813"><ele>482.33333333333337</ele><time>2026-04-03T15:08:12.999Z</time></trkpt><trkpt lat="42.283052123723785" lon="12.13257867156007"><ele>481.6666666666667</ele><time>2026-04-03T15:08:13.999Z</time></trkpt><trkpt lat="42.283152202780705" lon="12.132313537181927"><ele>481.0</ele><time>2026-04-03T15:08:14.999Z</time></trkpt><trkpt lat="42.2832497147997" lon="12.13201937472942"><ele>480.5</ele><time>2026-04-03T15:08:15.999Z</time></trkpt><trkpt lat="42.28336907709454" lon="12.13171352030821"><ele>480.0</ele><time>2026-04-03T15:08:16.999Z</time></trkpt><trkpt lat="42.2835001383429" lon="12.131406610283355"><ele>478.0</ele><time>2026-04-03T15:08:17.999Z</time></trkpt><trkpt lat="42.283624124476354" lon="12.131123616419835"><ele>476.0</ele><time>2026-04-03T15:08:18.999Z</time></trkpt><trkpt lat="42.28373526193865" lon="12.13085112789762"><ele>475.66666666666663</ele><time>2026-04-03T15:08:19.999Z</time></trkpt><trkpt lat="42.28384173673514" lon="12.130584816893583"><ele>475.33333333333337</ele><time>2026-04-03T15:08:20.999Z</time></trkpt><trkpt lat="42.2839546301479" lon="12.130324828071466"><ele>475.0</ele><time>2026-04-03T15:08:21.999Z</time></trkpt><trkpt lat="42.28406310951715" lon="12.130071399333334"><ele>474.0</ele><time>2026-04-03T15:08:22.999Z</time></trkpt><trkpt lat="42.28416657297456" lon="12.129831021532913"><ele>473.0</ele><time>2026-04-03T15:08:23.999Z</time></trkpt><trkpt lat="42.28427233711418" lon="12.129565149037512"><ele>472.0</ele><time>2026-04-03T15:08:24.999Z</time></trkpt><trkpt lat="42.28440254119366" lon="12.129291812932006"><ele>471.5</ele><time>2026-04-03T15:08:25.999Z</time></trkpt><trkpt lat="42.284528013490444" lon="12.128990407583974"><ele>471.0</ele><time>2026-04-03T15:08:26.999Z</time></trkpt><trkpt lat="42.28465979279962" lon="12.128676847465478"><ele>471.0</ele><time>2026-04-03T15:08:27.999Z</time></trkpt><trkpt lat="42.28478949971529" lon="12.128369104441518"><ele>471.0</ele><time>2026-04-03T15:08:28.999Z</time></trkpt><trkpt lat="42.28491066471886" lon="12.128081627978176"><ele>471.0</ele><time>2026-04-03T15:08:29.999Z</time></trkpt><trkpt lat="42.28502246917736" lon="12.12781636037819"><ele>471.0</ele><time>2026-04-03T15:08:30.999Z</time></trkpt><trkpt lat="42.28512701646487" lon="12.127558552454893"><ele>471.0</ele><time>2026-04-03T15:08:31.999Z</time></trkpt><trkpt lat="42.2852356023906" lon="12.127309973545701"><ele>471.0</ele><time>2026-04-03T15:08:32.999Z</time></trkpt><trkpt lat="42.285340829296494" lon="12.127058366665318"><ele>471.0</ele><time>2026-04-03T15:08:33.999Z</time></trkpt><trkpt lat="42.2854442541498" lon="12.126804285962342"><ele>471.0</ele><time>2026-04-03T15:08:34.999Z</time></trkpt><trkpt lat="42.285548519786204" lon="12.126545769856103"><ele>470.33333333333337</ele><time>2026-04-03T15:08:35.999Z</time></trkpt><trkpt lat="42.2856524340062" lon="12.126303173975552"><ele>469.6666666666667</ele><time>2026-04-03T15:08:36.999Z</time></trkpt><trkpt lat="42.28575187916248" lon="12.1260634371421"><ele>469.0</ele><time>2026-04-03T15:08:37.999Z</time></trkpt><trkpt lat="42.28584439229275" lon="12.125823707168204"><ele>469.33333333333337</ele><time>2026-04-03T15:08:38.999Z</time></trkpt><trkpt lat="42.285935933695995" lon="12.125593559799983"><ele>469.66666666666663</ele><time>2026-04-03T15:08:39.999Z</time></trkpt><trkpt lat="42.286029451773295" lon="12.12536871405652"><ele>470.0</ele><time>2026-04-03T15:08:40.999Z</time></trkpt><trkpt lat="42.28611677392293" lon="12.125139246910042"><ele>470.0</ele><time>2026-04-03T15:08:41.999Z</time></trkpt><trkpt lat="42.28618507065184" lon="12.124919566996898"><ele>470.0</ele><time>2026-04-03T15:08:42.999Z</time></trkpt><trkpt lat="42.28624295076692" lon="12.124702955398963"><ele>470.0</ele><time>2026-04-03T15:08:43.999Z</time></trkpt><trkpt lat="42.28629759202569" lon="12.124482863133347"><ele>470.66666666666663</ele><time>2026-04-03T15:08:44.999Z</time></trkpt><trkpt lat="42.2863527395786" lon="12.124259156650295"><ele>471.33333333333337</ele><time>2026-04-03T15:08:45.999Z</time></trkpt><trkpt lat="42.28642258765527" lon="12.124034154789925"><ele>472.0</ele><time>2026-04-03T15:08:46.999Z</time></trkpt><trkpt lat="42.28651407965545" lon="12.123806662149844"><ele>472.0</ele><time>2026-04-03T15:08:47.999Z</time></trkpt><trkpt lat="42.28662521545466" lon="12.123591187061425"><ele>472.0</ele><time>2026-04-03T15:08:48.999Z</time></trkpt><trkpt lat="42.28674575503595" lon="12.123396266146713"><ele>472.0</ele><time>2026-04-03T15:08:49.999Z</time></trkpt><trkpt lat="42.28687382337368" lon="12.123214630120488"><ele>472.0</ele><time>2026-04-03T15:08:50.999Z</time></trkpt><trkpt lat="42.28700497547877" lon="12.123037897086972"><ele>472.0</ele><time>2026-04-03T15:08:51.999Z</time></trkpt><trkpt lat="42.28713562093608" lon="12.122859038845068"><ele>472.0</ele><time>2026-04-03T15:08:52.999Z</time></trkpt><trkpt lat="42.28726189326505" lon="12.122683095440003"><ele>472.6666666666667</ele><time>2026-04-03T15:08:53.999Z</time></trkpt><trkpt lat="42.287382740552445" lon="12.122508154080313"><ele>473.33333333333337</ele><time>2026-04-03T15:08:54.999Z</time></trkpt><trkpt lat="42.28750556300208" lon="12.122340428601905"><ele>474.0</ele><time>2026-04-03T15:08:55.999Z</time></trkpt><trkpt lat="42.28761968842068" lon="12.122168437128394"><ele>474.66666666666663</ele><time>2026-04-03T15:08:56.999Z</time></trkpt><trkpt lat="42.287729733922944" lon="12.121992646401232"><ele>475.3333333333333</ele><time>2026-04-03T15:08:57.999Z</time></trkpt><trkpt lat="42.28784374384088" lon="12.121808283036719"><ele>476.0</ele><time>2026-04-03T15:08:58.999Z</time></trkpt><trkpt lat="42.287960461891124" lon="12.121619532061594"><ele>476.0</ele><time>2026-04-03T15:08:59.999Z</time></trkpt><trkpt lat="42.28807828640332" lon="12.121427973896962"><ele>476.0</ele><time>2026-04-03T15:09:00.999Z</time></trkpt><trkpt lat="42.288196130157125" lon="12.121239644140566"><ele>476.0</ele><time>2026-04-03T15:09:01.999Z</time></trkpt><trkpt lat="42.28831210920418" lon="12.121049752199186"><ele>476.0</ele><time>2026-04-03T15:09:02.999Z</time></trkpt><trkpt lat="42.28843058400481" lon="12.120857052920853"><ele>476.0</ele><time>2026-04-03T15:09:03.999Z</time></trkpt><trkpt lat="42.28855253625545" lon="12.120658961215055"><ele>476.0</ele><time>2026-04-03T15:09:05Z</time></trkpt><trkpt lat="42.28867382461158" lon="12.120454489023112"><ele>476.3333333333333</ele><time>2026-04-03T15:09:06Z</time></trkpt><trkpt lat="42.28879364523626" lon="12.120254171016944"><ele>476.66666666666663</ele><time>2026-04-03T15:09:07Z</time></trkpt><trkpt lat="42.28891137472826" lon="12.120061101133684"><ele>477.0</ele><time>2026-04-03T15:09:08Z</time></trkpt><trkpt lat="42.289023642007635" lon="12.119866634473698"><ele>477.0</ele><time>2026-04-03T15:09:09Z</time></trkpt><trkpt lat="42.28913216982664" lon="12.119672874459134"><ele>477.0</ele><time>2026-04-03T15:09:10Z</time></trkpt><trkpt lat="42.28923625641768" lon="12.11947193365841"><ele>477.0</ele><time>2026-04-03T15:09:11Z</time></trkpt><trkpt lat="42.28933420493197" lon="12.1192636213137"><ele>476.0</ele><time>2026-04-03T15:09:12Z</time></trkpt><trkpt lat="42.289428383796086" lon="12.119051015036026"><ele>475.0</ele><time>2026-04-03T15:09:13Z</time></trkpt><trkpt lat="42.2895141743956" lon="12.118837765511245"><ele>474.0</ele><time>2026-04-03T15:09:14Z</time></trkpt><trkpt lat="42.28959454008258" lon="12.118624010220818"><ele>474.0</ele><time>2026-04-03T15:09:15Z</time></trkpt><trkpt lat="42.289673779361266" lon="12.118404769248777"><ele>474.0</ele><time>2026-04-03T15:09:16Z</time></trkpt><trkpt lat="42.28975384572182" lon="12.118185853577051"><ele>474.0</ele><time>2026-04-03T15:09:17Z</time></trkpt><trkpt lat="42.28983513161181" lon="12.1179628354131"><ele>473.33333333333337</ele><time>2026-04-03T15:09:18Z</time></trkpt><trkpt lat="42.2899115007569" lon="12.117743630189922"><ele>472.6666666666667</ele><time>2026-04-03T15:09:19Z</time></trkpt><trkpt lat="42.28998619529847" lon="12.117529261566288"><ele>472.0</ele><time>2026-04-03T15:09:20Z</time></trkpt><trkpt lat="42.290062095272326" lon="12.117309704622079"><ele>471.0</ele><time>2026-04-03T15:09:21Z</time></trkpt><trkpt lat="42.2901367530989" lon="12.117082652838125"><ele>470.0</ele><time>2026-04-03T15:09:22Z</time></trkpt><trkpt lat="42.29020992355457" lon="12.116847297410214"><ele>469.0</ele><time>2026-04-03T15:09:23Z</time></trkpt><trkpt lat="42.2902828635478" lon="12.116604930578129"><ele>468.33333333333337</ele><time>2026-04-03T15:09:24Z</time></trkpt><trkpt lat="42.29035740315622" lon="12.116338403289351"><ele>467.66666666666663</ele><time>2026-04-03T15:09:25Z</time></trkpt><trkpt lat="42.290443562826994" lon="12.116055078019583"><ele>467.0</ele><time>2026-04-03T15:09:26Z</time></trkpt><trkpt lat="42.29051930489136" lon="12.115748239725415"><ele>468.5</ele><time>2026-04-03T15:09:27Z</time></trkpt><trkpt lat="42.29059313719715" lon="12.1154257241896"><ele>470.0</ele><time>2026-04-03T15:09:28Z</time></trkpt><trkpt lat="42.290663107445035" lon="12.115098863799323"><ele>468.5</ele><time>2026-04-03T15:09:29Z</time></trkpt><trkpt lat="42.29072788538004" lon="12.114791339895982"><ele>467.0</ele><time>2026-04-03T15:09:30Z</time></trkpt><trkpt lat="42.29078714893069" lon="12.114509994788804"><ele>467.0</ele><time>2026-04-03T15:09:31Z</time></trkpt><trkpt lat="42.29084113215154" lon="12.114253717252296"><ele>467.0</ele><time>2026-04-03T15:09:32Z</time></trkpt><trkpt lat="42.29089281124711" lon="12.114008248096845"><ele>467.0</ele><time>2026-04-03T15:09:33Z</time></trkpt><trkpt lat="42.290948763819564" lon="12.113687820915326"><ele>466.3333333333333</ele><time>2026-04-03T15:09:34Z</time></trkpt><trkpt lat="42.29099717854925" lon="12.11345173799041"><ele>465.66666666666663</ele><time>2026-04-03T15:09:35Z</time></trkpt><trkpt lat="42.29104652880238" lon="12.113216631970218"><ele>465.0</ele><time>2026-04-03T15:09:36Z</time></trkpt><trkpt lat="42.291091345355085" lon="12.11298744756698"><ele>464.66666666666663</ele><time>2026-04-03T15:09:37Z</time></trkpt><trkpt lat="42.29115630706113" lon="12.11274924506071"><ele>464.3333333333333</ele><time>2026-04-03T15:09:38Z</time></trkpt><trkpt lat="42.291214072504516" lon="12.112473170648464"><ele>464.0</ele><time>2026-04-03T15:09:39Z</time></trkpt><trkpt lat="42.291273836540654" lon="12.112190739096883"><ele>463.66666666666663</ele><time>2026-04-03T15:09:40Z</time></trkpt><trkpt lat="42.29131513190874" lon="12.111941669206262"><ele>463.33333333333337</ele><time>2026-04-03T15:09:41Z</time></trkpt><trkpt lat="42.291360325272954" lon="12.11175680127415"><ele>463.0</ele><time>2026-04-03T15:09:42Z</time></trkpt><trkpt lat="42.29139715430246" lon="12.111599861562114"><ele>463.2</ele><time>2026-04-03T15:09:43Z</time></trkpt><trkpt lat="42.29143089325736" lon="12.111456579644273"><ele>463.4</ele><time>2026-04-03T15:09:44Z</time></trkpt><trkpt lat="42.291462717974525" lon="12.111316005345374"><ele>463.59999999999997</ele><time>2026-04-03T15:09:45Z</time></trkpt><trkpt lat="42.29148689434132" lon="12.111178812052383"><ele>463.79999999999995</ele><time>2026-04-03T15:09:46Z</time></trkpt><trkpt lat="42.291513496690214" lon="12.111040967255605"><ele>464.0</ele><time>2026-04-03T15:09:47Z</time></trkpt><trkpt lat="42.291545905242174" lon="12.110880548096985"><ele>464.0</ele><time>2026-04-03T15:09:48Z</time></trkpt><trkpt lat="42.29158005958563" lon="12.110708213827893"><ele>464.0</ele><time>2026-04-03T15:09:49Z</time></trkpt><trkpt lat="42.291617579956984" lon="12.110514652491041"><ele>464.0</ele><time>2026-04-03T15:09:50Z</time></trkpt><trkpt lat="42.29166366293995" lon="12.110306463647472"><ele>464.0</ele><time>2026-04-03T15:09:51Z</time></trkpt><trkpt lat="42.29170984015251" lon="12.11009621590395"><ele>463.66666666666663</ele><time>2026-04-03T15:09:52Z</time></trkpt><trkpt lat="42.29175289946749" lon="12.109900941120113"><ele>463.33333333333337</ele><time>2026-04-03T15:09:53Z</time></trkpt><trkpt lat="42.29180073082734" lon="12.109686980732667"><ele>463.0</ele><time>2026-04-03T15:09:54Z</time></trkpt><trkpt lat="42.29184830922869" lon="12.109453819771469"><ele>463.0</ele><time>2026-04-03T15:09:55Z</time></trkpt><trkpt lat="42.29188668755671" lon="12.109248009245723"><ele>463.0</ele><time>2026-04-03T15:09:56Z</time></trkpt><trkpt lat="42.291917872901585" lon="12.109052406300583"><ele>463.0</ele><time>2026-04-03T15:09:57Z</time></trkpt><trkpt lat="42.29196856474709" lon="12.10885217821137"><ele>462.6666666666667</ele><time>2026-04-03T15:09:58Z</time></trkpt><trkpt lat="42.29201051568723" lon="12.108604125647632"><ele>462.33333333333337</ele><time>2026-04-03T15:09:59Z</time></trkpt><trkpt lat="42.29205022439769" lon="12.108337731971327"><ele>462.0</ele><time>2026-04-03T15:10:00Z</time></trkpt><trkpt lat="42.29208533711506" lon="12.108090215688296"><ele>462.0</ele><time>2026-04-03T15:10:01Z</time></trkpt><trkpt lat="42.29211593554991" lon="12.107878297000562"><ele>462.0</ele><time>2026-04-03T15:10:02Z</time></trkpt><trkpt lat="42.29214387955985" lon="12.107684762325748"><ele>462.0</ele><time>2026-04-03T15:10:03Z</time></trkpt><trkpt lat="42.292170126846685" lon="12.107502978822632"><ele>462.0</ele><time>2026-04-03T15:10:04Z</time></trkpt><trkpt lat="42.292183260950246" lon="12.1073201712143"><ele>462.25</ele><time>2026-04-03T15:10:05Z</time></trkpt><trkpt lat="42.292219124550044" lon="12.107130638627256"><ele>462.5</ele><time>2026-04-03T15:10:06Z</time></trkpt><trkpt lat="42.29224793466191" lon="12.10695082134648"><ele>462.75</ele><time>2026-04-03T15:10:07Z</time></trkpt><trkpt lat="42.29227419718026" lon="12.106774109422913"><ele>463.0</ele><time>2026-04-03T15:10:08Z</time></trkpt><trkpt lat="42.29230116014574" lon="12.106601427615475"><ele>462.75</ele><time>2026-04-03T15:10:09Z</time></trkpt><trkpt lat="42.29233679844064" lon="12.10641445954652"><ele>462.5</ele><time>2026-04-03T15:10:09.999Z</time></trkpt><trkpt lat="42.292379324776114" lon="12.106226953997712"><ele>462.25</ele><time>2026-04-03T15:10:10.999Z</time></trkpt><trkpt lat="42.29241560405042" lon="12.106035848771135"><ele>462.0</ele><time>2026-04-03T15:10:11.999Z</time></trkpt><trkpt lat="42.29246041579015" lon="12.105841977834528"><ele>461.25</ele><time>2026-04-03T15:10:12.999Z</time></trkpt><trkpt lat="42.2925118074388" lon="12.105648708144885"><ele>460.5</ele><time>2026-04-03T15:10:13.999Z</time></trkpt><trkpt lat="42.29256994678539" lon="12.10546714862379"><ele>459.75</ele><time>2026-04-03T15:10:14.999Z</time></trkpt><trkpt lat="42.2926336337244" lon="12.105299823376125"><ele>459.0</ele><time>2026-04-03T15:10:15.999Z</time></trkpt><trkpt lat="42.29270698977584" lon="12.105147975746057"><ele>459.0</ele><time>2026-04-03T15:10:16.999Z</time></trkpt><trkpt lat="42.29279095565354" lon="12.10500671907841"><ele>459.0</ele><time>2026-04-03T15:10:17.999Z</time></trkpt><trkpt lat="42.29289594884717" lon="12.104861287489092"><ele>459.0</ele><time>2026-04-03T15:10:18.999Z</time></trkpt><trkpt lat="42.29301068663198" lon="12.104715842229925"><ele>459.0</ele><time>2026-04-03T15:10:19.999Z</time></trkpt><trkpt lat="42.29312274300034" lon="12.104562992976549"><ele>457.66666666666663</ele><time>2026-04-03T15:10:20.999Z</time></trkpt><trkpt lat="42.2932399444322" lon="12.104418538957862"><ele>456.3333333333333</ele><time>2026-04-03T15:10:21.999Z</time></trkpt><trkpt lat="42.29335040311285" lon="12.10428074533213"><ele>455.0</ele><time>2026-04-03T15:10:22.999Z</time></trkpt><trkpt lat="42.29345463550815" lon="12.10415255985057"><ele>455.75</ele><time>2026-04-03T15:10:23.999Z</time></trkpt><trkpt lat="42.29355314613452" lon="12.104030367757757"><ele>456.5</ele><time>2026-04-03T15:10:24.999Z</time></trkpt><trkpt lat="42.29365306007907" lon="12.103911782783001"><ele>457.25</ele><time>2026-04-03T15:10:25.999Z</time></trkpt><trkpt lat="42.293751578930056" lon="12.103785806095262"><ele>458.0</ele><time>2026-04-03T15:10:26.999Z</time></trkpt><trkpt lat="42.29385036183601" lon="12.1036618997877"><ele>456.75</ele><time>2026-04-03T15:10:27.999Z</time></trkpt><trkpt lat="42.293951818199034" lon="12.103533799338429"><ele>455.5</ele><time>2026-04-03T15:10:28.999Z</time></trkpt><trkpt lat="42.29404915022501" lon="12.103400119886574"><ele>454.25</ele><time>2026-04-03T15:10:29.999Z</time></trkpt><trkpt lat="42.29415445468145" lon="12.103258944147742"><ele>453.0</ele><time>2026-04-03T15:10:30.999Z</time></trkpt><trkpt lat="42.2942621720979" lon="12.103120217313997"><ele>453.0</ele><time>2026-04-03T15:10:31.999Z</time></trkpt><trkpt lat="42.294363194587824" lon="12.102981031963074"><ele>453.0</ele><time>2026-04-03T15:10:32.999Z</time></trkpt><trkpt lat="42.29446015467458" lon="12.102845763034898"><ele>453.0</ele><time>2026-04-03T15:10:33.999Z</time></trkpt><trkpt lat="42.29454902416721" lon="12.102715007121335"><ele>453.0</ele><time>2026-04-03T15:10:34.999Z</time></trkpt><trkpt lat="42.294639623852454" lon="12.102580370001807"><ele>453.0</ele><time>2026-04-03T15:10:35.999Z</time></trkpt><trkpt lat="42.29473159919919" lon="12.102444317158726"><ele>453.0</ele><time>2026-04-03T15:10:36.999Z</time></trkpt><trkpt lat="42.294818458522094" lon="12.102316327898722"><ele>453.0</ele><time>2026-04-03T15:10:37.999Z</time></trkpt><trkpt lat="42.29490634680455" lon="12.10218541799043"><ele>453.0</ele><time>2026-04-03T15:10:38.999Z</time></trkpt><trkpt lat="42.29499638734916" lon="12.102051535942216"><ele>452.0</ele><time>2026-04-03T15:10:39.999Z</time></trkpt><trkpt lat="42.29509042816809" lon="12.10191638979861"><ele>451.0</ele><time>2026-04-03T15:10:40.999Z</time></trkpt><trkpt lat="42.29517153681068" lon="12.101788180421403"><ele>450.0</ele><time>2026-04-03T15:10:41.999Z</time></trkpt><trkpt lat="42.295261412878645" lon="12.101663223870057"><ele>449.0</ele><time>2026-04-03T15:10:42.999Z</time></trkpt><trkpt lat="42.295348413573" lon="12.101533453293737"><ele>448.75</ele><time>2026-04-03T15:10:43.999Z</time></trkpt><trkpt lat="42.29544199663226" lon="12.101396670820012"><ele>448.5</ele><time>2026-04-03T15:10:44.999Z</time></trkpt><trkpt lat="42.295537200290354" lon="12.101268559192995"><ele>448.25</ele><time>2026-04-03T15:10:45.999Z</time></trkpt><trkpt lat="42.29563435201641" lon="12.101134745451585"><ele>448.0</ele><time>2026-04-03T15:10:46.999Z</time></trkpt><trkpt lat="42.29573716550212" lon="12.100994849497194"><ele>447.25</ele><time>2026-04-03T15:10:47.999Z</time></trkpt><trkpt lat="42.295841747348625" lon="12.100848709212912"><ele>446.5</ele><time>2026-04-03T15:10:48.999Z</time></trkpt><trkpt lat="42.29595045432825" lon="12.100704540856526"><ele>445.75</ele><time>2026-04-03T15:10:49.999Z</time></trkpt><trkpt lat="42.29605293563458" lon="12.100565537723341"><ele>445.0</ele><time>2026-04-03T15:10:50.999Z</time></trkpt><trkpt lat="42.29615375272586" lon="12.100427710551473"><ele>445.0</ele><time>2026-04-03T15:10:51.999Z</time></trkpt><trkpt lat="42.29625434705903" lon="12.100298111752146"><ele>445.0</ele><time>2026-04-03T15:10:52.999Z</time></trkpt><trkpt lat="42.29635480432496" lon="12.100175543511895"><ele>445.0</ele><time>2026-04-03T15:10:53.999Z</time></trkpt><trkpt lat="42.29646035106505" lon="12.100059793806976"><ele>445.0</ele><time>2026-04-03T15:10:54.999Z</time></trkpt><trkpt lat="42.296572236123964" lon="12.09994928985766"><ele>443.2</ele><time>2026-04-03T15:10:55.999Z</time></trkpt><trkpt lat="42.29667620262403" lon="12.099850400557163"><ele>441.4</ele><time>2026-04-03T15:10:56.999Z</time></trkpt><trkpt lat="42.29676436288689" lon="12.099775582006375"><ele>439.6</ele><time>2026-04-03T15:10:57.999Z</time></trkpt><trkpt lat="42.296843966758544" lon="12.099705297778147"><ele>437.8</ele><time>2026-04-03T15:10:58.999Z</time></trkpt><trkpt lat="42.29691923022933" lon="12.099637804916826"><ele>436.0</ele><time>2026-04-03T15:10:59.999Z</time></trkpt><trkpt lat="42.296988120687885" lon="12.099581216568954"><ele>436.00000000000006</ele><time>2026-04-03T15:11:00.999Z</time></trkpt><trkpt lat="42.29704749579695" lon="12.099540168481555"><ele>436.0</ele><time>2026-04-03T15:11:01.999Z</time></trkpt><trkpt lat="42.29714103308682" lon="12.099476316575881"><ele>436.0</ele><time>2026-04-03T15:11:03.999Z</time></trkpt><trkpt lat="42.297235308662664" lon="12.099436758634555"><ele>436.0</ele><time>2026-04-03T15:11:05.999Z</time></trkpt><trkpt lat="42.2973018779653" lon="12.099437796226509"><ele>436.00000000000006</ele><time>2026-04-03T15:11:06.999Z</time></trkpt><trkpt lat="42.297371375622966" lon="12.099428866293229"><ele>436.0</ele><time>2026-04-03T15:11:07.999Z</time></trkpt><trkpt lat="42.29743405092232" lon="12.099376063414503"><ele>433.8</ele><time>2026-04-03T15:11:08.999Z</time></trkpt><trkpt lat="42.297480766595534" lon="12.09929393652584"><ele>431.6</ele><time>2026-04-03T15:11:09.999Z</time></trkpt><trkpt lat="42.29752536121147" lon="12.099191376229259"><ele>429.4</ele><time>2026-04-03T15:11:11Z</time></trkpt><trkpt lat="42.29759015991305" lon="12.099091617345568"><ele>427.2</ele><time>2026-04-03T15:11:12Z</time></trkpt><trkpt lat="42.297668229575265" lon="12.098994660412204"><ele>425.0</ele><time>2026-04-03T15:11:13Z</time></trkpt><trkpt lat="42.29774733152444" lon="12.098898147495422"><ele>425.0</ele><time>2026-04-03T15:11:14Z</time></trkpt><trkpt lat="42.2978198656874" lon="12.098803563363344"><ele>425.0</ele><time>2026-04-03T15:11:15Z</time></trkpt><trkpt lat="42.29788588329044" lon="12.098718792633393"><ele>425.0</ele><time>2026-04-03T15:11:16Z</time></trkpt><trkpt lat="42.29794992331771" lon="12.098640480021096"><ele>425.0</ele><time>2026-04-03T15:11:17Z</time></trkpt><trkpt lat="42.29801238951727" lon="12.098560483756245"><ele>425.0</ele><time>2026-04-03T15:11:18Z</time></trkpt><trkpt lat="42.29808095276902" lon="12.0984746396787"><ele>423.6</ele><time>2026-04-03T15:11:19Z</time></trkpt><trkpt lat="42.29815974078319" lon="12.098382394633452"><ele>422.2</ele><time>2026-04-03T15:11:20Z</time></trkpt><trkpt lat="42.29824081133826" lon="12.09828188360909"><ele>420.79999999999995</ele><time>2026-04-03T15:11:21Z</time></trkpt><trkpt lat="42.29831533532591" lon="12.098184163548162"><ele>419.4</ele><time>2026-04-03T15:11:22Z</time></trkpt><trkpt lat="42.29839523883676" lon="12.09808542840859"><ele>418.0</ele><time>2026-04-03T15:11:23Z</time></trkpt><trkpt lat="42.29848103637606" lon="12.097988705160466"><ele>417.59999999999997</ele><time>2026-04-03T15:11:24Z</time></trkpt><trkpt lat="42.298562562129426" lon="12.097886618637446"><ele>417.2</ele><time>2026-04-03T15:11:25Z</time></trkpt><trkpt lat="42.29864291194341" lon="12.097789552625688"><ele>416.8</ele><time>2026-04-03T15:11:26Z</time></trkpt><trkpt lat="42.29871813964109" lon="12.097693193559543"><ele>416.4</ele><time>2026-04-03T15:11:27Z</time></trkpt><trkpt lat="42.298792917549285" lon="12.09760195945139"><ele>416.0</ele><time>2026-04-03T15:11:28Z</time></trkpt><trkpt lat="42.29886106556025" lon="12.097503226419088"><ele>415.4</ele><time>2026-04-03T15:11:29Z</time></trkpt><trkpt lat="42.2989424783035" lon="12.097409759423945"><ele>414.8</ele><time>2026-04-03T15:11:30Z</time></trkpt><trkpt lat="42.299028023078044" lon="12.097307070094706"><ele>414.2</ele><time>2026-04-03T15:11:31Z</time></trkpt><trkpt lat="42.299111754447694" lon="12.097208602812746"><ele>413.59999999999997</ele><time>2026-04-03T15:11:32Z</time></trkpt><trkpt lat="42.29919701011475" lon="12.097101760465351"><ele>413.0</ele><time>2026-04-03T15:11:33Z</time></trkpt><trkpt lat="42.299274188723814" lon="12.097005701857267"><ele>412.99999999999994</ele><time>2026-04-03T15:11:34Z</time></trkpt><trkpt lat="42.29934937567366" lon="12.09691516407191"><ele>413.0</ele><time>2026-04-03T15:11:35Z</time></trkpt><trkpt lat="42.299412827486655" lon="12.096832070411242"><ele>413.0</ele><time>2026-04-03T15:11:36Z</time></trkpt><trkpt lat="42.29947941277128" lon="12.096757513893902"><ele>413.0</ele><time>2026-04-03T15:11:37Z</time></trkpt><trkpt lat="42.2995409839432" lon="12.096675481658377"><ele>412.99999999999994</ele><time>2026-04-03T15:11:38Z</time></trkpt><trkpt lat="42.29960517907069" lon="12.096595077970074"><ele>413.0</ele><time>2026-04-03T15:11:39Z</time></trkpt><trkpt lat="42.299665293031886" lon="12.096513765297379"><ele>412.66666666666663</ele><time>2026-04-03T15:11:40Z</time></trkpt><trkpt lat="42.29973193505623" lon="12.096435922199698"><ele>412.3333333333333</ele><time>2026-04-03T15:11:41Z</time></trkpt><trkpt lat="42.29979289918976" lon="12.0963639454838"><ele>412.0</ele><time>2026-04-03T15:11:42Z</time></trkpt><trkpt lat="42.29983589983517" lon="12.096292322313996"><ele>411.66666666666663</ele><time>2026-04-03T15:11:43Z</time></trkpt><trkpt lat="42.299887259614195" lon="12.0962358206414"><ele>411.3333333333333</ele><time>2026-04-03T15:11:44Z</time></trkpt><trkpt lat="42.29997199797778" lon="12.096131418037585"><ele>411.0</ele><time>2026-04-03T15:11:46Z</time></trkpt><trkpt lat="42.30003517759589" lon="12.096080731254924"><ele>411.0</ele><time>2026-04-03T15:11:48Z</time></trkpt><trkpt lat="42.30011972670458" lon="12.096032089403215"><ele>411.0</ele><time>2026-04-03T15:11:52Z</time></trkpt><trkpt lat="42.300189088038586" lon="12.096001888494667"><ele>411.0</ele><time>2026-04-03T15:11:53Z</time></trkpt><trkpt lat="42.300221252333984" lon="12.095925219055921"><ele>411.0</ele><time>2026-04-03T15:11:54Z</time></trkpt><trkpt lat="42.30021716256772" lon="12.095809014615087"><ele>411.0</ele><time>2026-04-03T15:11:55Z</time></trkpt><trkpt lat="42.30021605671197" lon="12.09567552038494"><ele>411.0</ele><time>2026-04-03T15:11:56Z</time></trkpt><trkpt lat="42.300262917963344" lon="12.095527680797456"><ele>410.75</ele><time>2026-04-03T15:11:57Z</time></trkpt><trkpt lat="42.30031189756329" lon="12.095363073368192"><ele>410.5</ele><time>2026-04-03T15:11:58Z</time></trkpt><trkpt lat="42.300352999822046" lon="12.095174223929428"><ele>410.25</ele><time>2026-04-03T15:11:59Z</time></trkpt><trkpt lat="42.3004093411706" lon="12.094980280977023"><ele>410.0</ele><time>2026-04-03T15:12:00Z</time></trkpt><trkpt lat="42.300453089386814" lon="12.094771024204437"><ele>410.0</ele><time>2026-04-03T15:12:01Z</time></trkpt><trkpt lat="42.30051305355334" lon="12.09458019796308"><ele>410.0</ele><time>2026-04-03T15:12:02Z</time></trkpt><trkpt lat="42.30053234275665" lon="12.094408295895727"><ele>410.0</ele><time>2026-04-03T15:12:03Z</time></trkpt><trkpt lat="42.30056629921212" lon="12.094243241370611"><ele>410.0</ele><time>2026-04-03T15:12:04Z</time></trkpt><trkpt lat="42.300591645806506" lon="12.094093761169104"><ele>410.0</ele><time>2026-04-03T15:12:05Z</time></trkpt><trkpt lat="42.30061848421191" lon="12.093965840996313"><ele>410.0</ele><time>2026-04-03T15:12:06Z</time></trkpt><trkpt lat="42.30063707657792" lon="12.093839479776111"><ele>410.0</ele><time>2026-04-03T15:12:07Z</time></trkpt><trkpt lat="42.30065596709297" lon="12.093721822804449"><ele>410.0</ele><time>2026-04-03T15:12:08Z</time></trkpt><trkpt lat="42.30067783167767" lon="12.093619706443429"><ele>410.0</ele><time>2026-04-03T15:12:09Z</time></trkpt><trkpt lat="42.300707726735894" lon="12.093469706429236"><ele>409.99999999999994</ele><time>2026-04-03T15:12:11Z</time></trkpt><trkpt lat="42.30073398370345" lon="12.093343358487937"><ele>410.0</ele><time>2026-04-03T15:12:13Z</time></trkpt><trkpt lat="42.30074761549836" lon="12.093245522101126"><ele>410.0</ele><time>2026-04-03T15:12:15.999Z</time></trkpt><trkpt lat="42.30076445605708" lon="12.093162224753234"><ele>410.0</ele><time>2026-04-03T15:12:17.999Z</time></trkpt><trkpt lat="42.300780364428896" lon="12.093079333544718"><ele>409.99999999999994</ele><time>2026-04-03T15:12:18.999Z</time></trkpt><trkpt lat="42.300803594618515" lon="12.092975122418379"><ele>410.0</ele><time>2026-04-03T15:12:19.999Z</time></trkpt><trkpt lat="42.30082661052406" lon="12.092854032194495"><ele>409.8</ele><time>2026-04-03T15:12:20.999Z</time></trkpt><trkpt lat="42.300862765088205" lon="12.092752759196955"><ele>409.6</ele><time>2026-04-03T15:12:21.999Z</time></trkpt><trkpt lat="42.30087055201152" lon="12.092636509471745"><ele>409.4</ele><time>2026-04-03T15:12:22.999Z</time></trkpt><trkpt lat="42.30090378564593" lon="12.092497856965212"><ele>409.2</ele><time>2026-04-03T15:12:23.999Z</time></trkpt><trkpt lat="42.3009361722093" lon="12.092345821018252"><ele>409.0</ele><time>2026-04-03T15:12:24.999Z</time></trkpt><trkpt lat="42.30097290908711" lon="12.092191235479023"><ele>408.4</ele><time>2026-04-03T15:12:25.999Z</time></trkpt><trkpt lat="42.301006905956676" lon="12.092036489915921"><ele>407.79999999999995</ele><time>2026-04-03T15:12:26.999Z</time></trkpt><trkpt lat="42.301038003601036" lon="12.09189369505941"><ele>407.20000000000005</ele><time>2026-04-03T15:12:27.999Z</time></trkpt><trkpt lat="42.30106695932945" lon="12.09175710539857"><ele>406.6</ele><time>2026-04-03T15:12:28.999Z</time></trkpt><trkpt lat="42.30110021272191" lon="12.091617843433156"><ele>406.0</ele><time>2026-04-03T15:12:29.999Z</time></trkpt><trkpt lat="42.30114076720094" lon="12.091467427917843"><ele>405.25</ele><time>2026-04-03T15:12:30.999Z</time></trkpt><trkpt lat="42.30117617241519" lon="12.091308875558498"><ele>404.5</ele><time>2026-04-03T15:12:31.999Z</time></trkpt><trkpt lat="42.30121034583708" lon="12.091143715572207"><ele>403.75</ele><time>2026-04-03T15:12:32.999Z</time></trkpt><trkpt lat="42.30124586688694" lon="12.09098727733831"><ele>403.0</ele><time>2026-04-03T15:12:33.999Z</time></trkpt><trkpt lat="42.301277118497566" lon="12.090842605290428"><ele>403.0</ele><time>2026-04-03T15:12:34.999Z</time></trkpt><trkpt lat="42.301309192363824" lon="12.090704782588544"><ele>403.0</ele><time>2026-04-03T15:12:35.999Z</time></trkpt><trkpt lat="42.301343102105506" lon="12.090559260948245"><ele>403.0</ele><time>2026-04-03T15:12:36.999Z</time></trkpt><trkpt lat="42.30138587645177" lon="12.090410501851743"><ele>403.0</ele><time>2026-04-03T15:12:37.999Z</time></trkpt><trkpt lat="42.30143808466064" lon="12.09027737336334"><ele>403.0</ele><time>2026-04-03T15:12:38.999Z</time></trkpt><trkpt lat="42.30150266924616" lon="12.090156387983326"><ele>403.0</ele><time>2026-04-03T15:12:39.999Z</time></trkpt><trkpt lat="42.30157852231649" lon="12.090039276716793"><ele>403.0</ele><time>2026-04-03T15:12:40.999Z</time></trkpt><trkpt lat="42.301651062167664" lon="12.08991967761535"><ele>403.0</ele><time>2026-04-03T15:12:41.999Z</time></trkpt><trkpt lat="42.301721055539005" lon="12.089808693515353"><ele>403.0</ele><time>2026-04-03T15:12:42.999Z</time></trkpt><trkpt lat="42.301793031243115" lon="12.089703625748289"><ele>403.0</ele><time>2026-04-03T15:12:43.999Z</time></trkpt><trkpt lat="42.301854219868076" lon="12.089604187452645"><ele>402.50000000000006</ele><time>2026-04-03T15:12:44.999Z</time></trkpt><trkpt lat="42.30191631725709" lon="12.089516538564116"><ele>402.0</ele><time>2026-04-03T15:12:45.999Z</time></trkpt><trkpt lat="42.30197311565031" lon="12.089430446271669"><ele>401.5</ele><time>2026-04-03T15:12:46.999Z</time></trkpt><trkpt lat="42.30202413550216" lon="12.089354300575957"><ele>401.0</ele><time>2026-04-03T15:12:47.999Z</time></trkpt><trkpt lat="42.302071743011645" lon="12.089284753293182"><ele>400.50000000000006</ele><time>2026-04-03T15:12:48.999Z</time></trkpt><trkpt lat="42.30212027191303" lon="12.089219425550425"><ele>400.0</ele><time>2026-04-03T15:12:49.999Z</time></trkpt><trkpt lat="42.302173153447285" lon="12.08914483322422"><ele>400.0</ele><time>2026-04-03T15:12:50.999Z</time></trkpt><trkpt lat="42.30223403685979" lon="12.089049433239108"><ele>400.0</ele><time>2026-04-03T15:12:51.999Z</time></trkpt><trkpt lat="42.30230510454673" lon="12.088952006500662"><ele>400.0</ele><time>2026-04-03T15:12:52.999Z</time></trkpt><trkpt lat="42.30236689885498" lon="12.088855703996614"><ele>400.0</ele><time>2026-04-03T15:12:53.999Z</time></trkpt><trkpt lat="42.302432874179026" lon="12.088762223727816"><ele>400.0</ele><time>2026-04-03T15:12:54.999Z</time></trkpt><trkpt lat="42.30248962663836" lon="12.088674075596833"><ele>400.0</ele><time>2026-04-03T15:12:55.999Z</time></trkpt><trkpt lat="42.30255131049298" lon="12.088616610993375"><ele>400.0</ele><time>2026-04-03T15:12:56.999Z</time></trkpt><trkpt lat="42.302582897512266" lon="12.088533462132666"><ele>400.0</ele><time>2026-04-03T15:12:57.999Z</time></trkpt><trkpt lat="42.302656702312184" lon="12.088427184243685"><ele>400.0</ele><time>2026-04-03T15:12:59.999Z</time></trkpt><trkpt lat="42.302719885150715" lon="12.088350407986724"><ele>400.0</ele><time>2026-04-03T15:13:05.999Z</time></trkpt><trkpt lat="42.30279222086951" lon="12.088224093498361"><ele>400.0</ele><time>2026-04-03T15:13:07.999Z</time></trkpt><trkpt lat="42.302861465552624" lon="12.088122009175525"><ele>400.0</ele><time>2026-04-03T15:13:09.999Z</time></trkpt><trkpt lat="42.30291556606204" lon="12.088046561324271"><ele>400.0</ele><time>2026-04-03T15:13:10.999Z</time></trkpt><trkpt lat="42.302986749393376" lon="12.087934092962616"><ele>400.0</ele><time>2026-04-03T15:13:11.999Z</time></trkpt><trkpt lat="42.303062833993415" lon="12.087799201427023"><ele>400.0</ele><time>2026-04-03T15:13:12.999Z</time></trkpt><trkpt lat="42.303159225726894" lon="12.087650068141766"><ele>399.5</ele><time>2026-04-03T15:13:13.999Z</time></trkpt><trkpt lat="42.30325720663277" lon="12.087509248827269"><ele>399.0</ele><time>2026-04-03T15:13:14.999Z</time></trkpt><trkpt lat="42.30334720272865" lon="12.087378613195296"><ele>398.5</ele><time>2026-04-03T15:13:15.999Z</time></trkpt><trkpt lat="42.303435981320504" lon="12.087248088071913"><ele>398.0</ele><time>2026-04-03T15:13:17Z</time></trkpt><trkpt lat="42.303539989346916" lon="12.087146170425495"><ele>397.8333333333333</ele><time>2026-04-03T15:13:18Z</time></trkpt><trkpt lat="42.303613164353486" lon="12.087037807133509"><ele>397.66666666666663</ele><time>2026-04-03T15:13:19Z</time></trkpt><trkpt lat="42.30367480609906" lon="12.086946523670111"><ele>397.5</ele><time>2026-04-03T15:13:20Z</time></trkpt><trkpt lat="42.30373027115533" lon="12.08686438683152"><ele>397.33333333333337</ele><time>2026-04-03T15:13:21Z</time></trkpt><trkpt lat="42.30378019264568" lon="12.086790459793189"><ele>397.1666666666667</ele><time>2026-04-03T15:13:22Z</time></trkpt><trkpt lat="42.30384259504265" lon="12.086696958309174"><ele>397.0</ele><time>2026-04-03T15:13:23Z</time></trkpt><trkpt lat="42.3039235038483" lon="12.086576072732608"><ele>395.75</ele><time>2026-04-03T15:13:24Z</time></trkpt><trkpt lat="42.30401347974186" lon="12.086441640135723"><ele>394.5</ele><time>2026-04-03T15:13:25Z</time></trkpt><trkpt lat="42.30410490050183" lon="12.086305048784395"><ele>393.25</ele><time>2026-04-03T15:13:26Z</time></trkpt><trkpt lat="42.30419366669316" lon="12.086172771798454"><ele>392.0</ele><time>2026-04-03T15:13:27Z</time></trkpt><trkpt lat="42.304270168973474" lon="12.086059953669272"><ele>392.0</ele><time>2026-04-03T15:13:28Z</time></trkpt><trkpt lat="42.304337071508925" lon="12.085961292243665"><ele>392.0</ele><time>2026-04-03T15:13:29Z</time></trkpt><trkpt lat="42.304408902238904" lon="12.085855363361034"><ele>392.0</ele><time>2026-04-03T15:13:30Z</time></trkpt><trkpt lat="42.304482422887105" lon="12.085746942277877"><ele>392.0</ele><time>2026-04-03T15:13:31Z</time></trkpt><trkpt lat="42.304552559878" lon="12.085643511515288"><ele>392.0</ele><time>2026-04-03T15:13:32Z</time></trkpt><trkpt lat="42.3046189373637" lon="12.085545709271354"><ele>392.20000000000005</ele><time>2026-04-03T15:13:33Z</time></trkpt><trkpt lat="42.30469069704864" lon="12.085440330037786"><ele>392.4</ele><time>2026-04-03T15:13:34Z</time></trkpt><trkpt lat="42.30476211684479" lon="12.085335484039323"><ele>392.6</ele><time>2026-04-03T15:13:35Z</time></trkpt><trkpt lat="42.304819291774756" lon="12.085251549872194"><ele>392.79999999999995</ele><time>2026-04-03T15:13:36Z</time></trkpt><trkpt lat="42.30486954980945" lon="12.085177769871207"><ele>393.0</ele><time>2026-04-03T15:13:37Z</time></trkpt><trkpt lat="42.30495164720417" lon="12.085057248953412"><ele>393.0</ele><time>2026-04-03T15:13:39Z</time></trkpt><trkpt lat="42.30503593011539" lon="12.084932419609759"><ele>393.0</ele><time>2026-04-03T15:13:41Z</time></trkpt><trkpt lat="42.30510885576796" lon="12.084822590644404"><ele>393.0</ele><time>2026-04-03T15:13:43Z</time></trkpt><trkpt lat="42.30518216809672" lon="12.08471217937578"><ele>393.0</ele><time>2026-04-03T15:13:45Z</time></trkpt><trkpt lat="42.305224403533614" lon="12.08464857111379"><ele>393.0</ele><time>2026-04-03T15:13:46Z</time></trkpt><trkpt lat="42.30526200622841" lon="12.084574807530492"><ele>393.2</ele><time>2026-04-03T15:13:47Z</time></trkpt><trkpt lat="42.30530282041722" lon="12.084507822787428"><ele>393.4</ele><time>2026-04-03T15:13:48Z</time></trkpt><trkpt lat="42.30537780614849" lon="12.08439068071194"><ele>393.59999999999997</ele><time>2026-04-03T15:13:50Z</time></trkpt><trkpt lat="42.3054657835105" lon="12.084289453533456"><ele>393.79999999999995</ele><time>2026-04-03T15:13:52Z</time></trkpt><trkpt lat="42.30551246169882" lon="12.084220113015506"><ele>394.0</ele><time>2026-04-03T15:13:53Z</time></trkpt><trkpt lat="42.305579474295975" lon="12.084120565705476"><ele>393.5</ele><time>2026-04-03T15:13:54Z</time></trkpt><trkpt lat="42.30565934257028" lon="12.08400192229407"><ele>393.0</ele><time>2026-04-03T15:13:55Z</time></trkpt><trkpt lat="42.30574145880884" lon="12.083880719767219"><ele>392.5</ele><time>2026-04-03T15:13:56Z</time></trkpt><trkpt lat="42.3057985901047" lon="12.083749283642298"><ele>392.0</ele><time>2026-04-03T15:13:57Z</time></trkpt><trkpt lat="42.305867853812146" lon="12.083648618619163"><ele>391.99999999999994</ele><time>2026-04-03T15:13:58Z</time></trkpt><trkpt lat="42.305927322731705" lon="12.083555578967449"><ele>392.0</ele><time>2026-04-03T15:13:59Z</time></trkpt><trkpt lat="42.30598267259937" lon="12.08347239423747"><ele>392.0</ele><time>2026-04-03T15:14:00Z</time></trkpt><trkpt lat="42.30604670743802" lon="12.083427012956745"><ele>392.0</ele><time>2026-04-03T15:14:01Z</time></trkpt><trkpt lat="42.30606473125797" lon="12.083337461978795"><ele>391.99999999999994</ele><time>2026-04-03T15:14:02Z</time></trkpt><trkpt lat="42.30611168094476" lon="12.083257191144495"><ele>392.0</ele><time>2026-04-03T15:14:03Z</time></trkpt><trkpt lat="42.30615775295804" lon="12.083190905157863"><ele>392.20000000000005</ele><time>2026-04-03T15:14:04Z</time></trkpt><trkpt lat="42.306243362935156" lon="12.083130370847954"><ele>392.4</ele><time>2026-04-03T15:14:06Z</time></trkpt><trkpt lat="42.30629649599782" lon="12.083050474978066"><ele>392.6</ele><time>2026-04-03T15:14:08Z</time></trkpt><trkpt lat="42.30637381347184" lon="12.082936678526133"><ele>392.79999999999995</ele><time>2026-04-03T15:14:10Z</time></trkpt><trkpt lat="42.306427939414974" lon="12.082857657598892"><ele>393.0</ele><time>2026-04-03T15:14:11Z</time></trkpt><trkpt lat="42.306486781862496" lon="12.082771750823548"><ele>392.3333333333333</ele><time>2026-04-03T15:14:12Z</time></trkpt><trkpt lat="42.30654473999971" lon="12.082687135035783"><ele>391.66666666666663</ele><time>2026-04-03T15:14:13Z</time></trkpt><trkpt lat="42.30659606336449" lon="12.082612205682105"><ele>391.0</ele><time>2026-04-03T15:14:14Z</time></trkpt><trkpt lat="42.3066451395215" lon="12.08254055713257"><ele>390.3333333333333</ele><time>2026-04-03T15:14:15Z</time></trkpt><trkpt lat="42.30669455112744" lon="12.082468418872049"><ele>389.66666666666663</ele><time>2026-04-03T15:14:16Z</time></trkpt><trkpt lat="42.30674591692799" lon="12.082393428018404"><ele>389.0</ele><time>2026-04-03T15:14:16.999Z</time></trkpt><trkpt lat="42.30679173271407" lon="12.082324523010488"><ele>388.99999999999994</ele><time>2026-04-03T15:14:17.999Z</time></trkpt><trkpt lat="42.30684210437831" lon="12.082249390102335"><ele>389.0</ele><time>2026-04-03T15:14:19.999Z</time></trkpt><trkpt lat="42.306893405563656" lon="12.082172870737027"><ele>389.0</ele><time>2026-04-03T15:14:21.999Z</time></trkpt><trkpt lat="42.30694573569008" lon="12.08209485260108"><ele>389.0</ele><time>2026-04-03T15:14:23.999Z</time></trkpt><trkpt lat="42.30699123158889" lon="12.082013488358472"><ele>388.99999999999994</ele><time>2026-04-03T15:14:25.999Z</time></trkpt><trkpt lat="42.307077743266866" lon="12.081897147472832"><ele>389.0</ele><time>2026-04-03T15:14:27.999Z</time></trkpt><trkpt lat="42.30714674006828" lon="12.081792145416195"><ele>389.0</ele><time>2026-04-03T15:14:28.999Z</time></trkpt><trkpt lat="42.307208319303825" lon="12.081692855391232"><ele>389.0</ele><time>2026-04-03T15:14:29.999Z</time></trkpt><trkpt lat="42.30725664199293" lon="12.081610230306703"><ele>389.0</ele><time>2026-04-03T15:14:30.999Z</time></trkpt><trkpt lat="42.30731561830905" lon="12.08150527562839"><ele>389.0</ele><time>2026-04-03T15:14:32.999Z</time></trkpt><trkpt lat="42.307360115888365" lon="12.08142019681316"><ele>389.0</ele><time>2026-04-03T15:14:35.999Z</time></trkpt><trkpt lat="42.307413933703046" lon="12.081302100322722"><ele>388.8333333333333</ele><time>2026-04-03T15:14:37.999Z</time></trkpt><trkpt lat="42.30744703991033" lon="12.081221962963257"><ele>388.66666666666663</ele><time>2026-04-03T15:14:38.999Z</time></trkpt><trkpt lat="42.30748358045568" lon="12.081127720272132"><ele>388.5</ele><time>2026-04-03T15:14:40.999Z</time></trkpt><trkpt lat="42.307518099233036" lon="12.08103278524291"><ele>388.33333333333337</ele><time>2026-04-03T15:14:42.999Z</time></trkpt><trkpt lat="42.307567122026896" lon="12.080891066111754"><ele>388.1666666666667</ele><time>2026-04-03T15:14:44.999Z</time></trkpt><trkpt lat="42.30760112428416" lon="12.080792770222272"><ele>388.0</ele><time>2026-04-03T15:14:46.999Z</time></trkpt><trkpt lat="42.307631764133255" lon="12.080704000307547"><ele>387.83333333333337</ele><time>2026-04-03T15:14:48.999Z</time></trkpt><trkpt lat="42.307675879013985" lon="12.080576482207425"><ele>387.6666666666667</ele><time>2026-04-03T15:14:50.999Z</time></trkpt><trkpt lat="42.30772941757011" lon="12.080424402812698"><ele>387.5</ele><time>2026-04-03T15:14:52.999Z</time></trkpt><trkpt lat="42.30776140096092" lon="12.080333551712302"><ele>387.33333333333337</ele><time>2026-04-03T15:14:53.999Z</time></trkpt><trkpt lat="42.30779264449256" lon="12.08024480223506"><ele>387.1666666666667</ele><time>2026-04-03T15:14:54.999Z</time></trkpt><trkpt lat="42.30782288501743" lon="12.080160159747466"><ele>387.0</ele><time>2026-04-03T15:14:55.999Z</time></trkpt><trkpt lat="42.30785124545817" lon="12.08008234824396"><ele>387.0</ele><time>2026-04-03T15:14:56.999Z</time></trkpt><trkpt lat="42.30788341489356" lon="12.079994085842278"><ele>387.0</ele><time>2026-04-03T15:14:57.999Z</time></trkpt><trkpt lat="42.307921440791375" lon="12.079889755648663"><ele>387.0</ele><time>2026-04-03T15:14:58.999Z</time></trkpt><trkpt lat="42.30796505826169" lon="12.07977008374644"><ele>387.0</ele><time>2026-04-03T15:14:59.999Z</time></trkpt><trkpt lat="42.308008252514554" lon="12.079651573009054"><ele>387.0</ele><time>2026-04-03T15:15:00.999Z</time></trkpt><trkpt lat="42.30804883062281" lon="12.07954024014102"><ele>387.0</ele><time>2026-04-03T15:15:01.999Z</time></trkpt><trkpt lat="42.30808806001557" lon="12.079432276647276"><ele>387.20000000000005</ele><time>2026-04-03T15:15:02.999Z</time></trkpt><trkpt lat="42.3081279955543" lon="12.079322368820922"><ele>387.4</ele><time>2026-04-03T15:15:03.999Z</time></trkpt><trkpt lat="42.30817561545089" lon="12.0791913127238"><ele>387.6</ele><time>2026-04-03T15:15:04.999Z</time></trkpt><trkpt lat="42.30822175068958" lon="12.079064341625905"><ele>387.79999999999995</ele><time>2026-04-03T15:15:05.999Z</time></trkpt><trkpt lat="42.30826184168059" lon="12.078951840606353"><ele>388.0</ele><time>2026-04-03T15:15:06.999Z</time></trkpt><trkpt lat="42.30829793620835" lon="12.078848710066955"><ele>388.0</ele><time>2026-04-03T15:15:07.999Z</time></trkpt><trkpt lat="42.308323912457155" lon="12.078732336621577"><ele>388.0</ele><time>2026-04-03T15:15:08.999Z</time></trkpt><trkpt lat="42.30836810479728" lon="12.07861861116876"><ele>388.0</ele><time>2026-04-03T15:15:09.999Z</time></trkpt><trkpt lat="42.30841206769008" lon="12.078496999784738"><ele>388.0</ele><time>2026-04-03T15:15:10.999Z</time></trkpt><trkpt lat="42.308455851625254" lon="12.07838644397602"><ele>388.0</ele><time>2026-04-03T15:15:11.999Z</time></trkpt><trkpt lat="42.308495191935634" lon="12.078284572073377"><ele>387.79999999999995</ele><time>2026-04-03T15:15:12.999Z</time></trkpt><trkpt lat="42.3085363116818" lon="12.078176515087696"><ele>387.6</ele><time>2026-04-03T15:15:13.999Z</time></trkpt><trkpt lat="42.308577676638684" lon="12.078046454945188"><ele>387.4</ele><time>2026-04-03T15:15:14.999Z</time></trkpt><trkpt lat="42.30862379842776" lon="12.077915235749346"><ele>387.20000000000005</ele><time>2026-04-03T15:15:15.999Z</time></trkpt><trkpt lat="42.308667513221216" lon="12.077794550322768"><ele>387.0</ele><time>2026-04-03T15:15:16.999Z</time></trkpt><trkpt lat="42.30871267731551" lon="12.077667481850817"><ele>387.0</ele><time>2026-04-03T15:15:17.999Z</time></trkpt><trkpt lat="42.30875094747102" lon="12.077553415533421"><ele>387.0</ele><time>2026-04-03T15:15:18.999Z</time></trkpt><trkpt lat="42.30879114051226" lon="12.077440950999994"><ele>387.0</ele><time>2026-04-03T15:15:19.999Z</time></trkpt><trkpt lat="42.308832828322245" lon="12.07732546502197"><ele>387.0</ele><time>2026-04-03T15:15:20.999Z</time></trkpt><trkpt lat="42.30887951769122" lon="12.077209414729"><ele>387.0</ele><time>2026-04-03T15:15:21.999Z</time></trkpt><trkpt lat="42.30892243755916" lon="12.077093639725096"><ele>386.8</ele><time>2026-04-03T15:15:23Z</time></trkpt><trkpt lat="42.30896324907677" lon="12.07698054843269"><ele>386.6</ele><time>2026-04-03T15:15:24Z</time></trkpt><trkpt lat="42.30900490687664" lon="12.076864135560582"><ele>386.40000000000003</ele><time>2026-04-03T15:15:25Z</time></trkpt><trkpt lat="42.30904495443051" lon="12.07674355655623"><ele>386.20000000000005</ele><time>2026-04-03T15:15:26Z</time></trkpt><trkpt lat="42.30908610416096" lon="12.076625647290188"><ele>386.0</ele><time>2026-04-03T15:15:27Z</time></trkpt><trkpt lat="42.30912306235527" lon="12.076523789524076"><ele>385.99999999999994</ele><time>2026-04-03T15:15:28Z</time></trkpt><trkpt lat="42.30915483079099" lon="12.076434572363244"><ele>386.0</ele><time>2026-04-03T15:15:29Z</time></trkpt><trkpt lat="42.30918969481594" lon="12.07634840115257"><ele>386.0</ele><time>2026-04-03T15:15:30Z</time></trkpt><trkpt lat="42.30922300842077" lon="12.07625456863399"><ele>386.0</ele><time>2026-04-03T15:15:31Z</time></trkpt><trkpt lat="42.30925579672184" lon="12.0761575992229"><ele>385.99999999999994</ele><time>2026-04-03T15:15:32Z</time></trkpt><trkpt lat="42.30929031118269" lon="12.076058911558281"><ele>386.0</ele><time>2026-04-03T15:15:33Z</time></trkpt><trkpt lat="42.30932571781534" lon="12.075958784600708"><ele>385.99999999999994</ele><time>2026-04-03T15:15:34Z</time></trkpt><trkpt lat="42.309362171171365" lon="12.075855936866931"><ele>386.0</ele><time>2026-04-03T15:15:35Z</time></trkpt><trkpt lat="42.309401312312325" lon="12.075742321735888"><ele>386.0</ele><time>2026-04-03T15:15:36Z</time></trkpt><trkpt lat="42.30943851922996" lon="12.075636176123181"><ele>386.0</ele><time>2026-04-03T15:15:37Z</time></trkpt><trkpt lat="42.30947438219289" lon="12.075543964141444"><ele>385.99999999999994</ele><time>2026-04-03T15:15:38Z</time></trkpt><trkpt lat="42.30950788573386" lon="12.07545073473141"><ele>386.0</ele><time>2026-04-03T15:15:39Z</time></trkpt><trkpt lat="42.30954878028101" lon="12.075346882612958"><ele>385.8</ele><time>2026-04-03T15:15:40Z</time></trkpt><trkpt lat="42.309592369248605" lon="12.075226423373849"><ele>385.6</ele><time>2026-04-03T15:15:41Z</time></trkpt><trkpt lat="42.309631944388556" lon="12.075091702984816"><ele>385.4</ele><time>2026-04-03T15:15:42Z</time></trkpt><trkpt lat="42.30967594696606" lon="12.074953872419318"><ele>385.2</ele><time>2026-04-03T15:15:43Z</time></trkpt><trkpt lat="42.309721679738715" lon="12.074823674812452"><ele>385.0</ele><time>2026-04-03T15:15:44Z</time></trkpt><trkpt lat="42.30976365714801" lon="12.074700967472943"><ele>384.2</ele><time>2026-04-03T15:15:45Z</time></trkpt><trkpt lat="42.30980658849463" lon="12.07458004965835"><ele>383.4</ele><time>2026-04-03T15:15:46Z</time></trkpt><trkpt lat="42.30984810769511" lon="12.074453342596886"><ele>382.6</ele><time>2026-04-03T15:15:47Z</time></trkpt><trkpt lat="42.30989221799577" lon="12.074321121232419"><ele>381.8</ele><time>2026-04-03T15:15:48Z</time></trkpt><trkpt lat="42.30993432997096" lon="12.074189635956998"><ele>381.0</ele><time>2026-04-03T15:15:49Z</time></trkpt><trkpt lat="42.30997200432915" lon="12.074063272545665"><ele>380.4</ele><time>2026-04-03T15:15:50Z</time></trkpt><trkpt lat="42.31000660992441" lon="12.073946341930768"><ele>379.8</ele><time>2026-04-03T15:15:51Z</time></trkpt><trkpt lat="42.31003550630665" lon="12.073834243486495"><ele>379.2</ele><time>2026-04-03T15:15:52Z</time></trkpt><trkpt lat="42.31006126429756" lon="12.073719628212709"><ele>378.59999999999997</ele><time>2026-04-03T15:15:53Z</time></trkpt><trkpt lat="42.310087780493525" lon="12.073588611856309"><ele>378.0</ele><time>2026-04-03T15:15:54Z</time></trkpt><trkpt lat="42.31013285290958" lon="12.073418228977928"><ele>377.6666666666667</ele><time>2026-04-03T15:15:55Z</time></trkpt><trkpt lat="42.31015406343079" lon="12.073196391149807"><ele>377.33333333333337</ele><time>2026-04-03T15:15:56Z</time></trkpt><trkpt lat="42.31020055260429" lon="12.07295234319531"><ele>377.0</ele><time>2026-04-03T15:15:57Z</time></trkpt><trkpt lat="42.31025925237158" lon="12.072693790451337"><ele>375.6666666666667</ele><time>2026-04-03T15:15:58Z</time></trkpt><trkpt lat="42.3103207939127" lon="12.072428058509555"><ele>374.3333333333333</ele><time>2026-04-03T15:15:59Z</time></trkpt><trkpt lat="42.31037730865982" lon="12.072165742999976"><ele>373.0</ele><time>2026-04-03T15:16:00Z</time></trkpt><trkpt lat="42.3104279882638" lon="12.071918466089718"><ele>373.0</ele><time>2026-04-03T15:16:01Z</time></trkpt><trkpt lat="42.3104739790873" lon="12.071686704766268"><ele>373.0</ele><time>2026-04-03T15:16:02Z</time></trkpt><trkpt lat="42.31051386267839" lon="12.071478187529179"><ele>373.0</ele><time>2026-04-03T15:16:03Z</time></trkpt><trkpt lat="42.310552439040826" lon="12.071287613474482"><ele>371.75</ele><time>2026-04-03T15:16:04Z</time></trkpt><trkpt lat="42.310588346432354" lon="12.071109896586243"><ele>370.5</ele><time>2026-04-03T15:16:05Z</time></trkpt><trkpt lat="42.31062387340873" lon="12.070937169679615"><ele>369.25</ele><time>2026-04-03T15:16:06Z</time></trkpt><trkpt lat="42.310661572478914" lon="12.070765413513056"><ele>368.0</ele><time>2026-04-03T15:16:07Z</time></trkpt><trkpt lat="42.31069758002374" lon="12.070593438869087"><ele>367.5</ele><time>2026-04-03T15:16:08Z</time></trkpt><trkpt lat="42.3107327493988" lon="12.070428733507022"><ele>367.0</ele><time>2026-04-03T15:16:09Z</time></trkpt><trkpt lat="42.31076525414027" lon="12.070266348391733"><ele>366.5</ele><time>2026-04-03T15:16:10Z</time></trkpt><trkpt lat="42.31079713855028" lon="12.070104139071892"><ele>366.0</ele><time>2026-04-03T15:16:11Z</time></trkpt><trkpt lat="42.31083655104608" lon="12.069922280876671"><ele>366.0</ele><time>2026-04-03T15:16:12Z</time></trkpt><trkpt lat="42.31087662625648" lon="12.069711654185989"><ele>366.0</ele><time>2026-04-03T15:16:13Z</time></trkpt><trkpt lat="42.31092300371145" lon="12.069487898527886"><ele>366.0</ele><time>2026-04-03T15:16:14Z</time></trkpt><trkpt lat="42.3109771663593" lon="12.069229526158228"><ele>365.6666666666667</ele><time>2026-04-03T15:16:15Z</time></trkpt><trkpt lat="42.31103424006893" lon="12.068949844957553"><ele>365.33333333333337</ele><time>2026-04-03T15:16:16Z</time></trkpt><trkpt lat="42.311097158368234" lon="12.06866196731517"><ele>365.0</ele><time>2026-04-03T15:16:17Z</time></trkpt><trkpt lat="42.31116421562784" lon="12.068396462748323"><ele>364.6666666666667</ele><time>2026-04-03T15:16:18Z</time></trkpt><trkpt lat="42.311221021694415" lon="12.068159350768314"><ele>364.3333333333333</ele><time>2026-04-03T15:16:19Z</time></trkpt><trkpt lat="42.31126988569145" lon="12.06792789537957"><ele>364.0</ele><time>2026-04-03T15:16:19.999Z</time></trkpt><trkpt lat="42.311337796544976" lon="12.067708994110422"><ele>362.3333333333333</ele><time>2026-04-03T15:16:20.999Z</time></trkpt><trkpt lat="42.311414408232636" lon="12.067521436482147"><ele>360.6666666666667</ele><time>2026-04-03T15:16:21.999Z</time></trkpt><trkpt lat="42.311506860897616" lon="12.067347495338284"><ele>359.0</ele><time>2026-04-03T15:16:22.999Z</time></trkpt><trkpt lat="42.3116178659481" lon="12.067178342881897"><ele>358.0</ele><time>2026-04-03T15:16:23.999Z</time></trkpt><trkpt lat="42.311745960163385" lon="12.067021569515399"><ele>357.0</ele><time>2026-04-03T15:16:24.999Z</time></trkpt><trkpt lat="42.311886525896746" lon="12.066863851818908"><ele>356.0</ele><time>2026-04-03T15:16:25.999Z</time></trkpt><trkpt lat="42.312031398493254" lon="12.066697574762449"><ele>355.33333333333337</ele><time>2026-04-03T15:16:26.999Z</time></trkpt><trkpt lat="42.31218064011527" lon="12.066524995437046"><ele>354.6666666666667</ele><time>2026-04-03T15:16:27.999Z</time></trkpt><trkpt lat="42.312330502127004" lon="12.066349186585677"><ele>354.0</ele><time>2026-04-03T15:16:28.999Z</time></trkpt><trkpt lat="42.312483780687344" lon="12.066169814943756"><ele>352.0</ele><time>2026-04-03T15:16:29.999Z</time></trkpt><trkpt lat="42.31263421996167" lon="12.065995199608592"><ele>350.0</ele><time>2026-04-03T15:16:30.999Z</time></trkpt><trkpt lat="42.312779219794876" lon="12.06581662891649"><ele>348.0</ele><time>2026-04-03T15:16:31.999Z</time></trkpt><trkpt lat="42.31291618543312" lon="12.065642863668606"><ele>346.0</ele><time>2026-04-03T15:16:32.999Z</time></trkpt><trkpt lat="42.31305494027912" lon="12.06548026825129"><ele>344.0</ele><time>2026-04-03T15:16:33.999Z</time></trkpt><trkpt lat="42.31320155112531" lon="12.065307088713709"><ele>342.0</ele><time>2026-04-03T15:16:34.999Z</time></trkpt><trkpt lat="42.313355060648085" lon="12.065146459613343"><ele>342.0</ele><time>2026-04-03T15:16:35.999Z</time></trkpt><trkpt lat="42.313494769944285" lon="12.064984296500914"><ele>342.0</ele><time>2026-04-03T15:16:36.999Z</time></trkpt><trkpt lat="42.313640224765734" lon="12.06484340921824"><ele>342.0</ele><time>2026-04-03T15:16:37.999Z</time></trkpt><trkpt lat="42.3137605700233" lon="12.064692892970328"><ele>339.6666666666667</ele><time>2026-04-03T15:16:38.999Z</time></trkpt><trkpt lat="42.31389151024437" lon="12.064558122038372"><ele>337.33333333333337</ele><time>2026-04-03T15:16:39.999Z</time></trkpt><trkpt lat="42.31401487340463" lon="12.064421368325775"><ele>335.0</ele><time>2026-04-03T15:16:40.999Z</time></trkpt><trkpt lat="42.31414137778081" lon="12.064277413368195"><ele>335.0</ele><time>2026-04-03T15:16:41.999Z</time></trkpt><trkpt lat="42.314266198532664" lon="12.064138108037955"><ele>335.0</ele><time>2026-04-03T15:16:42.999Z</time></trkpt><trkpt lat="42.31438981229225" lon="12.06400345435124"><ele>335.0</ele><time>2026-04-03T15:16:43.999Z</time></trkpt><trkpt lat="42.31450622728378" lon="12.063872666993992"><ele>334.5</ele><time>2026-04-03T15:16:44.999Z</time></trkpt><trkpt lat="42.31462021203457" lon="12.063747981532995"><ele>334.0</ele><time>2026-04-03T15:16:45.999Z</time></trkpt><trkpt lat="42.31472835054985" lon="12.063626340568335"><ele>333.5</ele><time>2026-04-03T15:16:46.999Z</time></trkpt><trkpt lat="42.31484034041459" lon="12.063500162525948"><ele>333.0</ele><time>2026-04-03T15:16:47.999Z</time></trkpt><trkpt lat="42.314958688728396" lon="12.063372755211926"><ele>332.25</ele><time>2026-04-03T15:16:48.999Z</time></trkpt><trkpt lat="42.315073029932606" lon="12.063246758366242"><ele>331.5</ele><time>2026-04-03T15:16:49.999Z</time></trkpt><trkpt lat="42.315183894569024" lon="12.063128614169157"><ele>330.75</ele><time>2026-04-03T15:16:50.999Z</time></trkpt><trkpt lat="42.315283141078524" lon="12.06301967516313"><ele>330.0</ele><time>2026-04-03T15:16:51.999Z</time></trkpt><trkpt lat="42.31537920696447" lon="12.06291369767764"><ele>330.0</ele><time>2026-04-03T15:16:52.999Z</time></trkpt><trkpt lat="42.31547089578133" lon="12.062819531615013"><ele>330.0</ele><time>2026-04-03T15:16:53.999Z</time></trkpt><trkpt lat="42.31555671456683" lon="12.062744798679107"><ele>330.0</ele><time>2026-04-03T15:16:54.999Z</time></trkpt><trkpt lat="42.31562720310379" lon="12.062690595701788"><ele>330.0</ele><time>2026-04-03T15:16:55.999Z</time></trkpt><trkpt lat="42.31569046776013" lon="12.062660846277968"><ele>330.0</ele><time>2026-04-03T15:16:56.999Z</time></trkpt><trkpt lat="42.31575382306561" lon="12.062646083238821"><ele>330.0</ele><time>2026-04-03T15:16:57.999Z</time></trkpt><trkpt lat="42.315816932141985" lon="12.06263960771738"><ele>329.25</ele><time>2026-04-03T15:16:58.999Z</time></trkpt><trkpt lat="42.31589734969099" lon="12.062631278764242"><ele>328.5</ele><time>2026-04-03T15:16:59.999Z</time></trkpt><trkpt lat="42.31601040173741" lon="12.062606825772518"><ele>327.75</ele><time>2026-04-03T15:17:00.999Z</time></trkpt><trkpt lat="42.316146767836145" lon="12.062581145152494"><ele>327.0</ele><time>2026-04-03T15:17:01.999Z</time></trkpt><trkpt lat="42.3163028323384" lon="12.062566739090892"><ele>326.0</ele><time>2026-04-03T15:17:02.999Z</time></trkpt><trkpt lat="42.316469080876466" lon="12.062550659049746"><ele>325.0</ele><time>2026-04-03T15:17:03.999Z</time></trkpt><trkpt lat="42.31664277093529" lon="12.062531076597006"><ele>324.0</ele><time>2026-04-03T15:17:04.999Z</time></trkpt><trkpt lat="42.316817062668406" lon="12.062531605598448"><ele>324.0</ele><time>2026-04-03T15:17:05.999Z</time></trkpt><trkpt lat="42.31698771303075" lon="12.062524471612477"><ele>324.0</ele><time>2026-04-03T15:17:06.999Z</time></trkpt><trkpt lat="42.31715663261235" lon="12.062525355778183"><ele>324.0</ele><time>2026-04-03T15:17:07.999Z</time></trkpt><trkpt lat="42.317315430338326" lon="12.062518322233112"><ele>322.75</ele><time>2026-04-03T15:17:08.999Z</time></trkpt><trkpt lat="42.31746700434159" lon="12.062512679546034"><ele>321.5</ele><time>2026-04-03T15:17:09.999Z</time></trkpt><trkpt lat="42.31760677054717" lon="12.062503585849367"><ele>320.25</ele><time>2026-04-03T15:17:10.999Z</time></trkpt><trkpt lat="42.317722951582724" lon="12.062501309415222"><ele>319.0</ele><time>2026-04-03T15:17:11.999Z</time></trkpt><trkpt lat="42.31780482173559" lon="12.062496569327687"><ele>319.0</ele><time>2026-04-03T15:17:12.999Z</time></trkpt><trkpt lat="42.31786784862837" lon="12.062492950245241"><ele>319.0</ele><time>2026-04-03T15:17:13.999Z</time></trkpt><trkpt lat="42.31793539086235" lon="12.0625087687287"><ele>319.0</ele><time>2026-04-03T15:17:14.999Z</time></trkpt><trkpt lat="42.31803949712201" lon="12.06250955664682"><ele>319.0</ele><time>2026-04-03T15:17:16.999Z</time></trkpt><trkpt lat="42.31816476731788" lon="12.062468812736947"><ele>319.0</ele><time>2026-04-03T15:17:22.999Z</time></trkpt><trkpt lat="42.31827220808622" lon="12.062454267887837"><ele>318.0</ele><time>2026-04-03T15:17:23.999Z</time></trkpt><trkpt lat="42.31840691665165" lon="12.062451869271595"><ele>317.0</ele><time>2026-04-03T15:17:24.999Z</time></trkpt><trkpt lat="42.31855960165263" lon="12.06244242928671"><ele>316.0</ele><time>2026-04-03T15:17:25.999Z</time></trkpt><trkpt lat="42.318708277461134" lon="12.062408513330517"><ele>315.0</ele><time>2026-04-03T15:17:26.999Z</time></trkpt><trkpt lat="42.31882884551154" lon="12.062352111702188"><ele>314.0</ele><time>2026-04-03T15:17:27.999Z</time></trkpt><trkpt lat="42.31892895422862" lon="12.06227344588264"><ele>313.0</ele><time>2026-04-03T15:17:29Z</time></trkpt><trkpt lat="42.31901829741525" lon="12.062154874211728"><ele>312.0</ele><time>2026-04-03T15:17:30Z</time></trkpt><trkpt lat="42.31911357021685" lon="12.06193445846784"><ele>311.0</ele><time>2026-04-03T15:17:31Z</time></trkpt><trkpt lat="42.319204555788644" lon="12.061733486101046"><ele>310.33333333333337</ele><time>2026-04-03T15:17:32Z</time></trkpt><trkpt lat="42.319293828349835" lon="12.061503475000816"><ele>309.6666666666667</ele><time>2026-04-03T15:17:33Z</time></trkpt><trkpt lat="42.3193924246024" lon="12.061251662412122"><ele>309.0</ele><time>2026-04-03T15:17:34Z</time></trkpt><trkpt lat="42.319500313248795" lon="12.06099170451646"><ele>308.5</ele><time>2026-04-03T15:17:35Z</time></trkpt><trkpt lat="42.31961195768866" lon="12.060702672171615"><ele>308.0</ele><time>2026-04-03T15:17:36Z</time></trkpt><trkpt lat="42.319732280135526" lon="12.060414280262647"><ele>309.5</ele><time>2026-04-03T15:17:37Z</time></trkpt><trkpt lat="42.31983402836503" lon="12.060124273170635"><ele>311.0</ele><time>2026-04-03T15:17:38Z</time></trkpt><trkpt lat="42.31995531166628" lon="12.059849957259132"><ele>309.33333333333337</ele><time>2026-04-03T15:17:39Z</time></trkpt><trkpt lat="42.32004786834707" lon="12.059580489585983"><ele>307.6666666666667</ele><time>2026-04-03T15:17:40Z</time></trkpt><trkpt lat="42.32014901963431" lon="12.05933676277747"><ele>306.0</ele><time>2026-04-03T15:17:41Z</time></trkpt><trkpt lat="42.320241150531835" lon="12.059105110806167"><ele>306.0</ele><time>2026-04-03T15:17:42Z</time></trkpt><trkpt lat="42.3203250821926" lon="12.058874456572562"><ele>306.0</ele><time>2026-04-03T15:17:43Z</time></trkpt><trkpt lat="42.32042539984138" lon="12.058665320022369"><ele>306.0</ele><time>2026-04-03T15:17:44Z</time></trkpt><trkpt lat="42.320497692722384" lon="12.058438761894248"><ele>303.6666666666667</ele><time>2026-04-03T15:17:45Z</time></trkpt><trkpt lat="42.32058980266362" lon="12.058222903481658"><ele>301.33333333333337</ele><time>2026-04-03T15:17:46Z</time></trkpt><trkpt lat="42.32068242104371" lon="12.058006717248327"><ele>299.0</ele><time>2026-04-03T15:17:47Z</time></trkpt><trkpt lat="42.32076249737716" lon="12.057800192396767"><ele>299.0</ele><time>2026-04-03T15:17:48Z</time></trkpt><trkpt lat="42.32083523314472" lon="12.057603541629838"><ele>299.0</ele><time>2026-04-03T15:17:49Z</time></trkpt><trkpt lat="42.32090771688292" lon="12.057421275319685"><ele>299.0</ele><time>2026-04-03T15:17:50Z</time></trkpt><trkpt lat="42.32097065723129" lon="12.057255904700938"><ele>298.4</ele><time>2026-04-03T15:17:51Z</time></trkpt><trkpt lat="42.32102988273781" lon="12.057112322301455"><ele>297.79999999999995</ele><time>2026-04-03T15:17:52Z</time></trkpt><trkpt lat="42.32108084078973" lon="12.056977423164012"><ele>297.20000000000005</ele><time>2026-04-03T15:17:53Z</time></trkpt><trkpt lat="42.32113181662234" lon="12.056850160633502"><ele>296.6</ele><time>2026-04-03T15:17:54Z</time></trkpt><trkpt lat="42.32119278450258" lon="12.056738156885565"><ele>296.0</ele><time>2026-04-03T15:17:55Z</time></trkpt><trkpt lat="42.321236601538416" lon="12.05662671383427"><ele>296.0</ele><time>2026-04-03T15:17:56Z</time></trkpt><trkpt lat="42.321277685377915" lon="12.056522477140742"><ele>296.0</ele><time>2026-04-03T15:17:57Z</time></trkpt><trkpt lat="42.32131402949119" lon="12.056430266033773"><ele>296.0</ele><time>2026-04-03T15:17:58Z</time></trkpt><trkpt lat="42.321349030729266" lon="12.056341461972398"><ele>296.0</ele><time>2026-04-03T15:17:59Z</time></trkpt><trkpt lat="42.32136755109858" lon="12.056256774197566"><ele>296.0</ele><time>2026-04-03T15:18:00Z</time></trkpt><trkpt lat="42.32142747555114" lon="12.05613186766201"><ele>296.0</ele><time>2026-04-03T15:18:02Z</time></trkpt><trkpt lat="42.321471925437905" lon="12.0560262529787"><ele>296.0</ele><time>2026-04-03T15:18:04Z</time></trkpt><trkpt lat="42.32150925853983" lon="12.055951336423396"><ele>296.0</ele><time>2026-04-03T15:18:08Z</time></trkpt><trkpt lat="42.32155307753023" lon="12.055823760795645"><ele>296.0</ele><time>2026-04-03T15:18:24.999Z</time></trkpt><trkpt lat="42.32158969525511" lon="12.055730855907578"><ele>296.0</ele><time>2026-04-03T15:18:25.999Z</time></trkpt><trkpt lat="42.3216326344794" lon="12.055620802480846"><ele>296.0</ele><time>2026-04-03T15:18:26.999Z</time></trkpt><trkpt lat="42.321684858947265" lon="12.055487312550984"><ele>296.0</ele><time>2026-04-03T15:18:27.999Z</time></trkpt><trkpt lat="42.321741809992524" lon="12.055341741138403"><ele>296.0</ele><time>2026-04-03T15:18:28.999Z</time></trkpt><trkpt lat="42.32179296490929" lon="12.05521096017736"><ele>296.0</ele><time>2026-04-03T15:18:29.999Z</time></trkpt><trkpt lat="42.32184444692782" lon="12.05507890555471"><ele>296.0</ele><time>2026-04-03T15:18:30.999Z</time></trkpt><trkpt lat="42.32190019280383" lon="12.054934713715449"><ele>296.0</ele><time>2026-04-03T15:18:31.999Z</time></trkpt><trkpt lat="42.32194258999773" lon="12.05476696039795"><ele>296.0</ele><time>2026-04-03T15:18:32.999Z</time></trkpt><trkpt lat="42.32200623321946" lon="12.05459369446542"><ele>296.0</ele><time>2026-04-03T15:18:33.999Z</time></trkpt><trkpt lat="42.32207464279852" lon="12.05442644283109"><ele>296.0</ele><time>2026-04-03T15:18:34.999Z</time></trkpt><trkpt lat="42.322134867746364" lon="12.054268644036872"><ele>296.0</ele><time>2026-04-03T15:18:35.999Z</time></trkpt><trkpt lat="42.32218717105797" lon="12.054122356026857"><ele>296.0</ele><time>2026-04-03T15:18:36.999Z</time></trkpt><trkpt lat="42.322236101254056" lon="12.053986694958159"><ele>296.0</ele><time>2026-04-03T15:18:37.999Z</time></trkpt><trkpt lat="42.32228866123823" lon="12.053849784779663"><ele>296.0</ele><time>2026-04-03T15:18:38.999Z</time></trkpt><trkpt lat="42.32234413742272" lon="12.053702474863462"><ele>294.33333333333337</ele><time>2026-04-03T15:18:39.999Z</time></trkpt><trkpt lat="42.322426589740594" lon="12.053544377055326"><ele>292.6666666666667</ele><time>2026-04-03T15:18:40.999Z</time></trkpt><trkpt lat="42.32249713279791" lon="12.053352889367762"><ele>291.0</ele><time>2026-04-03T15:18:41.999Z</time></trkpt><trkpt lat="42.32256354783953" lon="12.053172607137114"><ele>290.0</ele><time>2026-04-03T15:18:42.999Z</time></trkpt><trkpt lat="42.32262455769046" lon="12.053006997124351"><ele>289.0</ele><time>2026-04-03T15:18:43.999Z</time></trkpt><trkpt lat="42.32267546030765" lon="12.0528366186086"><ele>288.0</ele><time>2026-04-03T15:18:44.999Z</time></trkpt><trkpt lat="42.322733039291265" lon="12.052683349220764"><ele>287.0</ele><time>2026-04-03T15:18:45.999Z</time></trkpt><trkpt lat="42.322787265800876" lon="12.052541102655864"><ele>287.5</ele><time>2026-04-03T15:18:46.999Z</time></trkpt><trkpt lat="42.32283561645968" lon="12.052401098654126"><ele>288.0</ele><time>2026-04-03T15:18:47.999Z</time></trkpt><trkpt lat="42.32288905219367" lon="12.052252239770512"><ele>288.5</ele><time>2026-04-03T15:18:48.999Z</time></trkpt><trkpt lat="42.322945867168016" lon="12.052092826268156"><ele>289.0</ele><time>2026-04-03T15:18:49.999Z</time></trkpt><trkpt lat="42.323005752562615" lon="12.051939065806167"><ele>288.0</ele><time>2026-04-03T15:18:50.999Z</time></trkpt><trkpt lat="42.32306489163782" lon="12.051792261935793"><ele>287.0</ele><time>2026-04-03T15:18:51.999Z</time></trkpt><trkpt lat="42.3231222591942" lon="12.051643715276123"><ele>286.0</ele><time>2026-04-03T15:18:52.999Z</time></trkpt><trkpt lat="42.32317638921787" lon="12.051497233067414"><ele>285.0</ele><time>2026-04-03T15:18:53.999Z</time></trkpt><trkpt lat="42.32323017420781" lon="12.051357310362551"><ele>283.75</ele><time>2026-04-03T15:18:54.999Z</time></trkpt><trkpt lat="42.323289592394836" lon="12.05123028371611"><ele>282.5</ele><time>2026-04-03T15:18:55.999Z</time></trkpt><trkpt lat="42.323361747694015" lon="12.051122669104169"><ele>281.25</ele><time>2026-04-03T15:18:56.999Z</time></trkpt><trkpt lat="42.323453092199586" lon="12.051030607188046"><ele>280.0</ele><time>2026-04-03T15:18:57.999Z</time></trkpt><trkpt lat="42.323558794717094" lon="12.050960205892155"><ele>280.0</ele><time>2026-04-03T15:18:58.999Z</time></trkpt><trkpt lat="42.32366379245874" lon="12.050924968631023"><ele>280.0</ele><time>2026-04-03T15:18:59.999Z</time></trkpt><trkpt lat="42.323773197123266" lon="12.0509217900516"><ele>280.0</ele><time>2026-04-03T15:19:00.999Z</time></trkpt><trkpt lat="42.32387922759719" lon="12.050950794792376"><ele>280.0</ele><time>2026-04-03T15:19:01.999Z</time></trkpt><trkpt lat="42.323987135368554" lon="12.051005949500263"><ele>280.0</ele><time>2026-04-03T15:19:02.999Z</time></trkpt><trkpt lat="42.32408824158721" lon="12.051105849861344"><ele>281.25</ele><time>2026-04-03T15:19:03.999Z</time></trkpt><trkpt lat="42.324177414806684" lon="12.051220198694722"><ele>282.5</ele><time>2026-04-03T15:19:04.999Z</time></trkpt><trkpt lat="42.324254435478245" lon="12.051357765791737"><ele>283.75</ele><time>2026-04-03T15:19:05.999Z</time></trkpt><trkpt lat="42.32431649535734" lon="12.051517157745714"><ele>285.0</ele><time>2026-04-03T15:19:06.999Z</time></trkpt><trkpt lat="42.32437583270377" lon="12.051711571438272"><ele>286.0</ele><time>2026-04-03T15:19:07.999Z</time></trkpt><trkpt lat="42.32441685393713" lon="12.051899509682203"><ele>287.0</ele><time>2026-04-03T15:19:08.999Z</time></trkpt><trkpt lat="42.324442279934914" lon="12.052090940577617"><ele>288.0</ele><time>2026-04-03T15:19:09.999Z</time></trkpt><trkpt lat="42.32444422804713" lon="12.052286407181452"><ele>289.0</ele><time>2026-04-03T15:19:10.999Z</time></trkpt><trkpt lat="42.32442980152717" lon="12.05249661820074"><ele>289.66666666666663</ele><time>2026-04-03T15:19:11.999Z</time></trkpt><trkpt lat="42.32442556395859" lon="12.052712944083439"><ele>290.3333333333333</ele><time>2026-04-03T15:19:12.999Z</time></trkpt><trkpt lat="42.32442804033653" lon="12.052940330192557"><ele>291.0</ele><time>2026-04-03T15:19:13.999Z</time></trkpt><trkpt lat="42.32443154157547" lon="12.053155621865134"><ele>290.75</ele><time>2026-04-03T15:19:14.999Z</time></trkpt><trkpt lat="42.3244612152108" lon="12.053356699468525"><ele>290.5</ele><time>2026-04-03T15:19:15.999Z</time></trkpt><trkpt lat="42.324501449019344" lon="12.053540374890899"><ele>290.25</ele><time>2026-04-03T15:19:16.999Z</time></trkpt><trkpt lat="42.32457542659334" lon="12.05370543845803"><ele>290.0</ele><time>2026-04-03T15:19:17.999Z</time></trkpt><trkpt lat="42.32468314012887" lon="12.053838658242702"><ele>285.6666666666667</ele><time>2026-04-03T15:19:18.999Z</time></trkpt><trkpt lat="42.32483573230382" lon="12.0539330185645"><ele>281.3333333333333</ele><time>2026-04-03T15:19:19.999Z</time></trkpt><trkpt lat="42.324988588117236" lon="12.054016871229718"><ele>277.0</ele><time>2026-04-03T15:19:20.999Z</time></trkpt><trkpt lat="42.32513420975968" lon="12.054104292493001"><ele>277.0</ele><time>2026-04-03T15:19:21.999Z</time></trkpt><trkpt lat="42.325304763852756" lon="12.054147818155776"><ele>277.0</ele><time>2026-04-03T15:19:22.999Z</time></trkpt><trkpt lat="42.32547606003189" lon="12.054183902937586"><ele>277.0</ele><time>2026-04-03T15:19:23.999Z</time></trkpt><trkpt lat="42.32563109353728" lon="12.05420188624351"><ele>279.75</ele><time>2026-04-03T15:19:24.999Z</time></trkpt><trkpt lat="42.32576673313443" lon="12.054215919396563"><ele>282.5</ele><time>2026-04-03T15:19:25.999Z</time></trkpt><trkpt lat="42.32589241377571" lon="12.05422233620389"><ele>285.25</ele><time>2026-04-03T15:19:26.999Z</time></trkpt><trkpt lat="42.326028492831945" lon="12.054220747993071"><ele>288.0</ele><time>2026-04-03T15:19:27.999Z</time></trkpt><trkpt lat="42.32617194055382" lon="12.05422512660948"><ele>288.0</ele><time>2026-04-03T15:19:28.999Z</time></trkpt><trkpt lat="42.32631093719663" lon="12.054228085884365"><ele>288.0</ele><time>2026-04-03T15:19:29.999Z</time></trkpt><trkpt lat="42.32644704165833" lon="12.054216727873259"><ele>288.0</ele><time>2026-04-03T15:19:30.999Z</time></trkpt><trkpt lat="42.32659025066132" lon="12.054186297332448"><ele>288.0</ele><time>2026-04-03T15:19:31.999Z</time></trkpt><trkpt lat="42.32672152751821" lon="12.054145043810138"><ele>290.0</ele><time>2026-04-03T15:19:32.999Z</time></trkpt><trkpt lat="42.326871517611295" lon="12.054095363471333"><ele>292.0</ele><time>2026-04-03T15:19:33.999Z</time></trkpt><trkpt lat="42.327015311925926" lon="12.054060461626342"><ele>294.0</ele><time>2026-04-03T15:19:35Z</time></trkpt><trkpt lat="42.327173145021014" lon="12.054039753302966"><ele>292.0</ele><time>2026-04-03T15:19:36Z</time></trkpt><trkpt lat="42.32733201336332" lon="12.054023318695469"><ele>290.0</ele><time>2026-04-03T15:19:37Z</time></trkpt><trkpt lat="42.32750471284164" lon="12.054005029356896"><ele>288.0</ele><time>2026-04-03T15:19:38Z</time></trkpt><trkpt lat="42.327685628822294" lon="12.053974469442428"><ele>288.0</ele><time>2026-04-03T15:19:39Z</time></trkpt><trkpt lat="42.32788168365453" lon="12.053914731402495"><ele>288.0</ele><time>2026-04-03T15:19:40Z</time></trkpt><trkpt lat="42.32809315082935" lon="12.05381110926588"><ele>288.0</ele><time>2026-04-03T15:19:41Z</time></trkpt><trkpt lat="42.32831535386316" lon="12.053729737455555"><ele>288.0</ele><time>2026-04-03T15:19:42Z</time></trkpt><trkpt lat="42.32854787066077" lon="12.053616604279737"><ele>288.0</ele><time>2026-04-03T15:19:43Z</time></trkpt><trkpt lat="42.32877707357414" lon="12.053491508576107"><ele>288.3333333333333</ele><time>2026-04-03T15:19:44Z</time></trkpt><trkpt lat="42.328989140365756" lon="12.053416439185897"><ele>288.66666666666663</ele><time>2026-04-03T15:19:45Z</time></trkpt><trkpt lat="42.32918883362413" lon="12.053349803422657"><ele>289.0</ele><time>2026-04-03T15:19:46Z</time></trkpt><trkpt lat="42.32935782271905" lon="12.053302286476669"><ele>289.0</ele><time>2026-04-03T15:19:47Z</time></trkpt><trkpt lat="42.32949444996927" lon="12.0532789195543"><ele>289.0</ele><time>2026-04-03T15:19:48Z</time></trkpt><trkpt lat="42.329599984870434" lon="12.053269345463447"><ele>289.0</ele><time>2026-04-03T15:19:49Z</time></trkpt><trkpt lat="42.329672688347415" lon="12.05328874520848"><ele>289.0</ele><time>2026-04-03T15:19:50Z</time></trkpt><trkpt lat="42.329765800484154" lon="12.053275843866786"><ele>289.0</ele><time>2026-04-03T15:19:52Z</time></trkpt><trkpt lat="42.329837599722744" lon="12.05330570600859"><ele>289.0</ele><time>2026-04-03T15:20:03Z</time></trkpt><trkpt lat="42.32991259849755" lon="12.053166931534799"><ele>289.0</ele><time>2026-04-03T15:20:05Z</time></trkpt><trkpt lat="42.329938239651945" lon="12.053054969782753"><ele>289.0</ele><time>2026-04-03T15:20:06Z</time></trkpt><trkpt lat="42.32995777048545" lon="12.052923180136576"><ele>289.0</ele><time>2026-04-03T15:20:07Z</time></trkpt><trkpt lat="42.329993176621755" lon="12.052765952312328"><ele>289.0</ele><time>2026-04-03T15:20:08Z</time></trkpt><trkpt lat="42.33004315058501" lon="12.052594344955862"><ele>289.0</ele><time>2026-04-03T15:20:09Z</time></trkpt><trkpt lat="42.330118696917594" lon="12.05240553464837"><ele>289.0</ele><time>2026-04-03T15:20:10Z</time></trkpt><trkpt lat="42.330213549029615" lon="12.052209108483558"><ele>289.0</ele><time>2026-04-03T15:20:11Z</time></trkpt><trkpt lat="42.33033615643036" lon="12.05199545252132"><ele>289.0</ele><time>2026-04-03T15:20:12Z</time></trkpt><trkpt lat="42.33048397990718" lon="12.051787639683925"><ele>289.0</ele><time>2026-04-03T15:20:13Z</time></trkpt><trkpt lat="42.330610865826344" lon="12.051575139273945"><ele>289.0</ele><time>2026-04-03T15:20:14Z</time></trkpt><trkpt lat="42.33076183376066" lon="12.051295052102672"><ele>287.5</ele><time>2026-04-03T15:20:15Z</time></trkpt><trkpt lat="42.3309365756408" lon="12.051007391713087"><ele>286.0</ele><time>2026-04-03T15:20:16Z</time></trkpt><trkpt lat="42.331112598288925" lon="12.050718025793989"><ele>284.0</ele><time>2026-04-03T15:20:17Z</time></trkpt><trkpt lat="42.331286561620495" lon="12.050419648742839"><ele>282.0</ele><time>2026-04-03T15:20:18Z</time></trkpt><trkpt lat="42.33146365863254" lon="12.050150375865817"><ele>280.0</ele><time>2026-04-03T15:20:19Z</time></trkpt><trkpt lat="42.331610539470724" lon="12.049877573802826"><ele>278.0</ele><time>2026-04-03T15:20:20Z</time></trkpt><trkpt lat="42.33176196005902" lon="12.049638956346385"><ele>278.0</ele><time>2026-04-03T15:20:21Z</time></trkpt><trkpt lat="42.3318952950595" lon="12.049405603967122"><ele>278.0</ele><time>2026-04-03T15:20:22Z</time></trkpt><trkpt lat="42.332028065464804" lon="12.04916531186373"><ele>278.0</ele><time>2026-04-03T15:20:23Z</time></trkpt><trkpt lat="42.33216189208282" lon="12.048918605806456"><ele>277.0</ele><time>2026-04-03T15:20:24Z</time></trkpt><trkpt lat="42.33230224246142" lon="12.048650242000978"><ele>276.0</ele><time>2026-04-03T15:20:25Z</time></trkpt><trkpt lat="42.33244225275141" lon="12.048381136213914"><ele>275.0</ele><time>2026-04-03T15:20:26Z</time></trkpt><trkpt lat="42.33258325134001" lon="12.048113865931427"><ele>274.0</ele><time>2026-04-03T15:20:27Z</time></trkpt><trkpt lat="42.332725006526125" lon="12.047853579049837"><ele>274.0</ele><time>2026-04-03T15:20:28Z</time></trkpt><trkpt lat="42.33286079512806" lon="12.047597024015232"><ele>274.0</ele><time>2026-04-03T15:20:29Z</time></trkpt><trkpt lat="42.33299211381759" lon="12.047340946656503"><ele>273.0</ele><time>2026-04-03T15:20:29.999Z</time></trkpt><trkpt lat="42.33312070092361" lon="12.047083194985145"><ele>272.0</ele><time>2026-04-03T15:20:30.999Z</time></trkpt><trkpt lat="42.33324626598113" lon="12.046825238058451"><ele>271.0</ele><time>2026-04-03T15:20:31.999Z</time></trkpt><trkpt lat="42.333376980630916" lon="12.04654921405297"><ele>270.0</ele><time>2026-04-03T15:20:32.999Z</time></trkpt><trkpt lat="42.33350403613683" lon="12.046251813027167"><ele>270.0</ele><time>2026-04-03T15:20:33.999Z</time></trkpt><trkpt lat="42.33360745539793" lon="12.045955559757628"><ele>270.0</ele><time>2026-04-03T15:20:34.999Z</time></trkpt><trkpt lat="42.33369183837294" lon="12.045671306707114"><ele>268.5</ele><time>2026-04-03T15:20:35.999Z</time></trkpt><trkpt lat="42.333793176025125" lon="12.045400028974486"><ele>267.0</ele><time>2026-04-03T15:20:36.999Z</time></trkpt><trkpt lat="42.33393312604957" lon="12.045152198587104"><ele>264.5</ele><time>2026-04-03T15:20:37.999Z</time></trkpt><trkpt lat="42.33406169174216" lon="12.044890258205728"><ele>262.0</ele><time>2026-04-03T15:20:38.999Z</time></trkpt><trkpt lat="42.334206260998755" lon="12.044638095424181"><ele>262.0</ele><time>2026-04-03T15:20:39.999Z</time></trkpt><trkpt lat="42.334333401546985" lon="12.044416057615011"><ele>262.0</ele><time>2026-04-03T15:20:40.999Z</time></trkpt><trkpt lat="42.334467479037194" lon="12.044194564503238"><ele>262.0</ele><time>2026-04-03T15:20:41.999Z</time></trkpt><trkpt lat="42.33460737839926" lon="12.043956270886163"><ele>262.0</ele><time>2026-04-03T15:20:42.999Z</time></trkpt><trkpt lat="42.33475383758868" lon="12.043720785938577"><ele>262.0</ele><time>2026-04-03T15:20:43.999Z</time></trkpt><trkpt lat="42.33491003403642" lon="12.04349101883183"><ele>261.0</ele><time>2026-04-03T15:20:44.999Z</time></trkpt><trkpt lat="42.33508027293158" lon="12.043273928637124"><ele>260.0</ele><time>2026-04-03T15:20:45.999Z</time></trkpt><trkpt lat="42.33525397773652" lon="12.043059142040544"><ele>260.0</ele><time>2026-04-03T15:20:46.999Z</time></trkpt><trkpt lat="42.33541799767038" lon="12.04283781703622"><ele>260.0</ele><time>2026-04-03T15:20:47.999Z</time></trkpt><trkpt lat="42.335579336129456" lon="12.042613213225192"><ele>260.0</ele><time>2026-04-03T15:20:48.999Z</time></trkpt><trkpt lat="42.33572395668751" lon="12.042394348030841"><ele>260.0</ele><time>2026-04-03T15:20:49.999Z</time></trkpt><trkpt lat="42.3358700185729" lon="12.042184781706997"><ele>260.0</ele><time>2026-04-03T15:20:50.999Z</time></trkpt><trkpt lat="42.336019027359306" lon="12.041967734150353"><ele>260.0</ele><time>2026-04-03T15:20:51.999Z</time></trkpt><trkpt lat="42.33617044572424" lon="12.041736624217785"><ele>260.0</ele><time>2026-04-03T15:20:52.999Z</time></trkpt><trkpt lat="42.336322684262264" lon="12.041503626685579"><ele>259.5</ele><time>2026-04-03T15:20:53.999Z</time></trkpt><trkpt lat="42.33647686317405" lon="12.04127155360574"><ele>259.0</ele><time>2026-04-03T15:20:54.999Z</time></trkpt><trkpt lat="42.33662697810948" lon="12.041039423145556"><ele>258.0</ele><time>2026-04-03T15:20:55.999Z</time></trkpt><trkpt lat="42.336780500899856" lon="12.040788529599187"><ele>257.0</ele><time>2026-04-03T15:20:56.999Z</time></trkpt><trkpt lat="42.336934147711865" lon="12.040526753305821"><ele>257.0</ele><time>2026-04-03T15:20:57.999Z</time></trkpt><trkpt lat="42.33708857633423" lon="12.040257583229511"><ele>257.0</ele><time>2026-04-03T15:20:58.999Z</time></trkpt><trkpt lat="42.33723528112501" lon="12.039989781163081"><ele>257.0</ele><time>2026-04-03T15:20:59.999Z</time></trkpt><trkpt lat="42.33738703503191" lon="12.039731600592821"><ele>257.0</ele><time>2026-04-03T15:21:00.999Z</time></trkpt><trkpt lat="42.33753568551754" lon="12.039468354379203"><ele>257.0</ele><time>2026-04-03T15:21:01.999Z</time></trkpt><trkpt lat="42.33766704344349" lon="12.039191041949676"><ele>257.0</ele><time>2026-04-03T15:21:02.999Z</time></trkpt><trkpt lat="42.337818518058654" lon="12.038933600672188"><ele>255.0</ele><time>2026-04-03T15:21:03.999Z</time></trkpt><trkpt lat="42.33794989553019" lon="12.038647679499528"><ele>253.0</ele><time>2026-04-03T15:21:04.999Z</time></trkpt><trkpt lat="42.33807894743318" lon="12.038374051740707"><ele>253.0</ele><time>2026-04-03T15:21:05.999Z</time></trkpt><trkpt lat="42.338200612824615" lon="12.038092723221192"><ele>253.0</ele><time>2026-04-03T15:21:06.999Z</time></trkpt><trkpt lat="42.33832676847597" lon="12.037805327638548"><ele>253.0</ele><time>2026-04-03T15:21:07.999Z</time></trkpt><trkpt lat="42.33846962150165" lon="12.037533890682418"><ele>253.0</ele><time>2026-04-03T15:21:08.999Z</time></trkpt><trkpt lat="42.3386197666622" lon="12.037279059322074"><ele>253.0</ele><time>2026-04-03T15:21:09.999Z</time></trkpt><trkpt lat="42.33876198875573" lon="12.037011707062593"><ele>253.0</ele><time>2026-04-03T15:21:10.999Z</time></trkpt><trkpt lat="42.33891983895075" lon="12.03678196735682"><ele>251.0</ele><time>2026-04-03T15:21:11.999Z</time></trkpt><trkpt lat="42.339094879819335" lon="12.036555835070695"><ele>249.0</ele><time>2026-04-03T15:21:12.999Z</time></trkpt><trkpt lat="42.3392772212035" lon="12.036320688922753"><ele>249.0</ele><time>2026-04-03T15:21:13.999Z</time></trkpt><trkpt lat="42.33946064643311" lon="12.036089606501331"><ele>249.0</ele><time>2026-04-03T15:21:14.999Z</time></trkpt><trkpt lat="42.33963952568906" lon="12.035859246555635"><ele>247.0</ele><time>2026-04-03T15:21:15.999Z</time></trkpt><trkpt lat="42.33981028355604" lon="12.035638136754411"><ele>245.0</ele><time>2026-04-03T15:21:16.999Z</time></trkpt><trkpt lat="42.339979099129245" lon="12.03540002086923"><ele>245.0</ele><time>2026-04-03T15:21:17.999Z</time></trkpt><trkpt lat="42.34014985410517" lon="12.035159238084631"><ele>245.0</ele><time>2026-04-03T15:21:18.999Z</time></trkpt><trkpt lat="42.340324042308666" lon="12.03492945601472"><ele>243.5</ele><time>2026-04-03T15:21:19.999Z</time></trkpt><trkpt lat="42.34051021441308" lon="12.03471201726162"><ele>242.0</ele><time>2026-04-03T15:21:20.999Z</time></trkpt><trkpt lat="42.34068522024259" lon="12.03447040095531"><ele>242.0</ele><time>2026-04-03T15:21:21.999Z</time></trkpt><trkpt lat="42.34085656482082" lon="12.034231779629216"><ele>242.0</ele><time>2026-04-03T15:21:22.999Z</time></trkpt><trkpt lat="42.341025644932415" lon="12.033997074873144"><ele>239.5</ele><time>2026-04-03T15:21:23.999Z</time></trkpt><trkpt lat="42.34119475648755" lon="12.033770792745207"><ele>237.0</ele><time>2026-04-03T15:21:24.999Z</time></trkpt><trkpt lat="42.34137922188863" lon="12.033541524324109"><ele>237.0</ele><time>2026-04-03T15:21:25.999Z</time></trkpt><trkpt lat="42.341555905965286" lon="12.033309546296175"><ele>237.0</ele><time>2026-04-03T15:21:26.999Z</time></trkpt><trkpt lat="42.341737220714826" lon="12.033081405367495"><ele>237.0</ele><time>2026-04-03T15:21:27.999Z</time></trkpt><trkpt lat="42.34190683550983" lon="12.032852310151386"><ele>237.0</ele><time>2026-04-03T15:21:28.999Z</time></trkpt><trkpt lat="42.34208518251593" lon="12.032629174947822"><ele>235.5</ele><time>2026-04-03T15:21:29.999Z</time></trkpt><trkpt lat="42.34225614487757" lon="12.032385602602849"><ele>234.0</ele><time>2026-04-03T15:21:30.999Z</time></trkpt><trkpt lat="42.34241212449244" lon="12.032172308410397"><ele>234.0</ele><time>2026-04-03T15:21:31.999Z</time></trkpt><trkpt lat="42.34257088671117" lon="12.031976845689435"><ele>234.0</ele><time>2026-04-03T15:21:32.999Z</time></trkpt><trkpt lat="42.34271922212656" lon="12.031784807802726"><ele>234.0</ele><time>2026-04-03T15:21:33.999Z</time></trkpt><trkpt lat="42.34285515675256" lon="12.031601367914378"><ele>233.66666666666669</ele><time>2026-04-03T15:21:34.999Z</time></trkpt><trkpt lat="42.34298963056134" lon="12.031444362895037"><ele>233.33333333333334</ele><time>2026-04-03T15:21:35.999Z</time></trkpt><trkpt lat="42.343136010549415" lon="12.031304266780772"><ele>233.0</ele><time>2026-04-03T15:21:36.999Z</time></trkpt><trkpt lat="42.34331810066779" lon="12.031198733711571"><ele>233.0</ele><time>2026-04-03T15:21:37.999Z</time></trkpt><trkpt lat="42.34350711501849" lon="12.031123488741502"><ele>233.0</ele><time>2026-04-03T15:21:38.999Z</time></trkpt><trkpt lat="42.343701860435075" lon="12.031052471942738"><ele>233.0</ele><time>2026-04-03T15:21:39.999Z</time></trkpt><trkpt lat="42.34390059418042" lon="12.030973937223107"><ele>232.66666666666669</ele><time>2026-04-03T15:21:41Z</time></trkpt><trkpt lat="42.34410991107098" lon="12.03089472759371"><ele>232.33333333333331</ele><time>2026-04-03T15:21:42Z</time></trkpt><trkpt lat="42.34432455246399" lon="12.030818973149282"><ele>232.0</ele><time>2026-04-03T15:21:43Z</time></trkpt><trkpt lat="42.344544086008" lon="12.030742605360533"><ele>230.5</ele><time>2026-04-03T15:21:44Z</time></trkpt><trkpt lat="42.3447686505136" lon="12.030656872861693"><ele>229.0</ele><time>2026-04-03T15:21:45Z</time></trkpt><trkpt lat="42.344997153662824" lon="12.030573000088056"><ele>229.0</ele><time>2026-04-03T15:21:46Z</time></trkpt><trkpt lat="42.34521788406464" lon="12.030488397100116"><ele>229.0</ele><time>2026-04-03T15:21:47Z</time></trkpt><trkpt lat="42.34543866279315" lon="12.0304103654188"><ele>229.0</ele><time>2026-04-03T15:21:48Z</time></trkpt><trkpt lat="42.34565205470379" lon="12.030335997524888"><ele>229.0</ele><time>2026-04-03T15:21:49Z</time></trkpt><trkpt lat="42.34587182784851" lon="12.030263222318105"><ele>229.0</ele><time>2026-04-03T15:21:50Z</time></trkpt><trkpt lat="42.34608404325594" lon="12.030184424475287"><ele>229.0</ele><time>2026-04-03T15:21:51Z</time></trkpt><trkpt lat="42.34630707213268" lon="12.030098878567777"><ele>229.0</ele><time>2026-04-03T15:21:52Z</time></trkpt><trkpt lat="42.346530608847004" lon="12.030012619259663"><ele>227.0</ele><time>2026-04-03T15:21:53Z</time></trkpt><trkpt lat="42.346758466649504" lon="12.029925697179296"><ele>225.0</ele><time>2026-04-03T15:21:54Z</time></trkpt><trkpt lat="42.346990901919014" lon="12.029838507835782"><ele>222.5</ele><time>2026-04-03T15:21:55Z</time></trkpt><trkpt lat="42.34722369697287" lon="12.029747770305107"><ele>220.0</ele><time>2026-04-03T15:21:56Z</time></trkpt><trkpt lat="42.34745952575526" lon="12.029660261255954"><ele>220.0</ele><time>2026-04-03T15:21:57Z</time></trkpt><trkpt lat="42.34769986164203" lon="12.029579934421733"><ele>220.0</ele><time>2026-04-03T15:21:58Z</time></trkpt><trkpt lat="42.34793354920908" lon="12.029491795600917"><ele>217.5</ele><time>2026-04-03T15:21:59Z</time></trkpt><trkpt lat="42.34815913053442" lon="12.02940035134103"><ele>215.0</ele><time>2026-04-03T15:22:00Z</time></trkpt><trkpt lat="42.34837671244893" lon="12.029309422371254"><ele>215.0</ele><time>2026-04-03T15:22:01Z</time></trkpt><trkpt lat="42.34860191449769" lon="12.029229631683807"><ele>215.0</ele><time>2026-04-03T15:22:02Z</time></trkpt><trkpt lat="42.348823555932704" lon="12.02914502086323"><ele>212.5</ele><time>2026-04-03T15:22:03Z</time></trkpt><trkpt lat="42.349051370149056" lon="12.029059564653016"><ele>210.0</ele><time>2026-04-03T15:22:04Z</time></trkpt><trkpt lat="42.349279365002005" lon="12.028974774297014"><ele>210.0</ele><time>2026-04-03T15:22:05Z</time></trkpt><trkpt lat="42.34950490325049" lon="12.028890096917268"><ele>210.0</ele><time>2026-04-03T15:22:06Z</time></trkpt><trkpt lat="42.34973135746462" lon="12.028803976949801"><ele>209.0</ele><time>2026-04-03T15:22:07Z</time></trkpt><trkpt lat="42.34995862742415" lon="12.0287176971509"><ele>208.0</ele><time>2026-04-03T15:22:08Z</time></trkpt><trkpt lat="42.35018388142269" lon="12.028630865990891"><ele>208.0</ele><time>2026-04-03T15:22:09Z</time></trkpt><trkpt lat="42.35041102414705" lon="12.02854819087351"><ele>208.0</ele><time>2026-04-03T15:22:10Z</time></trkpt><trkpt lat="42.35063721309634" lon="12.028464147345307"><ele>208.0</ele><time>2026-04-03T15:22:11Z</time></trkpt><trkpt lat="42.35085444916618" lon="12.028378006302448"><ele>208.0</ele><time>2026-04-03T15:22:12Z</time></trkpt><trkpt lat="42.35104954774878" lon="12.02829799969702"><ele>208.0</ele><time>2026-04-03T15:22:13Z</time></trkpt><trkpt lat="42.351238856918144" lon="12.028211609583371"><ele>208.33333333333331</ele><time>2026-04-03T15:22:14Z</time></trkpt><trkpt lat="42.3514019837554" lon="12.0280882006155"><ele>208.66666666666669</ele><time>2026-04-03T15:22:15Z</time></trkpt><trkpt lat="42.3515439350899" lon="12.027906549474332"><ele>209.0</ele><time>2026-04-03T15:22:16Z</time></trkpt><trkpt lat="42.35167754260363" lon="12.02771365811385"><ele>209.0</ele><time>2026-04-03T15:22:17Z</time></trkpt><trkpt lat="42.351837905747395" lon="12.027525670559124"><ele>209.0</ele><time>2026-04-03T15:22:18Z</time></trkpt><trkpt lat="42.35199456794927" lon="12.027325462588795"><ele>209.0</ele><time>2026-04-03T15:22:19Z</time></trkpt><trkpt lat="42.3521638314548" lon="12.027132279028777"><ele>207.66666666666669</ele><time>2026-04-03T15:22:20Z</time></trkpt><trkpt lat="42.35231755645198" lon="12.026930247776054"><ele>206.33333333333331</ele><time>2026-04-03T15:22:21Z</time></trkpt><trkpt lat="42.35248049634617" lon="12.02672990350194"><ele>205.0</ele><time>2026-04-03T15:22:22Z</time></trkpt><trkpt lat="42.35264244226777" lon="12.026534439626245"><ele>205.0</ele><time>2026-04-03T15:22:23Z</time></trkpt><trkpt lat="42.35280836030224" lon="12.026345221836907"><ele>205.0</ele><time>2026-04-03T15:22:24Z</time></trkpt><trkpt lat="42.35296741308906" lon="12.02614772019259"><ele>205.0</ele><time>2026-04-03T15:22:25Z</time></trkpt><trkpt lat="42.353130989031314" lon="12.025948214180863"><ele>204.5</ele><time>2026-04-03T15:22:26Z</time></trkpt><trkpt lat="42.35329654704859" lon="12.025747241689757"><ele>204.0</ele><time>2026-04-03T15:22:27Z</time></trkpt><trkpt lat="42.353466735602986" lon="12.025538767631403"><ele>204.0</ele><time>2026-04-03T15:22:28Z</time></trkpt><trkpt lat="42.353624169390585" lon="12.025326019970619"><ele>204.0</ele><time>2026-04-03T15:22:29Z</time></trkpt><trkpt lat="42.35377512454687" lon="12.02509679451337"><ele>204.0</ele><time>2026-04-03T15:22:30Z</time></trkpt><trkpt lat="42.353906049705614" lon="12.024830923729644"><ele>204.0</ele><time>2026-04-03T15:22:31Z</time></trkpt><trkpt lat="42.35402294507061" lon="12.024549497425225"><ele>204.0</ele><time>2026-04-03T15:22:32Z</time></trkpt><trkpt lat="42.354142079843704" lon="12.024267540423175"><ele>203.5</ele><time>2026-04-03T15:22:33Z</time></trkpt><trkpt lat="42.35426402609809" lon="12.023971381096796"><ele>203.0</ele><time>2026-04-03T15:22:34Z</time></trkpt><trkpt lat="42.35439270062834" lon="12.023677551963932"><ele>203.0</ele><time>2026-04-03T15:22:35Z</time></trkpt><trkpt lat="42.35452378876415" lon="12.023390490944353"><ele>203.0</ele><time>2026-04-03T15:22:36Z</time></trkpt><trkpt lat="42.35464912384133" lon="12.02311225953935"><ele>201.5</ele><time>2026-04-03T15:22:37Z</time></trkpt><trkpt lat="42.354772179067524" lon="12.022830426383964"><ele>200.0</ele><time>2026-04-03T15:22:38Z</time></trkpt><trkpt lat="42.35489060719345" lon="12.02254647365987"><ele>199.0</ele><time>2026-04-03T15:22:39Z</time></trkpt><trkpt lat="42.35502129458184" lon="12.022259138936214"><ele>198.0</ele><time>2026-04-03T15:22:40Z</time></trkpt><trkpt lat="42.3551458383873" lon="12.021959801245028"><ele>198.0</ele><time>2026-04-03T15:22:41Z</time></trkpt><trkpt lat="42.3552693823543" lon="12.02166714855563"><ele>198.0</ele><time>2026-04-03T15:22:42Z</time></trkpt><trkpt lat="42.35539530721723" lon="12.021371665278972"><ele>197.5</ele><time>2026-04-03T15:22:43Z</time></trkpt><trkpt lat="42.35552495869233" lon="12.021094674369769"><ele>197.0</ele><time>2026-04-03T15:22:44Z</time></trkpt><trkpt lat="42.355651350906406" lon="12.020821632080587"><ele>197.0</ele><time>2026-04-03T15:22:45Z</time></trkpt><trkpt lat="42.35577035331748" lon="12.02054179085644"><ele>197.0</ele><time>2026-04-03T15:22:45.999Z</time></trkpt><trkpt lat="42.35589105404567" lon="12.020267069178178"><ele>197.0</ele><time>2026-04-03T15:22:46.999Z</time></trkpt><trkpt lat="42.356011392187824" lon="12.019989640205738"><ele>197.0</ele><time>2026-04-03T15:22:47.999Z</time></trkpt><trkpt lat="42.35613036250516" lon="12.019707764453933"><ele>195.0</ele><time>2026-04-03T15:22:48.999Z</time></trkpt><trkpt lat="42.356251863168524" lon="12.019428496215163"><ele>193.0</ele><time>2026-04-03T15:22:49.999Z</time></trkpt><trkpt lat="42.35636953219253" lon="12.019139031963878"><ele>193.0</ele><time>2026-04-03T15:22:50.999Z</time></trkpt><trkpt lat="42.356512810367676" lon="12.018854221804187"><ele>193.0</ele><time>2026-04-03T15:22:51.999Z</time></trkpt><trkpt lat="42.356639744610774" lon="12.018563784520621"><ele>192.0</ele><time>2026-04-03T15:22:52.999Z</time></trkpt><trkpt lat="42.356756721615135" lon="12.018265291193867"><ele>191.0</ele><time>2026-04-03T15:22:53.999Z</time></trkpt><trkpt lat="42.35689359960609" lon="12.017970851757772"><ele>191.0</ele><time>2026-04-03T15:22:54.999Z</time></trkpt><trkpt lat="42.35702674252958" lon="12.017669789853196"><ele>191.0</ele><time>2026-04-03T15:22:55.999Z</time></trkpt><trkpt lat="42.35715698233682" lon="12.017378409725747"><ele>192.0</ele><time>2026-04-03T15:22:56.999Z</time></trkpt><trkpt lat="42.357275962613365" lon="12.017097736076185"><ele>193.0</ele><time>2026-04-03T15:22:57.999Z</time></trkpt><trkpt lat="42.35738796774017" lon="12.01683152922632"><ele>192.66666666666666</ele><time>2026-04-03T15:22:58.999Z</time></trkpt><trkpt lat="42.357501547378035" lon="12.016580621464309"><ele>192.33333333333331</ele><time>2026-04-03T15:22:59.999Z</time></trkpt><trkpt lat="42.357614452646814" lon="12.016321462277208"><ele>192.0</ele><time>2026-04-03T15:23:00.999Z</time></trkpt><trkpt lat="42.35772656236826" lon="12.016078827786497"><ele>192.0</ele><time>2026-04-03T15:23:01.999Z</time></trkpt><trkpt lat="42.35784127521246" lon="12.015841039508373"><ele>192.0</ele><time>2026-04-03T15:23:02.999Z</time></trkpt><trkpt lat="42.357951895194134" lon="12.015600082951197"><ele>192.0</ele><time>2026-04-03T15:23:03.999Z</time></trkpt><trkpt lat="42.35805475723102" lon="12.01535639636912"><ele>190.66666666666666</ele><time>2026-04-03T15:23:04.999Z</time></trkpt><trkpt lat="42.3581675860387" lon="12.015111649339666"><ele>189.33333333333331</ele><time>2026-04-03T15:23:05.999Z</time></trkpt><trkpt lat="42.35828083476951" lon="12.014862167946669"><ele>188.0</ele><time>2026-04-03T15:23:06.999Z</time></trkpt><trkpt lat="42.358397439885024" lon="12.014594341611101"><ele>187.5</ele><time>2026-04-03T15:23:07.999Z</time></trkpt><trkpt lat="42.35852262384325" lon="12.0143160365758"><ele>187.0</ele><time>2026-04-03T15:23:08.999Z</time></trkpt><trkpt lat="42.358650712643424" lon="12.014042134091746"><ele>187.0</ele><time>2026-04-03T15:23:09.999Z</time></trkpt><trkpt lat="42.35877667071536" lon="12.013772132241145"><ele>187.0</ele><time>2026-04-03T15:23:10.999Z</time></trkpt><trkpt lat="42.35889417479311" lon="12.01349810377378"><ele>187.0</ele><time>2026-04-03T15:23:11.999Z</time></trkpt><trkpt lat="42.359024980460454" lon="12.013207223709065"><ele>187.0</ele><time>2026-04-03T15:23:12.999Z</time></trkpt><trkpt lat="42.3591648384561" lon="12.012898802135311"><ele>187.0</ele><time>2026-04-03T15:23:13.999Z</time></trkpt><trkpt lat="42.3592856883975" lon="12.012592958067136"><ele>187.0</ele><time>2026-04-03T15:23:14.999Z</time></trkpt><trkpt lat="42.35941719483408" lon="12.012320373291363"><ele>186.33333333333334</ele><time>2026-04-03T15:23:15.999Z</time></trkpt><trkpt lat="42.3595291465962" lon="12.01205913982536"><ele>185.66666666666666</ele><time>2026-04-03T15:23:16.999Z</time></trkpt><trkpt lat="42.35963589172508" lon="12.011820274667082"><ele>185.0</ele><time>2026-04-03T15:23:17.999Z</time></trkpt><trkpt lat="42.359737493606524" lon="12.011594953091437"><ele>185.0</ele><time>2026-04-03T15:23:18.999Z</time></trkpt><trkpt lat="42.359834623200555" lon="12.011386591563326"><ele>185.0</ele><time>2026-04-03T15:23:19.999Z</time></trkpt><trkpt lat="42.35992316035651" lon="12.011195624682783"><ele>185.0</ele><time>2026-04-03T15:23:20.999Z</time></trkpt><trkpt lat="42.36001048608505" lon="12.01099437848651"><ele>185.0</ele><time>2026-04-03T15:23:21.999Z</time></trkpt><trkpt lat="42.36010249168245" lon="12.010789631300575"><ele>185.0</ele><time>2026-04-03T15:23:22.999Z</time></trkpt><trkpt lat="42.36019928262393" lon="12.010584127915248"><ele>185.0</ele><time>2026-04-03T15:23:23.999Z</time></trkpt><trkpt lat="42.36029649894454" lon="12.010373332507227"><ele>185.0</ele><time>2026-04-03T15:23:24.999Z</time></trkpt><trkpt lat="42.360394493911556" lon="12.010164632547086"><ele>185.0</ele><time>2026-04-03T15:23:25.999Z</time></trkpt><trkpt lat="42.36048585734043" lon="12.00996110364868"><ele>185.0</ele><time>2026-04-03T15:23:26.999Z</time></trkpt><trkpt lat="42.360575813024845" lon="12.009757610024026"><ele>185.0</ele><time>2026-04-03T15:23:27.999Z</time></trkpt><trkpt lat="42.36066945304822" lon="12.009551830541827"><ele>185.0</ele><time>2026-04-03T15:23:28.999Z</time></trkpt><trkpt lat="42.36076548267189" lon="12.00934005244742"><ele>185.0</ele><time>2026-04-03T15:23:29.999Z</time></trkpt><trkpt lat="42.36086529826816" lon="12.009121090516576"><ele>185.0</ele><time>2026-04-03T15:23:30.999Z</time></trkpt><trkpt lat="42.36096939992208" lon="12.008895288714166"><ele>185.0</ele><time>2026-04-03T15:23:31.999Z</time></trkpt><trkpt lat="42.36106944174493" lon="12.008666239507011"><ele>185.0</ele><time>2026-04-03T15:23:32.999Z</time></trkpt><trkpt lat="42.36117368811466" lon="12.008424011054412"><ele>184.66666666666666</ele><time>2026-04-03T15:23:33.999Z</time></trkpt><trkpt lat="42.3612808266509" lon="12.008179136882863"><ele>184.33333333333334</ele><time>2026-04-03T15:23:34.999Z</time></trkpt><trkpt lat="42.36139130851161" lon="12.007934734620727"><ele>184.0</ele><time>2026-04-03T15:23:35.999Z</time></trkpt><trkpt lat="42.36149728431976" lon="12.007682930073893"><ele>183.66666666666669</ele><time>2026-04-03T15:23:36.999Z</time></trkpt><trkpt lat="42.361606474038894" lon="12.007421739129741"><ele>183.33333333333334</ele><time>2026-04-03T15:23:37.999Z</time></trkpt><trkpt lat="42.3617176160848" lon="12.007155114885652"><ele>183.0</ele><time>2026-04-03T15:23:38.999Z</time></trkpt><trkpt lat="42.36184005779551" lon="12.00690709307205"><ele>183.0</ele><time>2026-04-03T15:23:39.999Z</time></trkpt><trkpt lat="42.36195482973083" lon="12.006675585986661"><ele>183.0</ele><time>2026-04-03T15:23:40.999Z</time></trkpt><trkpt lat="42.36207048396922" lon="12.006394953501605"><ele>183.0</ele><time>2026-04-03T15:23:41.999Z</time></trkpt><trkpt lat="42.36220050319196" lon="12.006080685574377"><ele>183.0</ele><time>2026-04-03T15:23:42.999Z</time></trkpt><trkpt lat="42.36233950116389" lon="12.00574939467429"><ele>183.0</ele><time>2026-04-03T15:23:43.999Z</time></trkpt><trkpt lat="42.362479651163895" lon="12.005405194502332"><ele>183.0</ele><time>2026-04-03T15:23:44.999Z</time></trkpt><trkpt lat="42.36262527978875" lon="12.005039315868935"><ele>183.0</ele><time>2026-04-03T15:23:45.999Z</time></trkpt><trkpt lat="42.36260568672589" lon="12.004949673976824"><ele>183.0</ele><time>2026-04-03T15:23:47Z</time></trkpt><trkpt lat="42.36273736416073" lon="12.004636981014649"><ele>181.5</ele><time>2026-04-03T15:23:48Z</time></trkpt><trkpt lat="42.36286299663109" lon="12.004348390230716"><ele>180.0</ele><time>2026-04-03T15:23:49Z</time></trkpt><trkpt lat="42.36297915602956" lon="12.004079406173716"><ele>181.0</ele><time>2026-04-03T15:23:50Z</time></trkpt><trkpt lat="42.3630916004391" lon="12.003801650274008"><ele>182.0</ele><time>2026-04-03T15:23:51Z</time></trkpt><trkpt lat="42.36320045896802" lon="12.00353610496665"><ele>181.66666666666666</ele><time>2026-04-03T15:23:52Z</time></trkpt><trkpt lat="42.363298701363455" lon="12.00328799958712"><ele>181.33333333333334</ele><time>2026-04-03T15:23:53Z</time></trkpt><trkpt lat="42.36339589159573" lon="12.003053347912946"><ele>181.0</ele><time>2026-04-03T15:23:54Z</time></trkpt><trkpt lat="42.36348932967641" lon="12.002812772595986"><ele>181.0</ele><time>2026-04-03T15:23:55Z</time></trkpt><trkpt lat="42.36358722226074" lon="12.002571891267669"><ele>181.0</ele><time>2026-04-03T15:23:56Z</time></trkpt><trkpt lat="42.36369179954434" lon="12.002319068546717"><ele>181.0</ele><time>2026-04-03T15:23:57Z</time></trkpt><trkpt lat="42.363800574370345" lon="12.002061648781364"><ele>181.0</ele><time>2026-04-03T15:23:58Z</time></trkpt><trkpt lat="42.363898103824525" lon="12.001824661801946"><ele>181.0</ele><time>2026-04-03T15:23:59Z</time></trkpt><trkpt lat="42.36398769672028" lon="12.001603598331569"><ele>181.0</ele><time>2026-04-03T15:24:00Z</time></trkpt><trkpt lat="42.3640696883945" lon="12.00139290141653"><ele>180.66666666666669</ele><time>2026-04-03T15:24:01Z</time></trkpt><trkpt lat="42.36414802037265" lon="12.001195048564613"><ele>180.33333333333334</ele><time>2026-04-03T15:24:02Z</time></trkpt><trkpt lat="42.364223545278065" lon="12.001003949011585"><ele>180.0</ele><time>2026-04-03T15:24:03Z</time></trkpt><trkpt lat="42.36430337382005" lon="12.000815866840838"><ele>179.66666666666666</ele><time>2026-04-03T15:24:04Z</time></trkpt><trkpt lat="42.36438449922212" lon="12.00061951166711"><ele>179.33333333333331</ele><time>2026-04-03T15:24:05Z</time></trkpt><trkpt lat="42.364463134221246" lon="12.000422350036056"><ele>179.0</ele><time>2026-04-03T15:24:06Z</time></trkpt><trkpt lat="42.36454199823564" lon="12.000226204373512"><ele>179.0</ele><time>2026-04-03T15:24:07Z</time></trkpt><trkpt lat="42.36461612099332" lon="12.000042500777388"><ele>179.0</ele><time>2026-04-03T15:24:08Z</time></trkpt><trkpt lat="42.36467119595441" lon="11.999894050217591"><ele>179.0</ele><time>2026-04-03T15:24:09Z</time></trkpt><trkpt lat="42.364736177713716" lon="11.9997274299306"><ele>179.0</ele><time>2026-04-03T15:24:10Z</time></trkpt><trkpt lat="42.36481833582384" lon="11.999550136302034"><ele>178.0</ele><time>2026-04-03T15:24:11Z</time></trkpt><trkpt lat="42.36489145211762" lon="11.999385501926405"><ele>177.0</ele><time>2026-04-03T15:24:12Z</time></trkpt><trkpt lat="42.36494732226949" lon="11.99923802398048"><ele>176.0</ele><time>2026-04-03T15:24:13Z</time></trkpt><trkpt lat="42.3650019791908" lon="11.999094480039895"><ele>175.0</ele><time>2026-04-03T15:24:14Z</time></trkpt><trkpt lat="42.36505800074414" lon="11.998947429896813"><ele>174.5</ele><time>2026-04-03T15:24:15Z</time></trkpt><trkpt lat="42.36511056335616" lon="11.998805528376872"><ele>174.0</ele><time>2026-04-03T15:24:16Z</time></trkpt><trkpt lat="42.36518012189125" lon="11.998642916770065"><ele>173.5</ele><time>2026-04-03T15:24:17Z</time></trkpt><trkpt lat="42.36525636396372" lon="11.998475103228346"><ele>173.0</ele><time>2026-04-03T15:24:18Z</time></trkpt><trkpt lat="42.365344931468385" lon="11.998309736101604"><ele>173.0</ele><time>2026-04-03T15:24:19Z</time></trkpt><trkpt lat="42.3654354333183" lon="11.998156934774908"><ele>173.0</ele><time>2026-04-03T15:24:20Z</time></trkpt><trkpt lat="42.365540738394046" lon="11.998018728774015"><ele>173.0</ele><time>2026-04-03T15:24:21Z</time></trkpt><trkpt lat="42.36564881596996" lon="11.9978869459707"><ele>173.0</ele><time>2026-04-03T15:24:22Z</time></trkpt><trkpt lat="42.36575982732125" lon="11.997764909531611"><ele>172.75</ele><time>2026-04-03T15:24:23Z</time></trkpt><trkpt lat="42.3658795007103" lon="11.99765237324189"><ele>172.5</ele><time>2026-04-03T15:24:24Z</time></trkpt><trkpt lat="42.36600336884033" lon="11.997542198528237"><ele>172.25</ele><time>2026-04-03T15:24:25Z</time></trkpt><trkpt lat="42.36612825677888" lon="11.99742439632677"><ele>172.0</ele><time>2026-04-03T15:24:26Z</time></trkpt><trkpt lat="42.36625160922665" lon="11.9973043965947"><ele>171.0</ele><time>2026-04-03T15:24:27Z</time></trkpt><trkpt lat="42.3663794312741" lon="11.997183348546486"><ele>170.0</ele><time>2026-04-03T15:24:28Z</time></trkpt><trkpt lat="42.36651051983985" lon="11.997069444845792"><ele>169.0</ele><time>2026-04-03T15:24:29Z</time></trkpt><trkpt lat="42.36664023188549" lon="11.99695541028105"><ele>169.0</ele><time>2026-04-03T15:24:30Z</time></trkpt><trkpt lat="42.36675015748614" lon="11.996832015345158"><ele>169.0</ele><time>2026-04-03T15:24:31Z</time></trkpt><trkpt lat="42.366876031390106" lon="11.99672546862944"><ele>169.0</ele><time>2026-04-03T15:24:32Z</time></trkpt><trkpt lat="42.36701282714067" lon="11.996602391604384"><ele>168.66666666666669</ele><time>2026-04-03T15:24:33Z</time></trkpt><trkpt lat="42.36715771490229" lon="11.996476255612444"><ele>168.33333333333334</ele><time>2026-04-03T15:24:34Z</time></trkpt><trkpt lat="42.36729513566964" lon="11.996357392467107"><ele>168.0</ele><time>2026-04-03T15:24:35Z</time></trkpt><trkpt lat="42.36743576796785" lon="11.996244523401868"><ele>167.25</ele><time>2026-04-03T15:24:36Z</time></trkpt><trkpt lat="42.36756631991045" lon="11.99614200658917"><ele>166.5</ele><time>2026-04-03T15:24:37Z</time></trkpt><trkpt lat="42.36770034197964" lon="11.996050635764911"><ele>165.75</ele><time>2026-04-03T15:24:38Z</time></trkpt><trkpt lat="42.36782279236944" lon="11.995970331122725"><ele>165.0</ele><time>2026-04-03T15:24:39Z</time></trkpt><trkpt lat="42.36795190729609" lon="11.99588805289928"><ele>163.0</ele><time>2026-04-03T15:24:40Z</time></trkpt><trkpt lat="42.368075093429084" lon="11.995798788541682"><ele>161.0</ele><time>2026-04-03T15:24:41Z</time></trkpt><trkpt lat="42.36819174368593" lon="11.99567491288091"><ele>159.0</ele><time>2026-04-03T15:24:42Z</time></trkpt><trkpt lat="42.3682852282289" lon="11.995520191829673"><ele>157.0</ele><time>2026-04-03T15:24:43Z</time></trkpt><trkpt lat="42.368360686439786" lon="11.995346929953683"><ele>157.0</ele><time>2026-04-03T15:24:44Z</time></trkpt><trkpt lat="42.36842691833292" lon="11.99515571209765"><ele>157.0</ele><time>2026-04-03T15:24:45Z</time></trkpt><trkpt lat="42.368493280315015" lon="11.994972184276806"><ele>157.0</ele><time>2026-04-03T15:24:46Z</time></trkpt><trkpt lat="42.368548014714676" lon="11.994801180951502"><ele>157.0</ele><time>2026-04-03T15:24:46.999Z</time></trkpt><trkpt lat="42.36858868747499" lon="11.994619933597452"><ele>157.25</ele><time>2026-04-03T15:24:47.999Z</time></trkpt><trkpt lat="42.368602893890596" lon="11.994442158816556"><ele>157.5</ele><time>2026-04-03T15:24:48.999Z</time></trkpt><trkpt lat="42.368591570290135" lon="11.994252615905161"><ele>157.75</ele><time>2026-04-03T15:24:49.999Z</time></trkpt><trkpt lat="42.368556420730364" lon="11.994051113735297"><ele>158.0</ele><time>2026-04-03T15:24:50.999Z</time></trkpt><trkpt lat="42.36850366430226" lon="11.993835903548058"><ele>158.0</ele><time>2026-04-03T15:24:51.999Z</time></trkpt><trkpt lat="42.36845473560692" lon="11.993618872923358"><ele>158.0</ele><time>2026-04-03T15:24:52.999Z</time></trkpt><trkpt lat="42.368403779833706" lon="11.993414512339859"><ele>158.0</ele><time>2026-04-03T15:24:53.999Z</time></trkpt><trkpt lat="42.368356297771086" lon="11.993223075147283"><ele>157.75</ele><time>2026-04-03T15:24:54.999Z</time></trkpt><trkpt lat="42.368312356481745" lon="11.993040286339605"><ele>157.5</ele><time>2026-04-03T15:24:55.999Z</time></trkpt><trkpt lat="42.368274581720804" lon="11.992865962746412"><ele>157.25</ele><time>2026-04-03T15:24:56.999Z</time></trkpt><trkpt lat="42.368243578359724" lon="11.992703229035515"><ele>157.0</ele><time>2026-04-03T15:24:57.999Z</time></trkpt><trkpt lat="42.36822029546914" lon="11.992546885247297"><ele>155.75</ele><time>2026-04-03T15:24:58.999Z</time></trkpt><trkpt lat="42.36820021658854" lon="11.992382656537137"><ele>154.5</ele><time>2026-04-03T15:24:59.999Z</time></trkpt><trkpt lat="42.368201875397304" lon="11.992182052148303"><ele>153.25</ele><time>2026-04-03T15:25:00.999Z</time></trkpt><trkpt lat="42.36819606275484" lon="11.991963243350012"><ele>152.0</ele><time>2026-04-03T15:25:01.999Z</time></trkpt><trkpt lat="42.36819140619704" lon="11.99172531950293"><ele>151.33333333333331</ele><time>2026-04-03T15:25:02.999Z</time></trkpt><trkpt lat="42.36817039870823" lon="11.991494519200787"><ele>150.66666666666666</ele><time>2026-04-03T15:25:03.999Z</time></trkpt><trkpt lat="42.36816752760137" lon="11.991250365365714"><ele>150.0</ele><time>2026-04-03T15:25:04.999Z</time></trkpt><trkpt lat="42.36817748678191" lon="11.991015616153716"><ele>147.66666666666666</ele><time>2026-04-03T15:25:05.999Z</time></trkpt><trkpt lat="42.36815689740826" lon="11.990787332254355"><ele>145.33333333333331</ele><time>2026-04-03T15:25:06.999Z</time></trkpt><trkpt lat="42.36815212481603" lon="11.990567979303123"><ele>143.0</ele><time>2026-04-03T15:25:07.999Z</time></trkpt><trkpt lat="42.36816250114591" lon="11.990356776539787"><ele>143.0</ele><time>2026-04-03T15:25:08.999Z</time></trkpt><trkpt lat="42.36816082564096" lon="11.990138373360143"><ele>143.0</ele><time>2026-04-03T15:25:09.999Z</time></trkpt><trkpt lat="42.36816252355098" lon="11.989907463624366"><ele>143.0</ele><time>2026-04-03T15:25:10.999Z</time></trkpt><trkpt lat="42.36817013284833" lon="11.989669352415348"><ele>140.66666666666666</ele><time>2026-04-03T15:25:11.999Z</time></trkpt><trkpt lat="42.36817095190381" lon="11.98939801593408"><ele>138.33333333333334</ele><time>2026-04-03T15:25:12.999Z</time></trkpt><trkpt lat="42.36819291510259" lon="11.989138976714282"><ele>136.0</ele><time>2026-04-03T15:25:13.999Z</time></trkpt><trkpt lat="42.368215975512314" lon="11.98888990638877"><ele>135.66666666666669</ele><time>2026-04-03T15:25:14.999Z</time></trkpt><trkpt lat="42.368233050658056" lon="11.988658091075186"><ele>135.33333333333334</ele><time>2026-04-03T15:25:15.999Z</time></trkpt><trkpt lat="42.36826720687858" lon="11.988440450779327"><ele>135.0</ele><time>2026-04-03T15:25:16.999Z</time></trkpt><trkpt lat="42.36828735956412" lon="11.988229513882855"><ele>135.0</ele><time>2026-04-03T15:25:17.999Z</time></trkpt><trkpt lat="42.3683054672977" lon="11.98800016631239"><ele>135.0</ele><time>2026-04-03T15:25:18.999Z</time></trkpt><trkpt lat="42.36831442583727" lon="11.987771659932562"><ele>135.0</ele><time>2026-04-03T15:25:19.999Z</time></trkpt><trkpt lat="42.36830376426799" lon="11.98756547011029"><ele>136.5</ele><time>2026-04-03T15:25:20.999Z</time></trkpt><trkpt lat="42.36827310208875" lon="11.98737026926899"><ele>138.0</ele><time>2026-04-03T15:25:21.999Z</time></trkpt><trkpt lat="42.36822474391245" lon="11.987194255927054"><ele>139.5</ele><time>2026-04-03T15:25:22.999Z</time></trkpt><trkpt lat="42.36815141177443" lon="11.98703997827277"><ele>141.0</ele><time>2026-04-03T15:25:23.999Z</time></trkpt><trkpt lat="42.3681071165785" lon="11.986867481630213"><ele>141.0</ele><time>2026-04-03T15:25:24.999Z</time></trkpt><trkpt lat="42.36806194414472" lon="11.986722058362341"><ele>141.0</ele><time>2026-04-03T15:25:25.999Z</time></trkpt><trkpt lat="42.368027686864544" lon="11.986583037516112"><ele>141.0</ele><time>2026-04-03T15:25:26.999Z</time></trkpt><trkpt lat="42.36802120951063" lon="11.986415305120396"><ele>141.0</ele><time>2026-04-03T15:25:27.999Z</time></trkpt><trkpt lat="42.368041698448344" lon="11.986227236053669"><ele>143.0</ele><time>2026-04-03T15:25:28.999Z</time></trkpt><trkpt lat="42.36812200506121" lon="11.986036377120252"><ele>145.0</ele><time>2026-04-03T15:25:29.999Z</time></trkpt><trkpt lat="42.36824183000425" lon="11.985857993058444"><ele>147.0</ele><time>2026-04-03T15:25:30.999Z</time></trkpt><trkpt lat="42.368360112734564" lon="11.985681653184638"><ele>148.5</ele><time>2026-04-03T15:25:31.999Z</time></trkpt><trkpt lat="42.368460593130116" lon="11.985515020260548"><ele>150.0</ele><time>2026-04-03T15:25:32.999Z</time></trkpt><trkpt lat="42.36855385796512" lon="11.985362871902762"><ele>151.5</ele><time>2026-04-03T15:25:33.999Z</time></trkpt><trkpt lat="42.36863764342077" lon="11.9852313642343"><ele>153.0</ele><time>2026-04-03T15:25:34.999Z</time></trkpt><trkpt lat="42.368716796189545" lon="11.985112990871984"><ele>153.75</ele><time>2026-04-03T15:25:35.999Z</time></trkpt><trkpt lat="42.36879647387328" lon="11.984980668827202"><ele>154.5</ele><time>2026-04-03T15:25:36.999Z</time></trkpt><trkpt lat="42.36888767171763" lon="11.984849410027673"><ele>155.25</ele><time>2026-04-03T15:25:37.999Z</time></trkpt><trkpt lat="42.368971126713" lon="11.984707927551433"><ele>156.0</ele><time>2026-04-03T15:25:38.999Z</time></trkpt><trkpt lat="42.36905346123846" lon="11.984565415472188"><ele>157.5</ele><time>2026-04-03T15:25:39.999Z</time></trkpt><trkpt lat="42.36914694828675" lon="11.984421529827271"><ele>159.0</ele><time>2026-04-03T15:25:40.999Z</time></trkpt><trkpt lat="42.369234468405104" lon="11.984290550563262"><ele>160.5</ele><time>2026-04-03T15:25:41.999Z</time></trkpt><trkpt lat="42.36933842680129" lon="11.984137653233715"><ele>162.0</ele><time>2026-04-03T15:25:42.999Z</time></trkpt><trkpt lat="42.369437472130265" lon="11.983987173225515"><ele>162.0</ele><time>2026-04-03T15:25:43.999Z</time></trkpt><trkpt lat="42.36954208607333" lon="11.983839388588532"><ele>162.0</ele><time>2026-04-03T15:25:44.999Z</time></trkpt><trkpt lat="42.36965808405364" lon="11.983686095263586"><ele>162.0</ele><time>2026-04-03T15:25:45.999Z</time></trkpt><trkpt lat="42.36977837425913" lon="11.983526667954832"><ele>163.33333333333334</ele><time>2026-04-03T15:25:46.999Z</time></trkpt><trkpt lat="42.369902496502654" lon="11.983362225404363"><ele>164.66666666666669</ele><time>2026-04-03T15:25:47.999Z</time></trkpt><trkpt lat="42.370026808861425" lon="11.983199556165191"><ele>166.0</ele><time>2026-04-03T15:25:48.999Z</time></trkpt><trkpt lat="42.370142572810636" lon="11.983047662560637"><ele>166.0</ele><time>2026-04-03T15:25:49.999Z</time></trkpt><trkpt lat="42.37025230906564" lon="11.982886101737877"><ele>166.0</ele><time>2026-04-03T15:25:50.999Z</time></trkpt><trkpt lat="42.37037182687971" lon="11.982694134096688"><ele>166.0</ele><time>2026-04-03T15:25:51.999Z</time></trkpt><trkpt lat="42.37051119803474" lon="11.982475539724739"><ele>164.0</ele><time>2026-04-03T15:25:53Z</time></trkpt><trkpt lat="42.37064205448729" lon="11.982226175071952"><ele>162.0</ele><time>2026-04-03T15:25:54Z</time></trkpt><trkpt lat="42.37078308691903" lon="11.981955130393066"><ele>162.0</ele><time>2026-04-03T15:25:55Z</time></trkpt><trkpt lat="42.370929090463285" lon="11.981671047143026"><ele>162.0</ele><time>2026-04-03T15:25:56Z</time></trkpt><trkpt lat="42.37106862925144" lon="11.981359586437774"><ele>162.0</ele><time>2026-04-03T15:25:57Z</time></trkpt><trkpt lat="42.371222733675936" lon="11.981072283814372"><ele>162.0</ele><time>2026-04-03T15:25:58Z</time></trkpt><trkpt lat="42.3713641968408" lon="11.980793331954029"><ele>162.5</ele><time>2026-04-03T15:25:59Z</time></trkpt><trkpt lat="42.37150077365872" lon="11.980522758312787"><ele>163.0</ele><time>2026-04-03T15:26:00Z</time></trkpt><trkpt lat="42.37164343566877" lon="11.98026629447811"><ele>162.0</ele><time>2026-04-03T15:26:01Z</time></trkpt><trkpt lat="42.37177223723168" lon="11.980005408879531"><ele>161.0</ele><time>2026-04-03T15:26:02Z</time></trkpt><trkpt lat="42.37190432522151" lon="11.979747077628076"><ele>161.0</ele><time>2026-04-03T15:26:03Z</time></trkpt><trkpt lat="42.37203641927491" lon="11.979492619600492"><ele>161.0</ele><time>2026-04-03T15:26:04Z</time></trkpt><trkpt lat="42.37217034012036" lon="11.979235083994448"><ele>161.0</ele><time>2026-04-03T15:26:05Z</time></trkpt><trkpt lat="42.37230705463084" lon="11.978972517120493"><ele>161.0</ele><time>2026-04-03T15:26:06Z</time></trkpt><trkpt lat="42.37243947159216" lon="11.97871760709762"><ele>161.0</ele><time>2026-04-03T15:26:07Z</time></trkpt><trkpt lat="42.372575942350274" lon="11.97846394195678"><ele>161.0</ele><time>2026-04-03T15:26:08Z</time></trkpt><trkpt lat="42.37270640613531" lon="11.978222081057295"><ele>160.66666666666666</ele><time>2026-04-03T15:26:09Z</time></trkpt><trkpt lat="42.37283092613505" lon="11.977987021942218"><ele>160.33333333333334</ele><time>2026-04-03T15:26:10Z</time></trkpt><trkpt lat="42.37294640795759" lon="11.977765042636854"><ele>160.0</ele><time>2026-04-03T15:26:11Z</time></trkpt><trkpt lat="42.37303519159548" lon="11.97753410335387"><ele>159.66666666666669</ele><time>2026-04-03T15:26:12Z</time></trkpt><trkpt lat="42.37309157924119" lon="11.977286902292956"><ele>159.33333333333334</ele><time>2026-04-03T15:26:13Z</time></trkpt><trkpt lat="42.37311130490433" lon="11.977005793672598"><ele>159.0</ele><time>2026-04-03T15:26:14Z</time></trkpt><trkpt lat="42.3731263165459" lon="11.97671402355787"><ele>159.33333333333334</ele><time>2026-04-03T15:26:15Z</time></trkpt><trkpt lat="42.37313117209546" lon="11.97641959772344"><ele>159.66666666666669</ele><time>2026-04-03T15:26:16Z</time></trkpt><trkpt lat="42.37313505648879" lon="11.976121648561596"><ele>160.0</ele><time>2026-04-03T15:26:17Z</time></trkpt><trkpt lat="42.37313897142638" lon="11.975821358340129"><ele>160.5</ele><time>2026-04-03T15:26:18Z</time></trkpt><trkpt lat="42.373143286944725" lon="11.975508320121921"><ele>161.0</ele><time>2026-04-03T15:26:19Z</time></trkpt><trkpt lat="42.373132741489115" lon="11.975191421669594"><ele>160.0</ele><time>2026-04-03T15:26:20Z</time></trkpt><trkpt lat="42.37313978567122" lon="11.974870673194799"><ele>159.0</ele><time>2026-04-03T15:26:21Z</time></trkpt><trkpt lat="42.373146501692055" lon="11.974548937768542"><ele>159.0</ele><time>2026-04-03T15:26:22Z</time></trkpt><trkpt lat="42.37316850445795" lon="11.974228803600587"><ele>159.0</ele><time>2026-04-03T15:26:23Z</time></trkpt><trkpt lat="42.37317521687915" lon="11.97391079396828"><ele>160.0</ele><time>2026-04-03T15:26:24Z</time></trkpt><trkpt lat="42.37318203790955" lon="11.973587638665741"><ele>161.0</ele><time>2026-04-03T15:26:25Z</time></trkpt><trkpt lat="42.37318780552214" lon="11.973264546562033"><ele>161.0</ele><time>2026-04-03T15:26:26Z</time></trkpt><trkpt lat="42.37319320895666" lon="11.97294058256113"><ele>161.0</ele><time>2026-04-03T15:26:27Z</time></trkpt><trkpt lat="42.373198681469205" lon="11.972612477172719"><ele>159.0</ele><time>2026-04-03T15:26:28Z</time></trkpt><trkpt lat="42.3732049592631" lon="11.972273618062031"><ele>157.0</ele><time>2026-04-03T15:26:29Z</time></trkpt><trkpt lat="42.37321149749748" lon="11.971939074540972"><ele>157.0</ele><time>2026-04-03T15:26:30Z</time></trkpt><trkpt lat="42.37321795725229" lon="11.971608540993909"><ele>157.0</ele><time>2026-04-03T15:26:31Z</time></trkpt><trkpt lat="42.37322525179576" lon="11.971278653253332"><ele>157.0</ele><time>2026-04-03T15:26:32Z</time></trkpt><trkpt lat="42.373232468988284" lon="11.970941618639822"><ele>157.0</ele><time>2026-04-03T15:26:33Z</time></trkpt><trkpt lat="42.37323945022822" lon="11.970615602695553"><ele>157.0</ele><time>2026-04-03T15:26:34Z</time></trkpt><trkpt lat="42.37324662902993" lon="11.97028036071356"><ele>157.0</ele><time>2026-04-03T15:26:35Z</time></trkpt><trkpt lat="42.37325350955133" lon="11.969941806686844"><ele>156.5</ele><time>2026-04-03T15:26:36Z</time></trkpt><trkpt lat="42.37326026459238" lon="11.969599069471302"><ele>156.0</ele><time>2026-04-03T15:26:37Z</time></trkpt><trkpt lat="42.37325373843396" lon="11.969259969268329"><ele>155.0</ele><time>2026-04-03T15:26:38Z</time></trkpt><trkpt lat="42.373259275180786" lon="11.968921595645428"><ele>154.0</ele><time>2026-04-03T15:26:39Z</time></trkpt><trkpt lat="42.37326761745251" lon="11.96861787467649"><ele>154.0</ele><time>2026-04-03T15:26:40Z</time></trkpt><trkpt lat="42.373273867641466" lon="11.968341262281989"><ele>154.0</ele><time>2026-04-03T15:26:41Z</time></trkpt><trkpt lat="42.37329236307258" lon="11.968074899534264"><ele>154.0</ele><time>2026-04-03T15:26:42Z</time></trkpt><trkpt lat="42.373298982853456" lon="11.967791198445202"><ele>154.0</ele><time>2026-04-03T15:26:43Z</time></trkpt><trkpt lat="42.37330335138184" lon="11.967527473993757"><ele>154.0</ele><time>2026-04-03T15:26:44Z</time></trkpt><trkpt lat="42.373291074296525" lon="11.967276861312149"><ele>154.0</ele><time>2026-04-03T15:26:45Z</time></trkpt><trkpt lat="42.37329591479597" lon="11.967044645829816"><ele>154.33333333333334</ele><time>2026-04-03T15:26:46Z</time></trkpt><trkpt lat="42.373315208991954" lon="11.966795365489379"><ele>154.66666666666666</ele><time>2026-04-03T15:26:47Z</time></trkpt><trkpt lat="42.37332007688635" lon="11.966530671566787"><ele>155.0</ele><time>2026-04-03T15:26:48Z</time></trkpt><trkpt lat="42.37332638953462" lon="11.96623973929077"><ele>155.5</ele><time>2026-04-03T15:26:48.999Z</time></trkpt><trkpt lat="42.373333171619386" lon="11.96592717184001"><ele>156.0</ele><time>2026-04-03T15:26:49.999Z</time></trkpt><trkpt lat="42.37332401388661" lon="11.965627262313882"><ele>156.0</ele><time>2026-04-03T15:26:50.999Z</time></trkpt><trkpt lat="42.37333540069037" lon="11.965341890629155"><ele>156.0</ele><time>2026-04-03T15:26:51.999Z</time></trkpt><trkpt lat="42.37333808054743" lon="11.965057671657558"><ele>156.0</ele><time>2026-04-03T15:26:52.999Z</time></trkpt><trkpt lat="42.37334190774965" lon="11.964754046586721"><ele>156.0</ele><time>2026-04-03T15:26:53.999Z</time></trkpt><trkpt lat="42.373350211727875" lon="11.96445436573607"><ele>156.0</ele><time>2026-04-03T15:26:54.999Z</time></trkpt><trkpt lat="42.37335485075349" lon="11.964163481817986"><ele>156.0</ele><time>2026-04-03T15:26:55.999Z</time></trkpt><trkpt lat="42.373361456307" lon="11.963872529543474"><ele>156.0</ele><time>2026-04-03T15:26:56.999Z</time></trkpt><trkpt lat="42.373382303557705" lon="11.963580066732856"><ele>156.0</ele><time>2026-04-03T15:26:57.999Z</time></trkpt><trkpt lat="42.373388031181136" lon="11.963281176477391"><ele>156.0</ele><time>2026-04-03T15:26:58.999Z</time></trkpt><trkpt lat="42.37337800809373" lon="11.962976374006148"><ele>156.0</ele><time>2026-04-03T15:26:59.999Z</time></trkpt><trkpt lat="42.373384713862926" lon="11.962658636284363"><ele>156.0</ele><time>2026-04-03T15:27:00.999Z</time></trkpt><trkpt lat="42.373407308899516" lon="11.962338627438307"><ele>156.0</ele><time>2026-04-03T15:27:01.999Z</time></trkpt><trkpt lat="42.37339854392102" lon="11.962038960370512"><ele>156.0</ele><time>2026-04-03T15:27:02.999Z</time></trkpt><trkpt lat="42.373421221969835" lon="11.96173726067225"><ele>156.0</ele><time>2026-04-03T15:27:03.999Z</time></trkpt><trkpt lat="42.37342561051946" lon="11.961457526711126"><ele>155.66666666666666</ele><time>2026-04-03T15:27:04.999Z</time></trkpt><trkpt lat="42.37341359221952" lon="11.961209964772006"><ele>155.33333333333331</ele><time>2026-04-03T15:27:05.999Z</time></trkpt><trkpt lat="42.37342012876897" lon="11.960979575112416"><ele>155.0</ele><time>2026-04-03T15:27:06.999Z</time></trkpt><trkpt lat="42.373442428892744" lon="11.960772480560344"><ele>155.0</ele><time>2026-04-03T15:27:07.999Z</time></trkpt><trkpt lat="42.373487941243745" lon="11.960578340465547"><ele>155.0</ele><time>2026-04-03T15:27:08.999Z</time></trkpt><trkpt lat="42.37356690349629" lon="11.960411258262706"><ele>155.0</ele><time>2026-04-03T15:27:09.999Z</time></trkpt><trkpt lat="42.37368843096816" lon="11.960281188871232"><ele>155.0</ele><time>2026-04-03T15:27:10.999Z</time></trkpt><trkpt lat="42.373836313112704" lon="11.960190347314974"><ele>155.0</ele><time>2026-04-03T15:27:11.999Z</time></trkpt><trkpt lat="42.37401002226609" lon="11.960159391182419"><ele>155.0</ele><time>2026-04-03T15:27:12.999Z</time></trkpt><trkpt lat="42.37420768849341" lon="11.960152750438661"><ele>153.33333333333331</ele><time>2026-04-03T15:27:13.999Z</time></trkpt><trkpt lat="42.37440700687291" lon="11.960144989555666"><ele>151.66666666666666</ele><time>2026-04-03T15:27:14.999Z</time></trkpt><trkpt lat="42.37460098200603" lon="11.960115471222867"><ele>150.0</ele><time>2026-04-03T15:27:15.999Z</time></trkpt><trkpt lat="42.37478804794783" lon="11.960082014005"><ele>149.33333333333334</ele><time>2026-04-03T15:27:16.999Z</time></trkpt><trkpt lat="42.37497184747816" lon="11.960039836864173"><ele>148.66666666666669</ele><time>2026-04-03T15:27:17.999Z</time></trkpt><trkpt lat="42.375152468085595" lon="11.959972095259674"><ele>148.0</ele><time>2026-04-03T15:27:18.999Z</time></trkpt><trkpt lat="42.375335290898285" lon="11.959874145027598"><ele>145.66666666666669</ele><time>2026-04-03T15:27:19.999Z</time></trkpt><trkpt lat="42.37551784332926" lon="11.95977245998374"><ele>143.33333333333334</ele><time>2026-04-03T15:27:20.999Z</time></trkpt><trkpt lat="42.375699956193735" lon="11.9596811869651"><ele>141.0</ele><time>2026-04-03T15:27:21.999Z</time></trkpt><trkpt lat="42.37587775475856" lon="11.959565958579054"><ele>136.66666666666666</ele><time>2026-04-03T15:27:22.999Z</time></trkpt><trkpt lat="42.37605545609801" lon="11.95944571997329"><ele>132.33333333333331</ele><time>2026-04-03T15:27:23.999Z</time></trkpt><trkpt lat="42.37623303879255" lon="11.959315980063677"><ele>128.0</ele><time>2026-04-03T15:27:24.999Z</time></trkpt><trkpt lat="42.37640339151203" lon="11.959173699518796"><ele>125.66666666666666</ele><time>2026-04-03T15:27:25.999Z</time></trkpt><trkpt lat="42.37657235478724" lon="11.959019541242311"><ele>123.33333333333334</ele><time>2026-04-03T15:27:26.999Z</time></trkpt><trkpt lat="42.3767340521185" lon="11.958839672306656"><ele>121.0</ele><time>2026-04-03T15:27:27.999Z</time></trkpt><trkpt lat="42.376889371392245" lon="11.958664619534243"><ele>121.0</ele><time>2026-04-03T15:27:28.999Z</time></trkpt><trkpt lat="42.37704627322587" lon="11.958502098112081"><ele>121.0</ele><time>2026-04-03T15:27:29.999Z</time></trkpt><trkpt lat="42.37718616130558" lon="11.958335810543614"><ele>121.0</ele><time>2026-04-03T15:27:30.999Z</time></trkpt><trkpt lat="42.377313389734375" lon="11.958175665432634"><ele>119.33333333333334</ele><time>2026-04-03T15:27:31.999Z</time></trkpt><trkpt lat="42.377423931087755" lon="11.958011037223908"><ele>117.66666666666666</ele><time>2026-04-03T15:27:32.999Z</time></trkpt><trkpt lat="42.37751133570055" lon="11.957821831766056"><ele>116.0</ele><time>2026-04-03T15:27:33.999Z</time></trkpt><trkpt lat="42.37757778440217" lon="11.957610128542143"><ele>117.66666666666666</ele><time>2026-04-03T15:27:34.999Z</time></trkpt><trkpt lat="42.37761685329811" lon="11.957378836826946"><ele>119.33333333333334</ele><time>2026-04-03T15:27:35.999Z</time></trkpt><trkpt lat="42.37765882624829" lon="11.957164768579187"><ele>121.0</ele><time>2026-04-03T15:27:36.999Z</time></trkpt><trkpt lat="42.3777321906271" lon="11.95695797347716"><ele>121.0</ele><time>2026-04-03T15:27:37.999Z</time></trkpt><trkpt lat="42.37781933724579" lon="11.956724879257882"><ele>121.0</ele><time>2026-04-03T15:27:38.999Z</time></trkpt><trkpt lat="42.37794943215257" lon="11.956524748934678"><ele>121.0</ele><time>2026-04-03T15:27:39.999Z</time></trkpt><trkpt lat="42.3780771882837" lon="11.956349971279083"><ele>117.0</ele><time>2026-04-03T15:27:40.999Z</time></trkpt><trkpt lat="42.37819325549839" lon="11.956188602569524"><ele>113.0</ele><time>2026-04-03T15:27:41.999Z</time></trkpt><trkpt lat="42.3783089169089" lon="11.956032470474431"><ele>109.0</ele><time>2026-04-03T15:27:42.999Z</time></trkpt><trkpt lat="42.37843066016408" lon="11.955875019840365"><ele>109.33333333333334</ele><time>2026-04-03T15:27:43.999Z</time></trkpt><trkpt lat="42.37855493133169" lon="11.955734274697933"><ele>109.66666666666666</ele><time>2026-04-03T15:27:44.999Z</time></trkpt><trkpt lat="42.37869451927554" lon="11.955635773560408"><ele>110.0</ele><time>2026-04-03T15:27:45.999Z</time></trkpt><trkpt lat="42.37884132966019" lon="11.955582112676577"><ele>112.33333333333333</ele><time>2026-04-03T15:27:46.999Z</time></trkpt><trkpt lat="42.37900646063425" lon="11.955578004841625"><ele>114.66666666666666</ele><time>2026-04-03T15:27:47.999Z</time></trkpt><trkpt lat="42.37916072278549" lon="11.955626675753656"><ele>117.0</ele><time>2026-04-03T15:27:48.999Z</time></trkpt><trkpt lat="42.379312631217694" lon="11.95573205970782"><ele>117.0</ele><time>2026-04-03T15:27:49.999Z</time></trkpt><trkpt lat="42.37946772628151" lon="11.95586875173744"><ele>117.0</ele><time>2026-04-03T15:27:50.999Z</time></trkpt><trkpt lat="42.37960744848711" lon="11.956005811392213"><ele>117.0</ele><time>2026-04-03T15:27:51.999Z</time></trkpt><trkpt lat="42.37974461599503" lon="11.956141166402418"><ele>119.0</ele><time>2026-04-03T15:27:52.999Z</time></trkpt><trkpt lat="42.37987987326404" lon="11.956270308113417"><ele>121.0</ele><time>2026-04-03T15:27:53.999Z</time></trkpt><trkpt lat="42.380010126955995" lon="11.956377887538178"><ele>123.0</ele><time>2026-04-03T15:27:54.999Z</time></trkpt><trkpt lat="42.38014031861579" lon="11.95649507391494"><ele>123.0</ele><time>2026-04-03T15:27:55.999Z</time></trkpt><trkpt lat="42.380267256290615" lon="11.95657328286317"><ele>123.0</ele><time>2026-04-03T15:27:56.999Z</time></trkpt><trkpt lat="42.38041632573184" lon="11.95661677539066"><ele>123.0</ele><time>2026-04-03T15:27:57.999Z</time></trkpt><trkpt lat="42.38057739417499" lon="11.956606175339129"><ele>127.0</ele><time>2026-04-03T15:27:59Z</time></trkpt><trkpt lat="42.38074136172024" lon="11.956550930461129"><ele>131.0</ele><time>2026-04-03T15:28:00Z</time></trkpt><trkpt lat="42.380901847848115" lon="11.956461645305449"><ele>135.0</ele><time>2026-04-03T15:28:01Z</time></trkpt><trkpt lat="42.381058025041376" lon="11.956347836328439"><ele>135.0</ele><time>2026-04-03T15:28:02Z</time></trkpt><trkpt lat="42.38120990983139" lon="11.956204720032718"><ele>135.0</ele><time>2026-04-03T15:28:03Z</time></trkpt><trkpt lat="42.38135830811393" lon="11.956018068360564"><ele>135.0</ele><time>2026-04-03T15:28:04Z</time></trkpt><trkpt lat="42.3815160279288" lon="11.95580597119669"><ele>140.0</ele><time>2026-04-03T15:28:05Z</time></trkpt><trkpt lat="42.38167490963662" lon="11.955576763671955"><ele>145.0</ele><time>2026-04-03T15:28:06Z</time></trkpt><trkpt lat="42.381842915893365" lon="11.955352154551361"><ele>145.0</ele><time>2026-04-03T15:28:07Z</time></trkpt><trkpt lat="42.382015025726844" lon="11.955122736462856"><ele>145.0</ele><time>2026-04-03T15:28:08Z</time></trkpt><trkpt lat="42.38217222597773" lon="11.954911050960025"><ele>147.5</ele><time>2026-04-03T15:28:09Z</time></trkpt><trkpt lat="42.38232987484223" lon="11.954695317912007"><ele>150.0</ele><time>2026-04-03T15:28:10Z</time></trkpt><trkpt lat="42.38249550108173" lon="11.954459688008004"><ele>150.0</ele><time>2026-04-03T15:28:11Z</time></trkpt><trkpt lat="42.382655755537456" lon="11.95421841778014"><ele>150.0</ele><time>2026-04-03T15:28:12Z</time></trkpt><trkpt lat="42.382806843429485" lon="11.953953572426148"><ele>150.0</ele><time>2026-04-03T15:28:13Z</time></trkpt><trkpt lat="42.38296527895758" lon="11.953709565338324"><ele>150.0</ele><time>2026-04-03T15:28:14Z</time></trkpt><trkpt lat="42.38311853263613" lon="11.953472528164694"><ele>150.0</ele><time>2026-04-03T15:28:15Z</time></trkpt><trkpt lat="42.38326648350377" lon="11.953239242147477"><ele>150.0</ele><time>2026-04-03T15:28:16Z</time></trkpt><trkpt lat="42.383399162296364" lon="11.953020633709947"><ele>150.0</ele><time>2026-04-03T15:28:17Z</time></trkpt><trkpt lat="42.38353350061338" lon="11.952795447964183"><ele>150.0</ele><time>2026-04-03T15:28:18Z</time></trkpt><trkpt lat="42.38367802577364" lon="11.952562632388242"><ele>150.0</ele><time>2026-04-03T15:28:19Z</time></trkpt><trkpt lat="42.38382195609063" lon="11.95233543473572"><ele>150.0</ele><time>2026-04-03T15:28:20Z</time></trkpt><trkpt lat="42.383969838962784" lon="11.952103398520023"><ele>150.0</ele><time>2026-04-03T15:28:21Z</time></trkpt><trkpt lat="42.38411900640689" lon="11.951856028669376"><ele>150.0</ele><time>2026-04-03T15:28:22Z</time></trkpt><trkpt lat="42.38427839987678" lon="11.951608197246953"><ele>150.0</ele><time>2026-04-03T15:28:23Z</time></trkpt><trkpt lat="42.38443444667486" lon="11.951355073643322"><ele>150.0</ele><time>2026-04-03T15:28:24Z</time></trkpt><trkpt lat="42.38459048587961" lon="11.951104048692615"><ele>149.5</ele><time>2026-04-03T15:28:25Z</time></trkpt><trkpt lat="42.38473794711541" lon="11.950845048256726"><ele>149.0</ele><time>2026-04-03T15:28:26Z</time></trkpt><trkpt lat="42.38487135188526" lon="11.950579107204527"><ele>149.0</ele><time>2026-04-03T15:28:27Z</time></trkpt><trkpt lat="42.38497875436643" lon="11.950302478660218"><ele>149.0</ele><time>2026-04-03T15:28:28Z</time></trkpt><trkpt lat="42.38506418521828" lon="11.95001382395788"><ele>150.0</ele><time>2026-04-03T15:28:29Z</time></trkpt><trkpt lat="42.38512541163688" lon="11.949705710470282"><ele>151.0</ele><time>2026-04-03T15:28:30Z</time></trkpt><trkpt lat="42.3851849257489" lon="11.94937683246478"><ele>149.0</ele><time>2026-04-03T15:28:31Z</time></trkpt><trkpt lat="42.38523997300081" lon="11.949043911718572"><ele>147.0</ele><time>2026-04-03T15:28:32Z</time></trkpt><trkpt lat="42.3852875206474" lon="11.948709697983304"><ele>147.0</ele><time>2026-04-03T15:28:33Z</time></trkpt><trkpt lat="42.385344151482265" lon="11.948391819041756"><ele>147.0</ele><time>2026-04-03T15:28:34Z</time></trkpt><trkpt lat="42.38540077802641" lon="11.948065003811035"><ele>146.0</ele><time>2026-04-03T15:28:35Z</time></trkpt><trkpt lat="42.38544757114447" lon="11.947741130650266"><ele>145.0</ele><time>2026-04-03T15:28:36Z</time></trkpt><trkpt lat="42.38549313732491" lon="11.947434720424491"><ele>145.0</ele><time>2026-04-03T15:28:37Z</time></trkpt><trkpt lat="42.38553182731173" lon="11.947141218457856"><ele>145.0</ele><time>2026-04-03T15:28:38Z</time></trkpt><trkpt lat="42.3855832256744" lon="11.946842762716148"><ele>145.0</ele><time>2026-04-03T15:28:39Z</time></trkpt><trkpt lat="42.385636375709254" lon="11.946539094328655"><ele>145.0</ele><time>2026-04-03T15:28:40Z</time></trkpt><trkpt lat="42.38568061659625" lon="11.946238355505653"><ele>145.0</ele><time>2026-04-03T15:28:41Z</time></trkpt><trkpt lat="42.3857250188811" lon="11.945947077011146"><ele>145.0</ele><time>2026-04-03T15:28:42Z</time></trkpt><trkpt lat="42.38577313202443" lon="11.945651906209267"><ele>146.0</ele><time>2026-04-03T15:28:43Z</time></trkpt><trkpt lat="42.385817860155925" lon="11.945364290795736"><ele>147.0</ele><time>2026-04-03T15:28:44Z</time></trkpt><trkpt lat="42.38587284865363" lon="11.945104614889127"><ele>148.0</ele><time>2026-04-03T15:28:45Z</time></trkpt><trkpt lat="42.38591174460049" lon="11.94481966291304"><ele>148.66666666666669</ele><time>2026-04-03T15:28:46Z</time></trkpt><trkpt lat="42.38596304209293" lon="11.944553440583286"><ele>149.33333333333334</ele><time>2026-04-03T15:28:47Z</time></trkpt><trkpt lat="42.386024570289244" lon="11.944310614450892"><ele>150.0</ele><time>2026-04-03T15:28:48Z</time></trkpt><trkpt lat="42.38608872692242" lon="11.944083635538032"><ele>151.0</ele><time>2026-04-03T15:28:49Z</time></trkpt><trkpt lat="42.3861739159119" lon="11.94385955480685"><ele>152.0</ele><time>2026-04-03T15:28:50Z</time></trkpt><trkpt lat="42.38625086064968" lon="11.94364618098945"><ele>153.0</ele><time>2026-04-03T15:28:51Z</time></trkpt><trkpt lat="42.3863164987321" lon="11.943442604633214"><ele>151.33333333333334</ele><time>2026-04-03T15:28:52Z</time></trkpt><trkpt lat="42.38636534921267" lon="11.943246644206262"><ele>149.66666666666669</ele><time>2026-04-03T15:28:53Z</time></trkpt><trkpt lat="42.3863909492995" lon="11.943036797230388"><ele>148.0</ele><time>2026-04-03T15:28:54Z</time></trkpt><trkpt lat="42.3863746063224" lon="11.9428052903847"><ele>147.0</ele><time>2026-04-03T15:28:55Z</time></trkpt><trkpt lat="42.386312486914065" lon="11.942585444069378"><ele>146.0</ele><time>2026-04-03T15:28:56Z</time></trkpt><trkpt lat="42.38621394326212" lon="11.94237738340855"><ele>145.0</ele><time>2026-04-03T15:28:57Z</time></trkpt><trkpt lat="42.386115601679926" lon="11.942187829441034"><ele>145.0</ele><time>2026-04-03T15:28:58Z</time></trkpt><trkpt lat="42.38602414856175" lon="11.942004056446459"><ele>145.0</ele><time>2026-04-03T15:28:59Z</time></trkpt><trkpt lat="42.385940966132075" lon="11.94181950205941"><ele>145.0</ele><time>2026-04-03T15:29:00Z</time></trkpt><trkpt lat="42.38587598461705" lon="11.941630630069875"><ele>141.0</ele><time>2026-04-03T15:29:01Z</time></trkpt><trkpt lat="42.385847384377584" lon="11.941438859957998"><ele>137.0</ele><time>2026-04-03T15:29:01.999Z</time></trkpt><trkpt lat="42.38586234750678" lon="11.941235414597605"><ele>133.0</ele><time>2026-04-03T15:29:02.999Z</time></trkpt><trkpt lat="42.385930374282346" lon="11.94103498281329"><ele>130.0</ele><time>2026-04-03T15:29:03.999Z</time></trkpt><trkpt lat="42.38604412326623" lon="11.940848654372004"><ele>127.0</ele><time>2026-04-03T15:29:04.999Z</time></trkpt><trkpt lat="42.38617442392186" lon="11.940680743460973"><ele>124.0</ele><time>2026-04-03T15:29:05.999Z</time></trkpt><trkpt lat="42.38629287069685" lon="11.940533430036357"><ele>123.0</ele><time>2026-04-03T15:29:06.999Z</time></trkpt><trkpt lat="42.386432421533" lon="11.940396423636418"><ele>122.0</ele><time>2026-04-03T15:29:07.999Z</time></trkpt><trkpt lat="42.38658766386839" lon="11.940294206834334"><ele>121.0</ele><time>2026-04-03T15:29:08.999Z</time></trkpt><trkpt lat="42.38675959744517" lon="11.940216965559818"><ele>121.0</ele><time>2026-04-03T15:29:09.999Z</time></trkpt><trkpt lat="42.3869347520009" lon="11.940168635868739"><ele>121.0</ele><time>2026-04-03T15:29:10.999Z</time></trkpt><trkpt lat="42.38710917213418" lon="11.940112565744148"><ele>121.0</ele><time>2026-04-03T15:29:11.999Z</time></trkpt><trkpt lat="42.38727058037647" lon="11.9400349745116"><ele>124.0</ele><time>2026-04-03T15:29:12.999Z</time></trkpt><trkpt lat="42.387418892468204" lon="11.939930890130736"><ele>127.0</ele><time>2026-04-03T15:29:13.999Z</time></trkpt><trkpt lat="42.387536988800356" lon="11.939782062695194"><ele>130.0</ele><time>2026-04-03T15:29:14.999Z</time></trkpt><trkpt lat="42.3876231277854" lon="11.939585827497886"><ele>130.0</ele><time>2026-04-03T15:29:15.999Z</time></trkpt><trkpt lat="42.38767680951931" lon="11.93934690407624"><ele>130.0</ele><time>2026-04-03T15:29:16.999Z</time></trkpt><trkpt lat="42.38771449512764" lon="11.939101785774866"><ele>130.0</ele><time>2026-04-03T15:29:17.999Z</time></trkpt><trkpt lat="42.38775286771399" lon="11.938848245189646"><ele>132.33333333333334</ele><time>2026-04-03T15:29:18.999Z</time></trkpt><trkpt lat="42.38777993847089" lon="11.938588022522726"><ele>134.66666666666666</ele><time>2026-04-03T15:29:19.999Z</time></trkpt><trkpt lat="42.387798217288996" lon="11.938323232787765"><ele>137.0</ele><time>2026-04-03T15:29:20.999Z</time></trkpt><trkpt lat="42.387807725967775" lon="11.938090429082376"><ele>138.66666666666666</ele><time>2026-04-03T15:29:21.999Z</time></trkpt><trkpt lat="42.38784183320079" lon="11.93786772220869"><ele>140.33333333333334</ele><time>2026-04-03T15:29:22.999Z</time></trkpt><trkpt lat="42.38785632537753" lon="11.937626356499807"><ele>142.0</ele><time>2026-04-03T15:29:23.999Z</time></trkpt><trkpt lat="42.38788512435908" lon="11.937360376957287"><ele>143.66666666666669</ele><time>2026-04-03T15:29:24.999Z</time></trkpt><trkpt lat="42.38793032358295" lon="11.937089862379029"><ele>145.33333333333334</ele><time>2026-04-03T15:29:25.999Z</time></trkpt><trkpt lat="42.387987029976834" lon="11.936841377539277"><ele>147.0</ele><time>2026-04-03T15:29:26.999Z</time></trkpt><trkpt lat="42.388089518763586" lon="11.936629103028881"><ele>147.66666666666666</ele><time>2026-04-03T15:29:27.999Z</time></trkpt><trkpt lat="42.3882037345788" lon="11.936407570762656"><ele>148.33333333333331</ele><time>2026-04-03T15:29:28.999Z</time></trkpt><trkpt lat="42.388314520302416" lon="11.936202403118681"><ele>149.0</ele><time>2026-04-03T15:29:29.999Z</time></trkpt><trkpt lat="42.38840557545935" lon="11.935998725400255"><ele>148.0</ele><time>2026-04-03T15:29:30.999Z</time></trkpt><trkpt lat="42.38850053751846" lon="11.93580573496063"><ele>147.0</ele><time>2026-04-03T15:29:31.999Z</time></trkpt><trkpt lat="42.38857533051582" lon="11.935580765352748"><ele>146.0</ele><time>2026-04-03T15:29:32.999Z</time></trkpt><trkpt lat="42.38861627631099" lon="11.935307962963563"><ele>145.66666666666666</ele><time>2026-04-03T15:29:33.999Z</time></trkpt><trkpt lat="42.38864920556055" lon="11.935025444875654"><ele>145.33333333333334</ele><time>2026-04-03T15:29:34.999Z</time></trkpt><trkpt lat="42.38868190037884" lon="11.934772437512207"><ele>145.0</ele><time>2026-04-03T15:29:35.999Z</time></trkpt><trkpt lat="42.38869759565833" lon="11.934535095066531"><ele>145.0</ele><time>2026-04-03T15:29:36.999Z</time></trkpt><trkpt lat="42.388686260316746" lon="11.934287864294415"><ele>145.0</ele><time>2026-04-03T15:29:37.999Z</time></trkpt><trkpt lat="42.38863141703199" lon="11.934031201107283"><ele>145.0</ele><time>2026-04-03T15:29:38.999Z</time></trkpt><trkpt lat="42.388535720444914" lon="11.933786160762216"><ele>145.66666666666669</ele><time>2026-04-03T15:29:39.999Z</time></trkpt><trkpt lat="42.388437236155994" lon="11.933537055676174"><ele>146.33333333333334</ele><time>2026-04-03T15:29:40.999Z</time></trkpt><trkpt lat="42.38834573106595" lon="11.933282276645796"><ele>147.0</ele><time>2026-04-03T15:29:41.999Z</time></trkpt><trkpt lat="42.38826419324711" lon="11.933047290703007"><ele>148.33333333333334</ele><time>2026-04-03T15:29:42.999Z</time></trkpt><trkpt lat="42.388186227162244" lon="11.932821517798786"><ele>149.66666666666669</ele><time>2026-04-03T15:29:43.999Z</time></trkpt><trkpt lat="42.388114290285316" lon="11.932615098331212"><ele>151.0</ele><time>2026-04-03T15:29:44.999Z</time></trkpt><trkpt lat="42.38804819462369" lon="11.932433605237168"><ele>152.66666666666669</ele><time>2026-04-03T15:29:45.999Z</time></trkpt><trkpt lat="42.387967099756814" lon="11.93224112090802"><ele>154.33333333333334</ele><time>2026-04-03T15:29:46.999Z</time></trkpt><trkpt lat="42.387880295031714" lon="11.932026744588452"><ele>156.0</ele><time>2026-04-03T15:29:47.999Z</time></trkpt><trkpt lat="42.38779189537376" lon="11.931805368253004"><ele>155.66666666666666</ele><time>2026-04-03T15:29:48.999Z</time></trkpt><trkpt lat="42.387701569415285" lon="11.931586518436353"><ele>155.33333333333331</ele><time>2026-04-03T15:29:49.999Z</time></trkpt><trkpt lat="42.38763049972018" lon="11.93135869970016"><ele>155.0</ele><time>2026-04-03T15:29:50.999Z</time></trkpt><trkpt lat="42.38754192620829" lon="11.931130814150285"><ele>155.0</ele><time>2026-04-03T15:29:51.999Z</time></trkpt><trkpt lat="42.387456763265185" lon="11.930893079288682"><ele>155.0</ele><time>2026-04-03T15:29:52.999Z</time></trkpt><trkpt lat="42.387376301332445" lon="11.930648490526126"><ele>155.0</ele><time>2026-04-03T15:29:53.999Z</time></trkpt><trkpt lat="42.38731257890184" lon="11.93039837158606"><ele>154.66666666666666</ele><time>2026-04-03T15:29:54.999Z</time></trkpt><trkpt lat="42.387270230603754" lon="11.930146950954326"><ele>154.33333333333334</ele><time>2026-04-03T15:29:55.999Z</time></trkpt><trkpt lat="42.3872585427823" lon="11.92987556131614"><ele>154.0</ele><time>2026-04-03T15:29:56.999Z</time></trkpt><trkpt lat="42.387274691640464" lon="11.929621316506426"><ele>155.0</ele><time>2026-04-03T15:29:57.999Z</time></trkpt><trkpt lat="42.387288117742294" lon="11.92937444981415"><ele>156.0</ele><time>2026-04-03T15:29:58.999Z</time></trkpt><trkpt lat="42.38731728416196" lon="11.929122621350716"><ele>157.0</ele><time>2026-04-03T15:29:59.999Z</time></trkpt><trkpt lat="42.38735579417837" lon="11.928873107321643"><ele>157.0</ele><time>2026-04-03T15:30:00.999Z</time></trkpt><trkpt lat="42.38738073744075" lon="11.928631589471848"><ele>157.0</ele><time>2026-04-03T15:30:01.999Z</time></trkpt><trkpt lat="42.38740362408993" lon="11.928393142443161"><ele>157.0</ele><time>2026-04-03T15:30:02.999Z</time></trkpt><trkpt lat="42.387428700827" lon="11.92815508811819"><ele>157.0</ele><time>2026-04-03T15:30:03.999Z</time></trkpt><trkpt lat="42.38744986380602" lon="11.927918826698553"><ele>157.0</ele><time>2026-04-03T15:30:05Z</time></trkpt><trkpt lat="42.387479831802295" lon="11.927691475607963"><ele>157.0</ele><time>2026-04-03T15:30:06Z</time></trkpt><trkpt lat="42.38751095736673" lon="11.927458870632993"><ele>157.0</ele><time>2026-04-03T15:30:07Z</time></trkpt><trkpt lat="42.38754221084891" lon="11.927213158827982"><ele>157.0</ele><time>2026-04-03T15:30:08Z</time></trkpt><trkpt lat="42.38756839107058" lon="11.926965201718483"><ele>157.0</ele><time>2026-04-03T15:30:09Z</time></trkpt><trkpt lat="42.38759594380458" lon="11.926721093924112"><ele>156.66666666666669</ele><time>2026-04-03T15:30:10Z</time></trkpt><trkpt lat="42.3876230701969" lon="11.926466394110513"><ele>156.33333333333334</ele><time>2026-04-03T15:30:11Z</time></trkpt><trkpt lat="42.38764949219718" lon="11.926203136278504"><ele>156.0</ele><time>2026-04-03T15:30:12Z</time></trkpt><trkpt lat="42.38768070609939" lon="11.925931557799855"><ele>155.66666666666666</ele><time>2026-04-03T15:30:13Z</time></trkpt><trkpt lat="42.38771191816655" lon="11.925652532384515"><ele>155.33333333333331</ele><time>2026-04-03T15:30:14Z</time></trkpt><trkpt lat="42.387743958701364" lon="11.925372726873865"><ele>155.0</ele><time>2026-04-03T15:30:15Z</time></trkpt><trkpt lat="42.387777412976796" lon="11.925079877528667"><ele>155.0</ele><time>2026-04-03T15:30:16Z</time></trkpt><trkpt lat="42.387810530102726" lon="11.924797272116757"><ele>155.0</ele><time>2026-04-03T15:30:17Z</time></trkpt><trkpt lat="42.38784690928716" lon="11.924508838924291"><ele>155.0</ele><time>2026-04-03T15:30:18Z</time></trkpt><trkpt lat="42.38787792843526" lon="11.924201130981793"><ele>156.0</ele><time>2026-04-03T15:30:19Z</time></trkpt><trkpt lat="42.38791400290633" lon="11.923902574773573"><ele>157.0</ele><time>2026-04-03T15:30:20Z</time></trkpt><trkpt lat="42.387947235037096" lon="11.923613956467284"><ele>158.0</ele><time>2026-04-03T15:30:21Z</time></trkpt><trkpt lat="42.38798045425823" lon="11.923320518525387"><ele>159.0</ele><time>2026-04-03T15:30:22Z</time></trkpt><trkpt lat="42.388010747806675" lon="11.92302742620719"><ele>160.0</ele><time>2026-04-03T15:30:23Z</time></trkpt><trkpt lat="42.38804145560417" lon="11.922732787311642"><ele>161.0</ele><time>2026-04-03T15:30:24Z</time></trkpt><trkpt lat="42.3880788249693" lon="11.922445529984973"><ele>161.0</ele><time>2026-04-03T15:30:25Z</time></trkpt><trkpt lat="42.38810414297549" lon="11.92215025437657"><ele>161.0</ele><time>2026-04-03T15:30:26Z</time></trkpt><trkpt lat="42.3881360642106" lon="11.921856770489391"><ele>161.0</ele><time>2026-04-03T15:30:27Z</time></trkpt><trkpt lat="42.38817360004152" lon="11.921565346344408"><ele>161.66666666666666</ele><time>2026-04-03T15:30:28Z</time></trkpt><trkpt lat="42.388208911139124" lon="11.92128437384712"><ele>162.33333333333334</ele><time>2026-04-03T15:30:29Z</time></trkpt><trkpt lat="42.38824215972348" lon="11.921013090863974"><ele>163.0</ele><time>2026-04-03T15:30:30Z</time></trkpt><trkpt lat="42.388264168335574" lon="11.920752079809974"><ele>163.33333333333334</ele><time>2026-04-03T15:30:31Z</time></trkpt><trkpt lat="42.38829348025364" lon="11.920481814647268"><ele>163.66666666666666</ele><time>2026-04-03T15:30:32Z</time></trkpt><trkpt lat="42.388325461704135" lon="11.92020655167757"><ele>164.0</ele><time>2026-04-03T15:30:33Z</time></trkpt><trkpt lat="42.38835855369628" lon="11.919917062729997"><ele>164.0</ele><time>2026-04-03T15:30:34Z</time></trkpt><trkpt lat="42.38838719593437" lon="11.919615628877814"><ele>164.0</ele><time>2026-04-03T15:30:35Z</time></trkpt><trkpt lat="42.38841232641185" lon="11.91931523796304"><ele>164.0</ele><time>2026-04-03T15:30:36Z</time></trkpt><trkpt lat="42.38844846042388" lon="11.919022175252124"><ele>164.0</ele><time>2026-04-03T15:30:37Z</time></trkpt><trkpt lat="42.38848340518274" lon="11.918723803735835"><ele>164.0</ele><time>2026-04-03T15:30:38Z</time></trkpt><trkpt lat="42.388512480066176" lon="11.918425394739101"><ele>164.0</ele><time>2026-04-03T15:30:39Z</time></trkpt><trkpt lat="42.38855661195711" lon="11.918136875238025"><ele>163.66666666666666</ele><time>2026-04-03T15:30:40Z</time></trkpt><trkpt lat="42.38858930719173" lon="11.917841412960218"><ele>163.33333333333334</ele><time>2026-04-03T15:30:41Z</time></trkpt><trkpt lat="42.38862082262229" lon="11.917551503898762"><ele>163.0</ele><time>2026-04-03T15:30:42Z</time></trkpt><trkpt lat="42.38863553961732" lon="11.917263147891903"><ele>162.66666666666669</ele><time>2026-04-03T15:30:43Z</time></trkpt><trkpt lat="42.388667950285466" lon="11.916985654948455"><ele>162.33333333333334</ele><time>2026-04-03T15:30:44Z</time></trkpt><trkpt lat="42.388698869172984" lon="11.916719304366438"><ele>162.0</ele><time>2026-04-03T15:30:45Z</time></trkpt><trkpt lat="42.38872695857261" lon="11.916464578286382"><ele>162.0</ele><time>2026-04-03T15:30:46Z</time></trkpt><trkpt lat="42.38874201827499" lon="11.916227622666227"><ele>162.0</ele><time>2026-04-03T15:30:47Z</time></trkpt><trkpt lat="42.388768358327106" lon="11.91601198923306"><ele>162.0</ele><time>2026-04-03T15:30:48Z</time></trkpt><trkpt lat="42.38879388792998" lon="11.915802500479158"><ele>161.0</ele><time>2026-04-03T15:30:49Z</time></trkpt><trkpt lat="42.38885563294692" lon="11.91557298075146"><ele>160.0</ele><time>2026-04-03T15:30:50Z</time></trkpt><trkpt lat="42.3889470351089" lon="11.915371664482551"><ele>159.0</ele><time>2026-04-03T15:30:51Z</time></trkpt><trkpt lat="42.38902931829193" lon="11.915167994813212"><ele>158.66666666666666</ele><time>2026-04-03T15:30:52Z</time></trkpt><trkpt lat="42.38912914774223" lon="11.914996780073224"><ele>158.33333333333331</ele><time>2026-04-03T15:30:53Z</time></trkpt><trkpt lat="42.38926930977246" lon="11.914833645426112"><ele>158.0</ele><time>2026-04-03T15:30:54Z</time></trkpt><trkpt lat="42.389409680313484" lon="11.914669840117073"><ele>158.0</ele><time>2026-04-03T15:30:55Z</time></trkpt><trkpt lat="42.389563285748295" lon="11.914525971826729"><ele>158.0</ele><time>2026-04-03T15:30:56Z</time></trkpt><trkpt lat="42.389709223214325" lon="11.914378782722721"><ele>158.0</ele><time>2026-04-03T15:30:57Z</time></trkpt><trkpt lat="42.38985570117506" lon="11.91420886950447"><ele>156.33333333333331</ele><time>2026-04-03T15:30:58Z</time></trkpt><trkpt lat="42.3899855434541" lon="11.914016523644957"><ele>154.66666666666666</ele><time>2026-04-03T15:30:59Z</time></trkpt><trkpt lat="42.39011350687229" lon="11.913801122491291"><ele>153.0</ele><time>2026-04-03T15:31:00Z</time></trkpt><trkpt lat="42.39022718174893" lon="11.913559347450887"><ele>152.0</ele><time>2026-04-03T15:31:01Z</time></trkpt><trkpt lat="42.39034665151636" lon="11.913302984227515"><ele>151.0</ele><time>2026-04-03T15:31:02Z</time></trkpt><trkpt lat="42.390468510926254" lon="11.913038618706075"><ele>148.66666666666669</ele><time>2026-04-03T15:31:03Z</time></trkpt><trkpt lat="42.39057986922796" lon="11.912781659156702"><ele>146.33333333333334</ele><time>2026-04-03T15:31:04Z</time></trkpt><trkpt lat="42.39070413461317" lon="11.912548107292336"><ele>144.0</ele><time>2026-04-03T15:31:05Z</time></trkpt><trkpt lat="42.39079250948395" lon="11.912308809429168"><ele>143.66666666666666</ele><time>2026-04-03T15:31:06Z</time></trkpt><trkpt lat="42.39090096722039" lon="11.912085273290636"><ele>143.33333333333331</ele><time>2026-04-03T15:31:07Z</time></trkpt><trkpt lat="42.39100026364157" lon="11.911856055929274"><ele>143.0</ele><time>2026-04-03T15:31:08Z</time></trkpt><trkpt lat="42.39110653881515" lon="11.911626565863108"><ele>142.66666666666666</ele><time>2026-04-03T15:31:08.999Z</time></trkpt><trkpt lat="42.391224411929144" lon="11.911397911973411"><ele>142.33333333333334</ele><time>2026-04-03T15:31:09.999Z</time></trkpt><trkpt lat="42.391340478827246" lon="11.911163042067935"><ele>142.0</ele><time>2026-04-03T15:31:10.999Z</time></trkpt><trkpt lat="42.39146283841742" lon="11.910940125225011"><ele>140.33333333333334</ele><time>2026-04-03T15:31:11.999Z</time></trkpt><trkpt lat="42.39158030824312" lon="11.910730453529686"><ele>138.66666666666666</ele><time>2026-04-03T15:31:12.999Z</time></trkpt><trkpt lat="42.39170426823261" lon="11.910509366683975"><ele>137.0</ele><time>2026-04-03T15:31:13.999Z</time></trkpt><trkpt lat="42.391822366133496" lon="11.91030295583948"><ele>137.0</ele><time>2026-04-03T15:31:14.999Z</time></trkpt><trkpt lat="42.39193137080075" lon="11.91010515775228"><ele>137.0</ele><time>2026-04-03T15:31:15.999Z</time></trkpt><trkpt lat="42.39203471484177" lon="11.909907891768071"><ele>137.0</ele><time>2026-04-03T15:31:16.999Z</time></trkpt><trkpt lat="42.392132887307326" lon="11.909723762931412"><ele>137.33333333333331</ele><time>2026-04-03T15:31:17.999Z</time></trkpt><trkpt lat="42.392227437992126" lon="11.909547957526524"><ele>137.66666666666666</ele><time>2026-04-03T15:31:18.999Z</time></trkpt><trkpt lat="42.39231836445292" lon="11.90937748709554"><ele>138.0</ele><time>2026-04-03T15:31:19.999Z</time></trkpt><trkpt lat="42.392413458992145" lon="11.9092220428328"><ele>136.5</ele><time>2026-04-03T15:31:20.999Z</time></trkpt><trkpt lat="42.39251721088304" lon="11.909096675616118"><ele>135.0</ele><time>2026-04-03T15:31:21.999Z</time></trkpt><trkpt lat="42.39263992017618" lon="11.909006448065067"><ele>133.5</ele><time>2026-04-03T15:31:22.999Z</time></trkpt><trkpt lat="42.392777032681806" lon="11.908979431800319"><ele>132.0</ele><time>2026-04-03T15:31:23.999Z</time></trkpt><trkpt lat="42.39291585911953" lon="11.908945186022711"><ele>130.33333333333334</ele><time>2026-04-03T15:31:24.999Z</time></trkpt><trkpt lat="42.39308212554976" lon="11.90896849130787"><ele>128.66666666666669</ele><time>2026-04-03T15:31:25.999Z</time></trkpt><trkpt lat="42.39325929897843" lon="11.908973985964751"><ele>127.0</ele><time>2026-04-03T15:31:26.999Z</time></trkpt><trkpt lat="42.39344568936014" lon="11.908945379457613"><ele>127.0</ele><time>2026-04-03T15:31:27.999Z</time></trkpt><trkpt lat="42.393609724321486" lon="11.908900787846616"><ele>127.0</ele><time>2026-04-03T15:31:28.999Z</time></trkpt><trkpt lat="42.393765494569536" lon="11.908829401146818"><ele>127.0</ele><time>2026-04-03T15:31:29.999Z</time></trkpt><trkpt lat="42.39392334746003" lon="11.908729488110804"><ele>125.33333333333334</ele><time>2026-04-03T15:31:30.999Z</time></trkpt><trkpt lat="42.3940937309131" lon="11.908594638837686"><ele>123.66666666666666</ele><time>2026-04-03T15:31:31.999Z</time></trkpt><trkpt lat="42.394271989629715" lon="11.90845984685865"><ele>122.0</ele><time>2026-04-03T15:31:32.999Z</time></trkpt><trkpt lat="42.394473009937116" lon="11.908312333825515"><ele>120.0</ele><time>2026-04-03T15:31:33.999Z</time></trkpt><trkpt lat="42.39468426529812" lon="11.90816119783622"><ele>118.0</ele><time>2026-04-03T15:31:34.999Z</time></trkpt><trkpt lat="42.39491060067089" lon="11.908022999026985"><ele>118.0</ele><time>2026-04-03T15:31:35.999Z</time></trkpt><trkpt lat="42.395139495232335" lon="11.907879312410136"><ele>118.0</ele><time>2026-04-03T15:31:36.999Z</time></trkpt><trkpt lat="42.395363765853105" lon="11.907728932572432"><ele>119.0</ele><time>2026-04-03T15:31:37.999Z</time></trkpt><trkpt lat="42.395579196978815" lon="11.907579129891799"><ele>120.0</ele><time>2026-04-03T15:31:38.999Z</time></trkpt><trkpt lat="42.3957810965522" lon="11.907445743848916"><ele>121.0</ele><time>2026-04-03T15:31:39.999Z</time></trkpt><trkpt lat="42.39596890106033" lon="11.907322853742704"><ele>122.0</ele><time>2026-04-03T15:31:40.999Z</time></trkpt><trkpt lat="42.39613192135082" lon="11.907209076318944"><ele>123.0</ele><time>2026-04-03T15:31:41.999Z</time></trkpt><trkpt lat="42.39629174145382" lon="11.907096134444343"><ele>124.33333333333334</ele><time>2026-04-03T15:31:42.999Z</time></trkpt><trkpt lat="42.39645772974034" lon="11.906984026653664"><ele>125.66666666666667</ele><time>2026-04-03T15:31:43.999Z</time></trkpt><trkpt lat="42.39661182266128" lon="11.90687526490281"><ele>127.0</ele><time>2026-04-03T15:31:44.999Z</time></trkpt><trkpt lat="42.39676402727869" lon="11.906767356732788"><ele>128.33333333333334</ele><time>2026-04-03T15:31:45.999Z</time></trkpt><trkpt lat="42.39691634548822" lon="11.906658982022138"><ele>129.66666666666666</ele><time>2026-04-03T15:31:46.999Z</time></trkpt><trkpt lat="42.39707592761781" lon="11.906561218819142"><ele>131.0</ele><time>2026-04-03T15:31:47.999Z</time></trkpt><trkpt lat="42.397227207713215" lon="11.906460542019685"><ele>134.66666666666666</ele><time>2026-04-03T15:31:48.999Z</time></trkpt><trkpt lat="42.39737834540123" lon="11.906377020485762"><ele>138.33333333333334</ele><time>2026-04-03T15:31:49.999Z</time></trkpt><trkpt lat="42.3975364983726" lon="11.906322490904357"><ele>142.0</ele><time>2026-04-03T15:31:50.999Z</time></trkpt><trkpt lat="42.3976963045167" lon="11.906296219542492"><ele>142.0</ele><time>2026-04-03T15:31:51.999Z</time></trkpt><trkpt lat="42.397849252086004" lon="11.906288786274436"><ele>142.0</ele><time>2026-04-03T15:31:52.999Z</time></trkpt><trkpt lat="42.39801731583132" lon="11.90628650714409"><ele>142.0</ele><time>2026-04-03T15:31:53.999Z</time></trkpt><trkpt lat="42.398171922190386" lon="11.906295510309786"><ele>145.25</ele><time>2026-04-03T15:31:54.999Z</time></trkpt><trkpt lat="42.39832321818892" lon="11.906291708652281"><ele>148.5</ele><time>2026-04-03T15:31:55.999Z</time></trkpt><trkpt lat="42.39846368389953" lon="11.906255960802103"><ele>151.75</ele><time>2026-04-03T15:31:56.999Z</time></trkpt><trkpt lat="42.39858848455243" lon="11.906187544396461"><ele>155.0</ele><time>2026-04-03T15:31:57.999Z</time></trkpt><trkpt lat="42.39870549163497" lon="11.906106936828659"><ele>155.0</ele><time>2026-04-03T15:31:58.999Z</time></trkpt><trkpt lat="42.398809538900984" lon="11.905977909996343"><ele>155.0</ele><time>2026-04-03T15:31:59.999Z</time></trkpt><trkpt lat="42.398917926217685" lon="11.905824970036418"><ele>155.0</ele><time>2026-04-03T15:32:00.999Z</time></trkpt><trkpt lat="42.399023770121126" lon="11.905676378027927"><ele>154.0</ele><time>2026-04-03T15:32:01.999Z</time></trkpt><trkpt lat="42.39912971009463" lon="11.90551987760767"><ele>153.0</ele><time>2026-04-03T15:32:02.999Z</time></trkpt><trkpt lat="42.39921773885705" lon="11.905361101026843"><ele>152.0</ele><time>2026-04-03T15:32:03.999Z</time></trkpt><trkpt lat="42.399286844179244" lon="11.905184826969704"><ele>151.33333333333331</ele><time>2026-04-03T15:32:04.999Z</time></trkpt><trkpt lat="42.399331649662194" lon="11.90498395982577"><ele>150.66666666666666</ele><time>2026-04-03T15:32:05.999Z</time></trkpt><trkpt lat="42.399360038855825" lon="11.904759129531113"><ele>150.0</ele><time>2026-04-03T15:32:06.999Z</time></trkpt><trkpt lat="42.39938666166627" lon="11.904535903818182"><ele>150.0</ele><time>2026-04-03T15:32:07.999Z</time></trkpt><trkpt lat="42.39941577864012" lon="11.90431405793971"><ele>150.0</ele><time>2026-04-03T15:32:08.999Z</time></trkpt><trkpt lat="42.39945241818629" lon="11.904087591426972"><ele>150.0</ele><time>2026-04-03T15:32:09.999Z</time></trkpt><trkpt lat="42.39948064066246" lon="11.903869126161501"><ele>152.0</ele><time>2026-04-03T15:32:11Z</time></trkpt><trkpt lat="42.39950971733686" lon="11.903654777341266"><ele>154.0</ele><time>2026-04-03T15:32:12Z</time></trkpt><trkpt lat="42.39953853514758" lon="11.9034420194832"><ele>156.0</ele><time>2026-04-03T15:32:13Z</time></trkpt><trkpt lat="42.3995683156516" lon="11.903232634970939"><ele>158.33333333333334</ele><time>2026-04-03T15:32:14Z</time></trkpt><trkpt lat="42.39959726866993" lon="11.903020154573994"><ele>160.66666666666669</ele><time>2026-04-03T15:32:15Z</time></trkpt><trkpt lat="42.39962949507476" lon="11.902809130228615"><ele>163.0</ele><time>2026-04-03T15:32:16Z</time></trkpt><trkpt lat="42.39965848550671" lon="11.902585973475183"><ele>160.33333333333334</ele><time>2026-04-03T15:32:17Z</time></trkpt><trkpt lat="42.39969307724426" lon="11.902350350189748"><ele>157.66666666666666</ele><time>2026-04-03T15:32:18Z</time></trkpt><trkpt lat="42.39971938001991" lon="11.902103500393142"><ele>155.0</ele><time>2026-04-03T15:32:19Z</time></trkpt><trkpt lat="42.39973535188773" lon="11.901849768242712"><ele>154.66666666666666</ele><time>2026-04-03T15:32:20Z</time></trkpt><trkpt lat="42.39974078172403" lon="11.901588402764647"><ele>154.33333333333334</ele><time>2026-04-03T15:32:21Z</time></trkpt><trkpt lat="42.3997350846026" lon="11.9013280210452"><ele>154.0</ele><time>2026-04-03T15:32:22Z</time></trkpt><trkpt lat="42.3997192630008" lon="11.901066869728917"><ele>156.66666666666669</ele><time>2026-04-03T15:32:23Z</time></trkpt><trkpt lat="42.39969766264699" lon="11.900810669426734"><ele>159.33333333333334</ele><time>2026-04-03T15:32:24Z</time></trkpt><trkpt lat="42.39967617943776" lon="11.900559352056618"><ele>162.0</ele><time>2026-04-03T15:32:25Z</time></trkpt><trkpt lat="42.39965881780906" lon="11.900307188817388"><ele>163.66666666666666</ele><time>2026-04-03T15:32:26Z</time></trkpt><trkpt lat="42.39964082884117" lon="11.900070403933297"><ele>165.33333333333331</ele><time>2026-04-03T15:32:27Z</time></trkpt><trkpt lat="42.3996356105736" lon="11.899827317398291"><ele>167.0</ele><time>2026-04-03T15:32:28Z</time></trkpt><trkpt lat="42.399644122459804" lon="11.899587801312975"><ele>166.66666666666666</ele><time>2026-04-03T15:32:29Z</time></trkpt><trkpt lat="42.39967756983779" lon="11.899361476706188"><ele>166.33333333333334</ele><time>2026-04-03T15:32:30Z</time></trkpt><trkpt lat="42.39976065312811" lon="11.899156916308556"><ele>166.0</ele><time>2026-04-03T15:32:31Z</time></trkpt><trkpt lat="42.39987108904756" lon="11.89895691740358"><ele>166.66666666666669</ele><time>2026-04-03T15:32:32Z</time></trkpt><trkpt lat="42.399990256795064" lon="11.898768777911537"><ele>167.33333333333334</ele><time>2026-04-03T15:32:33Z</time></trkpt><trkpt lat="42.40010602894093" lon="11.898589342878113"><ele>168.0</ele><time>2026-04-03T15:32:34Z</time></trkpt><trkpt lat="42.40022019110969" lon="11.898408615951821"><ele>168.66666666666666</ele><time>2026-04-03T15:32:35Z</time></trkpt><trkpt lat="42.40033500035561" lon="11.89822461222683"><ele>169.33333333333331</ele><time>2026-04-03T15:32:36Z</time></trkpt><trkpt lat="42.400449690159526" lon="11.898042103906924"><ele>170.0</ele><time>2026-04-03T15:32:37Z</time></trkpt><trkpt lat="42.400560777946914" lon="11.8978642586114"><ele>170.0</ele><time>2026-04-03T15:32:38Z</time></trkpt><trkpt lat="42.40067158795152" lon="11.897684171760188"><ele>170.0</ele><time>2026-04-03T15:32:39Z</time></trkpt><trkpt lat="42.4007828014438" lon="11.897509026237747"><ele>170.0</ele><time>2026-04-03T15:32:40Z</time></trkpt><trkpt lat="42.40089577546713" lon="11.89733600977155"><ele>170.0</ele><time>2026-04-03T15:32:41Z</time></trkpt><trkpt lat="42.40100822014027" lon="11.897164459558578"><ele>170.0</ele><time>2026-04-03T15:32:42Z</time></trkpt><trkpt lat="42.40111774059896" lon="11.896986594711258"><ele>170.0</ele><time>2026-04-03T15:32:43Z</time></trkpt><trkpt lat="42.40122846069548" lon="11.896805179496365"><ele>169.66666666666666</ele><time>2026-04-03T15:32:44Z</time></trkpt><trkpt lat="42.40133957768726" lon="11.896624567352944"><ele>169.33333333333334</ele><time>2026-04-03T15:32:45Z</time></trkpt><trkpt lat="42.401450599815654" lon="11.896439228233382"><ele>169.0</ele><time>2026-04-03T15:32:46Z</time></trkpt><trkpt lat="42.401564629361815" lon="11.89625115375926"><ele>169.0</ele><time>2026-04-03T15:32:47Z</time></trkpt><trkpt lat="42.40168019556092" lon="11.89606345602669"><ele>169.0</ele><time>2026-04-03T15:32:48Z</time></trkpt><trkpt lat="42.40180411668758" lon="11.895859980458887"><ele>169.0</ele><time>2026-04-03T15:32:49Z</time></trkpt><trkpt lat="42.401937125252765" lon="11.895641387506869"><ele>169.0</ele><time>2026-04-03T15:32:50Z</time></trkpt><trkpt lat="42.40207784720104" lon="11.895407002506754"><ele>169.0</ele><time>2026-04-03T15:32:51Z</time></trkpt><trkpt lat="42.40222209412312" lon="11.895172179448911"><ele>169.0</ele><time>2026-04-03T15:32:52Z</time></trkpt><trkpt lat="42.40236664254142" lon="11.894936098751105"><ele>168.66666666666669</ele><time>2026-04-03T15:32:53Z</time></trkpt><trkpt lat="42.40251247234968" lon="11.894704458657497"><ele>168.33333333333334</ele><time>2026-04-03T15:32:54Z</time></trkpt><trkpt lat="42.40265458720658" lon="11.894479267382119"><ele>168.0</ele><time>2026-04-03T15:32:55Z</time></trkpt><trkpt lat="42.40279103790819" lon="11.894256365766095"><ele>168.33333333333334</ele><time>2026-04-03T15:32:56Z</time></trkpt><trkpt lat="42.40292919790149" lon="11.894037618055824"><ele>168.66666666666669</ele><time>2026-04-03T15:32:57Z</time></trkpt><trkpt lat="42.4030742825269" lon="11.893810975120326"><ele>169.0</ele><time>2026-04-03T15:32:58Z</time></trkpt><trkpt lat="42.40321436964177" lon="11.893582187927295"><ele>170.0</ele><time>2026-04-03T15:32:59Z</time></trkpt><trkpt lat="42.403349426378014" lon="11.893354604168891"><ele>171.0</ele><time>2026-04-03T15:33:00Z</time></trkpt><trkpt lat="42.40347811904284" lon="11.893133803714079"><ele>172.0</ele><time>2026-04-03T15:33:01Z</time></trkpt><trkpt lat="42.403602699734776" lon="11.892917470609998"><ele>172.0</ele><time>2026-04-03T15:33:02Z</time></trkpt><trkpt lat="42.40373177996221" lon="11.892713840345936"><ele>172.0</ele><time>2026-04-03T15:33:03Z</time></trkpt><trkpt lat="42.40387124662099" lon="11.892502959141373"><ele>172.0</ele><time>2026-04-03T15:33:04Z</time></trkpt><trkpt lat="42.40400730297047" lon="11.892282204864518"><ele>173.0</ele><time>2026-04-03T15:33:05Z</time></trkpt><trkpt lat="42.404139428642395" lon="11.892061011647295"><ele>174.0</ele><time>2026-04-03T15:33:06Z</time></trkpt><trkpt lat="42.40427149994999" lon="11.891837904146003"><ele>175.0</ele><time>2026-04-03T15:33:07Z</time></trkpt><trkpt lat="42.404404915520736" lon="11.891618613343057"><ele>175.0</ele><time>2026-04-03T15:33:08Z</time></trkpt><trkpt lat="42.40453619756436" lon="11.891403556971964"><ele>175.0</ele><time>2026-04-03T15:33:09Z</time></trkpt><trkpt lat="42.40466807894579" lon="11.891188362920705"><ele>175.0</ele><time>2026-04-03T15:33:10Z</time></trkpt><trkpt lat="42.404797070327774" lon="11.890975866257874"><ele>174.0</ele><time>2026-04-03T15:33:11Z</time></trkpt><trkpt lat="42.40491960130469" lon="11.890774925909264"><ele>173.0</ele><time>2026-04-03T15:33:12Z</time></trkpt><trkpt lat="42.40504514678238" lon="11.890573079668645"><ele>172.0</ele><time>2026-04-03T15:33:13Z</time></trkpt><trkpt lat="42.40517407270079" lon="11.890368405306038"><ele>172.0</ele><time>2026-04-03T15:33:14Z</time></trkpt><trkpt lat="42.405306589382505" lon="11.890151359717578"><ele>172.0</ele><time>2026-04-03T15:33:15Z</time></trkpt><trkpt lat="42.405439722089966" lon="11.889932649636679"><ele>172.0</ele><time>2026-04-03T15:33:16Z</time></trkpt><trkpt lat="42.40556322329727" lon="11.889723517420627"><ele>172.66666666666669</ele><time>2026-04-03T15:33:17Z</time></trkpt><trkpt lat="42.405671339216674" lon="11.889540334395933"><ele>173.33333333333334</ele><time>2026-04-03T15:33:18Z</time></trkpt><trkpt lat="42.40577554863127" lon="11.889367540079341"><ele>174.0</ele><time>2026-04-03T15:33:19Z</time></trkpt><trkpt lat="42.40589142204413" lon="11.889174072334216"><ele>174.33333333333334</ele><time>2026-04-03T15:33:20Z</time></trkpt><trkpt lat="42.40602040266763" lon="11.888961159229938"><ele>174.66666666666669</ele><time>2026-04-03T15:33:21Z</time></trkpt><trkpt lat="42.406157329027366" lon="11.888733362211516"><ele>175.0</ele><time>2026-04-03T15:33:22Z</time></trkpt><trkpt lat="42.40630030988555" lon="11.88850535373675"><ele>175.0</ele><time>2026-04-03T15:33:23Z</time></trkpt><trkpt lat="42.40643391963434" lon="11.888278743879374"><ele>175.0</ele><time>2026-04-03T15:33:23.999Z</time></trkpt><trkpt lat="42.4065703693766" lon="11.88807680963865"><ele>175.0</ele><time>2026-04-03T15:33:24.999Z</time></trkpt><trkpt lat="42.4066912186034" lon="11.887878227221389"><ele>175.0</ele><time>2026-04-03T15:33:25.999Z</time></trkpt><trkpt lat="42.40681278931604" lon="11.887678945080177"><ele>175.0</ele><time>2026-04-03T15:33:26.999Z</time></trkpt><trkpt lat="42.40692717719518" lon="11.887498241013406"><ele>175.0</ele><time>2026-04-03T15:33:27.999Z</time></trkpt><trkpt lat="42.407047830419" lon="11.887304241684145"><ele>175.33333333333334</ele><time>2026-04-03T15:33:28.999Z</time></trkpt><trkpt lat="42.40716591576367" lon="11.887110847026314"><ele>175.66666666666666</ele><time>2026-04-03T15:33:29.999Z</time></trkpt><trkpt lat="42.407280076816654" lon="11.886929584497024"><ele>176.0</ele><time>2026-04-03T15:33:30.999Z</time></trkpt><trkpt lat="42.407394996765795" lon="11.886759005269575"><ele>174.66666666666666</ele><time>2026-04-03T15:33:31.999Z</time></trkpt><trkpt lat="42.4075450603068" lon="11.886626990974541"><ele>173.33333333333334</ele><time>2026-04-03T15:33:32.999Z</time></trkpt><trkpt lat="42.407692028982275" lon="11.886472581809226"><ele>172.0</ele><time>2026-04-03T15:33:33.999Z</time></trkpt><trkpt lat="42.4078418708582" lon="11.886345242870986"><ele>172.0</ele><time>2026-04-03T15:33:34.999Z</time></trkpt><trkpt lat="42.40798128212099" lon="11.886219820130075"><ele>172.0</ele><time>2026-04-03T15:33:35.999Z</time></trkpt><trkpt lat="42.408110735757205" lon="11.886088067685147"><ele>172.0</ele><time>2026-04-03T15:33:36.999Z</time></trkpt><trkpt lat="42.40822527344133" lon="11.885938042696534"><ele>170.25</ele><time>2026-04-03T15:33:37.999Z</time></trkpt><trkpt lat="42.40832653978894" lon="11.885775421593657"><ele>168.5</ele><time>2026-04-03T15:33:38.999Z</time></trkpt><trkpt lat="42.40840337687518" lon="11.88560847013212"><ele>166.75</ele><time>2026-04-03T15:33:39.999Z</time></trkpt><trkpt lat="42.408446944436434" lon="11.885426098495193"><ele>165.0</ele><time>2026-04-03T15:33:40.999Z</time></trkpt><trkpt lat="42.408478414104955" lon="11.885237817175737"><ele>164.33333333333334</ele><time>2026-04-03T15:33:41.999Z</time></trkpt><trkpt lat="42.40851050088644" lon="11.88504780437672"><ele>163.66666666666669</ele><time>2026-04-03T15:33:42.999Z</time></trkpt><trkpt lat="42.40854647854759" lon="11.884837361081463"><ele>163.0</ele><time>2026-04-03T15:33:43.999Z</time></trkpt><trkpt lat="42.40857907437278" lon="11.884604920405847"><ele>163.0</ele><time>2026-04-03T15:33:44.999Z</time></trkpt><trkpt lat="42.40859172419889" lon="11.8843433566094"><ele>163.0</ele><time>2026-04-03T15:33:45.999Z</time></trkpt><trkpt lat="42.408571665721254" lon="11.884070550056586"><ele>163.0</ele><time>2026-04-03T15:33:46.999Z</time></trkpt><trkpt lat="42.40853541596551" lon="11.883830303515989"><ele>160.75</ele><time>2026-04-03T15:33:47.999Z</time></trkpt><trkpt lat="42.40850264618828" lon="11.883623246295741"><ele>158.5</ele><time>2026-04-03T15:33:48.999Z</time></trkpt><trkpt lat="42.408462172334545" lon="11.883443284644624"><ele>156.25</ele><time>2026-04-03T15:33:49.999Z</time></trkpt><trkpt lat="42.4083968089889" lon="11.883298242154236"><ele>154.0</ele><time>2026-04-03T15:33:50.999Z</time></trkpt><trkpt lat="42.40835001838462" lon="11.883142205720581"><ele>151.5</ele><time>2026-04-03T15:33:51.999Z</time></trkpt><trkpt lat="42.408302192663804" lon="11.882978178075659"><ele>149.0</ele><time>2026-04-03T15:33:52.999Z</time></trkpt><trkpt lat="42.40824580934938" lon="11.882797176026417"><ele>146.5</ele><time>2026-04-03T15:33:53.999Z</time></trkpt><trkpt lat="42.40818934199332" lon="11.882615470092102"><ele>144.0</ele><time>2026-04-03T15:33:54.999Z</time></trkpt><trkpt lat="42.408133395072156" lon="11.882426864536885"><ele>142.75</ele><time>2026-04-03T15:33:55.999Z</time></trkpt><trkpt lat="42.40808073705676" lon="11.882247450130132"><ele>141.5</ele><time>2026-04-03T15:33:56.999Z</time></trkpt><trkpt lat="42.40804342094294" lon="11.882082547506217"><ele>140.25</ele><time>2026-04-03T15:33:57.999Z</time></trkpt><trkpt lat="42.40802421996788" lon="11.881924472126197"><ele>139.0</ele><time>2026-04-03T15:33:58.999Z</time></trkpt><trkpt lat="42.40804112857005" lon="11.881766846049922"><ele>136.75</ele><time>2026-04-03T15:33:59.999Z</time></trkpt><trkpt lat="42.408105318361265" lon="11.88162691263959"><ele>134.5</ele><time>2026-04-03T15:34:00.999Z</time></trkpt><trkpt lat="42.408202204176156" lon="11.881522748757083"><ele>132.25</ele><time>2026-04-03T15:34:01.999Z</time></trkpt><trkpt lat="42.40831272803945" lon="11.881489399788217"><ele>130.0</ele><time>2026-04-03T15:34:02.999Z</time></trkpt><trkpt lat="42.408427225013085" lon="11.881517792143955"><ele>130.0</ele><time>2026-04-03T15:34:03.999Z</time></trkpt><trkpt lat="42.408535868897154" lon="11.881597178799021"><ele>130.0</ele><time>2026-04-03T15:34:04.999Z</time></trkpt><trkpt lat="42.40863845211484" lon="11.881714085493583"><ele>130.0</ele><time>2026-04-03T15:34:05.999Z</time></trkpt><trkpt lat="42.40873647608048" lon="11.881846310419611"><ele>130.0</ele><time>2026-04-03T15:34:06.999Z</time></trkpt><trkpt lat="42.40882376259651" lon="11.881966002755354"><ele>130.4</ele><time>2026-04-03T15:34:07.999Z</time></trkpt><trkpt lat="42.408924138640145" lon="11.88204425208377"><ele>130.8</ele><time>2026-04-03T15:34:08.999Z</time></trkpt><trkpt lat="42.40902875416557" lon="11.882104872091306"><ele>131.2</ele><time>2026-04-03T15:34:09.999Z</time></trkpt><trkpt lat="42.40913754343108" lon="11.882132637543425"><ele>131.6</ele><time>2026-04-03T15:34:10.999Z</time></trkpt><trkpt lat="42.40923642909949" lon="11.882141630963995"><ele>132.0</ele><time>2026-04-03T15:34:11.999Z</time></trkpt><trkpt lat="42.40931385853101" lon="11.882145455602005"><ele>132.0</ele><time>2026-04-03T15:34:12.999Z</time></trkpt><trkpt lat="42.40942371739198" lon="11.882139721441302"><ele>132.0</ele><time>2026-04-03T15:34:14.999Z</time></trkpt><trkpt lat="42.409505001128224" lon="11.882113544196635"><ele>132.0</ele><time>2026-04-03T15:34:17Z</time></trkpt><trkpt lat="42.409544134350824" lon="11.88193921292356"><ele>132.0</ele><time>2026-04-03T15:34:18Z</time></trkpt><trkpt lat="42.40958698006381" lon="11.881792284533871"><ele>132.0</ele><time>2026-04-03T15:34:19Z</time></trkpt><trkpt lat="42.40964702231766" lon="11.881626628516772"><ele>126.25</ele><time>2026-04-03T15:34:20Z</time></trkpt><trkpt lat="42.409737460704164" lon="11.881449649943931"><ele>120.5</ele><time>2026-04-03T15:34:21Z</time></trkpt><trkpt lat="42.40982174857735" lon="11.881285605372867"><ele>114.75</ele><time>2026-04-03T15:34:22Z</time></trkpt><trkpt lat="42.40989724997066" lon="11.881130119502778"><ele>109.0</ele><time>2026-04-03T15:34:23Z</time></trkpt><trkpt lat="42.40996733445652" lon="11.880992374994284"><ele>109.6</ele><time>2026-04-03T15:34:24Z</time></trkpt><trkpt lat="42.41003179326926" lon="11.880862646170515"><ele>110.2</ele><time>2026-04-03T15:34:25Z</time></trkpt><trkpt lat="42.41009165987574" lon="11.88074931267993"><ele>110.79999999999998</ele><time>2026-04-03T15:34:26Z</time></trkpt><trkpt lat="42.4101536768426" lon="11.880623831787167"><ele>111.39999999999999</ele><time>2026-04-03T15:34:27Z</time></trkpt><trkpt lat="42.41022164281247" lon="11.880491813740628"><ele>112.0</ele><time>2026-04-03T15:34:28Z</time></trkpt><trkpt lat="42.41028296522833" lon="11.880357456356744"><ele>112.0</ele><time>2026-04-03T15:34:29Z</time></trkpt><trkpt lat="42.41034774872744" lon="11.880237547563423"><ele>111.99999999999999</ele><time>2026-04-03T15:34:30Z</time></trkpt><trkpt lat="42.41040851242804" lon="11.880117691696421"><ele>111.99999999999999</ele><time>2026-04-03T15:34:31Z</time></trkpt><trkpt lat="42.410465941312005" lon="11.879988731210341"><ele>112.0</ele><time>2026-04-03T15:34:32Z</time></trkpt><trkpt lat="42.410521571199375" lon="11.879858059851022"><ele>112.0</ele><time>2026-04-03T15:34:33Z</time></trkpt><trkpt lat="42.410559942764735" lon="11.879699037215891"><ele>114.75</ele><time>2026-04-03T15:34:34Z</time></trkpt><trkpt lat="42.410581968840795" lon="11.879533381621272"><ele>117.5</ele><time>2026-04-03T15:34:35Z</time></trkpt><trkpt lat="42.41060245968692" lon="11.87937147172778"><ele>120.25</ele><time>2026-04-03T15:34:36Z</time></trkpt><trkpt lat="42.41061949962964" lon="11.879209708027936"><ele>123.0</ele><time>2026-04-03T15:34:37Z</time></trkpt><trkpt lat="42.41064049633738" lon="11.879057073548502"><ele>124.25</ele><time>2026-04-03T15:34:38Z</time></trkpt><trkpt lat="42.4106587727408" lon="11.878897780209293"><ele>125.5</ele><time>2026-04-03T15:34:39Z</time></trkpt><trkpt lat="42.41067338916393" lon="11.878734132921673"><ele>126.75</ele><time>2026-04-03T15:34:40Z</time></trkpt><trkpt lat="42.41068934447972" lon="11.878572706384988"><ele>128.0</ele><time>2026-04-03T15:34:41Z</time></trkpt><trkpt lat="42.41070435701136" lon="11.87842124173734"><ele>128.25</ele><time>2026-04-03T15:34:42Z</time></trkpt><trkpt lat="42.41072610929401" lon="11.878263684350209"><ele>128.5</ele><time>2026-04-03T15:34:43Z</time></trkpt><trkpt lat="42.41075012911751" lon="11.878109597452275"><ele>128.75</ele><time>2026-04-03T15:34:44Z</time></trkpt><trkpt lat="42.41078638338206" lon="11.877954029815436"><ele>129.0</ele><time>2026-04-03T15:34:45Z</time></trkpt><trkpt lat="42.4108247695035" lon="11.877801538006333"><ele>129.0</ele><time>2026-04-03T15:34:46Z</time></trkpt><trkpt lat="42.4108692529718" lon="11.877639184271782"><ele>129.0</ele><time>2026-04-03T15:34:47Z</time></trkpt><trkpt lat="42.410943704638505" lon="11.877485704729478"><ele>129.0</ele><time>2026-04-03T15:34:48Z</time></trkpt><trkpt lat="42.41105254338635" lon="11.877314417915091"><ele>129.0</ele><time>2026-04-03T15:34:49Z</time></trkpt><trkpt lat="42.41118804404434" lon="11.877162336126666"><ele>133.0</ele><time>2026-04-03T15:34:50Z</time></trkpt><trkpt lat="42.41134730945268" lon="11.877030054535854"><ele>137.0</ele><time>2026-04-03T15:34:51Z</time></trkpt><trkpt lat="42.411510408339616" lon="11.876968890300137"><ele>141.0</ele><time>2026-04-03T15:34:52Z</time></trkpt><trkpt lat="42.41167697455267" lon="11.8769246031813"><ele>141.0</ele><time>2026-04-03T15:34:53Z</time></trkpt><trkpt lat="42.41186124152902" lon="11.876896898876668"><ele>141.0</ele><time>2026-04-03T15:34:54Z</time></trkpt><trkpt lat="42.41205662231071" lon="11.876880418835647"><ele>141.0</ele><time>2026-04-03T15:34:55Z</time></trkpt><trkpt lat="42.41226056247325" lon="11.876879936753497"><ele>145.66666666666666</ele><time>2026-04-03T15:34:56Z</time></trkpt><trkpt lat="42.41244531878485" lon="11.87684772641855"><ele>150.33333333333331</ele><time>2026-04-03T15:34:57Z</time></trkpt><trkpt lat="42.412617316882304" lon="11.876816196677224"><ele>155.0</ele><time>2026-04-03T15:34:58Z</time></trkpt><trkpt lat="42.41277224866857" lon="11.876788144905936"><ele>151.33333333333331</ele><time>2026-04-03T15:34:59Z</time></trkpt><trkpt lat="42.41291616607934" lon="11.876719608521505"><ele>147.66666666666666</ele><time>2026-04-03T15:35:00Z</time></trkpt><trkpt lat="42.413066356188345" lon="11.876649352279435"><ele>144.0</ele><time>2026-04-03T15:35:01Z</time></trkpt><trkpt lat="42.41319515943868" lon="11.876542585465371"><ele>144.0</ele><time>2026-04-03T15:35:02Z</time></trkpt><trkpt lat="42.41331870943997" lon="11.876403544494632"><ele>144.0</ele><time>2026-04-03T15:35:03Z</time></trkpt><trkpt lat="42.413436385466404" lon="11.87622879616106"><ele>144.0</ele><time>2026-04-03T15:35:04Z</time></trkpt><trkpt lat="42.413538994643275" lon="11.8760376901053"><ele>145.5</ele><time>2026-04-03T15:35:05Z</time></trkpt><trkpt lat="42.41362738326828" lon="11.875855819339936"><ele>147.0</ele><time>2026-04-03T15:35:06Z</time></trkpt><trkpt lat="42.4137110891026" lon="11.875696677715679"><ele>148.5</ele><time>2026-04-03T15:35:07Z</time></trkpt><trkpt lat="42.41380419078132" lon="11.87556539308862"><ele>150.0</ele><time>2026-04-03T15:35:08Z</time></trkpt><trkpt lat="42.41391014078439" lon="11.875474887698626"><ele>150.0</ele><time>2026-04-03T15:35:09Z</time></trkpt><trkpt lat="42.414036882604144" lon="11.875397222040755"><ele>150.0</ele><time>2026-04-03T15:35:10Z</time></trkpt><trkpt lat="42.4141631259388" lon="11.875311578119696"><ele>150.0</ele><time>2026-04-03T15:35:11Z</time></trkpt><trkpt lat="42.41428480775226" lon="11.875227596591085"><ele>150.0</ele><time>2026-04-03T15:35:12Z</time></trkpt><trkpt lat="42.41440237044431" lon="11.875143846770152"><ele>150.0</ele><time>2026-04-03T15:35:13Z</time></trkpt><trkpt lat="42.41452736392023" lon="11.875057941310954"><ele>150.0</ele><time>2026-04-03T15:35:14Z</time></trkpt><trkpt lat="42.41466245409804" lon="11.874964406869786"><ele>150.0</ele><time>2026-04-03T15:35:15Z</time></trkpt><trkpt lat="42.41478122168608" lon="11.874877170624528"><ele>150.0</ele><time>2026-04-03T15:35:16Z</time></trkpt><trkpt lat="42.41488590982405" lon="11.874805886388144"><ele>150.0</ele><time>2026-04-03T15:35:17Z</time></trkpt><trkpt lat="42.41498395169771" lon="11.874744481289577"><ele>150.0</ele><time>2026-04-03T15:35:18Z</time></trkpt><trkpt lat="42.41508962595013" lon="11.874708696545046"><ele>150.0</ele><time>2026-04-03T15:35:19Z</time></trkpt><trkpt lat="42.41521091779173" lon="11.874697644583629"><ele>150.0</ele><time>2026-04-03T15:35:20Z</time></trkpt><trkpt lat="42.41533534512855" lon="11.874694959223687"><ele>150.0</ele><time>2026-04-03T15:35:21Z</time></trkpt><trkpt lat="42.41545504664142" lon="11.874714074974861"><ele>150.0</ele><time>2026-04-03T15:35:22Z</time></trkpt><trkpt lat="42.41556823773552" lon="11.874721342258509"><ele>150.0</ele><time>2026-04-03T15:35:23Z</time></trkpt><trkpt lat="42.4156687632607" lon="11.874717548162936"><ele>150.0</ele><time>2026-04-03T15:35:24Z</time></trkpt><trkpt lat="42.41576475043287" lon="11.874720237604155"><ele>150.0</ele><time>2026-04-03T15:35:25Z</time></trkpt><trkpt lat="42.415849523128614" lon="11.87469862501276"><ele>150.4</ele><time>2026-04-03T15:35:25.999Z</time></trkpt><trkpt lat="42.4159528022971" lon="11.874634245904009"><ele>150.8</ele><time>2026-04-03T15:35:26.999Z</time></trkpt><trkpt lat="42.416029173885725" lon="11.874533978553945"><ele>151.2</ele><time>2026-04-03T15:35:27.999Z</time></trkpt><trkpt lat="42.41609056680475" lon="11.874421274300383"><ele>151.6</ele><time>2026-04-03T15:35:28.999Z</time></trkpt><trkpt lat="42.416137241343044" lon="11.874282941705657"><ele>152.0</ele><time>2026-04-03T15:35:29.999Z</time></trkpt><trkpt lat="42.4161610027572" lon="11.874108657164522"><ele>152.0</ele><time>2026-04-03T15:35:30.999Z</time></trkpt><trkpt lat="42.41614636961637" lon="11.873916232320859"><ele>152.0</ele><time>2026-04-03T15:35:31.999Z</time></trkpt><trkpt lat="42.41609167806115" lon="11.873719821049272"><ele>152.0</ele><time>2026-04-03T15:35:32.999Z</time></trkpt><trkpt lat="42.41600249150499" lon="11.873547166183133"><ele>154.0</ele><time>2026-04-03T15:35:33.999Z</time></trkpt><trkpt lat="42.415892990354926" lon="11.873373295524644"><ele>156.0</ele><time>2026-04-03T15:35:34.999Z</time></trkpt><trkpt lat="42.41578731359285" lon="11.873196634143213"><ele>158.0</ele><time>2026-04-03T15:35:35.999Z</time></trkpt><trkpt lat="42.41569821311149" lon="11.873034663785512"><ele>158.0</ele><time>2026-04-03T15:35:36.999Z</time></trkpt><trkpt lat="42.41561841849085" lon="11.872885785618571"><ele>158.0</ele><time>2026-04-03T15:35:37.999Z</time></trkpt><trkpt lat="42.41554327849231" lon="11.872753317213867"><ele>158.0</ele><time>2026-04-03T15:35:38.999Z</time></trkpt><trkpt lat="42.41547278235927" lon="11.872633210063253"><ele>158.0</ele><time>2026-04-03T15:35:39.999Z</time></trkpt><trkpt lat="42.415405123305305" lon="11.872521590344999"><ele>156.6</ele><time>2026-04-03T15:35:40.999Z</time></trkpt><trkpt lat="42.41535490045083" lon="11.872406257682604"><ele>155.20000000000002</ele><time>2026-04-03T15:35:41.999Z</time></trkpt><trkpt lat="42.41532378482441" lon="11.872283800921434"><ele>153.8</ele><time>2026-04-03T15:35:42.999Z</time></trkpt><trkpt lat="42.4153208016071" lon="11.87215729789824"><ele>152.4</ele><time>2026-04-03T15:35:43.999Z</time></trkpt><trkpt lat="42.415336867100024" lon="11.871996359471098"><ele>151.0</ele><time>2026-04-03T15:35:44.999Z</time></trkpt><trkpt lat="42.41539259740967" lon="11.871847127927285"><ele>153.0</ele><time>2026-04-03T15:35:45.999Z</time></trkpt><trkpt lat="42.41548437800138" lon="11.87169749150219"><ele>155.0</ele><time>2026-04-03T15:35:46.999Z</time></trkpt><trkpt lat="42.41559130848993" lon="11.871541042433854"><ele>157.0</ele><time>2026-04-03T15:35:47.999Z</time></trkpt><trkpt lat="42.41569803949392" lon="11.871375948812407"><ele>161.0</ele><time>2026-04-03T15:35:48.999Z</time></trkpt><trkpt lat="42.41580577613624" lon="11.871198012446447"><ele>165.0</ele><time>2026-04-03T15:35:49.999Z</time></trkpt><trkpt lat="42.41591697916412" lon="11.87101757533294"><ele>169.0</ele><time>2026-04-03T15:35:50.999Z</time></trkpt><trkpt lat="42.416026346313004" lon="11.870848048211705"><ele>170.0</ele><time>2026-04-03T15:35:51.999Z</time></trkpt><trkpt lat="42.41613158687512" lon="11.870689493698672"><ele>171.0</ele><time>2026-04-03T15:35:52.999Z</time></trkpt><trkpt lat="42.41623504681389" lon="11.870545399983286"><ele>172.0</ele><time>2026-04-03T15:35:53.999Z</time></trkpt><trkpt lat="42.41633841202969" lon="11.87040638741858"><ele>173.66666666666669</ele><time>2026-04-03T15:35:54.999Z</time></trkpt><trkpt lat="42.4164635015057" lon="11.87030135351081"><ele>175.33333333333334</ele><time>2026-04-03T15:35:55.999Z</time></trkpt><trkpt lat="42.41661484442998" lon="11.870238632320817"><ele>177.0</ele><time>2026-04-03T15:35:56.999Z</time></trkpt><trkpt lat="42.41678335063066" lon="11.87021640716535"><ele>177.0</ele><time>2026-04-03T15:35:57.999Z</time></trkpt><trkpt lat="42.416943509988435" lon="11.87023107554562"><ele>177.0</ele><time>2026-04-03T15:35:58.999Z</time></trkpt><trkpt lat="42.41710378937129" lon="11.870253778394746"><ele>177.0</ele><time>2026-04-03T15:35:59.999Z</time></trkpt><trkpt lat="42.41725172615523" lon="11.87027069204655"><ele>178.0</ele><time>2026-04-03T15:36:00.999Z</time></trkpt><trkpt lat="42.417398366114945" lon="11.870283655576467"><ele>179.0</ele><time>2026-04-03T15:36:01.999Z</time></trkpt><trkpt lat="42.417546402220125" lon="11.870273192654151"><ele>180.0</ele><time>2026-04-03T15:36:02.999Z</time></trkpt><trkpt lat="42.41769185034592" lon="11.870276548949729"><ele>181.0</ele><time>2026-04-03T15:36:03.999Z</time></trkpt><trkpt lat="42.417822795256235" lon="11.870297183774882"><ele>181.0</ele><time>2026-04-03T15:36:04.999Z</time></trkpt><trkpt lat="42.417941945203026" lon="11.870327512496265"><ele>181.0</ele><time>2026-04-03T15:36:05.999Z</time></trkpt><trkpt lat="42.41804047236793" lon="11.870366963835215"><ele>181.0</ele><time>2026-04-03T15:36:06.999Z</time></trkpt><trkpt lat="42.41813289520914" lon="11.870394122449124"><ele>181.0</ele><time>2026-04-03T15:36:07.999Z</time></trkpt><trkpt lat="42.41819465646229" lon="11.870416434020534"><ele>181.0</ele><time>2026-04-03T15:36:08.999Z</time></trkpt><trkpt lat="42.41826309221686" lon="11.870472101186296"><ele>180.83333333333334</ele><time>2026-04-03T15:36:10.999Z</time></trkpt><trkpt lat="42.41831413111019" lon="11.870525666075208"><ele>180.66666666666669</ele><time>2026-04-03T15:36:13.999Z</time></trkpt><trkpt lat="42.41836838494267" lon="11.870597190308912"><ele>180.5</ele><time>2026-04-03T15:36:15.999Z</time></trkpt><trkpt lat="42.41844379989066" lon="11.870663519246516"><ele>180.33333333333334</ele><time>2026-04-03T15:36:17.999Z</time></trkpt><trkpt lat="42.41850985394827" lon="11.870675998615017"><ele>180.16666666666666</ele><time>2026-04-03T15:36:18.999Z</time></trkpt><trkpt lat="42.4186029007129" lon="11.87066113342013"><ele>180.0</ele><time>2026-04-03T15:36:19.999Z</time></trkpt><trkpt lat="42.418706972123964" lon="11.870634590143835"><ele>180.0</ele><time>2026-04-03T15:36:20.999Z</time></trkpt><trkpt lat="42.41881179962551" lon="11.870600625721476"><ele>180.0</ele><time>2026-04-03T15:36:21.999Z</time></trkpt><trkpt lat="42.418919488229065" lon="11.87056491349883"><ele>180.0</ele><time>2026-04-03T15:36:23Z</time></trkpt><trkpt lat="42.41902169351742" lon="11.870530953421856"><ele>180.0</ele><time>2026-04-03T15:36:24Z</time></trkpt><trkpt lat="42.41912840889211" lon="11.870501133888522"><ele>180.0</ele><time>2026-04-03T15:36:25Z</time></trkpt><trkpt lat="42.41923341633839" lon="11.870474749477086"><ele>179.8</ele><time>2026-04-03T15:36:26Z</time></trkpt><trkpt lat="42.41931966206119" lon="11.870445039361591"><ele>179.6</ele><time>2026-04-03T15:36:27Z</time></trkpt><trkpt lat="42.41940782482137" lon="11.870421632711675"><ele>179.39999999999998</ele><time>2026-04-03T15:36:28Z</time></trkpt><trkpt lat="42.419490414928724" lon="11.870398211336973"><ele>179.2</ele><time>2026-04-03T15:36:29Z</time></trkpt><trkpt lat="42.419561213628995" lon="11.870371961396375"><ele>179.0</ele><time>2026-04-03T15:36:30Z</time></trkpt><trkpt lat="42.419674217685184" lon="11.870338028628781"><ele>179.5</ele><time>2026-04-03T15:36:32Z</time></trkpt><trkpt lat="42.41973588757954" lon="11.870314547484826"><ele>180.0</ele><time>2026-04-03T15:36:33Z</time></trkpt><trkpt lat="42.41983900825109" lon="11.870273359902217"><ele>180.5</ele><time>2026-04-03T15:36:35Z</time></trkpt><trkpt lat="42.41991860806532" lon="11.870243977045494"><ele>181.0</ele><time>2026-04-03T15:36:37Z</time></trkpt><trkpt lat="42.41998509120401" lon="11.870243599290776"><ele>181.5</ele><time>2026-04-03T15:36:39Z</time></trkpt><trkpt lat="42.42006216584356" lon="11.87022202198341"><ele>182.0</ele><time>2026-04-03T15:36:43Z</time></trkpt><trkpt lat="42.42012314471111" lon="11.87019843989934"><ele>182.0</ele><time>2026-04-03T15:36:47Z</time></trkpt><trkpt lat="42.420186569139666" lon="11.870170385676678"><ele>182.0</ele><time>2026-04-03T15:36:50Z</time></trkpt><trkpt lat="42.420210173052254" lon="11.870036289525778"><ele>182.0</ele><time>2026-04-03T15:36:51Z</time></trkpt><trkpt lat="42.42023936727967" lon="11.86995489627237"><ele>182.0</ele><time>2026-04-03T15:36:52Z</time></trkpt><trkpt lat="42.42029045053791" lon="11.869810318777763"><ele>182.0</ele><time>2026-04-03T15:36:54Z</time></trkpt><trkpt lat="42.420320749698774" lon="11.869721467947535"><ele>182.0</ele><time>2026-04-03T15:36:55Z</time></trkpt><trkpt lat="42.420353553954904" lon="11.86962012966991"><ele>182.25</ele><time>2026-04-03T15:36:56Z</time></trkpt><trkpt lat="42.42038896258706" lon="11.869510746008576"><ele>182.5</ele><time>2026-04-03T15:36:57Z</time></trkpt><trkpt lat="42.420438305845614" lon="11.869358817058028"><ele>182.75</ele><time>2026-04-03T15:36:58Z</time></trkpt><trkpt lat="42.420480720361226" lon="11.869180080670853"><ele>183.0</ele><time>2026-04-03T15:36:59Z</time></trkpt><trkpt lat="42.42055062416294" lon="11.868996871164718"><ele>184.4</ele><time>2026-04-03T15:37:00Z</time></trkpt><trkpt lat="42.42060212191162" lon="11.868841210248801"><ele>185.8</ele><time>2026-04-03T15:37:01Z</time></trkpt><trkpt lat="42.42064064096035" lon="11.868709023167003"><ele>187.2</ele><time>2026-04-03T15:37:02Z</time></trkpt><trkpt lat="42.420672711595934" lon="11.868607945728487"><ele>188.6</ele><time>2026-04-03T15:37:03Z</time></trkpt><trkpt lat="42.42070067285333" lon="11.868524337229099"><ele>190.0</ele><time>2026-04-03T15:37:04Z</time></trkpt><trkpt lat="42.420750399858136" lon="11.868350602685709"><ele>190.2</ele><time>2026-04-03T15:37:06Z</time></trkpt><trkpt lat="42.420780250036195" lon="11.868238135449282"><ele>190.4</ele><time>2026-04-03T15:37:07Z</time></trkpt><trkpt lat="42.42082244871372" lon="11.868123300059374"><ele>190.60000000000002</ele><time>2026-04-03T15:37:08Z</time></trkpt><trkpt lat="42.420852754044574" lon="11.867996312008367"><ele>190.8</ele><time>2026-04-03T15:37:09Z</time></trkpt><trkpt lat="42.42088592005008" lon="11.867867062898762"><ele>191.0</ele><time>2026-04-03T15:37:10Z</time></trkpt><trkpt lat="42.420919896392476" lon="11.867737132179208"><ele>191.5</ele><time>2026-04-03T15:37:11Z</time></trkpt><trkpt lat="42.420959268287646" lon="11.867603684492796"><ele>192.0</ele><time>2026-04-03T15:37:12Z</time></trkpt><trkpt lat="42.421014699597" lon="11.867468597458608"><ele>192.5</ele><time>2026-04-03T15:37:13Z</time></trkpt><trkpt lat="42.42105493552477" lon="11.867317744467906"><ele>193.0</ele><time>2026-04-03T15:37:14Z</time></trkpt><trkpt lat="42.42110254865093" lon="11.86714886720013"><ele>193.0</ele><time>2026-04-03T15:37:15Z</time></trkpt><trkpt lat="42.42114665550503" lon="11.866964841639218"><ele>193.0</ele><time>2026-04-03T15:37:16Z</time></trkpt><trkpt lat="42.421199877334004" lon="11.86680704889544"><ele>193.0</ele><time>2026-04-03T15:37:17Z</time></trkpt><trkpt lat="42.421248542790785" lon="11.86666146584677"><ele>193.0</ele><time>2026-04-03T15:37:18Z</time></trkpt><trkpt lat="42.42129569439688" lon="11.866509208630937"><ele>193.0</ele><time>2026-04-03T15:37:19Z</time></trkpt><trkpt lat="42.42134808056405" lon="11.866353875258236"><ele>193.0</ele><time>2026-04-03T15:37:20Z</time></trkpt><trkpt lat="42.42140050523995" lon="11.866198721027414"><ele>193.0</ele><time>2026-04-03T15:37:21Z</time></trkpt><trkpt lat="42.421449773576924" lon="11.866054682132244"><ele>193.0</ele><time>2026-04-03T15:37:22Z</time></trkpt><trkpt lat="42.4214977907969" lon="11.86592109750795"><ele>193.0</ele><time>2026-04-03T15:37:23Z</time></trkpt><trkpt lat="42.421538119306156" lon="11.865787817313592"><ele>193.0</ele><time>2026-04-03T15:37:24Z</time></trkpt><trkpt lat="42.42157470737955" lon="11.865650478444135"><ele>193.0</ele><time>2026-04-03T15:37:24.999Z</time></trkpt><trkpt lat="42.421604158293164" lon="11.865495533170673"><ele>193.0</ele><time>2026-04-03T15:37:25.999Z</time></trkpt><trkpt lat="42.42164554232333" lon="11.865341959216604"><ele>193.0</ele><time>2026-04-03T15:37:26.999Z</time></trkpt><trkpt lat="42.42167897796858" lon="11.865174375785264"><ele>193.0</ele><time>2026-04-03T15:37:27.999Z</time></trkpt><trkpt lat="42.421714890683766" lon="11.865002200425602"><ele>193.0</ele><time>2026-04-03T15:37:28.999Z</time></trkpt><trkpt lat="42.4217532753201" lon="11.86482366824241"><ele>193.0</ele><time>2026-04-03T15:37:29.999Z</time></trkpt><trkpt lat="42.421795544337215" lon="11.864635866035673"><ele>193.33333333333331</ele><time>2026-04-03T15:37:30.999Z</time></trkpt><trkpt lat="42.421848344674274" lon="11.864438183095585"><ele>193.66666666666669</ele><time>2026-04-03T15:37:31.999Z</time></trkpt><trkpt lat="42.4219118786959" lon="11.864224679500843"><ele>194.0</ele><time>2026-04-03T15:37:32.999Z</time></trkpt><trkpt lat="42.42198539449354" lon="11.864003180155484"><ele>193.33333333333334</ele><time>2026-04-03T15:37:33.999Z</time></trkpt><trkpt lat="42.42206222627888" lon="11.863779218630063"><ele>192.66666666666669</ele><time>2026-04-03T15:37:34.999Z</time></trkpt><trkpt lat="42.42213053625894" lon="11.863568193679018"><ele>192.0</ele><time>2026-04-03T15:37:35.999Z</time></trkpt><trkpt lat="42.42219887030891" lon="11.863367812698074"><ele>190.33333333333334</ele><time>2026-04-03T15:37:36.999Z</time></trkpt><trkpt lat="42.42228034506745" lon="11.863169320813068"><ele>188.66666666666669</ele><time>2026-04-03T15:37:37.999Z</time></trkpt><trkpt lat="42.42236971575447" lon="11.862963986131096"><ele>187.0</ele><time>2026-04-03T15:37:38.999Z</time></trkpt><trkpt lat="42.4224596766287" lon="11.862753519444144"><ele>185.66666666666669</ele><time>2026-04-03T15:37:39.999Z</time></trkpt><trkpt lat="42.4225455708693" lon="11.862529772851573"><ele>184.33333333333334</ele><time>2026-04-03T15:37:40.999Z</time></trkpt><trkpt lat="42.422627599258554" lon="11.862300135394523"><ele>183.0</ele><time>2026-04-03T15:37:41.999Z</time></trkpt><trkpt lat="42.42270312860807" lon="11.86207803293323"><ele>183.0</ele><time>2026-04-03T15:37:42.999Z</time></trkpt><trkpt lat="42.42277257054589" lon="11.861868013011616"><ele>183.0</ele><time>2026-04-03T15:37:43.999Z</time></trkpt><trkpt lat="42.42283807993122" lon="11.861672920807381"><ele>183.0</ele><time>2026-04-03T15:37:44.999Z</time></trkpt><trkpt lat="42.422901854774416" lon="11.861489584354626"><ele>183.0</ele><time>2026-04-03T15:37:45.999Z</time></trkpt><trkpt lat="42.422964147601554" lon="11.861303591370907"><ele>183.0</ele><time>2026-04-03T15:37:46.999Z</time></trkpt><trkpt lat="42.423040357435816" lon="11.8611184848274"><ele>183.0</ele><time>2026-04-03T15:37:47.999Z</time></trkpt><trkpt lat="42.42315051563881" lon="11.86094783286484"><ele>183.0</ele><time>2026-04-03T15:37:48.999Z</time></trkpt><trkpt lat="42.42327627865879" lon="11.860792940925258"><ele>183.0</ele><time>2026-04-03T15:37:49.999Z</time></trkpt><trkpt lat="42.42340273702915" lon="11.86063748737595"><ele>183.0</ele><time>2026-04-03T15:37:50.999Z</time></trkpt><trkpt lat="42.42353392082071" lon="11.860478922559226"><ele>183.0</ele><time>2026-04-03T15:37:51.999Z</time></trkpt><trkpt lat="42.42366134487941" lon="11.860317328731147"><ele>183.0</ele><time>2026-04-03T15:37:52.999Z</time></trkpt><trkpt lat="42.42377886494862" lon="11.860144138519534"><ele>183.0</ele><time>2026-04-03T15:37:53.999Z</time></trkpt><trkpt lat="42.42387239755559" lon="11.859962622209704"><ele>184.0</ele><time>2026-04-03T15:37:54.999Z</time></trkpt><trkpt lat="42.42394903002764" lon="11.859772556898482"><ele>185.0</ele><time>2026-04-03T15:37:55.999Z</time></trkpt><trkpt lat="42.4240320364044" lon="11.859590238172883"><ele>186.0</ele><time>2026-04-03T15:37:56.999Z</time></trkpt><trkpt lat="42.424157102187365" lon="11.859442077999304"><ele>186.0</ele><time>2026-04-03T15:37:57.999Z</time></trkpt><trkpt lat="42.42429412752424" lon="11.859295051181276"><ele>186.0</ele><time>2026-04-03T15:37:58.999Z</time></trkpt><trkpt lat="42.42444209930867" lon="11.859136798967919"><ele>186.0</ele><time>2026-04-03T15:37:59.999Z</time></trkpt><trkpt lat="42.42459464999929" lon="11.858970617983369"><ele>186.33333333333334</ele><time>2026-04-03T15:38:00.999Z</time></trkpt><trkpt lat="42.42475185907445" lon="11.85882127566472"><ele>186.66666666666669</ele><time>2026-04-03T15:38:01.999Z</time></trkpt><trkpt lat="42.42490511540994" lon="11.858689912935544"><ele>187.0</ele><time>2026-04-03T15:38:02.999Z</time></trkpt><trkpt lat="42.42505757811593" lon="11.858559248629986"><ele>187.0</ele><time>2026-04-03T15:38:03.999Z</time></trkpt><trkpt lat="42.425210542904836" lon="11.858407393486964"><ele>187.0</ele><time>2026-04-03T15:38:04.999Z</time></trkpt><trkpt lat="42.4253596090526" lon="11.858220805168601"><ele>187.0</ele><time>2026-04-03T15:38:05.999Z</time></trkpt><trkpt lat="42.42551115459078" lon="11.858029676629684"><ele>187.0</ele><time>2026-04-03T15:38:06.999Z</time></trkpt><trkpt lat="42.42566049807426" lon="11.857838847014763"><ele>187.0</ele><time>2026-04-03T15:38:07.999Z</time></trkpt><trkpt lat="42.42581861755341" lon="11.857640642879565"><ele>187.0</ele><time>2026-04-03T15:38:08.999Z</time></trkpt><trkpt lat="42.425973654910486" lon="11.857459370498054"><ele>187.0</ele><time>2026-04-03T15:38:09.999Z</time></trkpt><trkpt lat="42.426132879673744" lon="11.857295465726054"><ele>187.0</ele><time>2026-04-03T15:38:10.999Z</time></trkpt><trkpt lat="42.42631129983904" lon="11.857160619479126"><ele>187.0</ele><time>2026-04-03T15:38:11.999Z</time></trkpt><trkpt lat="42.42651180644013" lon="11.857057750930796"><ele>186.0</ele><time>2026-04-03T15:38:12.999Z</time></trkpt><trkpt lat="42.42672004268187" lon="11.856982270726288"><ele>185.0</ele><time>2026-04-03T15:38:13.999Z</time></trkpt><trkpt lat="42.42692780355181" lon="11.856905934738313"><ele>184.0</ele><time>2026-04-03T15:38:14.999Z</time></trkpt><trkpt lat="42.4271283873445" lon="11.856826728487874"><ele>185.0</ele><time>2026-04-03T15:38:15.999Z</time></trkpt><trkpt lat="42.42732728380658" lon="11.856746617105667"><ele>186.0</ele><time>2026-04-03T15:38:16.999Z</time></trkpt><trkpt lat="42.427509391664515" lon="11.856656490618404"><ele>187.0</ele><time>2026-04-03T15:38:17.999Z</time></trkpt><trkpt lat="42.42768487075766" lon="11.856539723001454"><ele>187.0</ele><time>2026-04-03T15:38:18.999Z</time></trkpt><trkpt lat="42.42785463936668" lon="11.856393707172728"><ele>187.0</ele><time>2026-04-03T15:38:19.999Z</time></trkpt><trkpt lat="42.42801348904505" lon="11.856207760412321"><ele>187.0</ele><time>2026-04-03T15:38:20.999Z</time></trkpt><trkpt lat="42.42817335737439" lon="11.856012985973035"><ele>187.66666666666669</ele><time>2026-04-03T15:38:21.999Z</time></trkpt><trkpt lat="42.42833909487873" lon="11.85582481847915"><ele>188.33333333333334</ele><time>2026-04-03T15:38:22.999Z</time></trkpt><trkpt lat="42.428498676696535" lon="11.855625330406895"><ele>189.0</ele><time>2026-04-03T15:38:23.999Z</time></trkpt><trkpt lat="42.42865581615193" lon="11.855428824375704"><ele>190.0</ele><time>2026-04-03T15:38:24.999Z</time></trkpt><trkpt lat="42.42881608886335" lon="11.855231860621101"><ele>191.0</ele><time>2026-04-03T15:38:25.999Z</time></trkpt><trkpt lat="42.42897252225505" lon="11.855035350892944"><ele>192.0</ele><time>2026-04-03T15:38:26.999Z</time></trkpt><trkpt lat="42.429126032334075" lon="11.854845787047507"><ele>192.33333333333331</ele><time>2026-04-03T15:38:27.999Z</time></trkpt><trkpt lat="42.42927430468617" lon="11.854659156622878"><ele>192.66666666666666</ele><time>2026-04-03T15:38:29Z</time></trkpt><trkpt lat="42.42941759957625" lon="11.854482755083351"><ele>193.0</ele><time>2026-04-03T15:38:30Z</time></trkpt><trkpt lat="42.429585530554576" lon="11.854307441606748"><ele>193.66666666666666</ele><time>2026-04-03T15:38:31Z</time></trkpt><trkpt lat="42.42976732446199" lon="11.854134267921225"><ele>194.33333333333331</ele><time>2026-04-03T15:38:32Z</time></trkpt><trkpt lat="42.42995106313376" lon="11.853965213266862"><ele>195.0</ele><time>2026-04-03T15:38:33Z</time></trkpt><trkpt lat="42.43013563323724" lon="11.853794412897713"><ele>195.0</ele><time>2026-04-03T15:38:34Z</time></trkpt><trkpt lat="42.43032186202294" lon="11.853624869438997"><ele>195.0</ele><time>2026-04-03T15:38:35Z</time></trkpt><trkpt lat="42.43051083881791" lon="11.853453327452522"><ele>195.0</ele><time>2026-04-03T15:38:36Z</time></trkpt><trkpt lat="42.43070109941844" lon="11.853281916826345"><ele>195.0</ele><time>2026-04-03T15:38:37Z</time></trkpt><trkpt lat="42.43089100555072" lon="11.853105500301913"><ele>195.0</ele><time>2026-04-03T15:38:38Z</time></trkpt><trkpt lat="42.43108097615622" lon="11.852934649132203"><ele>195.0</ele><time>2026-04-03T15:38:39Z</time></trkpt><trkpt lat="42.43127095232494" lon="11.852764619703915"><ele>198.0</ele><time>2026-04-03T15:38:40Z</time></trkpt><trkpt lat="42.431461110740756" lon="11.852593219196727"><ele>201.0</ele><time>2026-04-03T15:38:41Z</time></trkpt><trkpt lat="42.43164962874459" lon="11.852421065799648"><ele>201.0</ele><time>2026-04-03T15:38:42Z</time></trkpt><trkpt lat="42.43183605149046" lon="11.852249675302446"><ele>201.0</ele><time>2026-04-03T15:38:43Z</time></trkpt><trkpt lat="42.43202078538872" lon="11.852078946820999"><ele>201.0</ele><time>2026-04-03T15:38:44Z</time></trkpt><trkpt lat="42.432201819159744" lon="11.851911548098341"><ele>202.33333333333331</ele><time>2026-04-03T15:38:45Z</time></trkpt><trkpt lat="42.432380866965474" lon="11.85174181677524"><ele>203.66666666666666</ele><time>2026-04-03T15:38:46Z</time></trkpt><trkpt lat="42.43256494734382" lon="11.85157319627242"><ele>205.0</ele><time>2026-04-03T15:38:47Z</time></trkpt><trkpt lat="42.432754182620144" lon="11.851401893621402"><ele>205.0</ele><time>2026-04-03T15:38:48Z</time></trkpt><trkpt lat="42.4329453072961" lon="11.851228094713642"><ele>205.0</ele><time>2026-04-03T15:38:49Z</time></trkpt><trkpt lat="42.433137876527724" lon="11.851052710237884"><ele>206.0</ele><time>2026-04-03T15:38:50Z</time></trkpt><trkpt lat="42.43332926304372" lon="11.850870129874668"><ele>207.0</ele><time>2026-04-03T15:38:51Z</time></trkpt><trkpt lat="42.43352563820841" lon="11.850689937750204"><ele>207.0</ele><time>2026-04-03T15:38:52Z</time></trkpt><trkpt lat="42.433719788632125" lon="11.850506293665774"><ele>207.0</ele><time>2026-04-03T15:38:53Z</time></trkpt><trkpt lat="42.4339154720398" lon="11.850325747469196"><ele>207.0</ele><time>2026-04-03T15:38:54Z</time></trkpt><trkpt lat="42.43411026177091" lon="11.850145614613261"><ele>207.0</ele><time>2026-04-03T15:38:55Z</time></trkpt><trkpt lat="42.43430457548381" lon="11.849966680495303"><ele>207.0</ele><time>2026-04-03T15:38:56Z</time></trkpt><trkpt lat="42.43449725579538" lon="11.849789457514929"><ele>207.0</ele><time>2026-04-03T15:38:57Z</time></trkpt><trkpt lat="42.43469147297561" lon="11.849611854952439"><ele>208.0</ele><time>2026-04-03T15:38:58Z</time></trkpt><trkpt lat="42.43488583232168" lon="11.849433005506913"><ele>209.0</ele><time>2026-04-03T15:38:59Z</time></trkpt><trkpt lat="42.435078922094576" lon="11.849253876457816"><ele>207.0</ele><time>2026-04-03T15:39:00Z</time></trkpt><trkpt lat="42.43527015612054" lon="11.849075400153598"><ele>205.0</ele><time>2026-04-03T15:39:01Z</time></trkpt><trkpt lat="42.43546235748605" lon="11.848897826118202"><ele>205.0</ele><time>2026-04-03T15:39:02Z</time></trkpt><trkpt lat="42.43565309486254" lon="11.848718813168206"><ele>205.0</ele><time>2026-04-03T15:39:03Z</time></trkpt><trkpt lat="42.43584517335661" lon="11.848543093311239"><ele>205.0</ele><time>2026-04-03T15:39:04Z</time></trkpt><trkpt lat="42.436037164293964" lon="11.8483710669358"><ele>205.0</ele><time>2026-04-03T15:39:05Z</time></trkpt><trkpt lat="42.43622804541613" lon="11.848193965658744"><ele>205.5</ele><time>2026-04-03T15:39:06Z</time></trkpt><trkpt lat="42.43641675666566" lon="11.848019755190045"><ele>206.0</ele><time>2026-04-03T15:39:07Z</time></trkpt><trkpt lat="42.43660714350913" lon="11.84784605416232"><ele>206.0</ele><time>2026-04-03T15:39:08Z</time></trkpt><trkpt lat="42.436789332094854" lon="11.847676497057579"><ele>206.0</ele><time>2026-04-03T15:39:09Z</time></trkpt><trkpt lat="42.43696189215259" lon="11.847516993358632"><ele>206.0</ele><time>2026-04-03T15:39:10Z</time></trkpt><trkpt lat="42.43713370371414" lon="11.84735191705493"><ele>205.66666666666669</ele><time>2026-04-03T15:39:11Z</time></trkpt><trkpt lat="42.437305171994815" lon="11.847172211847239"><ele>205.33333333333331</ele><time>2026-04-03T15:39:12Z</time></trkpt><trkpt lat="42.43746857541251" lon="11.846977015315273"><ele>205.0</ele><time>2026-04-03T15:39:13Z</time></trkpt><trkpt lat="42.437625818184" lon="11.846756415228183"><ele>205.0</ele><time>2026-04-03T15:39:14Z</time></trkpt><trkpt lat="42.4377774992404" lon="11.846512006326718"><ele>205.0</ele><time>2026-04-03T15:39:15Z</time></trkpt><trkpt lat="42.43794166821031" lon="11.84625918212154"><ele>205.5</ele><time>2026-04-03T15:39:16Z</time></trkpt><trkpt lat="42.438110929347204" lon="11.846006532718174"><ele>206.0</ele><time>2026-04-03T15:39:17Z</time></trkpt><trkpt lat="42.43827691305001" lon="11.845742863504388"><ele>207.0</ele><time>2026-04-03T15:39:18Z</time></trkpt><trkpt lat="42.43844179211358" lon="11.845476828776594"><ele>208.0</ele><time>2026-04-03T15:39:19Z</time></trkpt><trkpt lat="42.43860497339652" lon="11.845209546829976"><ele>208.0</ele><time>2026-04-03T15:39:20Z</time></trkpt><trkpt lat="42.43876729810978" lon="11.844939916891269"><ele>208.0</ele><time>2026-04-03T15:39:21Z</time></trkpt><trkpt lat="42.43893555621898" lon="11.84467181103163"><ele>212.5</ele><time>2026-04-03T15:39:22Z</time></trkpt><trkpt lat="42.43910490082214" lon="11.844407669925545"><ele>217.0</ele><time>2026-04-03T15:39:23Z</time></trkpt><trkpt lat="42.43926833865288" lon="11.844149689053191"><ele>218.5</ele><time>2026-04-03T15:39:24Z</time></trkpt><trkpt lat="42.43942703000852" lon="11.843898588352332"><ele>220.0</ele><time>2026-04-03T15:39:25Z</time></trkpt><trkpt lat="42.43958531489412" lon="11.843641041263734"><ele>223.5</ele><time>2026-04-03T15:39:26Z</time></trkpt><trkpt lat="42.43974777713948" lon="11.8433772695307"><ele>227.0</ele><time>2026-04-03T15:39:27Z</time></trkpt><trkpt lat="42.43991274062049" lon="11.8431077165027"><ele>227.0</ele><time>2026-04-03T15:39:28Z</time></trkpt><trkpt lat="42.44008168837142" lon="11.842843884450595"><ele>227.0</ele><time>2026-04-03T15:39:29Z</time></trkpt><trkpt lat="42.44024634127263" lon="11.842586539614572"><ele>226.0</ele><time>2026-04-03T15:39:29.999Z</time></trkpt><trkpt lat="42.440412625987875" lon="11.842330266767684"><ele>225.0</ele><time>2026-04-03T15:39:30.999Z</time></trkpt><trkpt lat="42.44057775275424" lon="11.842062078314187"><ele>226.0</ele><time>2026-04-03T15:39:31.999Z</time></trkpt><trkpt lat="42.440745556831764" lon="11.84179350180293"><ele>227.0</ele><time>2026-04-03T15:39:32.999Z</time></trkpt><trkpt lat="42.44090977667943" lon="11.841528264717894"><ele>227.0</ele><time>2026-04-03T15:39:33.999Z</time></trkpt><trkpt lat="42.441068426715134" lon="11.841269310736811"><ele>227.0</ele><time>2026-04-03T15:39:34.999Z</time></trkpt><trkpt lat="42.441220416048054" lon="11.84101530839155"><ele>232.5</ele><time>2026-04-03T15:39:35.999Z</time></trkpt><trkpt lat="42.44136350964835" lon="11.840762946487917"><ele>238.0</ele><time>2026-04-03T15:39:36.999Z</time></trkpt><trkpt lat="42.441528075258134" lon="11.840520321170969"><ele>238.0</ele><time>2026-04-03T15:39:37.999Z</time></trkpt><trkpt lat="42.44167729996311" lon="11.84027148151646"><ele>238.0</ele><time>2026-04-03T15:39:38.999Z</time></trkpt><trkpt lat="42.44181763752665" lon="11.840024290986456"><ele>238.33333333333331</ele><time>2026-04-03T15:39:39.999Z</time></trkpt><trkpt lat="42.441951242212824" lon="11.839780257623666"><ele>238.66666666666669</ele><time>2026-04-03T15:39:40.999Z</time></trkpt><trkpt lat="42.44208240447875" lon="11.839540615781704"><ele>239.0</ele><time>2026-04-03T15:39:41.999Z</time></trkpt><trkpt lat="42.442211669022946" lon="11.83930859026909"><ele>240.0</ele><time>2026-04-03T15:39:42.999Z</time></trkpt><trkpt lat="42.44234996411953" lon="11.839083068216105"><ele>241.0</ele><time>2026-04-03T15:39:43.999Z</time></trkpt><trkpt lat="42.442520177366504" lon="11.838845050177788"><ele>241.0</ele><time>2026-04-03T15:39:44.999Z</time></trkpt><trkpt lat="42.442700523874024" lon="11.838592562993044"><ele>241.0</ele><time>2026-04-03T15:39:45.999Z</time></trkpt><trkpt lat="42.442859926593854" lon="11.838358178605977"><ele>237.0</ele><time>2026-04-03T15:39:46.999Z</time></trkpt><trkpt lat="42.44301461570856" lon="11.838128061424658"><ele>233.0</ele><time>2026-04-03T15:39:47.999Z</time></trkpt><trkpt lat="42.443176712802625" lon="11.837903590407691"><ele>233.0</ele><time>2026-04-03T15:39:48.999Z</time></trkpt><trkpt lat="42.443335349263386" lon="11.837676282992724"><ele>233.0</ele><time>2026-04-03T15:39:49.999Z</time></trkpt><trkpt lat="42.4434766632367" lon="11.837445697668954"><ele>232.0</ele><time>2026-04-03T15:39:50.999Z</time></trkpt><trkpt lat="42.44362398399831" lon="11.83721852902648"><ele>231.0</ele><time>2026-04-03T15:39:51.999Z</time></trkpt><trkpt lat="42.443768901090046" lon="11.837003115625372"><ele>230.0</ele><time>2026-04-03T15:39:52.999Z</time></trkpt><trkpt lat="42.443936924267085" lon="11.836827277428126"><ele>231.66666666666669</ele><time>2026-04-03T15:39:53.999Z</time></trkpt><trkpt lat="42.44411262777662" lon="11.83666600901246"><ele>233.33333333333331</ele><time>2026-04-03T15:39:54.999Z</time></trkpt><trkpt lat="42.44429369311122" lon="11.836524107461479"><ele>235.0</ele><time>2026-04-03T15:39:55.999Z</time></trkpt><trkpt lat="42.444476122718356" lon="11.836401336368906"><ele>232.0</ele><time>2026-04-03T15:39:56.999Z</time></trkpt><trkpt lat="42.44466919822487" lon="11.836307311304473"><ele>229.0</ele><time>2026-04-03T15:39:57.999Z</time></trkpt><trkpt lat="42.444878923801255" lon="11.836241668239037"><ele>226.0</ele><time>2026-04-03T15:39:58.999Z</time></trkpt><trkpt lat="42.44508482998062" lon="11.836194974794283"><ele>226.0</ele><time>2026-04-03T15:39:59.999Z</time></trkpt><trkpt lat="42.44529671357002" lon="11.836151388217372"><ele>226.0</ele><time>2026-04-03T15:40:00.999Z</time></trkpt><trkpt lat="42.44551678614567" lon="11.836123050414235"><ele>226.0</ele><time>2026-04-03T15:40:01.999Z</time></trkpt><trkpt lat="42.44573198457793" lon="11.836110704798564"><ele>222.66666666666666</ele><time>2026-04-03T15:40:02.999Z</time></trkpt><trkpt lat="42.445953166361946" lon="11.836102297275625"><ele>219.33333333333331</ele><time>2026-04-03T15:40:03.999Z</time></trkpt><trkpt lat="42.446178271337004" lon="11.836083949559443"><ele>216.0</ele><time>2026-04-03T15:40:04.999Z</time></trkpt><trkpt lat="42.44641675648094" lon="11.836065766851078"><ele>216.0</ele><time>2026-04-03T15:40:05.999Z</time></trkpt><trkpt lat="42.446661184212715" lon="11.836040624436276"><ele>216.0</ele><time>2026-04-03T15:40:06.999Z</time></trkpt><trkpt lat="42.44690757575863" lon="11.836022420966238"><ele>220.0</ele><time>2026-04-03T15:40:07.999Z</time></trkpt><trkpt lat="42.44715784145369" lon="11.836002888348963"><ele>224.0</ele><time>2026-04-03T15:40:08.999Z</time></trkpt><trkpt lat="42.44739329661579" lon="11.83598451170596"><ele>224.0</ele><time>2026-04-03T15:40:09.999Z</time></trkpt><trkpt lat="42.44761691776307" lon="11.83596787863209"><ele>224.0</ele><time>2026-04-03T15:40:10.999Z</time></trkpt><trkpt lat="42.447837087060805" lon="11.835939134162288"><ele>224.0</ele><time>2026-04-03T15:40:11.999Z</time></trkpt><trkpt lat="42.44797805623869" lon="11.83595043777746"><ele>224.33333333333334</ele><time>2026-04-03T15:40:12.999Z</time></trkpt><trkpt lat="42.44818775945686" lon="11.835934921155085"><ele>224.66666666666669</ele><time>2026-04-03T15:40:13.999Z</time></trkpt><trkpt lat="42.44841188478004" lon="11.835919186994726"><ele>225.0</ele><time>2026-04-03T15:40:14.999Z</time></trkpt><trkpt lat="42.44864780184249" lon="11.835900386053558"><ele>226.5</ele><time>2026-04-03T15:40:15.999Z</time></trkpt><trkpt lat="42.4488855749337" lon="11.835880561630216"><ele>228.0</ele><time>2026-04-03T15:40:16.999Z</time></trkpt><trkpt lat="42.44911590421535" lon="11.835864674425448"><ele>228.0</ele><time>2026-04-03T15:40:17.999Z</time></trkpt><trkpt lat="42.449339496631126" lon="11.83583678921893"><ele>228.0</ele><time>2026-04-03T15:40:18.999Z</time></trkpt><trkpt lat="42.44955667954734" lon="11.835754849880916"><ele>230.0</ele><time>2026-04-03T15:40:19.999Z</time></trkpt><trkpt lat="42.44976166017301" lon="11.835640364314143"><ele>232.0</ele><time>2026-04-03T15:40:20.999Z</time></trkpt><trkpt lat="42.44996863019207" lon="11.8355555111655"><ele>234.0</ele><time>2026-04-03T15:40:21.999Z</time></trkpt><trkpt lat="42.45016130417787" lon="11.83547861411946"><ele>234.0</ele><time>2026-04-03T15:40:22.999Z</time></trkpt><trkpt lat="42.450333777608805" lon="11.835404987351044"><ele>234.0</ele><time>2026-04-03T15:40:23.999Z</time></trkpt><trkpt lat="42.450491174639936" lon="11.835331683141899"><ele>234.0</ele><time>2026-04-03T15:40:24.999Z</time></trkpt><trkpt lat="42.450653060888996" lon="11.835262170800773"><ele>237.33333333333331</ele><time>2026-04-03T15:40:25.999Z</time></trkpt><trkpt lat="42.45081521957106" lon="11.83520384737462"><ele>240.66666666666666</ele><time>2026-04-03T15:40:26.999Z</time></trkpt><trkpt lat="42.450975601287574" lon="11.835138110534665"><ele>244.0</ele><time>2026-04-03T15:40:27.999Z</time></trkpt><trkpt lat="42.4511549295286" lon="11.835067448045127"><ele>245.33333333333331</ele><time>2026-04-03T15:40:28.999Z</time></trkpt><trkpt lat="42.45133346250827" lon="11.835005499395141"><ele>246.66666666666669</ele><time>2026-04-03T15:40:29.999Z</time></trkpt><trkpt lat="42.45149189193097" lon="11.834957325739046"><ele>248.0</ele><time>2026-04-03T15:40:30.999Z</time></trkpt><trkpt lat="42.45164494923841" lon="11.834990364838303"><ele>248.0</ele><time>2026-04-03T15:40:31.999Z</time></trkpt><trkpt lat="42.45181179183261" lon="11.83504820043176"><ele>248.0</ele><time>2026-04-03T15:40:32.999Z</time></trkpt><trkpt lat="42.451973192111886" lon="11.835147518139118"><ele>248.0</ele><time>2026-04-03T15:40:33.999Z</time></trkpt><trkpt lat="42.452129320719955" lon="11.83522892102179"><ele>248.0</ele><time>2026-04-03T15:40:35Z</time></trkpt><trkpt lat="42.45226060037471" lon="11.835316444515472"><ele>248.0</ele><time>2026-04-03T15:40:36Z</time></trkpt><trkpt lat="42.452392778432404" lon="11.835365376202478"><ele>248.0</ele><time>2026-04-03T15:40:37Z</time></trkpt><trkpt lat="42.452545912240026" lon="11.83534478455627"><ele>248.0</ele><time>2026-04-03T15:40:38Z</time></trkpt><trkpt lat="42.45269805612563" lon="11.835279313117937"><ele>248.0</ele><time>2026-04-03T15:40:39Z</time></trkpt><trkpt lat="42.45283557629243" lon="11.835169084274177"><ele>248.0</ele><time>2026-04-03T15:40:40Z</time></trkpt><trkpt lat="42.45293581824082" lon="11.834978812997273"><ele>248.0</ele><time>2026-04-03T15:40:41Z</time></trkpt><trkpt lat="42.45302254478027" lon="11.834738886900018"><ele>247.5</ele><time>2026-04-03T15:40:42Z</time></trkpt><trkpt lat="42.45303423713406" lon="11.834392621198049"><ele>247.0</ele><time>2026-04-03T15:40:43Z</time></trkpt><trkpt lat="42.45301864305577" lon="11.834123460716178"><ele>247.66666666666666</ele><time>2026-04-03T15:40:44Z</time></trkpt><trkpt lat="42.453026742719" lon="11.833889008610512"><ele>248.33333333333331</ele><time>2026-04-03T15:40:45Z</time></trkpt><trkpt lat="42.453076736965286" lon="11.833708259303103"><ele>249.0</ele><time>2026-04-03T15:40:46Z</time></trkpt><trkpt lat="42.4531714865265" lon="11.833535205348467"><ele>249.0</ele><time>2026-04-03T15:40:47Z</time></trkpt><trkpt lat="42.45328377011946" lon="11.833388060206472"><ele>249.0</ele><time>2026-04-03T15:40:48Z</time></trkpt><trkpt lat="42.45340004194019" lon="11.833283715887543"><ele>249.0</ele><time>2026-04-03T15:40:49Z</time></trkpt><trkpt lat="42.45352735374444" lon="11.833192925315949"><ele>249.0</ele><time>2026-04-03T15:40:50Z</time></trkpt><trkpt lat="42.45366875939918" lon="11.833154388867499"><ele>251.0</ele><time>2026-04-03T15:40:51Z</time></trkpt><trkpt lat="42.45382134342118" lon="11.833172928701504"><ele>253.0</ele><time>2026-04-03T15:40:52Z</time></trkpt><trkpt lat="42.45397648717183" lon="11.833234108232867"><ele>255.0</ele><time>2026-04-03T15:40:53Z</time></trkpt><trkpt lat="42.454132660488206" lon="11.833311913578822"><ele>255.0</ele><time>2026-04-03T15:40:54Z</time></trkpt><trkpt lat="42.45429579575524" lon="11.833382241042086"><ele>255.0</ele><time>2026-04-03T15:40:55Z</time></trkpt><trkpt lat="42.454451127535236" lon="11.833458510309578"><ele>255.0</ele><time>2026-04-03T15:40:56Z</time></trkpt><trkpt lat="42.45460154589251" lon="11.833545083318489"><ele>254.66666666666669</ele><time>2026-04-03T15:40:57Z</time></trkpt><trkpt lat="42.45474735481547" lon="11.833652751434173"><ele>254.33333333333334</ele><time>2026-04-03T15:40:58Z</time></trkpt><trkpt lat="42.454867196201754" lon="11.8337855082936"><ele>254.0</ele><time>2026-04-03T15:40:59Z</time></trkpt><trkpt lat="42.4549796885589" lon="11.833916297527395"><ele>254.0</ele><time>2026-04-03T15:41:00Z</time></trkpt><trkpt lat="42.45511358906141" lon="11.83402318250994"><ele>254.0</ele><time>2026-04-03T15:41:01Z</time></trkpt><trkpt lat="42.45528112761952" lon="11.834054720719838"><ele>254.0</ele><time>2026-04-03T15:41:02Z</time></trkpt><trkpt lat="42.45546471163694" lon="11.834027898159302"><ele>252.33333333333334</ele><time>2026-04-03T15:41:03Z</time></trkpt><trkpt lat="42.4556633309228" lon="11.833989079900357"><ele>250.66666666666669</ele><time>2026-04-03T15:41:04Z</time></trkpt><trkpt lat="42.45586544402161" lon="11.833943663204622"><ele>249.0</ele><time>2026-04-03T15:41:05Z</time></trkpt><trkpt lat="42.456078225688834" lon="11.833902530357562"><ele>248.33333333333331</ele><time>2026-04-03T15:41:06Z</time></trkpt><trkpt lat="42.45628855411289" lon="11.83385399949222"><ele>247.66666666666666</ele><time>2026-04-03T15:41:07Z</time></trkpt><trkpt lat="42.456499631574644" lon="11.833810434873886"><ele>247.0</ele><time>2026-04-03T15:41:08Z</time></trkpt><trkpt lat="42.45669852756071" lon="11.833770347927896"><ele>247.0</ele><time>2026-04-03T15:41:09Z</time></trkpt><trkpt lat="42.4568952177057" lon="11.833732543926962"><ele>247.0</ele><time>2026-04-03T15:41:10Z</time></trkpt><trkpt lat="42.45707846717769" lon="11.833691838434744"><ele>247.0</ele><time>2026-04-03T15:41:11Z</time></trkpt><trkpt lat="42.45727174952337" lon="11.833640832774075"><ele>248.66666666666666</ele><time>2026-04-03T15:41:12Z</time></trkpt><trkpt lat="42.45745849532371" lon="11.833577534381932"><ele>250.33333333333331</ele><time>2026-04-03T15:41:13Z</time></trkpt><trkpt lat="42.457633058676876" lon="11.833508722568173"><ele>252.0</ele><time>2026-04-03T15:41:14Z</time></trkpt><trkpt lat="42.457807220879594" lon="11.833434995102316"><ele>244.33333333333331</ele><time>2026-04-03T15:41:15Z</time></trkpt><trkpt lat="42.45797839999235" lon="11.833371492280381"><ele>236.66666666666666</ele><time>2026-04-03T15:41:16Z</time></trkpt><trkpt lat="42.458140386956835" lon="11.833313100249262"><ele>229.0</ele><time>2026-04-03T15:41:17Z</time></trkpt><trkpt lat="42.45828583433203" lon="11.833254782276475"><ele>229.0</ele><time>2026-04-03T15:41:18Z</time></trkpt><trkpt lat="42.45842278419566" lon="11.833200557735909"><ele>229.0</ele><time>2026-04-03T15:41:19Z</time></trkpt><trkpt lat="42.458546900000464" lon="11.833138162122673"><ele>229.0</ele><time>2026-04-03T15:41:20Z</time></trkpt><trkpt lat="42.45865070223" lon="11.833074789634054"><ele>229.0</ele><time>2026-04-03T15:41:21Z</time></trkpt><trkpt lat="42.45873718256327" lon="11.832974653559566"><ele>229.0</ele><time>2026-04-03T15:41:22Z</time></trkpt><trkpt lat="42.458778812508754" lon="11.832830303912804"><ele>229.0</ele><time>2026-04-03T15:41:23Z</time></trkpt><trkpt lat="42.458771528941035" lon="11.832664479486919"><ele>229.0</ele><time>2026-04-03T15:41:24Z</time></trkpt><trkpt lat="42.45870245254678" lon="11.8324861381772"><ele>229.0</ele><time>2026-04-03T15:41:25Z</time></trkpt><trkpt lat="42.4585825744909" lon="11.832317037464238"><ele>229.33333333333331</ele><time>2026-04-03T15:41:26Z</time></trkpt><trkpt lat="42.45845324666632" lon="11.832142602005712"><ele>229.66666666666669</ele><time>2026-04-03T15:41:27Z</time></trkpt><trkpt lat="42.45831740465657" lon="11.831957130976607"><ele>230.0</ele><time>2026-04-03T15:41:28Z</time></trkpt><trkpt lat="42.45816534788185" lon="11.831764316100816"><ele>230.33333333333334</ele><time>2026-04-03T15:41:29Z</time></trkpt><trkpt lat="42.45801179709761" lon="11.831568050419397"><ele>230.66666666666669</ele><time>2026-04-03T15:41:30Z</time></trkpt><trkpt lat="42.45785802370406" lon="11.8313748987879"><ele>231.0</ele><time>2026-04-03T15:41:31Z</time></trkpt><trkpt lat="42.457723004564656" lon="11.831200848874332"><ele>231.0</ele><time>2026-04-03T15:41:32Z</time></trkpt><trkpt lat="42.45759535588334" lon="11.831038093842011"><ele>231.0</ele><time>2026-04-03T15:41:33Z</time></trkpt><trkpt lat="42.45747309171246" lon="11.830884429642051"><ele>231.0</ele><time>2026-04-03T15:41:34Z</time></trkpt><trkpt lat="42.45734948928855" lon="11.830728798136146"><ele>231.0</ele><time>2026-04-03T15:41:35Z</time></trkpt><trkpt lat="42.45723654872673" lon="11.830566936813431"><ele>231.0</ele><time>2026-04-03T15:41:36Z</time></trkpt><trkpt lat="42.45713142012868" lon="11.830390892485148"><ele>231.0</ele><time>2026-04-03T15:41:37Z</time></trkpt><trkpt lat="42.457051221341025" lon="11.830204190843245"><ele>233.0</ele><time>2026-04-03T15:41:37.999Z</time></trkpt><trkpt lat="42.45697979214839" lon="11.830011296808737"><ele>235.0</ele><time>2026-04-03T15:41:38.999Z</time></trkpt><trkpt lat="42.45690857353436" lon="11.82980858699386"><ele>237.0</ele><time>2026-04-03T15:41:39.999Z</time></trkpt><trkpt lat="42.45685336217253" lon="11.829605988268094"><ele>237.0</ele><time>2026-04-03T15:41:40.999Z</time></trkpt><trkpt lat="42.45680415772292" lon="11.829420092675564"><ele>237.0</ele><time>2026-04-03T15:41:41.999Z</time></trkpt><trkpt lat="42.45679640960881" lon="11.829236208343588"><ele>237.0</ele><time>2026-04-03T15:41:42.999Z</time></trkpt><trkpt lat="42.4568218631073" lon="11.829051129154731"><ele>237.0</ele><time>2026-04-03T15:41:43.999Z</time></trkpt><trkpt lat="42.45689017733899" lon="11.82886588217835"><ele>239.0</ele><time>2026-04-03T15:41:44.999Z</time></trkpt><trkpt lat="42.45698803225592" lon="11.828711065814296"><ele>241.0</ele><time>2026-04-03T15:41:45.999Z</time></trkpt><trkpt lat="42.45712354867555" lon="11.828558145895604"><ele>243.0</ele><time>2026-04-03T15:41:46.999Z</time></trkpt><trkpt lat="42.457279242795124" lon="11.82843316851926"><ele>245.0</ele><time>2026-04-03T15:41:47.999Z</time></trkpt><trkpt lat="42.45746297556214" lon="11.828331037938618"><ele>247.0</ele><time>2026-04-03T15:41:48.999Z</time></trkpt><trkpt lat="42.45765707097437" lon="11.82820357407259"><ele>249.0</ele><time>2026-04-03T15:41:49.999Z</time></trkpt><trkpt lat="42.45785153964461" lon="11.828046609069103"><ele>249.5</ele><time>2026-04-03T15:41:50.999Z</time></trkpt><trkpt lat="42.45804759256322" lon="11.827884246290912"><ele>250.0</ele><time>2026-04-03T15:41:51.999Z</time></trkpt><trkpt lat="42.458241996390136" lon="11.827700115049815"><ele>250.0</ele><time>2026-04-03T15:41:52.999Z</time></trkpt><trkpt lat="42.45842806403235" lon="11.827529171838593"><ele>250.0</ele><time>2026-04-03T15:41:53.999Z</time></trkpt><trkpt lat="42.458603781113595" lon="11.827371713001241"><ele>250.0</ele><time>2026-04-03T15:41:54.999Z</time></trkpt><trkpt lat="42.45882046997205" lon="11.827235590356237"><ele>250.0</ele><time>2026-04-03T15:41:55.999Z</time></trkpt><trkpt lat="42.459026658070215" lon="11.82714910682988"><ele>250.0</ele><time>2026-04-03T15:41:56.999Z</time></trkpt><trkpt lat="42.45923246765585" lon="11.82708337065012"><ele>250.0</ele><time>2026-04-03T15:41:57.999Z</time></trkpt><trkpt lat="42.459416957155604" lon="11.826986993913966"><ele>250.0</ele><time>2026-04-03T15:41:58.999Z</time></trkpt><trkpt lat="42.45959548128008" lon="11.826898218976055"><ele>250.0</ele><time>2026-04-03T15:41:59.999Z</time></trkpt><trkpt lat="42.45978165279923" lon="11.826774050932725"><ele>250.0</ele><time>2026-04-03T15:42:00.999Z</time></trkpt><trkpt lat="42.4599519772484" lon="11.826616996665248"><ele>251.0</ele><time>2026-04-03T15:42:01.999Z</time></trkpt><trkpt lat="42.46010608780265" lon="11.826449571566762"><ele>252.0</ele><time>2026-04-03T15:42:02.999Z</time></trkpt><trkpt lat="42.460235893962405" lon="11.826286669001451"><ele>253.0</ele><time>2026-04-03T15:42:03.999Z</time></trkpt><trkpt lat="42.460373279046976" lon="11.826145212588486"><ele>254.0</ele><time>2026-04-03T15:42:04.999Z</time></trkpt><trkpt lat="42.46049946821623" lon="11.826014958159577"><ele>255.0</ele><time>2026-04-03T15:42:05.999Z</time></trkpt><trkpt lat="42.46064328054693" lon="11.825929138010167"><ele>256.0</ele><time>2026-04-03T15:42:06.999Z</time></trkpt><trkpt lat="42.46080361725481" lon="11.825930832602124"><ele>256.0</ele><time>2026-04-03T15:42:07.999Z</time></trkpt><trkpt lat="42.46098508159532" lon="11.825982568775562"><ele>256.0</ele><time>2026-04-03T15:42:08.999Z</time></trkpt><trkpt lat="42.46116206094801" lon="11.826053994912902"><ele>256.0</ele><time>2026-04-03T15:42:09.999Z</time></trkpt><trkpt lat="42.461337328349785" lon="11.826090291803347"><ele>256.0</ele><time>2026-04-03T15:42:10.999Z</time></trkpt><trkpt lat="42.461499576590185" lon="11.826106255244747"><ele>256.0</ele><time>2026-04-03T15:42:11.999Z</time></trkpt><trkpt lat="42.461656687809366" lon="11.826097653407077"><ele>256.0</ele><time>2026-04-03T15:42:12.999Z</time></trkpt><trkpt lat="42.46181857324113" lon="11.826092371936582"><ele>256.0</ele><time>2026-04-03T15:42:13.999Z</time></trkpt><trkpt lat="42.461981371399354" lon="11.826098808803483"><ele>256.0</ele><time>2026-04-03T15:42:14.999Z</time></trkpt><trkpt lat="42.46214411004617" lon="11.826129556491827"><ele>256.0</ele><time>2026-04-03T15:42:15.999Z</time></trkpt><trkpt lat="42.46231302785628" lon="11.826205801558267"><ele>253.0</ele><time>2026-04-03T15:42:16.999Z</time></trkpt><trkpt lat="42.46247046720256" lon="11.826315015856421"><ele>250.0</ele><time>2026-04-03T15:42:17.999Z</time></trkpt><trkpt lat="42.462632812272744" lon="11.826446653659398"><ele>247.0</ele><time>2026-04-03T15:42:18.999Z</time></trkpt><trkpt lat="42.46281227113232" lon="11.826580421457056"><ele>248.0</ele><time>2026-04-03T15:42:19.999Z</time></trkpt><trkpt lat="42.46299889151121" lon="11.826705864111966"><ele>249.0</ele><time>2026-04-03T15:42:20.999Z</time></trkpt><trkpt lat="42.46317118989571" lon="11.826807182601767"><ele>250.0</ele><time>2026-04-03T15:42:21.999Z</time></trkpt><trkpt lat="42.46333514084756" lon="11.826891509552185"><ele>250.0</ele><time>2026-04-03T15:42:22.999Z</time></trkpt><trkpt lat="42.46349019275991" lon="11.826976496439297"><ele>250.0</ele><time>2026-04-03T15:42:23.999Z</time></trkpt><trkpt lat="42.46362546934378" lon="11.827046313884644"><ele>250.0</ele><time>2026-04-03T15:42:24.999Z</time></trkpt><trkpt lat="42.46374995999784" lon="11.827076960688522"><ele>250.0</ele><time>2026-04-03T15:42:25.999Z</time></trkpt><trkpt lat="42.46386737682073" lon="11.82703870243459"><ele>249.5</ele><time>2026-04-03T15:42:26.999Z</time></trkpt><trkpt lat="42.46395317456107" lon="11.826939143995551"><ele>249.0</ele><time>2026-04-03T15:42:27.999Z</time></trkpt><trkpt lat="42.46396362648403" lon="11.826843601034426"><ele>248.5</ele><time>2026-04-03T15:42:29.999Z</time></trkpt><trkpt lat="42.463998377294956" lon="11.826628412638899"><ele>248.0</ele><time>2026-04-03T15:42:31.999Z</time></trkpt><trkpt lat="42.46400571624411" lon="11.826456890630816"><ele>246.8</ele><time>2026-04-03T15:42:32.999Z</time></trkpt><trkpt lat="42.46399842850781" lon="11.826283115147316"><ele>245.60000000000002</ele><time>2026-04-03T15:42:33.999Z</time></trkpt><trkpt lat="42.46400364468059" lon="11.82613248040547"><ele>244.39999999999998</ele><time>2026-04-03T15:42:34.999Z</time></trkpt><trkpt lat="42.46402900875146" lon="11.826012169847642"><ele>243.2</ele><time>2026-04-03T15:42:35.999Z</time></trkpt><trkpt lat="42.46409005509095" lon="11.825897927387022"><ele>242.0</ele><time>2026-04-03T15:42:36.999Z</time></trkpt><trkpt lat="42.46420865350852" lon="11.82582570821666"><ele>239.66666666666669</ele><time>2026-04-03T15:42:37.999Z</time></trkpt><trkpt lat="42.46438367484625" lon="11.825788526007718"><ele>237.33333333333331</ele><time>2026-04-03T15:42:38.999Z</time></trkpt><trkpt lat="42.46456486085021" lon="11.825744657035038"><ele>235.0</ele><time>2026-04-03T15:42:39.999Z</time></trkpt><trkpt lat="42.46475216485812" lon="11.82570558764839"><ele>235.0</ele><time>2026-04-03T15:42:41Z</time></trkpt><trkpt lat="42.46495032522926" lon="11.825678531574178"><ele>235.0</ele><time>2026-04-03T15:42:42Z</time></trkpt><trkpt lat="42.46514612283268" lon="11.82567512467136"><ele>235.0</ele><time>2026-04-03T15:42:43Z</time></trkpt><trkpt lat="42.465329400071646" lon="11.825684166257213"><ele>234.66666666666666</ele><time>2026-04-03T15:42:44Z</time></trkpt><trkpt lat="42.465495271502526" lon="11.825709168980364"><ele>234.33333333333331</ele><time>2026-04-03T15:42:45Z</time></trkpt><trkpt lat="42.46565287917588" lon="11.825732815051538"><ele>234.0</ele><time>2026-04-03T15:42:46Z</time></trkpt><trkpt lat="42.46579262977317" lon="11.825734509749514"><ele>234.0</ele><time>2026-04-03T15:42:47Z</time></trkpt><trkpt lat="42.465913791253065" lon="11.82572952002374"><ele>233.99999999999997</ele><time>2026-04-03T15:42:48Z</time></trkpt><trkpt lat="42.466007729266096" lon="11.825690949443361"><ele>233.99999999999997</ele><time>2026-04-03T15:42:49Z</time></trkpt><trkpt lat="42.46607629605683" lon="11.825604333703346"><ele>234.0</ele><time>2026-04-03T15:42:50Z</time></trkpt><trkpt lat="42.46612489663433" lon="11.825472079752226"><ele>234.0</ele><time>2026-04-03T15:42:51Z</time></trkpt><trkpt lat="42.46613006926528" lon="11.825300509816625"><ele>234.0</ele><time>2026-04-03T15:42:52Z</time></trkpt><trkpt lat="42.466107041983534" lon="11.825156459610472"><ele>234.0</ele><time>2026-04-03T15:42:53Z</time></trkpt><trkpt lat="42.46603462140944" lon="11.825005312641595"><ele>234.0</ele><time>2026-04-03T15:42:54Z</time></trkpt><trkpt lat="42.465926173869434" lon="11.824868622201652"><ele>234.0</ele><time>2026-04-03T15:42:55Z</time></trkpt><trkpt lat="42.46577978800555" lon="11.824783440211464"><ele>234.0</ele><time>2026-04-03T15:42:56Z</time></trkpt><trkpt lat="42.46561789335282" lon="11.824720684767271"><ele>234.0</ele><time>2026-04-03T15:42:57Z</time></trkpt><trkpt lat="42.465455103559904" lon="11.824645356425316"><ele>234.0</ele><time>2026-04-03T15:42:58Z</time></trkpt><trkpt lat="42.465289713914444" lon="11.824562536329946"><ele>234.0</ele><time>2026-04-03T15:42:59Z</time></trkpt><trkpt lat="42.465118507990795" lon="11.82450882739588"><ele>234.0</ele><time>2026-04-03T15:43:00Z</time></trkpt><trkpt lat="42.46494088171008" lon="11.824464032602238"><ele>234.0</ele><time>2026-04-03T15:43:01Z</time></trkpt><trkpt lat="42.46476026682958" lon="11.824420118301731"><ele>232.0</ele><time>2026-04-03T15:43:02Z</time></trkpt><trkpt lat="42.464573855027616" lon="11.824373387103376"><ele>230.0</ele><time>2026-04-03T15:43:03Z</time></trkpt><trkpt lat="42.46439703699556" lon="11.824324998098577"><ele>228.0</ele><time>2026-04-03T15:43:04Z</time></trkpt><trkpt lat="42.464227620799996" lon="11.824265816726555"><ele>235.33333333333331</ele><time>2026-04-03T15:43:05Z</time></trkpt><trkpt lat="42.464059128482646" lon="11.82422539697476"><ele>242.66666666666666</ele><time>2026-04-03T15:43:06Z</time></trkpt><trkpt lat="42.46389368627914" lon="11.824163214303972"><ele>250.0</ele><time>2026-04-03T15:43:07Z</time></trkpt><trkpt lat="42.46372025578144" lon="11.824088354936947"><ele>250.0</ele><time>2026-04-03T15:43:08Z</time></trkpt><trkpt lat="42.46355016462797" lon="11.824020672843908"><ele>250.0</ele><time>2026-04-03T15:43:09Z</time></trkpt><trkpt lat="42.463389574727884" lon="11.823998322946375"><ele>250.0</ele><time>2026-04-03T15:43:10Z</time></trkpt><trkpt lat="42.463247002258335" lon="11.823986340411404"><ele>250.0</ele><time>2026-04-03T15:43:11Z</time></trkpt><trkpt lat="42.46311799498493" lon="11.823974638729764"><ele>250.0</ele><time>2026-04-03T15:43:12Z</time></trkpt><trkpt lat="42.46300272437825" lon="11.823964635825885"><ele>250.0</ele><time>2026-04-03T15:43:13Z</time></trkpt><trkpt lat="42.46290055801617" lon="11.823950201754341"><ele>250.0</ele><time>2026-04-03T15:43:14Z</time></trkpt><trkpt lat="42.46281829820374" lon="11.823947253409512"><ele>250.0</ele><time>2026-04-03T15:43:15Z</time></trkpt><trkpt lat="42.462754916700604" lon="11.823911127324648"><ele>250.49999999999997</ele><time>2026-04-03T15:43:16Z</time></trkpt><trkpt lat="42.462703885677456" lon="11.823786668211373"><ele>251.0</ele><time>2026-04-03T15:43:18Z</time></trkpt><trkpt lat="42.46272756644106" lon="11.823660596776614"><ele>251.5</ele><time>2026-04-03T15:43:19Z</time></trkpt><trkpt lat="42.462744314579645" lon="11.823538806348546"><ele>252.0</ele><time>2026-04-03T15:43:20Z</time></trkpt><trkpt lat="42.462740221374325" lon="11.823448393902124"><ele>252.49999999999997</ele><time>2026-04-03T15:43:21Z</time></trkpt><trkpt lat="42.462759394743344" lon="11.823362576513478"><ele>253.0</ele><time>2026-04-03T15:43:22Z</time></trkpt><trkpt lat="42.462766395828346" lon="11.823275896156995"><ele>253.0</ele><time>2026-04-03T15:43:23Z</time></trkpt><trkpt lat="42.46282973211253" lon="11.823152460003374"><ele>253.0</ele><time>2026-04-03T15:43:25Z</time></trkpt><trkpt lat="42.462926355785555" lon="11.823147430162772"><ele>253.0</ele><time>2026-04-03T15:43:26Z</time></trkpt><trkpt lat="42.46302496772066" lon="11.823128630505314"><ele>253.0</ele><time>2026-04-03T15:43:27Z</time></trkpt><trkpt lat="42.46313589827151" lon="11.8231007093524"><ele>253.0</ele><time>2026-04-03T15:43:28Z</time></trkpt><trkpt lat="42.46323008565191" lon="11.823063643852093"><ele>254.66666666666666</ele><time>2026-04-03T15:43:29Z</time></trkpt><trkpt lat="42.46329503113447" lon="11.82302600879149"><ele>256.3333333333333</ele><time>2026-04-03T15:43:30Z</time></trkpt><trkpt lat="42.4633557926267" lon="11.822991174093158"><ele>258.0</ele><time>2026-04-03T15:43:31Z</time></trkpt><trkpt lat="42.46341422233547" lon="11.822933704126868"><ele>259.6666666666667</ele><time>2026-04-03T15:43:32Z</time></trkpt><trkpt lat="42.46346260712647" lon="11.822857887211072"><ele>261.33333333333337</ele><time>2026-04-03T15:43:33Z</time></trkpt><trkpt lat="42.46349975643985" lon="11.822758225403588"><ele>263.0</ele><time>2026-04-03T15:43:34Z</time></trkpt><trkpt lat="42.46353939762341" lon="11.822654305093547"><ele>262.33333333333337</ele><time>2026-04-03T15:43:35Z</time></trkpt><trkpt lat="42.46357748938249" lon="11.822538596951096"><ele>261.6666666666667</ele><time>2026-04-03T15:43:36Z</time></trkpt><trkpt lat="42.46361332474595" lon="11.822432846944391"><ele>261.0</ele><time>2026-04-03T15:43:37Z</time></trkpt><trkpt lat="42.46364010850112" lon="11.822329143991825"><ele>260.3333333333333</ele><time>2026-04-03T15:43:38Z</time></trkpt><trkpt lat="42.46367569665033" lon="11.822224403566763"><ele>259.66666666666663</ele><time>2026-04-03T15:43:39Z</time></trkpt><trkpt lat="42.46370874874772" lon="11.822113087803325"><ele>259.0</ele><time>2026-04-03T15:43:40Z</time></trkpt><trkpt lat="42.46372721616677" lon="11.821969680892549"><ele>258.2</ele><time>2026-04-03T15:43:41Z</time></trkpt><trkpt lat="42.4637340264636" lon="11.821813141483291"><ele>257.4</ele><time>2026-04-03T15:43:42Z</time></trkpt><trkpt lat="42.46373485948205" lon="11.821665247165525"><ele>256.6</ele><time>2026-04-03T15:43:43Z</time></trkpt><trkpt lat="42.463733821521814" lon="11.821526929282994"><ele>255.8</ele><time>2026-04-03T15:43:44Z</time></trkpt><trkpt lat="42.46373286910218" lon="11.821413824984658"><ele>255.0</ele><time>2026-04-03T15:43:45Z</time></trkpt><trkpt lat="42.463731999064024" lon="11.821307889305372"><ele>255.0</ele><time>2026-04-03T15:43:46Z</time></trkpt><trkpt lat="42.46372595524484" lon="11.821186547052914"><ele>255.0</ele><time>2026-04-03T15:43:47Z</time></trkpt><trkpt lat="42.46372032043906" lon="11.821070906002525"><ele>255.0</ele><time>2026-04-03T15:43:48Z</time></trkpt><trkpt lat="42.46371798737915" lon="11.820963754802461"><ele>255.0</ele><time>2026-04-03T15:43:49Z</time></trkpt><trkpt lat="42.463713473411666" lon="11.820853724929854"><ele>255.0</ele><time>2026-04-03T15:43:50Z</time></trkpt><trkpt lat="42.4637093604387" lon="11.820745488821288"><ele>255.0</ele><time>2026-04-03T15:43:51Z</time></trkpt><trkpt lat="42.46370711717925" lon="11.820640040031384"><ele>254.0</ele><time>2026-04-03T15:43:52Z</time></trkpt><trkpt lat="42.46370400708328" lon="11.82051983333208"><ele>253.0</ele><time>2026-04-03T15:43:52.999Z</time></trkpt><trkpt lat="42.46369979709152" lon="11.820385180501718"><ele>252.0</ele><time>2026-04-03T15:43:53.999Z</time></trkpt><trkpt lat="42.46369070160827" lon="11.82023485946648"><ele>251.0</ele><time>2026-04-03T15:43:54.999Z</time></trkpt><trkpt lat="42.46367894429166" lon="11.820076638824904"><ele>250.0</ele><time>2026-04-03T15:43:55.999Z</time></trkpt><trkpt lat="42.463669422148705" lon="11.81991269988063"><ele>249.8</ele><time>2026-04-03T15:43:56.999Z</time></trkpt><trkpt lat="42.4636635867888" lon="11.819749010822353"><ele>249.6</ele><time>2026-04-03T15:43:57.999Z</time></trkpt><trkpt lat="42.46365993182856" lon="11.819592233116294"><ele>249.39999999999998</ele><time>2026-04-03T15:43:58.999Z</time></trkpt><trkpt lat="42.46365842111707" lon="11.819448648187628"><ele>249.2</ele><time>2026-04-03T15:43:59.999Z</time></trkpt><trkpt lat="42.463655765975176" lon="11.81931126336383"><ele>249.0</ele><time>2026-04-03T15:44:00.999Z</time></trkpt><trkpt lat="42.463650904413285" lon="11.819179782807023"><ele>248.39999999999998</ele><time>2026-04-03T15:44:01.999Z</time></trkpt><trkpt lat="42.463645320970855" lon="11.819052329341254"><ele>247.79999999999998</ele><time>2026-04-03T15:44:02.999Z</time></trkpt><trkpt lat="42.463640134063574" lon="11.818924718708613"><ele>247.20000000000002</ele><time>2026-04-03T15:44:03.999Z</time></trkpt><trkpt lat="42.463633418357304" lon="11.818793838692892"><ele>246.60000000000002</ele><time>2026-04-03T15:44:04.999Z</time></trkpt><trkpt lat="42.463626376034476" lon="11.818659132109415"><ele>246.0</ele><time>2026-04-03T15:44:05.999Z</time></trkpt><trkpt lat="42.463621535714914" lon="11.818516195243646"><ele>245.25</ele><time>2026-04-03T15:44:06.999Z</time></trkpt><trkpt lat="42.46361961987886" lon="11.818366238749848"><ele>244.5</ele><time>2026-04-03T15:44:07.999Z</time></trkpt><trkpt lat="42.463616617033836" lon="11.818209354938956"><ele>243.75</ele><time>2026-04-03T15:44:08.999Z</time></trkpt><trkpt lat="42.463618298655966" lon="11.818049945502104"><ele>243.0</ele><time>2026-04-03T15:44:09.999Z</time></trkpt><trkpt lat="42.463629461766345" lon="11.817903203465681"><ele>243.0</ele><time>2026-04-03T15:44:10.999Z</time></trkpt><trkpt lat="42.4636744941302" lon="11.817767873558656"><ele>243.0</ele><time>2026-04-03T15:44:11.999Z</time></trkpt><trkpt lat="42.4637431817655" lon="11.817650655856335"><ele>243.0</ele><time>2026-04-03T15:44:12.999Z</time></trkpt><trkpt lat="42.463851127500284" lon="11.81755879045996"><ele>243.0</ele><time>2026-04-03T15:44:13.999Z</time></trkpt><trkpt lat="42.46398207772312" lon="11.817498310096754"><ele>243.0</ele><time>2026-04-03T15:44:14.999Z</time></trkpt><trkpt lat="42.4641279541163" lon="11.817436942443212"><ele>243.0</ele><time>2026-04-03T15:44:15.999Z</time></trkpt><trkpt lat="42.46428273422359" lon="11.817363495288365"><ele>243.0</ele><time>2026-04-03T15:44:16.999Z</time></trkpt><trkpt lat="42.46444626391256" lon="11.817288394984807"><ele>243.0</ele><time>2026-04-03T15:44:17.999Z</time></trkpt><trkpt lat="42.464609634571" lon="11.817208872144898"><ele>243.0</ele><time>2026-04-03T15:44:18.999Z</time></trkpt><trkpt lat="42.4647694067394" lon="11.817136572004868"><ele>243.0</ele><time>2026-04-03T15:44:19.999Z</time></trkpt><trkpt lat="42.46492194660434" lon="11.81706662931218"><ele>244.0</ele><time>2026-04-03T15:44:20.999Z</time></trkpt><trkpt lat="42.465062705233734" lon="11.817000222128664"><ele>245.0</ele><time>2026-04-03T15:44:21.999Z</time></trkpt><trkpt lat="42.465193438459934" lon="11.816923907698852"><ele>246.0</ele><time>2026-04-03T15:44:22.999Z</time></trkpt><trkpt lat="42.46530517466362" lon="11.816805497354451"><ele>247.0</ele><time>2026-04-03T15:44:23.999Z</time></trkpt><trkpt lat="42.46539853295381" lon="11.816640364324956"><ele>246.0</ele><time>2026-04-03T15:44:24.999Z</time></trkpt><trkpt lat="42.465478783942274" lon="11.8164654982383"><ele>245.0</ele><time>2026-04-03T15:44:25.999Z</time></trkpt><trkpt lat="42.46558491941121" lon="11.816321311005103"><ele>244.0</ele><time>2026-04-03T15:44:26.999Z</time></trkpt><trkpt lat="42.465715309858375" lon="11.816206638671945"><ele>244.0</ele><time>2026-04-03T15:44:27.999Z</time></trkpt><trkpt lat="42.46585962183702" lon="11.81611417371988"><ele>244.0</ele><time>2026-04-03T15:44:28.999Z</time></trkpt><trkpt lat="42.46601196347614" lon="11.816049328170863"><ele>244.0</ele><time>2026-04-03T15:44:29.999Z</time></trkpt><trkpt lat="42.46616006758605" lon="11.816013095381804"><ele>242.75</ele><time>2026-04-03T15:44:30.999Z</time></trkpt><trkpt lat="42.466306841682645" lon="11.816003576403427"><ele>241.5</ele><time>2026-04-03T15:44:31.999Z</time></trkpt><trkpt lat="42.466448690192856" lon="11.816004372359222"><ele>240.25</ele><time>2026-04-03T15:44:32.999Z</time></trkpt><trkpt lat="42.466580740154356" lon="11.815991500767387"><ele>239.0</ele><time>2026-04-03T15:44:33.999Z</time></trkpt><trkpt lat="42.466695870761235" lon="11.815953134713697"><ele>239.0</ele><time>2026-04-03T15:44:34.999Z</time></trkpt><trkpt lat="42.46679139289059" lon="11.815894070342795"><ele>238.99999999999997</ele><time>2026-04-03T15:44:35.999Z</time></trkpt><trkpt lat="42.46685685669423" lon="11.815792480705541"><ele>238.99999999999997</ele><time>2026-04-03T15:44:36.999Z</time></trkpt><trkpt lat="42.466893666868565" lon="11.815652959009467"><ele>239.0</ele><time>2026-04-03T15:44:37.999Z</time></trkpt><trkpt lat="42.46690918131375" lon="11.815482747599532"><ele>239.0</ele><time>2026-04-03T15:44:38.999Z</time></trkpt><trkpt lat="42.46691832754207" lon="11.815315857346164"><ele>239.0</ele><time>2026-04-03T15:44:39.999Z</time></trkpt><trkpt lat="42.46692935133717" lon="11.815159479894394"><ele>239.0</ele><time>2026-04-03T15:44:40.999Z</time></trkpt><trkpt lat="42.46689248585912" lon="11.81499758124747"><ele>239.0</ele><time>2026-04-03T15:44:41.999Z</time></trkpt><trkpt lat="42.46679171090004" lon="11.814857861280961"><ele>239.0</ele><time>2026-04-03T15:44:42.999Z</time></trkpt><trkpt lat="42.466658503258536" lon="11.814780581886643"><ele>239.0</ele><time>2026-04-03T15:44:43.999Z</time></trkpt><trkpt lat="42.466532816555755" lon="11.814715294886454"><ele>239.0</ele><time>2026-04-03T15:44:44.999Z</time></trkpt><trkpt lat="42.46640304028454" lon="11.81463140654853"><ele>239.0</ele><time>2026-04-03T15:44:45.999Z</time></trkpt><trkpt lat="42.466286952199624" lon="11.814504769626518"><ele>239.0</ele><time>2026-04-03T15:44:47Z</time></trkpt><trkpt lat="42.466168517445105" lon="11.814331606926961"><ele>240.66666666666669</ele><time>2026-04-03T15:44:48Z</time></trkpt><trkpt lat="42.46603556494853" lon="11.814140517039801"><ele>242.33333333333331</ele><time>2026-04-03T15:44:49Z</time></trkpt><trkpt lat="42.46590515501925" lon="11.81395935273719"><ele>244.0</ele><time>2026-04-03T15:44:50Z</time></trkpt><trkpt lat="42.4657765344447" lon="11.813785576242818"><ele>244.0</ele><time>2026-04-03T15:44:51Z</time></trkpt><trkpt lat="42.465682990416624" lon="11.813585544542313"><ele>244.0</ele><time>2026-04-03T15:44:52Z</time></trkpt><trkpt lat="42.46559991839565" lon="11.813383862367209"><ele>244.0</ele><time>2026-04-03T15:44:53Z</time></trkpt><trkpt lat="42.4654352882953" lon="11.813217467415253"><ele>246.33333333333331</ele><time>2026-04-03T15:44:54Z</time></trkpt><trkpt lat="42.46527826009392" lon="11.813037803801059"><ele>248.66666666666669</ele><time>2026-04-03T15:44:55Z</time></trkpt><trkpt lat="42.465100949055575" lon="11.812895444757157"><ele>251.0</ele><time>2026-04-03T15:44:56Z</time></trkpt><trkpt lat="42.46492097614914" lon="11.812748537528206"><ele>251.66666666666669</ele><time>2026-04-03T15:44:57Z</time></trkpt><trkpt lat="42.46477699446932" lon="11.812610093260707"><ele>252.33333333333331</ele><time>2026-04-03T15:44:58Z</time></trkpt><trkpt lat="42.46464796863657" lon="11.812498687301254"><ele>253.0</ele><time>2026-04-03T15:44:59Z</time></trkpt><trkpt lat="42.464532385305105" lon="11.812386543304164"><ele>253.0</ele><time>2026-04-03T15:45:00Z</time></trkpt><trkpt lat="42.46444027487158" lon="11.812272622692204"><ele>253.0</ele><time>2026-04-03T15:45:01Z</time></trkpt><trkpt lat="42.46436896719626" lon="11.812152845586478"><ele>253.0</ele><time>2026-04-03T15:45:02Z</time></trkpt><trkpt lat="42.46431470367548" lon="11.812004250414796"><ele>253.0</ele><time>2026-04-03T15:45:03Z</time></trkpt><trkpt lat="42.46428713381279" lon="11.811826429932479"><ele>253.66666666666666</ele><time>2026-04-03T15:45:04Z</time></trkpt><trkpt lat="42.464292157609634" lon="11.811614225167334"><ele>254.33333333333331</ele><time>2026-04-03T15:45:05Z</time></trkpt><trkpt lat="42.464300034796956" lon="11.811370543616261"><ele>255.0</ele><time>2026-04-03T15:45:06Z</time></trkpt><trkpt lat="42.464303004733836" lon="11.811133012369837"><ele>255.66666666666669</ele><time>2026-04-03T15:45:07Z</time></trkpt><trkpt lat="42.4643111066032" lon="11.810906586214186"><ele>256.33333333333337</ele><time>2026-04-03T15:45:08Z</time></trkpt><trkpt lat="42.46433293469028" lon="11.810699597611109"><ele>257.0</ele><time>2026-04-03T15:45:09Z</time></trkpt><trkpt lat="42.46439699291504" lon="11.810525018101476"><ele>257.0</ele><time>2026-04-03T15:45:10Z</time></trkpt><trkpt lat="42.464505549157835" lon="11.810366505622225"><ele>257.0</ele><time>2026-04-03T15:45:11Z</time></trkpt><trkpt lat="42.46465198136387" lon="11.810239500685688"><ele>257.0</ele><time>2026-04-03T15:45:12Z</time></trkpt><trkpt lat="42.464816541740674" lon="11.810126961927754"><ele>255.66666666666669</ele><time>2026-04-03T15:45:13Z</time></trkpt><trkpt lat="42.46498007606405" lon="11.810012132310398"><ele>254.33333333333331</ele><time>2026-04-03T15:45:14Z</time></trkpt><trkpt lat="42.46513056540214" lon="11.809883101568305"><ele>253.0</ele><time>2026-04-03T15:45:15Z</time></trkpt><trkpt lat="42.46527733035665" lon="11.809771733658895"><ele>253.0</ele><time>2026-04-03T15:45:16Z</time></trkpt><trkpt lat="42.46540045657553" lon="11.809662508421606"><ele>253.0</ele><time>2026-04-03T15:45:17Z</time></trkpt><trkpt lat="42.46548483820653" lon="11.809494149138562"><ele>253.0</ele><time>2026-04-03T15:45:18Z</time></trkpt><trkpt lat="42.465536624827685" lon="11.809298050224168"><ele>253.33333333333331</ele><time>2026-04-03T15:45:19Z</time></trkpt><trkpt lat="42.46554524699394" lon="11.80908026956308"><ele>253.66666666666669</ele><time>2026-04-03T15:45:20Z</time></trkpt><trkpt lat="42.46554759024348" lon="11.80884202577683"><ele>254.0</ele><time>2026-04-03T15:45:21Z</time></trkpt><trkpt lat="42.46554490658906" lon="11.808591504957956"><ele>254.66666666666669</ele><time>2026-04-03T15:45:22Z</time></trkpt><trkpt lat="42.465521462916584" lon="11.808356516290992"><ele>255.33333333333331</ele><time>2026-04-03T15:45:23Z</time></trkpt><trkpt lat="42.46549092703465" lon="11.808136247489214"><ele>256.0</ele><time>2026-04-03T15:45:24Z</time></trkpt><trkpt lat="42.465458622492896" lon="11.807914406401268"><ele>256.3333333333333</ele><time>2026-04-03T15:45:25Z</time></trkpt><trkpt lat="42.465424931667584" lon="11.807687809355441"><ele>256.6666666666667</ele><time>2026-04-03T15:45:26Z</time></trkpt><trkpt lat="42.46538974788855" lon="11.807471333258503"><ele>257.0</ele><time>2026-04-03T15:45:27Z</time></trkpt><trkpt lat="42.46535222698412" lon="11.807273664147285"><ele>257.6666666666667</ele><time>2026-04-03T15:45:28Z</time></trkpt><trkpt lat="42.46529122040992" lon="11.807096587922471"><ele>258.3333333333333</ele><time>2026-04-03T15:45:29Z</time></trkpt><trkpt lat="42.4652149030556" lon="11.80690540344364"><ele>259.0</ele><time>2026-04-03T15:45:30Z</time></trkpt><trkpt lat="42.46509974450028" lon="11.806746696274628"><ele>259.0</ele><time>2026-04-03T15:45:31Z</time></trkpt><trkpt lat="42.46494783666649" lon="11.806587939794216"><ele>259.0</ele><time>2026-04-03T15:45:32Z</time></trkpt><trkpt lat="42.464771892118726" lon="11.806437614900991"><ele>259.0</ele><time>2026-04-03T15:45:33Z</time></trkpt><trkpt lat="42.46459861342715" lon="11.806290255112563"><ele>258.3333333333333</ele><time>2026-04-03T15:45:34Z</time></trkpt><trkpt lat="42.46440978629807" lon="11.806123045786219"><ele>257.6666666666667</ele><time>2026-04-03T15:45:35Z</time></trkpt><trkpt lat="42.464223791557124" lon="11.805957646290649"><ele>257.0</ele><time>2026-04-03T15:45:36Z</time></trkpt><trkpt lat="42.46403763856296" lon="11.805801305771329"><ele>255.33333333333334</ele><time>2026-04-03T15:45:37Z</time></trkpt><trkpt lat="42.46387009758791" lon="11.805660083133594"><ele>253.66666666666669</ele><time>2026-04-03T15:45:38Z</time></trkpt><trkpt lat="42.463712058578295" lon="11.805520828015142"><ele>252.0</ele><time>2026-04-03T15:45:39Z</time></trkpt><trkpt lat="42.463559364145084" lon="11.805390455556172"><ele>251.75</ele><time>2026-04-03T15:45:40Z</time></trkpt><trkpt lat="42.46341848385487" lon="11.805269994678506"><ele>251.5</ele><time>2026-04-03T15:45:41Z</time></trkpt><trkpt lat="42.46328838188369" lon="11.805157556078024"><ele>251.25</ele><time>2026-04-03T15:45:42Z</time></trkpt><trkpt lat="42.46318236808662" lon="11.805065342681399"><ele>251.0</ele><time>2026-04-03T15:45:43Z</time></trkpt><trkpt lat="42.46310356623776" lon="11.80499432005153"><ele>251.0</ele><time>2026-04-03T15:45:44Z</time></trkpt><trkpt lat="42.46304144021956" lon="11.804928243589618"><ele>251.00000000000003</ele><time>2026-04-03T15:45:45Z</time></trkpt><trkpt lat="42.462991873486494" lon="11.804774564406731"><ele>251.00000000000003</ele><time>2026-04-03T15:45:47Z</time></trkpt><trkpt lat="42.463047409682815" lon="11.804682074490552"><ele>251.0</ele><time>2026-04-03T15:45:48Z</time></trkpt><trkpt lat="42.46315304700144" lon="11.804631881955032"><ele>251.0</ele><time>2026-04-03T15:45:49Z</time></trkpt><trkpt lat="42.46328474971546" lon="11.804609568096101"><ele>251.0</ele><time>2026-04-03T15:45:50Z</time></trkpt><trkpt lat="42.46343053414995" lon="11.80458139772722"><ele>251.0</ele><time>2026-04-03T15:45:51Z</time></trkpt><trkpt lat="42.463595404561765" lon="11.80454800120564"><ele>251.0</ele><time>2026-04-03T15:45:52Z</time></trkpt><trkpt lat="42.463768944921114" lon="11.804506039814594"><ele>252.66666666666669</ele><time>2026-04-03T15:45:52.999Z</time></trkpt><trkpt lat="42.463947032684544" lon="11.804448061037814"><ele>254.33333333333331</ele><time>2026-04-03T15:45:53.999Z</time></trkpt><trkpt lat="42.46410954940866" lon="11.804351840804449"><ele>256.0</ele><time>2026-04-03T15:45:54.999Z</time></trkpt><trkpt lat="42.46427287703307" lon="11.804230984198156"><ele>254.33333333333331</ele><time>2026-04-03T15:45:55.999Z</time></trkpt><trkpt lat="42.464423691760956" lon="11.804098876402545"><ele>252.66666666666669</ele><time>2026-04-03T15:45:56.999Z</time></trkpt><trkpt lat="42.46457792482167" lon="11.803966402410126"><ele>251.0</ele><time>2026-04-03T15:45:57.999Z</time></trkpt><trkpt lat="42.464734283280364" lon="11.803825153576371"><ele>251.0</ele><time>2026-04-03T15:45:58.999Z</time></trkpt><trkpt lat="42.46491035661516" lon="11.8036624688969"><ele>251.0</ele><time>2026-04-03T15:45:59.999Z</time></trkpt><trkpt lat="42.46508785001812" lon="11.803478967112163"><ele>251.0</ele><time>2026-04-03T15:46:00.999Z</time></trkpt><trkpt lat="42.46526484361096" lon="11.80327936109477"><ele>247.5</ele><time>2026-04-03T15:46:01.999Z</time></trkpt><trkpt lat="42.46543210321909" lon="11.803067041413914"><ele>244.0</ele><time>2026-04-03T15:46:02.999Z</time></trkpt><trkpt lat="42.465595855143285" lon="11.802858678675824"><ele>244.33333333333331</ele><time>2026-04-03T15:46:03.999Z</time></trkpt><trkpt lat="42.46575132379092" lon="11.802663969324925"><ele>244.66666666666669</ele><time>2026-04-03T15:46:04.999Z</time></trkpt><trkpt lat="42.46591134468833" lon="11.802468213909073"><ele>245.0</ele><time>2026-04-03T15:46:05.999Z</time></trkpt><trkpt lat="42.4660712950386" lon="11.802295433515118"><ele>245.0</ele><time>2026-04-03T15:46:06.999Z</time></trkpt><trkpt lat="42.46623743958279" lon="11.802115454788003"><ele>245.0</ele><time>2026-04-03T15:46:07.999Z</time></trkpt><trkpt lat="42.466388777776665" lon="11.801935394301074"><ele>245.0</ele><time>2026-04-03T15:46:08.999Z</time></trkpt><trkpt lat="42.46653815670485" lon="11.801747297727283"><ele>246.0</ele><time>2026-04-03T15:46:09.999Z</time></trkpt><trkpt lat="42.4666880138894" lon="11.801521635021896"><ele>247.0</ele><time>2026-04-03T15:46:10.999Z</time></trkpt><trkpt lat="42.46683010059002" lon="11.801282132667419"><ele>247.0</ele><time>2026-04-03T15:46:11.999Z</time></trkpt><trkpt lat="42.46696542315367" lon="11.801057434665857"><ele>247.0</ele><time>2026-04-03T15:46:12.999Z</time></trkpt><trkpt lat="42.46709742848664" lon="11.800847992074846"><ele>247.0</ele><time>2026-04-03T15:46:13.999Z</time></trkpt><trkpt lat="42.46721384480965" lon="11.800658833851031"><ele>247.0</ele><time>2026-04-03T15:46:14.999Z</time></trkpt><trkpt lat="42.467343889509316" lon="11.800478570688295"><ele>247.0</ele><time>2026-04-03T15:46:15.999Z</time></trkpt><trkpt lat="42.46749420262416" lon="11.800340328500726"><ele>247.0</ele><time>2026-04-03T15:46:16.999Z</time></trkpt><trkpt lat="42.467646487967485" lon="11.800224913325305"><ele>250.33333333333331</ele><time>2026-04-03T15:46:17.999Z</time></trkpt><trkpt lat="42.46779611210171" lon="11.800083894097115"><ele>253.66666666666669</ele><time>2026-04-03T15:46:18.999Z</time></trkpt><trkpt lat="42.467937119251765" lon="11.7999130962707"><ele>257.0</ele><time>2026-04-03T15:46:19.999Z</time></trkpt><trkpt lat="42.468065088082945" lon="11.799736914936062"><ele>258.33333333333337</ele><time>2026-04-03T15:46:20.999Z</time></trkpt><trkpt lat="42.46817778313599" lon="11.799568865513498"><ele>259.6666666666667</ele><time>2026-04-03T15:46:21.999Z</time></trkpt><trkpt lat="42.46826786252491" lon="11.799403671397714"><ele>261.0</ele><time>2026-04-03T15:46:22.999Z</time></trkpt><trkpt lat="42.46833794583729" lon="11.799244711418538"><ele>263.6666666666667</ele><time>2026-04-03T15:46:23.999Z</time></trkpt><trkpt lat="42.4683875022359" lon="11.799071475126789"><ele>266.33333333333337</ele><time>2026-04-03T15:46:24.999Z</time></trkpt><trkpt lat="42.46841354339945" lon="11.798868001001772"><ele>269.0</ele><time>2026-04-03T15:46:25.999Z</time></trkpt><trkpt lat="42.46843231092237" lon="11.798651419213206"><ele>270.5</ele><time>2026-04-03T15:46:26.999Z</time></trkpt><trkpt lat="42.46847991180576" lon="11.798443280721251"><ele>272.0</ele><time>2026-04-03T15:46:27.999Z</time></trkpt><trkpt lat="42.46854527870112" lon="11.798260309378112"><ele>273.5</ele><time>2026-04-03T15:46:28.999Z</time></trkpt><trkpt lat="42.46861236531162" lon="11.798108088130897"><ele>275.0</ele><time>2026-04-03T15:46:29.999Z</time></trkpt><trkpt lat="42.46871163354617" lon="11.79797993627019"><ele>275.33333333333337</ele><time>2026-04-03T15:46:30.999Z</time></trkpt><trkpt lat="42.4688390110398" lon="11.797866824259922"><ele>275.6666666666667</ele><time>2026-04-03T15:46:31.999Z</time></trkpt><trkpt lat="42.46897765521095" lon="11.797779571750656"><ele>276.0</ele><time>2026-04-03T15:46:32.999Z</time></trkpt><trkpt lat="42.46912875344459" lon="11.797748062071308"><ele>276.0</ele><time>2026-04-03T15:46:33.999Z</time></trkpt><trkpt lat="42.46930142584635" lon="11.79775388106079"><ele>276.0</ele><time>2026-04-03T15:46:34.999Z</time></trkpt><trkpt lat="42.46944531549096" lon="11.79776183843091"><ele>276.0</ele><time>2026-04-03T15:46:35.999Z</time></trkpt><trkpt lat="42.4695768757277" lon="11.797754237310897"><ele>276.0</ele><time>2026-04-03T15:46:36.999Z</time></trkpt><trkpt lat="42.469685756243074" lon="11.79771099821038"><ele>276.75</ele><time>2026-04-03T15:46:37.999Z</time></trkpt><trkpt lat="42.46978115452435" lon="11.797609512880463"><ele>277.5</ele><time>2026-04-03T15:46:38.999Z</time></trkpt><trkpt lat="42.46984944529865" lon="11.797440780394613"><ele>278.25</ele><time>2026-04-03T15:46:39.999Z</time></trkpt><trkpt lat="42.46990309304452" lon="11.797233413388625"><ele>279.0</ele><time>2026-04-03T15:46:40.999Z</time></trkpt><trkpt lat="42.469968552953034" lon="11.797035567919556"><ele>279.0</ele><time>2026-04-03T15:46:41.999Z</time></trkpt><trkpt lat="42.47005043882369" lon="11.796888152942698"><ele>279.0</ele><time>2026-04-03T15:46:42.999Z</time></trkpt><trkpt lat="42.47016998903409" lon="11.796793563084712"><ele>279.0</ele><time>2026-04-03T15:46:43.999Z</time></trkpt><trkpt lat="42.470326670725946" lon="11.796747637232212"><ele>279.0</ele><time>2026-04-03T15:46:44.999Z</time></trkpt><trkpt lat="42.47050993560012" lon="11.796759542569255"><ele>278.3333333333333</ele><time>2026-04-03T15:46:45.999Z</time></trkpt><trkpt lat="42.470697093459954" lon="11.796767493300377"><ele>277.66666666666663</ele><time>2026-04-03T15:46:46.999Z</time></trkpt><trkpt lat="42.470866609571566" lon="11.796761234905649"><ele>277.0</ele><time>2026-04-03T15:46:47.999Z</time></trkpt><trkpt lat="42.471023163981094" lon="11.79676039428919"><ele>277.0</ele><time>2026-04-03T15:46:48.999Z</time></trkpt><trkpt lat="42.47116129823568" lon="11.796782244812578"><ele>277.0</ele><time>2026-04-03T15:46:49.999Z</time></trkpt><trkpt lat="42.47130294517461" lon="11.796829908863533"><ele>277.0</ele><time>2026-04-03T15:46:50.999Z</time></trkpt><trkpt lat="42.47145905508546" lon="11.796913234271855"><ele>278.0</ele><time>2026-04-03T15:46:51.999Z</time></trkpt><trkpt lat="42.4716202587081" lon="11.797006327732651"><ele>279.0</ele><time>2026-04-03T15:46:53Z</time></trkpt><trkpt lat="42.471782768134354" lon="11.797091931707453"><ele>280.0</ele><time>2026-04-03T15:46:54Z</time></trkpt><trkpt lat="42.47193099408412" lon="11.797172783456409"><ele>280.0</ele><time>2026-04-03T15:46:55Z</time></trkpt><trkpt lat="42.472069638282996" lon="11.797247200547595"><ele>280.0</ele><time>2026-04-03T15:46:56Z</time></trkpt><trkpt lat="42.47220460372414" lon="11.79731453064186"><ele>280.0</ele><time>2026-04-03T15:46:57Z</time></trkpt><trkpt lat="42.472329358863895" lon="11.797364408584986"><ele>280.0</ele><time>2026-04-03T15:46:58Z</time></trkpt><trkpt lat="42.4724531245493" lon="11.797372399582299"><ele>279.75</ele><time>2026-04-03T15:46:59Z</time></trkpt><trkpt lat="42.47257405603397" lon="11.797309648320626"><ele>279.5</ele><time>2026-04-03T15:47:00Z</time></trkpt><trkpt lat="42.47266791186892" lon="11.797162634903701"><ele>279.25</ele><time>2026-04-03T15:47:01Z</time></trkpt><trkpt lat="42.47276171019912" lon="11.796978667531727"><ele>279.0</ele><time>2026-04-03T15:47:02Z</time></trkpt><trkpt lat="42.47288572648102" lon="11.796779902106094"><ele>279.3333333333333</ele><time>2026-04-03T15:47:03Z</time></trkpt><trkpt lat="42.47301487297101" lon="11.796577644738678"><ele>279.66666666666663</ele><time>2026-04-03T15:47:04Z</time></trkpt><trkpt lat="42.47314279747023" lon="11.79636664576908"><ele>280.0</ele><time>2026-04-03T15:47:05Z</time></trkpt><trkpt lat="42.473288886718905" lon="11.79615784782954"><ele>280.66666666666663</ele><time>2026-04-03T15:47:06Z</time></trkpt><trkpt lat="42.47345247456913" lon="11.795965934331175"><ele>281.3333333333333</ele><time>2026-04-03T15:47:07Z</time></trkpt><trkpt lat="42.473634851248235" lon="11.795793587289689"><ele>282.0</ele><time>2026-04-03T15:47:08Z</time></trkpt><trkpt lat="42.473806759465944" lon="11.795618636816618"><ele>283.0</ele><time>2026-04-03T15:47:09Z</time></trkpt><trkpt lat="42.47395946176112" lon="11.79543975076712"><ele>284.0</ele><time>2026-04-03T15:47:10Z</time></trkpt><trkpt lat="42.47410033128338" lon="11.795272127970282"><ele>285.0</ele><time>2026-04-03T15:47:11Z</time></trkpt><trkpt lat="42.4742467494257" lon="11.795119181863356"><ele>285.0</ele><time>2026-04-03T15:47:12Z</time></trkpt><trkpt lat="42.474394808367265" lon="11.794952566541292"><ele>285.0</ele><time>2026-04-03T15:47:13Z</time></trkpt><trkpt lat="42.47453549458763" lon="11.794787124604392"><ele>285.0</ele><time>2026-04-03T15:47:14Z</time></trkpt><trkpt lat="42.47466345139094" lon="11.794638309059872"><ele>286.0</ele><time>2026-04-03T15:47:15Z</time></trkpt><trkpt lat="42.47478197242341" lon="11.79451241582152"><ele>287.0</ele><time>2026-04-03T15:47:16Z</time></trkpt><trkpt lat="42.47488850350826" lon="11.79439481449605"><ele>288.0</ele><time>2026-04-03T15:47:17Z</time></trkpt><trkpt lat="42.47501163500746" lon="11.794301358013408"><ele>289.0</ele><time>2026-04-03T15:47:18Z</time></trkpt><trkpt lat="42.475160885137385" lon="11.794264340555072"><ele>289.0</ele><time>2026-04-03T15:47:19Z</time></trkpt><trkpt lat="42.475321624722" lon="11.794287514384179"><ele>289.0</ele><time>2026-04-03T15:47:20Z</time></trkpt><trkpt lat="42.475492391328864" lon="11.794375181949352"><ele>289.0</ele><time>2026-04-03T15:47:21Z</time></trkpt><trkpt lat="42.47566661570274" lon="11.794466307266081"><ele>290.3333333333333</ele><time>2026-04-03T15:47:22Z</time></trkpt><trkpt lat="42.47582803201077" lon="11.79453856319308"><ele>291.6666666666667</ele><time>2026-04-03T15:47:23Z</time></trkpt><trkpt lat="42.475981360381965" lon="11.794620962693049"><ele>293.0</ele><time>2026-04-03T15:47:24Z</time></trkpt><trkpt lat="42.476126286141" lon="11.794726702295247"><ele>293.0</ele><time>2026-04-03T15:47:25Z</time></trkpt><trkpt lat="42.47626507681123" lon="11.794863898954334"><ele>293.0</ele><time>2026-04-03T15:47:26Z</time></trkpt><trkpt lat="42.47639247073003" lon="11.795024757245066"><ele>293.0</ele><time>2026-04-03T15:47:27Z</time></trkpt><trkpt lat="42.47651407845034" lon="11.795198846223416"><ele>294.6666666666667</ele><time>2026-04-03T15:47:28Z</time></trkpt><trkpt lat="42.4766301419998" lon="11.795385998177505"><ele>296.3333333333333</ele><time>2026-04-03T15:47:29Z</time></trkpt><trkpt lat="42.47674145767952" lon="11.795574621282777"><ele>298.0</ele><time>2026-04-03T15:47:30Z</time></trkpt><trkpt lat="42.47684734947596" lon="11.795762714498322"><ele>298.0</ele><time>2026-04-03T15:47:31Z</time></trkpt><trkpt lat="42.4769478461642" lon="11.795938914191998"><ele>298.0</ele><time>2026-04-03T15:47:32Z</time></trkpt><trkpt lat="42.477040184160515" lon="11.796107289525338"><ele>298.0</ele><time>2026-04-03T15:47:33Z</time></trkpt><trkpt lat="42.477122638593215" lon="11.796280355524258"><ele>299.3333333333333</ele><time>2026-04-03T15:47:34Z</time></trkpt><trkpt lat="42.47719840831379" lon="11.796448709398762"><ele>300.6666666666667</ele><time>2026-04-03T15:47:35Z</time></trkpt><trkpt lat="42.47728456061064" lon="11.79661299584689"><ele>302.0</ele><time>2026-04-03T15:47:36Z</time></trkpt><trkpt lat="42.4773996452114" lon="11.796762732908713"><ele>303.33333333333337</ele><time>2026-04-03T15:47:37Z</time></trkpt><trkpt lat="42.47754485926156" lon="11.796888276307005"><ele>304.6666666666667</ele><time>2026-04-03T15:47:38Z</time></trkpt><trkpt lat="42.47769589564641" lon="11.797000118267013"><ele>306.0</ele><time>2026-04-03T15:47:39Z</time></trkpt><trkpt lat="42.477845910257386" lon="11.797097810770449"><ele>308.0</ele><time>2026-04-03T15:47:40Z</time></trkpt><trkpt lat="42.4780014031369" lon="11.797179655125257"><ele>310.0</ele><time>2026-04-03T15:47:41Z</time></trkpt><trkpt lat="42.47815411935831" lon="11.797247892699493"><ele>312.0</ele><time>2026-04-03T15:47:42Z</time></trkpt><trkpt lat="42.47829311892621" lon="11.79730579891526"><ele>312.0</ele><time>2026-04-03T15:47:43Z</time></trkpt><trkpt lat="42.47841808621349" lon="11.797359604668534"><ele>312.0</ele><time>2026-04-03T15:47:44Z</time></trkpt><trkpt lat="42.4785277518119" lon="11.797404548686675"><ele>312.0</ele><time>2026-04-03T15:47:45Z</time></trkpt><trkpt lat="42.47863848944391" lon="11.797416634804577"><ele>312.0</ele><time>2026-04-03T15:47:46Z</time></trkpt><trkpt lat="42.47875411872895" lon="11.797356923077475"><ele>314.6666666666667</ele><time>2026-04-03T15:47:47Z</time></trkpt><trkpt lat="42.47886997233262" lon="11.797229732544036"><ele>317.33333333333337</ele><time>2026-04-03T15:47:48Z</time></trkpt><trkpt lat="42.478982288376216" lon="11.797077902685617"><ele>320.0</ele><time>2026-04-03T15:47:49Z</time></trkpt><trkpt lat="42.47910899710579" lon="11.796932029313341"><ele>317.33333333333337</ele><time>2026-04-03T15:47:50Z</time></trkpt><trkpt lat="42.47923834721844" lon="11.796789462317918"><ele>314.6666666666667</ele><time>2026-04-03T15:47:51Z</time></trkpt><trkpt lat="42.47936580726468" lon="11.796643024446855"><ele>312.0</ele><time>2026-04-03T15:47:52Z</time></trkpt><trkpt lat="42.47948678434305" lon="11.796500269651286"><ele>316.0</ele><time>2026-04-03T15:47:53Z</time></trkpt><trkpt lat="42.479613635536786" lon="11.796368376274955"><ele>320.0</ele><time>2026-04-03T15:47:54Z</time></trkpt><trkpt lat="42.4797610616944" lon="11.796260911234494"><ele>324.0</ele><time>2026-04-03T15:47:55Z</time></trkpt><trkpt lat="42.47992246019764" lon="11.796164027213413"><ele>324.0</ele><time>2026-04-03T15:47:56Z</time></trkpt><trkpt lat="42.480080893938904" lon="11.796070920603553"><ele>324.0</ele><time>2026-04-03T15:47:56.999Z</time></trkpt><trkpt lat="42.480238527556295" lon="11.79597876539163"><ele>324.0</ele><time>2026-04-03T15:47:57.999Z</time></trkpt><trkpt lat="42.48039873702795" lon="11.795878534618756"><ele>321.6666666666667</ele><time>2026-04-03T15:47:58.999Z</time></trkpt><trkpt lat="42.48056188781536" lon="11.795787204712873"><ele>319.33333333333337</ele><time>2026-04-03T15:47:59.999Z</time></trkpt><trkpt lat="42.48071263479933" lon="11.795696953102944"><ele>317.0</ele><time>2026-04-03T15:48:00.999Z</time></trkpt><trkpt lat="42.480850198375464" lon="11.795616179891676"><ele>317.0</ele><time>2026-04-03T15:48:01.999Z</time></trkpt><trkpt lat="42.480964259245646" lon="11.795541641809574"><ele>317.0</ele><time>2026-04-03T15:48:02.999Z</time></trkpt><trkpt lat="42.48105856721745" lon="11.795466028827176"><ele>317.0</ele><time>2026-04-03T15:48:03.999Z</time></trkpt><trkpt lat="42.48110767798193" lon="11.7953655514592"><ele>317.0</ele><time>2026-04-03T15:48:04.999Z</time></trkpt><trkpt lat="42.48112143257219" lon="11.795252991522075"><ele>317.0</ele><time>2026-04-03T15:48:05.999Z</time></trkpt><trkpt lat="42.48106356705903" lon="11.795133243636412"><ele>316.5</ele><time>2026-04-03T15:48:06.999Z</time></trkpt><trkpt lat="42.48094979081145" lon="11.795078357900735"><ele>316.0</ele><time>2026-04-03T15:48:07.999Z</time></trkpt><trkpt lat="42.48077515410578" lon="11.795091142309511"><ele>315.5</ele><time>2026-04-03T15:48:09.999Z</time></trkpt><trkpt lat="42.4806370464746" lon="11.795047245379713"><ele>315.0</ele><time>2026-04-03T15:48:10.999Z</time></trkpt><trkpt lat="42.480494510775635" lon="11.794969432969355"><ele>311.3333333333333</ele><time>2026-04-03T15:48:11.999Z</time></trkpt><trkpt lat="42.48037942116476" lon="11.794838895996254"><ele>307.66666666666663</ele><time>2026-04-03T15:48:12.999Z</time></trkpt><trkpt lat="42.48025435486926" lon="11.794655491980265"><ele>304.0</ele><time>2026-04-03T15:48:13.999Z</time></trkpt><trkpt lat="42.480123148348646" lon="11.79444283477506"><ele>308.0</ele><time>2026-04-03T15:48:14.999Z</time></trkpt><trkpt lat="42.47999667885183" lon="11.794235606043129"><ele>312.0</ele><time>2026-04-03T15:48:15.999Z</time></trkpt><trkpt lat="42.47987422064668" lon="11.7940515604842"><ele>316.0</ele><time>2026-04-03T15:48:16.999Z</time></trkpt><trkpt lat="42.479760122057776" lon="11.793883961211018"><ele>316.0</ele><time>2026-04-03T15:48:17.999Z</time></trkpt><trkpt lat="42.47964573818418" lon="11.79374431262504"><ele>316.0</ele><time>2026-04-03T15:48:18.999Z</time></trkpt><trkpt lat="42.47956577232622" lon="11.793590292468547"><ele>316.0</ele><time>2026-04-03T15:48:19.999Z</time></trkpt><trkpt lat="42.47947143093842" lon="11.793451710388684"><ele>316.0</ele><time>2026-04-03T15:48:20.999Z</time></trkpt><trkpt lat="42.47936051641079" lon="11.793323843466077"><ele>313.25</ele><time>2026-04-03T15:48:21.999Z</time></trkpt><trkpt lat="42.47927040247739" lon="11.793172026229332"><ele>310.5</ele><time>2026-04-03T15:48:22.999Z</time></trkpt><trkpt lat="42.479181805053706" lon="11.79304582508222"><ele>307.75</ele><time>2026-04-03T15:48:23.999Z</time></trkpt><trkpt lat="42.47909894122423" lon="11.792925330695333"><ele>305.0</ele><time>2026-04-03T15:48:24.999Z</time></trkpt><trkpt lat="42.47901955014081" lon="11.792798035050193"><ele>308.0</ele><time>2026-04-03T15:48:25.999Z</time></trkpt><trkpt lat="42.47894842272015" lon="11.79265998569876"><ele>311.0</ele><time>2026-04-03T15:48:26.999Z</time></trkpt><trkpt lat="42.47890401268301" lon="11.792511955990689"><ele>314.0</ele><time>2026-04-03T15:48:27.999Z</time></trkpt><trkpt lat="42.47886908628761" lon="11.79235944500155"><ele>317.0</ele><time>2026-04-03T15:48:28.999Z</time></trkpt><trkpt lat="42.47884132694623" lon="11.792209717212922"><ele>317.0</ele><time>2026-04-03T15:48:29.999Z</time></trkpt><trkpt lat="42.47883347090933" lon="11.792074087215985"><ele>317.0</ele><time>2026-04-03T15:48:30.999Z</time></trkpt><trkpt lat="42.47884118944149" lon="11.791936151985666"><ele>317.0</ele><time>2026-04-03T15:48:31.999Z</time></trkpt><trkpt lat="42.47885110974008" lon="11.791809362822784"><ele>317.0</ele><time>2026-04-03T15:48:32.999Z</time></trkpt><trkpt lat="42.47886177208036" lon="11.791693833812964"><ele>317.0</ele><time>2026-04-03T15:48:33.999Z</time></trkpt><trkpt lat="42.478872514601385" lon="11.79159268517639"><ele>316.1666666666667</ele><time>2026-04-03T15:48:34.999Z</time></trkpt><trkpt lat="42.47888428651533" lon="11.791505378627276"><ele>315.33333333333337</ele><time>2026-04-03T15:48:35.999Z</time></trkpt><trkpt lat="42.478916373284484" lon="11.791374941561875"><ele>314.5</ele><time>2026-04-03T15:48:37.999Z</time></trkpt><trkpt lat="42.4789658522868" lon="11.791276310031652"><ele>313.6666666666667</ele><time>2026-04-03T15:48:39.999Z</time></trkpt><trkpt lat="42.47889431296818" lon="11.79116806375148"><ele>312.8333333333333</ele><time>2026-04-03T15:48:41.999Z</time></trkpt><trkpt lat="42.478826289404154" lon="11.79110949269727"><ele>312.0</ele><time>2026-04-03T15:48:42.999Z</time></trkpt><trkpt lat="42.47876257852132" lon="11.791051966053994"><ele>310.2</ele><time>2026-04-03T15:48:43.999Z</time></trkpt><trkpt lat="42.478684871547706" lon="11.790982072939306"><ele>308.4</ele><time>2026-04-03T15:48:44.999Z</time></trkpt><trkpt lat="42.478604770546376" lon="11.790910897992356"><ele>306.6</ele><time>2026-04-03T15:48:45.999Z</time></trkpt><trkpt lat="42.47852123638402" lon="11.790840896075162"><ele>304.8</ele><time>2026-04-03T15:48:46.999Z</time></trkpt><trkpt lat="42.47842969204452" lon="11.790816384843152"><ele>303.0</ele><time>2026-04-03T15:48:47.999Z</time></trkpt><trkpt lat="42.47835438533719" lon="11.790769837968373"><ele>303.0</ele><time>2026-04-03T15:48:48.999Z</time></trkpt><trkpt lat="42.47828387009608" lon="11.790699182353896"><ele>303.0</ele><time>2026-04-03T15:48:49.999Z</time></trkpt><trkpt lat="42.47819446557003" lon="11.790624112678747"><ele>303.0</ele><time>2026-04-03T15:48:50.999Z</time></trkpt><trkpt lat="42.47813344186604" lon="11.79050248194134"><ele>303.0</ele><time>2026-04-03T15:48:51.999Z</time></trkpt><trkpt lat="42.478051671647414" lon="11.790393344958659"><ele>303.0</ele><time>2026-04-03T15:48:52.999Z</time></trkpt><trkpt lat="42.477962316072414" lon="11.790305457609476"><ele>301.8333333333333</ele><time>2026-04-03T15:48:53.999Z</time></trkpt><trkpt lat="42.47787989273124" lon="11.790235877066422"><ele>300.6666666666667</ele><time>2026-04-03T15:48:54.999Z</time></trkpt><trkpt lat="42.477822380592485" lon="11.790187204750337"><ele>299.5</ele><time>2026-04-03T15:48:55.999Z</time></trkpt><trkpt lat="42.47776752286039" lon="11.790143205385583"><ele>298.33333333333337</ele><time>2026-04-03T15:48:56.999Z</time></trkpt><trkpt lat="42.47770251708637" lon="11.790072039247471"><ele>297.1666666666667</ele><time>2026-04-03T15:48:59Z</time></trkpt><trkpt lat="42.477688938902766" lon="11.789983373745121"><ele>296.0</ele><time>2026-04-03T15:49:01Z</time></trkpt><trkpt lat="42.47771782874125" lon="11.78982745923728"><ele>296.0</ele><time>2026-04-03T15:49:02Z</time></trkpt><trkpt lat="42.47766664716732" lon="11.789714401303959"><ele>296.0</ele><time>2026-04-03T15:49:03Z</time></trkpt><trkpt lat="42.47755874797435" lon="11.7896312351309"><ele>296.0</ele><time>2026-04-03T15:49:04Z</time></trkpt><trkpt lat="42.47744560677561" lon="11.789563592289614"><ele>296.0</ele><time>2026-04-03T15:49:05Z</time></trkpt><trkpt lat="42.47732834607407" lon="11.789471479990219"><ele>296.0</ele><time>2026-04-03T15:49:06Z</time></trkpt><trkpt lat="42.47723561212165" lon="11.789423308987084"><ele>296.0</ele><time>2026-04-03T15:49:07Z</time></trkpt><trkpt lat="42.47713077726289" lon="11.789341479837153"><ele>296.0</ele><time>2026-04-03T15:49:08Z</time></trkpt><trkpt lat="42.47702485993924" lon="11.789253352320637"><ele>296.0</ele><time>2026-04-03T15:49:09Z</time></trkpt><trkpt lat="42.476917926927364" lon="11.789184636655264"><ele>293.5</ele><time>2026-04-03T15:49:10Z</time></trkpt><trkpt lat="42.476790475946025" lon="11.789143599019834"><ele>291.0</ele><time>2026-04-03T15:49:11Z</time></trkpt><trkpt lat="42.47668069768656" lon="11.789116118531775"><ele>288.5</ele><time>2026-04-03T15:49:12Z</time></trkpt><trkpt lat="42.47655488675251" lon="11.789085829154"><ele>286.0</ele><time>2026-04-03T15:49:13Z</time></trkpt><trkpt lat="42.47641568608008" lon="11.789063532619274"><ele>286.0</ele><time>2026-04-03T15:49:14Z</time></trkpt><trkpt lat="42.47629100306757" lon="11.789061373272808"><ele>286.0</ele><time>2026-04-03T15:49:15Z</time></trkpt><trkpt lat="42.47617704016711" lon="11.789080587573894"><ele>286.0</ele><time>2026-04-03T15:49:16Z</time></trkpt><trkpt lat="42.47607429375477" lon="11.789098708752448"><ele>286.0</ele><time>2026-04-03T15:49:17Z</time></trkpt><trkpt lat="42.475982861756926" lon="11.789170823526081"><ele>286.0</ele><time>2026-04-03T15:49:18Z</time></trkpt><trkpt lat="42.47592523941972" lon="11.789289660832432"><ele>282.66666666666663</ele><time>2026-04-03T15:49:19Z</time></trkpt><trkpt lat="42.47590464377096" lon="11.789410592059578"><ele>279.3333333333333</ele><time>2026-04-03T15:49:20Z</time></trkpt><trkpt lat="42.47589992082558" lon="11.789504171099638"><ele>276.0</ele><time>2026-04-03T15:49:21Z</time></trkpt><trkpt lat="42.47595114948607" lon="11.789583231749708"><ele>272.6666666666667</ele><time>2026-04-03T15:49:22Z</time></trkpt><trkpt lat="42.47602297514232" lon="11.789660241127386"><ele>269.33333333333337</ele><time>2026-04-03T15:49:23Z</time></trkpt><trkpt lat="42.47613028816624" lon="11.789717552806056"><ele>266.0</ele><time>2026-04-03T15:49:24Z</time></trkpt><trkpt lat="42.476236377305156" lon="11.789800097908977"><ele>267.0</ele><time>2026-04-03T15:49:25Z</time></trkpt><trkpt lat="42.476327158412325" lon="11.789914870009897"><ele>268.0</ele><time>2026-04-03T15:49:26Z</time></trkpt><trkpt lat="42.476411485874024" lon="11.790060031928709"><ele>269.0</ele><time>2026-04-03T15:49:27Z</time></trkpt><trkpt lat="42.47650312210386" lon="11.790200482771297"><ele>270.0</ele><time>2026-04-03T15:49:28Z</time></trkpt><trkpt lat="42.476594456624895" lon="11.79031845140988"><ele>270.0</ele><time>2026-04-03T15:49:29Z</time></trkpt><trkpt lat="42.47669018313813" lon="11.790423505480653"><ele>270.0</ele><time>2026-04-03T15:49:30Z</time></trkpt><trkpt lat="42.47678447589789" lon="11.79051330936082"><ele>270.0</ele><time>2026-04-03T15:49:31Z</time></trkpt><trkpt lat="42.47687381479444" lon="11.79060073326352"><ele>270.0</ele><time>2026-04-03T15:49:32Z</time></trkpt><trkpt lat="42.47695621635631" lon="11.79068807553243"><ele>270.0</ele><time>2026-04-03T15:49:33Z</time></trkpt><trkpt lat="42.47703682637396" lon="11.790767647631968"><ele>270.0</ele><time>2026-04-03T15:49:34Z</time></trkpt><trkpt lat="42.47711981629804" lon="11.790838021147618"><ele>270.0</ele><time>2026-04-03T15:49:35Z</time></trkpt><trkpt lat="42.477199430984804" lon="11.790908702442616"><ele>270.0</ele><time>2026-04-03T15:49:36Z</time></trkpt><trkpt lat="42.47726229317005" lon="11.790978886062344"><ele>270.0</ele><time>2026-04-03T15:49:37Z</time></trkpt><trkpt lat="42.47730267454809" lon="11.791066847672164"><ele>270.0</ele><time>2026-04-03T15:49:38Z</time></trkpt><trkpt lat="42.47728656077421" lon="11.791161909526098"><ele>270.0</ele><time>2026-04-03T15:49:39Z</time></trkpt><trkpt lat="42.47720021470026" lon="11.791197711849302"><ele>270.0</ele><time>2026-04-03T15:49:40Z</time></trkpt><trkpt lat="42.47711883604852" lon="11.791160893032112"><ele>270.0</ele><time>2026-04-03T15:49:41Z</time></trkpt><trkpt lat="42.477027944246984" lon="11.791074334289414"><ele>270.0</ele><time>2026-04-03T15:49:42Z</time></trkpt><trkpt lat="42.476912225787444" lon="11.790953243680823"><ele>270.0</ele><time>2026-04-03T15:49:43Z</time></trkpt><trkpt lat="42.476781439522405" lon="11.790824547707691"><ele>270.0</ele><time>2026-04-03T15:49:44Z</time></trkpt><trkpt lat="42.47664380820674" lon="11.790689419820016"><ele>270.0</ele><time>2026-04-03T15:49:45Z</time></trkpt><trkpt lat="42.47651466255824" lon="11.790562623108068"><ele>270.0</ele><time>2026-04-03T15:49:46Z</time></trkpt><trkpt lat="42.47638834719805" lon="11.790438605290591"><ele>270.0</ele><time>2026-04-03T15:49:47Z</time></trkpt><trkpt lat="42.4762642885852" lon="11.790318953216559"><ele>270.0</ele><time>2026-04-03T15:49:48Z</time></trkpt><trkpt lat="42.47613397610625" lon="11.790219408581288"><ele>268.6666666666667</ele><time>2026-04-03T15:49:49Z</time></trkpt><trkpt lat="42.47600141793511" lon="11.790109818380767"><ele>267.33333333333337</ele><time>2026-04-03T15:49:50Z</time></trkpt><trkpt lat="42.47584688989673" lon="11.790039713007289"><ele>266.0</ele><time>2026-04-03T15:49:51Z</time></trkpt><trkpt lat="42.475699024013316" lon="11.789933984965314"><ele>266.0</ele><time>2026-04-03T15:49:52Z</time></trkpt><trkpt lat="42.475547136542815" lon="11.789848086510377"><ele>266.0</ele><time>2026-04-03T15:49:53Z</time></trkpt><trkpt lat="42.475397073919844" lon="11.789762959107776"><ele>266.0</ele><time>2026-04-03T15:49:54Z</time></trkpt><trkpt lat="42.475248356455566" lon="11.789677046558515"><ele>262.33333333333337</ele><time>2026-04-03T15:49:55Z</time></trkpt><trkpt lat="42.475102375840216" lon="11.789592715052736"><ele>258.6666666666667</ele><time>2026-04-03T15:49:56Z</time></trkpt><trkpt lat="42.4749554432705" lon="11.789507833662908"><ele>255.0</ele><time>2026-04-03T15:49:57Z</time></trkpt><trkpt lat="42.4748174692307" lon="11.78942812711427"><ele>255.0</ele><time>2026-04-03T15:49:58Z</time></trkpt><trkpt lat="42.474681671913594" lon="11.789350156688066"><ele>255.0</ele><time>2026-04-03T15:49:59Z</time></trkpt><trkpt lat="42.47453521825514" lon="11.789268983408672"><ele>255.0</ele><time>2026-04-03T15:50:00Z</time></trkpt><trkpt lat="42.47439669382026" lon="11.78919250710411"><ele>252.0</ele><time>2026-04-03T15:50:01Z</time></trkpt><trkpt lat="42.4742653316195" lon="11.789108976918852"><ele>249.0</ele><time>2026-04-03T15:50:02Z</time></trkpt><trkpt lat="42.47413300505493" lon="11.789008425217322"><ele>246.0</ele><time>2026-04-03T15:50:03Z</time></trkpt><trkpt lat="42.474000847062136" lon="11.788896291355213"><ele>246.0</ele><time>2026-04-03T15:50:03.999Z</time></trkpt><trkpt lat="42.473869929440006" lon="11.788779640111308"><ele>246.0</ele><time>2026-04-03T15:50:04.999Z</time></trkpt><trkpt lat="42.47374032834037" lon="11.788657379530239"><ele>246.0</ele><time>2026-04-03T15:50:05.999Z</time></trkpt><trkpt lat="42.47360976729272" lon="11.788532207734013"><ele>242.66666666666669</ele><time>2026-04-03T15:50:06.999Z</time></trkpt><trkpt lat="42.47348000646565" lon="11.788407803118638"><ele>239.33333333333334</ele><time>2026-04-03T15:50:07.999Z</time></trkpt><trkpt lat="42.47335516597827" lon="11.788288146793809"><ele>236.0</ele><time>2026-04-03T15:50:08.999Z</time></trkpt><trkpt lat="42.47322369855458" lon="11.788162272168174"><ele>236.0</ele><time>2026-04-03T15:50:09.999Z</time></trkpt><trkpt lat="42.47308609879813" lon="11.788031576509038"><ele>236.0</ele><time>2026-04-03T15:50:10.999Z</time></trkpt><trkpt lat="42.47292998927121" lon="11.787883491681331"><ele>236.0</ele><time>2026-04-03T15:50:11.999Z</time></trkpt><trkpt lat="42.472761969874036" lon="11.787727317606706"><ele>235.66666666666669</ele><time>2026-04-03T15:50:12.999Z</time></trkpt><trkpt lat="42.4725867741245" lon="11.787564168846087"><ele>235.33333333333331</ele><time>2026-04-03T15:50:13.999Z</time></trkpt><trkpt lat="42.47241677214357" lon="11.787397903922383"><ele>235.0</ele><time>2026-04-03T15:50:14.999Z</time></trkpt><trkpt lat="42.472257558837526" lon="11.787236938252097"><ele>235.0</ele><time>2026-04-03T15:50:15.999Z</time></trkpt><trkpt lat="42.47213248137217" lon="11.787100587448899"><ele>235.0</ele><time>2026-04-03T15:50:16.999Z</time></trkpt><trkpt lat="42.47203949385144" lon="11.786970365049385"><ele>235.0</ele><time>2026-04-03T15:50:17.999Z</time></trkpt><trkpt lat="42.47195705533053" lon="11.786831334615373"><ele>235.0</ele><time>2026-04-03T15:50:18.999Z</time></trkpt><trkpt lat="42.47190419524572" lon="11.78667569732824"><ele>235.0</ele><time>2026-04-03T15:50:19.999Z</time></trkpt><trkpt lat="42.47187743914882" lon="11.786500335887842"><ele>235.0</ele><time>2026-04-03T15:50:20.999Z</time></trkpt><trkpt lat="42.47187245407843" lon="11.786295049846448"><ele>235.0</ele><time>2026-04-03T15:50:21.999Z</time></trkpt><trkpt lat="42.47190183285954" lon="11.78610951844901"><ele>235.0</ele><time>2026-04-03T15:50:22.999Z</time></trkpt><trkpt lat="42.47193011563997" lon="11.785955729160573"><ele>237.25</ele><time>2026-04-03T15:50:23.999Z</time></trkpt><trkpt lat="42.47194609177288" lon="11.785825716874308"><ele>239.5</ele><time>2026-04-03T15:50:24.999Z</time></trkpt><trkpt lat="42.471919132643514" lon="11.785695373289537"><ele>241.75</ele><time>2026-04-03T15:50:25.999Z</time></trkpt><trkpt lat="42.47186869313947" lon="11.785552567617808"><ele>244.0</ele><time>2026-04-03T15:50:26.999Z</time></trkpt><trkpt lat="42.47174407497873" lon="11.785473213664806"><ele>244.0</ele><time>2026-04-03T15:50:27.999Z</time></trkpt><trkpt lat="42.47160628546744" lon="11.78546677570094"><ele>244.0</ele><time>2026-04-03T15:50:28.999Z</time></trkpt><trkpt lat="42.4714666006604" lon="11.78556439668549"><ele>244.0</ele><time>2026-04-03T15:50:29.999Z</time></trkpt><trkpt lat="42.471334015275104" lon="11.785694551241345"><ele>243.0</ele><time>2026-04-03T15:50:30.999Z</time></trkpt><trkpt lat="42.471202706846945" lon="11.785841318333203"><ele>242.0</ele><time>2026-04-03T15:50:31.999Z</time></trkpt><trkpt lat="42.47109294143972" lon="11.785973258139393"><ele>241.0</ele><time>2026-04-03T15:50:32.999Z</time></trkpt><trkpt lat="42.4709999315762" lon="11.786088625658975"><ele>240.0</ele><time>2026-04-03T15:50:33.999Z</time></trkpt><trkpt lat="42.47090000710915" lon="11.786179843587929"><ele>240.0</ele><time>2026-04-03T15:50:34.999Z</time></trkpt><trkpt lat="42.47078868080268" lon="11.786242809028478"><ele>240.0</ele><time>2026-04-03T15:50:35.999Z</time></trkpt><trkpt lat="42.47065328738136" lon="11.786262799509668"><ele>240.0</ele><time>2026-04-03T15:50:36.999Z</time></trkpt><trkpt lat="42.47049460322562" lon="11.78626348937378"><ele>240.0</ele><time>2026-04-03T15:50:37.999Z</time></trkpt><trkpt lat="42.47032772249099" lon="11.786261985008958"><ele>242.0</ele><time>2026-04-03T15:50:38.999Z</time></trkpt><trkpt lat="42.47015281819713" lon="11.78625820624282"><ele>244.0</ele><time>2026-04-03T15:50:39.999Z</time></trkpt><trkpt lat="42.46997408703278" lon="11.786249169796294"><ele>246.0</ele><time>2026-04-03T15:50:40.999Z</time></trkpt><trkpt lat="42.469808244540864" lon="11.786237988181947"><ele>246.0</ele><time>2026-04-03T15:50:41.999Z</time></trkpt><trkpt lat="42.469659904254165" lon="11.786222830865425"><ele>246.0</ele><time>2026-04-03T15:50:42.999Z</time></trkpt><trkpt lat="42.469526607702285" lon="11.786201581758053"><ele>246.0</ele><time>2026-04-03T15:50:43.999Z</time></trkpt><trkpt lat="42.4694111644088" lon="11.786168012090254"><ele>246.0</ele><time>2026-04-03T15:50:44.999Z</time></trkpt><trkpt lat="42.46930031516193" lon="11.78611492004486"><ele>245.83333333333334</ele><time>2026-04-03T15:50:45.999Z</time></trkpt><trkpt lat="42.46920424834864" lon="11.786056469053202"><ele>245.66666666666669</ele><time>2026-04-03T15:50:46.999Z</time></trkpt><trkpt lat="42.46912845437827" lon="11.785993070936595"><ele>245.5</ele><time>2026-04-03T15:50:47.999Z</time></trkpt><trkpt lat="42.469077812643704" lon="11.785926051525468"><ele>245.33333333333334</ele><time>2026-04-03T15:50:48.999Z</time></trkpt><trkpt lat="42.46904540495941" lon="11.785830887039166"><ele>245.16666666666669</ele><time>2026-04-03T15:50:49.999Z</time></trkpt><trkpt lat="42.46902720870158" lon="11.785689674087543"><ele>245.0</ele><time>2026-04-03T15:50:50.999Z</time></trkpt><trkpt lat="42.46905058889835" lon="11.785535125767566"><ele>249.5</ele><time>2026-04-03T15:50:51.999Z</time></trkpt><trkpt lat="42.46909071141502" lon="11.785374370031642"><ele>254.0</ele><time>2026-04-03T15:50:52.999Z</time></trkpt><trkpt lat="42.46916088569748" lon="11.785222531349998"><ele>258.5</ele><time>2026-04-03T15:50:53.999Z</time></trkpt><trkpt lat="42.46921918859004" lon="11.785060269019612"><ele>263.0</ele><time>2026-04-03T15:50:54.999Z</time></trkpt><trkpt lat="42.469289899331194" lon="11.78487995265394"><ele>265.0</ele><time>2026-04-03T15:50:55.999Z</time></trkpt><trkpt lat="42.46934742012698" lon="11.784694008969138"><ele>267.0</ele><time>2026-04-03T15:50:56.999Z</time></trkpt><trkpt lat="42.46938526008153" lon="11.784493042492588"><ele>269.0</ele><time>2026-04-03T15:50:57.999Z</time></trkpt><trkpt lat="42.4693879180129" lon="11.784273946668353"><ele>269.0</ele><time>2026-04-03T15:50:58.999Z</time></trkpt><trkpt lat="42.469362520463335" lon="11.784031223622815"><ele>269.0</ele><time>2026-04-03T15:50:59.999Z</time></trkpt><trkpt lat="42.46933231660851" lon="11.783803144509282"><ele>269.0</ele><time>2026-04-03T15:51:00.999Z</time></trkpt><trkpt lat="42.469308950907056" lon="11.783604328318368"><ele>270.0</ele><time>2026-04-03T15:51:01.999Z</time></trkpt><trkpt lat="42.46928162341325" lon="11.78342117020724"><ele>271.0</ele><time>2026-04-03T15:51:02.999Z</time></trkpt><trkpt lat="42.46925724083283" lon="11.783251002416742"><ele>272.0</ele><time>2026-04-03T15:51:03.999Z</time></trkpt><trkpt lat="42.469191017392255" lon="11.783086146888913"><ele>273.0</ele><time>2026-04-03T15:51:05Z</time></trkpt><trkpt lat="42.46907789695077" lon="11.782942533879211"><ele>273.0</ele><time>2026-04-03T15:51:06Z</time></trkpt><trkpt lat="42.46892232882914" lon="11.782836001933118"><ele>273.0</ele><time>2026-04-03T15:51:07Z</time></trkpt><trkpt lat="42.46876561689627" lon="11.782761932524531"><ele>273.0</ele><time>2026-04-03T15:51:08Z</time></trkpt><trkpt lat="42.46859636393991" lon="11.782684102163913"><ele>272.6666666666667</ele><time>2026-04-03T15:51:09Z</time></trkpt><trkpt lat="42.46840789497668" lon="11.782595524370867"><ele>272.33333333333337</ele><time>2026-04-03T15:51:10Z</time></trkpt><trkpt lat="42.46819876760471" lon="11.782497237433113"><ele>272.0</ele><time>2026-04-03T15:51:11Z</time></trkpt><trkpt lat="42.46797248590838" lon="11.782391361437133"><ele>269.5</ele><time>2026-04-03T15:51:12Z</time></trkpt><trkpt lat="42.46773398364386" lon="11.78228280857911"><ele>267.0</ele><time>2026-04-03T15:51:13Z</time></trkpt><trkpt lat="42.46748868289357" lon="11.782166616845755"><ele>267.0</ele><time>2026-04-03T15:51:14Z</time></trkpt><trkpt lat="42.46725447518194" lon="11.782056422104306"><ele>267.0</ele><time>2026-04-03T15:51:15Z</time></trkpt><trkpt lat="42.46703531540396" lon="11.78195547502439"><ele>266.0</ele><time>2026-04-03T15:51:16Z</time></trkpt><trkpt lat="42.466834819057645" lon="11.781862756683388"><ele>265.0</ele><time>2026-04-03T15:51:17Z</time></trkpt><trkpt lat="42.466683631802105" lon="11.781784705682178"><ele>264.0</ele><time>2026-04-03T15:51:18Z</time></trkpt><trkpt lat="42.46650910195481" lon="11.781657683211483"><ele>264.0</ele><time>2026-04-03T15:51:19Z</time></trkpt><trkpt lat="42.46639161426451" lon="11.781532853179623"><ele>264.0</ele><time>2026-04-03T15:51:20Z</time></trkpt><trkpt lat="42.46631119003086" lon="11.781343821499966"><ele>264.0</ele><time>2026-04-03T15:51:21Z</time></trkpt><trkpt lat="42.46619321872586" lon="11.78112837864416"><ele>264.6666666666667</ele><time>2026-04-03T15:51:22Z</time></trkpt><trkpt lat="42.46606712299992" lon="11.780903234766965"><ele>265.33333333333337</ele><time>2026-04-03T15:51:23Z</time></trkpt><trkpt lat="42.46593721740915" lon="11.780676036284625"><ele>266.0</ele><time>2026-04-03T15:51:24Z</time></trkpt><trkpt lat="42.465807523351145" lon="11.780447178051107"><ele>266.0</ele><time>2026-04-03T15:51:25Z</time></trkpt><trkpt lat="42.465682417577234" lon="11.780224393497507"><ele>266.0</ele><time>2026-04-03T15:51:26Z</time></trkpt><trkpt lat="42.4655612300834" lon="11.780012087408556"><ele>266.0</ele><time>2026-04-03T15:51:27Z</time></trkpt><trkpt lat="42.465438443323606" lon="11.779797856730195"><ele>264.6666666666667</ele><time>2026-04-03T15:51:28Z</time></trkpt><trkpt lat="42.46531119189212" lon="11.779574859955911"><ele>263.3333333333333</ele><time>2026-04-03T15:51:29Z</time></trkpt><trkpt lat="42.465184354608816" lon="11.779349869072185"><ele>262.0</ele><time>2026-04-03T15:51:30Z</time></trkpt><trkpt lat="42.46506292885508" lon="11.779134476204275"><ele>262.0</ele><time>2026-04-03T15:51:31Z</time></trkpt><trkpt lat="42.464947940919565" lon="11.778931536298607"><ele>262.0</ele><time>2026-04-03T15:51:32Z</time></trkpt><trkpt lat="42.46484421913513" lon="11.77872667232223"><ele>262.0</ele><time>2026-04-03T15:51:33Z</time></trkpt><trkpt lat="42.46476597506429" lon="11.778505463393666"><ele>262.3333333333333</ele><time>2026-04-03T15:51:34Z</time></trkpt><trkpt lat="42.46470878367523" lon="11.778243969661705"><ele>262.6666666666667</ele><time>2026-04-03T15:51:35Z</time></trkpt><trkpt lat="42.46466217764979" lon="11.7779374234982"><ele>263.0</ele><time>2026-04-03T15:51:36Z</time></trkpt><trkpt lat="42.464621556307414" lon="11.777635082779698"><ele>260.33333333333337</ele><time>2026-04-03T15:51:37Z</time></trkpt><trkpt lat="42.464581255064175" lon="11.777333820095707"><ele>257.6666666666667</ele><time>2026-04-03T15:51:38Z</time></trkpt><trkpt lat="42.464541229917714" lon="11.777046553397325"><ele>255.0</ele><time>2026-04-03T15:51:39Z</time></trkpt><trkpt lat="42.46450306934359" lon="11.776772668390086"><ele>254.33333333333331</ele><time>2026-04-03T15:51:40Z</time></trkpt><trkpt lat="42.46446546624946" lon="11.776502785640814"><ele>253.66666666666666</ele><time>2026-04-03T15:51:41Z</time></trkpt><trkpt lat="42.464408309961854" lon="11.776224456882623"><ele>253.0</ele><time>2026-04-03T15:51:42Z</time></trkpt><trkpt lat="42.46436649113356" lon="11.775918704799409"><ele>253.0</ele><time>2026-04-03T15:51:43Z</time></trkpt><trkpt lat="42.46432038940105" lon="11.77560613304392"><ele>253.0</ele><time>2026-04-03T15:51:44Z</time></trkpt><trkpt lat="42.464293300733814" lon="11.775302821925663"><ele>254.33333333333331</ele><time>2026-04-03T15:51:45Z</time></trkpt><trkpt lat="42.46423910094709" lon="11.775026605132306"><ele>255.66666666666669</ele><time>2026-04-03T15:51:46Z</time></trkpt><trkpt lat="42.46420393370778" lon="11.77475274180648"><ele>257.0</ele><time>2026-04-03T15:51:47Z</time></trkpt><trkpt lat="42.464169240838366" lon="11.774485609918006"><ele>256.6666666666667</ele><time>2026-04-03T15:51:48Z</time></trkpt><trkpt lat="42.46412913078804" lon="11.774205373281868"><ele>256.3333333333333</ele><time>2026-04-03T15:51:49Z</time></trkpt><trkpt lat="42.46408779490756" lon="11.773918541042766"><ele>256.0</ele><time>2026-04-03T15:51:50Z</time></trkpt><trkpt lat="42.46404716984246" lon="11.77363225380088"><ele>255.0</ele><time>2026-04-03T15:51:51Z</time></trkpt><trkpt lat="42.46400431734516" lon="11.773357807332967"><ele>254.0</ele><time>2026-04-03T15:51:52Z</time></trkpt><trkpt lat="42.46398356336093" lon="11.773096489085724"><ele>253.0</ele><time>2026-04-03T15:51:53Z</time></trkpt><trkpt lat="42.46394615037222" lon="11.77283680131217"><ele>252.66666666666666</ele><time>2026-04-03T15:51:54Z</time></trkpt><trkpt lat="42.46389256958208" lon="11.772572599567381"><ele>252.33333333333331</ele><time>2026-04-03T15:51:55Z</time></trkpt><trkpt lat="42.46385069319814" lon="11.772304058039238"><ele>252.0</ele><time>2026-04-03T15:51:56Z</time></trkpt><trkpt lat="42.46382548494694" lon="11.77202925842289"><ele>251.33333333333331</ele><time>2026-04-03T15:51:57Z</time></trkpt><trkpt lat="42.46377116392878" lon="11.771762240050002"><ele>250.66666666666666</ele><time>2026-04-03T15:51:58Z</time></trkpt><trkpt lat="42.46374485566682" lon="11.771496632343418"><ele>250.0</ele><time>2026-04-03T15:51:59Z</time></trkpt><trkpt lat="42.46370469169266" lon="11.771219497505264"><ele>249.0</ele><time>2026-04-03T15:52:00Z</time></trkpt><trkpt lat="42.463663388126875" lon="11.770965877193193"><ele>248.0</ele><time>2026-04-03T15:52:01Z</time></trkpt><trkpt lat="42.46362400133369" lon="11.770721443516951"><ele>247.0</ele><time>2026-04-03T15:52:02Z</time></trkpt><trkpt lat="42.463576820598696" lon="11.770484876595543"><ele>247.0</ele><time>2026-04-03T15:52:03Z</time></trkpt><trkpt lat="42.463502363596184" lon="11.770253193940173"><ele>247.0</ele><time>2026-04-03T15:52:04Z</time></trkpt><trkpt lat="42.46341562771535" lon="11.770011208731983"><ele>247.0</ele><time>2026-04-03T15:52:05Z</time></trkpt><trkpt lat="42.46330090671093" lon="11.769775769635244"><ele>246.33333333333331</ele><time>2026-04-03T15:52:06Z</time></trkpt><trkpt lat="42.46318395912735" lon="11.769546660746967"><ele>245.66666666666669</ele><time>2026-04-03T15:52:07Z</time></trkpt><trkpt lat="42.463072728716625" lon="11.769334409511403"><ele>245.0</ele><time>2026-04-03T15:52:07.999Z</time></trkpt><trkpt lat="42.4629660573291" lon="11.769130858077284"><ele>243.0</ele><time>2026-04-03T15:52:08.999Z</time></trkpt><trkpt lat="42.46286541119747" lon="11.768938803875512"><ele>241.0</ele><time>2026-04-03T15:52:09.999Z</time></trkpt><trkpt lat="42.462765389685984" lon="11.768747767887332"><ele>239.0</ele><time>2026-04-03T15:52:10.999Z</time></trkpt><trkpt lat="42.46265478151564" lon="11.768574508793801"><ele>239.0</ele><time>2026-04-03T15:52:11.999Z</time></trkpt><trkpt lat="42.46251013537364" lon="11.768433604065264"><ele>239.0</ele><time>2026-04-03T15:52:12.999Z</time></trkpt><trkpt lat="42.46233555992674" lon="11.76831425370533"><ele>239.0</ele><time>2026-04-03T15:52:13.999Z</time></trkpt><trkpt lat="42.46214637368635" lon="11.768204911322927"><ele>236.66666666666669</ele><time>2026-04-03T15:52:14.999Z</time></trkpt><trkpt lat="42.46194788404794" lon="11.768088036281213"><ele>234.33333333333331</ele><time>2026-04-03T15:52:15.999Z</time></trkpt><trkpt lat="42.46175879787536" lon="11.767976698031994"><ele>232.0</ele><time>2026-04-03T15:52:16.999Z</time></trkpt><trkpt lat="42.46157053653371" lon="11.767866608041174"><ele>232.0</ele><time>2026-04-03T15:52:17.999Z</time></trkpt><trkpt lat="42.46139264212567" lon="11.76776094023657"><ele>232.0</ele><time>2026-04-03T15:52:18.999Z</time></trkpt><trkpt lat="42.46121748491475" lon="11.767656200593104"><ele>232.0</ele><time>2026-04-03T15:52:19.999Z</time></trkpt><trkpt lat="42.46105116327445" lon="11.767557393910032"><ele>229.33333333333331</ele><time>2026-04-03T15:52:20.999Z</time></trkpt><trkpt lat="42.460874225259936" lon="11.767453727579454"><ele>226.66666666666669</ele><time>2026-04-03T15:52:21.999Z</time></trkpt><trkpt lat="42.46068895502061" lon="11.767344090011173"><ele>224.0</ele><time>2026-04-03T15:52:22.999Z</time></trkpt><trkpt lat="42.46051303771748" lon="11.767239505108906"><ele>222.0</ele><time>2026-04-03T15:52:23.999Z</time></trkpt><trkpt lat="42.46034551119875" lon="11.76713990852276"><ele>220.0</ele><time>2026-04-03T15:52:24.999Z</time></trkpt><trkpt lat="42.46018228460521" lon="11.767043224086263"><ele>218.0</ele><time>2026-04-03T15:52:25.999Z</time></trkpt><trkpt lat="42.46003313724644" lon="11.766954977051604"><ele>218.0</ele><time>2026-04-03T15:52:26.999Z</time></trkpt><trkpt lat="42.45989039421899" lon="11.766869559659527"><ele>218.0</ele><time>2026-04-03T15:52:27.999Z</time></trkpt><trkpt lat="42.45976211434254" lon="11.766784830299232"><ele>218.0</ele><time>2026-04-03T15:52:28.999Z</time></trkpt><trkpt lat="42.459654712713586" lon="11.766675403194501"><ele>218.0</ele><time>2026-04-03T15:52:29.999Z</time></trkpt><trkpt lat="42.459572101580704" lon="11.766526403776735"><ele>216.75</ele><time>2026-04-03T15:52:30.999Z</time></trkpt><trkpt lat="42.45953284377271" lon="11.766359791901525"><ele>215.5</ele><time>2026-04-03T15:52:31.999Z</time></trkpt><trkpt lat="42.459524203375324" lon="11.766169022129976"><ele>214.25</ele><time>2026-04-03T15:52:32.999Z</time></trkpt><trkpt lat="42.45957011173056" lon="11.765949373901305"><ele>213.0</ele><time>2026-04-03T15:52:33.999Z</time></trkpt><trkpt lat="42.45961700138349" lon="11.765729560798283"><ele>212.33333333333331</ele><time>2026-04-03T15:52:34.999Z</time></trkpt><trkpt lat="42.459671297965826" lon="11.765501849565322"><ele>211.66666666666666</ele><time>2026-04-03T15:52:35.999Z</time></trkpt><trkpt lat="42.459724784487484" lon="11.765290173525795"><ele>211.0</ele><time>2026-04-03T15:52:36.999Z</time></trkpt><trkpt lat="42.45977412098888" lon="11.765070818466233"><ele>210.66666666666666</ele><time>2026-04-03T15:52:37.999Z</time></trkpt><trkpt lat="42.45982197849563" lon="11.764851998985849"><ele>210.33333333333331</ele><time>2026-04-03T15:52:38.999Z</time></trkpt><trkpt lat="42.45987363182508" lon="11.764650116792604"><ele>210.0</ele><time>2026-04-03T15:52:39.999Z</time></trkpt><trkpt lat="42.45991491744271" lon="11.764448400730384"><ele>209.0</ele><time>2026-04-03T15:52:40.999Z</time></trkpt><trkpt lat="42.45995499608425" lon="11.76426669017637"><ele>208.0</ele><time>2026-04-03T15:52:41.999Z</time></trkpt><trkpt lat="42.45999621719705" lon="11.764103618178774"><ele>207.0</ele><time>2026-04-03T15:52:42.999Z</time></trkpt><trkpt lat="42.460059232665074" lon="11.763966510408133"><ele>206.0</ele><time>2026-04-03T15:52:43.999Z</time></trkpt><trkpt lat="42.460163129353056" lon="11.763863466326606"><ele>206.0</ele><time>2026-04-03T15:52:44.999Z</time></trkpt><trkpt lat="42.4602867831745" lon="11.763815914551312"><ele>206.0</ele><time>2026-04-03T15:52:45.999Z</time></trkpt><trkpt lat="42.46042589565513" lon="11.763803056680416"><ele>206.0</ele><time>2026-04-03T15:52:46.999Z</time></trkpt><trkpt lat="42.460555544360986" lon="11.763789627682224"><ele>206.0</ele><time>2026-04-03T15:52:47.999Z</time></trkpt><trkpt lat="42.46067457749387" lon="11.7637646749801"><ele>206.5</ele><time>2026-04-03T15:52:48.999Z</time></trkpt><trkpt lat="42.460767158817085" lon="11.76367389325565"><ele>207.0</ele><time>2026-04-03T15:52:49.999Z</time></trkpt><trkpt lat="42.460820686086066" lon="11.763507599387243"><ele>207.5</ele><time>2026-04-03T15:52:50.999Z</time></trkpt><trkpt lat="42.460821666503286" lon="11.763312636746207"><ele>208.0</ele><time>2026-04-03T15:52:51.999Z</time></trkpt><trkpt lat="42.46081931772149" lon="11.763087862369053"><ele>206.0</ele><time>2026-04-03T15:52:52.999Z</time></trkpt><trkpt lat="42.46082526097183" lon="11.762838848016475"><ele>204.0</ele><time>2026-04-03T15:52:53.999Z</time></trkpt><trkpt lat="42.46082659646991" lon="11.76257898593105"><ele>202.0</ele><time>2026-04-03T15:52:54.999Z</time></trkpt><trkpt lat="42.4608390102574" lon="11.762303605969516"><ele>202.0</ele><time>2026-04-03T15:52:55.999Z</time></trkpt><trkpt lat="42.46081902788039" lon="11.762042949417584"><ele>202.0</ele><time>2026-04-03T15:52:56.999Z</time></trkpt><trkpt lat="42.46082051656093" lon="11.761802699657302"><ele>202.0</ele><time>2026-04-03T15:52:57.999Z</time></trkpt><trkpt lat="42.46077492704542" lon="11.761566699374537"><ele>203.0</ele><time>2026-04-03T15:52:58.999Z</time></trkpt><trkpt lat="42.460705869672076" lon="11.761355515256676"><ele>204.0</ele><time>2026-04-03T15:52:59.999Z</time></trkpt><trkpt lat="42.46063189191819" lon="11.761180481825686"><ele>205.0</ele><time>2026-04-03T15:53:00.999Z</time></trkpt><trkpt lat="42.460561852761685" lon="11.761022252921565"><ele>206.4</ele><time>2026-04-03T15:53:01.999Z</time></trkpt><trkpt lat="42.46050234048555" lon="11.760883201699613"><ele>207.8</ele><time>2026-04-03T15:53:02.999Z</time></trkpt><trkpt lat="42.46046215947047" lon="11.760765827952094"><ele>209.2</ele><time>2026-04-03T15:53:03.999Z</time></trkpt><trkpt lat="42.460433271568746" lon="11.760650369104411"><ele>210.6</ele><time>2026-04-03T15:53:04.999Z</time></trkpt><trkpt lat="42.460478491332594" lon="11.760534084666562"><ele>212.0</ele><time>2026-04-03T15:53:05.999Z</time></trkpt><trkpt lat="42.4605639277443" lon="11.760456134415852"><ele>212.25</ele><time>2026-04-03T15:53:06.999Z</time></trkpt><trkpt lat="42.460685207227044" lon="11.760436669029003"><ele>212.5</ele><time>2026-04-03T15:53:07.999Z</time></trkpt><trkpt lat="42.46084523653098" lon="11.760454533406543"><ele>212.75</ele><time>2026-04-03T15:53:08.999Z</time></trkpt><trkpt lat="42.46100320804718" lon="11.760462033131459"><ele>213.0</ele><time>2026-04-03T15:53:09.999Z</time></trkpt><trkpt lat="42.461151331566114" lon="11.760441154928436"><ele>213.0</ele><time>2026-04-03T15:53:11Z</time></trkpt><trkpt lat="42.46127924847683" lon="11.76037010909992"><ele>213.0</ele><time>2026-04-03T15:53:12Z</time></trkpt><trkpt lat="42.461415236765255" lon="11.760258070813814"><ele>213.0</ele><time>2026-04-03T15:53:13Z</time></trkpt><trkpt lat="42.46153418069421" lon="11.760104357794624"><ele>213.0</ele><time>2026-04-03T15:53:14Z</time></trkpt><trkpt lat="42.46165577342137" lon="11.759996570762722"><ele>213.0</ele><time>2026-04-03T15:53:15Z</time></trkpt><trkpt lat="42.461799587309" lon="11.759930330815399"><ele>213.0</ele><time>2026-04-03T15:53:16Z</time></trkpt><trkpt lat="42.46193376653024" lon="11.759880346138987"><ele>213.0</ele><time>2026-04-03T15:53:17Z</time></trkpt><trkpt lat="42.46208708472895" lon="11.759911168278656"><ele>210.5</ele><time>2026-04-03T15:53:18Z</time></trkpt><trkpt lat="42.46223377396198" lon="11.759915052610832"><ele>208.0</ele><time>2026-04-03T15:53:19Z</time></trkpt><trkpt lat="42.462365201475954" lon="11.759881299582522"><ele>205.5</ele><time>2026-04-03T15:53:20Z</time></trkpt><trkpt lat="42.46248156476196" lon="11.7598021927122"><ele>203.0</ele><time>2026-04-03T15:53:21Z</time></trkpt><trkpt lat="42.46257401164217" lon="11.759664392653388"><ele>203.0</ele><time>2026-04-03T15:53:22Z</time></trkpt><trkpt lat="42.46264172040916" lon="11.759470167795758"><ele>203.0</ele><time>2026-04-03T15:53:23Z</time></trkpt><trkpt lat="42.462670408840964" lon="11.759235286261573"><ele>203.0</ele><time>2026-04-03T15:53:24Z</time></trkpt><trkpt lat="42.46270458140015" lon="11.758991877493925"><ele>200.33333333333334</ele><time>2026-04-03T15:53:25Z</time></trkpt><trkpt lat="42.462732155389126" lon="11.75875261776174"><ele>197.66666666666669</ele><time>2026-04-03T15:53:26Z</time></trkpt><trkpt lat="42.46274138967381" lon="11.75853194436505"><ele>195.0</ele><time>2026-04-03T15:53:27Z</time></trkpt><trkpt lat="42.46271606399303" lon="11.758310152174575"><ele>194.33333333333331</ele><time>2026-04-03T15:53:28Z</time></trkpt><trkpt lat="42.46268576944961" lon="11.758086440861808"><ele>193.66666666666666</ele><time>2026-04-03T15:53:29Z</time></trkpt><trkpt lat="42.46263276991106" lon="11.757886569416874"><ele>193.0</ele><time>2026-04-03T15:53:30Z</time></trkpt><trkpt lat="42.46256804420647" lon="11.757685958658824"><ele>195.0</ele><time>2026-04-03T15:53:31Z</time></trkpt><trkpt lat="42.46249146674964" lon="11.75750646850497"><ele>197.0</ele><time>2026-04-03T15:53:32Z</time></trkpt><trkpt lat="42.462389902572546" lon="11.757342158207527"><ele>199.0</ele><time>2026-04-03T15:53:33Z</time></trkpt><trkpt lat="42.46226685586767" lon="11.75718708239673"><ele>196.66666666666666</ele><time>2026-04-03T15:53:34Z</time></trkpt><trkpt lat="42.46207684480408" lon="11.757104339636474"><ele>194.33333333333331</ele><time>2026-04-03T15:53:35Z</time></trkpt><trkpt lat="42.46191529193265" lon="11.757034250424013"><ele>192.0</ele><time>2026-04-03T15:53:36Z</time></trkpt><trkpt lat="42.46178595110269" lon="11.756927815405367"><ele>193.75</ele><time>2026-04-03T15:53:37Z</time></trkpt><trkpt lat="42.46167252536917" lon="11.756807891568155"><ele>195.5</ele><time>2026-04-03T15:53:38Z</time></trkpt><trkpt lat="42.461591612422176" lon="11.756677184753215"><ele>197.25</ele><time>2026-04-03T15:53:39Z</time></trkpt><trkpt lat="42.46157244085277" lon="11.756531097365219"><ele>199.0</ele><time>2026-04-03T15:53:40Z</time></trkpt><trkpt lat="42.46157336585044" lon="11.756397013497477"><ele>199.0</ele><time>2026-04-03T15:53:41Z</time></trkpt><trkpt lat="42.461595799957735" lon="11.756226101339399"><ele>199.0</ele><time>2026-04-03T15:53:42Z</time></trkpt><trkpt lat="42.46168474191847" lon="11.756052094138932"><ele>199.0</ele><time>2026-04-03T15:53:43Z</time></trkpt><trkpt lat="42.46178655615676" lon="11.75589358920234"><ele>199.0</ele><time>2026-04-03T15:53:44Z</time></trkpt><trkpt lat="42.461884840562604" lon="11.755720166590711"><ele>199.75</ele><time>2026-04-03T15:53:45Z</time></trkpt><trkpt lat="42.461965226813646" lon="11.755554726438072"><ele>200.5</ele><time>2026-04-03T15:53:46Z</time></trkpt><trkpt lat="42.46201689219423" lon="11.755399070324952"><ele>201.25</ele><time>2026-04-03T15:53:47Z</time></trkpt><trkpt lat="42.46202828903045" lon="11.755225361879445"><ele>202.0</ele><time>2026-04-03T15:53:48Z</time></trkpt><trkpt lat="42.462001643478494" lon="11.755023998764301"><ele>203.5</ele><time>2026-04-03T15:53:49Z</time></trkpt><trkpt lat="42.461969221871946" lon="11.754829682845058"><ele>205.0</ele><time>2026-04-03T15:53:50Z</time></trkpt><trkpt lat="42.46195614923756" lon="11.754640876998874"><ele>206.5</ele><time>2026-04-03T15:53:51Z</time></trkpt><trkpt lat="42.46197017503706" lon="11.754469098046114"><ele>208.0</ele><time>2026-04-03T15:53:52Z</time></trkpt><trkpt lat="42.46203145086653" lon="11.754309475822865"><ele>212.33333333333331</ele><time>2026-04-03T15:53:53Z</time></trkpt><trkpt lat="42.4621310270344" lon="11.75415491886716"><ele>216.66666666666669</ele><time>2026-04-03T15:53:54Z</time></trkpt><trkpt lat="42.46223005031937" lon="11.753987283984632"><ele>221.0</ele><time>2026-04-03T15:53:55Z</time></trkpt><trkpt lat="42.4623178866232" lon="11.753789450201788"><ele>221.0</ele><time>2026-04-03T15:53:56Z</time></trkpt><trkpt lat="42.46240367373591" lon="11.753620013420347"><ele>221.0</ele><time>2026-04-03T15:53:57Z</time></trkpt><trkpt lat="42.462496432853676" lon="11.753451590172231"><ele>221.0</ele><time>2026-04-03T15:53:58Z</time></trkpt><trkpt lat="42.462575619034624" lon="11.75329174313104"><ele>221.0</ele><time>2026-04-03T15:53:59Z</time></trkpt><trkpt lat="42.46265147004818" lon="11.753151760857111"><ele>222.0</ele><time>2026-04-03T15:54:00Z</time></trkpt><trkpt lat="42.4627228558295" lon="11.753009130176556"><ele>223.0</ele><time>2026-04-03T15:54:01Z</time></trkpt><trkpt lat="42.462798127639225" lon="11.752885582884268"><ele>224.0</ele><time>2026-04-03T15:54:02Z</time></trkpt><trkpt lat="42.46286039477951" lon="11.75273938892384"><ele>225.0</ele><time>2026-04-03T15:54:03Z</time></trkpt><trkpt lat="42.462940177786926" lon="11.752614900481884"><ele>226.0</ele><time>2026-04-03T15:54:04Z</time></trkpt><trkpt lat="42.463006892648885" lon="11.752485891184358"><ele>227.0</ele><time>2026-04-03T15:54:05Z</time></trkpt><trkpt lat="42.46306769608804" lon="11.752352097385518"><ele>228.0</ele><time>2026-04-03T15:54:06Z</time></trkpt><trkpt lat="42.46312578401413" lon="11.752208212609112"><ele>229.0</ele><time>2026-04-03T15:54:07Z</time></trkpt><trkpt lat="42.463172839202244" lon="11.752055637943391"><ele>229.0</ele><time>2026-04-03T15:54:08Z</time></trkpt><trkpt lat="42.46321889129871" lon="11.751900934132243"><ele>228.99999999999997</ele><time>2026-04-03T15:54:09Z</time></trkpt><trkpt lat="42.463265931483" lon="11.75175922394041"><ele>228.99999999999997</ele><time>2026-04-03T15:54:10Z</time></trkpt><trkpt lat="42.463306020494535" lon="11.751629734448448"><ele>229.0</ele><time>2026-04-03T15:54:11Z</time></trkpt><trkpt lat="42.46334883724559" lon="11.751512615267625"><ele>229.0</ele><time>2026-04-03T15:54:12Z</time></trkpt><trkpt lat="42.46339010330696" lon="11.751385463117359"><ele>228.6</ele><time>2026-04-03T15:54:13Z</time></trkpt><trkpt lat="42.46342819083492" lon="11.75126047621283"><ele>228.2</ele><time>2026-04-03T15:54:14Z</time></trkpt><trkpt lat="42.46346452899859" lon="11.751125939487522"><ele>227.79999999999998</ele><time>2026-04-03T15:54:15Z</time></trkpt><trkpt lat="42.4635070252799" lon="11.750988529070932"><ele>227.39999999999998</ele><time>2026-04-03T15:54:16Z</time></trkpt><trkpt lat="42.4635484499186" lon="11.750861957285023"><ele>227.0</ele><time>2026-04-03T15:54:16.999Z</time></trkpt><trkpt lat="42.463583551773915" lon="11.750746963911316"><ele>226.83333333333334</ele><time>2026-04-03T15:54:17.999Z</time></trkpt><trkpt lat="42.463611131737885" lon="11.750635338661501"><ele>226.66666666666669</ele><time>2026-04-03T15:54:18.999Z</time></trkpt><trkpt lat="42.46363812003401" lon="11.750524152108731"><ele>226.5</ele><time>2026-04-03T15:54:19.999Z</time></trkpt><trkpt lat="42.463668813369964" lon="11.750414442795986"><ele>226.33333333333331</ele><time>2026-04-03T15:54:20.999Z</time></trkpt><trkpt lat="42.46369480170563" lon="11.750303352740422"><ele>226.16666666666666</ele><time>2026-04-03T15:54:21.999Z</time></trkpt><trkpt lat="42.463723975320036" lon="11.75018869947096"><ele>226.0</ele><time>2026-04-03T15:54:22.999Z</time></trkpt><trkpt lat="42.463757932714834" lon="11.750077136518096"><ele>225.33333333333331</ele><time>2026-04-03T15:54:23.999Z</time></trkpt><trkpt lat="42.46378968398005" lon="11.74997969944297"><ele>224.66666666666666</ele><time>2026-04-03T15:54:24.999Z</time></trkpt><trkpt lat="42.46381356481053" lon="11.749884856425597"><ele>224.0</ele><time>2026-04-03T15:54:25.999Z</time></trkpt><trkpt lat="42.463837444549604" lon="11.749799459267232"><ele>223.33333333333331</ele><time>2026-04-03T15:54:26.999Z</time></trkpt><trkpt lat="42.46386641248673" lon="11.749723670783483"><ele>222.66666666666666</ele><time>2026-04-03T15:54:27.999Z</time></trkpt><trkpt lat="42.46391732088299" lon="11.749583750095633"><ele>222.0</ele><time>2026-04-03T15:54:29.999Z</time></trkpt><trkpt lat="42.46394656261211" lon="11.749507720877467"><ele>220.5</ele><time>2026-04-03T15:54:31.999Z</time></trkpt><trkpt lat="42.46386664360349" lon="11.749181388190028"><ele>219.0</ele><time>2026-04-03T15:54:35.999Z</time></trkpt><trkpt lat="42.46370268012712" lon="11.74934172929103"><ele>218.83333333333334</ele><time>2026-04-03T15:54:36.999Z</time></trkpt><trkpt lat="42.46360207379768" lon="11.749312369749314"><ele>218.66666666666669</ele><time>2026-04-03T15:54:37.999Z</time></trkpt><trkpt lat="42.46351814756606" lon="11.749289475640245"><ele>218.5</ele><time>2026-04-03T15:54:38.999Z</time></trkpt><trkpt lat="42.46344006912685" lon="11.749268435187364"><ele>218.33333333333334</ele><time>2026-04-03T15:54:39.999Z</time></trkpt><trkpt lat="42.46336519790294" lon="11.749245496307033"><ele>218.16666666666669</ele><time>2026-04-03T15:54:40.999Z</time></trkpt><trkpt lat="42.46328931439495" lon="11.74922345753658"><ele>218.0</ele><time>2026-04-03T15:54:41.999Z</time></trkpt><trkpt lat="42.463218771993056" lon="11.749205296144389"><ele>218.00000000000003</ele><time>2026-04-03T15:54:42.999Z</time></trkpt><trkpt lat="42.46314526616699" lon="11.749185292292632"><ele>218.0</ele><time>2026-04-03T15:54:43.999Z</time></trkpt><trkpt lat="42.46306438066175" lon="11.749166480593681"><ele>218.0</ele><time>2026-04-03T15:54:44.999Z</time></trkpt><trkpt lat="42.46298353455999" lon="11.74914943754068"><ele>218.0</ele><time>2026-04-03T15:54:45.999Z</time></trkpt><trkpt lat="42.462909261684764" lon="11.749128792951078"><ele>218.00000000000003</ele><time>2026-04-03T15:54:46.999Z</time></trkpt><trkpt lat="42.46284686437847" lon="11.749084835029425"><ele>218.0</ele><time>2026-04-03T15:54:47.999Z</time></trkpt><trkpt lat="42.46278291196705" lon="11.74904443032647"><ele>218.66666666666669</ele><time>2026-04-03T15:54:48.999Z</time></trkpt><trkpt lat="42.462715936483875" lon="11.748994916581001"><ele>219.33333333333334</ele><time>2026-04-03T15:54:49.999Z</time></trkpt><trkpt lat="42.46266099919278" lon="11.748928312228317"><ele>220.0</ele><time>2026-04-03T15:54:50.999Z</time></trkpt><trkpt lat="42.46260117889925" lon="11.748847001077726"><ele>220.66666666666669</ele><time>2026-04-03T15:54:51.999Z</time></trkpt><trkpt lat="42.46253739377888" lon="11.748751940442583"><ele>221.33333333333334</ele><time>2026-04-03T15:54:52.999Z</time></trkpt><trkpt lat="42.46247120786848" lon="11.748649501070782"><ele>222.0</ele><time>2026-04-03T15:54:53.999Z</time></trkpt><trkpt lat="42.462409510857476" lon="11.748550438230431"><ele>222.0</ele><time>2026-04-03T15:54:54.999Z</time></trkpt><trkpt lat="42.4623500600975" lon="11.748450151842539"><ele>222.0</ele><time>2026-04-03T15:54:55.999Z</time></trkpt><trkpt lat="42.46229072453959" lon="11.74834838445969"><ele>222.0</ele><time>2026-04-03T15:54:56.999Z</time></trkpt><trkpt lat="42.462233255060234" lon="11.748246453051351"><ele>222.0</ele><time>2026-04-03T15:54:57.999Z</time></trkpt><trkpt lat="42.4621714574772" lon="11.748131911889017"><ele>222.0</ele><time>2026-04-03T15:54:58.999Z</time></trkpt><trkpt lat="42.462111923881366" lon="11.748011046004981"><ele>221.8</ele><time>2026-04-03T15:54:59.999Z</time></trkpt><trkpt lat="42.46204582406345" lon="11.747893045477179"><ele>221.6</ele><time>2026-04-03T15:55:00.999Z</time></trkpt><trkpt lat="42.461986981878596" lon="11.747760565043095"><ele>221.40000000000003</ele><time>2026-04-03T15:55:01.999Z</time></trkpt><trkpt lat="42.46193145502671" lon="11.747623950044673"><ele>221.20000000000002</ele><time>2026-04-03T15:55:02.999Z</time></trkpt><trkpt lat="42.46187402246595" lon="11.747502699293552"><ele>221.0</ele><time>2026-04-03T15:55:03.999Z</time></trkpt><trkpt lat="42.461827078615386" lon="11.7473932470063"><ele>221.0</ele><time>2026-04-03T15:55:04.999Z</time></trkpt><trkpt lat="42.46179935221541" lon="11.747277632313432"><ele>221.00000000000003</ele><time>2026-04-03T15:55:05.999Z</time></trkpt><trkpt lat="42.461756666987306" lon="11.747159179598288"><ele>221.00000000000003</ele><time>2026-04-03T15:55:06.999Z</time></trkpt><trkpt lat="42.4617156112279" lon="11.747045272783277"><ele>221.0</ele><time>2026-04-03T15:55:07.999Z</time></trkpt><trkpt lat="42.46167798468788" lon="11.7469443915396"><ele>221.0</ele><time>2026-04-03T15:55:08.999Z</time></trkpt><trkpt lat="42.46163853267966" lon="11.74683861598588"><ele>220.25</ele><time>2026-04-03T15:55:09.999Z</time></trkpt><trkpt lat="42.461589422402106" lon="11.746706945447455"><ele>219.5</ele><time>2026-04-03T15:55:10.999Z</time></trkpt><trkpt lat="42.461523217827555" lon="11.746573407168109"><ele>218.75</ele><time>2026-04-03T15:55:11.999Z</time></trkpt><trkpt lat="42.461477839483074" lon="11.746434912090034"><ele>218.0</ele><time>2026-04-03T15:55:12.999Z</time></trkpt><trkpt lat="42.461417591044444" lon="11.74627484283597"><ele>218.0</ele><time>2026-04-03T15:55:13.999Z</time></trkpt><trkpt lat="42.461348991549855" lon="11.746088813415636"><ele>218.0</ele><time>2026-04-03T15:55:14.999Z</time></trkpt><trkpt lat="42.46128183127997" lon="11.745888722830685"><ele>218.0</ele><time>2026-04-03T15:55:16Z</time></trkpt><trkpt lat="42.46121297948537" lon="11.74568000309654"><ele>219.0</ele><time>2026-04-03T15:55:17Z</time></trkpt><trkpt lat="42.46114745059061" lon="11.74547095689618"><ele>220.0</ele><time>2026-04-03T15:55:18Z</time></trkpt><trkpt lat="42.46108512411842" lon="11.745260194275197"><ele>221.0</ele><time>2026-04-03T15:55:19Z</time></trkpt><trkpt lat="42.46101848409198" lon="11.745038393326343"><ele>221.33333333333334</ele><time>2026-04-03T15:55:20Z</time></trkpt><trkpt lat="42.460951721955894" lon="11.744801849417026"><ele>221.66666666666669</ele><time>2026-04-03T15:55:21Z</time></trkpt><trkpt lat="42.46088778986276" lon="11.7445499364377"><ele>222.0</ele><time>2026-04-03T15:55:22Z</time></trkpt><trkpt lat="42.46082455839197" lon="11.744299123211219"><ele>221.0</ele><time>2026-04-03T15:55:23Z</time></trkpt><trkpt lat="42.460776072992864" lon="11.744053301070894"><ele>220.0</ele><time>2026-04-03T15:55:24Z</time></trkpt><trkpt lat="42.46070386436858" lon="11.7438259885614"><ele>219.0</ele><time>2026-04-03T15:55:25Z</time></trkpt><trkpt lat="42.46061429225224" lon="11.74361936709196"><ele>217.33333333333331</ele><time>2026-04-03T15:55:26Z</time></trkpt><trkpt lat="42.460525992392704" lon="11.743428778408754"><ele>215.66666666666666</ele><time>2026-04-03T15:55:27Z</time></trkpt><trkpt lat="42.46043802096131" lon="11.743255477305427"><ele>214.0</ele><time>2026-04-03T15:55:28Z</time></trkpt><trkpt lat="42.46033985298699" lon="11.743110407604922"><ele>214.0</ele><time>2026-04-03T15:55:29Z</time></trkpt><trkpt lat="42.4602124818798" lon="11.743009980565901"><ele>214.0</ele><time>2026-04-03T15:55:30Z</time></trkpt><trkpt lat="42.46008060618411" lon="11.74294744610054"><ele>214.0</ele><time>2026-04-03T15:55:31Z</time></trkpt><trkpt lat="42.45994137626686" lon="11.74294052984991"><ele>214.0</ele><time>2026-04-03T15:55:32Z</time></trkpt><trkpt lat="42.459815801041344" lon="11.742962838593353"><ele>214.0</ele><time>2026-04-03T15:55:33Z</time></trkpt><trkpt lat="42.45970287590282" lon="11.742982197423569"><ele>214.0</ele><time>2026-04-03T15:55:34Z</time></trkpt><trkpt lat="42.45959217058424" lon="11.742968479335978"><ele>214.0</ele><time>2026-04-03T15:55:35Z</time></trkpt><trkpt lat="42.45947256923801" lon="11.742892150895393"><ele>214.0</ele><time>2026-04-03T15:55:36Z</time></trkpt><trkpt lat="42.459343890032905" lon="11.742766014647094"><ele>212.75</ele><time>2026-04-03T15:55:37Z</time></trkpt><trkpt lat="42.45923057437152" lon="11.742633727264993"><ele>211.5</ele><time>2026-04-03T15:55:38Z</time></trkpt><trkpt lat="42.459129114660534" lon="11.74251232306829"><ele>210.25</ele><time>2026-04-03T15:55:39Z</time></trkpt><trkpt lat="42.459027240113535" lon="11.742401373036955"><ele>209.0</ele><time>2026-04-03T15:55:40Z</time></trkpt><trkpt lat="42.45894985074135" lon="11.742273088410428"><ele>209.0</ele><time>2026-04-03T15:55:41Z</time></trkpt><trkpt lat="42.45889527773577" lon="11.742136065037853"><ele>209.0</ele><time>2026-04-03T15:55:42Z</time></trkpt><trkpt lat="42.458829007029394" lon="11.742012946094569"><ele>209.0</ele><time>2026-04-03T15:55:43Z</time></trkpt><trkpt lat="42.458755216818666" lon="11.741882933698705"><ele>209.0</ele><time>2026-04-03T15:55:44Z</time></trkpt><trkpt lat="42.45866086267201" lon="11.741761736369588"><ele>208.6</ele><time>2026-04-03T15:55:45Z</time></trkpt><trkpt lat="42.45856855227719" lon="11.741661771560793"><ele>208.2</ele><time>2026-04-03T15:55:46Z</time></trkpt><trkpt lat="42.45847874083045" lon="11.741571807698541"><ele>207.79999999999998</ele><time>2026-04-03T15:55:47Z</time></trkpt><trkpt lat="42.458394153780525" lon="11.74149012724115"><ele>207.39999999999998</ele><time>2026-04-03T15:55:48Z</time></trkpt><trkpt lat="42.45831173245119" lon="11.741413874570496"><ele>207.0</ele><time>2026-04-03T15:55:49Z</time></trkpt><trkpt lat="42.45822722440339" lon="11.741342511066806"><ele>207.0</ele><time>2026-04-03T15:55:50Z</time></trkpt><trkpt lat="42.45812155980589" lon="11.741275864987474"><ele>207.0</ele><time>2026-04-03T15:55:51Z</time></trkpt><trkpt lat="42.457984477375" lon="11.741243017695746"><ele>207.0</ele><time>2026-04-03T15:55:52Z</time></trkpt><trkpt lat="42.45784530273926" lon="11.741234576840998"><ele>207.0</ele><time>2026-04-03T15:55:53Z</time></trkpt><trkpt lat="42.45770250705766" lon="11.741227438802914"><ele>206.5</ele><time>2026-04-03T15:55:54Z</time></trkpt><trkpt lat="42.45755823368451" lon="11.741214768956894"><ele>206.0</ele><time>2026-04-03T15:55:55Z</time></trkpt><trkpt lat="42.4574174660954" lon="11.741198970787714"><ele>205.5</ele><time>2026-04-03T15:55:56Z</time></trkpt><trkpt lat="42.45728337034265" lon="11.741182203750393"><ele>205.0</ele><time>2026-04-03T15:55:57Z</time></trkpt><trkpt lat="42.457159890687905" lon="11.741168313117065"><ele>204.8</ele><time>2026-04-03T15:55:58Z</time></trkpt><trkpt lat="42.45703931139604" lon="11.741161407795676"><ele>204.6</ele><time>2026-04-03T15:55:59Z</time></trkpt><trkpt lat="42.4569249862819" lon="11.741158963911328"><ele>204.39999999999998</ele><time>2026-04-03T15:56:00Z</time></trkpt><trkpt lat="42.45681759924119" lon="11.741158328384195"><ele>204.2</ele><time>2026-04-03T15:56:01Z</time></trkpt><trkpt lat="42.456714894123316" lon="11.741157292632018"><ele>204.0</ele><time>2026-04-03T15:56:02Z</time></trkpt><trkpt lat="42.4566076469811" lon="11.741155631139053"><ele>204.0</ele><time>2026-04-03T15:56:03Z</time></trkpt><trkpt lat="42.45648647445432" lon="11.74114715983159"><ele>204.0</ele><time>2026-04-03T15:56:04Z</time></trkpt><trkpt lat="42.45635057101651" lon="11.741119263306288"><ele>204.0</ele><time>2026-04-03T15:56:05Z</time></trkpt><trkpt lat="42.4562056394657" lon="11.741077896641972"><ele>204.0</ele><time>2026-04-03T15:56:06Z</time></trkpt><trkpt lat="42.45605479892403" lon="11.74102191412782"><ele>203.25</ele><time>2026-04-03T15:56:07Z</time></trkpt><trkpt lat="42.45590530264969" lon="11.74096159679648"><ele>202.5</ele><time>2026-04-03T15:56:08Z</time></trkpt><trkpt lat="42.45576632078757" lon="11.74090463428545"><ele>201.75</ele><time>2026-04-03T15:56:09Z</time></trkpt><trkpt lat="42.45563385241781" lon="11.740850255096133"><ele>201.0</ele><time>2026-04-03T15:56:10Z</time></trkpt><trkpt lat="42.455505857309376" lon="11.740797711997478"><ele>199.75</ele><time>2026-04-03T15:56:11Z</time></trkpt><trkpt lat="42.4553881654158" lon="11.740740859248936"><ele>198.5</ele><time>2026-04-03T15:56:12Z</time></trkpt><trkpt lat="42.455280159678956" lon="11.740667665143402"><ele>197.25</ele><time>2026-04-03T15:56:13Z</time></trkpt><trkpt lat="42.45517554900637" lon="11.740586237292444"><ele>196.0</ele><time>2026-04-03T15:56:14Z</time></trkpt><trkpt lat="42.45507158225464" lon="11.740497304065713"><ele>196.0</ele><time>2026-04-03T15:56:15Z</time></trkpt><trkpt lat="42.45496328835119" lon="11.740406035741893"><ele>196.0</ele><time>2026-04-03T15:56:16Z</time></trkpt><trkpt lat="42.45485099795061" lon="11.740313732402047"><ele>196.0</ele><time>2026-04-03T15:56:17Z</time></trkpt><trkpt lat="42.45473300419224" lon="11.74021459645087"><ele>196.0</ele><time>2026-04-03T15:56:18Z</time></trkpt><trkpt lat="42.45460506639836" lon="11.740105716241558"><ele>195.0</ele><time>2026-04-03T15:56:19Z</time></trkpt><trkpt lat="42.4544685929972" lon="11.739986593311595"><ele>194.0</ele><time>2026-04-03T15:56:20Z</time></trkpt><trkpt lat="42.45433119961462" lon="11.739846616408988"><ele>193.0</ele><time>2026-04-03T15:56:20.999Z</time></trkpt><trkpt lat="42.45419608609352" lon="11.73969324222894"><ele>193.0</ele><time>2026-04-03T15:56:21.999Z</time></trkpt><trkpt lat="42.45407436138055" lon="11.73954099339185"><ele>193.0</ele><time>2026-04-03T15:56:22.999Z</time></trkpt><trkpt lat="42.45395938328158" lon="11.739393549458695"><ele>193.0</ele><time>2026-04-03T15:56:23.999Z</time></trkpt><trkpt lat="42.45385718620801" lon="11.739253626551422"><ele>192.66666666666666</ele><time>2026-04-03T15:56:24.999Z</time></trkpt><trkpt lat="42.45378226812044" lon="11.739139576876562"><ele>192.33333333333331</ele><time>2026-04-03T15:56:25.999Z</time></trkpt><trkpt lat="42.45372122390562" lon="11.739042840107956"><ele>192.0</ele><time>2026-04-03T15:56:26.999Z</time></trkpt><trkpt lat="42.453662036091195" lon="11.738974885874892"><ele>191.66666666666666</ele><time>2026-04-03T15:56:27.999Z</time></trkpt><trkpt lat="42.453648096307894" lon="11.738883770089416"><ele>191.33333333333331</ele><time>2026-04-03T15:56:28.999Z</time></trkpt><trkpt lat="42.45366767218323" lon="11.73879753438785"><ele>191.0</ele><time>2026-04-03T15:56:29.999Z</time></trkpt><trkpt lat="42.45371630709098" lon="11.738721603170282"><ele>191.0</ele><time>2026-04-03T15:56:30.999Z</time></trkpt><trkpt lat="42.45378605876287" lon="11.738660388054274"><ele>191.0</ele><time>2026-04-03T15:56:31.999Z</time></trkpt><trkpt lat="42.4538611994549" lon="11.738629392976643"><ele>191.0</ele><time>2026-04-03T15:56:32.999Z</time></trkpt><trkpt lat="42.4539320920296" lon="11.738604951497937"><ele>191.0</ele><time>2026-04-03T15:56:33.999Z</time></trkpt><trkpt lat="42.4540096110621" lon="11.73866213036198"><ele>191.0</ele><time>2026-04-03T15:56:34.999Z</time></trkpt><trkpt lat="42.454089875225975" lon="11.738733217373646"><ele>191.0</ele><time>2026-04-03T15:56:35.999Z</time></trkpt><trkpt lat="42.454182417145276" lon="11.738842996258262"><ele>190.75</ele><time>2026-04-03T15:56:36.999Z</time></trkpt><trkpt lat="42.454281638332304" lon="11.73896240781519"><ele>190.5</ele><time>2026-04-03T15:56:37.999Z</time></trkpt><trkpt lat="42.45438157685646" lon="11.739074287034015"><ele>190.25</ele><time>2026-04-03T15:56:38.999Z</time></trkpt><trkpt lat="42.45447507507783" lon="11.739183960186384"><ele>190.0</ele><time>2026-04-03T15:56:39.999Z</time></trkpt><trkpt lat="42.45457253346314" lon="11.739295219561685"><ele>190.5</ele><time>2026-04-03T15:56:40.999Z</time></trkpt><trkpt lat="42.45467378292248" lon="11.73941061215302"><ele>191.0</ele><time>2026-04-03T15:56:41.999Z</time></trkpt><trkpt lat="42.45477358217318" lon="11.73951260422409"><ele>191.5</ele><time>2026-04-03T15:56:42.999Z</time></trkpt><trkpt lat="42.45487198633552" lon="11.739600354789449"><ele>192.0</ele><time>2026-04-03T15:56:43.999Z</time></trkpt><trkpt lat="42.45497524115643" lon="11.73966606502609"><ele>192.0</ele><time>2026-04-03T15:56:44.999Z</time></trkpt><trkpt lat="42.455087399008775" lon="11.739707788714174"><ele>192.0</ele><time>2026-04-03T15:56:45.999Z</time></trkpt><trkpt lat="42.45520724117665" lon="11.739738249800128"><ele>192.0</ele><time>2026-04-03T15:56:46.999Z</time></trkpt><trkpt lat="42.45532923985555" lon="11.739751974737988"><ele>192.0</ele><time>2026-04-03T15:56:47.999Z</time></trkpt><trkpt lat="42.45544043011541" lon="11.739743030697928"><ele>191.25</ele><time>2026-04-03T15:56:48.999Z</time></trkpt><trkpt lat="42.45554875812384" lon="11.73972529868338"><ele>190.5</ele><time>2026-04-03T15:56:49.999Z</time></trkpt><trkpt lat="42.45566148249048" lon="11.73970576226868"><ele>189.75</ele><time>2026-04-03T15:56:50.999Z</time></trkpt><trkpt lat="42.45578674932049" lon="11.73967976539957"><ele>189.0</ele><time>2026-04-03T15:56:51.999Z</time></trkpt><trkpt lat="42.45591915029492" lon="11.739652234161277"><ele>189.0</ele><time>2026-04-03T15:56:52.999Z</time></trkpt><trkpt lat="42.45604876080137" lon="11.739626037548433"><ele>189.0</ele><time>2026-04-03T15:56:53.999Z</time></trkpt><trkpt lat="42.45617422245941" lon="11.739603679820839"><ele>189.0</ele><time>2026-04-03T15:56:54.999Z</time></trkpt><trkpt lat="42.4562946851776" lon="11.739577397798602"><ele>189.0</ele><time>2026-04-03T15:56:55.999Z</time></trkpt><trkpt lat="42.456409632147576" lon="11.739547189488253"><ele>189.75</ele><time>2026-04-03T15:56:56.999Z</time></trkpt><trkpt lat="42.456521190183174" lon="11.739524316209216"><ele>190.5</ele><time>2026-04-03T15:56:57.999Z</time></trkpt><trkpt lat="42.45664315482179" lon="11.739498999929449"><ele>191.25</ele><time>2026-04-03T15:56:58.999Z</time></trkpt><trkpt lat="42.45676229081991" lon="11.739477292865711"><ele>192.0</ele><time>2026-04-03T15:56:59.999Z</time></trkpt><trkpt lat="42.45687140456854" lon="11.73945134920217"><ele>192.0</ele><time>2026-04-03T15:57:00.999Z</time></trkpt><trkpt lat="42.45697343027106" lon="11.739425190856812"><ele>192.0</ele><time>2026-04-03T15:57:01.999Z</time></trkpt><trkpt lat="42.45706789970121" lon="11.73940833231396"><ele>192.0</ele><time>2026-04-03T15:57:02.999Z</time></trkpt><trkpt lat="42.45715842123228" lon="11.739412702714022"><ele>192.0</ele><time>2026-04-03T15:57:03.999Z</time></trkpt><trkpt lat="42.45725796214256" lon="11.739439935169443"><ele>192.0</ele><time>2026-04-03T15:57:04.999Z</time></trkpt><trkpt lat="42.45737326010808" lon="11.73950266627209"><ele>190.2</ele><time>2026-04-03T15:57:05.999Z</time></trkpt><trkpt lat="42.45747578364417" lon="11.73954742533219"><ele>188.39999999999998</ele><time>2026-04-03T15:57:06.999Z</time></trkpt><trkpt lat="42.45757512762474" lon="11.739567187061311"><ele>186.60000000000002</ele><time>2026-04-03T15:57:07.999Z</time></trkpt><trkpt lat="42.457667193172696" lon="11.739560959200647"><ele>184.8</ele><time>2026-04-03T15:57:08.999Z</time></trkpt><trkpt lat="42.457743754793334" lon="11.739525945005774"><ele>183.0</ele><time>2026-04-03T15:57:09.999Z</time></trkpt><trkpt lat="42.45779901313149" lon="11.739453896981097"><ele>177.25</ele><time>2026-04-03T15:57:10.999Z</time></trkpt><trkpt lat="42.45784310779124" lon="11.739341243477545"><ele>171.5</ele><time>2026-04-03T15:57:11.999Z</time></trkpt><trkpt lat="42.45788601389944" lon="11.739186072611245"><ele>165.75</ele><time>2026-04-03T15:57:12.999Z</time></trkpt><trkpt lat="42.45792535149487" lon="11.739013856365677"><ele>160.0</ele><time>2026-04-03T15:57:13.999Z</time></trkpt><trkpt lat="42.45796602384181" lon="11.738827828745764"><ele>160.0</ele><time>2026-04-03T15:57:14.999Z</time></trkpt><trkpt lat="42.458006249224994" lon="11.73866886449245"><ele>160.0</ele><time>2026-04-03T15:57:15.999Z</time></trkpt><trkpt lat="42.45804498803903" lon="11.73852467866062"><ele>160.0</ele><time>2026-04-03T15:57:16.999Z</time></trkpt><trkpt lat="42.458069721559816" lon="11.738389421287314"><ele>160.0</ele><time>2026-04-03T15:57:17.999Z</time></trkpt><trkpt lat="42.45805782275662" lon="11.738262302536011"><ele>160.0</ele><time>2026-04-03T15:57:18.999Z</time></trkpt><trkpt lat="42.45801569001089" lon="11.738122523664568"><ele>159.5</ele><time>2026-04-03T15:57:19.999Z</time></trkpt><trkpt lat="42.45790124738675" lon="11.7380196233396"><ele>159.0</ele><time>2026-04-03T15:57:20.999Z</time></trkpt><trkpt lat="42.45781330200653" lon="11.737896444493131"><ele>158.5</ele><time>2026-04-03T15:57:22Z</time></trkpt><trkpt lat="42.4577395302407" lon="11.73773120217092"><ele>158.0</ele><time>2026-04-03T15:57:23Z</time></trkpt><trkpt lat="42.45768103928193" lon="11.737575275469231"><ele>158.0</ele><time>2026-04-03T15:57:24Z</time></trkpt><trkpt lat="42.457628311614236" lon="11.73744412882166"><ele>158.0</ele><time>2026-04-03T15:57:25Z</time></trkpt><trkpt lat="42.45759668516275" lon="11.737317999560593"><ele>158.0</ele><time>2026-04-03T15:57:26Z</time></trkpt><trkpt lat="42.45760337185472" lon="11.737208787486871"><ele>158.0</ele><time>2026-04-03T15:57:27Z</time></trkpt><trkpt lat="42.4576490162662" lon="11.737123793560139"><ele>158.0</ele><time>2026-04-03T15:57:28Z</time></trkpt><trkpt lat="42.45771913661559" lon="11.737068545781385"><ele>158.0</ele><time>2026-04-03T15:57:29Z</time></trkpt><trkpt lat="42.457800165298586" lon="11.737071751163198"><ele>158.0</ele><time>2026-04-03T15:57:30Z</time></trkpt><trkpt lat="42.457863283255136" lon="11.737128555037966"><ele>158.0</ele><time>2026-04-03T15:57:31Z</time></trkpt><trkpt lat="42.45789719102282" lon="11.737222426990803"><ele>158.0</ele><time>2026-04-03T15:57:32Z</time></trkpt><trkpt lat="42.45789932361622" lon="11.737351205575528"><ele>158.0</ele><time>2026-04-03T15:57:33Z</time></trkpt><trkpt lat="42.45790678400109" lon="11.737458851111327"><ele>158.0</ele><time>2026-04-03T15:57:34Z</time></trkpt><trkpt lat="42.45795329598116" lon="11.737558270426234"><ele>158.0</ele><time>2026-04-03T15:57:35Z</time></trkpt><trkpt lat="42.458028909579134" lon="11.737627058849027"><ele>161.4</ele><time>2026-04-03T15:57:36Z</time></trkpt><trkpt lat="42.458118174159786" lon="11.737635255778251"><ele>164.8</ele><time>2026-04-03T15:57:37Z</time></trkpt><trkpt lat="42.45820101967839" lon="11.737581562341166"><ele>168.2</ele><time>2026-04-03T15:57:38Z</time></trkpt><trkpt lat="42.458259468904004" lon="11.73748946465827"><ele>171.6</ele><time>2026-04-03T15:57:39Z</time></trkpt><trkpt lat="42.45827174448319" lon="11.737373060640437"><ele>175.0</ele><time>2026-04-03T15:57:40Z</time></trkpt><trkpt lat="42.45823799542463" lon="11.737240752306933"><ele>175.0</ele><time>2026-04-03T15:57:41Z</time></trkpt><trkpt lat="42.458170916259654" lon="11.737107408123187"><ele>175.0</ele><time>2026-04-03T15:57:42Z</time></trkpt><trkpt lat="42.458065049816604" lon="11.736993674580468"><ele>175.0</ele><time>2026-04-03T15:57:43Z</time></trkpt><trkpt lat="42.45795295262271" lon="11.736871961112216"><ele>175.0</ele><time>2026-04-03T15:57:44Z</time></trkpt><trkpt lat="42.457832658162346" lon="11.73674072569586"><ele>173.5</ele><time>2026-04-03T15:57:44.999Z</time></trkpt><trkpt lat="42.457726444714154" lon="11.736624851911577"><ele>172.0</ele><time>2026-04-03T15:57:45.999Z</time></trkpt><trkpt lat="42.45763086771756" lon="11.736520581756002"><ele>170.5</ele><time>2026-04-03T15:57:46.999Z</time></trkpt><trkpt lat="42.45754029262125" lon="11.736416203409219"><ele>169.0</ele><time>2026-04-03T15:57:47.999Z</time></trkpt><trkpt lat="42.457457761856425" lon="11.736300282950383"><ele>169.0</ele><time>2026-04-03T15:57:48.999Z</time></trkpt><trkpt lat="42.45737759170156" lon="11.736175318763852"><ele>169.0</ele><time>2026-04-03T15:57:49.999Z</time></trkpt><trkpt lat="42.45730518106409" lon="11.736047714452031"><ele>169.0</ele><time>2026-04-03T15:57:50.999Z</time></trkpt><trkpt lat="42.457280813777864" lon="11.735884807000335"><ele>169.0</ele><time>2026-04-03T15:57:51.999Z</time></trkpt><trkpt lat="42.45729404673836" lon="11.735716161067744"><ele>172.25</ele><time>2026-04-03T15:57:52.999Z</time></trkpt><trkpt lat="42.457349443113266" lon="11.735566869796264"><ele>175.5</ele><time>2026-04-03T15:57:53.999Z</time></trkpt><trkpt lat="42.45743346873415" lon="11.735437221555602"><ele>178.75</ele><time>2026-04-03T15:57:54.999Z</time></trkpt><trkpt lat="42.45752921832084" lon="11.735333165650118"><ele>182.0</ele><time>2026-04-03T15:57:55.999Z</time></trkpt><trkpt lat="42.45762650961956" lon="11.735253428599496"><ele>182.8</ele><time>2026-04-03T15:57:56.999Z</time></trkpt><trkpt lat="42.457725458624495" lon="11.73517950163061"><ele>183.6</ele><time>2026-04-03T15:57:57.999Z</time></trkpt><trkpt lat="42.45781239714515" lon="11.735109305217142"><ele>184.4</ele><time>2026-04-03T15:57:58.999Z</time></trkpt><trkpt lat="42.45787852423467" lon="11.735036441885324"><ele>185.20000000000002</ele><time>2026-04-03T15:57:59.999Z</time></trkpt><trkpt lat="42.45791921746766" lon="11.734922958894055"><ele>186.0</ele><time>2026-04-03T15:58:00.999Z</time></trkpt><trkpt lat="42.45794187943611" lon="11.734784150944774"><ele>186.0</ele><time>2026-04-03T15:58:01.999Z</time></trkpt><trkpt lat="42.45789563899604" lon="11.734623485742903"><ele>186.0</ele><time>2026-04-03T15:58:02.999Z</time></trkpt><trkpt lat="42.45777655520269" lon="11.734500533661254"><ele>186.0</ele><time>2026-04-03T15:58:03.999Z</time></trkpt><trkpt lat="42.45766066021227" lon="11.734386387327685"><ele>186.0</ele><time>2026-04-03T15:58:04.999Z</time></trkpt><trkpt lat="42.457540282510884" lon="11.734286845602435"><ele>186.66666666666666</ele><time>2026-04-03T15:58:05.999Z</time></trkpt><trkpt lat="42.457393710305176" lon="11.734220557945505"><ele>187.33333333333331</ele><time>2026-04-03T15:58:06.999Z</time></trkpt><trkpt lat="42.45724631681464" lon="11.734180047248492"><ele>188.0</ele><time>2026-04-03T15:58:07.999Z</time></trkpt><trkpt lat="42.45709934484687" lon="11.734150702070703"><ele>188.0</ele><time>2026-04-03T15:58:08.999Z</time></trkpt><trkpt lat="42.45696512634112" lon="11.734125609541548"><ele>188.0</ele><time>2026-04-03T15:58:09.999Z</time></trkpt><trkpt lat="42.45684754160935" lon="11.734102057589874"><ele>188.0</ele><time>2026-04-03T15:58:10.999Z</time></trkpt><trkpt lat="42.45676081906454" lon="11.734067000663769"><ele>188.0</ele><time>2026-04-03T15:58:11.999Z</time></trkpt><trkpt lat="42.45669421652074" lon="11.734033566920681"><ele>188.0</ele><time>2026-04-03T15:58:12.999Z</time></trkpt><trkpt lat="42.456666386369236" lon="11.733927374684406"><ele>188.0</ele><time>2026-04-03T15:58:13.999Z</time></trkpt><trkpt lat="42.456688491399746" lon="11.73380161069552"><ele>188.0</ele><time>2026-04-03T15:58:14.999Z</time></trkpt><trkpt lat="42.45675509833857" lon="11.733672696400928"><ele>188.0</ele><time>2026-04-03T15:58:15.999Z</time></trkpt><trkpt lat="42.45683913396308" lon="11.733539979051491"><ele>188.0</ele><time>2026-04-03T15:58:16.999Z</time></trkpt><trkpt lat="42.45691718045922" lon="11.733405018521367"><ele>187.75</ele><time>2026-04-03T15:58:17.999Z</time></trkpt><trkpt lat="42.457000601961454" lon="11.733281528000756"><ele>187.5</ele><time>2026-04-03T15:58:18.999Z</time></trkpt><trkpt lat="42.457103627612376" lon="11.733187165735197"><ele>187.25</ele><time>2026-04-03T15:58:19.999Z</time></trkpt><trkpt lat="42.457232032577004" lon="11.733158197921446"><ele>187.0</ele><time>2026-04-03T15:58:20.999Z</time></trkpt><trkpt lat="42.457373210348635" lon="11.733186814737739"><ele>192.0</ele><time>2026-04-03T15:58:21.999Z</time></trkpt><trkpt lat="42.45754139910646" lon="11.733242598098888"><ele>197.0</ele><time>2026-04-03T15:58:22.999Z</time></trkpt><trkpt lat="42.45771318929127" lon="11.733269648166324"><ele>202.0</ele><time>2026-04-03T15:58:23.999Z</time></trkpt><trkpt lat="42.45788855205229" lon="11.733297902515057"><ele>205.0</ele><time>2026-04-03T15:58:24.999Z</time></trkpt><trkpt lat="42.458061898159656" lon="11.733323058171294"><ele>208.0</ele><time>2026-04-03T15:58:25.999Z</time></trkpt><trkpt lat="42.45821718040039" lon="11.733350730313585"><ele>211.0</ele><time>2026-04-03T15:58:26.999Z</time></trkpt><trkpt lat="42.45835479027184" lon="11.73338885312886"><ele>211.0</ele><time>2026-04-03T15:58:27.999Z</time></trkpt><trkpt lat="42.45848113748124" lon="11.733408921342823"><ele>211.0</ele><time>2026-04-03T15:58:28.999Z</time></trkpt><trkpt lat="42.45859986388388" lon="11.73338662136623"><ele>211.0</ele><time>2026-04-03T15:58:29.998Z</time></trkpt><trkpt lat="42.45870619468177" lon="11.73329720132877"><ele>211.0</ele><time>2026-04-03T15:58:30.998Z</time></trkpt><trkpt lat="42.45881106538469" lon="11.733147696696946"><ele>211.33333333333331</ele><time>2026-04-03T15:58:31.998Z</time></trkpt><trkpt lat="42.45891130574008" lon="11.732973215521886"><ele>211.66666666666669</ele><time>2026-04-03T15:58:32.998Z</time></trkpt><trkpt lat="42.45902792846634" lon="11.732788436983576"><ele>212.0</ele><time>2026-04-03T15:58:33.998Z</time></trkpt><trkpt lat="42.459147865542036" lon="11.73260151815438"><ele>213.33333333333334</ele><time>2026-04-03T15:58:34.998Z</time></trkpt><trkpt lat="42.459262607325606" lon="11.732418712771718"><ele>214.66666666666669</ele><time>2026-04-03T15:58:35.998Z</time></trkpt><trkpt lat="42.45937182045462" lon="11.732236140921362"><ele>216.0</ele><time>2026-04-03T15:58:36.998Z</time></trkpt><trkpt lat="42.459478328508226" lon="11.732062756185078"><ele>216.0</ele><time>2026-04-03T15:58:37.998Z</time></trkpt><trkpt lat="42.45958934297686" lon="11.73189634656221"><ele>216.0</ele><time>2026-04-03T15:58:38.998Z</time></trkpt><trkpt lat="42.45971108041965" lon="11.731730637621345"><ele>216.0</ele><time>2026-04-03T15:58:39.998Z</time></trkpt><trkpt lat="42.45985574699167" lon="11.731562802607783"><ele>217.33333333333331</ele><time>2026-04-03T15:58:40.998Z</time></trkpt><trkpt lat="42.46001469600022" lon="11.73139403875597"><ele>218.66666666666666</ele><time>2026-04-03T15:58:41.998Z</time></trkpt><trkpt lat="42.46016823969294" lon="11.731203248968324"><ele>220.0</ele><time>2026-04-03T15:58:42.998Z</time></trkpt><trkpt lat="42.46033209819291" lon="11.7310209418588"><ele>220.0</ele><time>2026-04-03T15:58:43.998Z</time></trkpt><trkpt lat="42.46049189588094" lon="11.730837726753109"><ele>220.0</ele><time>2026-04-03T15:58:44.998Z</time></trkpt><trkpt lat="42.46065040358159" lon="11.7306317232191"><ele>220.0</ele><time>2026-04-03T15:58:45.998Z</time></trkpt><trkpt lat="42.460793151625666" lon="11.730468454378808"><ele>220.0</ele><time>2026-04-03T15:58:46.998Z</time></trkpt><trkpt lat="42.46092925173766" lon="11.730314648125853"><ele>220.0</ele><time>2026-04-03T15:58:47.998Z</time></trkpt><trkpt lat="42.4610696685006" lon="11.730159798721866"><ele>220.0</ele><time>2026-04-03T15:58:48.998Z</time></trkpt><trkpt lat="42.461207526147184" lon="11.730003027640178"><ele>221.66666666666666</ele><time>2026-04-03T15:58:49.998Z</time></trkpt><trkpt lat="42.46134039472951" lon="11.7298571686301"><ele>223.33333333333331</ele><time>2026-04-03T15:58:50.998Z</time></trkpt><trkpt lat="42.46147200659347" lon="11.729729962333188"><ele>225.0</ele><time>2026-04-03T15:58:51.998Z</time></trkpt><trkpt lat="42.461620047980496" lon="11.72962502770988"><ele>225.0</ele><time>2026-04-03T15:58:52.998Z</time></trkpt><trkpt lat="42.46180373594306" lon="11.729538705753187"><ele>225.0</ele><time>2026-04-03T15:58:53.998Z</time></trkpt><trkpt lat="42.46199419844906" lon="11.729427974880158"><ele>225.0</ele><time>2026-04-03T15:58:54.998Z</time></trkpt><trkpt lat="42.46218992096074" lon="11.729316056501883"><ele>226.0</ele><time>2026-04-03T15:58:55.998Z</time></trkpt><trkpt lat="42.46239372057131" lon="11.729210610060273"><ele>227.0</ele><time>2026-04-03T15:58:56.998Z</time></trkpt><trkpt lat="42.46259377798255" lon="11.72910093446761"><ele>228.0</ele><time>2026-04-03T15:58:57.998Z</time></trkpt><trkpt lat="42.462809419971" lon="11.728986870921698"><ele>229.33333333333331</ele><time>2026-04-03T15:58:58.998Z</time></trkpt><trkpt lat="42.463019870426535" lon="11.728871316710208"><ele>230.66666666666666</ele><time>2026-04-03T15:58:59.998Z</time></trkpt><trkpt lat="42.463222871550734" lon="11.728758281022735"><ele>232.0</ele><time>2026-04-03T15:59:00.998Z</time></trkpt><trkpt lat="42.46341860719508" lon="11.728647328373086"><ele>231.66666666666666</ele><time>2026-04-03T15:59:01.998Z</time></trkpt><trkpt lat="42.46360551074913" lon="11.728539416647552"><ele>231.33333333333331</ele><time>2026-04-03T15:59:02.998Z</time></trkpt><trkpt lat="42.463799537867736" lon="11.72842708801913"><ele>231.0</ele><time>2026-04-03T15:59:03.998Z</time></trkpt><trkpt lat="42.46399187892042" lon="11.728321052014172"><ele>231.0</ele><time>2026-04-03T15:59:04.998Z</time></trkpt><trkpt lat="42.4641858080959" lon="11.728217559106325"><ele>231.0</ele><time>2026-04-03T15:59:05.998Z</time></trkpt><trkpt lat="42.46437348149813" lon="11.728102956369167"><ele>231.0</ele><time>2026-04-03T15:59:06.998Z</time></trkpt><trkpt lat="42.46458031116632" lon="11.7279386099968"><ele>234.0</ele><time>2026-04-03T15:59:07.998Z</time></trkpt><trkpt lat="42.4647859092195" lon="11.727770258713027"><ele>237.0</ele><time>2026-04-03T15:59:08.998Z</time></trkpt><trkpt lat="42.46499380208748" lon="11.727603406517375"><ele>237.0</ele><time>2026-04-03T15:59:09.998Z</time></trkpt><trkpt lat="42.46519122183619" lon="11.727434073238449"><ele>237.0</ele><time>2026-04-03T15:59:10.998Z</time></trkpt><trkpt lat="42.46538726993497" lon="11.727274602119348"><ele>238.0</ele><time>2026-04-03T15:59:11.998Z</time></trkpt><trkpt lat="42.46557419609017" lon="11.727115867644303"><ele>239.0</ele><time>2026-04-03T15:59:12.998Z</time></trkpt><trkpt lat="42.46576529928237" lon="11.726959077690381"><ele>240.0</ele><time>2026-04-03T15:59:13.998Z</time></trkpt><trkpt lat="42.46595812287533" lon="11.726807239593208"><ele>240.33333333333331</ele><time>2026-04-03T15:59:14.998Z</time></trkpt><trkpt lat="42.46614557781191" lon="11.726651845103643"><ele>240.66666666666666</ele><time>2026-04-03T15:59:15.998Z</time></trkpt><trkpt lat="42.46632288598983" lon="11.726503101888921"><ele>241.0</ele><time>2026-04-03T15:59:16.998Z</time></trkpt><trkpt lat="42.466499032287615" lon="11.726355106670326"><ele>241.66666666666666</ele><time>2026-04-03T15:59:17.998Z</time></trkpt><trkpt lat="42.4666850912401" lon="11.726203041980288"><ele>242.33333333333331</ele><time>2026-04-03T15:59:18.998Z</time></trkpt><trkpt lat="42.4668744704517" lon="11.726052078488605"><ele>243.0</ele><time>2026-04-03T15:59:19.998Z</time></trkpt><trkpt lat="42.467062403188294" lon="11.725895991715525"><ele>243.66666666666669</ele><time>2026-04-03T15:59:20.998Z</time></trkpt><trkpt lat="42.46725031163486" lon="11.725740861488699"><ele>244.33333333333334</ele><time>2026-04-03T15:59:21.998Z</time></trkpt><trkpt lat="42.46744161645435" lon="11.72557790563419"><ele>245.0</ele><time>2026-04-03T15:59:22.998Z</time></trkpt><trkpt lat="42.46764206229449" lon="11.725408385715832"><ele>245.0</ele><time>2026-04-03T15:59:23.998Z</time></trkpt><trkpt lat="42.46784416537123" lon="11.725242029898407"><ele>245.0</ele><time>2026-04-03T15:59:24.998Z</time></trkpt><trkpt lat="42.46804729756809" lon="11.725075409414178"><ele>248.5</ele><time>2026-04-03T15:59:25.998Z</time></trkpt><trkpt lat="42.46824337878333" lon="11.724917161491067"><ele>252.0</ele><time>2026-04-03T15:59:26.998Z</time></trkpt><trkpt lat="42.468436071813315" lon="11.724763454090468"><ele>252.0</ele><time>2026-04-03T15:59:27.999Z</time></trkpt><trkpt lat="42.46861604595447" lon="11.724609515837427"><ele>252.0</ele><time>2026-04-03T15:59:28.999Z</time></trkpt><trkpt lat="42.46879242560815" lon="11.72446266227086"><ele>252.0</ele><time>2026-04-03T15:59:29.999Z</time></trkpt><trkpt lat="42.468978879095665" lon="11.724309764112618"><ele>252.0</ele><time>2026-04-03T15:59:30.999Z</time></trkpt><trkpt lat="42.4691679101816" lon="11.724157669955838"><ele>252.0</ele><time>2026-04-03T15:59:31.999Z</time></trkpt><trkpt lat="42.46935729227126" lon="11.723996689457987"><ele>252.0</ele><time>2026-04-03T15:59:32.999Z</time></trkpt><trkpt lat="42.46954740870507" lon="11.723838184758977"><ele>252.0</ele><time>2026-04-03T15:59:33.999Z</time></trkpt><trkpt lat="42.46974054732616" lon="11.723674608209986"><ele>252.0</ele><time>2026-04-03T15:59:34.999Z</time></trkpt><trkpt lat="42.469932402560694" lon="11.72350471716994"><ele>252.0</ele><time>2026-04-03T15:59:35.999Z</time></trkpt><trkpt lat="42.470119368765744" lon="11.723331262381654"><ele>252.0</ele><time>2026-04-03T15:59:36.999Z</time></trkpt><trkpt lat="42.47030363165846" lon="11.723154508118224"><ele>252.0</ele><time>2026-04-03T15:59:38Z</time></trkpt><trkpt lat="42.47048567506456" lon="11.722976844749713"><ele>252.0</ele><time>2026-04-03T15:59:39Z</time></trkpt><trkpt lat="42.47065799287301" lon="11.722818541595991"><ele>252.0</ele><time>2026-04-03T15:59:40Z</time></trkpt><trkpt lat="42.47081889692843" lon="11.722662666364858"><ele>252.66666666666669</ele><time>2026-04-03T15:59:41Z</time></trkpt><trkpt lat="42.47097162449371" lon="11.722520594071526"><ele>253.33333333333334</ele><time>2026-04-03T15:59:42Z</time></trkpt><trkpt lat="42.471117229928936" lon="11.722398427655122"><ele>254.0</ele><time>2026-04-03T15:59:43Z</time></trkpt><trkpt lat="42.47127066503599" lon="11.722315258039876"><ele>255.66666666666669</ele><time>2026-04-03T15:59:44Z</time></trkpt><trkpt lat="42.47144724368227" lon="11.722272505747382"><ele>257.3333333333333</ele><time>2026-04-03T15:59:45Z</time></trkpt><trkpt lat="42.47164232002066" lon="11.722237032886062"><ele>259.0</ele><time>2026-04-03T15:59:46Z</time></trkpt><trkpt lat="42.47184383916511" lon="11.722178115852739"><ele>259.0</ele><time>2026-04-03T15:59:47Z</time></trkpt><trkpt lat="42.472056316801876" lon="11.722130099273242"><ele>259.0</ele><time>2026-04-03T15:59:48Z</time></trkpt><trkpt lat="42.47226477807629" lon="11.72208401175795"><ele>259.0</ele><time>2026-04-03T15:59:49Z</time></trkpt><trkpt lat="42.47245746252303" lon="11.722046903891803"><ele>259.3333333333333</ele><time>2026-04-03T15:59:50Z</time></trkpt><trkpt lat="42.4726392056998" lon="11.721990510373232"><ele>259.6666666666667</ele><time>2026-04-03T15:59:51Z</time></trkpt><trkpt lat="42.47281122799185" lon="11.721949312145195"><ele>260.0</ele><time>2026-04-03T15:59:52Z</time></trkpt><trkpt lat="42.47299700766114" lon="11.721864483505549"><ele>260.0</ele><time>2026-04-03T15:59:53Z</time></trkpt><trkpt lat="42.47318012700963" lon="11.721717887131918"><ele>260.0</ele><time>2026-04-03T15:59:54Z</time></trkpt><trkpt lat="42.473363730872514" lon="11.721553356714187"><ele>260.0</ele><time>2026-04-03T15:59:55Z</time></trkpt><trkpt lat="42.473554179509996" lon="11.721406461755526"><ele>260.0</ele><time>2026-04-03T15:59:56Z</time></trkpt><trkpt lat="42.47373293025924" lon="11.721253053082997"><ele>260.0</ele><time>2026-04-03T15:59:57Z</time></trkpt><trkpt lat="42.473899865222116" lon="11.721110725007131"><ele>260.0</ele><time>2026-04-03T15:59:58Z</time></trkpt><trkpt lat="42.474059674929364" lon="11.720974622704048"><ele>260.6666666666667</ele><time>2026-04-03T15:59:59Z</time></trkpt><trkpt lat="42.47421842787374" lon="11.720843885562953"><ele>261.3333333333333</ele><time>2026-04-03T16:00:00Z</time></trkpt><trkpt lat="42.47436827647384" lon="11.72071572833355"><ele>262.0</ele><time>2026-04-03T16:00:01Z</time></trkpt><trkpt lat="42.47452295055598" lon="11.720589181878635"><ele>262.66666666666663</ele><time>2026-04-03T16:00:02Z</time></trkpt><trkpt lat="42.474666358926434" lon="11.72045146923378"><ele>263.3333333333333</ele><time>2026-04-03T16:00:03Z</time></trkpt><trkpt lat="42.47482004758657" lon="11.720321558047834"><ele>264.0</ele><time>2026-04-03T16:00:04Z</time></trkpt><trkpt lat="42.474975152789135" lon="11.720194469335324"><ele>264.0</ele><time>2026-04-03T16:00:05Z</time></trkpt><trkpt lat="42.47513687654703" lon="11.720064646583786"><ele>264.0</ele><time>2026-04-03T16:00:06Z</time></trkpt><trkpt lat="42.47529231236473" lon="11.719929445487951"><ele>264.0</ele><time>2026-04-03T16:00:07Z</time></trkpt><trkpt lat="42.47544706066384" lon="11.719787035464583"><ele>264.3333333333333</ele><time>2026-04-03T16:00:08Z</time></trkpt><trkpt lat="42.47559012013794" lon="11.719615313250078"><ele>264.66666666666663</ele><time>2026-04-03T16:00:09Z</time></trkpt><trkpt lat="42.475719028230415" lon="11.719407463753354"><ele>265.0</ele><time>2026-04-03T16:00:10Z</time></trkpt><trkpt lat="42.47582594335138" lon="11.719170515480444"><ele>265.0</ele><time>2026-04-03T16:00:11Z</time></trkpt><trkpt lat="42.475925075572995" lon="11.718934012633131"><ele>265.0</ele><time>2026-04-03T16:00:12Z</time></trkpt><trkpt lat="42.47602149637365" lon="11.718704233803992"><ele>265.0</ele><time>2026-04-03T16:00:13Z</time></trkpt><trkpt lat="42.476118846159935" lon="11.718482385334449"><ele>264.3333333333333</ele><time>2026-04-03T16:00:14Z</time></trkpt><trkpt lat="42.47621632614869" lon="11.71826578998822"><ele>263.6666666666667</ele><time>2026-04-03T16:00:15Z</time></trkpt><trkpt lat="42.47631219834795" lon="11.718054064360526"><ele>263.0</ele><time>2026-04-03T16:00:16Z</time></trkpt><trkpt lat="42.47641273790664" lon="11.717839062539507"><ele>264.0</ele><time>2026-04-03T16:00:17Z</time></trkpt><trkpt lat="42.47650697627356" lon="11.717627500475547"><ele>265.0</ele><time>2026-04-03T16:00:18Z</time></trkpt><trkpt lat="42.47660168769749" lon="11.717413313736927"><ele>266.0</ele><time>2026-04-03T16:00:19Z</time></trkpt><trkpt lat="42.47669338736699" lon="11.71719759164641"><ele>266.0</ele><time>2026-04-03T16:00:20Z</time></trkpt><trkpt lat="42.476767874430514" lon="11.716984813689225"><ele>266.0</ele><time>2026-04-03T16:00:21Z</time></trkpt><trkpt lat="42.47682213766408" lon="11.716744442551786"><ele>266.0</ele><time>2026-04-03T16:00:22Z</time></trkpt><trkpt lat="42.47685690518671" lon="11.716474925144139"><ele>266.0</ele><time>2026-04-03T16:00:23Z</time></trkpt><trkpt lat="42.476897478586366" lon="11.716215903659354"><ele>266.0</ele><time>2026-04-03T16:00:24Z</time></trkpt><trkpt lat="42.47693737829978" lon="11.715952035011835"><ele>266.0</ele><time>2026-04-03T16:00:25Z</time></trkpt><trkpt lat="42.47697296110948" lon="11.715684333143663"><ele>266.0</ele><time>2026-04-03T16:00:26Z</time></trkpt><trkpt lat="42.47701273641191" lon="11.715434708198025"><ele>266.0</ele><time>2026-04-03T16:00:27Z</time></trkpt><trkpt lat="42.477044314314966" lon="11.715199692044125"><ele>266.0</ele><time>2026-04-03T16:00:28Z</time></trkpt><trkpt lat="42.477069773435375" lon="11.714978303994931"><ele>267.0</ele><time>2026-04-03T16:00:29Z</time></trkpt><trkpt lat="42.477109915041005" lon="11.714774163560296"><ele>268.0</ele><time>2026-04-03T16:00:30Z</time></trkpt><trkpt lat="42.47716186532539" lon="11.714573950480261"><ele>269.0</ele><time>2026-04-03T16:00:30.999Z</time></trkpt><trkpt lat="42.47723185017504" lon="11.71436020921843"><ele>269.6666666666667</ele><time>2026-04-03T16:00:31.999Z</time></trkpt><trkpt lat="42.477317815072475" lon="11.714152458818742"><ele>270.3333333333333</ele><time>2026-04-03T16:00:32.999Z</time></trkpt><trkpt lat="42.47740465974404" lon="11.7139360478394"><ele>271.0</ele><time>2026-04-03T16:00:33.999Z</time></trkpt><trkpt lat="42.47748558283423" lon="11.713711201331751"><ele>270.66666666666663</ele><time>2026-04-03T16:00:34.999Z</time></trkpt><trkpt lat="42.477585852993414" lon="11.71348939184306"><ele>270.3333333333333</ele><time>2026-04-03T16:00:35.999Z</time></trkpt><trkpt lat="42.477681445488166" lon="11.713255034493077"><ele>270.0</ele><time>2026-04-03T16:00:36.999Z</time></trkpt><trkpt lat="42.47777035688204" lon="11.713009532804287"><ele>270.0</ele><time>2026-04-03T16:00:37.999Z</time></trkpt><trkpt lat="42.47787096641892" lon="11.712774265977304"><ele>270.0</ele><time>2026-04-03T16:00:38.999Z</time></trkpt><trkpt lat="42.47796574601708" lon="11.712544623072077"><ele>270.0</ele><time>2026-04-03T16:00:39.999Z</time></trkpt><trkpt lat="42.47804671925466" lon="11.7123256028338"><ele>270.0</ele><time>2026-04-03T16:00:40.999Z</time></trkpt><trkpt lat="42.47812881997208" lon="11.712122097630377"><ele>270.0</ele><time>2026-04-03T16:00:41.999Z</time></trkpt><trkpt lat="42.4782086368422" lon="11.711924623847125"><ele>270.0</ele><time>2026-04-03T16:00:42.999Z</time></trkpt><trkpt lat="42.47829407564603" lon="11.711710664831147"><ele>269.6666666666667</ele><time>2026-04-03T16:00:43.999Z</time></trkpt><trkpt lat="42.478384622661665" lon="11.71148412567028"><ele>269.33333333333337</ele><time>2026-04-03T16:00:44.999Z</time></trkpt><trkpt lat="42.47847979427132" lon="11.711248322535694"><ele>269.0</ele><time>2026-04-03T16:00:45.999Z</time></trkpt><trkpt lat="42.478575914265576" lon="11.711014465126684"><ele>269.0</ele><time>2026-04-03T16:00:46.999Z</time></trkpt><trkpt lat="42.478670301410695" lon="11.710779526655253"><ele>269.0</ele><time>2026-04-03T16:00:47.999Z</time></trkpt><trkpt lat="42.47876117027802" lon="11.710543944536354"><ele>269.0</ele><time>2026-04-03T16:00:48.999Z</time></trkpt><trkpt lat="42.47884611406908" lon="11.710326632225954"><ele>268.6666666666667</ele><time>2026-04-03T16:00:49.999Z</time></trkpt><trkpt lat="42.47892975187871" lon="11.710116665801971"><ele>268.3333333333333</ele><time>2026-04-03T16:00:50.999Z</time></trkpt><trkpt lat="42.479013650996286" lon="11.709913873383913"><ele>268.0</ele><time>2026-04-03T16:00:51.999Z</time></trkpt><trkpt lat="42.47909772113507" lon="11.709705686478436"><ele>268.0</ele><time>2026-04-03T16:00:52.999Z</time></trkpt><trkpt lat="42.47918588689163" lon="11.709488647655705"><ele>268.0</ele><time>2026-04-03T16:00:53.999Z</time></trkpt><trkpt lat="42.47926532357252" lon="11.70928265407868"><ele>268.0</ele><time>2026-04-03T16:00:54.999Z</time></trkpt><trkpt lat="42.479345548296315" lon="11.70908104084308"><ele>267.3333333333333</ele><time>2026-04-03T16:00:55.999Z</time></trkpt><trkpt lat="42.47942577383355" lon="11.70888375283971"><ele>266.6666666666667</ele><time>2026-04-03T16:00:56.999Z</time></trkpt><trkpt lat="42.47950596040359" lon="11.708684939699907"><ele>266.0</ele><time>2026-04-03T16:00:57.999Z</time></trkpt><trkpt lat="42.4795850141565" lon="11.7084882399655"><ele>267.0</ele><time>2026-04-03T16:00:58.999Z</time></trkpt><trkpt lat="42.47966559784824" lon="11.708286454759"><ele>268.0</ele><time>2026-04-03T16:00:59.999Z</time></trkpt><trkpt lat="42.47975564955204" lon="11.708070502969479"><ele>269.0</ele><time>2026-04-03T16:01:00.999Z</time></trkpt><trkpt lat="42.47984227501852" lon="11.707851910415078"><ele>268.6666666666667</ele><time>2026-04-03T16:01:01.999Z</time></trkpt><trkpt lat="42.47992758162633" lon="11.707636064669039"><ele>268.3333333333333</ele><time>2026-04-03T16:01:02.999Z</time></trkpt><trkpt lat="42.480016985479075" lon="11.707417234658928"><ele>268.0</ele><time>2026-04-03T16:01:03.999Z</time></trkpt><trkpt lat="42.48009735686843" lon="11.707204229188244"><ele>268.0</ele><time>2026-04-03T16:01:04.999Z</time></trkpt><trkpt lat="42.48018568870101" lon="11.706993045783982"><ele>268.0</ele><time>2026-04-03T16:01:05.999Z</time></trkpt><trkpt lat="42.48026511597292" lon="11.70680010104898"><ele>268.0</ele><time>2026-04-03T16:01:06.999Z</time></trkpt><trkpt lat="42.48034641315485" lon="11.706605653692616"><ele>268.0</ele><time>2026-04-03T16:01:07.999Z</time></trkpt><trkpt lat="42.48042459918829" lon="11.706403860998151"><ele>268.0</ele><time>2026-04-03T16:01:08.999Z</time></trkpt><trkpt lat="42.48050731498551" lon="11.706206795790973"><ele>268.0</ele><time>2026-04-03T16:01:09.999Z</time></trkpt><trkpt lat="42.48058396757071" lon="11.706002273491254"><ele>268.0</ele><time>2026-04-03T16:01:10.999Z</time></trkpt><trkpt lat="42.480664038461406" lon="11.705799286653384"><ele>268.0</ele><time>2026-04-03T16:01:11.999Z</time></trkpt><trkpt lat="42.48074461693595" lon="11.705593921945628"><ele>268.0</ele><time>2026-04-03T16:01:12.999Z</time></trkpt><trkpt lat="42.48083672013195" lon="11.705392121765644"><ele>267.66666666666663</ele><time>2026-04-03T16:01:13.999Z</time></trkpt><trkpt lat="42.48092017011454" lon="11.70518607627767"><ele>267.3333333333333</ele><time>2026-04-03T16:01:14.999Z</time></trkpt><trkpt lat="42.48100540156228" lon="11.704973252677961"><ele>267.0</ele><time>2026-04-03T16:01:15.999Z</time></trkpt><trkpt lat="42.481090208543804" lon="11.70476451411064"><ele>267.0</ele><time>2026-04-03T16:01:16.999Z</time></trkpt><trkpt lat="42.48117680588383" lon="11.704557541865709"><ele>267.0</ele><time>2026-04-03T16:01:17.999Z</time></trkpt><trkpt lat="42.48126151028029" lon="11.704359378709604"><ele>267.0</ele><time>2026-04-03T16:01:18.999Z</time></trkpt><trkpt lat="42.48135112751083" lon="11.704169282078665"><ele>266.0</ele><time>2026-04-03T16:01:19.999Z</time></trkpt><trkpt lat="42.48145941530566" lon="11.703997708371103"><ele>265.0</ele><time>2026-04-03T16:01:20.999Z</time></trkpt><trkpt lat="42.4815791004609" lon="11.703847027733152"><ele>264.0</ele><time>2026-04-03T16:01:21.999Z</time></trkpt><trkpt lat="42.48173056909341" lon="11.703716628005207"><ele>264.0</ele><time>2026-04-03T16:01:22.999Z</time></trkpt><trkpt lat="42.48189505293312" lon="11.703603602637509"><ele>264.0</ele><time>2026-04-03T16:01:23.999Z</time></trkpt><trkpt lat="42.48205492871127" lon="11.703505970544823"><ele>264.0</ele><time>2026-04-03T16:01:24.999Z</time></trkpt><trkpt lat="42.48221357205033" lon="11.703402117008396"><ele>261.6666666666667</ele><time>2026-04-03T16:01:25.999Z</time></trkpt><trkpt lat="42.482372761245415" lon="11.70329859653558"><ele>259.33333333333337</ele><time>2026-04-03T16:01:26.999Z</time></trkpt><trkpt lat="42.48252692905931" lon="11.703201357313388"><ele>257.0</ele><time>2026-04-03T16:01:27.999Z</time></trkpt><trkpt lat="42.48267279128439" lon="11.703109826691795"><ele>257.0</ele><time>2026-04-03T16:01:28.999Z</time></trkpt><trkpt lat="42.48280108264805" lon="11.703026630117467"><ele>257.0</ele><time>2026-04-03T16:01:29.999Z</time></trkpt><trkpt lat="42.482916907665306" lon="11.70295494289707"><ele>257.0</ele><time>2026-04-03T16:01:30.999Z</time></trkpt><trkpt lat="42.48301739015171" lon="11.702889314191864"><ele>257.0</ele><time>2026-04-03T16:01:31.999Z</time></trkpt><trkpt lat="42.48309549179285" lon="11.702836975282919"><ele>257.0</ele><time>2026-04-03T16:01:32.999Z</time></trkpt><trkpt lat="42.48316218665626" lon="11.702795261108864"><ele>257.0</ele><time>2026-04-03T16:01:34Z</time></trkpt><trkpt lat="42.48324383636817" lon="11.702738380900897"><ele>257.0</ele><time>2026-04-03T16:01:36Z</time></trkpt><trkpt lat="42.48333236905573" lon="11.702688467491308"><ele>257.0</ele><time>2026-04-03T16:01:39Z</time></trkpt><trkpt lat="42.48339830199013" lon="11.70264294384932"><ele>257.0</ele><time>2026-04-03T16:01:40Z</time></trkpt><trkpt lat="42.48349428347548" lon="11.702580708000916"><ele>257.0</ele><time>2026-04-03T16:01:41Z</time></trkpt><trkpt lat="42.4836078470531" lon="11.702515282216932"><ele>256.6666666666667</ele><time>2026-04-03T16:01:42Z</time></trkpt><trkpt lat="42.483732488795425" lon="11.702428588817929"><ele>256.3333333333333</ele><time>2026-04-03T16:01:43Z</time></trkpt><trkpt lat="42.48387517563089" lon="11.70233772693558"><ele>256.0</ele><time>2026-04-03T16:01:44Z</time></trkpt><trkpt lat="42.484027712307984" lon="11.702243890397456"><ele>256.0</ele><time>2026-04-03T16:01:45Z</time></trkpt><trkpt lat="42.48418431564882" lon="11.702142919665405"><ele>256.0</ele><time>2026-04-03T16:01:46Z</time></trkpt><trkpt lat="42.48434284959132" lon="11.702039085654693"><ele>256.0</ele><time>2026-04-03T16:01:47Z</time></trkpt><trkpt lat="42.484503669850746" lon="11.701942154318063"><ele>258.66666666666663</ele><time>2026-04-03T16:01:48Z</time></trkpt><trkpt lat="42.48466704891413" lon="11.701833507643405"><ele>261.3333333333333</ele><time>2026-04-03T16:01:49Z</time></trkpt><trkpt lat="42.484831765591174" lon="11.70173119100802"><ele>264.0</ele><time>2026-04-03T16:01:50Z</time></trkpt><trkpt lat="42.4849865506166" lon="11.701632617663796"><ele>264.0</ele><time>2026-04-03T16:01:51Z</time></trkpt><trkpt lat="42.48514529599178" lon="11.70153182164781"><ele>264.0</ele><time>2026-04-03T16:01:52Z</time></trkpt><trkpt lat="42.48531394433687" lon="11.701421199466564"><ele>264.0</ele><time>2026-04-03T16:01:53Z</time></trkpt><trkpt lat="42.485496744014505" lon="11.70129570365894"><ele>265.3333333333333</ele><time>2026-04-03T16:01:54Z</time></trkpt><trkpt lat="42.485682645638995" lon="11.701164129256378"><ele>266.66666666666663</ele><time>2026-04-03T16:01:55Z</time></trkpt><trkpt lat="42.485866344462984" lon="11.701018764324882"><ele>268.0</ele><time>2026-04-03T16:01:56Z</time></trkpt><trkpt lat="42.48603485011785" lon="11.700864718286903"><ele>268.66666666666663</ele><time>2026-04-03T16:01:57Z</time></trkpt><trkpt lat="42.48619256642489" lon="11.700716283288452"><ele>269.3333333333333</ele><time>2026-04-03T16:01:58Z</time></trkpt><trkpt lat="42.48633565921045" lon="11.700569660571032"><ele>270.0</ele><time>2026-04-03T16:01:59Z</time></trkpt><trkpt lat="42.48646934871747" lon="11.700417205984662"><ele>270.6666666666667</ele><time>2026-04-03T16:02:00Z</time></trkpt><trkpt lat="42.48660398453635" lon="11.700249071017867"><ele>271.33333333333337</ele><time>2026-04-03T16:02:01Z</time></trkpt><trkpt lat="42.486743679373134" lon="11.700082414085584"><ele>272.0</ele><time>2026-04-03T16:02:02Z</time></trkpt><trkpt lat="42.4868912563136" lon="11.699933477385308"><ele>272.0</ele><time>2026-04-03T16:02:03Z</time></trkpt><trkpt lat="42.48704425061325" lon="11.699832169261432"><ele>272.0</ele><time>2026-04-03T16:02:04Z</time></trkpt><trkpt lat="42.487208012143775" lon="11.699770891795003"><ele>272.0</ele><time>2026-04-03T16:02:05Z</time></trkpt><trkpt lat="42.48739371694401" lon="11.699738066983079"><ele>271.33333333333337</ele><time>2026-04-03T16:02:06Z</time></trkpt><trkpt lat="42.48758121059545" lon="11.699702951502868"><ele>270.6666666666667</ele><time>2026-04-03T16:02:07Z</time></trkpt><trkpt lat="42.487763501727905" lon="11.699660882103586"><ele>270.0</ele><time>2026-04-03T16:02:08Z</time></trkpt><trkpt lat="42.48794033109483" lon="11.699622651363825"><ele>269.3333333333333</ele><time>2026-04-03T16:02:09Z</time></trkpt><trkpt lat="42.48810895760454" lon="11.699583896524818"><ele>268.66666666666663</ele><time>2026-04-03T16:02:10Z</time></trkpt><trkpt lat="42.48827384907293" lon="11.699529548650869"><ele>268.0</ele><time>2026-04-03T16:02:11Z</time></trkpt><trkpt lat="42.48844588242622" lon="11.699460518761157"><ele>267.0</ele><time>2026-04-03T16:02:12Z</time></trkpt><trkpt lat="42.48862366393073" lon="11.69937703570825"><ele>266.0</ele><time>2026-04-03T16:02:13Z</time></trkpt><trkpt lat="42.488808993128494" lon="11.699273705400921"><ele>265.0</ele><time>2026-04-03T16:02:14Z</time></trkpt><trkpt lat="42.48899173436553" lon="11.699163916223066"><ele>264.0</ele><time>2026-04-03T16:02:15Z</time></trkpt><trkpt lat="42.48917511578078" lon="11.69905467480049"><ele>263.0</ele><time>2026-04-03T16:02:16Z</time></trkpt><trkpt lat="42.48935778027937" lon="11.698943712485137"><ele>262.0</ele><time>2026-04-03T16:02:17Z</time></trkpt><trkpt lat="42.48953820159172" lon="11.698830750205152"><ele>262.0</ele><time>2026-04-03T16:02:18Z</time></trkpt><trkpt lat="42.48971420300149" lon="11.69872252012782"><ele>262.0</ele><time>2026-04-03T16:02:19Z</time></trkpt><trkpt lat="42.48988780923239" lon="11.698616007940299"><ele>262.0</ele><time>2026-04-03T16:02:20Z</time></trkpt><trkpt lat="42.490061265878474" lon="11.698509764826403"><ele>261.66666666666663</ele><time>2026-04-03T16:02:21Z</time></trkpt><trkpt lat="42.49023756937769" lon="11.698404374973052"><ele>261.3333333333333</ele><time>2026-04-03T16:02:22Z</time></trkpt><trkpt lat="42.490416371968365" lon="11.698297238859526"><ele>261.0</ele><time>2026-04-03T16:02:23Z</time></trkpt><trkpt lat="42.49059401186708" lon="11.698186693241695"><ele>261.6666666666667</ele><time>2026-04-03T16:02:24Z</time></trkpt><trkpt lat="42.49077233958386" lon="11.698078838014354"><ele>262.33333333333337</ele><time>2026-04-03T16:02:25Z</time></trkpt><trkpt lat="42.490946528266285" lon="11.69797202021317"><ele>263.0</ele><time>2026-04-03T16:02:26Z</time></trkpt><trkpt lat="42.49111274883131" lon="11.697872385535074"><ele>263.33333333333337</ele><time>2026-04-03T16:02:27Z</time></trkpt><trkpt lat="42.49127308755927" lon="11.697770277109417"><ele>263.6666666666667</ele><time>2026-04-03T16:02:28Z</time></trkpt><trkpt lat="42.4914270795388" lon="11.697650292741827"><ele>264.0</ele><time>2026-04-03T16:02:29Z</time></trkpt><trkpt lat="42.49157551640128" lon="11.69749812100586"><ele>264.3333333333333</ele><time>2026-04-03T16:02:30Z</time></trkpt><trkpt lat="42.49171123048375" lon="11.69731006768683"><ele>264.66666666666663</ele><time>2026-04-03T16:02:30.999Z</time></trkpt><trkpt lat="42.49183837982645" lon="11.697091180370426"><ele>265.0</ele><time>2026-04-03T16:02:31.999Z</time></trkpt><trkpt lat="42.49195587109962" lon="11.696869465496738"><ele>265.66666666666663</ele><time>2026-04-03T16:02:32.999Z</time></trkpt><trkpt lat="42.49207170104432" lon="11.696652261746594"><ele>266.3333333333333</ele><time>2026-04-03T16:02:33.999Z</time></trkpt><trkpt lat="42.49218457201387" lon="11.696442162443192"><ele>267.0</ele><time>2026-04-03T16:02:34.999Z</time></trkpt><trkpt lat="42.49229545285944" lon="11.696233895562703"><ele>266.6666666666667</ele><time>2026-04-03T16:02:35.999Z</time></trkpt><trkpt lat="42.49240634503099" lon="11.696033140323674"><ele>266.33333333333337</ele><time>2026-04-03T16:02:36.999Z</time></trkpt><trkpt lat="42.49251957600304" lon="11.695822611407625"><ele>266.0</ele><time>2026-04-03T16:02:37.999Z</time></trkpt><trkpt lat="42.492632710355856" lon="11.695617714516676"><ele>266.0</ele><time>2026-04-03T16:02:38.999Z</time></trkpt><trkpt lat="42.49274821175133" lon="11.695412362909735"><ele>266.0</ele><time>2026-04-03T16:02:39.999Z</time></trkpt><trkpt lat="42.49287964026418" lon="11.695192745431696"><ele>266.0</ele><time>2026-04-03T16:02:40.999Z</time></trkpt><trkpt lat="42.49302419867407" lon="11.694965679755615"><ele>266.0</ele><time>2026-04-03T16:02:41.999Z</time></trkpt><trkpt lat="42.493171856116845" lon="11.694735342691772"><ele>266.0</ele><time>2026-04-03T16:02:42.999Z</time></trkpt><trkpt lat="42.49331479848913" lon="11.69450676162422"><ele>266.0</ele><time>2026-04-03T16:02:43.999Z</time></trkpt><trkpt lat="42.49345214099506" lon="11.694283906296533"><ele>266.0</ele><time>2026-04-03T16:02:44.999Z</time></trkpt><trkpt lat="42.493591355930874" lon="11.694061942660998"><ele>266.0</ele><time>2026-04-03T16:02:45.999Z</time></trkpt><trkpt lat="42.49373219455945" lon="11.693840452117199"><ele>266.0</ele><time>2026-04-03T16:02:46.999Z</time></trkpt><trkpt lat="42.49387229349129" lon="11.69361662569041"><ele>266.0</ele><time>2026-04-03T16:02:47.999Z</time></trkpt><trkpt lat="42.494017814131496" lon="11.693394075066093"><ele>266.0</ele><time>2026-04-03T16:02:48.999Z</time></trkpt><trkpt lat="42.49417206886081" lon="11.693183615207351"><ele>266.0</ele><time>2026-04-03T16:02:49.999Z</time></trkpt><trkpt lat="42.494335709582245" lon="11.692981756779789"><ele>266.0</ele><time>2026-04-03T16:02:50.999Z</time></trkpt><trkpt lat="42.49449689078233" lon="11.692776019543846"><ele>266.0</ele><time>2026-04-03T16:02:51.999Z</time></trkpt><trkpt lat="42.494663257332036" lon="11.692582847375819"><ele>266.0</ele><time>2026-04-03T16:02:52.999Z</time></trkpt><trkpt lat="42.49483667156721" lon="11.692394353893121"><ele>265.33333333333337</ele><time>2026-04-03T16:02:53.999Z</time></trkpt><trkpt lat="42.49501040884512" lon="11.692205130113726"><ele>264.6666666666667</ele><time>2026-04-03T16:02:54.999Z</time></trkpt><trkpt lat="42.49517950403186" lon="11.692015775193289"><ele>264.0</ele><time>2026-04-03T16:02:55.999Z</time></trkpt><trkpt lat="42.49535108980676" lon="11.691830964874589"><ele>262.0</ele><time>2026-04-03T16:02:56.999Z</time></trkpt><trkpt lat="42.49552304519222" lon="11.69164397842762"><ele>260.0</ele><time>2026-04-03T16:02:57.999Z</time></trkpt><trkpt lat="42.495689779443296" lon="11.691453706518185"><ele>258.0</ele><time>2026-04-03T16:02:58.999Z</time></trkpt><trkpt lat="42.49585755114599" lon="11.691266950877766"><ele>258.6666666666667</ele><time>2026-04-03T16:02:59.999Z</time></trkpt><trkpt lat="42.49602906082523" lon="11.691081677190116"><ele>259.33333333333337</ele><time>2026-04-03T16:03:00.999Z</time></trkpt><trkpt lat="42.496205722221866" lon="11.69089245172693"><ele>260.0</ele><time>2026-04-03T16:03:01.999Z</time></trkpt><trkpt lat="42.49637429833473" lon="11.690704317444586"><ele>260.0</ele><time>2026-04-03T16:03:02.999Z</time></trkpt><trkpt lat="42.49654043149625" lon="11.690520624972304"><ele>260.0</ele><time>2026-04-03T16:03:03.999Z</time></trkpt><trkpt lat="42.496706175595335" lon="11.690336823256665"><ele>260.0</ele><time>2026-04-03T16:03:04.999Z</time></trkpt><trkpt lat="42.49687651346859" lon="11.690154227096942"><ele>260.0</ele><time>2026-04-03T16:03:05.999Z</time></trkpt><trkpt lat="42.49704845811563" lon="11.689968579920539"><ele>260.0</ele><time>2026-04-03T16:03:06.999Z</time></trkpt><trkpt lat="42.49722062158514" lon="11.689782499546652"><ele>260.0</ele><time>2026-04-03T16:03:07.999Z</time></trkpt><trkpt lat="42.49738911463343" lon="11.689596016264328"><ele>260.6666666666667</ele><time>2026-04-03T16:03:08.999Z</time></trkpt><trkpt lat="42.49755196160792" lon="11.689414307310042"><ele>261.3333333333333</ele><time>2026-04-03T16:03:09.999Z</time></trkpt><trkpt lat="42.49770864437103" lon="11.689229641702259"><ele>262.0</ele><time>2026-04-03T16:03:10.999Z</time></trkpt><trkpt lat="42.49787070775099" lon="11.689050313920974"><ele>261.0</ele><time>2026-04-03T16:03:11.999Z</time></trkpt><trkpt lat="42.4980329395944" lon="11.688868863622318"><ele>260.0</ele><time>2026-04-03T16:03:12.999Z</time></trkpt><trkpt lat="42.49818048084395" lon="11.688696870930436"><ele>259.0</ele><time>2026-04-03T16:03:13.999Z</time></trkpt><trkpt lat="42.49832243634285" lon="11.68853110580392"><ele>258.3333333333333</ele><time>2026-04-03T16:03:14.999Z</time></trkpt><trkpt lat="42.49844646778137" lon="11.688355096499201"><ele>257.6666666666667</ele><time>2026-04-03T16:03:15.999Z</time></trkpt><trkpt lat="42.49854271173516" lon="11.688150810949859"><ele>257.0</ele><time>2026-04-03T16:03:16.999Z</time></trkpt><trkpt lat="42.498611427968235" lon="11.687903968288603"><ele>257.33333333333337</ele><time>2026-04-03T16:03:17.999Z</time></trkpt><trkpt lat="42.49865310310356" lon="11.687637055584547"><ele>257.6666666666667</ele><time>2026-04-03T16:03:18.999Z</time></trkpt><trkpt lat="42.49868620331508" lon="11.687359838983165"><ele>258.0</ele><time>2026-04-03T16:03:19.999Z</time></trkpt><trkpt lat="42.49871891631898" lon="11.68707297304051"><ele>257.0</ele><time>2026-04-03T16:03:20.999Z</time></trkpt><trkpt lat="42.4987525642428" lon="11.686798441296494"><ele>256.0</ele><time>2026-04-03T16:03:21.999Z</time></trkpt><trkpt lat="42.49878497902015" lon="11.686528683466795"><ele>255.0</ele><time>2026-04-03T16:03:22.999Z</time></trkpt><trkpt lat="42.49882120266821" lon="11.686258906146042"><ele>254.33333333333331</ele><time>2026-04-03T16:03:23.999Z</time></trkpt><trkpt lat="42.49885740025561" lon="11.685992602192789"><ele>253.66666666666666</ele><time>2026-04-03T16:03:24.999Z</time></trkpt><trkpt lat="42.498892716310436" lon="11.685725989038323"><ele>253.0</ele><time>2026-04-03T16:03:25.999Z</time></trkpt><trkpt lat="42.49892768394915" lon="11.685452830959564"><ele>253.0</ele><time>2026-04-03T16:03:26.999Z</time></trkpt><trkpt lat="42.49896459625759" lon="11.685174088659881"><ele>253.0</ele><time>2026-04-03T16:03:27.999Z</time></trkpt><trkpt lat="42.498998985308724" lon="11.684888878828994"><ele>253.0</ele><time>2026-04-03T16:03:28.999Z</time></trkpt><trkpt lat="42.49903287231157" lon="11.684598200616257"><ele>253.33333333333331</ele><time>2026-04-03T16:03:29.999Z</time></trkpt><trkpt lat="42.49906834070043" lon="11.684304255255956"><ele>253.66666666666669</ele><time>2026-04-03T16:03:30.999Z</time></trkpt><trkpt lat="42.49910922262192" lon="11.684010800305458"><ele>254.0</ele><time>2026-04-03T16:03:31.999Z</time></trkpt><trkpt lat="42.49914712539801" lon="11.683725578982052"><ele>254.0</ele><time>2026-04-03T16:03:32.999Z</time></trkpt><trkpt lat="42.49918371286479" lon="11.683458127232283"><ele>254.0</ele><time>2026-04-03T16:03:33.999Z</time></trkpt><trkpt lat="42.49921703911928" lon="11.683198840407687"><ele>254.0</ele><time>2026-04-03T16:03:34.999Z</time></trkpt><trkpt lat="42.4992522907218" lon="11.682932851292843"><ele>253.66666666666669</ele><time>2026-04-03T16:03:35.999Z</time></trkpt><trkpt lat="42.49929814356659" lon="11.682655075900366"><ele>253.33333333333331</ele><time>2026-04-03T16:03:36.999Z</time></trkpt><trkpt lat="42.499361288377266" lon="11.682374329788892"><ele>253.0</ele><time>2026-04-03T16:03:37.999Z</time></trkpt><trkpt lat="42.49943852988597" lon="11.682090223065229"><ele>252.5</ele><time>2026-04-03T16:03:38.999Z</time></trkpt><trkpt lat="42.49952592129571" lon="11.681795994501496"><ele>252.0</ele><time>2026-04-03T16:03:40Z</time></trkpt><trkpt lat="42.49961253366995" lon="11.681496988547837"><ele>251.5</ele><time>2026-04-03T16:03:41Z</time></trkpt><trkpt lat="42.49969928123587" lon="11.681198344551929"><ele>251.0</ele><time>2026-04-03T16:03:42Z</time></trkpt><trkpt lat="42.4997819533535" lon="11.680910166387312"><ele>251.0</ele><time>2026-04-03T16:03:43Z</time></trkpt><trkpt lat="42.49986409466326" lon="11.680628240083522"><ele>251.0</ele><time>2026-04-03T16:03:44Z</time></trkpt><trkpt lat="42.499947023309" lon="11.680345381833732"><ele>251.0</ele><time>2026-04-03T16:03:45Z</time></trkpt><trkpt lat="42.50002818055197" lon="11.680057519764599"><ele>251.0</ele><time>2026-04-03T16:03:46Z</time></trkpt><trkpt lat="42.50011291317574" lon="11.679767475831994"><ele>251.0</ele><time>2026-04-03T16:03:47Z</time></trkpt><trkpt lat="42.50019753063318" lon="11.679485820981215"><ele>250.66666666666669</ele><time>2026-04-03T16:03:48Z</time></trkpt><trkpt lat="42.500275232785334" lon="11.67922081117591"><ele>250.33333333333331</ele><time>2026-04-03T16:03:49Z</time></trkpt><trkpt lat="42.50034533041798" lon="11.678965534064046"><ele>250.0</ele><time>2026-04-03T16:03:50Z</time></trkpt><trkpt lat="42.50041355274395" lon="11.67872646948212"><ele>249.66666666666666</ele><time>2026-04-03T16:03:51Z</time></trkpt><trkpt lat="42.50047463138715" lon="11.678503240385536"><ele>249.33333333333331</ele><time>2026-04-03T16:03:52Z</time></trkpt><trkpt lat="42.50053753703449" lon="11.678288355522294"><ele>249.0</ele><time>2026-04-03T16:03:53Z</time></trkpt><trkpt lat="42.50060894012252" lon="11.678088573946617"><ele>249.0</ele><time>2026-04-03T16:03:54Z</time></trkpt><trkpt lat="42.50069381268343" lon="11.67789629886679"><ele>249.0</ele><time>2026-04-03T16:03:55Z</time></trkpt><trkpt lat="42.500804089548325" lon="11.677730699307212"><ele>249.0</ele><time>2026-04-03T16:03:56Z</time></trkpt><trkpt lat="42.50093656364249" lon="11.677596817427665"><ele>247.33333333333331</ele><time>2026-04-03T16:03:57Z</time></trkpt><trkpt lat="42.50107209676973" lon="11.677471795273789"><ele>245.66666666666666</ele><time>2026-04-03T16:03:58Z</time></trkpt><trkpt lat="42.50121232429246" lon="11.677340613777517"><ele>244.0</ele><time>2026-04-03T16:03:59Z</time></trkpt><trkpt lat="42.50136047364231" lon="11.677191348245547"><ele>243.66666666666666</ele><time>2026-04-03T16:04:00Z</time></trkpt><trkpt lat="42.501511870737914" lon="11.67702343176978"><ele>243.33333333333331</ele><time>2026-04-03T16:04:01Z</time></trkpt><trkpt lat="42.50166729088459" lon="11.676853853012657"><ele>243.0</ele><time>2026-04-03T16:04:02Z</time></trkpt><trkpt lat="42.5018211327358" lon="11.676703876370164"><ele>241.66666666666669</ele><time>2026-04-03T16:04:03Z</time></trkpt><trkpt lat="42.50197584362943" lon="11.676582250503527"><ele>240.33333333333334</ele><time>2026-04-03T16:04:04Z</time></trkpt><trkpt lat="42.502136722180516" lon="11.676504088855038"><ele>239.0</ele><time>2026-04-03T16:04:05Z</time></trkpt><trkpt lat="42.502306449020885" lon="11.676458567873874"><ele>239.0</ele><time>2026-04-03T16:04:06Z</time></trkpt><trkpt lat="42.50247283967433" lon="11.67643879576247"><ele>239.0</ele><time>2026-04-03T16:04:07Z</time></trkpt><trkpt lat="42.50263405135273" lon="11.67642995922671"><ele>239.0</ele><time>2026-04-03T16:04:08Z</time></trkpt><trkpt lat="42.50278309403808" lon="11.676426615669415"><ele>238.5</ele><time>2026-04-03T16:04:09Z</time></trkpt><trkpt lat="42.50292586891513" lon="11.676427607988646"><ele>238.0</ele><time>2026-04-03T16:04:10Z</time></trkpt><trkpt lat="42.50306687415567" lon="11.676424513073911"><ele>237.5</ele><time>2026-04-03T16:04:11Z</time></trkpt><trkpt lat="42.50320562630876" lon="11.676419485819865"><ele>237.0</ele><time>2026-04-03T16:04:12Z</time></trkpt><trkpt lat="42.50333254147067" lon="11.676416258355745"><ele>237.0</ele><time>2026-04-03T16:04:13Z</time></trkpt><trkpt lat="42.503452616500155" lon="11.676383816858834"><ele>237.0</ele><time>2026-04-03T16:04:14Z</time></trkpt><trkpt lat="42.50356394815588" lon="11.676285161104047"><ele>237.0</ele><time>2026-04-03T16:04:15Z</time></trkpt><trkpt lat="42.50364973575369" lon="11.676117157010522"><ele>237.0</ele><time>2026-04-03T16:04:16Z</time></trkpt><trkpt lat="42.503712450684525" lon="11.675901483526165"><ele>235.66666666666669</ele><time>2026-04-03T16:04:17Z</time></trkpt><trkpt lat="42.503761508743615" lon="11.675659902911928"><ele>234.33333333333334</ele><time>2026-04-03T16:04:18Z</time></trkpt><trkpt lat="42.5038074961195" lon="11.675424430255442"><ele>233.0</ele><time>2026-04-03T16:04:19Z</time></trkpt><trkpt lat="42.50385293963337" lon="11.675193240623116"><ele>232.0</ele><time>2026-04-03T16:04:20Z</time></trkpt><trkpt lat="42.50389740937671" lon="11.674969152177377"><ele>231.0</ele><time>2026-04-03T16:04:21Z</time></trkpt><trkpt lat="42.50393298975945" lon="11.674748943134922"><ele>230.0</ele><time>2026-04-03T16:04:22Z</time></trkpt><trkpt lat="42.50396941063599" lon="11.67452449414335"><ele>230.33333333333334</ele><time>2026-04-03T16:04:23Z</time></trkpt><trkpt lat="42.50401209142365" lon="11.674297356209244"><ele>230.66666666666669</ele><time>2026-04-03T16:04:24Z</time></trkpt><trkpt lat="42.50406169027835" lon="11.674049799641141"><ele>231.0</ele><time>2026-04-03T16:04:25Z</time></trkpt><trkpt lat="42.504118256040954" lon="11.673778152301123"><ele>231.33333333333331</ele><time>2026-04-03T16:04:26Z</time></trkpt><trkpt lat="42.50417448124485" lon="11.673496859663798"><ele>231.66666666666666</ele><time>2026-04-03T16:04:27Z</time></trkpt><trkpt lat="42.50423285276707" lon="11.67321930161073"><ele>232.0</ele><time>2026-04-03T16:04:28Z</time></trkpt><trkpt lat="42.50427833259671" lon="11.672942834673439"><ele>230.66666666666666</ele><time>2026-04-03T16:04:29Z</time></trkpt><trkpt lat="42.50432319995224" lon="11.672669140541089"><ele>229.33333333333331</ele><time>2026-04-03T16:04:30Z</time></trkpt><trkpt lat="42.504368729119875" lon="11.672407745675585"><ele>228.0</ele><time>2026-04-03T16:04:31Z</time></trkpt><trkpt lat="42.50441285869783" lon="11.672162312258346"><ele>225.66666666666669</ele><time>2026-04-03T16:04:32Z</time></trkpt><trkpt lat="42.504453063793264" lon="11.671913969411275"><ele>223.33333333333334</ele><time>2026-04-03T16:04:33Z</time></trkpt><trkpt lat="42.504498444671654" lon="11.671647809451704"><ele>221.0</ele><time>2026-04-03T16:04:34Z</time></trkpt><trkpt lat="42.50454596007961" lon="11.671368755387501"><ele>221.66666666666669</ele><time>2026-04-03T16:04:35Z</time></trkpt><trkpt lat="42.50459604888873" lon="11.671077098574782"><ele>222.33333333333331</ele><time>2026-04-03T16:04:36Z</time></trkpt><trkpt lat="42.50465064333524" lon="11.670789336068902"><ele>223.0</ele><time>2026-04-03T16:04:37Z</time></trkpt><trkpt lat="42.5047035030639" lon="11.670508543225244"><ele>224.0</ele><time>2026-04-03T16:04:38Z</time></trkpt><trkpt lat="42.50475144527367" lon="11.670247168075768"><ele>225.0</ele><time>2026-04-03T16:04:39Z</time></trkpt><trkpt lat="42.504802986714076" lon="11.67000011681661"><ele>226.0</ele><time>2026-04-03T16:04:40Z</time></trkpt><trkpt lat="42.50486707031802" lon="11.66980349727337"><ele>226.0</ele><time>2026-04-03T16:04:41Z</time></trkpt><trkpt lat="42.504937096599" lon="11.669639607228474"><ele>226.0</ele><time>2026-04-03T16:04:42Z</time></trkpt><trkpt lat="42.505019355261666" lon="11.669491348204518"><ele>226.0</ele><time>2026-04-03T16:04:43Z</time></trkpt><trkpt lat="42.50523030745664" lon="11.669154895431268"><ele>226.0</ele><time>2026-04-03T16:04:44Z</time></trkpt><trkpt lat="42.505361177694766" lon="11.668934726792891"><ele>226.0</ele><time>2026-04-03T16:04:45Z</time></trkpt><trkpt lat="42.50549833428967" lon="11.668731994463172"><ele>226.0</ele><time>2026-04-03T16:04:46Z</time></trkpt><trkpt lat="42.50563260410812" lon="11.668530612937829"><ele>226.33333333333331</ele><time>2026-04-03T16:04:47Z</time></trkpt><trkpt lat="42.5057644342593" lon="11.668326459630261"><ele>226.66666666666669</ele><time>2026-04-03T16:04:48Z</time></trkpt><trkpt lat="42.50589296369805" lon="11.668129495752487"><ele>227.0</ele><time>2026-04-03T16:04:48.999Z</time></trkpt><trkpt lat="42.506020680139414" lon="11.667939664438437"><ele>227.66666666666669</ele><time>2026-04-03T16:04:49.999Z</time></trkpt><trkpt lat="42.5061535579196" lon="11.66774635506173"><ele>228.33333333333331</ele><time>2026-04-03T16:04:50.999Z</time></trkpt><trkpt lat="42.50628703860468" lon="11.667545732590021"><ele>229.0</ele><time>2026-04-03T16:04:51.999Z</time></trkpt><trkpt lat="42.50643023663674" lon="11.667325809719728"><ele>229.5</ele><time>2026-04-03T16:04:52.999Z</time></trkpt><trkpt lat="42.50658102170923" lon="11.667094954186464"><ele>230.0</ele><time>2026-04-03T16:04:53.999Z</time></trkpt><trkpt lat="42.50673742658537" lon="11.666852950220907"><ele>230.0</ele><time>2026-04-03T16:04:54.999Z</time></trkpt><trkpt lat="42.50690194363186" lon="11.66659395971614"><ele>230.0</ele><time>2026-04-03T16:04:55.999Z</time></trkpt><trkpt lat="42.507070257061585" lon="11.666335148233467"><ele>229.0</ele><time>2026-04-03T16:04:56.999Z</time></trkpt><trkpt lat="42.507234644357496" lon="11.66607444862363"><ele>228.0</ele><time>2026-04-03T16:04:57.999Z</time></trkpt><trkpt lat="42.507390167821825" lon="11.665827081873655"><ele>228.0</ele><time>2026-04-03T16:04:58.999Z</time></trkpt><trkpt lat="42.50753617543993" lon="11.665604949265525"><ele>228.0</ele><time>2026-04-03T16:04:59.999Z</time></trkpt><trkpt lat="42.50767868106767" lon="11.665387301886977"><ele>228.0</ele><time>2026-04-03T16:05:00.999Z</time></trkpt><trkpt lat="42.50782531153411" lon="11.665167212433683"><ele>226.66666666666669</ele><time>2026-04-03T16:05:01.999Z</time></trkpt><trkpt lat="42.5079778906127" lon="11.664948222794255"><ele>225.33333333333334</ele><time>2026-04-03T16:05:02.999Z</time></trkpt><trkpt lat="42.50812233835101" lon="11.66471534304577"><ele>224.0</ele><time>2026-04-03T16:05:03.999Z</time></trkpt><trkpt lat="42.50827495121963" lon="11.664475720689643"><ele>224.0</ele><time>2026-04-03T16:05:04.999Z</time></trkpt><trkpt lat="42.508444818380134" lon="11.664217825233354"><ele>224.0</ele><time>2026-04-03T16:05:05.999Z</time></trkpt><trkpt lat="42.50862257954336" lon="11.663927137806846"><ele>225.0</ele><time>2026-04-03T16:05:06.999Z</time></trkpt><trkpt lat="42.50879589826362" lon="11.663682940828526"><ele>226.0</ele><time>2026-04-03T16:05:07.999Z</time></trkpt><trkpt lat="42.50896899977835" lon="11.663434928888858"><ele>226.5</ele><time>2026-04-03T16:05:08.999Z</time></trkpt><trkpt lat="42.50913795141786" lon="11.663183962031171"><ele>227.0</ele><time>2026-04-03T16:05:09.999Z</time></trkpt><trkpt lat="42.5092949501102" lon="11.662929312178353"><ele>224.0</ele><time>2026-04-03T16:05:10.999Z</time></trkpt><trkpt lat="42.50945839060867" lon="11.66268534852745"><ele>221.0</ele><time>2026-04-03T16:05:11.999Z</time></trkpt><trkpt lat="42.509618878569604" lon="11.66242952108979"><ele>220.0</ele><time>2026-04-03T16:05:12.999Z</time></trkpt><trkpt lat="42.50978200982094" lon="11.662167168591608"><ele>219.0</ele><time>2026-04-03T16:05:13.999Z</time></trkpt><trkpt lat="42.509942033337744" lon="11.661915725629695"><ele>218.5</ele><time>2026-04-03T16:05:14.999Z</time></trkpt><trkpt lat="42.51010163011422" lon="11.661668686796581"><ele>218.0</ele><time>2026-04-03T16:05:15.999Z</time></trkpt><trkpt lat="42.51026596658591" lon="11.661403139563577"><ele>219.0</ele><time>2026-04-03T16:05:16.999Z</time></trkpt><trkpt lat="42.51044162878458" lon="11.661140836781598"><ele>220.0</ele><time>2026-04-03T16:05:17.999Z</time></trkpt><trkpt lat="42.51061945738641" lon="11.660892546857733"><ele>220.0</ele><time>2026-04-03T16:05:18.999Z</time></trkpt><trkpt lat="42.510769326266775" lon="11.660656284166228"><ele>220.0</ele><time>2026-04-03T16:05:19.999Z</time></trkpt><trkpt lat="42.51092030418636" lon="11.660409995562826"><ele>219.0</ele><time>2026-04-03T16:05:20.999Z</time></trkpt><trkpt lat="42.5110763761563" lon="11.660180839043147"><ele>218.0</ele><time>2026-04-03T16:05:21.999Z</time></trkpt><trkpt lat="42.51123492412499" lon="11.659938185993678"><ele>219.0</ele><time>2026-04-03T16:05:22.999Z</time></trkpt><trkpt lat="42.51140458760304" lon="11.659689148825269"><ele>220.0</ele><time>2026-04-03T16:05:23.999Z</time></trkpt><trkpt lat="42.51155985131361" lon="11.659457031408781"><ele>220.33333333333331</ele><time>2026-04-03T16:05:24.999Z</time></trkpt><trkpt lat="42.51170107054977" lon="11.65923096063767"><ele>220.66666666666669</ele><time>2026-04-03T16:05:25.999Z</time></trkpt><trkpt lat="42.51183159970296" lon="11.659028863396145"><ele>221.0</ele><time>2026-04-03T16:05:26.999Z</time></trkpt><trkpt lat="42.51195310741405" lon="11.658836551790127"><ele>221.0</ele><time>2026-04-03T16:05:27.999Z</time></trkpt><trkpt lat="42.51206017103557" lon="11.65862666295065"><ele>221.0</ele><time>2026-04-03T16:05:28.999Z</time></trkpt><trkpt lat="42.51215527418877" lon="11.65838352574276"><ele>221.0</ele><time>2026-04-03T16:05:29.999Z</time></trkpt><trkpt lat="42.51223448622644" lon="11.658114170967826"><ele>221.5</ele><time>2026-04-03T16:05:30.999Z</time></trkpt><trkpt lat="42.512307852996805" lon="11.65782875987841"><ele>222.0</ele><time>2026-04-03T16:05:31.999Z</time></trkpt><trkpt lat="42.512396571180986" lon="11.657538285411242"><ele>222.0</ele><time>2026-04-03T16:05:32.999Z</time></trkpt><trkpt lat="42.51245815591369" lon="11.65722330675568"><ele>222.0</ele><time>2026-04-03T16:05:33.999Z</time></trkpt><trkpt lat="42.51252426453702" lon="11.656905378243257"><ele>222.33333333333331</ele><time>2026-04-03T16:05:34.999Z</time></trkpt><trkpt lat="42.512590075846646" lon="11.656610857235139"><ele>222.66666666666666</ele><time>2026-04-03T16:05:35.999Z</time></trkpt><trkpt lat="42.51266453981516" lon="11.656330941575382"><ele>223.0</ele><time>2026-04-03T16:05:36.999Z</time></trkpt><trkpt lat="42.51272876309155" lon="11.656058601539899"><ele>222.0</ele><time>2026-04-03T16:05:37.999Z</time></trkpt><trkpt lat="42.51278920801392" lon="11.655798725415247"><ele>221.0</ele><time>2026-04-03T16:05:38.999Z</time></trkpt><trkpt lat="42.51284951348455" lon="11.65555159882737"><ele>220.0</ele><time>2026-04-03T16:05:39.999Z</time></trkpt><trkpt lat="42.512909369682475" lon="11.655302565650233"><ele>217.0</ele><time>2026-04-03T16:05:40.999Z</time></trkpt><trkpt lat="42.51295605816947" lon="11.655042628966738"><ele>214.0</ele><time>2026-04-03T16:05:41.999Z</time></trkpt><trkpt lat="42.512991179919844" lon="11.654757116101989"><ele>211.0</ele><time>2026-04-03T16:05:42.999Z</time></trkpt><trkpt lat="42.51301582511798" lon="11.654450449441597"><ele>211.0</ele><time>2026-04-03T16:05:43.999Z</time></trkpt><trkpt lat="42.5130276227831" lon="11.654174788324534"><ele>211.0</ele><time>2026-04-03T16:05:44.999Z</time></trkpt><trkpt lat="42.51304051716643" lon="11.653909447445912"><ele>211.0</ele><time>2026-04-03T16:05:46Z</time></trkpt><trkpt lat="42.51306702988075" lon="11.65365502923625"><ele>210.66666666666666</ele><time>2026-04-03T16:05:47Z</time></trkpt><trkpt lat="42.51311566577859" lon="11.653418964591337"><ele>210.33333333333331</ele><time>2026-04-03T16:05:48Z</time></trkpt><trkpt lat="42.5131977021298" lon="11.65320726543694"><ele>210.0</ele><time>2026-04-03T16:05:49Z</time></trkpt><trkpt lat="42.5133174666604" lon="11.6530167992294"><ele>210.0</ele><time>2026-04-03T16:05:50Z</time></trkpt><trkpt lat="42.513462033336346" lon="11.65282922007309"><ele>210.0</ele><time>2026-04-03T16:05:51Z</time></trkpt><trkpt lat="42.51361363055551" lon="11.652624512751535"><ele>210.0</ele><time>2026-04-03T16:05:52Z</time></trkpt><trkpt lat="42.5137628763709" lon="11.65240204081634"><ele>206.0</ele><time>2026-04-03T16:05:53Z</time></trkpt><trkpt lat="42.513916158208005" lon="11.652189373236482"><ele>202.0</ele><time>2026-04-03T16:05:54Z</time></trkpt><trkpt lat="42.51407851139061" lon="11.651962056826447"><ele>203.0</ele><time>2026-04-03T16:05:55Z</time></trkpt><trkpt lat="42.514245574047436" lon="11.651720074236941"><ele>204.0</ele><time>2026-04-03T16:05:56Z</time></trkpt><trkpt lat="42.51441851414534" lon="11.651471825427954"><ele>204.5</ele><time>2026-04-03T16:05:57Z</time></trkpt><trkpt lat="42.51458922724777" lon="11.651226976340041"><ele>205.0</ele><time>2026-04-03T16:05:58Z</time></trkpt><trkpt lat="42.51476836054993" lon="11.650982574622807"><ele>205.5</ele><time>2026-04-03T16:05:59Z</time></trkpt><trkpt lat="42.514940180224436" lon="11.650754493566307"><ele>206.0</ele><time>2026-04-03T16:06:00Z</time></trkpt><trkpt lat="42.51510610037431" lon="11.650526731661603"><ele>206.0</ele><time>2026-04-03T16:06:01Z</time></trkpt><trkpt lat="42.5152698837053" lon="11.650294550485091"><ele>206.0</ele><time>2026-04-03T16:06:02Z</time></trkpt><trkpt lat="42.51543893229526" lon="11.650063612800503"><ele>206.5</ele><time>2026-04-03T16:06:03Z</time></trkpt><trkpt lat="42.515621234954764" lon="11.649832464253684"><ele>207.0</ele><time>2026-04-03T16:06:04Z</time></trkpt><trkpt lat="42.51580598977945" lon="11.649595539483492"><ele>207.0</ele><time>2026-04-03T16:06:05Z</time></trkpt><trkpt lat="42.51597880754191" lon="11.649358485794911"><ele>207.0</ele><time>2026-04-03T16:06:06Z</time></trkpt><trkpt lat="42.51613395255493" lon="11.649143271565807"><ele>207.33333333333331</ele><time>2026-04-03T16:06:07Z</time></trkpt><trkpt lat="42.51627768374018" lon="11.648939584936334"><ele>207.66666666666666</ele><time>2026-04-03T16:06:08Z</time></trkpt><trkpt lat="42.5164200172312" lon="11.648733908753467"><ele>208.0</ele><time>2026-04-03T16:06:09Z</time></trkpt><trkpt lat="42.516565752813484" lon="11.648555130691308"><ele>208.0</ele><time>2026-04-03T16:06:10Z</time></trkpt><trkpt lat="42.516722952970355" lon="11.648373880208977"><ele>208.0</ele><time>2026-04-03T16:06:11Z</time></trkpt><trkpt lat="42.51687616252178" lon="11.648217425946003"><ele>208.0</ele><time>2026-04-03T16:06:12Z</time></trkpt><trkpt lat="42.51702150835467" lon="11.648077406456991"><ele>208.0</ele><time>2026-04-03T16:06:13Z</time></trkpt><trkpt lat="42.517149450632104" lon="11.64794771297053"><ele>208.0</ele><time>2026-04-03T16:06:14Z</time></trkpt><trkpt lat="42.517282122553084" lon="11.647824742582797"><ele>208.0</ele><time>2026-04-03T16:06:15Z</time></trkpt><trkpt lat="42.51741307400487" lon="11.647686483356175"><ele>207.33333333333331</ele><time>2026-04-03T16:06:16Z</time></trkpt><trkpt lat="42.517545992382004" lon="11.647546933068051"><ele>206.66666666666669</ele><time>2026-04-03T16:06:17Z</time></trkpt><trkpt lat="42.51768220679774" lon="11.647407660723658"><ele>206.0</ele><time>2026-04-03T16:06:18Z</time></trkpt><trkpt lat="42.517821913355405" lon="11.647268007109991"><ele>206.33333333333334</ele><time>2026-04-03T16:06:19Z</time></trkpt><trkpt lat="42.51797002119133" lon="11.647129203863638"><ele>206.66666666666669</ele><time>2026-04-03T16:06:20Z</time></trkpt><trkpt lat="42.51812856227703" lon="11.646976613341"><ele>207.0</ele><time>2026-04-03T16:06:21Z</time></trkpt><trkpt lat="42.51829932546917" lon="11.646810097161993"><ele>207.0</ele><time>2026-04-03T16:06:22Z</time></trkpt><trkpt lat="42.51847036272959" lon="11.646636570938995"><ele>207.0</ele><time>2026-04-03T16:06:23Z</time></trkpt><trkpt lat="42.518640599362215" lon="11.646461133238901"><ele>207.0</ele><time>2026-04-03T16:06:24Z</time></trkpt><trkpt lat="42.51881615008821" lon="11.646281702331951"><ele>207.66666666666669</ele><time>2026-04-03T16:06:25Z</time></trkpt><trkpt lat="42.5189883851697" lon="11.64611630275935"><ele>208.33333333333334</ele><time>2026-04-03T16:06:26Z</time></trkpt><trkpt lat="42.51915373227553" lon="11.645948460656722"><ele>209.0</ele><time>2026-04-03T16:06:27Z</time></trkpt><trkpt lat="42.519305179121474" lon="11.645771642374994"><ele>209.0</ele><time>2026-04-03T16:06:28Z</time></trkpt><trkpt lat="42.519445997523356" lon="11.645576145047395"><ele>209.0</ele><time>2026-04-03T16:06:29Z</time></trkpt><trkpt lat="42.51957862635692" lon="11.64536133064348"><ele>209.0</ele><time>2026-04-03T16:06:30Z</time></trkpt><trkpt lat="42.519703627410934" lon="11.645112192500875"><ele>208.5</ele><time>2026-04-03T16:06:31Z</time></trkpt><trkpt lat="42.51982232178897" lon="11.644852604577826"><ele>208.0</ele><time>2026-04-03T16:06:32Z</time></trkpt><trkpt lat="42.51995826216181" lon="11.644609652863153"><ele>207.0</ele><time>2026-04-03T16:06:33Z</time></trkpt><trkpt lat="42.52007936920539" lon="11.644374136236413"><ele>206.0</ele><time>2026-04-03T16:06:34Z</time></trkpt><trkpt lat="42.520185005273014" lon="11.644131198568353"><ele>205.0</ele><time>2026-04-03T16:06:35Z</time></trkpt><trkpt lat="42.520289184046604" lon="11.6438900138634"><ele>205.0</ele><time>2026-04-03T16:06:36Z</time></trkpt><trkpt lat="42.520394755306256" lon="11.64365765552797"><ele>205.0</ele><time>2026-04-03T16:06:37Z</time></trkpt><trkpt lat="42.5205007313458" lon="11.643444859812295"><ele>205.0</ele><time>2026-04-03T16:06:38Z</time></trkpt><trkpt lat="42.52060737831953" lon="11.64322484435381"><ele>205.66666666666666</ele><time>2026-04-03T16:06:39Z</time></trkpt><trkpt lat="42.52071235532808" lon="11.643005744610072"><ele>206.33333333333331</ele><time>2026-04-03T16:06:40Z</time></trkpt><trkpt lat="42.520812429303824" lon="11.64276797066923"><ele>207.0</ele><time>2026-04-03T16:06:41Z</time></trkpt><trkpt lat="42.52090471831593" lon="11.642507595600668"><ele>205.66666666666669</ele><time>2026-04-03T16:06:42Z</time></trkpt><trkpt lat="42.52099611221104" lon="11.642240324644417"><ele>204.33333333333334</ele><time>2026-04-03T16:06:43Z</time></trkpt><trkpt lat="42.521092332101446" lon="11.641970645218636"><ele>203.0</ele><time>2026-04-03T16:06:44Z</time></trkpt><trkpt lat="42.521194296767646" lon="11.641679035470256"><ele>197.0</ele><time>2026-04-03T16:06:45Z</time></trkpt><trkpt lat="42.52129531595989" lon="11.641388351670782"><ele>191.0</ele><time>2026-04-03T16:06:45.999Z</time></trkpt><trkpt lat="42.52139995439185" lon="11.641115379192746"><ele>191.0</ele><time>2026-04-03T16:06:46.999Z</time></trkpt><trkpt lat="42.521489204209765" lon="11.640853894376045"><ele>191.0</ele><time>2026-04-03T16:06:47.999Z</time></trkpt><trkpt lat="42.52157245298991" lon="11.640595715096923"><ele>191.0</ele><time>2026-04-03T16:06:48.999Z</time></trkpt><trkpt lat="42.52163049604497" lon="11.640322984705172"><ele>192.33333333333331</ele><time>2026-04-03T16:06:49.999Z</time></trkpt><trkpt lat="42.52164991661869" lon="11.640030485051946"><ele>193.66666666666666</ele><time>2026-04-03T16:06:50.999Z</time></trkpt><trkpt lat="42.52164123314806" lon="11.639722379193717"><ele>195.0</ele><time>2026-04-03T16:06:51.999Z</time></trkpt><trkpt lat="42.52162381913911" lon="11.639433503471361"><ele>198.0</ele><time>2026-04-03T16:06:52.999Z</time></trkpt><trkpt lat="42.52160553073294" lon="11.639167198039647"><ele>201.0</ele><time>2026-04-03T16:06:53.999Z</time></trkpt><trkpt lat="42.52159007993903" lon="11.638912681454572"><ele>204.0</ele><time>2026-04-03T16:06:54.999Z</time></trkpt><trkpt lat="42.521577542540804" lon="11.638655887768927"><ele>204.66666666666669</ele><time>2026-04-03T16:06:55.999Z</time></trkpt><trkpt lat="42.52154862135202" lon="11.638387926725215"><ele>205.33333333333334</ele><time>2026-04-03T16:06:56.999Z</time></trkpt><trkpt lat="42.52150466060169" lon="11.638123730781915"><ele>206.0</ele><time>2026-04-03T16:06:57.999Z</time></trkpt><trkpt lat="42.52144376552893" lon="11.637849142485761"><ele>206.0</ele><time>2026-04-03T16:06:58.999Z</time></trkpt><trkpt lat="42.521378823117445" lon="11.637581947293652"><ele>206.0</ele><time>2026-04-03T16:06:59.999Z</time></trkpt><trkpt lat="42.5213166991267" lon="11.637302603720233"><ele>206.0</ele><time>2026-04-03T16:07:00.999Z</time></trkpt><trkpt lat="42.521245647568584" lon="11.637015061915674"><ele>205.33333333333334</ele><time>2026-04-03T16:07:01.999Z</time></trkpt><trkpt lat="42.521174862456455" lon="11.636733178277975"><ele>204.66666666666669</ele><time>2026-04-03T16:07:02.999Z</time></trkpt><trkpt lat="42.52111625624234" lon="11.636435066048854"><ele>204.0</ele><time>2026-04-03T16:07:03.999Z</time></trkpt><trkpt lat="42.52104489286948" lon="11.636136558873979"><ele>204.0</ele><time>2026-04-03T16:07:04.999Z</time></trkpt><trkpt lat="42.52097535522385" lon="11.635847696415247"><ele>204.0</ele><time>2026-04-03T16:07:05.999Z</time></trkpt><trkpt lat="42.52090421455146" lon="11.635566687833874"><ele>204.0</ele><time>2026-04-03T16:07:06.999Z</time></trkpt><trkpt lat="42.520839141021035" lon="11.635305871499325"><ele>204.66666666666669</ele><time>2026-04-03T16:07:07.999Z</time></trkpt><trkpt lat="42.52077830730567" lon="11.635055311496158"><ele>205.33333333333334</ele><time>2026-04-03T16:07:08.999Z</time></trkpt><trkpt lat="42.520721914243175" lon="11.634815934028147"><ele>206.0</ele><time>2026-04-03T16:07:09.999Z</time></trkpt><trkpt lat="42.520668897543025" lon="11.634577178975686"><ele>205.33333333333334</ele><time>2026-04-03T16:07:10.999Z</time></trkpt><trkpt lat="42.520623236508804" lon="11.634320301853109"><ele>204.66666666666669</ele><time>2026-04-03T16:07:11.999Z</time></trkpt><trkpt lat="42.52057215584602" lon="11.634053258607938"><ele>204.0</ele><time>2026-04-03T16:07:12.999Z</time></trkpt><trkpt lat="42.52054105019329" lon="11.63377204640698"><ele>203.0</ele><time>2026-04-03T16:07:13.999Z</time></trkpt><trkpt lat="42.52052605084449" lon="11.633479444646763"><ele>202.0</ele><time>2026-04-03T16:07:14.999Z</time></trkpt><trkpt lat="42.520480116596026" lon="11.63317887670947"><ele>201.0</ele><time>2026-04-03T16:07:15.999Z</time></trkpt><trkpt lat="42.520459630953276" lon="11.632849669583425"><ele>199.0</ele><time>2026-04-03T16:07:16.999Z</time></trkpt><trkpt lat="42.52042502415759" lon="11.632521537382155"><ele>197.0</ele><time>2026-04-03T16:07:17.999Z</time></trkpt><trkpt lat="42.520374633207155" lon="11.632188544228708"><ele>196.0</ele><time>2026-04-03T16:07:18.999Z</time></trkpt><trkpt lat="42.52035527998597" lon="11.63184806356071"><ele>195.0</ele><time>2026-04-03T16:07:19.999Z</time></trkpt><trkpt lat="42.52032025848158" lon="11.631514681636753"><ele>195.0</ele><time>2026-04-03T16:07:20.999Z</time></trkpt><trkpt lat="42.52027066848324" lon="11.63119500343159"><ele>195.0</ele><time>2026-04-03T16:07:21.999Z</time></trkpt><trkpt lat="42.52023966989506" lon="11.630880364602618"><ele>193.5</ele><time>2026-04-03T16:07:22.999Z</time></trkpt><trkpt lat="42.52019936445543" lon="11.630553358247367"><ele>192.0</ele><time>2026-04-03T16:07:23.999Z</time></trkpt><trkpt lat="42.520181269910296" lon="11.63023039938467"><ele>189.5</ele><time>2026-04-03T16:07:24.999Z</time></trkpt><trkpt lat="42.52014755788378" lon="11.629904942016589"><ele>187.0</ele><time>2026-04-03T16:07:25.999Z</time></trkpt><trkpt lat="42.52011152305972" lon="11.629586145598887"><ele>185.5</ele><time>2026-04-03T16:07:26.999Z</time></trkpt><trkpt lat="42.52007378648624" lon="11.629258267790721"><ele>184.0</ele><time>2026-04-03T16:07:27.999Z</time></trkpt><trkpt lat="42.520033999512215" lon="11.62890932853621"><ele>183.0</ele><time>2026-04-03T16:07:28.999Z</time></trkpt><trkpt lat="42.519997289695965" lon="11.628565711114296"><ele>182.0</ele><time>2026-04-03T16:07:29.999Z</time></trkpt><trkpt lat="42.51996304146184" lon="11.628245135046104"><ele>182.0</ele><time>2026-04-03T16:07:30.999Z</time></trkpt><trkpt lat="42.51991463967468" lon="11.627945754696812"><ele>182.0</ele><time>2026-04-03T16:07:31.999Z</time></trkpt><trkpt lat="42.51988561440531" lon="11.627650466756608"><ele>182.0</ele><time>2026-04-03T16:07:32.999Z</time></trkpt><trkpt lat="42.51985300585808" lon="11.627353411463174"><ele>181.33333333333331</ele><time>2026-04-03T16:07:33.999Z</time></trkpt><trkpt lat="42.519819864582104" lon="11.627053492709855"><ele>180.66666666666666</ele><time>2026-04-03T16:07:34.999Z</time></trkpt><trkpt lat="42.51978720457071" lon="11.626752850417024"><ele>180.0</ele><time>2026-04-03T16:07:35.999Z</time></trkpt><trkpt lat="42.51975273998753" lon="11.626455796457671"><ele>180.0</ele><time>2026-04-03T16:07:36.999Z</time></trkpt><trkpt lat="42.51972325301771" lon="11.626171058455531"><ele>180.0</ele><time>2026-04-03T16:07:37.999Z</time></trkpt><trkpt lat="42.51969411432523" lon="11.625909748911479"><ele>180.0</ele><time>2026-04-03T16:07:38.999Z</time></trkpt><trkpt lat="42.51968415330217" lon="11.625656036152849"><ele>180.0</ele><time>2026-04-03T16:07:39.999Z</time></trkpt><trkpt lat="42.51966600732548" lon="11.625386982058675"><ele>180.0</ele><time>2026-04-03T16:07:40.999Z</time></trkpt><trkpt lat="42.519664350323204" lon="11.625095433535515"><ele>180.0</ele><time>2026-04-03T16:07:41.999Z</time></trkpt><trkpt lat="42.519681692157576" lon="11.624813387172027"><ele>179.5</ele><time>2026-04-03T16:07:42.999Z</time></trkpt><trkpt lat="42.519705993984694" lon="11.624516183762706"><ele>179.0</ele><time>2026-04-03T16:07:43.999Z</time></trkpt><trkpt lat="42.51972140202669" lon="11.6242035562363"><ele>179.0</ele><time>2026-04-03T16:07:44.999Z</time></trkpt><trkpt lat="42.5197548523769" lon="11.623905212086921"><ele>179.0</ele><time>2026-04-03T16:07:45.999Z</time></trkpt><trkpt lat="42.51977832257922" lon="11.623614005289811"><ele>179.0</ele><time>2026-04-03T16:07:46.999Z</time></trkpt><trkpt lat="42.519800253288885" lon="11.623331119516445"><ele>178.33333333333331</ele><time>2026-04-03T16:07:47.999Z</time></trkpt><trkpt lat="42.51982040687981" lon="11.623061444477534"><ele>177.66666666666666</ele><time>2026-04-03T16:07:48.999Z</time></trkpt><trkpt lat="42.519840060442824" lon="11.622799402163523"><ele>177.0</ele><time>2026-04-03T16:07:49.999Z</time></trkpt><trkpt lat="42.519859116576114" lon="11.622549722444786"><ele>177.0</ele><time>2026-04-03T16:07:50.999Z</time></trkpt><trkpt lat="42.51987459895062" lon="11.622316582010276"><ele>177.0</ele><time>2026-04-03T16:07:52Z</time></trkpt><trkpt lat="42.51988871660923" lon="11.622112947790624"><ele>177.0</ele><time>2026-04-03T16:07:53Z</time></trkpt><trkpt lat="42.51992785468023" lon="11.621899381965825"><ele>176.33333333333334</ele><time>2026-04-03T16:07:54Z</time></trkpt><trkpt lat="42.51999045015893" lon="11.621697250474957"><ele>175.66666666666669</ele><time>2026-04-03T16:07:55Z</time></trkpt><trkpt lat="42.520074424255746" lon="11.621496265042163"><ele>175.0</ele><time>2026-04-03T16:07:56Z</time></trkpt><trkpt lat="42.52019104699991" lon="11.621288969751264"><ele>174.33333333333334</ele><time>2026-04-03T16:07:57Z</time></trkpt><trkpt lat="42.52032168848846" lon="11.621078442088907"><ele>173.66666666666666</ele><time>2026-04-03T16:07:58Z</time></trkpt><trkpt lat="42.52045123025786" lon="11.620849344561767"><ele>173.0</ele><time>2026-04-03T16:07:59Z</time></trkpt><trkpt lat="42.520567922870775" lon="11.620637254768916"><ele>172.0</ele><time>2026-04-03T16:08:00Z</time></trkpt><trkpt lat="42.520686832271785" lon="11.620438820024253"><ele>171.0</ele><time>2026-04-03T16:08:01Z</time></trkpt><trkpt lat="42.52080387159556" lon="11.620252834794808"><ele>170.0</ele><time>2026-04-03T16:08:02Z</time></trkpt><trkpt lat="42.52091145332428" lon="11.620073013639475"><ele>169.33333333333331</ele><time>2026-04-03T16:08:03Z</time></trkpt><trkpt lat="42.52100434345291" lon="11.61989810130252"><ele>168.66666666666666</ele><time>2026-04-03T16:08:04Z</time></trkpt><trkpt lat="42.5210738021413" lon="11.619714969347926"><ele>168.0</ele><time>2026-04-03T16:08:05Z</time></trkpt><trkpt lat="42.52112940677341" lon="11.619520838905219"><ele>167.0</ele><time>2026-04-03T16:08:06Z</time></trkpt><trkpt lat="42.52114952945846" lon="11.619305740591406"><ele>166.0</ele><time>2026-04-03T16:08:07Z</time></trkpt><trkpt lat="42.52113367429316" lon="11.61909703571633"><ele>165.0</ele><time>2026-04-03T16:08:08Z</time></trkpt><trkpt lat="42.52108518101461" lon="11.618888124702162"><ele>165.0</ele><time>2026-04-03T16:08:09Z</time></trkpt><trkpt lat="42.52100885216369" lon="11.6186726233131"><ele>165.0</ele><time>2026-04-03T16:08:10Z</time></trkpt><trkpt lat="42.52091024713965" lon="11.618445021046043"><ele>165.0</ele><time>2026-04-03T16:08:11Z</time></trkpt><trkpt lat="42.520801816071305" lon="11.618198975975595"><ele>164.66666666666666</ele><time>2026-04-03T16:08:12Z</time></trkpt><trkpt lat="42.52069608001467" lon="11.617947217800527"><ele>164.33333333333331</ele><time>2026-04-03T16:08:13Z</time></trkpt><trkpt lat="42.5205917542475" lon="11.617700234727764"><ele>164.0</ele><time>2026-04-03T16:08:14Z</time></trkpt><trkpt lat="42.52050205435292" lon="11.617451312539554"><ele>164.0</ele><time>2026-04-03T16:08:15Z</time></trkpt><trkpt lat="42.5204068005301" lon="11.617225461452533"><ele>164.0</ele><time>2026-04-03T16:08:16Z</time></trkpt><trkpt lat="42.520316878671395" lon="11.617009855701939"><ele>164.0</ele><time>2026-04-03T16:08:17Z</time></trkpt><trkpt lat="42.52022417313639" lon="11.616791589764741"><ele>164.33333333333331</ele><time>2026-04-03T16:08:18Z</time></trkpt><trkpt lat="42.5201135040102" lon="11.616576736788392"><ele>164.66666666666666</ele><time>2026-04-03T16:08:19Z</time></trkpt><trkpt lat="42.52003099367441" lon="11.616334164053534"><ele>165.0</ele><time>2026-04-03T16:08:20Z</time></trkpt><trkpt lat="42.5199392730856" lon="11.616110356010147"><ele>165.0</ele><time>2026-04-03T16:08:21Z</time></trkpt><trkpt lat="42.51984986709371" lon="11.615893022023359"><ele>165.0</ele><time>2026-04-03T16:08:22Z</time></trkpt><trkpt lat="42.519758518880465" lon="11.615678441829608"><ele>165.0</ele><time>2026-04-03T16:08:23Z</time></trkpt><trkpt lat="42.5196754662415" lon="11.615479183970697"><ele>163.33333333333334</ele><time>2026-04-03T16:08:24Z</time></trkpt><trkpt lat="42.51957679125484" lon="11.61527875342521"><ele>161.66666666666669</ele><time>2026-04-03T16:08:25Z</time></trkpt><trkpt lat="42.5194580425517" lon="11.615076643221625"><ele>160.0</ele><time>2026-04-03T16:08:26Z</time></trkpt><trkpt lat="42.519322598595615" lon="11.614871153884888"><ele>157.66666666666669</ele><time>2026-04-03T16:08:27Z</time></trkpt><trkpt lat="42.519182141008834" lon="11.614670271466563"><ele>155.33333333333334</ele><time>2026-04-03T16:08:28Z</time></trkpt><trkpt lat="42.519039131246664" lon="11.614482831429049"><ele>153.0</ele><time>2026-04-03T16:08:29Z</time></trkpt><trkpt lat="42.51890207451325" lon="11.614303386625307"><ele>152.33333333333334</ele><time>2026-04-03T16:08:30Z</time></trkpt><trkpt lat="42.518771437761025" lon="11.614130180667429"><ele>151.66666666666669</ele><time>2026-04-03T16:08:31Z</time></trkpt><trkpt lat="42.51865764275549" lon="11.613976524639554"><ele>151.0</ele><time>2026-04-03T16:08:32Z</time></trkpt><trkpt lat="42.5185519348508" lon="11.613838091353683"><ele>149.5</ele><time>2026-04-03T16:08:33Z</time></trkpt><trkpt lat="42.518458699232454" lon="11.613720421411111"><ele>148.0</ele><time>2026-04-03T16:08:34Z</time></trkpt><trkpt lat="42.51838163436202" lon="11.613609192247115"><ele>146.5</ele><time>2026-04-03T16:08:35Z</time></trkpt><trkpt lat="42.518320039806284" lon="11.613497031442105"><ele>145.0</ele><time>2026-04-03T16:08:36Z</time></trkpt><trkpt lat="42.51827220678539" lon="11.613366966204616"><ele>143.75</ele><time>2026-04-03T16:08:37Z</time></trkpt><trkpt lat="42.51823193142657" lon="11.613222534338263"><ele>142.5</ele><time>2026-04-03T16:08:38Z</time></trkpt><trkpt lat="42.51823293164036" lon="11.613039041037686"><ele>141.25</ele><time>2026-04-03T16:08:39Z</time></trkpt><trkpt lat="42.51825440808075" lon="11.612848374626802"><ele>140.0</ele><time>2026-04-03T16:08:40Z</time></trkpt><trkpt lat="42.51829914258459" lon="11.612671991083094"><ele>138.0</ele><time>2026-04-03T16:08:41Z</time></trkpt><trkpt lat="42.51837021804036" lon="11.612519998412898"><ele>136.0</ele><time>2026-04-03T16:08:42Z</time></trkpt><trkpt lat="42.518456525609444" lon="11.612375229890423"><ele>134.0</ele><time>2026-04-03T16:08:43Z</time></trkpt><trkpt lat="42.51857167707839" lon="11.612261883412831"><ele>132.0</ele><time>2026-04-03T16:08:44Z</time></trkpt><trkpt lat="42.5187057331552" lon="11.612161672381832"><ele>131.66666666666666</ele><time>2026-04-03T16:08:45Z</time></trkpt><trkpt lat="42.518860419608735" lon="11.612053867763423"><ele>131.33333333333331</ele><time>2026-04-03T16:08:46Z</time></trkpt><trkpt lat="42.51901600458746" lon="11.611945395058646"><ele>131.0</ele><time>2026-04-03T16:08:47Z</time></trkpt><trkpt lat="42.51918175883955" lon="11.611828851011134"><ele>131.0</ele><time>2026-04-03T16:08:48Z</time></trkpt><trkpt lat="42.519330959018525" lon="11.611707571553053"><ele>131.0</ele><time>2026-04-03T16:08:49Z</time></trkpt><trkpt lat="42.51946175127719" lon="11.611579208437089"><ele>131.0</ele><time>2026-04-03T16:08:50Z</time></trkpt><trkpt lat="42.51957670736393" lon="11.611416122107967"><ele>130.33333333333331</ele><time>2026-04-03T16:08:51Z</time></trkpt><trkpt lat="42.519666275260285" lon="11.611228812191452"><ele>129.66666666666666</ele><time>2026-04-03T16:08:52Z</time></trkpt><trkpt lat="42.519734159446465" lon="11.611023758479078"><ele>129.0</ele><time>2026-04-03T16:08:53Z</time></trkpt><trkpt lat="42.519794780143336" lon="11.61080282890892"><ele>129.0</ele><time>2026-04-03T16:08:54Z</time></trkpt><trkpt lat="42.51985247218524" lon="11.610575311153342"><ele>129.0</ele><time>2026-04-03T16:08:54.999Z</time></trkpt><trkpt lat="42.519908360056505" lon="11.610357901581674"><ele>129.0</ele><time>2026-04-03T16:08:55.999Z</time></trkpt><trkpt lat="42.5199685697145" lon="11.610159184787634"><ele>126.33333333333334</ele><time>2026-04-03T16:08:56.999Z</time></trkpt><trkpt lat="42.52002457398448" lon="11.609965495942975"><ele>123.66666666666667</ele><time>2026-04-03T16:08:57.999Z</time></trkpt><trkpt lat="42.520084442339375" lon="11.609774601105398"><ele>121.0</ele><time>2026-04-03T16:08:58.999Z</time></trkpt><trkpt lat="42.52016503472766" lon="11.609596106852731"><ele>119.33333333333334</ele><time>2026-04-03T16:08:59.999Z</time></trkpt><trkpt lat="42.520269491395034" lon="11.60945419256029"><ele>117.66666666666666</ele><time>2026-04-03T16:09:00.999Z</time></trkpt><trkpt lat="42.520394237932024" lon="11.609344083832204"><ele>116.0</ele><time>2026-04-03T16:09:01.999Z</time></trkpt><trkpt lat="42.52053444144172" lon="11.609253565803613"><ele>116.0</ele><time>2026-04-03T16:09:02.999Z</time></trkpt><trkpt lat="42.52068053171919" lon="11.609161571630773"><ele>116.0</ele><time>2026-04-03T16:09:03.999Z</time></trkpt><trkpt lat="42.52082556169455" lon="11.60906554579412"><ele>116.0</ele><time>2026-04-03T16:09:04.999Z</time></trkpt><trkpt lat="42.52096693996094" lon="11.608973461310857"><ele>116.0</ele><time>2026-04-03T16:09:05.999Z</time></trkpt><trkpt lat="42.52109870999283" lon="11.60889689079746"><ele>116.0</ele><time>2026-04-03T16:09:06.999Z</time></trkpt><trkpt lat="42.521244379471" lon="11.608855191725056"><ele>116.0</ele><time>2026-04-03T16:09:07.999Z</time></trkpt><trkpt lat="42.52141195790763" lon="11.608855950786202"><ele>118.0</ele><time>2026-04-03T16:09:08.999Z</time></trkpt><trkpt lat="42.52158584362273" lon="11.608877467875558"><ele>120.0</ele><time>2026-04-03T16:09:09.999Z</time></trkpt><trkpt lat="42.52174366745187" lon="11.608895896719451"><ele>122.0</ele><time>2026-04-03T16:09:10.999Z</time></trkpt><trkpt lat="42.521906696672765" lon="11.608914952329611"><ele>116.66666666666666</ele><time>2026-04-03T16:09:11.999Z</time></trkpt><trkpt lat="42.52208107297265" lon="11.608941841010756"><ele>111.33333333333334</ele><time>2026-04-03T16:09:12.999Z</time></trkpt><trkpt lat="42.5222541862431" lon="11.608991744115913"><ele>106.0</ele><time>2026-04-03T16:09:13.999Z</time></trkpt><trkpt lat="42.5224107069197" lon="11.609055884813927"><ele>106.0</ele><time>2026-04-03T16:09:14.999Z</time></trkpt><trkpt lat="42.52255359138412" lon="11.609122829726266"><ele>106.0</ele><time>2026-04-03T16:09:15.999Z</time></trkpt><trkpt lat="42.52268944410692" lon="11.609183443880818"><ele>106.0</ele><time>2026-04-03T16:09:16.999Z</time></trkpt><trkpt lat="42.52283007402946" lon="11.60923770212336"><ele>106.0</ele><time>2026-04-03T16:09:17.999Z</time></trkpt><trkpt lat="42.52298046076887" lon="11.60929288758268"><ele>105.33333333333334</ele><time>2026-04-03T16:09:18.999Z</time></trkpt><trkpt lat="42.523132606357265" lon="11.609350455412411"><ele>104.66666666666666</ele><time>2026-04-03T16:09:19.999Z</time></trkpt><trkpt lat="42.523292822521164" lon="11.609401082068278"><ele>104.0</ele><time>2026-04-03T16:09:20.999Z</time></trkpt><trkpt lat="42.52348768028267" lon="11.609436131115467"><ele>104.0</ele><time>2026-04-03T16:09:21.999Z</time></trkpt><trkpt lat="42.52368704881384" lon="11.609474434366884"><ele>104.0</ele><time>2026-04-03T16:09:22.999Z</time></trkpt><trkpt lat="42.52386819567812" lon="11.609494647445782"><ele>104.0</ele><time>2026-04-03T16:09:23.999Z</time></trkpt><trkpt lat="42.52404514664713" lon="11.609517043680032"><ele>113.66666666666666</ele><time>2026-04-03T16:09:24.999Z</time></trkpt><trkpt lat="42.52421625694982" lon="11.609562577195167"><ele>123.33333333333334</ele><time>2026-04-03T16:09:25.999Z</time></trkpt><trkpt lat="42.524374345813975" lon="11.609629773795929"><ele>133.0</ele><time>2026-04-03T16:09:26.999Z</time></trkpt><trkpt lat="42.52453420357465" lon="11.609700773209019"><ele>129.33333333333334</ele><time>2026-04-03T16:09:27.999Z</time></trkpt><trkpt lat="42.5246978327145" lon="11.609770651082012"><ele>125.66666666666666</ele><time>2026-04-03T16:09:28.999Z</time></trkpt><trkpt lat="42.524868819049935" lon="11.609820790672124"><ele>122.0</ele><time>2026-04-03T16:09:29.999Z</time></trkpt><trkpt lat="42.525051489702285" lon="11.609835668704688"><ele>122.0</ele><time>2026-04-03T16:09:30.999Z</time></trkpt><trkpt lat="42.52523857338785" lon="11.609823378011953"><ele>122.0</ele><time>2026-04-03T16:09:31.999Z</time></trkpt><trkpt lat="42.52541633549062" lon="11.609798084409052"><ele>122.0</ele><time>2026-04-03T16:09:32.999Z</time></trkpt><trkpt lat="42.52558533850763" lon="11.609786842729315"><ele>121.75</ele><time>2026-04-03T16:09:33.999Z</time></trkpt><trkpt lat="42.52574218376941" lon="11.609775685089051"><ele>121.5</ele><time>2026-04-03T16:09:34.999Z</time></trkpt><trkpt lat="42.525887430050894" lon="11.609745583205235"><ele>121.25</ele><time>2026-04-03T16:09:35.999Z</time></trkpt><trkpt lat="42.52601836182483" lon="11.609683421455307"><ele>121.0</ele><time>2026-04-03T16:09:36.999Z</time></trkpt><trkpt lat="42.526134131190496" lon="11.609552926199852"><ele>120.0</ele><time>2026-04-03T16:09:37.999Z</time></trkpt><trkpt lat="42.526251433662566" lon="11.609379447871078"><ele>119.0</ele><time>2026-04-03T16:09:38.999Z</time></trkpt><trkpt lat="42.526376949170256" lon="11.60920221800382"><ele>118.0</ele><time>2026-04-03T16:09:39.999Z</time></trkpt><trkpt lat="42.52649313166377" lon="11.609041653940366"><ele>118.0</ele><time>2026-04-03T16:09:40.999Z</time></trkpt><trkpt lat="42.52661334741726" lon="11.608883371798486"><ele>118.0</ele><time>2026-04-03T16:09:41.999Z</time></trkpt><trkpt lat="42.526723732533775" lon="11.60872690200908"><ele>118.0</ele><time>2026-04-03T16:09:42.999Z</time></trkpt><trkpt lat="42.52682911943736" lon="11.608557790500518"><ele>114.66666666666667</ele><time>2026-04-03T16:09:43.999Z</time></trkpt><trkpt lat="42.52692062571375" lon="11.608382156476825"><ele>111.33333333333334</ele><time>2026-04-03T16:09:44.999Z</time></trkpt><trkpt lat="42.52699933218597" lon="11.608178747323167"><ele>108.0</ele><time>2026-04-03T16:09:45.999Z</time></trkpt><trkpt lat="42.52706724929279" lon="11.607956073068896"><ele>112.0</ele><time>2026-04-03T16:09:46.999Z</time></trkpt><trkpt lat="42.52713713713334" lon="11.607752162192382"><ele>116.0</ele><time>2026-04-03T16:09:47.999Z</time></trkpt><trkpt lat="42.5272132972738" lon="11.6075420988049"><ele>120.0</ele><time>2026-04-03T16:09:48.999Z</time></trkpt><trkpt lat="42.527294773525945" lon="11.607325893036839"><ele>120.0</ele><time>2026-04-03T16:09:49.999Z</time></trkpt><trkpt lat="42.52741211030191" lon="11.607123191911795"><ele>120.0</ele><time>2026-04-03T16:09:50.999Z</time></trkpt><trkpt lat="42.5275002578092" lon="11.60688271798953"><ele>120.0</ele><time>2026-04-03T16:09:51.999Z</time></trkpt><trkpt lat="42.5276072685206" lon="11.606664223786023"><ele>121.33333333333334</ele><time>2026-04-03T16:09:52.999Z</time></trkpt><trkpt lat="42.527716363906315" lon="11.606445036145482"><ele>122.66666666666667</ele><time>2026-04-03T16:09:53.999Z</time></trkpt><trkpt lat="42.527814900311874" lon="11.606239359911658"><ele>124.0</ele><time>2026-04-03T16:09:54.999Z</time></trkpt><trkpt lat="42.52789762065177" lon="11.60603707986697"><ele>124.0</ele><time>2026-04-03T16:09:55.999Z</time></trkpt><trkpt lat="42.52793702917698" lon="11.605822888668678"><ele>124.0</ele><time>2026-04-03T16:09:56.999Z</time></trkpt><trkpt lat="42.527931725221876" lon="11.605599916057589"><ele>124.0</ele><time>2026-04-03T16:09:58Z</time></trkpt><trkpt lat="42.52791887032584" lon="11.605369946927356"><ele>126.66666666666667</ele><time>2026-04-03T16:09:59Z</time></trkpt><trkpt lat="42.52790746207447" lon="11.605114604527879"><ele>129.33333333333334</ele><time>2026-04-03T16:10:00Z</time></trkpt><trkpt lat="42.52789442194627" lon="11.604864943465657"><ele>132.0</ele><time>2026-04-03T16:10:01Z</time></trkpt><trkpt lat="42.5278840586208" lon="11.60462556621931"><ele>132.33333333333334</ele><time>2026-04-03T16:10:02Z</time></trkpt><trkpt lat="42.52787766955174" lon="11.60440471005791"><ele>132.66666666666669</ele><time>2026-04-03T16:10:03Z</time></trkpt><trkpt lat="42.52788292570348" lon="11.604206955101711"><ele>133.0</ele><time>2026-04-03T16:10:04Z</time></trkpt><trkpt lat="42.52791695706374" lon="11.60400261278202"><ele>133.0</ele><time>2026-04-03T16:10:05Z</time></trkpt><trkpt lat="42.52794179742991" lon="11.603824691731637"><ele>133.0</ele><time>2026-04-03T16:10:06Z</time></trkpt><trkpt lat="42.52795140779781" lon="11.60372611912473"><ele>133.0</ele><time>2026-04-03T16:10:07Z</time></trkpt><trkpt lat="42.52798308805143" lon="11.603609126347088"><ele>133.0</ele><time>2026-04-03T16:10:09Z</time></trkpt><trkpt lat="42.52802638452446" lon="11.603539570155316"><ele>133.0</ele><time>2026-04-03T16:10:11Z</time></trkpt><trkpt lat="42.528059902141344" lon="11.603464220133318"><ele>133.0</ele><time>2026-04-03T16:10:13Z</time></trkpt><trkpt lat="42.528071769632284" lon="11.603370082647173"><ele>133.20000000000002</ele><time>2026-04-03T16:10:14Z</time></trkpt><trkpt lat="42.528067908157674" lon="11.603242118229645"><ele>133.4</ele><time>2026-04-03T16:10:15Z</time></trkpt><trkpt lat="42.5280660726931" lon="11.603097430638364"><ele>133.60000000000002</ele><time>2026-04-03T16:10:16Z</time></trkpt><trkpt lat="42.528086393324585" lon="11.60295492753628"><ele>133.8</ele><time>2026-04-03T16:10:17Z</time></trkpt><trkpt lat="42.528116013462174" lon="11.602825588962784"><ele>134.0</ele><time>2026-04-03T16:10:18Z</time></trkpt><trkpt lat="42.52814328818773" lon="11.602707117681833"><ele>132.66666666666666</ele><time>2026-04-03T16:10:19Z</time></trkpt><trkpt lat="42.52816321082754" lon="11.602600071110247"><ele>131.33333333333331</ele><time>2026-04-03T16:10:20Z</time></trkpt><trkpt lat="42.528169669449255" lon="11.602499563321276"><ele>130.0</ele><time>2026-04-03T16:10:21Z</time></trkpt><trkpt lat="42.52813791401882" lon="11.602394261113906"><ele>128.66666666666666</ele><time>2026-04-03T16:10:22Z</time></trkpt><trkpt lat="42.52810001324774" lon="11.602322713471658"><ele>127.33333333333333</ele><time>2026-04-03T16:10:23Z</time></trkpt><trkpt lat="42.528020267749" lon="11.602240620493204"><ele>126.0</ele><time>2026-04-03T16:10:25Z</time></trkpt><trkpt lat="42.52796459913399" lon="11.602172814301314"><ele>126.0</ele><time>2026-04-03T16:10:27Z</time></trkpt><trkpt lat="42.5279275924166" lon="11.602103445545255"><ele>126.0</ele><time>2026-04-03T16:10:30Z</time></trkpt><trkpt lat="42.52787537196313" lon="11.602034887917995"><ele>126.0</ele><time>2026-04-03T16:11:48.999Z</time></trkpt><trkpt lat="42.527780133264145" lon="11.601894804142503"><ele>126.0</ele><time>2026-04-03T16:11:50.999Z</time></trkpt><trkpt lat="42.52772599003776" lon="11.601819838895839"><ele>126.0</ele><time>2026-04-03T16:11:51.999Z</time></trkpt><trkpt lat="42.52767543374636" lon="11.601744494162388"><ele>126.0</ele><time>2026-04-03T16:11:52.999Z</time></trkpt><trkpt lat="42.52759260435385" lon="11.60161505539231"><ele>126.8</ele><time>2026-04-03T16:11:54.999Z</time></trkpt><trkpt lat="42.5275452222511" lon="11.601551233068493"><ele>127.6</ele><time>2026-04-03T16:11:55.999Z</time></trkpt><trkpt lat="42.52746892507751" lon="11.601416823924076"><ele>128.4</ele><time>2026-04-03T16:11:57.999Z</time></trkpt><trkpt lat="42.52743609464356" lon="11.601342569004801"><ele>129.2</ele><time>2026-04-03T16:11:58.999Z</time></trkpt><trkpt lat="42.52743858435487" lon="11.60115869541793"><ele>130.0</ele><time>2026-04-03T16:12:00.999Z</time></trkpt><trkpt lat="42.52748650198602" lon="11.601027955914931"><ele>130.0</ele><time>2026-04-03T16:12:01.999Z</time></trkpt><trkpt lat="42.527545400552185" lon="11.600889190106148"><ele>130.0</ele><time>2026-04-03T16:12:02.999Z</time></trkpt><trkpt lat="42.52761428411502" lon="11.600744741847253"><ele>130.0</ele><time>2026-04-03T16:12:03.999Z</time></trkpt><trkpt lat="42.52769477216919" lon="11.600590832043483"><ele>130.0</ele><time>2026-04-03T16:12:04.999Z</time></trkpt><trkpt lat="42.52778193053492" lon="11.60041730332237"><ele>135.33333333333334</ele><time>2026-04-03T16:12:05.999Z</time></trkpt><trkpt lat="42.52787010865392" lon="11.600233210190801"><ele>140.66666666666666</ele><time>2026-04-03T16:12:06.999Z</time></trkpt><trkpt lat="42.527956098627314" lon="11.600053928831636"><ele>146.0</ele><time>2026-04-03T16:12:07.999Z</time></trkpt><trkpt lat="42.52803829323718" lon="11.599882399133346"><ele>140.0</ele><time>2026-04-03T16:12:08.999Z</time></trkpt><trkpt lat="42.528112186387254" lon="11.599713939852629"><ele>134.0</ele><time>2026-04-03T16:12:10Z</time></trkpt><trkpt lat="42.52818306235978" lon="11.599552474460156"><ele>128.0</ele><time>2026-04-03T16:12:11Z</time></trkpt><trkpt lat="42.52823875800321" lon="11.599375555694396"><ele>122.0</ele><time>2026-04-03T16:12:12Z</time></trkpt><trkpt lat="42.52827378548491" lon="11.599194091693592"><ele>122.0</ele><time>2026-04-03T16:12:13Z</time></trkpt><trkpt lat="42.52830836080344" lon="11.5990331076973"><ele>122.0</ele><time>2026-04-03T16:12:14Z</time></trkpt><trkpt lat="42.528381609827505" lon="11.598873964179203"><ele>122.0</ele><time>2026-04-03T16:12:15Z</time></trkpt><trkpt lat="42.528490997251005" lon="11.598731077791914"><ele>122.0</ele><time>2026-04-03T16:12:16Z</time></trkpt><trkpt lat="42.5286042742512" lon="11.598586150525668"><ele>119.0</ele><time>2026-04-03T16:12:17Z</time></trkpt><trkpt lat="42.52871801326019" lon="11.598428808548237"><ele>116.0</ele><time>2026-04-03T16:12:18Z</time></trkpt><trkpt lat="42.52882691738643" lon="11.598261858996878"><ele>113.0</ele><time>2026-04-03T16:12:19Z</time></trkpt><trkpt lat="42.52892759351713" lon="11.598079414464076"><ele>113.0</ele><time>2026-04-03T16:12:20Z</time></trkpt><trkpt lat="42.52901497804957" lon="11.597894758100649"><ele>113.0</ele><time>2026-04-03T16:12:21Z</time></trkpt><trkpt lat="42.52909934937781" lon="11.59772005593226"><ele>113.0</ele><time>2026-04-03T16:12:22Z</time></trkpt><trkpt lat="42.52917924962397" lon="11.597541143842992"><ele>118.66666666666666</ele><time>2026-04-03T16:12:23Z</time></trkpt><trkpt lat="42.52924892614118" lon="11.597357093154013"><ele>124.33333333333334</ele><time>2026-04-03T16:12:24Z</time></trkpt><trkpt lat="42.52931095300665" lon="11.597166263272074"><ele>130.0</ele><time>2026-04-03T16:12:25Z</time></trkpt><trkpt lat="42.52934956497503" lon="11.596949308488055"><ele>132.66666666666669</ele><time>2026-04-03T16:12:26Z</time></trkpt><trkpt lat="42.52936756516419" lon="11.596722725167753"><ele>135.33333333333334</ele><time>2026-04-03T16:12:27Z</time></trkpt><trkpt lat="42.529379482528576" lon="11.59651970176989"><ele>138.0</ele><time>2026-04-03T16:12:28Z</time></trkpt><trkpt lat="42.529391878773545" lon="11.596328761742582"><ele>137.25</ele><time>2026-04-03T16:12:29Z</time></trkpt><trkpt lat="42.52940760912794" lon="11.596152187414363"><ele>136.5</ele><time>2026-04-03T16:12:30Z</time></trkpt><trkpt lat="42.52943433689737" lon="11.595986945537565"><ele>135.75</ele><time>2026-04-03T16:12:31Z</time></trkpt><trkpt lat="42.52947595025395" lon="11.595819802570729"><ele>135.0</ele><time>2026-04-03T16:12:32Z</time></trkpt><trkpt lat="42.52955081938097" lon="11.59564937100976"><ele>130.0</ele><time>2026-04-03T16:12:33Z</time></trkpt><trkpt lat="42.52964303131554" lon="11.59548199051449"><ele>125.0</ele><time>2026-04-03T16:12:34Z</time></trkpt><trkpt lat="42.529724632042644" lon="11.595299571136891"><ele>120.0</ele><time>2026-04-03T16:12:35Z</time></trkpt><trkpt lat="42.52977578378535" lon="11.595092063474869"><ele>120.0</ele><time>2026-04-03T16:12:36Z</time></trkpt><trkpt lat="42.52981612230096" lon="11.594872531452662"><ele>120.0</ele><time>2026-04-03T16:12:37Z</time></trkpt><trkpt lat="42.5298555443734" lon="11.59466072967519"><ele>120.0</ele><time>2026-04-03T16:12:38Z</time></trkpt><trkpt lat="42.529893850974645" lon="11.594448671488237"><ele>122.0</ele><time>2026-04-03T16:12:39Z</time></trkpt><trkpt lat="42.52992875408462" lon="11.594233050900105"><ele>124.0</ele><time>2026-04-03T16:12:40Z</time></trkpt><trkpt lat="42.5299593092017" lon="11.5940198544238"><ele>126.0</ele><time>2026-04-03T16:12:41Z</time></trkpt><trkpt lat="42.529991596938416" lon="11.593815987038807"><ele>131.33333333333334</ele><time>2026-04-03T16:12:42Z</time></trkpt><trkpt lat="42.53005201161516" lon="11.593626408160084"><ele>136.66666666666669</ele><time>2026-04-03T16:12:43Z</time></trkpt><trkpt lat="42.53015920285855" lon="11.593460664909989"><ele>142.0</ele><time>2026-04-03T16:12:44Z</time></trkpt><trkpt lat="42.53031361741468" lon="11.593311976407067"><ele>137.0</ele><time>2026-04-03T16:12:45Z</time></trkpt><trkpt lat="42.530467196714945" lon="11.593134711718147"><ele>132.0</ele><time>2026-04-03T16:12:46Z</time></trkpt><trkpt lat="42.53061359967991" lon="11.592927658778725"><ele>127.0</ele><time>2026-04-03T16:12:47Z</time></trkpt><trkpt lat="42.5307671989276" lon="11.592688555355886"><ele>127.0</ele><time>2026-04-03T16:12:48Z</time></trkpt><trkpt lat="42.53092049969186" lon="11.59244440186628"><ele>127.0</ele><time>2026-04-03T16:12:49Z</time></trkpt><trkpt lat="42.53106360672376" lon="11.592212264053458"><ele>124.66666666666667</ele><time>2026-04-03T16:12:50Z</time></trkpt><trkpt lat="42.531199681843745" lon="11.591998275120421"><ele>122.33333333333334</ele><time>2026-04-03T16:12:51Z</time></trkpt><trkpt lat="42.531328763613665" lon="11.591791162217389"><ele>120.0</ele><time>2026-04-03T16:12:52Z</time></trkpt><trkpt lat="42.53145539252825" lon="11.591587619387107"><ele>120.0</ele><time>2026-04-03T16:12:52.999Z</time></trkpt><trkpt lat="42.5315814145308" lon="11.591382782137147"><ele>120.0</ele><time>2026-04-03T16:12:53.999Z</time></trkpt><trkpt lat="42.53170352177371" lon="11.591185083973727"><ele>120.0</ele><time>2026-04-03T16:12:54.999Z</time></trkpt><trkpt lat="42.53181520844511" lon="11.591007321326966"><ele>120.66666666666666</ele><time>2026-04-03T16:12:55.999Z</time></trkpt><trkpt lat="42.531918609444276" lon="11.590842574648738"><ele>121.33333333333333</ele><time>2026-04-03T16:12:56.999Z</time></trkpt><trkpt lat="42.53201957584256" lon="11.590702861883518"><ele>122.0</ele><time>2026-04-03T16:12:57.999Z</time></trkpt><trkpt lat="42.53213578902891" lon="11.59057083009598"><ele>122.0</ele><time>2026-04-03T16:12:58.999Z</time></trkpt><trkpt lat="42.5322805300755" lon="11.590450314652342"><ele>122.0</ele><time>2026-04-03T16:12:59.999Z</time></trkpt><trkpt lat="42.532439767379245" lon="11.590340811104669"><ele>122.0</ele><time>2026-04-03T16:13:00.999Z</time></trkpt><trkpt lat="42.53260460628608" lon="11.59023447893694"><ele>123.0</ele><time>2026-04-03T16:13:01.999Z</time></trkpt><trkpt lat="42.53276284768336" lon="11.590131328145148"><ele>124.0</ele><time>2026-04-03T16:13:02.999Z</time></trkpt><trkpt lat="42.53291534285725" lon="11.590039117441753"><ele>125.0</ele><time>2026-04-03T16:13:03.999Z</time></trkpt><trkpt lat="42.533068019931484" lon="11.589969811112441"><ele>125.0</ele><time>2026-04-03T16:13:04.999Z</time></trkpt><trkpt lat="42.53323170822568" lon="11.589938371911966"><ele>125.0</ele><time>2026-04-03T16:13:05.999Z</time></trkpt><trkpt lat="42.53341079461396" lon="11.589935274349735"><ele>125.0</ele><time>2026-04-03T16:13:06.999Z</time></trkpt><trkpt lat="42.533612812022376" lon="11.589955149438357"><ele>123.0</ele><time>2026-04-03T16:13:07.999Z</time></trkpt><trkpt lat="42.53381859220096" lon="11.58997226781425"><ele>121.0</ele><time>2026-04-03T16:13:08.999Z</time></trkpt><trkpt lat="42.53401136772882" lon="11.58996847872338"><ele>119.0</ele><time>2026-04-03T16:13:09.999Z</time></trkpt><trkpt lat="42.534197033764784" lon="11.589942867482517"><ele>119.0</ele><time>2026-04-03T16:13:10.999Z</time></trkpt><trkpt lat="42.53437240325545" lon="11.589890906977468"><ele>119.0</ele><time>2026-04-03T16:13:11.999Z</time></trkpt><trkpt lat="42.534531971379614" lon="11.589791619393983"><ele>119.0</ele><time>2026-04-03T16:13:12.999Z</time></trkpt><trkpt lat="42.53468569501608" lon="11.589648827113217"><ele>117.0</ele><time>2026-04-03T16:13:13.999Z</time></trkpt><trkpt lat="42.53482854941741" lon="11.58947797616413"><ele>115.0</ele><time>2026-04-03T16:13:14.999Z</time></trkpt><trkpt lat="42.53497418095281" lon="11.589313960648623"><ele>113.0</ele><time>2026-04-03T16:13:15.999Z</time></trkpt><trkpt lat="42.53511676433416" lon="11.589154492073925"><ele>113.0</ele><time>2026-04-03T16:13:16.999Z</time></trkpt><trkpt lat="42.535252568765756" lon="11.589011194669252"><ele>113.0</ele><time>2026-04-03T16:13:17.999Z</time></trkpt><trkpt lat="42.53538063547696" lon="11.58887010015076"><ele>113.0</ele><time>2026-04-03T16:13:18.999Z</time></trkpt><trkpt lat="42.535501146022696" lon="11.588738228065592"><ele>112.66666666666666</ele><time>2026-04-03T16:13:19.999Z</time></trkpt><trkpt lat="42.535620391168386" lon="11.588606717617"><ele>112.33333333333334</ele><time>2026-04-03T16:13:20.999Z</time></trkpt><trkpt lat="42.53574888009146" lon="11.58847746062104"><ele>112.0</ele><time>2026-04-03T16:13:21.999Z</time></trkpt><trkpt lat="42.5358821654111" lon="11.588351905949638"><ele>112.0</ele><time>2026-04-03T16:13:22.999Z</time></trkpt><trkpt lat="42.53602053147042" lon="11.588244567465747"><ele>112.0</ele><time>2026-04-03T16:13:23.999Z</time></trkpt><trkpt lat="42.536169484650436" lon="11.588163971027416"><ele>112.0</ele><time>2026-04-03T16:13:24.999Z</time></trkpt><trkpt lat="42.536340938562724" lon="11.588111983798013"><ele>112.0</ele><time>2026-04-03T16:13:25.999Z</time></trkpt><trkpt lat="42.53651803930725" lon="11.588075912851318"><ele>112.0</ele><time>2026-04-03T16:13:26.999Z</time></trkpt><trkpt lat="42.53667896922905" lon="11.588044200159187"><ele>112.0</ele><time>2026-04-03T16:13:27.999Z</time></trkpt><trkpt lat="42.536823684267844" lon="11.588010706260993"><ele>112.0</ele><time>2026-04-03T16:13:28.999Z</time></trkpt><trkpt lat="42.5369497007062" lon="11.587949561000165"><ele>112.0</ele><time>2026-04-03T16:13:29.999Z</time></trkpt><trkpt lat="42.537055819964074" lon="11.587841286879332"><ele>112.0</ele><time>2026-04-03T16:13:30.999Z</time></trkpt><trkpt lat="42.537151605205196" lon="11.58768184375613"><ele>112.0</ele><time>2026-04-03T16:13:31.999Z</time></trkpt><trkpt lat="42.53723767944471" lon="11.58748766930447"><ele>111.33333333333334</ele><time>2026-04-03T16:13:32.999Z</time></trkpt><trkpt lat="42.537323108072506" lon="11.587288965894755"><ele>110.66666666666666</ele><time>2026-04-03T16:13:33.999Z</time></trkpt><trkpt lat="42.53740732882625" lon="11.587102219224255"><ele>110.0</ele><time>2026-04-03T16:13:34.999Z</time></trkpt><trkpt lat="42.53748984127185" lon="11.586925736476873"><ele>112.0</ele><time>2026-04-03T16:13:35.999Z</time></trkpt><trkpt lat="42.53757072432372" lon="11.586750081991585"><ele>114.0</ele><time>2026-04-03T16:13:36.999Z</time></trkpt><trkpt lat="42.53765902232042" lon="11.586572308600129"><ele>116.0</ele><time>2026-04-03T16:13:37.999Z</time></trkpt><trkpt lat="42.53776187022697" lon="11.58640007358844"><ele>115.33333333333333</ele><time>2026-04-03T16:13:38.999Z</time></trkpt><trkpt lat="42.53789420877908" lon="11.586250035707389"><ele>114.66666666666666</ele><time>2026-04-03T16:13:39.999Z</time></trkpt><trkpt lat="42.53804738501659" lon="11.586106157708997"><ele>114.0</ele><time>2026-04-03T16:13:40.999Z</time></trkpt><trkpt lat="42.53821377133044" lon="11.585953666623594"><ele>114.0</ele><time>2026-04-03T16:13:41.999Z</time></trkpt><trkpt lat="42.538383944808025" lon="11.585794052691814"><ele>114.0</ele><time>2026-04-03T16:13:42.999Z</time></trkpt><trkpt lat="42.53855280064162" lon="11.585632636201572"><ele>114.0</ele><time>2026-04-03T16:13:43.999Z</time></trkpt><trkpt lat="42.538716452163605" lon="11.585472831782267"><ele>112.66666666666666</ele><time>2026-04-03T16:13:44.999Z</time></trkpt><trkpt lat="42.53886727960025" lon="11.585322188524115"><ele>111.33333333333333</ele><time>2026-04-03T16:13:45.999Z</time></trkpt><trkpt lat="42.53901344673407" lon="11.585181606314585"><ele>110.0</ele><time>2026-04-03T16:13:46.999Z</time></trkpt><trkpt lat="42.53914754913404" lon="11.585039097006563"><ele>110.0</ele><time>2026-04-03T16:13:47.999Z</time></trkpt><trkpt lat="42.53926052799404" lon="11.584887995156743"><ele>110.0</ele><time>2026-04-03T16:13:48.999Z</time></trkpt><trkpt lat="42.53934643111296" lon="11.584709381491608"><ele>110.0</ele><time>2026-04-03T16:13:49.999Z</time></trkpt><trkpt lat="42.53941222652324" lon="11.5845010078502"><ele>110.0</ele><time>2026-04-03T16:13:50.999Z</time></trkpt><trkpt lat="42.53946251866798" lon="11.584285152733175"><ele>110.0</ele><time>2026-04-03T16:13:51.999Z</time></trkpt><trkpt lat="42.539513870142706" lon="11.584067100735611"><ele>110.0</ele><time>2026-04-03T16:13:52.999Z</time></trkpt><trkpt lat="42.53956413664389" lon="11.583839506846699"><ele>108.33333333333333</ele><time>2026-04-03T16:13:53.999Z</time></trkpt><trkpt lat="42.53962248658933" lon="11.583622003646994"><ele>106.66666666666666</ele><time>2026-04-03T16:13:54.999Z</time></trkpt><trkpt lat="42.53968121598568" lon="11.583382372044253"><ele>105.0</ele><time>2026-04-03T16:13:55.999Z</time></trkpt><trkpt lat="42.53973585678981" lon="11.583157922818172"><ele>105.0</ele><time>2026-04-03T16:13:56.999Z</time></trkpt><trkpt lat="42.539792208325686" lon="11.582938967903862"><ele>105.0</ele><time>2026-04-03T16:13:57.999Z</time></trkpt><trkpt lat="42.53984583921853" lon="11.582728994006338"><ele>105.0</ele><time>2026-04-03T16:13:58.999Z</time></trkpt><trkpt lat="42.539898197983625" lon="11.582515120653909"><ele>105.33333333333334</ele><time>2026-04-03T16:13:59.999Z</time></trkpt><trkpt lat="42.53995271432148" lon="11.582295907946671"><ele>105.66666666666667</ele><time>2026-04-03T16:14:00.999Z</time></trkpt><trkpt lat="42.54000797222242" lon="11.582075992698961"><ele>106.0</ele><time>2026-04-03T16:14:01.999Z</time></trkpt><trkpt lat="42.54006280887588" lon="11.581857765074696"><ele>106.0</ele><time>2026-04-03T16:14:02.999Z</time></trkpt><trkpt lat="42.540119506479165" lon="11.581627070980756"><ele>106.0</ele><time>2026-04-03T16:14:03.999Z</time></trkpt><trkpt lat="42.540177438984635" lon="11.581388784150723"><ele>106.0</ele><time>2026-04-03T16:14:04.999Z</time></trkpt><trkpt lat="42.540238742353" lon="11.581145976237746"><ele>106.66666666666667</ele><time>2026-04-03T16:14:05.999Z</time></trkpt><trkpt lat="42.540296364439534" lon="11.580902228449105"><ele>107.33333333333334</ele><time>2026-04-03T16:14:06.999Z</time></trkpt><trkpt lat="42.54035904321959" lon="11.580655891052597"><ele>108.0</ele><time>2026-04-03T16:14:07.999Z</time></trkpt><trkpt lat="42.54041868379662" lon="11.580413026059833"><ele>109.33333333333334</ele><time>2026-04-03T16:14:08.999Z</time></trkpt><trkpt lat="42.5404875133354" lon="11.58017085039161"><ele>110.66666666666667</ele><time>2026-04-03T16:14:10Z</time></trkpt><trkpt lat="42.540550339537056" lon="11.579924735654439"><ele>112.0</ele><time>2026-04-03T16:14:11Z</time></trkpt><trkpt lat="42.54061306637461" lon="11.579678643721808"><ele>112.0</ele><time>2026-04-03T16:14:12Z</time></trkpt><trkpt lat="42.54066941283237" lon="11.579424331737851"><ele>112.0</ele><time>2026-04-03T16:14:13Z</time></trkpt><trkpt lat="42.54072768523259" lon="11.579192187919173"><ele>112.0</ele><time>2026-04-03T16:14:14Z</time></trkpt><trkpt lat="42.54078767579652" lon="11.57896130904097"><ele>112.0</ele><time>2026-04-03T16:14:15Z</time></trkpt><trkpt lat="42.54084929240493" lon="11.578723276494774"><ele>112.0</ele><time>2026-04-03T16:14:16Z</time></trkpt><trkpt lat="42.540915657903334" lon="11.578459710278466"><ele>112.0</ele><time>2026-04-03T16:14:17Z</time></trkpt><trkpt lat="42.54098501026766" lon="11.57820891572996"><ele>112.66666666666667</ele><time>2026-04-03T16:14:18Z</time></trkpt><trkpt lat="42.541046588736194" lon="11.577963545295459"><ele>113.33333333333334</ele><time>2026-04-03T16:14:19Z</time></trkpt><trkpt lat="42.54110660412483" lon="11.57772272397011"><ele>114.0</ele><time>2026-04-03T16:14:20Z</time></trkpt><trkpt lat="42.54116468767318" lon="11.577482143421811"><ele>114.66666666666666</ele><time>2026-04-03T16:14:21Z</time></trkpt><trkpt lat="42.54122552888217" lon="11.577246901846616"><ele>115.33333333333333</ele><time>2026-04-03T16:14:22Z</time></trkpt><trkpt lat="42.541286628033646" lon="11.57701283912997"><ele>116.0</ele><time>2026-04-03T16:14:23Z</time></trkpt><trkpt lat="42.54134498791681" lon="11.576779431906878"><ele>117.33333333333333</ele><time>2026-04-03T16:14:24Z</time></trkpt><trkpt lat="42.5414011804968" lon="11.576545044644536"><ele>118.66666666666666</ele><time>2026-04-03T16:14:25Z</time></trkpt><trkpt lat="42.54145868509048" lon="11.576309632112766"><ele>120.0</ele><time>2026-04-03T16:14:26Z</time></trkpt><trkpt lat="42.54152176822763" lon="11.576066218932425"><ele>120.33333333333334</ele><time>2026-04-03T16:14:27Z</time></trkpt><trkpt lat="42.54157724778921" lon="11.575844207077498"><ele>120.66666666666667</ele><time>2026-04-03T16:14:28Z</time></trkpt><trkpt lat="42.54162920313234" lon="11.57563896653881"><ele>121.0</ele><time>2026-04-03T16:14:29Z</time></trkpt><trkpt lat="42.54167952708422" lon="11.575428895838455"><ele>122.5</ele><time>2026-04-03T16:14:30Z</time></trkpt><trkpt lat="42.541730396668086" lon="11.575229613264108"><ele>124.0</ele><time>2026-04-03T16:14:31Z</time></trkpt><trkpt lat="42.541777246324855" lon="11.575051539895567"><ele>125.5</ele><time>2026-04-03T16:14:32Z</time></trkpt><trkpt lat="42.541807673278186" lon="11.574863342251382"><ele>127.0</ele><time>2026-04-03T16:14:33Z</time></trkpt><trkpt lat="42.54180447057368" lon="11.574648823781317"><ele>129.66666666666669</ele><time>2026-04-03T16:14:34Z</time></trkpt><trkpt lat="42.54176228355064" lon="11.574429835431834"><ele>132.33333333333334</ele><time>2026-04-03T16:14:35Z</time></trkpt><trkpt lat="42.541689436808106" lon="11.574223432769205"><ele>135.0</ele><time>2026-04-03T16:14:36Z</time></trkpt><trkpt lat="42.54163143962524" lon="11.574007056351288"><ele>135.0</ele><time>2026-04-03T16:14:37Z</time></trkpt><trkpt lat="42.541598747414675" lon="11.573781822643232"><ele>135.0</ele><time>2026-04-03T16:14:38Z</time></trkpt><trkpt lat="42.5415571805898" lon="11.573548512550136"><ele>135.0</ele><time>2026-04-03T16:14:39Z</time></trkpt><trkpt lat="42.541503462308256" lon="11.573320907412564"><ele>138.66666666666666</ele><time>2026-04-03T16:14:40Z</time></trkpt><trkpt lat="42.54144700031634" lon="11.573094007028958"><ele>142.33333333333331</ele><time>2026-04-03T16:14:41Z</time></trkpt><trkpt lat="42.5413844238437" lon="11.572866800526448"><ele>146.0</ele><time>2026-04-03T16:14:42Z</time></trkpt><trkpt lat="42.541322517153795" lon="11.57263491644761"><ele>145.33333333333331</ele><time>2026-04-03T16:14:43Z</time></trkpt><trkpt lat="42.541259521934265" lon="11.572409029317125"><ele>144.66666666666666</ele><time>2026-04-03T16:14:44Z</time></trkpt><trkpt lat="42.54120066977904" lon="11.572184466514871"><ele>144.0</ele><time>2026-04-03T16:14:45Z</time></trkpt><trkpt lat="42.54114384569525" lon="11.571971195521542"><ele>144.0</ele><time>2026-04-03T16:14:46Z</time></trkpt><trkpt lat="42.54109434205077" lon="11.571775463922034"><ele>144.0</ele><time>2026-04-03T16:14:47Z</time></trkpt><trkpt lat="42.54105525309446" lon="11.571597534793263"><ele>144.0</ele><time>2026-04-03T16:14:48Z</time></trkpt><trkpt lat="42.54103346737844" lon="11.571416708085955"><ele>144.0</ele><time>2026-04-03T16:14:49Z</time></trkpt><trkpt lat="42.541031074098086" lon="11.571190710146338"><ele>144.33333333333334</ele><time>2026-04-03T16:14:50Z</time></trkpt><trkpt lat="42.54101176559582" lon="11.570949080037911"><ele>144.66666666666669</ele><time>2026-04-03T16:14:51Z</time></trkpt><trkpt lat="42.54099567318907" lon="11.570707198699408"><ele>145.0</ele><time>2026-04-03T16:14:52Z</time></trkpt><trkpt lat="42.54097529933969" lon="11.570463955638957"><ele>145.66666666666669</ele><time>2026-04-03T16:14:53Z</time></trkpt><trkpt lat="42.54095554676416" lon="11.57023073576743"><ele>146.33333333333334</ele><time>2026-04-03T16:14:54Z</time></trkpt><trkpt lat="42.540935055854966" lon="11.570009354284435"><ele>147.0</ele><time>2026-04-03T16:14:55Z</time></trkpt><trkpt lat="42.54091648385712" lon="11.569796685632008"><ele>147.0</ele><time>2026-04-03T16:14:56Z</time></trkpt><trkpt lat="42.54090390886034" lon="11.569585837610058"><ele>147.0</ele><time>2026-04-03T16:14:57Z</time></trkpt><trkpt lat="42.540892589114776" lon="11.569351338296517"><ele>147.0</ele><time>2026-04-03T16:14:58Z</time></trkpt><trkpt lat="42.5409087599329" lon="11.569099812836381"><ele>147.66666666666666</ele><time>2026-04-03T16:14:59Z</time></trkpt><trkpt lat="42.54094229587692" lon="11.56885092328041"><ele>148.33333333333331</ele><time>2026-04-03T16:15:00Z</time></trkpt><trkpt lat="42.540993813483524" lon="11.568619045567196"><ele>149.0</ele><time>2026-04-03T16:15:01Z</time></trkpt><trkpt lat="42.54108465928151" lon="11.568400523563346"><ele>147.66666666666666</ele><time>2026-04-03T16:15:02Z</time></trkpt><trkpt lat="42.54119050822116" lon="11.568191832137819"><ele>146.33333333333334</ele><time>2026-04-03T16:15:03Z</time></trkpt><trkpt lat="42.54128175824809" lon="11.567998810320448"><ele>145.0</ele><time>2026-04-03T16:15:04Z</time></trkpt><trkpt lat="42.541380314839394" lon="11.567820790673236"><ele>156.66666666666669</ele><time>2026-04-03T16:15:05Z</time></trkpt><trkpt lat="42.541458403871346" lon="11.567609403595538"><ele>168.33333333333334</ele><time>2026-04-03T16:15:06Z</time></trkpt><trkpt lat="42.54150925133673" lon="11.567356294541554"><ele>180.0</ele><time>2026-04-03T16:15:07Z</time></trkpt><trkpt lat="42.54152401084417" lon="11.567087244582728"><ele>178.33333333333334</ele><time>2026-04-03T16:15:08Z</time></trkpt><trkpt lat="42.541529185004926" lon="11.566827371147836"><ele>176.66666666666669</ele><time>2026-04-03T16:15:09Z</time></trkpt><trkpt lat="42.541538432204824" lon="11.566575527445847"><ele>175.0</ele><time>2026-04-03T16:15:10Z</time></trkpt><trkpt lat="42.54155668604908" lon="11.566323706269637"><ele>175.0</ele><time>2026-04-03T16:15:11Z</time></trkpt><trkpt lat="42.541579565621376" lon="11.566064306878605"><ele>175.0</ele><time>2026-04-03T16:15:12Z</time></trkpt><trkpt lat="42.541638315824486" lon="11.565821534699053"><ele>175.0</ele><time>2026-04-03T16:15:12.999Z</time></trkpt><trkpt lat="42.54169791183104" lon="11.565604806165213"><ele>175.0</ele><time>2026-04-03T16:15:13.999Z</time></trkpt><trkpt lat="42.541752919861764" lon="11.565403032113172"><ele>175.0</ele><time>2026-04-03T16:15:14.999Z</time></trkpt><trkpt lat="42.541803605163246" lon="11.565218426299959"><ele>175.0</ele><time>2026-04-03T16:15:15.999Z</time></trkpt><trkpt lat="42.541796877120596" lon="11.56501565330808"><ele>174.5</ele><time>2026-04-03T16:15:16.999Z</time></trkpt><trkpt lat="42.54175609697124" lon="11.564817618748476"><ele>174.0</ele><time>2026-04-03T16:15:17.999Z</time></trkpt><trkpt lat="42.54172233683913" lon="11.564636772572106"><ele>173.5</ele><time>2026-04-03T16:15:18.999Z</time></trkpt><trkpt lat="42.541704552459514" lon="11.564456711222272"><ele>173.0</ele><time>2026-04-03T16:15:19.999Z</time></trkpt><trkpt lat="42.54174841167145" lon="11.564269422595737"><ele>172.33333333333331</ele><time>2026-04-03T16:15:20.999Z</time></trkpt><trkpt lat="42.54182963061379" lon="11.564070309994344"><ele>171.66666666666666</ele><time>2026-04-03T16:15:21.999Z</time></trkpt><trkpt lat="42.54193106215113" lon="11.56386557114964"><ele>171.0</ele><time>2026-04-03T16:15:22.999Z</time></trkpt><trkpt lat="42.54203300079713" lon="11.563663410975572"><ele>181.66666666666669</ele><time>2026-04-03T16:15:23.999Z</time></trkpt><trkpt lat="42.542134325822204" lon="11.563458014681611"><ele>192.33333333333334</ele><time>2026-04-03T16:15:24.999Z</time></trkpt><trkpt lat="42.54223591047476" lon="11.563242652771004"><ele>203.0</ele><time>2026-04-03T16:15:25.999Z</time></trkpt><trkpt lat="42.542343046746716" lon="11.563005815012362"><ele>196.0</ele><time>2026-04-03T16:15:26.999Z</time></trkpt><trkpt lat="42.54244010035076" lon="11.56278732253754"><ele>189.0</ele><time>2026-04-03T16:15:27.999Z</time></trkpt><trkpt lat="42.54252525386623" lon="11.562581538549347"><ele>182.0</ele><time>2026-04-03T16:15:28.999Z</time></trkpt><trkpt lat="42.5426062033996" lon="11.56239249070952"><ele>182.0</ele><time>2026-04-03T16:15:29.999Z</time></trkpt><trkpt lat="42.542678770406944" lon="11.56222147992849"><ele>182.0</ele><time>2026-04-03T16:15:30.999Z</time></trkpt><trkpt lat="42.54271842518758" lon="11.562037003404834"><ele>182.0</ele><time>2026-04-03T16:15:31.999Z</time></trkpt><trkpt lat="42.54273869118582" lon="11.561835851642702"><ele>182.0</ele><time>2026-04-03T16:15:32.999Z</time></trkpt><trkpt lat="42.54271457997523" lon="11.56162197561143"><ele>181.5</ele><time>2026-04-03T16:15:33.999Z</time></trkpt><trkpt lat="42.54267387447773" lon="11.561415306733643"><ele>181.0</ele><time>2026-04-03T16:15:34.999Z</time></trkpt><trkpt lat="42.54263711133555" lon="11.561231498865412"><ele>180.5</ele><time>2026-04-03T16:15:35.999Z</time></trkpt><trkpt lat="42.54260558142245" lon="11.561066521387797"><ele>180.0</ele><time>2026-04-03T16:15:36.999Z</time></trkpt><trkpt lat="42.54257327336345" lon="11.560926403610193"><ele>181.25</ele><time>2026-04-03T16:15:37.999Z</time></trkpt><trkpt lat="42.542589734155364" lon="11.560777306194414"><ele>182.5</ele><time>2026-04-03T16:15:38.999Z</time></trkpt><trkpt lat="42.542658303894484" lon="11.560635278284687"><ele>183.75</ele><time>2026-04-03T16:15:39.999Z</time></trkpt><trkpt lat="42.542764703985135" lon="11.56051103350351"><ele>185.0</ele><time>2026-04-03T16:15:40.999Z</time></trkpt><trkpt lat="42.542913513164066" lon="11.560425490611253"><ele>190.33333333333331</ele><time>2026-04-03T16:15:41.999Z</time></trkpt><trkpt lat="42.543075505347446" lon="11.560364476284823"><ele>195.66666666666666</ele><time>2026-04-03T16:15:42.999Z</time></trkpt><trkpt lat="42.543233342177395" lon="11.560299539093387"><ele>201.0</ele><time>2026-04-03T16:15:43.999Z</time></trkpt><trkpt lat="42.543372887001404" lon="11.56019115909281"><ele>201.0</ele><time>2026-04-03T16:15:44.999Z</time></trkpt><trkpt lat="42.54349621047134" lon="11.560039701144513"><ele>201.0</ele><time>2026-04-03T16:15:45.999Z</time></trkpt><trkpt lat="42.54360218965575" lon="11.559863505456631"><ele>201.0</ele><time>2026-04-03T16:15:46.999Z</time></trkpt><trkpt lat="42.5436944679595" lon="11.559699189715534"><ele>203.0</ele><time>2026-04-03T16:15:47.999Z</time></trkpt><trkpt lat="42.54380389514718" lon="11.559551986943498"><ele>205.0</ele><time>2026-04-03T16:15:48.999Z</time></trkpt><trkpt lat="42.54394290701662" lon="11.559428058263384"><ele>207.0</ele><time>2026-04-03T16:15:49.999Z</time></trkpt><trkpt lat="42.5440922338143" lon="11.559318927996191"><ele>207.0</ele><time>2026-04-03T16:15:50.999Z</time></trkpt><trkpt lat="42.5442441111652" lon="11.559217939034761"><ele>207.0</ele><time>2026-04-03T16:15:51.999Z</time></trkpt><trkpt lat="42.54437917797269" lon="11.559132012218212"><ele>207.0</ele><time>2026-04-03T16:15:52.999Z</time></trkpt><trkpt lat="42.544508248888455" lon="11.55906497079449"><ele>210.25</ele><time>2026-04-03T16:15:53.999Z</time></trkpt><trkpt lat="42.5446375791132" lon="11.5590273239756"><ele>213.5</ele><time>2026-04-03T16:15:54.999Z</time></trkpt><trkpt lat="42.54478229387314" lon="11.559041851626729"><ele>216.75</ele><time>2026-04-03T16:15:55.999Z</time></trkpt><trkpt lat="42.544936688165436" lon="11.559092302697643"><ele>220.0</ele><time>2026-04-03T16:15:56.999Z</time></trkpt><trkpt lat="42.545077162007765" lon="11.559160650135436"><ele>220.0</ele><time>2026-04-03T16:15:57.999Z</time></trkpt><trkpt lat="42.54520037541972" lon="11.559220132580192"><ele>220.0</ele><time>2026-04-03T16:15:58.999Z</time></trkpt><trkpt lat="42.54532224097528" lon="11.559245154408039"><ele>220.0</ele><time>2026-04-03T16:15:59.999Z</time></trkpt><trkpt lat="42.5454510875057" lon="11.559212563689817"><ele>220.0</ele><time>2026-04-03T16:16:00.999Z</time></trkpt><trkpt lat="42.54558022609103" lon="11.559116224275613"><ele>218.33333333333331</ele><time>2026-04-03T16:16:01.999Z</time></trkpt><trkpt lat="42.54568802235091" lon="11.558959247174384"><ele>216.66666666666669</ele><time>2026-04-03T16:16:02.999Z</time></trkpt><trkpt lat="42.54577637959496" lon="11.558777360404267"><ele>215.0</ele><time>2026-04-03T16:16:03.999Z</time></trkpt><trkpt lat="42.54585455585023" lon="11.558585569168295"><ele>215.0</ele><time>2026-04-03T16:16:04.999Z</time></trkpt><trkpt lat="42.54592491454865" lon="11.558420322252186"><ele>215.0</ele><time>2026-04-03T16:16:05.999Z</time></trkpt><trkpt lat="42.545996407925266" lon="11.558276880516473"><ele>215.0</ele><time>2026-04-03T16:16:06.999Z</time></trkpt><trkpt lat="42.54607963440585" lon="11.55816347921198"><ele>215.0</ele><time>2026-04-03T16:16:07.999Z</time></trkpt><trkpt lat="42.54618952461611" lon="11.558081167870524"><ele>216.75</ele><time>2026-04-03T16:16:08.999Z</time></trkpt><trkpt lat="42.546329417922685" lon="11.558025326895137"><ele>218.5</ele><time>2026-04-03T16:16:09.999Z</time></trkpt><trkpt lat="42.546468961640485" lon="11.557959566833476"><ele>220.25</ele><time>2026-04-03T16:16:10.999Z</time></trkpt><trkpt lat="42.54658381098584" lon="11.557869457085095"><ele>222.0</ele><time>2026-04-03T16:16:11.999Z</time></trkpt><trkpt lat="42.54666837229008" lon="11.557725316830789"><ele>222.0</ele><time>2026-04-03T16:16:12.999Z</time></trkpt><trkpt lat="42.54672805876504" lon="11.557534821033336"><ele>222.0</ele><time>2026-04-03T16:16:13.999Z</time></trkpt><trkpt lat="42.546762803342304" lon="11.557307906574948"><ele>222.0</ele><time>2026-04-03T16:16:14.999Z</time></trkpt><trkpt lat="42.54679294150496" lon="11.557088570548254"><ele>221.5</ele><time>2026-04-03T16:16:16Z</time></trkpt><trkpt lat="42.546826239128656" lon="11.556884640473529"><ele>221.0</ele><time>2026-04-03T16:16:17Z</time></trkpt><trkpt lat="42.546858555213745" lon="11.556702727530647"><ele>220.5</ele><time>2026-04-03T16:16:18Z</time></trkpt><trkpt lat="42.54690480665776" lon="11.556548163224527"><ele>220.0</ele><time>2026-04-03T16:16:19Z</time></trkpt><trkpt lat="42.54698366364123" lon="11.556434681771801"><ele>223.25</ele><time>2026-04-03T16:16:20Z</time></trkpt><trkpt lat="42.54709496859765" lon="11.556360941518408"><ele>226.5</ele><time>2026-04-03T16:16:21Z</time></trkpt><trkpt lat="42.54723546440486" lon="11.5563410595695"><ele>229.75</ele><time>2026-04-03T16:16:22Z</time></trkpt><trkpt lat="42.54739949918782" lon="11.556366462594086"><ele>233.0</ele><time>2026-04-03T16:16:23Z</time></trkpt><trkpt lat="42.547568711679816" lon="11.556399148085255"><ele>233.0</ele><time>2026-04-03T16:16:24Z</time></trkpt><trkpt lat="42.54774240912284" lon="11.556428273818216"><ele>233.0</ele><time>2026-04-03T16:16:25Z</time></trkpt><trkpt lat="42.54792333109943" lon="11.556459619520206"><ele>233.0</ele><time>2026-04-03T16:16:26Z</time></trkpt><trkpt lat="42.548111263048796" lon="11.55649447614819"><ele>233.0</ele><time>2026-04-03T16:16:27Z</time></trkpt><trkpt lat="42.54830936364351" lon="11.556531951614078"><ele>233.0</ele><time>2026-04-03T16:16:28Z</time></trkpt><trkpt lat="42.54851176577641" lon="11.55656838768591"><ele>233.0</ele><time>2026-04-03T16:16:29Z</time></trkpt><trkpt lat="42.548701500282164" lon="11.556603103315062"><ele>235.33333333333334</ele><time>2026-04-03T16:16:30Z</time></trkpt><trkpt lat="42.548873051888116" lon="11.556633539201776"><ele>237.66666666666669</ele><time>2026-04-03T16:16:31Z</time></trkpt><trkpt lat="42.54905622059123" lon="11.556646204857406"><ele>240.0</ele><time>2026-04-03T16:16:32Z</time></trkpt><trkpt lat="42.549251166502685" lon="11.556614745488865"><ele>240.0</ele><time>2026-04-03T16:16:33Z</time></trkpt><trkpt lat="42.549447613741826" lon="11.556559878320392"><ele>240.0</ele><time>2026-04-03T16:16:34Z</time></trkpt><trkpt lat="42.549647550846764" lon="11.556506836851172"><ele>240.0</ele><time>2026-04-03T16:16:35Z</time></trkpt><trkpt lat="42.54984904769845" lon="11.556453773656083"><ele>242.66666666666669</ele><time>2026-04-03T16:16:36Z</time></trkpt><trkpt lat="42.550036869348695" lon="11.556402126525137"><ele>245.33333333333334</ele><time>2026-04-03T16:16:37Z</time></trkpt><trkpt lat="42.55021383627463" lon="11.556352502623872"><ele>248.0</ele><time>2026-04-03T16:16:38Z</time></trkpt><trkpt lat="42.55038470946006" lon="11.556292312784674"><ele>248.33333333333334</ele><time>2026-04-03T16:16:39Z</time></trkpt><trkpt lat="42.55054539422857" lon="11.556192260975767"><ele>248.66666666666669</ele><time>2026-04-03T16:16:40Z</time></trkpt><trkpt lat="42.55070025450524" lon="11.556054452015267"><ele>249.0</ele><time>2026-04-03T16:16:41Z</time></trkpt><trkpt lat="42.550858298987656" lon="11.555895468707593"><ele>249.0</ele><time>2026-04-03T16:16:42Z</time></trkpt><trkpt lat="42.55101317593931" lon="11.555726021958481"><ele>249.0</ele><time>2026-04-03T16:16:43Z</time></trkpt><trkpt lat="42.551164644502386" lon="11.555564626186975"><ele>249.0</ele><time>2026-04-03T16:16:44Z</time></trkpt><trkpt lat="42.551309810913025" lon="11.555414636662091"><ele>252.33333333333331</ele><time>2026-04-03T16:16:45Z</time></trkpt><trkpt lat="42.55146052384412" lon="11.555264650893577"><ele>255.66666666666666</ele><time>2026-04-03T16:16:46Z</time></trkpt><trkpt lat="42.55161407932422" lon="11.555108748837739"><ele>259.0</ele><time>2026-04-03T16:16:47Z</time></trkpt><trkpt lat="42.551755303005905" lon="11.554959813725857"><ele>259.0</ele><time>2026-04-03T16:16:48Z</time></trkpt><trkpt lat="42.55189465548588" lon="11.554810652117446"><ele>259.0</ele><time>2026-04-03T16:16:49Z</time></trkpt><trkpt lat="42.55203820205619" lon="11.554661454464584"><ele>259.0</ele><time>2026-04-03T16:16:50Z</time></trkpt><trkpt lat="42.55218338468972" lon="11.554508738326636"><ele>257.66666666666663</ele><time>2026-04-03T16:16:51Z</time></trkpt><trkpt lat="42.55233302800894" lon="11.554348659153517"><ele>256.3333333333333</ele><time>2026-04-03T16:16:52Z</time></trkpt><trkpt lat="42.55248980058588" lon="11.554183342003425"><ele>255.0</ele><time>2026-04-03T16:16:53Z</time></trkpt><trkpt lat="42.5526530493522" lon="11.554013092566814"><ele>255.0</ele><time>2026-04-03T16:16:54Z</time></trkpt><trkpt lat="42.55281072288755" lon="11.553846341854337"><ele>255.0</ele><time>2026-04-03T16:16:55Z</time></trkpt><trkpt lat="42.552961743704905" lon="11.553687344693893"><ele>255.0</ele><time>2026-04-03T16:16:56Z</time></trkpt><trkpt lat="42.55311784260312" lon="11.553525477396"><ele>254.33333333333331</ele><time>2026-04-03T16:16:57Z</time></trkpt><trkpt lat="42.55327884084215" lon="11.553359406842434"><ele>253.66666666666666</ele><time>2026-04-03T16:16:58Z</time></trkpt><trkpt lat="42.553440828268364" lon="11.553194891896743"><ele>253.0</ele><time>2026-04-03T16:16:59Z</time></trkpt><trkpt lat="42.55360332687679" lon="11.553028940709991"><ele>253.0</ele><time>2026-04-03T16:17:00Z</time></trkpt><trkpt lat="42.553767675202714" lon="11.552856303767031"><ele>253.0</ele><time>2026-04-03T16:17:01Z</time></trkpt><trkpt lat="42.553932331734785" lon="11.55268136514012"><ele>253.0</ele><time>2026-04-03T16:17:02Z</time></trkpt><trkpt lat="42.554098271089664" lon="11.55250641803643"><ele>253.0</ele><time>2026-04-03T16:17:03Z</time></trkpt><trkpt lat="42.55426375263947" lon="11.552333039094316"><ele>253.0</ele><time>2026-04-03T16:17:04Z</time></trkpt><trkpt lat="42.55442754411102" lon="11.552157866450546"><ele>253.0</ele><time>2026-04-03T16:17:05Z</time></trkpt><trkpt lat="42.55459554763241" lon="11.551984894523441"><ele>252.66666666666666</ele><time>2026-04-03T16:17:06Z</time></trkpt><trkpt lat="42.55476403333231" lon="11.55181181866182"><ele>252.33333333333331</ele><time>2026-04-03T16:17:07Z</time></trkpt><trkpt lat="42.55493149412258" lon="11.55163697215202"><ele>252.0</ele><time>2026-04-03T16:17:08Z</time></trkpt><trkpt lat="42.55509971671775" lon="11.551463156878029"><ele>252.0</ele><time>2026-04-03T16:17:09Z</time></trkpt><trkpt lat="42.55526535335473" lon="11.551289349833656"><ele>252.0</ele><time>2026-04-03T16:17:10Z</time></trkpt><trkpt lat="42.55542683109163" lon="11.551121454158164"><ele>252.0</ele><time>2026-04-03T16:17:11Z</time></trkpt><trkpt lat="42.55558823980951" lon="11.550948337871263"><ele>251.66666666666669</ele><time>2026-04-03T16:17:12Z</time></trkpt><trkpt lat="42.55575055332935" lon="11.550779202345945"><ele>251.33333333333334</ele><time>2026-04-03T16:17:13Z</time></trkpt><trkpt lat="42.55590779528507" lon="11.550614683765652"><ele>251.0</ele><time>2026-04-03T16:17:14Z</time></trkpt><trkpt lat="42.55606206953279" lon="11.550454230692097"><ele>251.0</ele><time>2026-04-03T16:17:15Z</time></trkpt><trkpt lat="42.55621961663156" lon="11.550294539714244"><ele>251.0</ele><time>2026-04-03T16:17:16Z</time></trkpt><trkpt lat="42.55638237027323" lon="11.550123217344856"><ele>251.0</ele><time>2026-04-03T16:17:17Z</time></trkpt><trkpt lat="42.55655090883787" lon="11.549948794732245"><ele>251.0</ele><time>2026-04-03T16:17:18Z</time></trkpt><trkpt lat="42.55671923599836" lon="11.549773585037402"><ele>251.0</ele><time>2026-04-03T16:17:19Z</time></trkpt><trkpt lat="42.5568824490425" lon="11.54960428380638"><ele>251.0</ele><time>2026-04-03T16:17:20Z</time></trkpt><trkpt lat="42.55704592609337" lon="11.549427165033881"><ele>250.0</ele><time>2026-04-03T16:17:21Z</time></trkpt><trkpt lat="42.557215714096834" lon="11.549245449574446"><ele>249.0</ele><time>2026-04-03T16:17:22Z</time></trkpt><trkpt lat="42.557383376963735" lon="11.5490655046681"><ele>248.0</ele><time>2026-04-03T16:17:23Z</time></trkpt><trkpt lat="42.55754308224453" lon="11.548895328984761"><ele>248.0</ele><time>2026-04-03T16:17:24Z</time></trkpt><trkpt lat="42.557708698018175" lon="11.548735808459517"><ele>248.0</ele><time>2026-04-03T16:17:25Z</time></trkpt><trkpt lat="42.557892039774195" lon="11.548587660657757"><ele>248.0</ele><time>2026-04-03T16:17:26Z</time></trkpt><trkpt lat="42.558099894804656" lon="11.548463638940744"><ele>248.0</ele><time>2026-04-03T16:17:27Z</time></trkpt><trkpt lat="42.55831406123654" lon="11.54835050148434"><ele>248.0</ele><time>2026-04-03T16:17:28Z</time></trkpt><trkpt lat="42.558518311624454" lon="11.548236742147033"><ele>248.66666666666669</ele><time>2026-04-03T16:17:29Z</time></trkpt><trkpt lat="42.55872204388555" lon="11.548123508075056"><ele>249.33333333333331</ele><time>2026-04-03T16:17:30Z</time></trkpt><trkpt lat="42.558926925973196" lon="11.548010937061463"><ele>250.0</ele><time>2026-04-03T16:17:30.999Z</time></trkpt><trkpt lat="42.559129015830344" lon="11.547907326488104"><ele>249.66666666666666</ele><time>2026-04-03T16:17:31.999Z</time></trkpt><trkpt lat="42.55933083648323" lon="11.547803760293384"><ele>249.33333333333331</ele><time>2026-04-03T16:17:32.999Z</time></trkpt><trkpt lat="42.55953911007325" lon="11.547693162006556"><ele>249.0</ele><time>2026-04-03T16:17:33.999Z</time></trkpt><trkpt lat="42.559744895887384" lon="11.547584048927524"><ele>249.0</ele><time>2026-04-03T16:17:34.999Z</time></trkpt><trkpt lat="42.559949651609614" lon="11.547476032041331"><ele>249.0</ele><time>2026-04-03T16:17:35.999Z</time></trkpt><trkpt lat="42.56014632668032" lon="11.547368543863337"><ele>249.0</ele><time>2026-04-03T16:17:36.999Z</time></trkpt><trkpt lat="42.560334329390216" lon="11.547267648323094"><ele>248.66666666666669</ele><time>2026-04-03T16:17:37.999Z</time></trkpt><trkpt lat="42.56052640935809" lon="11.547160720703632"><ele>248.33333333333334</ele><time>2026-04-03T16:17:38.999Z</time></trkpt><trkpt lat="42.56072099824275" lon="11.547055796254272"><ele>248.0</ele><time>2026-04-03T16:17:39.999Z</time></trkpt><trkpt lat="42.56091783661574" lon="11.54694829031185"><ele>248.0</ele><time>2026-04-03T16:17:40.999Z</time></trkpt><trkpt lat="42.561118376871136" lon="11.546840641979756"><ele>248.0</ele><time>2026-04-03T16:17:41.999Z</time></trkpt><trkpt lat="42.561320421116704" lon="11.5467360797274"><ele>248.0</ele><time>2026-04-03T16:17:42.999Z</time></trkpt><trkpt lat="42.56152466801711" lon="11.546630346189236"><ele>248.33333333333334</ele><time>2026-04-03T16:17:43.999Z</time></trkpt><trkpt lat="42.56172923622644" lon="11.546523431503326"><ele>248.66666666666669</ele><time>2026-04-03T16:17:44.999Z</time></trkpt><trkpt lat="42.56192761604497" lon="11.54641517305306"><ele>249.0</ele><time>2026-04-03T16:17:45.999Z</time></trkpt><trkpt lat="42.562111988195994" lon="11.546319386830305"><ele>249.0</ele><time>2026-04-03T16:17:46.999Z</time></trkpt><trkpt lat="42.56228679972851" lon="11.546232624154475"><ele>249.0</ele><time>2026-04-03T16:17:47.999Z</time></trkpt><trkpt lat="42.562444817605225" lon="11.546136257083422"><ele>249.0</ele><time>2026-04-03T16:17:48.999Z</time></trkpt><trkpt lat="42.562597589523456" lon="11.545999661791983"><ele>248.0</ele><time>2026-04-03T16:17:49.999Z</time></trkpt><trkpt lat="42.56274000878864" lon="11.545830232249365"><ele>247.0</ele><time>2026-04-03T16:17:50.999Z</time></trkpt><trkpt lat="42.562886043107405" lon="11.545653445396674"><ele>246.0</ele><time>2026-04-03T16:17:51.999Z</time></trkpt><trkpt lat="42.563031198678345" lon="11.545471966652183"><ele>249.33333333333331</ele><time>2026-04-03T16:17:52.999Z</time></trkpt><trkpt lat="42.56317957701206" lon="11.545287493973193"><ele>252.66666666666666</ele><time>2026-04-03T16:17:53.999Z</time></trkpt><trkpt lat="42.56332168204932" lon="11.545115881625525"><ele>256.0</ele><time>2026-04-03T16:17:54.999Z</time></trkpt><trkpt lat="42.5634558263053" lon="11.544954674787549"><ele>256.0</ele><time>2026-04-03T16:17:55.999Z</time></trkpt><trkpt lat="42.56359123991628" lon="11.544792269658757"><ele>256.0</ele><time>2026-04-03T16:17:56.999Z</time></trkpt><trkpt lat="42.56374295803352" lon="11.544621161412199"><ele>256.0</ele><time>2026-04-03T16:17:57.999Z</time></trkpt><trkpt lat="42.56391471736097" lon="11.544461971050376"><ele>257.0</ele><time>2026-04-03T16:17:58.999Z</time></trkpt><trkpt lat="42.56409997127292" lon="11.544314616326009"><ele>258.0</ele><time>2026-04-03T16:17:59.999Z</time></trkpt><trkpt lat="42.56429914051819" lon="11.544168216708998"><ele>259.0</ele><time>2026-04-03T16:18:00.999Z</time></trkpt><trkpt lat="42.56449674343193" lon="11.544012090969845"><ele>259.3333333333333</ele><time>2026-04-03T16:18:01.999Z</time></trkpt><trkpt lat="42.56468971434996" lon="11.543866058410478"><ele>259.6666666666667</ele><time>2026-04-03T16:18:02.999Z</time></trkpt><trkpt lat="42.564873524348975" lon="11.543732384064029"><ele>260.0</ele><time>2026-04-03T16:18:03.999Z</time></trkpt><trkpt lat="42.565061217635495" lon="11.543594258643713"><ele>260.0</ele><time>2026-04-03T16:18:04.999Z</time></trkpt><trkpt lat="42.565254186826515" lon="11.543443188935807"><ele>260.0</ele><time>2026-04-03T16:18:05.999Z</time></trkpt><trkpt lat="42.565439060790425" lon="11.5432880572752"><ele>260.0</ele><time>2026-04-03T16:18:06.999Z</time></trkpt><trkpt lat="42.565611834308065" lon="11.543130172812385"><ele>259.33333333333337</ele><time>2026-04-03T16:18:07.999Z</time></trkpt><trkpt lat="42.56578278789931" lon="11.542978070763803"><ele>258.6666666666667</ele><time>2026-04-03T16:18:08.999Z</time></trkpt><trkpt lat="42.56595391251777" lon="11.542825860466975"><ele>258.0</ele><time>2026-04-03T16:18:09.999Z</time></trkpt><trkpt lat="42.566119941455206" lon="11.542672353796592"><ele>256.6666666666667</ele><time>2026-04-03T16:18:10.999Z</time></trkpt><trkpt lat="42.56628451443008" lon="11.542528845888787"><ele>255.33333333333334</ele><time>2026-04-03T16:18:11.999Z</time></trkpt><trkpt lat="42.56644153537372" lon="11.542388926831642"><ele>254.0</ele><time>2026-04-03T16:18:12.999Z</time></trkpt><trkpt lat="42.566588474560085" lon="11.542257189382818"><ele>254.0</ele><time>2026-04-03T16:18:13.999Z</time></trkpt><trkpt lat="42.566730374109305" lon="11.542129366154471"><ele>254.0</ele><time>2026-04-03T16:18:14.999Z</time></trkpt><trkpt lat="42.56688574964661" lon="11.541993680882154"><ele>254.0</ele><time>2026-04-03T16:18:15.999Z</time></trkpt><trkpt lat="42.56705484460689" lon="11.541848073627092"><ele>253.66666666666669</ele><time>2026-04-03T16:18:16.999Z</time></trkpt><trkpt lat="42.567237552347315" lon="11.541693541804172"><ele>253.33333333333331</ele><time>2026-04-03T16:18:17.999Z</time></trkpt><trkpt lat="42.5674309992587" lon="11.541528090801316"><ele>253.0</ele><time>2026-04-03T16:18:18.999Z</time></trkpt><trkpt lat="42.56763276919383" lon="11.541356408574936"><ele>252.66666666666666</ele><time>2026-04-03T16:18:19.999Z</time></trkpt><trkpt lat="42.567820605420984" lon="11.541185170517679"><ele>252.33333333333331</ele><time>2026-04-03T16:18:20.999Z</time></trkpt><trkpt lat="42.56800514202855" lon="11.541024988511772"><ele>252.0</ele><time>2026-04-03T16:18:22Z</time></trkpt><trkpt lat="42.56818402383934" lon="11.540862945244909"><ele>253.33333333333331</ele><time>2026-04-03T16:18:23Z</time></trkpt><trkpt lat="42.5683646181628" lon="11.540700762895897"><ele>254.66666666666666</ele><time>2026-04-03T16:18:24Z</time></trkpt><trkpt lat="42.56853968261059" lon="11.54055195796248"><ele>256.0</ele><time>2026-04-03T16:18:25Z</time></trkpt><trkpt lat="42.56871048395778" lon="11.540398721968845"><ele>255.33333333333331</ele><time>2026-04-03T16:18:26Z</time></trkpt><trkpt lat="42.56888940522878" lon="11.54023642911198"><ele>254.66666666666669</ele><time>2026-04-03T16:18:27Z</time></trkpt><trkpt lat="42.569071933704464" lon="11.540076368327522"><ele>254.0</ele><time>2026-04-03T16:18:28Z</time></trkpt><trkpt lat="42.569248711881684" lon="11.539918982318607"><ele>254.0</ele><time>2026-04-03T16:18:29Z</time></trkpt><trkpt lat="42.56942206389073" lon="11.53976624283127"><ele>254.0</ele><time>2026-04-03T16:18:30Z</time></trkpt><trkpt lat="42.56960143672958" lon="11.539609342678892"><ele>254.0</ele><time>2026-04-03T16:18:31Z</time></trkpt><trkpt lat="42.56979071028467" lon="11.53944618149681"><ele>255.66666666666669</ele><time>2026-04-03T16:18:32Z</time></trkpt><trkpt lat="42.56997562797392" lon="11.539281169902708"><ele>257.3333333333333</ele><time>2026-04-03T16:18:33Z</time></trkpt><trkpt lat="42.57015353756848" lon="11.539119362662237"><ele>259.0</ele><time>2026-04-03T16:18:34Z</time></trkpt><trkpt lat="42.57032157349657" lon="11.538965367839673"><ele>261.66666666666663</ele><time>2026-04-03T16:18:35Z</time></trkpt><trkpt lat="42.570484673770125" lon="11.538816335695365"><ele>264.3333333333333</ele><time>2026-04-03T16:18:36Z</time></trkpt><trkpt lat="42.57065251128024" lon="11.538672985064133"><ele>267.0</ele><time>2026-04-03T16:18:37Z</time></trkpt><trkpt lat="42.57082521980547" lon="11.538527001805676"><ele>267.0</ele><time>2026-04-03T16:18:38Z</time></trkpt><trkpt lat="42.57099738255571" lon="11.538375992810765"><ele>267.0</ele><time>2026-04-03T16:18:39Z</time></trkpt><trkpt lat="42.57116144283011" lon="11.538231140736436"><ele>267.0</ele><time>2026-04-03T16:18:40Z</time></trkpt><trkpt lat="42.57131376278454" lon="11.538095201917143"><ele>269.3333333333333</ele><time>2026-04-03T16:18:41Z</time></trkpt><trkpt lat="42.57146859622486" lon="11.537961301066897"><ele>271.66666666666663</ele><time>2026-04-03T16:18:42Z</time></trkpt><trkpt lat="42.57161322285185" lon="11.537834128238154"><ele>274.0</ele><time>2026-04-03T16:18:43Z</time></trkpt><trkpt lat="42.571744994452004" lon="11.537723368547587"><ele>274.25</ele><time>2026-04-03T16:18:44Z</time></trkpt><trkpt lat="42.571860861099175" lon="11.537622189262239"><ele>274.5</ele><time>2026-04-03T16:18:45Z</time></trkpt><trkpt lat="42.57196248565398" lon="11.5375253749091"><ele>274.75</ele><time>2026-04-03T16:18:46Z</time></trkpt><trkpt lat="42.57204237717504" lon="11.53739124335327"><ele>275.0</ele><time>2026-04-03T16:18:47Z</time></trkpt><trkpt lat="42.57210118914737" lon="11.537214945990394"><ele>277.0</ele><time>2026-04-03T16:18:48Z</time></trkpt><trkpt lat="42.57212630468962" lon="11.537013975641067"><ele>279.0</ele><time>2026-04-03T16:18:49Z</time></trkpt><trkpt lat="42.57212421847078" lon="11.536816802646687"><ele>281.0</ele><time>2026-04-03T16:18:50Z</time></trkpt><trkpt lat="42.57208280649591" lon="11.536629261877883"><ele>283.0</ele><time>2026-04-03T16:18:51Z</time></trkpt><trkpt lat="42.572017814408945" lon="11.536437875664431"><ele>283.0</ele><time>2026-04-03T16:18:52Z</time></trkpt><trkpt lat="42.57194759132306" lon="11.536246772422883"><ele>283.0</ele><time>2026-04-03T16:18:53Z</time></trkpt><trkpt lat="42.571879395754074" lon="11.536055980020086"><ele>283.0</ele><time>2026-04-03T16:18:54Z</time></trkpt><trkpt lat="42.571806728154286" lon="11.535865558593722"><ele>285.75</ele><time>2026-04-03T16:18:55Z</time></trkpt><trkpt lat="42.571738787542195" lon="11.535691584289934"><ele>288.5</ele><time>2026-04-03T16:18:56Z</time></trkpt><trkpt lat="42.571673262641696" lon="11.535525827649982"><ele>291.25</ele><time>2026-04-03T16:18:57Z</time></trkpt><trkpt lat="42.57160376192953" lon="11.535362868685617"><ele>294.0</ele><time>2026-04-03T16:18:58Z</time></trkpt><trkpt lat="42.571521109857684" lon="11.535210051879341"><ele>293.5</ele><time>2026-04-03T16:18:59Z</time></trkpt><trkpt lat="42.57142315131296" lon="11.53506275349935"><ele>293.0</ele><time>2026-04-03T16:19:00Z</time></trkpt><trkpt lat="42.571287934823836" lon="11.534974744167583"><ele>292.5</ele><time>2026-04-03T16:19:01Z</time></trkpt><trkpt lat="42.571156363483226" lon="11.53488658330025"><ele>292.0</ele><time>2026-04-03T16:19:02Z</time></trkpt><trkpt lat="42.57103222430766" lon="11.534794181886113"><ele>292.0</ele><time>2026-04-03T16:19:03Z</time></trkpt><trkpt lat="42.57090980109163" lon="11.53469012498584"><ele>292.0</ele><time>2026-04-03T16:19:04Z</time></trkpt><trkpt lat="42.570789047400986" lon="11.5345573916853"><ele>292.0</ele><time>2026-04-03T16:19:05Z</time></trkpt><trkpt lat="42.57068649165532" lon="11.53438251818596"><ele>293.0</ele><time>2026-04-03T16:19:06Z</time></trkpt><trkpt lat="42.5706084691924" lon="11.534175239771796"><ele>294.0</ele><time>2026-04-03T16:19:07Z</time></trkpt><trkpt lat="42.57055472890024" lon="11.533973330191857"><ele>295.0</ele><time>2026-04-03T16:19:08Z</time></trkpt><trkpt lat="42.57052986503116" lon="11.533772384649644"><ele>295.66666666666663</ele><time>2026-04-03T16:19:09Z</time></trkpt><trkpt lat="42.57054697709205" lon="11.533576252371246"><ele>296.3333333333333</ele><time>2026-04-03T16:19:10Z</time></trkpt><trkpt lat="42.570598184447086" lon="11.533382934325008"><ele>297.0</ele><time>2026-04-03T16:19:11Z</time></trkpt><trkpt lat="42.57069878976159" lon="11.533223348217133"><ele>297.0</ele><time>2026-04-03T16:19:12Z</time></trkpt><trkpt lat="42.57082480071247" lon="11.533083477038337"><ele>297.0</ele><time>2026-04-03T16:19:13Z</time></trkpt><trkpt lat="42.57095607118958" lon="11.532962695634732"><ele>297.0</ele><time>2026-04-03T16:19:14Z</time></trkpt><trkpt lat="42.57108013417672" lon="11.53284748700678"><ele>298.25</ele><time>2026-04-03T16:19:15Z</time></trkpt><trkpt lat="42.57120301001281" lon="11.532738585116235"><ele>299.5</ele><time>2026-04-03T16:19:16Z</time></trkpt><trkpt lat="42.57132890298855" lon="11.532634171823085"><ele>300.75</ele><time>2026-04-03T16:19:17Z</time></trkpt><trkpt lat="42.57146620285996" lon="11.532539502741786"><ele>302.0</ele><time>2026-04-03T16:19:18Z</time></trkpt><trkpt lat="42.57162303318352" lon="11.532481429326866"><ele>302.0</ele><time>2026-04-03T16:19:19Z</time></trkpt><trkpt lat="42.57178405682377" lon="11.532439788288874"><ele>302.0</ele><time>2026-04-03T16:19:20Z</time></trkpt><trkpt lat="42.57194648245258" lon="11.532404062940744"><ele>302.0</ele><time>2026-04-03T16:19:21Z</time></trkpt><trkpt lat="42.57211033044046" lon="11.532373484475336"><ele>303.0</ele><time>2026-04-03T16:19:22Z</time></trkpt><trkpt lat="42.57228019280739" lon="11.532341247901016"><ele>304.0</ele><time>2026-04-03T16:19:23Z</time></trkpt><trkpt lat="42.572456722474776" lon="11.532303306969254"><ele>305.0</ele><time>2026-04-03T16:19:24Z</time></trkpt><trkpt lat="42.57262710768857" lon="11.532269978496476"><ele>305.0</ele><time>2026-04-03T16:19:25Z</time></trkpt><trkpt lat="42.5727898253779" lon="11.532243239190736"><ele>305.0</ele><time>2026-04-03T16:19:26Z</time></trkpt><trkpt lat="42.57294743127058" lon="11.532220003205238"><ele>305.0</ele><time>2026-04-03T16:19:27Z</time></trkpt><trkpt lat="42.573097309126275" lon="11.532189170778611"><ele>305.33333333333337</ele><time>2026-04-03T16:19:28Z</time></trkpt><trkpt lat="42.57324135418444" lon="11.532148481676312"><ele>305.6666666666667</ele><time>2026-04-03T16:19:29Z</time></trkpt><trkpt lat="42.57337758936535" lon="11.532072786957505"><ele>306.0</ele><time>2026-04-03T16:19:30Z</time></trkpt><trkpt lat="42.57350239310178" lon="11.531946584514216"><ele>306.0</ele><time>2026-04-03T16:19:31Z</time></trkpt><trkpt lat="42.57360205076568" lon="11.531769202319495"><ele>306.0</ele><time>2026-04-03T16:19:32Z</time></trkpt><trkpt lat="42.573668288335114" lon="11.531557137774598"><ele>306.0</ele><time>2026-04-03T16:19:33Z</time></trkpt><trkpt lat="42.573718810784634" lon="11.531311125271067"><ele>306.6666666666667</ele><time>2026-04-03T16:19:34Z</time></trkpt><trkpt lat="42.57377193308542" lon="11.53105445297289"><ele>307.33333333333337</ele><time>2026-04-03T16:19:35Z</time></trkpt><trkpt lat="42.57382000949641" lon="11.530787094044182"><ele>308.0</ele><time>2026-04-03T16:19:36Z</time></trkpt><trkpt lat="42.573865880679364" lon="11.530511040531652"><ele>308.0</ele><time>2026-04-03T16:19:37Z</time></trkpt><trkpt lat="42.573914187605794" lon="11.530231911986919"><ele>308.0</ele><time>2026-04-03T16:19:38Z</time></trkpt><trkpt lat="42.57396270297212" lon="11.52996394444838"><ele>308.0</ele><time>2026-04-03T16:19:39Z</time></trkpt><trkpt lat="42.57401328556954" lon="11.52972087084947"><ele>307.0</ele><time>2026-04-03T16:19:40Z</time></trkpt><trkpt lat="42.57406139136764" lon="11.529498545087353"><ele>306.0</ele><time>2026-04-03T16:19:41Z</time></trkpt><trkpt lat="42.57411413256427" lon="11.529297263129584"><ele>305.0</ele><time>2026-04-03T16:19:42Z</time></trkpt><trkpt lat="42.574176036250634" lon="11.529114665693273"><ele>305.0</ele><time>2026-04-03T16:19:43Z</time></trkpt><trkpt lat="42.5742457518267" lon="11.52893515407829"><ele>305.0</ele><time>2026-04-03T16:19:44Z</time></trkpt><trkpt lat="42.57434412513478" lon="11.528755952303428"><ele>305.0</ele><time>2026-04-03T16:19:45Z</time></trkpt><trkpt lat="42.57443892458449" lon="11.528605516721292"><ele>307.5</ele><time>2026-04-03T16:19:46Z</time></trkpt><trkpt lat="42.57452287702013" lon="11.528469557342756"><ele>310.0</ele><time>2026-04-03T16:19:47Z</time></trkpt><trkpt lat="42.574605088769665" lon="11.528329816347018"><ele>312.5</ele><time>2026-04-03T16:19:48Z</time></trkpt><trkpt lat="42.57467988625599" lon="11.528208826689617"><ele>315.0</ele><time>2026-04-03T16:19:49Z</time></trkpt><trkpt lat="42.57477712687661" lon="11.528105354153325"><ele>315.0</ele><time>2026-04-03T16:19:50Z</time></trkpt><trkpt lat="42.57490519021604" lon="11.528023957252033"><ele>315.0</ele><time>2026-04-03T16:19:51Z</time></trkpt><trkpt lat="42.575048963325116" lon="11.527978136063505"><ele>315.0</ele><time>2026-04-03T16:19:51.999Z</time></trkpt><trkpt lat="42.57520520993436" lon="11.527955021026921"><ele>315.0</ele><time>2026-04-03T16:19:52.999Z</time></trkpt><trkpt lat="42.575364695787485" lon="11.52793280684302"><ele>317.3333333333333</ele><time>2026-04-03T16:19:53.999Z</time></trkpt><trkpt lat="42.575528664678814" lon="11.527917016509772"><ele>319.66666666666663</ele><time>2026-04-03T16:19:54.999Z</time></trkpt><trkpt lat="42.57569566246268" lon="11.52789679504977"><ele>322.0</ele><time>2026-04-03T16:19:55.999Z</time></trkpt><trkpt lat="42.575863202625015" lon="11.527875503566353"><ele>318.66666666666663</ele><time>2026-04-03T16:19:56.999Z</time></trkpt><trkpt lat="42.576044038202575" lon="11.52785839197871"><ele>315.3333333333333</ele><time>2026-04-03T16:19:57.999Z</time></trkpt><trkpt lat="42.5762329895758" lon="11.52785617911505"><ele>312.0</ele><time>2026-04-03T16:19:58.999Z</time></trkpt><trkpt lat="42.576417878614876" lon="11.527889766722915"><ele>317.3333333333333</ele><time>2026-04-03T16:19:59.999Z</time></trkpt><trkpt lat="42.57659568209757" lon="11.52795116163213"><ele>322.66666666666663</ele><time>2026-04-03T16:20:00.999Z</time></trkpt><trkpt lat="42.57676590855078" lon="11.52802450386035"><ele>328.0</ele><time>2026-04-03T16:20:01.999Z</time></trkpt><trkpt lat="42.57692515194392" lon="11.528094395516561"><ele>329.75</ele><time>2026-04-03T16:20:02.999Z</time></trkpt><trkpt lat="42.577071882607" lon="11.52815664780549"><ele>331.5</ele><time>2026-04-03T16:20:03.999Z</time></trkpt><trkpt lat="42.57721057179365" lon="11.528193843952355"><ele>333.25</ele><time>2026-04-03T16:20:04.999Z</time></trkpt><trkpt lat="42.57735468837437" lon="11.528175750275725"><ele>335.0</ele><time>2026-04-03T16:20:05.999Z</time></trkpt><trkpt lat="42.57749473153227" lon="11.528090946732028"><ele>335.0</ele><time>2026-04-03T16:20:06.999Z</time></trkpt><trkpt lat="42.577622261038684" lon="11.527962158755118"><ele>335.0</ele><time>2026-04-03T16:20:07.999Z</time></trkpt><trkpt lat="42.577729810737885" lon="11.527840441694384"><ele>335.0</ele><time>2026-04-03T16:20:08.999Z</time></trkpt><trkpt lat="42.57785113224842" lon="11.527754628477597"><ele>335.0</ele><time>2026-04-03T16:20:09.999Z</time></trkpt><trkpt lat="42.57799063108724" lon="11.527717152924355"><ele>331.33333333333337</ele><time>2026-04-03T16:20:10.999Z</time></trkpt><trkpt lat="42.5781550491346" lon="11.527722127166438"><ele>327.6666666666667</ele><time>2026-04-03T16:20:11.999Z</time></trkpt><trkpt lat="42.578307620605536" lon="11.527773417144136"><ele>324.0</ele><time>2026-04-03T16:20:12.999Z</time></trkpt><trkpt lat="42.578441471168844" lon="11.527840555852556"><ele>324.0</ele><time>2026-04-03T16:20:13.999Z</time></trkpt><trkpt lat="42.57858426910792" lon="11.527867937640952"><ele>324.0</ele><time>2026-04-03T16:20:14.999Z</time></trkpt><trkpt lat="42.578745163553506" lon="11.527831525482053"><ele>324.0</ele><time>2026-04-03T16:20:15.999Z</time></trkpt><trkpt lat="42.57890299532179" lon="11.527773948199767"><ele>325.75</ele><time>2026-04-03T16:20:16.999Z</time></trkpt><trkpt lat="42.57904087161969" lon="11.527726251310128"><ele>327.5</ele><time>2026-04-03T16:20:17.999Z</time></trkpt><trkpt lat="42.57917857709472" lon="11.527703973973193"><ele>329.25</ele><time>2026-04-03T16:20:18.999Z</time></trkpt><trkpt lat="42.57933137547146" lon="11.527715436151544"><ele>331.0</ele><time>2026-04-03T16:20:19.999Z</time></trkpt><trkpt lat="42.57949851300802" lon="11.527762020178598"><ele>333.0</ele><time>2026-04-03T16:20:20.999Z</time></trkpt><trkpt lat="42.579663029176864" lon="11.527815742389143"><ele>335.0</ele><time>2026-04-03T16:20:21.999Z</time></trkpt><trkpt lat="42.579814670299264" lon="11.527867237097816"><ele>337.0</ele><time>2026-04-03T16:20:22.999Z</time></trkpt><trkpt lat="42.57996063396065" lon="11.527910207913038"><ele>337.0</ele><time>2026-04-03T16:20:23.999Z</time></trkpt><trkpt lat="42.58010229857548" lon="11.527924197784348"><ele>337.0</ele><time>2026-04-03T16:20:24.999Z</time></trkpt><trkpt lat="42.58024565279318" lon="11.527880778397574"><ele>337.0</ele><time>2026-04-03T16:20:25.999Z</time></trkpt><trkpt lat="42.58039118418495" lon="11.527779563407126"><ele>340.0</ele><time>2026-04-03T16:20:26.999Z</time></trkpt><trkpt lat="42.580537846733094" lon="11.52764692986927"><ele>343.0</ele><time>2026-04-03T16:20:28Z</time></trkpt><trkpt lat="42.58068427458944" lon="11.52751114390756"><ele>346.0</ele><time>2026-04-03T16:20:29Z</time></trkpt><trkpt lat="42.580828557755275" lon="11.527370196045405"><ele>346.0</ele><time>2026-04-03T16:20:30Z</time></trkpt><trkpt lat="42.58096564281261" lon="11.527230677069529"><ele>346.0</ele><time>2026-04-03T16:20:31Z</time></trkpt><trkpt lat="42.581096293237124" lon="11.527096253014427"><ele>346.0</ele><time>2026-04-03T16:20:32Z</time></trkpt><trkpt lat="42.58122972406834" lon="11.526962675919174"><ele>345.66666666666663</ele><time>2026-04-03T16:20:33Z</time></trkpt><trkpt lat="42.581362232057415" lon="11.526826752293038"><ele>345.3333333333333</ele><time>2026-04-03T16:20:34Z</time></trkpt><trkpt lat="42.58149411773566" lon="11.526686392668985"><ele>345.0</ele><time>2026-04-03T16:20:35Z</time></trkpt><trkpt lat="42.581622011854826" lon="11.526538729254197"><ele>345.0</ele><time>2026-04-03T16:20:36Z</time></trkpt><trkpt lat="42.58174630438059" lon="11.526383533685038"><ele>345.0</ele><time>2026-04-03T16:20:37Z</time></trkpt><trkpt lat="42.58186343538063" lon="11.526234410017075"><ele>345.0</ele><time>2026-04-03T16:20:38Z</time></trkpt><trkpt lat="42.58197224312332" lon="11.526096610386432"><ele>349.6666666666667</ele><time>2026-04-03T16:20:39Z</time></trkpt><trkpt lat="42.58209068836837" lon="11.525968915999156"><ele>354.33333333333337</ele><time>2026-04-03T16:20:40Z</time></trkpt><trkpt lat="42.58222812572453" lon="11.525869809205497"><ele>359.0</ele><time>2026-04-03T16:20:41Z</time></trkpt><trkpt lat="42.582382379042855" lon="11.525832476150999"><ele>359.0</ele><time>2026-04-03T16:20:42Z</time></trkpt><trkpt lat="42.58255625391041" lon="11.525839034822049"><ele>359.0</ele><time>2026-04-03T16:20:43Z</time></trkpt><trkpt lat="42.58273545839177" lon="11.525859522423078"><ele>359.0</ele><time>2026-04-03T16:20:44Z</time></trkpt><trkpt lat="42.58290320014384" lon="11.525860774767951"><ele>360.33333333333337</ele><time>2026-04-03T16:20:45Z</time></trkpt><trkpt lat="42.58306466233772" lon="11.525836476382104"><ele>361.6666666666667</ele><time>2026-04-03T16:20:46Z</time></trkpt><trkpt lat="42.58321805592897" lon="11.525764895098702"><ele>363.0</ele><time>2026-04-03T16:20:47Z</time></trkpt><trkpt lat="42.583361319497925" lon="11.525649190501335"><ele>363.0</ele><time>2026-04-03T16:20:48Z</time></trkpt><trkpt lat="42.58349705944296" lon="11.525504704851095"><ele>363.0</ele><time>2026-04-03T16:20:49Z</time></trkpt><trkpt lat="42.58363963048795" lon="11.525353937763356"><ele>363.0</ele><time>2026-04-03T16:20:50Z</time></trkpt><trkpt lat="42.5837932613266" lon="11.525204062397878"><ele>363.6666666666667</ele><time>2026-04-03T16:20:51Z</time></trkpt><trkpt lat="42.5839411507162" lon="11.525053464246444"><ele>364.33333333333337</ele><time>2026-04-03T16:20:52Z</time></trkpt><trkpt lat="42.58407861735545" lon="11.524903792602286"><ele>365.0</ele><time>2026-04-03T16:20:53Z</time></trkpt><trkpt lat="42.58420206894547" lon="11.524765663582297"><ele>365.0</ele><time>2026-04-03T16:20:54Z</time></trkpt><trkpt lat="42.58432040594229" lon="11.5246164546544"><ele>365.0</ele><time>2026-04-03T16:20:55Z</time></trkpt><trkpt lat="42.58442371445219" lon="11.524445127826354"><ele>365.0</ele><time>2026-04-03T16:20:56Z</time></trkpt><trkpt lat="42.58451574973853" lon="11.524262218652146"><ele>369.33333333333337</ele><time>2026-04-03T16:20:57Z</time></trkpt><trkpt lat="42.584600380754445" lon="11.524079993876038"><ele>373.6666666666667</ele><time>2026-04-03T16:20:58Z</time></trkpt><trkpt lat="42.58468592555143" lon="11.523895768002903"><ele>378.0</ele><time>2026-04-03T16:20:59Z</time></trkpt><trkpt lat="42.58477287588455" lon="11.523703701443889"><ele>379.3333333333333</ele><time>2026-04-03T16:21:00Z</time></trkpt><trkpt lat="42.584864836591535" lon="11.523507773808692"><ele>380.66666666666663</ele><time>2026-04-03T16:21:01Z</time></trkpt><trkpt lat="42.58495510858754" lon="11.523332641050276"><ele>382.0</ele><time>2026-04-03T16:21:02Z</time></trkpt><trkpt lat="42.585035128578745" lon="11.523171625910065"><ele>382.0</ele><time>2026-04-03T16:21:03Z</time></trkpt><trkpt lat="42.585117149265535" lon="11.523002593710624"><ele>382.0</ele><time>2026-04-03T16:21:04Z</time></trkpt><trkpt lat="42.58518964883991" lon="11.522832175623057"><ele>382.0</ele><time>2026-04-03T16:21:05Z</time></trkpt><trkpt lat="42.585241245913664" lon="11.522655224104742"><ele>382.0</ele><time>2026-04-03T16:21:06Z</time></trkpt><trkpt lat="42.585272567973476" lon="11.522473949639645"><ele>382.25</ele><time>2026-04-03T16:21:07Z</time></trkpt><trkpt lat="42.5852891373372" lon="11.522296508995547"><ele>382.5</ele><time>2026-04-03T16:21:08Z</time></trkpt><trkpt lat="42.58530522761771" lon="11.522126699999927"><ele>382.75</ele><time>2026-04-03T16:21:09Z</time></trkpt><trkpt lat="42.58532209438111" lon="11.521970716089674"><ele>383.0</ele><time>2026-04-03T16:21:10Z</time></trkpt><trkpt lat="42.585334455734284" lon="11.52181092662096"><ele>382.5</ele><time>2026-04-03T16:21:11Z</time></trkpt><trkpt lat="42.5853301975491" lon="11.52165383559531"><ele>382.0</ele><time>2026-04-03T16:21:12Z</time></trkpt><trkpt lat="42.585300785084875" lon="11.521501515909096"><ele>381.5</ele><time>2026-04-03T16:21:13Z</time></trkpt><trkpt lat="42.58524861941683" lon="11.521361990576548"><ele>381.0</ele><time>2026-04-03T16:21:14Z</time></trkpt><trkpt lat="42.585181921789165" lon="11.521224603660496"><ele>382.75</ele><time>2026-04-03T16:21:15Z</time></trkpt><trkpt lat="42.58509208382261" lon="11.521093403868388"><ele>384.5</ele><time>2026-04-03T16:21:16Z</time></trkpt><trkpt lat="42.58498870149776" lon="11.520964338584184"><ele>386.25</ele><time>2026-04-03T16:21:17Z</time></trkpt><trkpt lat="42.58489403406116" lon="11.52083750286947"><ele>388.0</ele><time>2026-04-03T16:21:18Z</time></trkpt><trkpt lat="42.5848093737713" lon="11.520714283407528"><ele>388.0</ele><time>2026-04-03T16:21:19Z</time></trkpt><trkpt lat="42.58472983369532" lon="11.520599059635895"><ele>388.0</ele><time>2026-04-03T16:21:20Z</time></trkpt><trkpt lat="42.58465740542117" lon="11.520493061827798"><ele>388.0</ele><time>2026-04-03T16:21:21Z</time></trkpt><trkpt lat="42.584595527626824" lon="11.520390049765561"><ele>388.0</ele><time>2026-04-03T16:21:22Z</time></trkpt><trkpt lat="42.584547376981455" lon="11.520282245448872"><ele>388.0</ele><time>2026-04-03T16:21:23Z</time></trkpt><trkpt lat="42.58452562572902" lon="11.520151836301403"><ele>389.25</ele><time>2026-04-03T16:21:24Z</time></trkpt><trkpt lat="42.58453213863167" lon="11.520006477010417"><ele>390.5</ele><time>2026-04-03T16:21:25Z</time></trkpt><trkpt lat="42.58457728147424" lon="11.519850502304111"><ele>391.75</ele><time>2026-04-03T16:21:26Z</time></trkpt><trkpt lat="42.58463942875123" lon="11.51971429454595"><ele>393.0</ele><time>2026-04-03T16:21:27Z</time></trkpt><trkpt lat="42.584714509828615" lon="11.519612651516455"><ele>393.0</ele><time>2026-04-03T16:21:28Z</time></trkpt><trkpt lat="42.584809683269555" lon="11.519553376527464"><ele>393.0</ele><time>2026-04-03T16:21:29Z</time></trkpt><trkpt lat="42.58494306374428" lon="11.519542596546838"><ele>393.0</ele><time>2026-04-03T16:21:30Z</time></trkpt><trkpt lat="42.58508093818297" lon="11.519557675544439"><ele>393.0</ele><time>2026-04-03T16:21:31Z</time></trkpt><trkpt lat="42.58520989736173" lon="11.519584588033766"><ele>393.0</ele><time>2026-04-03T16:21:32Z</time></trkpt><trkpt lat="42.58532656077903" lon="11.519594791424852"><ele>393.0</ele><time>2026-04-03T16:21:33Z</time></trkpt><trkpt lat="42.58543647656998" lon="11.519608851409094"><ele>393.0</ele><time>2026-04-03T16:21:34Z</time></trkpt><trkpt lat="42.58553884501104" lon="11.519616653737195"><ele>393.0</ele><time>2026-04-03T16:21:35Z</time></trkpt><trkpt lat="42.58564937015674" lon="11.519625249662306"><ele>393.0</ele><time>2026-04-03T16:21:36Z</time></trkpt><trkpt lat="42.58578060526254" lon="11.519661117158993"><ele>393.0</ele><time>2026-04-03T16:21:37Z</time></trkpt><trkpt lat="42.5859153641638" lon="11.519656806540585"><ele>393.0</ele><time>2026-04-03T16:21:38Z</time></trkpt><trkpt lat="42.58603032348616" lon="11.519671426036972"><ele>393.0</ele><time>2026-04-03T16:21:39Z</time></trkpt><trkpt lat="42.58614009297354" lon="11.519692408884394"><ele>393.0</ele><time>2026-04-03T16:21:40Z</time></trkpt><trkpt lat="42.58624688375582" lon="11.51970247915209"><ele>393.0</ele><time>2026-04-03T16:21:41Z</time></trkpt><trkpt lat="42.586360032010674" lon="11.519714082941501"><ele>393.0</ele><time>2026-04-03T16:21:42Z</time></trkpt><trkpt lat="42.58647652886465" lon="11.519749431023808"><ele>393.0</ele><time>2026-04-03T16:21:43Z</time></trkpt><trkpt lat="42.5865964302164" lon="11.519764031648004"><ele>393.0</ele><time>2026-04-03T16:21:44Z</time></trkpt><trkpt lat="42.58671982894857" lon="11.519779117922974"><ele>393.0</ele><time>2026-04-03T16:21:45Z</time></trkpt><trkpt lat="42.58684542127739" lon="11.519779217021306"><ele>393.0</ele><time>2026-04-03T16:21:46Z</time></trkpt><trkpt lat="42.58696839506824" lon="11.519802797946996"><ele>393.0</ele><time>2026-04-03T16:21:47Z</time></trkpt><trkpt lat="42.58708794544894" lon="11.519816064259803"><ele>393.0</ele><time>2026-04-03T16:21:48Z</time></trkpt><trkpt lat="42.58720129247708" lon="11.519828872791052"><ele>393.4</ele><time>2026-04-03T16:21:48.999Z</time></trkpt><trkpt lat="42.58731017968045" lon="11.51983310337042"><ele>393.79999999999995</ele><time>2026-04-03T16:21:49.999Z</time></trkpt><trkpt lat="42.5874223402093" lon="11.519825352556877"><ele>394.2</ele><time>2026-04-03T16:21:50.999Z</time></trkpt><trkpt lat="42.58753134916758" lon="11.519825825307752"><ele>394.6</ele><time>2026-04-03T16:21:51.999Z</time></trkpt><trkpt lat="42.58762698778164" lon="11.519758491204689"><ele>395.0</ele><time>2026-04-03T16:21:52.999Z</time></trkpt><trkpt lat="42.58772742835972" lon="11.519702142314685"><ele>394.99999999999994</ele><time>2026-04-03T16:21:53.999Z</time></trkpt><trkpt lat="42.5878128969176" lon="11.519642033793234"><ele>395.0</ele><time>2026-04-03T16:21:54.999Z</time></trkpt><trkpt lat="42.58788684706475" lon="11.519580943690093"><ele>395.0</ele><time>2026-04-03T16:21:55.999Z</time></trkpt><trkpt lat="42.587958336369994" lon="11.519532267758041"><ele>395.0</ele><time>2026-04-03T16:21:56.999Z</time></trkpt><trkpt lat="42.588023641513104" lon="11.519488328004984"><ele>394.99999999999994</ele><time>2026-04-03T16:21:57.999Z</time></trkpt><trkpt lat="42.5880825135359" lon="11.5194481507339"><ele>395.0</ele><time>2026-04-03T16:21:58.999Z</time></trkpt><trkpt lat="42.5881711588505" lon="11.519405895742041"><ele>394.4</ele><time>2026-04-03T16:22:00.999Z</time></trkpt><trkpt lat="42.58827670680218" lon="11.519382939517572"><ele>393.8</ele><time>2026-04-03T16:22:02.999Z</time></trkpt><trkpt lat="42.5883483639548" lon="11.519366390332944"><ele>393.20000000000005</ele><time>2026-04-03T16:22:03.999Z</time></trkpt><trkpt lat="42.5884347002311" lon="11.519345779193321"><ele>392.6</ele><time>2026-04-03T16:22:04.999Z</time></trkpt><trkpt lat="42.588541763293776" lon="11.519335262754764"><ele>392.0</ele><time>2026-04-03T16:22:05.999Z</time></trkpt><trkpt lat="42.58866102208143" lon="11.519359211997395"><ele>391.40000000000003</ele><time>2026-04-03T16:22:06.999Z</time></trkpt><trkpt lat="42.588768249611896" lon="11.519384892290779"><ele>390.8</ele><time>2026-04-03T16:22:07.999Z</time></trkpt><trkpt lat="42.588878281317186" lon="11.519409298727044"><ele>390.2</ele><time>2026-04-03T16:22:08.999Z</time></trkpt><trkpt lat="42.5889813491321" lon="11.519432955717349"><ele>389.6</ele><time>2026-04-03T16:22:09.999Z</time></trkpt><trkpt lat="42.58907490165419" lon="11.519458466555637"><ele>389.0</ele><time>2026-04-03T16:22:10.999Z</time></trkpt><trkpt lat="42.58915888652951" lon="11.51948428986233"><ele>388.99999999999994</ele><time>2026-04-03T16:22:11.999Z</time></trkpt><trkpt lat="42.58923472888436" lon="11.519507298331886"><ele>389.0</ele><time>2026-04-03T16:22:12.999Z</time></trkpt><trkpt lat="42.58930864836905" lon="11.519529174157256"><ele>389.0</ele><time>2026-04-03T16:22:13.999Z</time></trkpt><trkpt lat="42.58939087057957" lon="11.519553450880212"><ele>389.0</ele><time>2026-04-03T16:22:14.999Z</time></trkpt><trkpt lat="42.58948586592986" lon="11.519582598549317"><ele>388.99999999999994</ele><time>2026-04-03T16:22:15.999Z</time></trkpt><trkpt lat="42.5895922487283" lon="11.519625261448782"><ele>389.0</ele><time>2026-04-03T16:22:16.999Z</time></trkpt><trkpt lat="42.58970287003899" lon="11.519676110460217"><ele>389.2</ele><time>2026-04-03T16:22:17.999Z</time></trkpt><trkpt lat="42.589801323297145" lon="11.51973645481427"><ele>389.4</ele><time>2026-04-03T16:22:18.999Z</time></trkpt><trkpt lat="42.58989523069413" lon="11.519798093774229"><ele>389.6</ele><time>2026-04-03T16:22:19.999Z</time></trkpt><trkpt lat="42.58998184645695" lon="11.519854434193835"><ele>389.8</ele><time>2026-04-03T16:22:20.999Z</time></trkpt><trkpt lat="42.590068011015006" lon="11.519912991303755"><ele>390.0</ele><time>2026-04-03T16:22:21.999Z</time></trkpt><trkpt lat="42.59015027595133" lon="11.519969021716392"><ele>390.0</ele><time>2026-04-03T16:22:22.999Z</time></trkpt><trkpt lat="42.59022874972449" lon="11.520023764882001"><ele>390.0</ele><time>2026-04-03T16:22:23.999Z</time></trkpt><trkpt lat="42.590298327701724" lon="11.520079613387491"><ele>390.0</ele><time>2026-04-03T16:22:24.999Z</time></trkpt><trkpt lat="42.59036639066994" lon="11.520138342031984"><ele>390.0</ele><time>2026-04-03T16:22:25.999Z</time></trkpt><trkpt lat="42.59043478443216" lon="11.520194112688328"><ele>390.0</ele><time>2026-04-03T16:22:26.999Z</time></trkpt><trkpt lat="42.59049385996896" lon="11.520252108277717"><ele>390.0</ele><time>2026-04-03T16:22:27.999Z</time></trkpt><trkpt lat="42.59061525003633" lon="11.520265146538515"><ele>388.0</ele><time>2026-04-03T16:22:29.999Z</time></trkpt><trkpt lat="42.59069713532438" lon="11.520222543471967"><ele>386.0</ele><time>2026-04-03T16:22:30.999Z</time></trkpt><trkpt lat="42.59079943196652" lon="11.52022643858266"><ele>384.0</ele><time>2026-04-03T16:22:31.999Z</time></trkpt><trkpt lat="42.590913627236816" lon="11.52023766687536"><ele>382.0</ele><time>2026-04-03T16:22:32.999Z</time></trkpt><trkpt lat="42.591034384002995" lon="11.520259010237972"><ele>380.0</ele><time>2026-04-03T16:22:34Z</time></trkpt><trkpt lat="42.59115794765539" lon="11.520275960873846"><ele>379.2</ele><time>2026-04-03T16:22:35Z</time></trkpt><trkpt lat="42.59126143706865" lon="11.52029041993918"><ele>378.4</ele><time>2026-04-03T16:22:36Z</time></trkpt><trkpt lat="42.591363451532416" lon="11.52030235136188"><ele>377.6</ele><time>2026-04-03T16:22:37Z</time></trkpt><trkpt lat="42.59147827433543" lon="11.52031438395003"><ele>376.8</ele><time>2026-04-03T16:22:38Z</time></trkpt><trkpt lat="42.59159175235481" lon="11.520332576129409"><ele>376.0</ele><time>2026-04-03T16:22:39Z</time></trkpt><trkpt lat="42.59170919779157" lon="11.520347698391898"><ele>376.0</ele><time>2026-04-03T16:22:40Z</time></trkpt><trkpt lat="42.59181327075323" lon="11.520365565810486"><ele>376.0</ele><time>2026-04-03T16:22:41Z</time></trkpt><trkpt lat="42.59191653334107" lon="11.520382094526344"><ele>376.0</ele><time>2026-04-03T16:22:42Z</time></trkpt><trkpt lat="42.59202247785694" lon="11.520395074178513"><ele>376.0</ele><time>2026-04-03T16:22:43Z</time></trkpt><trkpt lat="42.59213268158222" lon="11.520405406356836"><ele>376.0</ele><time>2026-04-03T16:22:44Z</time></trkpt><trkpt lat="42.59223974573274" lon="11.520413747801706"><ele>374.0</ele><time>2026-04-03T16:22:45Z</time></trkpt><trkpt lat="42.59236190600715" lon="11.520429802255798"><ele>372.0</ele><time>2026-04-03T16:22:46Z</time></trkpt><trkpt lat="42.59249333661998" lon="11.520448925176362"><ele>370.0</ele><time>2026-04-03T16:22:47Z</time></trkpt><trkpt lat="42.592634493336895" lon="11.520469463930311"><ele>368.0</ele><time>2026-04-03T16:22:48Z</time></trkpt><trkpt lat="42.592782581859225" lon="11.520490321973364"><ele>369.5</ele><time>2026-04-03T16:22:49Z</time></trkpt><trkpt lat="42.59292553785878" lon="11.520509306447266"><ele>371.0</ele><time>2026-04-03T16:22:50Z</time></trkpt><trkpt lat="42.59305961965502" lon="11.520522961749158"><ele>372.5</ele><time>2026-04-03T16:22:51Z</time></trkpt><trkpt lat="42.59319304840441" lon="11.520537259792203"><ele>374.0</ele><time>2026-04-03T16:22:52Z</time></trkpt><trkpt lat="42.593315640729784" lon="11.5205384826659"><ele>374.0</ele><time>2026-04-03T16:22:53Z</time></trkpt><trkpt lat="42.593436646698365" lon="11.520517419521696"><ele>374.0</ele><time>2026-04-03T16:22:54Z</time></trkpt><trkpt lat="42.59355092854977" lon="11.520440819952457"><ele>374.0</ele><time>2026-04-03T16:22:55Z</time></trkpt><trkpt lat="42.593651070370626" lon="11.520295910455628"><ele>374.0</ele><time>2026-04-03T16:22:56Z</time></trkpt><trkpt lat="42.59372038093185" lon="11.520114316879758"><ele>376.6666666666667</ele><time>2026-04-03T16:22:57Z</time></trkpt><trkpt lat="42.59377318583673" lon="11.51992109872468"><ele>379.3333333333333</ele><time>2026-04-03T16:22:58Z</time></trkpt><trkpt lat="42.59385827758023" lon="11.519745299434339"><ele>382.0</ele><time>2026-04-03T16:22:59Z</time></trkpt><trkpt lat="42.59396131302134" lon="11.51959145642085"><ele>379.75</ele><time>2026-04-03T16:23:00Z</time></trkpt><trkpt lat="42.594056898238975" lon="11.519473611120768"><ele>377.5</ele><time>2026-04-03T16:23:01Z</time></trkpt><trkpt lat="42.59416172293817" lon="11.519411069397206"><ele>375.25</ele><time>2026-04-03T16:23:02Z</time></trkpt><trkpt lat="42.594272764409865" lon="11.51940180149075"><ele>373.0</ele><time>2026-04-03T16:23:03Z</time></trkpt><trkpt lat="42.594373384963575" lon="11.519434043244697"><ele>373.0</ele><time>2026-04-03T16:23:04Z</time></trkpt><trkpt lat="42.59445820318365" lon="11.519499548889499"><ele>373.0</ele><time>2026-04-03T16:23:05Z</time></trkpt><trkpt lat="42.59453314580338" lon="11.519591688139437"><ele>373.0</ele><time>2026-04-03T16:23:06Z</time></trkpt><trkpt lat="42.59461031535414" lon="11.519688525138152"><ele>373.0</ele><time>2026-04-03T16:23:07Z</time></trkpt><trkpt lat="42.5947183938188" lon="11.519738540494718"><ele>373.0</ele><time>2026-04-03T16:23:08Z</time></trkpt><trkpt lat="42.59484661582146" lon="11.519717519356933"><ele>376.0</ele><time>2026-04-03T16:23:09Z</time></trkpt><trkpt lat="42.5949677416014" lon="11.51966472723584"><ele>379.0</ele><time>2026-04-03T16:23:10Z</time></trkpt><trkpt lat="42.59508791948834" lon="11.519645988776428"><ele>382.0</ele><time>2026-04-03T16:23:11Z</time></trkpt><trkpt lat="42.5952085525568" lon="11.519691771109489"><ele>385.0</ele><time>2026-04-03T16:23:12Z</time></trkpt><trkpt lat="42.5952996227119" lon="11.519797600883471"><ele>385.25</ele><time>2026-04-03T16:23:13Z</time></trkpt><trkpt lat="42.59536803921203" lon="11.51992541344442"><ele>385.5</ele><time>2026-04-03T16:23:14Z</time></trkpt><trkpt lat="42.595450354420336" lon="11.520039666798569"><ele>385.75</ele><time>2026-04-03T16:23:15Z</time></trkpt><trkpt lat="42.59554706884198" lon="11.520107050875769"><ele>386.0</ele><time>2026-04-03T16:23:16Z</time></trkpt><trkpt lat="42.595651531293676" lon="11.520139351876896"><ele>386.0</ele><time>2026-04-03T16:23:17Z</time></trkpt><trkpt lat="42.59576643016487" lon="11.520106910738251"><ele>386.0</ele><time>2026-04-03T16:23:18Z</time></trkpt><trkpt lat="42.59587881630812" lon="11.520014559137337"><ele>386.0</ele><time>2026-04-03T16:23:19Z</time></trkpt><trkpt lat="42.5959885032658" lon="11.519915394919078"><ele>386.0</ele><time>2026-04-03T16:23:20Z</time></trkpt><trkpt lat="42.59611509684315" lon="11.51989130957464"><ele>387.3333333333333</ele><time>2026-04-03T16:23:21Z</time></trkpt><trkpt lat="42.5962545430333" lon="11.51987474917533"><ele>388.66666666666663</ele><time>2026-04-03T16:23:22Z</time></trkpt><trkpt lat="42.596412305099896" lon="11.51989650174806"><ele>390.0</ele><time>2026-04-03T16:23:23Z</time></trkpt><trkpt lat="42.596574625535574" lon="11.519935784284494"><ele>390.0</ele><time>2026-04-03T16:23:24Z</time></trkpt><trkpt lat="42.59671741133959" lon="11.51996838882265"><ele>390.0</ele><time>2026-04-03T16:23:25Z</time></trkpt><trkpt lat="42.59684742501898" lon="11.519992029929304"><ele>390.0</ele><time>2026-04-03T16:23:26Z</time></trkpt><trkpt lat="42.59695845982257" lon="11.519971495786855"><ele>390.0</ele><time>2026-04-03T16:23:27Z</time></trkpt><trkpt lat="42.59705790546218" lon="11.519876401397449"><ele>391.25</ele><time>2026-04-03T16:23:28Z</time></trkpt><trkpt lat="42.597135667777586" lon="11.519719537631145"><ele>392.5</ele><time>2026-04-03T16:23:29Z</time></trkpt><trkpt lat="42.59720282056406" lon="11.51954701711577"><ele>393.75</ele><time>2026-04-03T16:23:30Z</time></trkpt><trkpt lat="42.59728855913007" lon="11.519405628119655"><ele>395.0</ele><time>2026-04-03T16:23:31Z</time></trkpt><trkpt lat="42.59736459935779" lon="11.519301171042974"><ele>395.0</ele><time>2026-04-03T16:23:32Z</time></trkpt><trkpt lat="42.59743191732703" lon="11.51919097061421"><ele>395.0</ele><time>2026-04-03T16:23:33Z</time></trkpt><trkpt lat="42.5974711729927" lon="11.519058345026705"><ele>395.0</ele><time>2026-04-03T16:23:34Z</time></trkpt><trkpt lat="42.597453890961006" lon="11.518912744872257"><ele>395.0</ele><time>2026-04-03T16:23:35Z</time></trkpt><trkpt lat="42.597382200450326" lon="11.518805438696965"><ele>395.0</ele><time>2026-04-03T16:23:36Z</time></trkpt><trkpt lat="42.59727318366888" lon="11.518729077642098"><ele>394.0</ele><time>2026-04-03T16:23:37Z</time></trkpt><trkpt lat="42.59713627111742" lon="11.518710733853052"><ele>393.0</ele><time>2026-04-03T16:23:38Z</time></trkpt><trkpt lat="42.59701475625865" lon="11.518703007851398"><ele>392.0</ele><time>2026-04-03T16:23:39Z</time></trkpt><trkpt lat="42.59691287278981" lon="11.518658388809403"><ele>391.0</ele><time>2026-04-03T16:23:39.999Z</time></trkpt><trkpt lat="42.5968308948873" lon="11.518571324973912"><ele>391.0</ele><time>2026-04-03T16:23:40.999Z</time></trkpt><trkpt lat="42.59678567994765" lon="11.51844486906563"><ele>391.0</ele><time>2026-04-03T16:23:41.999Z</time></trkpt><trkpt lat="42.596779459976524" lon="11.518295782044367"><ele>391.0</ele><time>2026-04-03T16:23:42.999Z</time></trkpt><trkpt lat="42.59681752566245" lon="11.51816480205376"><ele>391.0</ele><time>2026-04-03T16:23:43.999Z</time></trkpt><trkpt lat="42.59689543314831" lon="11.518061871511957"><ele>391.0</ele><time>2026-04-03T16:23:44.999Z</time></trkpt><trkpt lat="42.59699142275593" lon="11.517990156402595"><ele>391.6</ele><time>2026-04-03T16:23:45.999Z</time></trkpt><trkpt lat="42.59708308242813" lon="11.517943237169712"><ele>392.20000000000005</ele><time>2026-04-03T16:23:46.999Z</time></trkpt><trkpt lat="42.59717524897321" lon="11.517890736902029"><ele>392.79999999999995</ele><time>2026-04-03T16:23:47.999Z</time></trkpt><trkpt lat="42.597274074565235" lon="11.51783554153486"><ele>393.4</ele><time>2026-04-03T16:23:48.999Z</time></trkpt><trkpt lat="42.59736781637921" lon="11.517796484090663"><ele>394.0</ele><time>2026-04-03T16:23:49.999Z</time></trkpt><trkpt lat="42.59746573536097" lon="11.517750887598808"><ele>394.0</ele><time>2026-04-03T16:23:50.999Z</time></trkpt><trkpt lat="42.597582120712175" lon="11.517711187800542"><ele>394.0</ele><time>2026-04-03T16:23:51.999Z</time></trkpt><trkpt lat="42.59769437016003" lon="11.517682378255476"><ele>394.0</ele><time>2026-04-03T16:23:52.999Z</time></trkpt><trkpt lat="42.597803495721806" lon="11.517656618831255"><ele>394.0</ele><time>2026-04-03T16:23:53.999Z</time></trkpt><trkpt lat="42.59790012558762" lon="11.517633652576274"><ele>394.0</ele><time>2026-04-03T16:23:54.999Z</time></trkpt><trkpt lat="42.59798929695115" lon="11.517615513671217"><ele>396.00000000000006</ele><time>2026-04-03T16:23:55.999Z</time></trkpt><trkpt lat="42.5980695063177" lon="11.517595663156413"><ele>398.0</ele><time>2026-04-03T16:23:56.999Z</time></trkpt><trkpt lat="42.598149651818716" lon="11.517570375382551"><ele>400.0</ele><time>2026-04-03T16:23:57.999Z</time></trkpt><trkpt lat="42.59821970879549" lon="11.517525987180235"><ele>402.0</ele><time>2026-04-03T16:23:58.999Z</time></trkpt><trkpt lat="42.598272400536445" lon="11.517460157626143"><ele>404.00000000000006</ele><time>2026-04-03T16:23:59.999Z</time></trkpt><trkpt lat="42.59831535341265" lon="11.517358636864746"><ele>406.0</ele><time>2026-04-03T16:24:00.999Z</time></trkpt><trkpt lat="42.59834140199994" lon="11.517215455689449"><ele>406.0</ele><time>2026-04-03T16:24:01.999Z</time></trkpt><trkpt lat="42.598353408165" lon="11.517074853922502"><ele>406.0</ele><time>2026-04-03T16:24:02.999Z</time></trkpt><trkpt lat="42.59834927615216" lon="11.51694844693881"><ele>406.0</ele><time>2026-04-03T16:24:03.999Z</time></trkpt><trkpt lat="42.59834399231276" lon="11.516827463814687"><ele>406.0</ele><time>2026-04-03T16:24:04.999Z</time></trkpt><trkpt lat="42.59833812943194" lon="11.516703013751883"><ele>406.0</ele><time>2026-04-03T16:24:05.999Z</time></trkpt><trkpt lat="42.598332194136475" lon="11.5165813911024"><ele>405.8</ele><time>2026-04-03T16:24:06.999Z</time></trkpt><trkpt lat="42.598326526708725" lon="11.516463549312002"><ele>405.6</ele><time>2026-04-03T16:24:07.999Z</time></trkpt><trkpt lat="42.59832845000124" lon="11.516347978765811"><ele>405.4</ele><time>2026-04-03T16:24:08.999Z</time></trkpt><trkpt lat="42.59834510468155" lon="11.516224944063932"><ele>405.2</ele><time>2026-04-03T16:24:09.999Z</time></trkpt><trkpt lat="42.59839277603117" lon="11.516107745897697"><ele>405.0</ele><time>2026-04-03T16:24:10.999Z</time></trkpt><trkpt lat="42.5984687825936" lon="11.516018740531667"><ele>404.5</ele><time>2026-04-03T16:24:11.999Z</time></trkpt><trkpt lat="42.59856428642674" lon="11.515945946295435"><ele>404.0</ele><time>2026-04-03T16:24:12.999Z</time></trkpt><trkpt lat="42.59868549571655" lon="11.515861285960977"><ele>403.5</ele><time>2026-04-03T16:24:13.999Z</time></trkpt><trkpt lat="42.59882621427272" lon="11.515761972909484"><ele>403.0</ele><time>2026-04-03T16:24:14.999Z</time></trkpt><trkpt lat="42.598994982035386" lon="11.515684117792299"><ele>407.6666666666667</ele><time>2026-04-03T16:24:15.999Z</time></trkpt><trkpt lat="42.59916312899686" lon="11.515567347282241"><ele>412.33333333333337</ele><time>2026-04-03T16:24:16.999Z</time></trkpt><trkpt lat="42.59933068795747" lon="11.515501648829115"><ele>417.0</ele><time>2026-04-03T16:24:17.999Z</time></trkpt><trkpt lat="42.59947448243508" lon="11.515425651479129"><ele>416.5</ele><time>2026-04-03T16:24:18.999Z</time></trkpt><trkpt lat="42.5996063722927" lon="11.515351918287989"><ele>416.0</ele><time>2026-04-03T16:24:19.999Z</time></trkpt><trkpt lat="42.59972582755198" lon="11.515282521369615"><ele>415.5</ele><time>2026-04-03T16:24:20.999Z</time></trkpt><trkpt lat="42.59983548084418" lon="11.515219620447134"><ele>415.0</ele><time>2026-04-03T16:24:21.999Z</time></trkpt><trkpt lat="42.59994556961634" lon="11.515175031023237"><ele>415.0</ele><time>2026-04-03T16:24:22.999Z</time></trkpt><trkpt lat="42.60005009121484" lon="11.51517818784784"><ele>415.0</ele><time>2026-04-03T16:24:23.999Z</time></trkpt><trkpt lat="42.60016541894637" lon="11.515237102525997"><ele>415.0</ele><time>2026-04-03T16:24:24.999Z</time></trkpt><trkpt lat="42.6002706923752" lon="11.515344082494622"><ele>415.0</ele><time>2026-04-03T16:24:25.999Z</time></trkpt><trkpt lat="42.60034541772137" lon="11.515507737948948"><ele>411.6666666666667</ele><time>2026-04-03T16:24:26.999Z</time></trkpt><trkpt lat="42.60036720932743" lon="11.51571881204272"><ele>408.33333333333337</ele><time>2026-04-03T16:24:27.999Z</time></trkpt><trkpt lat="42.60039484652272" lon="11.515931803461685"><ele>405.0</ele><time>2026-04-03T16:24:28.999Z</time></trkpt><trkpt lat="42.600419799709826" lon="11.516132562814057"><ele>408.25</ele><time>2026-04-03T16:24:29.999Z</time></trkpt><trkpt lat="42.60045552951534" lon="11.516301016299876"><ele>411.5</ele><time>2026-04-03T16:24:30.999Z</time></trkpt><trkpt lat="42.60053045850267" lon="11.516443659683757"><ele>414.75</ele><time>2026-04-03T16:24:31.999Z</time></trkpt><trkpt lat="42.600657107084665" lon="11.516517869659866"><ele>418.0</ele><time>2026-04-03T16:24:32.999Z</time></trkpt><trkpt lat="42.60080689988685" lon="11.51656784350873"><ele>418.0</ele><time>2026-04-03T16:24:33.999Z</time></trkpt><trkpt lat="42.60096132037681" lon="11.516618722001883"><ele>418.0</ele><time>2026-04-03T16:24:34.999Z</time></trkpt><trkpt lat="42.601107722760894" lon="11.516667910033133"><ele>418.0</ele><time>2026-04-03T16:24:35.999Z</time></trkpt><trkpt lat="42.6012553744411" lon="11.516719555857312"><ele>416.6666666666667</ele><time>2026-04-03T16:24:36.999Z</time></trkpt><trkpt lat="42.60141202412719" lon="11.516779087342135"><ele>415.33333333333337</ele><time>2026-04-03T16:24:37.999Z</time></trkpt><trkpt lat="42.60156086753" lon="11.516832991858113"><ele>414.0</ele><time>2026-04-03T16:24:38.999Z</time></trkpt><trkpt lat="42.60170037925858" lon="11.516878532061497"><ele>414.0</ele><time>2026-04-03T16:24:40Z</time></trkpt><trkpt lat="42.6018363765634" lon="11.516903900176644"><ele>414.0</ele><time>2026-04-03T16:24:41Z</time></trkpt><trkpt lat="42.601964489879386" lon="11.516885287904042"><ele>414.0</ele><time>2026-04-03T16:24:42Z</time></trkpt><trkpt lat="42.602064332124606" lon="11.51679653603818"><ele>414.0</ele><time>2026-04-03T16:24:43Z</time></trkpt><trkpt lat="42.60213443872902" lon="11.516664594752246"><ele>414.75</ele><time>2026-04-03T16:24:44Z</time></trkpt><trkpt lat="42.60216503261607" lon="11.516497708551919"><ele>415.5</ele><time>2026-04-03T16:24:45Z</time></trkpt><trkpt lat="42.602190166427576" lon="11.51633007835807"><ele>416.25</ele><time>2026-04-03T16:24:46Z</time></trkpt><trkpt lat="42.60224147938931" lon="11.516162547099908"><ele>417.0</ele><time>2026-04-03T16:24:47Z</time></trkpt><trkpt lat="42.60234054281171" lon="11.51598792937258"><ele>417.0</ele><time>2026-04-03T16:24:48Z</time></trkpt><trkpt lat="42.6024687011688" lon="11.51581176492571"><ele>417.0</ele><time>2026-04-03T16:24:49Z</time></trkpt><trkpt lat="42.6025931149453" lon="11.515650355474394"><ele>417.0</ele><time>2026-04-03T16:24:50Z</time></trkpt><trkpt lat="42.60271375667513" lon="11.515510938771198"><ele>417.75</ele><time>2026-04-03T16:24:51Z</time></trkpt><trkpt lat="42.60283781861521" lon="11.515407877281442"><ele>418.5</ele><time>2026-04-03T16:24:52Z</time></trkpt><trkpt lat="42.60295950317157" lon="11.515343063295436"><ele>419.25</ele><time>2026-04-03T16:24:53Z</time></trkpt><trkpt lat="42.6030623654299" lon="11.515273298003622"><ele>420.0</ele><time>2026-04-03T16:24:54Z</time></trkpt><trkpt lat="42.603125055429466" lon="11.515160302017833"><ele>420.0</ele><time>2026-04-03T16:24:55Z</time></trkpt><trkpt lat="42.60314388849916" lon="11.515013935204758"><ele>420.0</ele><time>2026-04-03T16:24:56Z</time></trkpt><trkpt lat="42.6031446914822" lon="11.514831288900428"><ele>420.0</ele><time>2026-04-03T16:24:57Z</time></trkpt><trkpt lat="42.60315027224902" lon="11.514664705298834"><ele>420.0</ele><time>2026-04-03T16:24:58Z</time></trkpt><trkpt lat="42.60317998807355" lon="11.514513532282237"><ele>417.75</ele><time>2026-04-03T16:24:59Z</time></trkpt><trkpt lat="42.60324527306983" lon="11.514380582592954"><ele>415.5</ele><time>2026-04-03T16:25:00Z</time></trkpt><trkpt lat="42.60335396642845" lon="11.51427297423169"><ele>413.25</ele><time>2026-04-03T16:25:01Z</time></trkpt><trkpt lat="42.603487479463276" lon="11.514188048059562"><ele>411.0</ele><time>2026-04-03T16:25:02Z</time></trkpt><trkpt lat="42.60363259672615" lon="11.51413472413739"><ele>410.5</ele><time>2026-04-03T16:25:03Z</time></trkpt><trkpt lat="42.60377432826965" lon="11.514109321240625"><ele>410.0</ele><time>2026-04-03T16:25:04Z</time></trkpt><trkpt lat="42.60391146041482" lon="11.514102975678325"><ele>409.5</ele><time>2026-04-03T16:25:05Z</time></trkpt><trkpt lat="42.604052134752045" lon="11.51412473585912"><ele>409.0</ele><time>2026-04-03T16:25:06Z</time></trkpt><trkpt lat="42.604181149258025" lon="11.51419152406342"><ele>409.0</ele><time>2026-04-03T16:25:07Z</time></trkpt><trkpt lat="42.60429018267483" lon="11.514282310552128"><ele>409.0</ele><time>2026-04-03T16:25:08Z</time></trkpt><trkpt lat="42.60438910495579" lon="11.514364372143717"><ele>409.0</ele><time>2026-04-03T16:25:09Z</time></trkpt><trkpt lat="42.604489614334774" lon="11.51442908592206"><ele>409.0</ele><time>2026-04-03T16:25:10Z</time></trkpt><trkpt lat="42.60459651375364" lon="11.51444741738131"><ele>409.0</ele><time>2026-04-03T16:25:11Z</time></trkpt><trkpt lat="42.604704616772935" lon="11.514394964720283"><ele>409.0</ele><time>2026-04-03T16:25:12Z</time></trkpt><trkpt lat="42.60478204202312" lon="11.514274330634501"><ele>409.0</ele><time>2026-04-03T16:25:13Z</time></trkpt><trkpt lat="42.60483247837626" lon="11.514111080770782"><ele>409.0</ele><time>2026-04-03T16:25:14Z</time></trkpt><trkpt lat="42.60486679686824" lon="11.513940794411681"><ele>409.0</ele><time>2026-04-03T16:25:15Z</time></trkpt><trkpt lat="42.60490424768484" lon="11.513791656371007"><ele>409.0</ele><time>2026-04-03T16:25:16Z</time></trkpt><trkpt lat="42.60496507684333" lon="11.513664272129432"><ele>409.0</ele><time>2026-04-03T16:25:17Z</time></trkpt><trkpt lat="42.60506299712092" lon="11.513575168521985"><ele>409.0</ele><time>2026-04-03T16:25:18Z</time></trkpt><trkpt lat="42.60519074140885" lon="11.513551996395877"><ele>409.5</ele><time>2026-04-03T16:25:19Z</time></trkpt><trkpt lat="42.60533423041272" lon="11.513601186461896"><ele>410.0</ele><time>2026-04-03T16:25:20Z</time></trkpt><trkpt lat="42.60546030438136" lon="11.513662332679047"><ele>410.5</ele><time>2026-04-03T16:25:21Z</time></trkpt><trkpt lat="42.6055765283195" lon="11.513718403270769"><ele>411.0</ele><time>2026-04-03T16:25:22Z</time></trkpt><trkpt lat="42.60569146311996" lon="11.513754201326863"><ele>411.0</ele><time>2026-04-03T16:25:23Z</time></trkpt><trkpt lat="42.60580467718275" lon="11.513747396031137"><ele>411.0</ele><time>2026-04-03T16:25:24Z</time></trkpt><trkpt lat="42.605906825848834" lon="11.513681949209802"><ele>411.0</ele><time>2026-04-03T16:25:25Z</time></trkpt><trkpt lat="42.60597940044611" lon="11.513550350270211"><ele>411.0</ele><time>2026-04-03T16:25:26Z</time></trkpt><trkpt lat="42.606023820698134" lon="11.51340882699384"><ele>408.75</ele><time>2026-04-03T16:25:27Z</time></trkpt><trkpt lat="42.60601581357103" lon="11.513255693765242"><ele>406.5</ele><time>2026-04-03T16:25:28Z</time></trkpt><trkpt lat="42.60596810992524" lon="11.513076520868996"><ele>404.25</ele><time>2026-04-03T16:25:29Z</time></trkpt><trkpt lat="42.605911353624236" lon="11.512900272752262"><ele>402.0</ele><time>2026-04-03T16:25:30Z</time></trkpt><trkpt lat="42.605857500022566" lon="11.512733479886498"><ele>402.0</ele><time>2026-04-03T16:25:31Z</time></trkpt><trkpt lat="42.60581176047901" lon="11.512565517488937"><ele>402.0</ele><time>2026-04-03T16:25:32Z</time></trkpt><trkpt lat="42.605774537996425" lon="11.51239108408745"><ele>402.0</ele><time>2026-04-03T16:25:33Z</time></trkpt><trkpt lat="42.60576115407484" lon="11.512210662416978"><ele>402.0</ele><time>2026-04-03T16:25:34Z</time></trkpt><trkpt lat="42.605774535937286" lon="11.512040745556117"><ele>401.0</ele><time>2026-04-03T16:25:35Z</time></trkpt><trkpt lat="42.6057856773856" lon="11.511877638922064"><ele>400.0</ele><time>2026-04-03T16:25:36Z</time></trkpt><trkpt lat="42.605799017756596" lon="11.511724864143723"><ele>399.0</ele><time>2026-04-03T16:25:37Z</time></trkpt><trkpt lat="42.60583188792434" lon="11.51158224995191"><ele>398.0</ele><time>2026-04-03T16:25:38Z</time></trkpt><trkpt lat="42.605903580585284" lon="11.511464258297234"><ele>398.0</ele><time>2026-04-03T16:25:39Z</time></trkpt><trkpt lat="42.606018582357635" lon="11.511385231222905"><ele>398.0</ele><time>2026-04-03T16:25:40Z</time></trkpt><trkpt lat="42.60615907084976" lon="11.511343625223239"><ele>398.0</ele><time>2026-04-03T16:25:41Z</time></trkpt><trkpt lat="42.60632202352964" lon="11.511329408850626"><ele>398.0</ele><time>2026-04-03T16:25:42Z</time></trkpt><trkpt lat="42.60649626388289" lon="11.511317226303866"><ele>399.66666666666663</ele><time>2026-04-03T16:25:43Z</time></trkpt><trkpt lat="42.606662461890195" lon="11.511301372417504"><ele>401.33333333333337</ele><time>2026-04-03T16:25:44Z</time></trkpt><trkpt lat="42.606818483241256" lon="11.51128736559552"><ele>403.0</ele><time>2026-04-03T16:25:45Z</time></trkpt><trkpt lat="42.60695551094537" lon="11.511266418665302"><ele>402.4</ele><time>2026-04-03T16:25:46Z</time></trkpt><trkpt lat="42.60707567160298" lon="11.511247770383378"><ele>401.79999999999995</ele><time>2026-04-03T16:25:47Z</time></trkpt><trkpt lat="42.60716800336804" lon="11.51121360255758"><ele>401.2</ele><time>2026-04-03T16:25:48Z</time></trkpt><trkpt lat="42.60724544128894" lon="11.51114500631772"><ele>400.6</ele><time>2026-04-03T16:25:48.999Z</time></trkpt><trkpt lat="42.60728492109116" lon="11.511023295477179"><ele>400.0</ele><time>2026-04-03T16:25:49.999Z</time></trkpt><trkpt lat="42.60728892006138" lon="11.510869018627849"><ele>398.0</ele><time>2026-04-03T16:25:50.999Z</time></trkpt><trkpt lat="42.607229719232805" lon="11.510709550421778"><ele>396.0</ele><time>2026-04-03T16:25:51.999Z</time></trkpt><trkpt lat="42.60711635510228" lon="11.510567594797072"><ele>394.0</ele><time>2026-04-03T16:25:52.999Z</time></trkpt><trkpt lat="42.60699541924575" lon="11.510426724915588"><ele>392.0</ele><time>2026-04-03T16:25:53.999Z</time></trkpt><trkpt lat="42.60687686286203" lon="11.510282945165706"><ele>388.5</ele><time>2026-04-03T16:25:54.999Z</time></trkpt><trkpt lat="42.6067794302359" lon="11.510147017602309"><ele>385.0</ele><time>2026-04-03T16:25:55.999Z</time></trkpt><trkpt lat="42.606692996583675" lon="11.510020899826744"><ele>381.5</ele><time>2026-04-03T16:25:56.999Z</time></trkpt><trkpt lat="42.60663367718967" lon="11.50991027696146"><ele>378.0</ele><time>2026-04-03T16:25:57.999Z</time></trkpt><trkpt lat="42.606606226815174" lon="11.509780890326075"><ele>378.0</ele><time>2026-04-03T16:25:58.999Z</time></trkpt><trkpt lat="42.60661728832596" lon="11.509647230246792"><ele>378.0</ele><time>2026-04-03T16:25:59.999Z</time></trkpt><trkpt lat="42.60667357942631" lon="11.509526754644613"><ele>378.0</ele><time>2026-04-03T16:26:00.999Z</time></trkpt><trkpt lat="42.606773053003685" lon="11.509443400916382"><ele>378.0</ele><time>2026-04-03T16:26:01.999Z</time></trkpt><trkpt lat="42.60689657434791" lon="11.509428993413739"><ele>378.0</ele><time>2026-04-03T16:26:02.999Z</time></trkpt><trkpt lat="42.60704159198043" lon="11.509466378393984"><ele>379.75</ele><time>2026-04-03T16:26:03.999Z</time></trkpt><trkpt lat="42.60718576972317" lon="11.50951068695927"><ele>381.5</ele><time>2026-04-03T16:26:04.999Z</time></trkpt><trkpt lat="42.607331257991035" lon="11.509551904133598"><ele>383.25</ele><time>2026-04-03T16:26:05.999Z</time></trkpt><trkpt lat="42.607469664259234" lon="11.509594875303563"><ele>385.0</ele><time>2026-04-03T16:26:06.999Z</time></trkpt><trkpt lat="42.60760005426079" lon="11.509633069442483"><ele>385.0</ele><time>2026-04-03T16:26:07.999Z</time></trkpt><trkpt lat="42.60772194355686" lon="11.509669869906974"><ele>385.0</ele><time>2026-04-03T16:26:08.999Z</time></trkpt><trkpt lat="42.607833095117506" lon="11.509697530922585"><ele>385.0</ele><time>2026-04-03T16:26:09.999Z</time></trkpt><trkpt lat="42.60793502420018" lon="11.509713496941194"><ele>385.0</ele><time>2026-04-03T16:26:10.999Z</time></trkpt><trkpt lat="42.608027615586984" lon="11.509671996230846"><ele>385.0</ele><time>2026-04-03T16:26:11.999Z</time></trkpt><trkpt lat="42.60809486892132" lon="11.509589275361103"><ele>383.0</ele><time>2026-04-03T16:26:12.999Z</time></trkpt><trkpt lat="42.60811777040333" lon="11.509468015498902"><ele>381.0</ele><time>2026-04-03T16:26:13.999Z</time></trkpt><trkpt lat="42.6080884783053" lon="11.509327289091443"><ele>379.0</ele><time>2026-04-03T16:26:14.999Z</time></trkpt><trkpt lat="42.60801088627351" lon="11.509194776880404"><ele>377.0</ele><time>2026-04-03T16:26:15.999Z</time></trkpt><trkpt lat="42.60792886880228" lon="11.509067799923965"><ele>375.0</ele><time>2026-04-03T16:26:16.999Z</time></trkpt><trkpt lat="42.607855649086375" lon="11.508936718775534"><ele>374.4</ele><time>2026-04-03T16:26:17.999Z</time></trkpt><trkpt lat="42.60780127572439" lon="11.508795069947823"><ele>373.8</ele><time>2026-04-03T16:26:18.999Z</time></trkpt><trkpt lat="42.60777749356635" lon="11.508641985545731"><ele>373.20000000000005</ele><time>2026-04-03T16:26:19.999Z</time></trkpt><trkpt lat="42.60778167079215" lon="11.508498219528343"><ele>372.6</ele><time>2026-04-03T16:26:20.999Z</time></trkpt><trkpt lat="42.60782666834917" lon="11.508369068456927"><ele>372.0</ele><time>2026-04-03T16:26:21.999Z</time></trkpt><trkpt lat="42.60789661097392" lon="11.508268767284923"><ele>372.0</ele><time>2026-04-03T16:26:22.999Z</time></trkpt><trkpt lat="42.607960843110504" lon="11.508163437206095"><ele>372.0</ele><time>2026-04-03T16:26:23.999Z</time></trkpt><trkpt lat="42.6079959935408" lon="11.508025789389134"><ele>372.0</ele><time>2026-04-03T16:26:24.999Z</time></trkpt><trkpt lat="42.60797571040157" lon="11.507869235636935"><ele>372.0</ele><time>2026-04-03T16:26:25.999Z</time></trkpt><trkpt lat="42.60790866355109" lon="11.507714603792651"><ele>371.25</ele><time>2026-04-03T16:26:26.999Z</time></trkpt><trkpt lat="42.60783336393543" lon="11.507573686480832"><ele>370.5</ele><time>2026-04-03T16:26:27.999Z</time></trkpt><trkpt lat="42.60775417518358" lon="11.507434614011009"><ele>369.75</ele><time>2026-04-03T16:26:28.999Z</time></trkpt><trkpt lat="42.607679468392945" lon="11.507287335437304"><ele>369.0</ele><time>2026-04-03T16:26:29.999Z</time></trkpt><trkpt lat="42.60762315603548" lon="11.507129436811192"><ele>364.75</ele><time>2026-04-03T16:26:30.999Z</time></trkpt><trkpt lat="42.60760684110252" lon="11.506962816353026"><ele>360.5</ele><time>2026-04-03T16:26:31.999Z</time></trkpt><trkpt lat="42.6076234965156" lon="11.506793982662417"><ele>356.25</ele><time>2026-04-03T16:26:32.999Z</time></trkpt><trkpt lat="42.60768009565937" lon="11.506647968030745"><ele>352.0</ele><time>2026-04-03T16:26:33.999Z</time></trkpt><trkpt lat="42.60776007912525" lon="11.506533217351784"><ele>354.0</ele><time>2026-04-03T16:26:34.999Z</time></trkpt><trkpt lat="42.60786877936111" lon="11.506459889127154"><ele>356.0</ele><time>2026-04-03T16:26:35.999Z</time></trkpt><trkpt lat="42.60799335605886" lon="11.506413070073473"><ele>358.0</ele><time>2026-04-03T16:26:36.999Z</time></trkpt><trkpt lat="42.60812385450286" lon="11.506405261319706"><ele>360.0</ele><time>2026-04-03T16:26:37.999Z</time></trkpt><trkpt lat="42.60824972303574" lon="11.506422482347663"><ele>360.0</ele><time>2026-04-03T16:26:38.999Z</time></trkpt><trkpt lat="42.60836640093106" lon="11.506427800694668"><ele>360.0</ele><time>2026-04-03T16:26:39.999Z</time></trkpt><trkpt lat="42.60848252609398" lon="11.506417021981125"><ele>360.0</ele><time>2026-04-03T16:26:40.999Z</time></trkpt><trkpt lat="42.608584888215454" lon="11.506364298827027"><ele>360.0</ele><time>2026-04-03T16:26:41.999Z</time></trkpt><trkpt lat="42.60866473430552" lon="11.506278155251952"><ele>360.0</ele><time>2026-04-03T16:26:42.999Z</time></trkpt><trkpt lat="42.60872282927414" lon="11.506153842295152"><ele>358.5</ele><time>2026-04-03T16:26:43.999Z</time></trkpt><trkpt lat="42.60879431460405" lon="11.506033575906754"><ele>357.0</ele><time>2026-04-03T16:26:44.999Z</time></trkpt><trkpt lat="42.60870827051352" lon="11.505869534078466"><ele>355.5</ele><time>2026-04-03T16:26:46Z</time></trkpt><trkpt lat="42.60866188308945" lon="11.50574988936441"><ele>354.0</ele><time>2026-04-03T16:26:47Z</time></trkpt><trkpt lat="42.608628269959056" lon="11.505633295772858"><ele>352.6</ele><time>2026-04-03T16:26:48Z</time></trkpt><trkpt lat="42.608636842052206" lon="11.505507466868252"><ele>351.2</ele><time>2026-04-03T16:26:49Z</time></trkpt><trkpt lat="42.60869168864295" lon="11.505397922696432"><ele>349.8</ele><time>2026-04-03T16:26:50Z</time></trkpt><trkpt lat="42.60878523337758" lon="11.50532983141355"><ele>348.40000000000003</ele><time>2026-04-03T16:26:51Z</time></trkpt><trkpt lat="42.60889754483657" lon="11.505308758545418"><ele>347.0</ele><time>2026-04-03T16:26:52Z</time></trkpt><trkpt lat="42.60900162514362" lon="11.505279344057884"><ele>347.0</ele><time>2026-04-03T16:26:53Z</time></trkpt><trkpt lat="42.609087504218586" lon="11.50520740070064"><ele>347.0</ele><time>2026-04-03T16:26:54Z</time></trkpt><trkpt lat="42.60914883470782" lon="11.5051022821194"><ele>347.0</ele><time>2026-04-03T16:26:55Z</time></trkpt><trkpt lat="42.60917589389491" lon="11.50496408721441"><ele>347.0</ele><time>2026-04-03T16:26:56Z</time></trkpt><trkpt lat="42.609162279145664" lon="11.504808788317202"><ele>347.0</ele><time>2026-04-03T16:26:57Z</time></trkpt><trkpt lat="42.60910807270572" lon="11.504658860606986"><ele>347.0</ele><time>2026-04-03T16:26:58Z</time></trkpt><trkpt lat="42.60902210897163" lon="11.504516534490554"><ele>347.0</ele><time>2026-04-03T16:26:59Z</time></trkpt><trkpt lat="42.60891658557952" lon="11.504365089330369"><ele>347.0</ele><time>2026-04-03T16:27:00Z</time></trkpt><trkpt lat="42.60881965737574" lon="11.504218306951609"><ele>347.0</ele><time>2026-04-03T16:27:01Z</time></trkpt><trkpt lat="42.60872335347613" lon="11.504066848661685"><ele>342.75</ele><time>2026-04-03T16:27:02Z</time></trkpt><trkpt lat="42.60863261053392" lon="11.503919943087551"><ele>338.5</ele><time>2026-04-03T16:27:03Z</time></trkpt><trkpt lat="42.608558366055306" lon="11.503781227870467"><ele>334.25</ele><time>2026-04-03T16:27:04Z</time></trkpt><trkpt lat="42.60850582037935" lon="11.503641287020757"><ele>330.0</ele><time>2026-04-03T16:27:05Z</time></trkpt><trkpt lat="42.60848420526458" lon="11.503473643932384"><ele>330.0</ele><time>2026-04-03T16:27:06Z</time></trkpt><trkpt lat="42.608511252783465" lon="11.503289960438947"><ele>330.0</ele><time>2026-04-03T16:27:07Z</time></trkpt><trkpt lat="42.6085759067753" lon="11.503113765537293"><ele>330.0</ele><time>2026-04-03T16:27:08Z</time></trkpt><trkpt lat="42.60866633859258" lon="11.502948600400549"><ele>330.0</ele><time>2026-04-03T16:27:09Z</time></trkpt><trkpt lat="42.60874977560411" lon="11.502800660978538"><ele>334.0</ele><time>2026-04-03T16:27:10Z</time></trkpt><trkpt lat="42.60880631235387" lon="11.502625349894041"><ele>338.0</ele><time>2026-04-03T16:27:11Z</time></trkpt><trkpt lat="42.60884607511968" lon="11.502397630530206"><ele>342.0</ele><time>2026-04-03T16:27:12Z</time></trkpt><trkpt lat="42.608897815406216" lon="11.502161804505553"><ele>339.6666666666667</ele><time>2026-04-03T16:27:13Z</time></trkpt><trkpt lat="42.60896082913575" lon="11.501943721407498"><ele>337.33333333333337</ele><time>2026-04-03T16:27:14Z</time></trkpt><trkpt lat="42.609017768401806" lon="11.501737375535185"><ele>335.0</ele><time>2026-04-03T16:27:15Z</time></trkpt><trkpt lat="42.609070793208524" lon="11.501538820803718"><ele>335.0</ele><time>2026-04-03T16:27:16Z</time></trkpt><trkpt lat="42.60912823971876" lon="11.501345778211643"><ele>335.0</ele><time>2026-04-03T16:27:17Z</time></trkpt><trkpt lat="42.609182783460184" lon="11.501167850039977"><ele>335.0</ele><time>2026-04-03T16:27:18Z</time></trkpt><trkpt lat="42.6092348212795" lon="11.500996035878456"><ele>335.0</ele><time>2026-04-03T16:27:19Z</time></trkpt><trkpt lat="42.609284020742514" lon="11.500834762840347"><ele>334.25</ele><time>2026-04-03T16:27:20Z</time></trkpt><trkpt lat="42.609346213213364" lon="11.500682293806644"><ele>333.5</ele><time>2026-04-03T16:27:21Z</time></trkpt><trkpt lat="42.60944135187523" lon="11.500543652418408"><ele>332.75</ele><time>2026-04-03T16:27:22Z</time></trkpt><trkpt lat="42.60956166391549" lon="11.500425531002321"><ele>332.0</ele><time>2026-04-03T16:27:23Z</time></trkpt><trkpt lat="42.60968605719205" lon="11.500332405152312"><ele>328.25</ele><time>2026-04-03T16:27:24Z</time></trkpt><trkpt lat="42.60980377605476" lon="11.500263108382246"><ele>324.5</ele><time>2026-04-03T16:27:25Z</time></trkpt><trkpt lat="42.609921539131584" lon="11.500220570277376"><ele>320.75</ele><time>2026-04-03T16:27:26Z</time></trkpt><trkpt lat="42.61002989233286" lon="11.50023165236618"><ele>317.0</ele><time>2026-04-03T16:27:27Z</time></trkpt><trkpt lat="42.61013792734943" lon="11.500282210331278"><ele>317.0</ele><time>2026-04-03T16:27:28Z</time></trkpt><trkpt lat="42.61024101470154" lon="11.500330254519035"><ele>317.0</ele><time>2026-04-03T16:27:29Z</time></trkpt><trkpt lat="42.61035100004107" lon="11.500336604919914"><ele>317.0</ele><time>2026-04-03T16:27:30Z</time></trkpt><trkpt lat="42.610469161201884" lon="11.500282809568194"><ele>317.0</ele><time>2026-04-03T16:27:31Z</time></trkpt><trkpt lat="42.61058143924556" lon="11.50018703801672"><ele>317.0</ele><time>2026-04-03T16:27:32Z</time></trkpt><trkpt lat="42.61068139553101" lon="11.500091476400135"><ele>317.0</ele><time>2026-04-03T16:27:33Z</time></trkpt><trkpt lat="42.610789761376076" lon="11.50003533732528"><ele>317.0</ele><time>2026-04-03T16:27:34Z</time></trkpt><trkpt lat="42.61089851390312" lon="11.500019457381422"><ele>317.0</ele><time>2026-04-03T16:27:35Z</time></trkpt><trkpt lat="42.61101035118291" lon="11.500060217295234"><ele>317.0</ele><time>2026-04-03T16:27:36Z</time></trkpt><trkpt lat="42.611136255894664" lon="11.500142657543785"><ele>317.0</ele><time>2026-04-03T16:27:37Z</time></trkpt><trkpt lat="42.61127038425198" lon="11.500232975354509"><ele>317.0</ele><time>2026-04-03T16:27:38Z</time></trkpt><trkpt lat="42.61141615960846" lon="11.500327094421522"><ele>318.0</ele><time>2026-04-03T16:27:39Z</time></trkpt><trkpt lat="42.611559651251575" lon="11.500416651206196"><ele>319.0</ele><time>2026-04-03T16:27:40Z</time></trkpt><trkpt lat="42.611697669010084" lon="11.50050215930311"><ele>320.0</ele><time>2026-04-03T16:27:41Z</time></trkpt><trkpt lat="42.6118282689047" lon="11.500593258067381"><ele>320.0</ele><time>2026-04-03T16:27:42Z</time></trkpt><trkpt lat="42.61195091908017" lon="11.50070152487848"><ele>320.0</ele><time>2026-04-03T16:27:43Z</time></trkpt><trkpt lat="42.61206349601469" lon="11.500840878180858"><ele>320.0</ele><time>2026-04-03T16:27:44Z</time></trkpt><trkpt lat="42.61215349606671" lon="11.501003437021762"><ele>320.0</ele><time>2026-04-03T16:27:45Z</time></trkpt><trkpt lat="42.61223601833178" lon="11.50115932089611"><ele>318.25</ele><time>2026-04-03T16:27:46Z</time></trkpt><trkpt lat="42.6123232644448" lon="11.501300598547946"><ele>316.5</ele><time>2026-04-03T16:27:47Z</time></trkpt><trkpt lat="42.61243408535133" lon="11.501399947878836"><ele>314.75</ele><time>2026-04-03T16:27:48Z</time></trkpt><trkpt lat="42.6125637866839" lon="11.501427322859207"><ele>313.0</ele><time>2026-04-03T16:27:49Z</time></trkpt><trkpt lat="42.61270108136084" lon="11.501381266523492"><ele>311.66666666666663</ele><time>2026-04-03T16:27:50Z</time></trkpt><trkpt lat="42.61283091673481" lon="11.501267189953472"><ele>310.3333333333333</ele><time>2026-04-03T16:27:51Z</time></trkpt><trkpt lat="42.61297207720219" lon="11.501138006813976"><ele>309.0</ele><time>2026-04-03T16:27:52Z</time></trkpt><trkpt lat="42.61313704522722" lon="11.501013082561098"><ele>307.3333333333333</ele><time>2026-04-03T16:27:53Z</time></trkpt><trkpt lat="42.61331319470112" lon="11.500881897787252"><ele>305.66666666666663</ele><time>2026-04-03T16:27:54Z</time></trkpt><trkpt lat="42.613490360888264" lon="11.500735668933503"><ele>304.0</ele><time>2026-04-03T16:27:54.999Z</time></trkpt><trkpt lat="42.613674184332595" lon="11.500583932326968"><ele>304.0</ele><time>2026-04-03T16:27:55.999Z</time></trkpt><trkpt lat="42.61384966956005" lon="11.500439071152352"><ele>304.0</ele><time>2026-04-03T16:27:56.999Z</time></trkpt><trkpt lat="42.6140190271223" lon="11.500299871212611"><ele>304.0</ele><time>2026-04-03T16:27:57.999Z</time></trkpt><trkpt lat="42.61417480857523" lon="11.500171850272658"><ele>301.66666666666663</ele><time>2026-04-03T16:27:58.999Z</time></trkpt><trkpt lat="42.61431658555593" lon="11.500052758671284"><ele>299.3333333333333</ele><time>2026-04-03T16:27:59.999Z</time></trkpt><trkpt lat="42.614458052288605" lon="11.49990769551851"><ele>297.0</ele><time>2026-04-03T16:28:00.999Z</time></trkpt><trkpt lat="42.614539304567174" lon="11.499735069016182"><ele>295.25</ele><time>2026-04-03T16:28:01.999Z</time></trkpt><trkpt lat="42.61462803405826" lon="11.499565471034899"><ele>293.5</ele><time>2026-04-03T16:28:02.999Z</time></trkpt><trkpt lat="42.61467521994619" lon="11.499371330815485"><ele>291.75</ele><time>2026-04-03T16:28:03.999Z</time></trkpt><trkpt lat="42.614749560455486" lon="11.49920462127492"><ele>290.0</ele><time>2026-04-03T16:28:04.999Z</time></trkpt><trkpt lat="42.614848026801724" lon="11.499060024426234"><ele>290.0</ele><time>2026-04-03T16:28:05.999Z</time></trkpt><trkpt lat="42.6149752953342" lon="11.498958982610905"><ele>290.0</ele><time>2026-04-03T16:28:06.999Z</time></trkpt><trkpt lat="42.61509447373263" lon="11.498894468787174"><ele>290.0</ele><time>2026-04-03T16:28:07.999Z</time></trkpt><trkpt lat="42.615197079537616" lon="11.498817391955281"><ele>290.0</ele><time>2026-04-03T16:28:08.999Z</time></trkpt><trkpt lat="42.6152684876204" lon="11.498696190750445"><ele>288.25</ele><time>2026-04-03T16:28:09.999Z</time></trkpt><trkpt lat="42.61529755600133" lon="11.498541146825726"><ele>286.5</ele><time>2026-04-03T16:28:10.999Z</time></trkpt><trkpt lat="42.615283586408815" lon="11.498355485870652"><ele>284.75</ele><time>2026-04-03T16:28:11.999Z</time></trkpt><trkpt lat="42.61522446314756" lon="11.49818109408715"><ele>283.0</ele><time>2026-04-03T16:28:12.999Z</time></trkpt><trkpt lat="42.61514973026559" lon="11.498047963623879"><ele>282.5</ele><time>2026-04-03T16:28:13.999Z</time></trkpt><trkpt lat="42.61507170222471" lon="11.497917713103954"><ele>282.0</ele><time>2026-04-03T16:28:14.999Z</time></trkpt><trkpt lat="42.61501274567082" lon="11.497787809489845"><ele>281.5</ele><time>2026-04-03T16:28:15.999Z</time></trkpt><trkpt lat="42.614977401317745" lon="11.497646686000508"><ele>281.0</ele><time>2026-04-03T16:28:16.999Z</time></trkpt><trkpt lat="42.61497438004338" lon="11.497485997837082"><ele>281.0</ele><time>2026-04-03T16:28:17.999Z</time></trkpt><trkpt lat="42.615008478144404" lon="11.497320865553766"><ele>281.0</ele><time>2026-04-03T16:28:18.999Z</time></trkpt><trkpt lat="42.61505536183449" lon="11.49716759053628"><ele>281.0</ele><time>2026-04-03T16:28:19.999Z</time></trkpt><trkpt lat="42.61509908378925" lon="11.49702314323294"><ele>281.0</ele><time>2026-04-03T16:28:20.999Z</time></trkpt><trkpt lat="42.61514208904054" lon="11.496885863283621"><ele>279.8</ele><time>2026-04-03T16:28:21.999Z</time></trkpt><trkpt lat="42.61518194544353" lon="11.49675264174538"><ele>278.6</ele><time>2026-04-03T16:28:22.999Z</time></trkpt><trkpt lat="42.615217115963766" lon="11.496623926149422"><ele>277.4</ele><time>2026-04-03T16:28:23.999Z</time></trkpt><trkpt lat="42.61525159937612" lon="11.496500992633353"><ele>276.2</ele><time>2026-04-03T16:28:24.999Z</time></trkpt><trkpt lat="42.61529031169316" lon="11.49636784974513"><ele>275.0</ele><time>2026-04-03T16:28:25.999Z</time></trkpt><trkpt lat="42.61533619675158" lon="11.496219846486802"><ele>273.5</ele><time>2026-04-03T16:28:26.999Z</time></trkpt><trkpt lat="42.61537198121198" lon="11.496067548501738"><ele>272.0</ele><time>2026-04-03T16:28:27.999Z</time></trkpt><trkpt lat="42.61539746300483" lon="11.495919216464792"><ele>270.5</ele><time>2026-04-03T16:28:28.999Z</time></trkpt><trkpt lat="42.61539503675305" lon="11.49576352522001"><ele>269.0</ele><time>2026-04-03T16:28:29.999Z</time></trkpt><trkpt lat="42.61536751754647" lon="11.495601624649943"><ele>269.0</ele><time>2026-04-03T16:28:30.999Z</time></trkpt><trkpt lat="42.61533513814841" lon="11.495457470490189"><ele>269.0</ele><time>2026-04-03T16:28:31.999Z</time></trkpt><trkpt lat="42.61530861261404" lon="11.495317702681792"><ele>269.0</ele><time>2026-04-03T16:28:32.999Z</time></trkpt><trkpt lat="42.61529317382877" lon="11.495187745006401"><ele>269.0</ele><time>2026-04-03T16:28:33.999Z</time></trkpt><trkpt lat="42.615303795141315" lon="11.495061712431614"><ele>269.0</ele><time>2026-04-03T16:28:34.999Z</time></trkpt><trkpt lat="42.61533766158193" lon="11.494946413318326"><ele>268.4</ele><time>2026-04-03T16:28:35.999Z</time></trkpt><trkpt lat="42.61540336748783" lon="11.49484209421244"><ele>267.79999999999995</ele><time>2026-04-03T16:28:36.999Z</time></trkpt><trkpt lat="42.61549345114576" lon="11.494765096412687"><ele>267.20000000000005</ele><time>2026-04-03T16:28:37.999Z</time></trkpt><trkpt lat="42.61558775644754" lon="11.494713958305342"><ele>266.6</ele><time>2026-04-03T16:28:38.999Z</time></trkpt><trkpt lat="42.61568687239359" lon="11.49466579092756"><ele>266.0</ele><time>2026-04-03T16:28:39.999Z</time></trkpt><trkpt lat="42.61578343658282" lon="11.494621262870247"><ele>265.6</ele><time>2026-04-03T16:28:40.999Z</time></trkpt><trkpt lat="42.615881043990115" lon="11.494575197690635"><ele>265.20000000000005</ele><time>2026-04-03T16:28:41.999Z</time></trkpt><trkpt lat="42.61598496313011" lon="11.49453399931747"><ele>264.79999999999995</ele><time>2026-04-03T16:28:42.999Z</time></trkpt><trkpt lat="42.61609623662067" lon="11.494505993531103"><ele>264.4</ele><time>2026-04-03T16:28:43.999Z</time></trkpt><trkpt lat="42.61621566083796" lon="11.494523180787033"><ele>264.0</ele><time>2026-04-03T16:28:44.999Z</time></trkpt><trkpt lat="42.61631931610911" lon="11.494576371185559"><ele>263.8</ele><time>2026-04-03T16:28:45.999Z</time></trkpt><trkpt lat="42.61640801281809" lon="11.494652664236659"><ele>263.59999999999997</ele><time>2026-04-03T16:28:46.999Z</time></trkpt><trkpt lat="42.61649099689916" lon="11.494734972215696"><ele>263.4</ele><time>2026-04-03T16:28:47.999Z</time></trkpt><trkpt lat="42.61657206896671" lon="11.494818527516662"><ele>263.2</ele><time>2026-04-03T16:28:48.999Z</time></trkpt><trkpt lat="42.616653071615865" lon="11.494894231725953"><ele>263.0</ele><time>2026-04-03T16:28:49.999Z</time></trkpt><trkpt lat="42.61673566913478" lon="11.494962082443072"><ele>263.0</ele><time>2026-04-03T16:28:50.999Z</time></trkpt><trkpt lat="42.61681636726996" lon="11.495023720718851"><ele>263.0</ele><time>2026-04-03T16:28:52Z</time></trkpt><trkpt lat="42.61690511290897" lon="11.495060399934422"><ele>263.0</ele><time>2026-04-03T16:28:53Z</time></trkpt><trkpt lat="42.61701271891084" lon="11.495054279736394"><ele>263.0</ele><time>2026-04-03T16:28:54Z</time></trkpt><trkpt lat="42.617112097784066" lon="11.495002347375724"><ele>263.0</ele><time>2026-04-03T16:28:55Z</time></trkpt><trkpt lat="42.617193675597804" lon="11.494895518933085"><ele>262.75</ele><time>2026-04-03T16:28:56Z</time></trkpt><trkpt lat="42.617237139163855" lon="11.494736770022381"><ele>262.5</ele><time>2026-04-03T16:28:57Z</time></trkpt><trkpt lat="42.61726938078924" lon="11.49456143112315"><ele>262.25</ele><time>2026-04-03T16:28:58Z</time></trkpt><trkpt lat="42.61731136732023" lon="11.494408803063688"><ele>262.0</ele><time>2026-04-03T16:28:59Z</time></trkpt><trkpt lat="42.61736883990144" lon="11.4942858764058"><ele>264.4</ele><time>2026-04-03T16:29:00Z</time></trkpt><trkpt lat="42.61743888982218" lon="11.494162185550927"><ele>266.79999999999995</ele><time>2026-04-03T16:29:01Z</time></trkpt><trkpt lat="42.61750477132076" lon="11.494055214217243"><ele>269.2</ele><time>2026-04-03T16:29:02Z</time></trkpt><trkpt lat="42.617568399586006" lon="11.493970770517384"><ele>271.59999999999997</ele><time>2026-04-03T16:29:03Z</time></trkpt><trkpt lat="42.61763588615988" lon="11.493916491937231"><ele>274.0</ele><time>2026-04-03T16:29:04Z</time></trkpt><trkpt lat="42.617704834543396" lon="11.493892910395394"><ele>274.0</ele><time>2026-04-03T16:29:05Z</time></trkpt><trkpt lat="42.61778625403747" lon="11.493893870743728"><ele>274.0</ele><time>2026-04-03T16:29:06Z</time></trkpt><trkpt lat="42.61786868233502" lon="11.4939196845818"><ele>274.0</ele><time>2026-04-03T16:29:07Z</time></trkpt><trkpt lat="42.61795074138498" lon="11.493983674088879"><ele>274.0</ele><time>2026-04-03T16:29:08Z</time></trkpt><trkpt lat="42.6180272975239" lon="11.494066938925075"><ele>274.0</ele><time>2026-04-03T16:29:09Z</time></trkpt><trkpt lat="42.61809033633991" lon="11.494128859332271"><ele>274.0</ele><time>2026-04-03T16:29:10Z</time></trkpt><trkpt lat="42.61815652534343" lon="11.49418076080873"><ele>274.2</ele><time>2026-04-03T16:29:11Z</time></trkpt><trkpt lat="42.61824226061774" lon="11.494220673290934"><ele>274.4</ele><time>2026-04-03T16:29:12Z</time></trkpt><trkpt lat="42.61834427479683" lon="11.494236547059607"><ele>274.6</ele><time>2026-04-03T16:29:13Z</time></trkpt><trkpt lat="42.618451974141294" lon="11.494228213949494"><ele>274.8</ele><time>2026-04-03T16:29:14Z</time></trkpt><trkpt lat="42.61854463877716" lon="11.494196597364207"><ele>275.0</ele><time>2026-04-03T16:29:15Z</time></trkpt><trkpt lat="42.618625046248674" lon="11.49413956569937"><ele>275.2</ele><time>2026-04-03T16:29:16Z</time></trkpt><trkpt lat="42.61869095317254" lon="11.494054615394013"><ele>275.4</ele><time>2026-04-03T16:29:17Z</time></trkpt><trkpt lat="42.61873478570605" lon="11.493946078463026"><ele>275.6</ele><time>2026-04-03T16:29:18Z</time></trkpt><trkpt lat="42.61876823924848" lon="11.493829934990393"><ele>275.8</ele><time>2026-04-03T16:29:19Z</time></trkpt><trkpt lat="42.618798322624464" lon="11.493704351240138"><ele>276.0</ele><time>2026-04-03T16:29:20Z</time></trkpt><trkpt lat="42.61882862656961" lon="11.493570546381832"><ele>276.0</ele><time>2026-04-03T16:29:21Z</time></trkpt><trkpt lat="42.61886510563369" lon="11.493437021819377"><ele>276.0</ele><time>2026-04-03T16:29:22Z</time></trkpt><trkpt lat="42.61891023060369" lon="11.493305605547874"><ele>276.0</ele><time>2026-04-03T16:29:23Z</time></trkpt><trkpt lat="42.618967547842104" lon="11.493184734358074"><ele>276.0</ele><time>2026-04-03T16:29:24Z</time></trkpt><trkpt lat="42.619027311702396" lon="11.493080580842413"><ele>276.0</ele><time>2026-04-03T16:29:25Z</time></trkpt><trkpt lat="42.619086014809525" lon="11.492990586657545"><ele>276.0</ele><time>2026-04-03T16:29:26Z</time></trkpt><trkpt lat="42.619139442909734" lon="11.492901795215788"><ele>276.0</ele><time>2026-04-03T16:29:27Z</time></trkpt><trkpt lat="42.61918847754271" lon="11.492821152976727"><ele>276.0</ele><time>2026-04-03T16:29:28Z</time></trkpt><trkpt lat="42.61923512352237" lon="11.49274228708803"><ele>276.0</ele><time>2026-04-03T16:29:29Z</time></trkpt><trkpt lat="42.619281888226546" lon="11.492672071543296"><ele>276.0</ele><time>2026-04-03T16:29:30Z</time></trkpt><trkpt lat="42.61933814754962" lon="11.492578961117296"><ele>276.0</ele><time>2026-04-03T16:29:31Z</time></trkpt><trkpt lat="42.619418678066516" lon="11.492464465178083"><ele>275.8</ele><time>2026-04-03T16:29:32Z</time></trkpt><trkpt lat="42.619494354012524" lon="11.49235421916743"><ele>275.6</ele><time>2026-04-03T16:29:33Z</time></trkpt><trkpt lat="42.61956923815343" lon="11.492259089824913"><ele>275.4</ele><time>2026-04-03T16:29:34Z</time></trkpt><trkpt lat="42.61964806939583" lon="11.492174368333972"><ele>275.2</ele><time>2026-04-03T16:29:35Z</time></trkpt><trkpt lat="42.61973233885413" lon="11.492104913204624"><ele>275.0</ele><time>2026-04-03T16:29:36Z</time></trkpt><trkpt lat="42.61981387423161" lon="11.492043017660677"><ele>275.0</ele><time>2026-04-03T16:29:37Z</time></trkpt><trkpt lat="42.61989162231197" lon="11.491990167966676"><ele>275.0</ele><time>2026-04-03T16:29:38Z</time></trkpt><trkpt lat="42.61995481426688" lon="11.491944053537399"><ele>275.0</ele><time>2026-04-03T16:29:39Z</time></trkpt><trkpt lat="42.620041606917844" lon="11.491885169810448"><ele>275.0</ele><time>2026-04-03T16:29:41Z</time></trkpt><trkpt lat="42.62012799798068" lon="11.49186347911376"><ele>275.0</ele><time>2026-04-03T16:29:43Z</time></trkpt><trkpt lat="42.62019630607244" lon="11.491857370083812"><ele>275.0</ele><time>2026-04-03T16:29:48Z</time></trkpt><trkpt lat="42.62027257597934" lon="11.491933411253303"><ele>275.0</ele><time>2026-04-03T16:29:50Z</time></trkpt><trkpt lat="42.62030562521698" lon="11.492025733327221"><ele>275.0</ele><time>2026-04-03T16:29:51Z</time></trkpt><trkpt lat="42.620340549184064" lon="11.492111040100719"><ele>275.0</ele><time>2026-04-03T16:29:52Z</time></trkpt><trkpt lat="42.620377326094555" lon="11.49219203614529"><ele>275.0</ele><time>2026-04-03T16:29:52.999Z</time></trkpt><trkpt lat="42.62042367998067" lon="11.49227428714248"><ele>275.0</ele><time>2026-04-03T16:29:53.999Z</time></trkpt><trkpt lat="42.620480394162186" lon="11.492364390890922"><ele>275.0</ele><time>2026-04-03T16:29:54.999Z</time></trkpt><trkpt lat="42.620540608960496" lon="11.492455791716296"><ele>274.4</ele><time>2026-04-03T16:29:55.999Z</time></trkpt><trkpt lat="42.62061026147909" lon="11.4925326525346"><ele>273.8</ele><time>2026-04-03T16:29:56.999Z</time></trkpt><trkpt lat="42.62068045550193" lon="11.492609871879818"><ele>273.2</ele><time>2026-04-03T16:29:57.999Z</time></trkpt><trkpt lat="42.62076153386119" lon="11.49267471526985"><ele>272.6</ele><time>2026-04-03T16:29:58.999Z</time></trkpt><trkpt lat="42.62085641016307" lon="11.492729218299804"><ele>272.0</ele><time>2026-04-03T16:29:59.999Z</time></trkpt><trkpt lat="42.62095514100457" lon="11.49277067372856"><ele>272.0</ele><time>2026-04-03T16:30:00.999Z</time></trkpt><trkpt lat="42.621063035768024" lon="11.492803646801605"><ele>272.0</ele><time>2026-04-03T16:30:01.999Z</time></trkpt><trkpt lat="42.62118022525723" lon="11.492824267577419"><ele>272.0</ele><time>2026-04-03T16:30:02.999Z</time></trkpt><trkpt lat="42.62130881441528" lon="11.492838505694046"><ele>272.0</ele><time>2026-04-03T16:30:03.999Z</time></trkpt><trkpt lat="42.621470546052954" lon="11.492847358939725"><ele>272.33333333333337</ele><time>2026-04-03T16:30:04.999Z</time></trkpt><trkpt lat="42.62165261159503" lon="11.492864948507515"><ele>272.6666666666667</ele><time>2026-04-03T16:30:05.999Z</time></trkpt><trkpt lat="42.6218488689072" lon="11.492895948558672"><ele>273.0</ele><time>2026-04-03T16:30:06.999Z</time></trkpt><trkpt lat="42.62202418700219" lon="11.492925878124566"><ele>264.6666666666667</ele><time>2026-04-03T16:30:07.999Z</time></trkpt><trkpt lat="42.62218272695194" lon="11.492948842225731"><ele>256.33333333333337</ele><time>2026-04-03T16:30:08.999Z</time></trkpt><trkpt lat="42.622330388531935" lon="11.492973626548903"><ele>248.0</ele><time>2026-04-03T16:30:09.999Z</time></trkpt><trkpt lat="42.62247620201338" lon="11.492958627346551"><ele>247.66666666666669</ele><time>2026-04-03T16:30:10.999Z</time></trkpt><trkpt lat="42.622625891155785" lon="11.492909119138046"><ele>247.33333333333331</ele><time>2026-04-03T16:30:11.999Z</time></trkpt><trkpt lat="42.62278629156799" lon="11.492826135741241"><ele>247.0</ele><time>2026-04-03T16:30:12.999Z</time></trkpt><trkpt lat="42.62295393699465" lon="11.49273949802107"><ele>247.0</ele><time>2026-04-03T16:30:13.999Z</time></trkpt><trkpt lat="42.623125663551" lon="11.492640382811766"><ele>247.0</ele><time>2026-04-03T16:30:14.999Z</time></trkpt><trkpt lat="42.62329302416473" lon="11.492535289323973"><ele>247.0</ele><time>2026-04-03T16:30:15.999Z</time></trkpt><trkpt lat="42.62345475970078" lon="11.492419597559461"><ele>247.0</ele><time>2026-04-03T16:30:16.999Z</time></trkpt><trkpt lat="42.62360460280061" lon="11.492312729898337"><ele>247.0</ele><time>2026-04-03T16:30:17.999Z</time></trkpt><trkpt lat="42.623752622527505" lon="11.492214620291046"><ele>247.0</ele><time>2026-04-03T16:30:18.999Z</time></trkpt><trkpt lat="42.62389706219419" lon="11.492119488123752"><ele>245.33333333333331</ele><time>2026-04-03T16:30:19.999Z</time></trkpt><trkpt lat="42.62404080814578" lon="11.492028357871183"><ele>243.66666666666669</ele><time>2026-04-03T16:30:20.999Z</time></trkpt><trkpt lat="42.62418786463395" lon="11.491929305714418"><ele>242.0</ele><time>2026-04-03T16:30:21.999Z</time></trkpt><trkpt lat="42.62433163661157" lon="11.491819962667828"><ele>242.0</ele><time>2026-04-03T16:30:22.999Z</time></trkpt><trkpt lat="42.62446992183365" lon="11.491709392950764"><ele>242.0</ele><time>2026-04-03T16:30:23.999Z</time></trkpt><trkpt lat="42.62460475616537" lon="11.49160095087229"><ele>242.0</ele><time>2026-04-03T16:30:24.999Z</time></trkpt><trkpt lat="42.6247253903" lon="11.491469388467829"><ele>241.75</ele><time>2026-04-03T16:30:25.999Z</time></trkpt><trkpt lat="42.624823380120425" lon="11.491333397932511"><ele>241.5</ele><time>2026-04-03T16:30:26.999Z</time></trkpt><trkpt lat="42.62493752217924" lon="11.491229219760882"><ele>241.25</ele><time>2026-04-03T16:30:27.999Z</time></trkpt><trkpt lat="42.62505950428271" lon="11.491162055234204"><ele>241.0</ele><time>2026-04-03T16:30:28.999Z</time></trkpt><trkpt lat="42.625193475455596" lon="11.491138621038015"><ele>237.33333333333331</ele><time>2026-04-03T16:30:29.999Z</time></trkpt><trkpt lat="42.62534379842332" lon="11.491119851563775"><ele>233.66666666666669</ele><time>2026-04-03T16:30:30.999Z</time></trkpt><trkpt lat="42.62550097957199" lon="11.491081345793566"><ele>230.0</ele><time>2026-04-03T16:30:31.999Z</time></trkpt><trkpt lat="42.62568017057161" lon="11.491040220727168"><ele>230.0</ele><time>2026-04-03T16:30:32.999Z</time></trkpt><trkpt lat="42.62587873764101" lon="11.490991592040963"><ele>230.0</ele><time>2026-04-03T16:30:33.999Z</time></trkpt><trkpt lat="42.6260622492476" lon="11.490954603567422"><ele>230.0</ele><time>2026-04-03T16:30:34.999Z</time></trkpt><trkpt lat="42.626234170369855" lon="11.490923461624094"><ele>230.33333333333334</ele><time>2026-04-03T16:30:35.999Z</time></trkpt><trkpt lat="42.626395263930725" lon="11.490931308291815"><ele>230.66666666666669</ele><time>2026-04-03T16:30:36.999Z</time></trkpt><trkpt lat="42.62654093179088" lon="11.490876413177203"><ele>231.0</ele><time>2026-04-03T16:30:37.999Z</time></trkpt><trkpt lat="42.62667875757987" lon="11.490801245298899"><ele>231.0</ele><time>2026-04-03T16:30:38.999Z</time></trkpt><trkpt lat="42.626817658941235" lon="11.490710218806806"><ele>231.0</ele><time>2026-04-03T16:30:39.999Z</time></trkpt><trkpt lat="42.626962206815435" lon="11.490617006965161"><ele>231.0</ele><time>2026-04-03T16:30:40.999Z</time></trkpt><trkpt lat="42.62711509628889" lon="11.490518416047218"><ele>228.33333333333331</ele><time>2026-04-03T16:30:41.999Z</time></trkpt><trkpt lat="42.62728127992784" lon="11.490412893254295"><ele>225.66666666666666</ele><time>2026-04-03T16:30:42.999Z</time></trkpt><trkpt lat="42.62743870202517" lon="11.49031300369685"><ele>223.0</ele><time>2026-04-03T16:30:43.999Z</time></trkpt><trkpt lat="42.6275899040293" lon="11.490217061009764"><ele>223.0</ele><time>2026-04-03T16:30:44.999Z</time></trkpt><trkpt lat="42.62773500940977" lon="11.49012498683331"><ele>223.0</ele><time>2026-04-03T16:30:45.999Z</time></trkpt><trkpt lat="42.627871900940924" lon="11.490036211477909"><ele>223.0</ele><time>2026-04-03T16:30:46.999Z</time></trkpt><trkpt lat="42.62800554898722" lon="11.489949064028208"><ele>220.33333333333331</ele><time>2026-04-03T16:30:47.999Z</time></trkpt><trkpt lat="42.62815194926001" lon="11.489855252995422"><ele>217.66666666666669</ele><time>2026-04-03T16:30:48.999Z</time></trkpt><trkpt lat="42.62830541278842" lon="11.48974332365235"><ele>215.0</ele><time>2026-04-03T16:30:49.999Z</time></trkpt><trkpt lat="42.62844698565247" lon="11.48958583844507"><ele>215.33333333333334</ele><time>2026-04-03T16:30:50.999Z</time></trkpt><trkpt lat="42.62859573927059" lon="11.489421371183731"><ele>215.66666666666669</ele><time>2026-04-03T16:30:51.999Z</time></trkpt><trkpt lat="42.628742574037105" lon="11.489234829485437"><ele>216.0</ele><time>2026-04-03T16:30:52.999Z</time></trkpt><trkpt lat="42.628894814814366" lon="11.489035266000739"><ele>216.0</ele><time>2026-04-03T16:30:53.999Z</time></trkpt><trkpt lat="42.629051256366154" lon="11.488837366138673"><ele>216.0</ele><time>2026-04-03T16:30:54.999Z</time></trkpt><trkpt lat="42.62920253439479" lon="11.488648439360533"><ele>216.0</ele><time>2026-04-03T16:30:55.999Z</time></trkpt><trkpt lat="42.62934681924468" lon="11.488457177267088"><ele>215.0</ele><time>2026-04-03T16:30:56.999Z</time></trkpt><trkpt lat="42.62949199111919" lon="11.488272021280252"><ele>214.0</ele><time>2026-04-03T16:30:58Z</time></trkpt><trkpt lat="42.629630567667775" lon="11.488091032619698"><ele>213.0</ele><time>2026-04-03T16:30:59Z</time></trkpt><trkpt lat="42.62977086110725" lon="11.487910272264346"><ele>210.0</ele><time>2026-04-03T16:31:00Z</time></trkpt><trkpt lat="42.62991585760062" lon="11.487724289552538"><ele>207.0</ele><time>2026-04-03T16:31:01Z</time></trkpt><trkpt lat="42.630061409054555" lon="11.48753483765587"><ele>204.0</ele><time>2026-04-03T16:31:02Z</time></trkpt><trkpt lat="42.6301968891449" lon="11.487344569631583"><ele>202.33333333333331</ele><time>2026-04-03T16:31:03Z</time></trkpt><trkpt lat="42.63033231896918" lon="11.487163323777335"><ele>200.66666666666666</ele><time>2026-04-03T16:31:04Z</time></trkpt><trkpt lat="42.630465936100705" lon="11.486988854477277"><ele>199.0</ele><time>2026-04-03T16:31:05Z</time></trkpt><trkpt lat="42.63060511646759" lon="11.48680659055748"><ele>196.66666666666666</ele><time>2026-04-03T16:31:06Z</time></trkpt><trkpt lat="42.630744723980776" lon="11.486618222260557"><ele>194.33333333333331</ele><time>2026-04-03T16:31:07Z</time></trkpt><trkpt lat="42.63088686603272" lon="11.486434098877076"><ele>192.0</ele><time>2026-04-03T16:31:08Z</time></trkpt><trkpt lat="42.63102774690887" lon="11.48624717857758"><ele>189.33333333333334</ele><time>2026-04-03T16:31:09Z</time></trkpt><trkpt lat="42.63116768775188" lon="11.48605828400773"><ele>186.66666666666669</ele><time>2026-04-03T16:31:10Z</time></trkpt><trkpt lat="42.63130831497634" lon="11.48587343005152"><ele>184.0</ele><time>2026-04-03T16:31:11Z</time></trkpt><trkpt lat="42.631447615532856" lon="11.485696951177816"><ele>184.0</ele><time>2026-04-03T16:31:12Z</time></trkpt><trkpt lat="42.631583789528186" lon="11.485520638603688"><ele>184.0</ele><time>2026-04-03T16:31:13Z</time></trkpt><trkpt lat="42.63171672678678" lon="11.48534221264704"><ele>184.0</ele><time>2026-04-03T16:31:14Z</time></trkpt><trkpt lat="42.631855023256364" lon="11.485162949982296"><ele>182.33333333333334</ele><time>2026-04-03T16:31:15Z</time></trkpt><trkpt lat="42.631996145805154" lon="11.484981212476887"><ele>180.66666666666666</ele><time>2026-04-03T16:31:16Z</time></trkpt><trkpt lat="42.632139115277255" lon="11.484796420240535"><ele>179.0</ele><time>2026-04-03T16:31:17Z</time></trkpt><trkpt lat="42.63227851393997" lon="11.484601421498772"><ele>178.0</ele><time>2026-04-03T16:31:18Z</time></trkpt><trkpt lat="42.63241550423128" lon="11.484401973095514"><ele>177.0</ele><time>2026-04-03T16:31:19Z</time></trkpt><trkpt lat="42.63254637773127" lon="11.484195733222716"><ele>176.0</ele><time>2026-04-03T16:31:20Z</time></trkpt><trkpt lat="42.63266407352842" lon="11.483985848664412"><ele>176.0</ele><time>2026-04-03T16:31:21Z</time></trkpt><trkpt lat="42.632767368741064" lon="11.483774656809423"><ele>176.0</ele><time>2026-04-03T16:31:22Z</time></trkpt><trkpt lat="42.6328804989782" lon="11.483560532709115"><ele>176.0</ele><time>2026-04-03T16:31:23Z</time></trkpt><trkpt lat="42.632986693244305" lon="11.483343886166884"><ele>175.0</ele><time>2026-04-03T16:31:24Z</time></trkpt><trkpt lat="42.633084325809016" lon="11.483136128036481"><ele>174.0</ele><time>2026-04-03T16:31:25Z</time></trkpt><trkpt lat="42.6331834461846" lon="11.482938062426253"><ele>173.0</ele><time>2026-04-03T16:31:26Z</time></trkpt><trkpt lat="42.633289062572004" lon="11.482732497115736"><ele>172.66666666666666</ele><time>2026-04-03T16:31:27Z</time></trkpt><trkpt lat="42.63340237817226" lon="11.482512688761918"><ele>172.33333333333334</ele><time>2026-04-03T16:31:28Z</time></trkpt><trkpt lat="42.633521549865115" lon="11.482293643697684"><ele>172.0</ele><time>2026-04-03T16:31:29Z</time></trkpt><trkpt lat="42.633642930266504" lon="11.482081358429634"><ele>171.33333333333334</ele><time>2026-04-03T16:31:30Z</time></trkpt><trkpt lat="42.63377371048104" lon="11.481878764854232"><ele>170.66666666666666</ele><time>2026-04-03T16:31:31Z</time></trkpt><trkpt lat="42.633913478123716" lon="11.48168685020158"><ele>170.0</ele><time>2026-04-03T16:31:32Z</time></trkpt><trkpt lat="42.63405192975402" lon="11.481498193317591"><ele>170.0</ele><time>2026-04-03T16:31:33Z</time></trkpt><trkpt lat="42.6341842145622" lon="11.481307171658335"><ele>170.0</ele><time>2026-04-03T16:31:34Z</time></trkpt><trkpt lat="42.63430869375377" lon="11.481117460429164"><ele>170.0</ele><time>2026-04-03T16:31:35Z</time></trkpt><trkpt lat="42.634431153381165" lon="11.480937497816115"><ele>168.66666666666666</ele><time>2026-04-03T16:31:36Z</time></trkpt><trkpt lat="42.63455388241101" lon="11.48076538195965"><ele>167.33333333333334</ele><time>2026-04-03T16:31:37Z</time></trkpt><trkpt lat="42.63467540253885" lon="11.48058584771245"><ele>166.0</ele><time>2026-04-03T16:31:38Z</time></trkpt><trkpt lat="42.634799386149325" lon="11.480389561928545"><ele>162.66666666666669</ele><time>2026-04-03T16:31:39Z</time></trkpt><trkpt lat="42.63492998098052" lon="11.480189125097521"><ele>159.33333333333334</ele><time>2026-04-03T16:31:40Z</time></trkpt><trkpt lat="42.63506241169911" lon="11.479981805460941"><ele>156.0</ele><time>2026-04-03T16:31:41Z</time></trkpt><trkpt lat="42.635188697740965" lon="11.479771868033811"><ele>153.33333333333334</ele><time>2026-04-03T16:31:42Z</time></trkpt><trkpt lat="42.63531631265691" lon="11.479563503836065"><ele>150.66666666666669</ele><time>2026-04-03T16:31:43Z</time></trkpt><trkpt lat="42.63544274867028" lon="11.479358381673407"><ele>148.0</ele><time>2026-04-03T16:31:44Z</time></trkpt><trkpt lat="42.63556494343897" lon="11.479156195120318"><ele>148.0</ele><time>2026-04-03T16:31:45Z</time></trkpt><trkpt lat="42.63568579280359" lon="11.478958836686116"><ele>148.0</ele><time>2026-04-03T16:31:46Z</time></trkpt><trkpt lat="42.63580359570598" lon="11.478763400503446"><ele>148.0</ele><time>2026-04-03T16:31:47Z</time></trkpt><trkpt lat="42.63591974044262" lon="11.47856678460909"><ele>146.33333333333334</ele><time>2026-04-03T16:31:48Z</time></trkpt><trkpt lat="42.63603298927782" lon="11.478376610964215"><ele>144.66666666666666</ele><time>2026-04-03T16:31:49Z</time></trkpt><trkpt lat="42.63614535800791" lon="11.478194250183822"><ele>143.0</ele><time>2026-04-03T16:31:50Z</time></trkpt><trkpt lat="42.636262885474494" lon="11.478003258431176"><ele>141.33333333333331</ele><time>2026-04-03T16:31:51Z</time></trkpt><trkpt lat="42.6363842880633" lon="11.477804152347554"><ele>139.66666666666666</ele><time>2026-04-03T16:31:52Z</time></trkpt><trkpt lat="42.636511098576996" lon="11.477596825865632"><ele>138.0</ele><time>2026-04-03T16:31:53Z</time></trkpt><trkpt lat="42.63664212380304" lon="11.477378486019449"><ele>138.0</ele><time>2026-04-03T16:31:54Z</time></trkpt><trkpt lat="42.63678426638213" lon="11.477136464803753"><ele>138.0</ele><time>2026-04-03T16:31:55Z</time></trkpt><trkpt lat="42.636933003182556" lon="11.47688204079"><ele>136.0</ele><time>2026-04-03T16:31:56Z</time></trkpt><trkpt lat="42.63708850698978" lon="11.476611104857286"><ele>134.0</ele><time>2026-04-03T16:31:57Z</time></trkpt><trkpt lat="42.63725379032843" lon="11.476339772562529"><ele>131.5</ele><time>2026-04-03T16:31:57.999Z</time></trkpt><trkpt lat="42.63741732496382" lon="11.476087362188768"><ele>129.0</ele><time>2026-04-03T16:31:58.999Z</time></trkpt><trkpt lat="42.637566094612275" lon="11.475832615108807"><ele>129.0</ele><time>2026-04-03T16:31:59.999Z</time></trkpt><trkpt lat="42.63771013965941" lon="11.47558798852344"><ele>129.0</ele><time>2026-04-03T16:32:00.999Z</time></trkpt><trkpt lat="42.63785197723262" lon="11.475358641968707"><ele>129.0</ele><time>2026-04-03T16:32:01.999Z</time></trkpt><trkpt lat="42.63798743722884" lon="11.475138679164418"><ele>129.0</ele><time>2026-04-03T16:32:02.999Z</time></trkpt><trkpt lat="42.6381192574566" lon="11.474912507965666"><ele>129.0</ele><time>2026-04-03T16:32:03.999Z</time></trkpt><trkpt lat="42.63825869232663" lon="11.47469245597171"><ele>127.66666666666666</ele><time>2026-04-03T16:32:04.999Z</time></trkpt><trkpt lat="42.638391347246404" lon="11.474487733304795"><ele>126.33333333333333</ele><time>2026-04-03T16:32:05.999Z</time></trkpt><trkpt lat="42.6385149581983" lon="11.474288585696101"><ele>125.0</ele><time>2026-04-03T16:32:06.999Z</time></trkpt><trkpt lat="42.638634053171025" lon="11.474072834977019"><ele>126.0</ele><time>2026-04-03T16:32:07.999Z</time></trkpt><trkpt lat="42.638739046557816" lon="11.473824377333166"><ele>127.0</ele><time>2026-04-03T16:32:08.999Z</time></trkpt><trkpt lat="42.63882234834429" lon="11.473547235314399"><ele>128.0</ele><time>2026-04-03T16:32:09.999Z</time></trkpt><trkpt lat="42.63889059665147" lon="11.473269520799333"><ele>128.0</ele><time>2026-04-03T16:32:10.999Z</time></trkpt><trkpt lat="42.63894982942587" lon="11.472997769062083"><ele>128.0</ele><time>2026-04-03T16:32:11.999Z</time></trkpt><trkpt lat="42.63899008311731" lon="11.472731078965023"><ele>128.0</ele><time>2026-04-03T16:32:12.999Z</time></trkpt><trkpt lat="42.63902074227851" lon="11.472449984603315"><ele>128.0</ele><time>2026-04-03T16:32:13.999Z</time></trkpt><trkpt lat="42.63904517759065" lon="11.472156997466096"><ele>128.0</ele><time>2026-04-03T16:32:14.999Z</time></trkpt><trkpt lat="42.639044231821835" lon="11.471867543950209"><ele>128.0</ele><time>2026-04-03T16:32:15.999Z</time></trkpt><trkpt lat="42.63904069023722" lon="11.471579214317575"><ele>128.0</ele><time>2026-04-03T16:32:16.999Z</time></trkpt><trkpt lat="42.63906188788313" lon="11.47128685340138"><ele>128.0</ele><time>2026-04-03T16:32:17.999Z</time></trkpt><trkpt lat="42.63908775266868" lon="11.47099869052817"><ele>128.0</ele><time>2026-04-03T16:32:18.999Z</time></trkpt><trkpt lat="42.63910901835741" lon="11.470715953375649"><ele>125.66666666666666</ele><time>2026-04-03T16:32:19.999Z</time></trkpt><trkpt lat="42.63913235777275" lon="11.470431554565266"><ele>123.33333333333334</ele><time>2026-04-03T16:32:20.999Z</time></trkpt><trkpt lat="42.63915810210183" lon="11.470144525365933"><ele>121.0</ele><time>2026-04-03T16:32:21.999Z</time></trkpt><trkpt lat="42.63918182677036" lon="11.469857756615676"><ele>121.0</ele><time>2026-04-03T16:32:22.999Z</time></trkpt><trkpt lat="42.63921052982087" lon="11.469567644805133"><ele>121.0</ele><time>2026-04-03T16:32:23.999Z</time></trkpt><trkpt lat="42.63923636631468" lon="11.469277620164977"><ele>121.0</ele><time>2026-04-03T16:32:24.999Z</time></trkpt><trkpt lat="42.63925798957643" lon="11.468990335028668"><ele>120.33333333333334</ele><time>2026-04-03T16:32:25.999Z</time></trkpt><trkpt lat="42.63927718166756" lon="11.468710261589697"><ele>119.66666666666666</ele><time>2026-04-03T16:32:26.999Z</time></trkpt><trkpt lat="42.63929523094568" lon="11.468438840901813"><ele>119.0</ele><time>2026-04-03T16:32:27.999Z</time></trkpt><trkpt lat="42.63931290446172" lon="11.468183591962239"><ele>118.33333333333333</ele><time>2026-04-03T16:32:28.999Z</time></trkpt><trkpt lat="42.63933250438282" lon="11.467933821120983"><ele>117.66666666666666</ele><time>2026-04-03T16:32:29.999Z</time></trkpt><trkpt lat="42.63935229836991" lon="11.467678998309133"><ele>117.0</ele><time>2026-04-03T16:32:30.999Z</time></trkpt><trkpt lat="42.639373536647774" lon="11.467419004755389"><ele>117.0</ele><time>2026-04-03T16:32:31.999Z</time></trkpt><trkpt lat="42.63940598040887" lon="11.46716029638139"><ele>117.0</ele><time>2026-04-03T16:32:32.999Z</time></trkpt><trkpt lat="42.639452895403345" lon="11.466903066996034"><ele>117.0</ele><time>2026-04-03T16:32:33.999Z</time></trkpt><trkpt lat="42.63951847859863" lon="11.466647970794284"><ele>116.33333333333334</ele><time>2026-04-03T16:32:34.999Z</time></trkpt><trkpt lat="42.63958642375239" lon="11.466403037048762"><ele>115.66666666666667</ele><time>2026-04-03T16:32:35.999Z</time></trkpt><trkpt lat="42.63965401346175" lon="11.466162353534344"><ele>115.0</ele><time>2026-04-03T16:32:36.999Z</time></trkpt><trkpt lat="42.639728661506894" lon="11.465935918616507"><ele>115.0</ele><time>2026-04-03T16:32:37.999Z</time></trkpt><trkpt lat="42.63981477752535" lon="11.465726771930767"><ele>115.0</ele><time>2026-04-03T16:32:38.999Z</time></trkpt><trkpt lat="42.639914555660106" lon="11.465525708259129"><ele>115.0</ele><time>2026-04-03T16:32:39.999Z</time></trkpt><trkpt lat="42.64003197579703" lon="11.465299687357883"><ele>113.0</ele><time>2026-04-03T16:32:40.999Z</time></trkpt><trkpt lat="42.64015521520101" lon="11.465062264719771"><ele>111.0</ele><time>2026-04-03T16:32:41.999Z</time></trkpt><trkpt lat="42.640279221787424" lon="11.464824974155412"><ele>109.0</ele><time>2026-04-03T16:32:42.999Z</time></trkpt><trkpt lat="42.640392014564775" lon="11.464572820908765"><ele>108.66666666666667</ele><time>2026-04-03T16:32:43.999Z</time></trkpt><trkpt lat="42.640483759043654" lon="11.4642852694832"><ele>108.33333333333334</ele><time>2026-04-03T16:32:44.999Z</time></trkpt><trkpt lat="42.64056047400382" lon="11.464007685621732"><ele>108.0</ele><time>2026-04-03T16:32:45.999Z</time></trkpt><trkpt lat="42.64063860751802" lon="11.463744812993502"><ele>109.0</ele><time>2026-04-03T16:32:46.999Z</time></trkpt><trkpt lat="42.64071084489199" lon="11.463498388591763"><ele>110.0</ele><time>2026-04-03T16:32:47.999Z</time></trkpt><trkpt lat="42.64078045729853" lon="11.463256161724985"><ele>111.0</ele><time>2026-04-03T16:32:48.999Z</time></trkpt><trkpt lat="42.64084405170557" lon="11.463030145922255"><ele>111.0</ele><time>2026-04-03T16:32:49.999Z</time></trkpt><trkpt lat="42.640902508618694" lon="11.462811033203367"><ele>111.0</ele><time>2026-04-03T16:32:50.999Z</time></trkpt><trkpt lat="42.640934105237136" lon="11.46260160897948"><ele>111.0</ele><time>2026-04-03T16:32:51.999Z</time></trkpt><trkpt lat="42.64093876449445" lon="11.46239408458526"><ele>111.0</ele><time>2026-04-03T16:32:52.999Z</time></trkpt><trkpt lat="42.64091476518246" lon="11.462180260594495"><ele>111.0</ele><time>2026-04-03T16:32:53.999Z</time></trkpt><trkpt lat="42.64087187584351" lon="11.461952147380364"><ele>111.0</ele><time>2026-04-03T16:32:54.999Z</time></trkpt><trkpt lat="42.640821266717076" lon="11.46171111603369"><ele>110.0</ele><time>2026-04-03T16:32:55.999Z</time></trkpt><trkpt lat="42.64076325845817" lon="11.461465528321698"><ele>109.0</ele><time>2026-04-03T16:32:56.999Z</time></trkpt><trkpt lat="42.640702047474335" lon="11.461203075651104"><ele>108.0</ele><time>2026-04-03T16:32:57.999Z</time></trkpt><trkpt lat="42.64064040702538" lon="11.460949390672493"><ele>107.0</ele><time>2026-04-03T16:32:58.999Z</time></trkpt><trkpt lat="42.640578345767665" lon="11.460709246847093"><ele>106.0</ele><time>2026-04-03T16:32:59.999Z</time></trkpt><trkpt lat="42.640513034896564" lon="11.4604879263544"><ele>105.0</ele><time>2026-04-03T16:33:00.999Z</time></trkpt><trkpt lat="42.64042580977901" lon="11.460279693626534"><ele>105.66666666666666</ele><time>2026-04-03T16:33:01.999Z</time></trkpt><trkpt lat="42.64030103333738" lon="11.460077074187849"><ele>106.33333333333333</ele><time>2026-04-03T16:33:02.999Z</time></trkpt><trkpt lat="42.64016220247154" lon="11.45987680844453"><ele>107.0</ele><time>2026-04-03T16:33:04Z</time></trkpt><trkpt lat="42.64003127128151" lon="11.459662536331312"><ele>104.66666666666666</ele><time>2026-04-03T16:33:05Z</time></trkpt><trkpt lat="42.639900596959684" lon="11.459456110118921"><ele>102.33333333333334</ele><time>2026-04-03T16:33:06Z</time></trkpt><trkpt lat="42.639773396190485" lon="11.459265263960132"><ele>100.0</ele><time>2026-04-03T16:33:07Z</time></trkpt><trkpt lat="42.63965287896909" lon="11.459086173642099"><ele>100.0</ele><time>2026-04-03T16:33:08Z</time></trkpt><trkpt lat="42.63953279488053" lon="11.45889931508893"><ele>100.0</ele><time>2026-04-03T16:33:09Z</time></trkpt><trkpt lat="42.639410385567636" lon="11.458701667495335"><ele>100.0</ele><time>2026-04-03T16:33:10Z</time></trkpt><trkpt lat="42.63928267195148" lon="11.458508670390087"><ele>102.0</ele><time>2026-04-03T16:33:11Z</time></trkpt><trkpt lat="42.639150167109044" lon="11.458319088294878"><ele>104.0</ele><time>2026-04-03T16:33:12Z</time></trkpt><trkpt lat="42.63899857552697" lon="11.458128876190754"><ele>106.0</ele><time>2026-04-03T16:33:13Z</time></trkpt><trkpt lat="42.638827720915444" lon="11.457984153744356"><ele>105.66666666666667</ele><time>2026-04-03T16:33:14Z</time></trkpt><trkpt lat="42.63866829672595" lon="11.457856951351138"><ele>105.33333333333334</ele><time>2026-04-03T16:33:15Z</time></trkpt><trkpt lat="42.63851831594034" lon="11.457760380830624"><ele>105.0</ele><time>2026-04-03T16:33:16Z</time></trkpt><trkpt lat="42.638386142915834" lon="11.45765350165799"><ele>105.0</ele><time>2026-04-03T16:33:17Z</time></trkpt><trkpt lat="42.63826675043879" lon="11.457559440277386"><ele>105.0</ele><time>2026-04-03T16:33:18Z</time></trkpt><trkpt lat="42.638159714749484" lon="11.457476208553164"><ele>105.0</ele><time>2026-04-03T16:33:19Z</time></trkpt><trkpt lat="42.638055550687284" lon="11.457398630800506"><ele>105.0</ele><time>2026-04-03T16:33:20Z</time></trkpt><trkpt lat="42.63797236628267" lon="11.457326277923023"><ele>105.0</ele><time>2026-04-03T16:33:21Z</time></trkpt><trkpt lat="42.63791613935061" lon="11.457234080145353"><ele>105.0</ele><time>2026-04-03T16:33:22Z</time></trkpt><trkpt lat="42.6379001019199" lon="11.457130340648577"><ele>105.0</ele><time>2026-04-03T16:33:23Z</time></trkpt><trkpt lat="42.63790791676814" lon="11.457015301001753"><ele>105.0</ele><time>2026-04-03T16:33:24Z</time></trkpt><trkpt lat="42.63794143453796" lon="11.456876544678915"><ele>105.0</ele><time>2026-04-03T16:33:25Z</time></trkpt><trkpt lat="42.63799415569056" lon="11.456728200063557"><ele>104.4</ele><time>2026-04-03T16:33:26Z</time></trkpt><trkpt lat="42.63802154892755" lon="11.45659190713764"><ele>103.8</ele><time>2026-04-03T16:33:27Z</time></trkpt><trkpt lat="42.63804710748783" lon="11.45645894979136"><ele>103.19999999999999</ele><time>2026-04-03T16:33:28Z</time></trkpt><trkpt lat="42.638074998301406" lon="11.45633759012423"><ele>102.6</ele><time>2026-04-03T16:33:29Z</time></trkpt><trkpt lat="42.63810382233684" lon="11.456208799777665"><ele>102.0</ele><time>2026-04-03T16:33:30Z</time></trkpt><trkpt lat="42.63813902431597" lon="11.456047089705178"><ele>102.0</ele><time>2026-04-03T16:33:31Z</time></trkpt><trkpt lat="42.638180669584685" lon="11.455860744774839"><ele>102.0</ele><time>2026-04-03T16:33:32Z</time></trkpt><trkpt lat="42.638228019385075" lon="11.45565996169317"><ele>102.0</ele><time>2026-04-03T16:33:33Z</time></trkpt><trkpt lat="42.63827690384505" lon="11.455429744704148"><ele>103.0</ele><time>2026-04-03T16:33:34Z</time></trkpt><trkpt lat="42.63832994140428" lon="11.455191337277585"><ele>104.0</ele><time>2026-04-03T16:33:35Z</time></trkpt><trkpt lat="42.63838587649658" lon="11.454929184310098"><ele>105.0</ele><time>2026-04-03T16:33:36Z</time></trkpt><trkpt lat="42.638464713008275" lon="11.454667623793764"><ele>105.33333333333334</ele><time>2026-04-03T16:33:37Z</time></trkpt><trkpt lat="42.638527386634635" lon="11.454406357206047"><ele>105.66666666666667</ele><time>2026-04-03T16:33:38Z</time></trkpt><trkpt lat="42.63852807582933" lon="11.454151227370511"><ele>106.0</ele><time>2026-04-03T16:33:39Z</time></trkpt><trkpt lat="42.63857660435378" lon="11.453904183964132"><ele>107.33333333333334</ele><time>2026-04-03T16:33:40Z</time></trkpt><trkpt lat="42.638645068102825" lon="11.453680801401099"><ele>108.66666666666666</ele><time>2026-04-03T16:33:41Z</time></trkpt><trkpt lat="42.638722093905365" lon="11.453468291666253"><ele>110.0</ele><time>2026-04-03T16:33:42Z</time></trkpt><trkpt lat="42.63879831527003" lon="11.45325482048279"><ele>110.0</ele><time>2026-04-03T16:33:43Z</time></trkpt><trkpt lat="42.6388607357509" lon="11.453026508096327"><ele>110.0</ele><time>2026-04-03T16:33:44Z</time></trkpt><trkpt lat="42.63891293148439" lon="11.452813109665517"><ele>110.0</ele><time>2026-04-03T16:33:45Z</time></trkpt><trkpt lat="42.63896616389183" lon="11.45259302099763"><ele>111.0</ele><time>2026-04-03T16:33:46Z</time></trkpt><trkpt lat="42.639028010984156" lon="11.452359164597205"><ele>112.0</ele><time>2026-04-03T16:33:47Z</time></trkpt><trkpt lat="42.63909366901588" lon="11.45211336167955"><ele>113.0</ele><time>2026-04-03T16:33:48Z</time></trkpt><trkpt lat="42.639156062397404" lon="11.45186319129978"><ele>114.33333333333333</ele><time>2026-04-03T16:33:49Z</time></trkpt><trkpt lat="42.63920824316604" lon="11.451615593630985"><ele>115.66666666666666</ele><time>2026-04-03T16:33:50Z</time></trkpt><trkpt lat="42.63926288680264" lon="11.45139246002132"><ele>117.0</ele><time>2026-04-03T16:33:51Z</time></trkpt><trkpt lat="42.63931242475259" lon="11.451182147481699"><ele>118.0</ele><time>2026-04-03T16:33:52Z</time></trkpt><trkpt lat="42.63937167678313" lon="11.450988053324238"><ele>119.0</ele><time>2026-04-03T16:33:53Z</time></trkpt><trkpt lat="42.639454943976084" lon="11.450806294927887"><ele>120.0</ele><time>2026-04-03T16:33:54Z</time></trkpt><trkpt lat="42.639572860913674" lon="11.45064958687594"><ele>120.0</ele><time>2026-04-03T16:33:55Z</time></trkpt><trkpt lat="42.639716183457175" lon="11.450504148073462"><ele>120.0</ele><time>2026-04-03T16:33:56Z</time></trkpt><trkpt lat="42.63987078310353" lon="11.450376364348033"><ele>120.0</ele><time>2026-04-03T16:33:57Z</time></trkpt><trkpt lat="42.64002259338804" lon="11.450253079064519"><ele>121.66666666666666</ele><time>2026-04-03T16:33:57.999Z</time></trkpt><trkpt lat="42.64017801107581" lon="11.450126184170397"><ele>123.33333333333333</ele><time>2026-04-03T16:33:58.999Z</time></trkpt><trkpt lat="42.64033951670485" lon="11.449990127880952"><ele>125.0</ele><time>2026-04-03T16:33:59.999Z</time></trkpt><trkpt lat="42.64050409818713" lon="11.449859147154553"><ele>126.0</ele><time>2026-04-03T16:34:00.999Z</time></trkpt><trkpt lat="42.64066680001438" lon="11.449726724457765"><ele>127.0</ele><time>2026-04-03T16:34:01.999Z</time></trkpt><trkpt lat="42.64082922675256" lon="11.449596320158259"><ele>128.0</ele><time>2026-04-03T16:34:02.999Z</time></trkpt><trkpt lat="42.64099463772295" lon="11.449474839348941"><ele>130.0</ele><time>2026-04-03T16:34:03.999Z</time></trkpt><trkpt lat="42.64115701203928" lon="11.449351769088569"><ele>132.0</ele><time>2026-04-03T16:34:04.999Z</time></trkpt><trkpt lat="42.64131520602916" lon="11.449229652429976"><ele>134.0</ele><time>2026-04-03T16:34:05.999Z</time></trkpt><trkpt lat="42.64146163440478" lon="11.449113940029779"><ele>134.0</ele><time>2026-04-03T16:34:06.999Z</time></trkpt><trkpt lat="42.641597330489816" lon="11.44900617532529"><ele>134.0</ele><time>2026-04-03T16:34:07.999Z</time></trkpt><trkpt lat="42.64171694195583" lon="11.44890631459399"><ele>134.0</ele><time>2026-04-03T16:34:08.999Z</time></trkpt><trkpt lat="42.64182045505816" lon="11.448805030300537"><ele>134.0</ele><time>2026-04-03T16:34:09.999Z</time></trkpt><trkpt lat="42.64190682730508" lon="11.448664513406248"><ele>136.75</ele><time>2026-04-03T16:34:10.999Z</time></trkpt><trkpt lat="42.641977424019814" lon="11.448491950715368"><ele>139.5</ele><time>2026-04-03T16:34:11.999Z</time></trkpt><trkpt lat="42.64202141595155" lon="11.448297742845437"><ele>142.25</ele><time>2026-04-03T16:34:12.999Z</time></trkpt><trkpt lat="42.64203307539412" lon="11.44809459451483"><ele>145.0</ele><time>2026-04-03T16:34:13.999Z</time></trkpt><trkpt lat="42.6420045078648" lon="11.447885925346307"><ele>145.0</ele><time>2026-04-03T16:34:14.999Z</time></trkpt><trkpt lat="42.641954644868626" lon="11.447668979064767"><ele>145.0</ele><time>2026-04-03T16:34:15.999Z</time></trkpt><trkpt lat="42.64190589236728" lon="11.44744368870448"><ele>145.0</ele><time>2026-04-03T16:34:16.999Z</time></trkpt><trkpt lat="42.641856613280794" lon="11.44721499212831"><ele>145.33333333333334</ele><time>2026-04-03T16:34:17.999Z</time></trkpt><trkpt lat="42.641806362404786" lon="11.446983128109114"><ele>145.66666666666666</ele><time>2026-04-03T16:34:18.999Z</time></trkpt><trkpt lat="42.641751691401545" lon="11.446743520217092"><ele>146.0</ele><time>2026-04-03T16:34:19.999Z</time></trkpt><trkpt lat="42.64169554888583" lon="11.446495796236466"><ele>145.66666666666666</ele><time>2026-04-03T16:34:20.999Z</time></trkpt><trkpt lat="42.64164086811372" lon="11.446242872266588"><ele>145.33333333333334</ele><time>2026-04-03T16:34:21.999Z</time></trkpt><trkpt lat="42.64158570038728" lon="11.445991643044684"><ele>145.0</ele><time>2026-04-03T16:34:22.999Z</time></trkpt><trkpt lat="42.641530654104095" lon="11.44575348864342"><ele>145.0</ele><time>2026-04-03T16:34:23.999Z</time></trkpt><trkpt lat="42.64147890871632" lon="11.445524700567452"><ele>145.0</ele><time>2026-04-03T16:34:24.999Z</time></trkpt><trkpt lat="42.64142620656473" lon="11.445288808243689"><ele>145.0</ele><time>2026-04-03T16:34:25.999Z</time></trkpt><trkpt lat="42.64137329936117" lon="11.445046069609583"><ele>143.33333333333334</ele><time>2026-04-03T16:34:26.999Z</time></trkpt><trkpt lat="42.641319922124495" lon="11.444805976220978"><ele>141.66666666666666</ele><time>2026-04-03T16:34:27.999Z</time></trkpt><trkpt lat="42.641268176831126" lon="11.444574611833216"><ele>140.0</ele><time>2026-04-03T16:34:28.999Z</time></trkpt><trkpt lat="42.64121762248152" lon="11.444355828101154"><ele>138.66666666666666</ele><time>2026-04-03T16:34:29.999Z</time></trkpt><trkpt lat="42.641168787742814" lon="11.444144458595044"><ele>137.33333333333334</ele><time>2026-04-03T16:34:30.999Z</time></trkpt><trkpt lat="42.641127425322054" lon="11.443937210679795"><ele>136.0</ele><time>2026-04-03T16:34:31.999Z</time></trkpt><trkpt lat="42.64110242191458" lon="11.443718259158752"><ele>135.0</ele><time>2026-04-03T16:34:32.999Z</time></trkpt><trkpt lat="42.64111163474099" lon="11.44348090593164"><ele>134.0</ele><time>2026-04-03T16:34:33.999Z</time></trkpt><trkpt lat="42.6411554396625" lon="11.44323221060906"><ele>133.0</ele><time>2026-04-03T16:34:34.999Z</time></trkpt><trkpt lat="42.641221831694715" lon="11.44298765069251"><ele>131.33333333333334</ele><time>2026-04-03T16:34:35.999Z</time></trkpt><trkpt lat="42.641281804899336" lon="11.442754619774107"><ele>129.66666666666666</ele><time>2026-04-03T16:34:36.999Z</time></trkpt><trkpt lat="42.64133584329396" lon="11.442530911724852"><ele>128.0</ele><time>2026-04-03T16:34:37.999Z</time></trkpt><trkpt lat="42.64139268510623" lon="11.442318271042408"><ele>129.0</ele><time>2026-04-03T16:34:38.999Z</time></trkpt><trkpt lat="42.641453779464506" lon="11.442080731064047"><ele>130.0</ele><time>2026-04-03T16:34:39.999Z</time></trkpt><trkpt lat="42.64151656589014" lon="11.441837466502298"><ele>131.0</ele><time>2026-04-03T16:34:40.999Z</time></trkpt><trkpt lat="42.641580323967354" lon="11.441590187680037"><ele>131.0</ele><time>2026-04-03T16:34:41.999Z</time></trkpt><trkpt lat="42.64164755591943" lon="11.441340812681362"><ele>131.0</ele><time>2026-04-03T16:34:42.999Z</time></trkpt><trkpt lat="42.641717490724396" lon="11.441075432844015"><ele>131.0</ele><time>2026-04-03T16:34:43.999Z</time></trkpt><trkpt lat="42.64178661005631" lon="11.440810780602668"><ele>133.66666666666666</ele><time>2026-04-03T16:34:44.999Z</time></trkpt><trkpt lat="42.641853911422636" lon="11.440552296818753"><ele>136.33333333333334</ele><time>2026-04-03T16:34:45.999Z</time></trkpt><trkpt lat="42.64191883252872" lon="11.440303115377864"><ele>139.0</ele><time>2026-04-03T16:34:46.999Z</time></trkpt><trkpt lat="42.64198330422888" lon="11.440062610207452"><ele>140.0</ele><time>2026-04-03T16:34:47.999Z</time></trkpt><trkpt lat="42.64204706170251" lon="11.439821067824157"><ele>141.0</ele><time>2026-04-03T16:34:48.999Z</time></trkpt><trkpt lat="42.64211148710228" lon="11.43957827722481"><ele>142.0</ele><time>2026-04-03T16:34:49.999Z</time></trkpt><trkpt lat="42.642176634931396" lon="11.439336884858774"><ele>142.0</ele><time>2026-04-03T16:34:50.999Z</time></trkpt><trkpt lat="42.642244089330475" lon="11.439084032475364"><ele>142.0</ele><time>2026-04-03T16:34:51.999Z</time></trkpt><trkpt lat="42.64230498185085" lon="11.438851710276356"><ele>142.0</ele><time>2026-04-03T16:34:52.999Z</time></trkpt><trkpt lat="42.64235956980694" lon="11.4386358030141"><ele>142.0</ele><time>2026-04-03T16:34:53.999Z</time></trkpt><trkpt lat="42.64240648928262" lon="11.438435651562736"><ele>142.0</ele><time>2026-04-03T16:34:54.999Z</time></trkpt><trkpt lat="42.64243368684255" lon="11.438238401902012"><ele>142.0</ele><time>2026-04-03T16:34:55.999Z</time></trkpt><trkpt lat="42.6424288392117" lon="11.438049864640961"><ele>142.0</ele><time>2026-04-03T16:34:56.999Z</time></trkpt><trkpt lat="42.64240129801345" lon="11.437850675323865"><ele>143.33333333333334</ele><time>2026-04-03T16:34:57.999Z</time></trkpt><trkpt lat="42.6423517298698" lon="11.437634025161667"><ele>144.66666666666666</ele><time>2026-04-03T16:34:58.999Z</time></trkpt><trkpt lat="42.64230193365137" lon="11.437417753672483"><ele>146.0</ele><time>2026-04-03T16:34:59.999Z</time></trkpt><trkpt lat="42.642253316885075" lon="11.437218812142946"><ele>146.25</ele><time>2026-04-03T16:35:00.999Z</time></trkpt><trkpt lat="42.64221305942553" lon="11.437033109547308"><ele>146.5</ele><time>2026-04-03T16:35:01.999Z</time></trkpt><trkpt lat="42.642183936853925" lon="11.436861501267952"><ele>146.75</ele><time>2026-04-03T16:35:02.999Z</time></trkpt><trkpt lat="42.6421767053915" lon="11.43666230348131"><ele>147.0</ele><time>2026-04-03T16:35:03.999Z</time></trkpt><trkpt lat="42.64220267830168" lon="11.436447477557646"><ele>148.33333333333334</ele><time>2026-04-03T16:35:04.999Z</time></trkpt><trkpt lat="42.642272988441036" lon="11.436243400719807"><ele>149.66666666666669</ele><time>2026-04-03T16:35:05.999Z</time></trkpt><trkpt lat="42.642330279288025" lon="11.436047076741088"><ele>151.0</ele><time>2026-04-03T16:35:06.999Z</time></trkpt><trkpt lat="42.642384386158845" lon="11.43584881347761"><ele>151.0</ele><time>2026-04-03T16:35:07.999Z</time></trkpt><trkpt lat="42.64244008019986" lon="11.435652049713505"><ele>151.0</ele><time>2026-04-03T16:35:08.999Z</time></trkpt><trkpt lat="42.642503939189126" lon="11.435453343333833"><ele>151.0</ele><time>2026-04-03T16:35:10Z</time></trkpt><trkpt lat="42.64258263409273" lon="11.435269281294358"><ele>151.0</ele><time>2026-04-03T16:35:11Z</time></trkpt><trkpt lat="42.64266791897037" lon="11.43508501782792"><ele>151.0</ele><time>2026-04-03T16:35:12Z</time></trkpt><trkpt lat="42.64275077342559" lon="11.434895611055417"><ele>151.0</ele><time>2026-04-03T16:35:13Z</time></trkpt><trkpt lat="42.64283467433464" lon="11.434703125470026"><ele>152.0</ele><time>2026-04-03T16:35:14Z</time></trkpt><trkpt lat="42.64291971933597" lon="11.43451644189625"><ele>153.0</ele><time>2026-04-03T16:35:15Z</time></trkpt><trkpt lat="42.643007154213755" lon="11.434330751376532"><ele>154.0</ele><time>2026-04-03T16:35:16Z</time></trkpt><trkpt lat="42.64309472084389" lon="11.434145189082447"><ele>154.0</ele><time>2026-04-03T16:35:17Z</time></trkpt><trkpt lat="42.64318000799974" lon="11.433961000024611"><ele>154.0</ele><time>2026-04-03T16:35:18Z</time></trkpt><trkpt lat="42.643262789683035" lon="11.433781253331663"><ele>154.0</ele><time>2026-04-03T16:35:19Z</time></trkpt><trkpt lat="42.64334322250261" lon="11.433609968209506"><ele>154.0</ele><time>2026-04-03T16:35:20Z</time></trkpt><trkpt lat="42.64341463566293" lon="11.433445101059261"><ele>154.0</ele><time>2026-04-03T16:35:21Z</time></trkpt><trkpt lat="42.64347610259938" lon="11.433288463774508"><ele>154.0</ele><time>2026-04-03T16:35:22Z</time></trkpt><trkpt lat="42.64351011579172" lon="11.433140877683822"><ele>154.0</ele><time>2026-04-03T16:35:23Z</time></trkpt><trkpt lat="42.64350238817549" lon="11.43299878068727"><ele>155.25</ele><time>2026-04-03T16:35:24Z</time></trkpt><trkpt lat="42.64346004314995" lon="11.432838086805003"><ele>156.5</ele><time>2026-04-03T16:35:25Z</time></trkpt><trkpt lat="42.64338486822998" lon="11.43266785323042"><ele>157.75</ele><time>2026-04-03T16:35:26Z</time></trkpt><trkpt lat="42.643297372699294" lon="11.43249929538858"><ele>159.0</ele><time>2026-04-03T16:35:27Z</time></trkpt><trkpt lat="42.643205983316456" lon="11.432338433344478"><ele>159.0</ele><time>2026-04-03T16:35:28Z</time></trkpt><trkpt lat="42.64312751979651" lon="11.43217612285225"><ele>159.0</ele><time>2026-04-03T16:35:29Z</time></trkpt><trkpt lat="42.64307222269652" lon="11.43201400410098"><ele>159.0</ele><time>2026-04-03T16:35:30Z</time></trkpt><trkpt lat="42.643034852128814" lon="11.431843867156704"><ele>159.0</ele><time>2026-04-03T16:35:31Z</time></trkpt><trkpt lat="42.64299705819808" lon="11.431645681187366"><ele>161.66666666666666</ele><time>2026-04-03T16:35:32Z</time></trkpt><trkpt lat="42.642968903008814" lon="11.431438432030674"><ele>164.33333333333331</ele><time>2026-04-03T16:35:33Z</time></trkpt><trkpt lat="42.64294825730468" lon="11.43121259186891"><ele>167.0</ele><time>2026-04-03T16:35:34Z</time></trkpt><trkpt lat="42.64293966381202" lon="11.43096725079221"><ele>167.33333333333331</ele><time>2026-04-03T16:35:35Z</time></trkpt><trkpt lat="42.64293985858138" lon="11.430726272828839"><ele>167.66666666666666</ele><time>2026-04-03T16:35:36Z</time></trkpt><trkpt lat="42.642952288764" lon="11.430493748495772"><ele>168.0</ele><time>2026-04-03T16:35:37Z</time></trkpt><trkpt lat="42.64297085857128" lon="11.430272318720013"><ele>168.0</ele><time>2026-04-03T16:35:38Z</time></trkpt><trkpt lat="42.642991859872645" lon="11.430058556998071"><ele>168.0</ele><time>2026-04-03T16:35:39Z</time></trkpt><trkpt lat="42.643008664105665" lon="11.429839986133823"><ele>168.0</ele><time>2026-04-03T16:35:40Z</time></trkpt><trkpt lat="42.643031495160514" lon="11.429634129756826"><ele>167.25</ele><time>2026-04-03T16:35:41Z</time></trkpt><trkpt lat="42.643054457628736" lon="11.429456601417035"><ele>166.5</ele><time>2026-04-03T16:35:42Z</time></trkpt><trkpt lat="42.64307046199338" lon="11.429290064453106"><ele>165.75</ele><time>2026-04-03T16:35:43Z</time></trkpt><trkpt lat="42.643092965460724" lon="11.42913527138845"><ele>165.0</ele><time>2026-04-03T16:35:44Z</time></trkpt><trkpt lat="42.64314895529309" lon="11.428984567920427"><ele>165.0</ele><time>2026-04-03T16:35:45Z</time></trkpt><trkpt lat="42.64323689036677" lon="11.428852546324487"><ele>165.0</ele><time>2026-04-03T16:35:46Z</time></trkpt><trkpt lat="42.64333578373008" lon="11.428750843648588"><ele>165.0</ele><time>2026-04-03T16:35:47Z</time></trkpt><trkpt lat="42.64342671830468" lon="11.428662148615114"><ele>165.0</ele><time>2026-04-03T16:35:48Z</time></trkpt><trkpt lat="42.64350362236709" lon="11.428557662441202"><ele>164.5</ele><time>2026-04-03T16:35:49Z</time></trkpt><trkpt lat="42.643556094009554" lon="11.428396639955459"><ele>164.0</ele><time>2026-04-03T16:35:50Z</time></trkpt><trkpt lat="42.6435836104468" lon="11.428190857446655"><ele>163.5</ele><time>2026-04-03T16:35:51Z</time></trkpt><trkpt lat="42.643590142589986" lon="11.427970093836464"><ele>163.0</ele><time>2026-04-03T16:35:52Z</time></trkpt><trkpt lat="42.64358953369311" lon="11.427744479088139"><ele>163.0</ele><time>2026-04-03T16:35:53Z</time></trkpt><trkpt lat="42.643592033234974" lon="11.427526312414232"><ele>163.0</ele><time>2026-04-03T16:35:54Z</time></trkpt><trkpt lat="42.64359169914573" lon="11.427327524121937"><ele>163.0</ele><time>2026-04-03T16:35:55Z</time></trkpt><trkpt lat="42.643580681759616" lon="11.427131328994122"><ele>163.0</ele><time>2026-04-03T16:35:56Z</time></trkpt><trkpt lat="42.64356378316734" lon="11.42693310064774"><ele>163.0</ele><time>2026-04-03T16:35:57Z</time></trkpt><trkpt lat="42.643538285185194" lon="11.42675631738248"><ele>163.0</ele><time>2026-04-03T16:35:58Z</time></trkpt><trkpt lat="42.64348240654421" lon="11.426615444523964"><ele>163.0</ele><time>2026-04-03T16:35:59Z</time></trkpt><trkpt lat="42.64340571250866" lon="11.42647730138604"><ele>163.0</ele><time>2026-04-03T16:36:00Z</time></trkpt><trkpt lat="42.643278543459154" lon="11.42636772096"><ele>163.0</ele><time>2026-04-03T16:36:01Z</time></trkpt><trkpt lat="42.64313067901852" lon="11.42629136588931"><ele>163.0</ele><time>2026-04-03T16:36:02Z</time></trkpt><trkpt lat="42.64300525975376" lon="11.426245237620424"><ele>163.0</ele><time>2026-04-03T16:36:03Z</time></trkpt><trkpt lat="42.64291796200499" lon="11.426210103362507"><ele>165.25</ele><time>2026-04-03T16:36:03.999Z</time></trkpt><trkpt lat="42.64280130933431" lon="11.426156130613073"><ele>167.5</ele><time>2026-04-03T16:36:04.999Z</time></trkpt><trkpt lat="42.642699250771656" lon="11.426034778074092"><ele>169.75</ele><time>2026-04-03T16:36:05.999Z</time></trkpt><trkpt lat="42.642622760731946" lon="11.425879529704597"><ele>172.0</ele><time>2026-04-03T16:36:06.999Z</time></trkpt><trkpt lat="42.64256773153092" lon="11.425729245323451"><ele>172.0</ele><time>2026-04-03T16:36:07.999Z</time></trkpt><trkpt lat="42.642532262601314" lon="11.425568298689637"><ele>172.0</ele><time>2026-04-03T16:36:08.999Z</time></trkpt><trkpt lat="42.642524720731565" lon="11.42541577519416"><ele>172.0</ele><time>2026-04-03T16:36:09.999Z</time></trkpt><trkpt lat="42.64253598418847" lon="11.425266481716884"><ele>172.0</ele><time>2026-04-03T16:36:10.999Z</time></trkpt><trkpt lat="42.642569313037754" lon="11.425112249689272"><ele>171.75</ele><time>2026-04-03T16:36:11.999Z</time></trkpt><trkpt lat="42.64264628990514" lon="11.424961788547412"><ele>171.5</ele><time>2026-04-03T16:36:12.999Z</time></trkpt><trkpt lat="42.64275120110326" lon="11.4248180572016"><ele>171.25</ele><time>2026-04-03T16:36:13.999Z</time></trkpt><trkpt lat="42.642862848209035" lon="11.424671589956949"><ele>171.0</ele><time>2026-04-03T16:36:14.999Z</time></trkpt><trkpt lat="42.64295963525447" lon="11.424518806566843"><ele>170.75</ele><time>2026-04-03T16:36:15.999Z</time></trkpt><trkpt lat="42.643056729698486" lon="11.424378201271239"><ele>170.5</ele><time>2026-04-03T16:36:16.999Z</time></trkpt><trkpt lat="42.64314954101127" lon="11.424242930394474"><ele>170.25</ele><time>2026-04-03T16:36:17.999Z</time></trkpt><trkpt lat="42.64322691422622" lon="11.424100439306152"><ele>170.0</ele><time>2026-04-03T16:36:18.999Z</time></trkpt><trkpt lat="42.643275322642886" lon="11.423936357341654"><ele>168.8</ele><time>2026-04-03T16:36:19.999Z</time></trkpt><trkpt lat="42.64330023682818" lon="11.423768261171414"><ele>167.6</ele><time>2026-04-03T16:36:20.999Z</time></trkpt><trkpt lat="42.643304165621714" lon="11.423614331583178"><ele>166.39999999999998</ele><time>2026-04-03T16:36:21.999Z</time></trkpt><trkpt lat="42.64331399745903" lon="11.423470855419199"><ele>165.2</ele><time>2026-04-03T16:36:22.999Z</time></trkpt><trkpt lat="42.643357599565725" lon="11.423342818309528"><ele>164.0</ele><time>2026-04-03T16:36:23.999Z</time></trkpt><trkpt lat="42.64344781140242" lon="11.423227824906299"><ele>164.0</ele><time>2026-04-03T16:36:24.999Z</time></trkpt><trkpt lat="42.643551120410145" lon="11.42310578143956"><ele>164.0</ele><time>2026-04-03T16:36:25.999Z</time></trkpt><trkpt lat="42.64365073690714" lon="11.42296074209331"><ele>164.0</ele><time>2026-04-03T16:36:26.999Z</time></trkpt><trkpt lat="42.6437233972158" lon="11.422812688716913"><ele>164.0</ele><time>2026-04-03T16:36:27.999Z</time></trkpt><trkpt lat="42.64378063889647" lon="11.422665151826518"><ele>163.5</ele><time>2026-04-03T16:36:28.999Z</time></trkpt><trkpt lat="42.64385444271496" lon="11.422549909030803"><ele>163.0</ele><time>2026-04-03T16:36:29.999Z</time></trkpt><trkpt lat="42.64394780486287" lon="11.42246676553674"><ele>162.5</ele><time>2026-04-03T16:36:30.999Z</time></trkpt><trkpt lat="42.64406459371016" lon="11.422395934186628"><ele>162.0</ele><time>2026-04-03T16:36:31.999Z</time></trkpt><trkpt lat="42.64419018039593" lon="11.422349214837098"><ele>162.0</ele><time>2026-04-03T16:36:32.999Z</time></trkpt><trkpt lat="42.64431867709022" lon="11.422326238169614"><ele>162.0</ele><time>2026-04-03T16:36:33.999Z</time></trkpt><trkpt lat="42.644442832001126" lon="11.422313403249778"><ele>162.0</ele><time>2026-04-03T16:36:34.999Z</time></trkpt><trkpt lat="42.64455741111313" lon="11.422308505403098"><ele>162.0</ele><time>2026-04-03T16:36:35.999Z</time></trkpt><trkpt lat="42.64467911848146" lon="11.422308774693489"><ele>162.75</ele><time>2026-04-03T16:36:36.999Z</time></trkpt><trkpt lat="42.64480652012181" lon="11.422329782899377"><ele>163.5</ele><time>2026-04-03T16:36:37.999Z</time></trkpt><trkpt lat="42.644918671707686" lon="11.422367084521325"><ele>164.25</ele><time>2026-04-03T16:36:38.999Z</time></trkpt><trkpt lat="42.6450236648507" lon="11.42239723247396"><ele>165.0</ele><time>2026-04-03T16:36:39.999Z</time></trkpt><trkpt lat="42.64513515426456" lon="11.422410338869934"><ele>165.0</ele><time>2026-04-03T16:36:40.999Z</time></trkpt><trkpt lat="42.64525840422415" lon="11.422383396528527"><ele>165.0</ele><time>2026-04-03T16:36:41.999Z</time></trkpt><trkpt lat="42.64537741655889" lon="11.422314690596489"><ele>165.0</ele><time>2026-04-03T16:36:42.999Z</time></trkpt><trkpt lat="42.64547518312977" lon="11.422205704196019"><ele>165.0</ele><time>2026-04-03T16:36:43.999Z</time></trkpt><trkpt lat="42.64554625311516" lon="11.422070158154801"><ele>165.0</ele><time>2026-04-03T16:36:44.999Z</time></trkpt><trkpt lat="42.645591398679144" lon="11.42190680830892"><ele>165.0</ele><time>2026-04-03T16:36:45.999Z</time></trkpt><trkpt lat="42.64561785766454" lon="11.42171992545279"><ele>165.0</ele><time>2026-04-03T16:36:46.999Z</time></trkpt><trkpt lat="42.645643211520984" lon="11.421535489287987"><ele>165.0</ele><time>2026-04-03T16:36:47.999Z</time></trkpt><trkpt lat="42.64566143422947" lon="11.421354292707319"><ele>163.75</ele><time>2026-04-03T16:36:48.999Z</time></trkpt><trkpt lat="42.645675157346524" lon="11.421181889253495"><ele>162.5</ele><time>2026-04-03T16:36:49.999Z</time></trkpt><trkpt lat="42.64567244515131" lon="11.421017134303876"><ele>161.25</ele><time>2026-04-03T16:36:50.999Z</time></trkpt><trkpt lat="42.645643772200074" lon="11.420867228550794"><ele>160.0</ele><time>2026-04-03T16:36:51.999Z</time></trkpt><trkpt lat="42.64559060597753" lon="11.420729707899472"><ele>160.0</ele><time>2026-04-03T16:36:52.999Z</time></trkpt><trkpt lat="42.64551533671253" lon="11.420609761844723"><ele>160.0</ele><time>2026-04-03T16:36:53.999Z</time></trkpt><trkpt lat="42.645414220433956" lon="11.420524480632265"><ele>160.0</ele><time>2026-04-03T16:36:54.999Z</time></trkpt><trkpt lat="42.64528321297415" lon="11.420443896183016"><ele>160.0</ele><time>2026-04-03T16:36:55.999Z</time></trkpt><trkpt lat="42.64512783424017" lon="11.420449269888396"><ele>161.0</ele><time>2026-04-03T16:36:56.999Z</time></trkpt><trkpt lat="42.64497367053518" lon="11.420430621046089"><ele>162.0</ele><time>2026-04-03T16:36:57.999Z</time></trkpt><trkpt lat="42.64482256264263" lon="11.42043384869948"><ele>163.0</ele><time>2026-04-03T16:36:58.999Z</time></trkpt><trkpt lat="42.64467482094972" lon="11.42040220829503"><ele>163.0</ele><time>2026-04-03T16:36:59.999Z</time></trkpt><trkpt lat="42.64453219523372" lon="11.42035835439925"><ele>163.0</ele><time>2026-04-03T16:37:00.999Z</time></trkpt><trkpt lat="42.6443948160572" lon="11.420306927848488"><ele>163.0</ele><time>2026-04-03T16:37:01.999Z</time></trkpt><trkpt lat="42.644257295369975" lon="11.420252919536063"><ele>163.0</ele><time>2026-04-03T16:37:02.999Z</time></trkpt><trkpt lat="42.644115228566875" lon="11.420204839974163"><ele>160.33333333333334</ele><time>2026-04-03T16:37:03.999Z</time></trkpt><trkpt lat="42.643953721793345" lon="11.42018057439788"><ele>157.66666666666666</ele><time>2026-04-03T16:37:04.999Z</time></trkpt><trkpt lat="42.64379680491825" lon="11.420162825837608"><ele>155.0</ele><time>2026-04-03T16:37:05.999Z</time></trkpt><trkpt lat="42.64365136136211" lon="11.420209901088912"><ele>154.75</ele><time>2026-04-03T16:37:06.999Z</time></trkpt><trkpt lat="42.64351881276417" lon="11.420261801993759"><ele>154.5</ele><time>2026-04-03T16:37:07.999Z</time></trkpt><trkpt lat="42.643393384098175" lon="11.420311207133587"><ele>154.25</ele><time>2026-04-03T16:37:08.999Z</time></trkpt><trkpt lat="42.643274827690576" lon="11.42037200957721"><ele>154.0</ele><time>2026-04-03T16:37:09.999Z</time></trkpt><trkpt lat="42.64315374510245" lon="11.420378998644859"><ele>154.0</ele><time>2026-04-03T16:37:10.999Z</time></trkpt><trkpt lat="42.64303560322783" lon="11.420347886818309"><ele>154.0</ele><time>2026-04-03T16:37:11.999Z</time></trkpt><trkpt lat="42.64292802080802" lon="11.420283162575423"><ele>154.0</ele><time>2026-04-03T16:37:12.999Z</time></trkpt><trkpt lat="42.64283001984933" lon="11.420210451408755"><ele>154.0</ele><time>2026-04-03T16:37:13.999Z</time></trkpt><trkpt lat="42.64273284933131" lon="11.420137959678438"><ele>153.0</ele><time>2026-04-03T16:37:14.999Z</time></trkpt><trkpt lat="42.64262237173928" lon="11.420053076959853"><ele>152.0</ele><time>2026-04-03T16:37:16Z</time></trkpt><trkpt lat="42.64251518674878" lon="11.419954353976326"><ele>151.0</ele><time>2026-04-03T16:37:17Z</time></trkpt><trkpt lat="42.64242730908801" lon="11.419816574926346"><ele>150.0</ele><time>2026-04-03T16:37:18Z</time></trkpt><trkpt lat="42.64236699514338" lon="11.4196443182626"><ele>150.0</ele><time>2026-04-03T16:37:19Z</time></trkpt><trkpt lat="42.642333772007056" lon="11.419467972302744"><ele>150.0</ele><time>2026-04-03T16:37:20Z</time></trkpt><trkpt lat="42.64229619516969" lon="11.41930127410457"><ele>150.0</ele><time>2026-04-03T16:37:21Z</time></trkpt><trkpt lat="42.642239614419644" lon="11.419140332632235"><ele>150.0</ele><time>2026-04-03T16:37:22Z</time></trkpt><trkpt lat="42.64215741425524" lon="11.419011908728766"><ele>150.0</ele><time>2026-04-03T16:37:23Z</time></trkpt><trkpt lat="42.642042691893394" lon="11.41890593252914"><ele>150.0</ele><time>2026-04-03T16:37:24Z</time></trkpt><trkpt lat="42.641928839952875" lon="11.418814131938708"><ele>150.0</ele><time>2026-04-03T16:37:25Z</time></trkpt><trkpt lat="42.64181775610463" lon="11.418734244473153"><ele>150.0</ele><time>2026-04-03T16:37:26Z</time></trkpt><trkpt lat="42.641712256063364" lon="11.418666666014918"><ele>148.5</ele><time>2026-04-03T16:37:27Z</time></trkpt><trkpt lat="42.64160703403496" lon="11.41861211207208"><ele>147.0</ele><time>2026-04-03T16:37:28Z</time></trkpt><trkpt lat="42.64148654854636" lon="11.418612140570808"><ele>145.5</ele><time>2026-04-03T16:37:29Z</time></trkpt><trkpt lat="42.6413469991432" lon="11.418660055926965"><ele>144.0</ele><time>2026-04-03T16:37:30Z</time></trkpt><trkpt lat="42.641191074462675" lon="11.418724977573646"><ele>143.33333333333334</ele><time>2026-04-03T16:37:31Z</time></trkpt><trkpt lat="42.64103531439422" lon="11.418790331104827"><ele>142.66666666666669</ele><time>2026-04-03T16:37:32Z</time></trkpt><trkpt lat="42.64089086463607" lon="11.418861814215942"><ele>142.0</ele><time>2026-04-03T16:37:33Z</time></trkpt><trkpt lat="42.640747905221865" lon="11.418904678640116"><ele>139.0</ele><time>2026-04-03T16:37:34Z</time></trkpt><trkpt lat="42.64061613502263" lon="11.418966029930159"><ele>136.0</ele><time>2026-04-03T16:37:35Z</time></trkpt><trkpt lat="42.64048799858886" lon="11.41902613017858"><ele>133.0</ele><time>2026-04-03T16:37:36Z</time></trkpt><trkpt lat="42.64036994751264" lon="11.419100238391554"><ele>130.0</ele><time>2026-04-03T16:37:37Z</time></trkpt><trkpt lat="42.6402556509564" lon="11.419131251832068"><ele>130.0</ele><time>2026-04-03T16:37:38Z</time></trkpt><trkpt lat="42.64014771456665" lon="11.41913934753505"><ele>130.0</ele><time>2026-04-03T16:37:39Z</time></trkpt><trkpt lat="42.64004799607801" lon="11.41911080581615"><ele>130.0</ele><time>2026-04-03T16:37:40Z</time></trkpt><trkpt lat="42.639948361986754" lon="11.419044198362837"><ele>130.0</ele><time>2026-04-03T16:37:41Z</time></trkpt><trkpt lat="42.639859302789326" lon="11.418929335747235"><ele>130.0</ele><time>2026-04-03T16:37:42Z</time></trkpt><trkpt lat="42.63976300173885" lon="11.418826705238027"><ele>130.0</ele><time>2026-04-03T16:37:43Z</time></trkpt><trkpt lat="42.6396724523693" lon="11.418735624845887"><ele>130.0</ele><time>2026-04-03T16:37:44Z</time></trkpt><trkpt lat="42.63955798834504" lon="11.418646726895988"><ele>130.0</ele><time>2026-04-03T16:37:45Z</time></trkpt><trkpt lat="42.63941471054501" lon="11.41857729761698"><ele>130.0</ele><time>2026-04-03T16:37:46Z</time></trkpt><trkpt lat="42.63926658014997" lon="11.418493562659041"><ele>130.0</ele><time>2026-04-03T16:37:47Z</time></trkpt><trkpt lat="42.639115711171975" lon="11.418419856941988"><ele>130.0</ele><time>2026-04-03T16:37:48Z</time></trkpt><trkpt lat="42.638963936989825" lon="11.41835852341788"><ele>130.0</ele><time>2026-04-03T16:37:49Z</time></trkpt><trkpt lat="42.63881058091546" lon="11.418299326162472"><ele>130.0</ele><time>2026-04-03T16:37:50Z</time></trkpt><trkpt lat="42.63866171057266" lon="11.41823598198792"><ele>130.0</ele><time>2026-04-03T16:37:51Z</time></trkpt><trkpt lat="42.638516177190034" lon="11.418176632865578"><ele>130.0</ele><time>2026-04-03T16:37:52Z</time></trkpt><trkpt lat="42.63836648898002" lon="11.41812052192558"><ele>130.0</ele><time>2026-04-03T16:37:53Z</time></trkpt><trkpt lat="42.63823932006126" lon="11.41804644884431"><ele>130.0</ele><time>2026-04-03T16:37:54Z</time></trkpt><trkpt lat="42.63811946201546" lon="11.418012484896135"><ele>130.0</ele><time>2026-04-03T16:37:55Z</time></trkpt><trkpt lat="42.63801398169701" lon="11.417961826912181"><ele>130.0</ele><time>2026-04-03T16:37:56Z</time></trkpt><trkpt lat="42.637918303741245" lon="11.4179090191517"><ele>130.0</ele><time>2026-04-03T16:37:57Z</time></trkpt><trkpt lat="42.63783677996844" lon="11.417849095251158"><ele>130.0</ele><time>2026-04-03T16:37:58Z</time></trkpt><trkpt lat="42.63777100182168" lon="11.417775079536021"><ele>130.0</ele><time>2026-04-03T16:37:59Z</time></trkpt><trkpt lat="42.63772865950189" lon="11.417680816983676"><ele>130.0</ele><time>2026-04-03T16:38:00Z</time></trkpt><trkpt lat="42.63771574423446" lon="11.417583219872643"><ele>130.0</ele><time>2026-04-03T16:38:01Z</time></trkpt><trkpt lat="42.63773620796844" lon="11.417491522662058"><ele>130.0</ele><time>2026-04-03T16:38:02Z</time></trkpt><trkpt lat="42.63778286112981" lon="11.417385848279054"><ele>130.0</ele><time>2026-04-03T16:38:03Z</time></trkpt><trkpt lat="42.6378730818552" lon="11.417270790674841"><ele>130.0</ele><time>2026-04-03T16:38:04Z</time></trkpt><trkpt lat="42.63799694572056" lon="11.41717947064205"><ele>130.0</ele><time>2026-04-03T16:38:05Z</time></trkpt><trkpt lat="42.63810678011504" lon="11.41708600625045"><ele>130.0</ele><time>2026-04-03T16:38:06Z</time></trkpt><trkpt lat="42.63823083556839" lon="11.416999591513429"><ele>127.66666666666667</ele><time>2026-04-03T16:38:07Z</time></trkpt><trkpt lat="42.6383675878573" lon="11.416924018745888"><ele>125.33333333333334</ele><time>2026-04-03T16:38:08Z</time></trkpt><trkpt lat="42.638514421331486" lon="11.41685928384576"><ele>123.0</ele><time>2026-04-03T16:38:09Z</time></trkpt><trkpt lat="42.63866932881281" lon="11.416796038620243"><ele>123.0</ele><time>2026-04-03T16:38:09.999Z</time></trkpt><trkpt lat="42.63882644275588" lon="11.416727126558737"><ele>123.0</ele><time>2026-04-03T16:38:10.999Z</time></trkpt><trkpt lat="42.63897910381198" lon="11.4166508151275"><ele>123.0</ele><time>2026-04-03T16:38:11.999Z</time></trkpt><trkpt lat="42.63912910709767" lon="11.416565774841755"><ele>123.0</ele><time>2026-04-03T16:38:12.999Z</time></trkpt><trkpt lat="42.639272021483876" lon="11.416475589773041"><ele>123.0</ele><time>2026-04-03T16:38:13.999Z</time></trkpt><trkpt lat="42.63940579152608" lon="11.4163937619755"><ele>123.0</ele><time>2026-04-03T16:38:14.999Z</time></trkpt><trkpt lat="42.639531685615" lon="11.416311210926128"><ele>123.0</ele><time>2026-04-03T16:38:15.999Z</time></trkpt><trkpt lat="42.639647007946316" lon="11.416219278681963"><ele>122.0</ele><time>2026-04-03T16:38:16.999Z</time></trkpt><trkpt lat="42.639761026500814" lon="11.416103529248108"><ele>121.0</ele><time>2026-04-03T16:38:17.999Z</time></trkpt><trkpt lat="42.63986259352194" lon="11.415951469691306"><ele>120.0</ele><time>2026-04-03T16:38:18.999Z</time></trkpt><trkpt lat="42.639945028998305" lon="11.415795919966229"><ele>119.0</ele><time>2026-04-03T16:38:19.999Z</time></trkpt><trkpt lat="42.64000468041498" lon="11.415634024106128"><ele>117.5</ele><time>2026-04-03T16:38:20.999Z</time></trkpt><trkpt lat="42.64004761558161" lon="11.415456931889064"><ele>116.0</ele><time>2026-04-03T16:38:21.999Z</time></trkpt><trkpt lat="42.640060373981434" lon="11.415258909109278"><ele>114.5</ele><time>2026-04-03T16:38:22.999Z</time></trkpt><trkpt lat="42.64002713752804" lon="11.415037935664913"><ele>113.0</ele><time>2026-04-03T16:38:23.999Z</time></trkpt><trkpt lat="42.63999311121748" lon="11.414813888005002"><ele>113.0</ele><time>2026-04-03T16:38:24.999Z</time></trkpt><trkpt lat="42.6399621485474" lon="11.41460427941826"><ele>113.0</ele><time>2026-04-03T16:38:25.999Z</time></trkpt><trkpt lat="42.63993110590588" lon="11.414406511834542"><ele>113.0</ele><time>2026-04-03T16:38:26.999Z</time></trkpt><trkpt lat="42.63990042462543" lon="11.414217630484279"><ele>113.0</ele><time>2026-04-03T16:38:27.999Z</time></trkpt><trkpt lat="42.63986628526802" lon="11.41401539080726"><ele>113.0</ele><time>2026-04-03T16:38:28.999Z</time></trkpt><trkpt lat="42.639815758478704" lon="11.413823459128313"><ele>113.0</ele><time>2026-04-03T16:38:29.999Z</time></trkpt><trkpt lat="42.6397439857482" lon="11.413638864996333"><ele>113.0</ele><time>2026-04-03T16:38:30.999Z</time></trkpt><trkpt lat="42.63965681018317" lon="11.413455729000985"><ele>112.66666666666666</ele><time>2026-04-03T16:38:31.999Z</time></trkpt><trkpt lat="42.63956092726729" lon="11.413281670768235"><ele>112.33333333333334</ele><time>2026-04-03T16:38:32.999Z</time></trkpt><trkpt lat="42.63946329130022" lon="11.413114010454684"><ele>112.0</ele><time>2026-04-03T16:38:33.999Z</time></trkpt><trkpt lat="42.63936925557564" lon="11.412942344450192"><ele>112.0</ele><time>2026-04-03T16:38:34.999Z</time></trkpt><trkpt lat="42.639278327120905" lon="11.412774936265864"><ele>112.0</ele><time>2026-04-03T16:38:35.999Z</time></trkpt><trkpt lat="42.63918861620097" lon="11.41261984047208"><ele>112.0</ele><time>2026-04-03T16:38:36.999Z</time></trkpt><trkpt lat="42.63909871289406" lon="11.412460034740233"><ele>112.0</ele><time>2026-04-03T16:38:37.999Z</time></trkpt><trkpt lat="42.639019464823924" lon="11.412287088339008"><ele>113.33333333333334</ele><time>2026-04-03T16:38:38.999Z</time></trkpt><trkpt lat="42.63896953859681" lon="11.412093468983878"><ele>114.66666666666666</ele><time>2026-04-03T16:38:39.999Z</time></trkpt><trkpt lat="42.638953930987945" lon="11.411880469153528"><ele>116.0</ele><time>2026-04-03T16:38:40.999Z</time></trkpt><trkpt lat="42.63896216627474" lon="11.41167287701223"><ele>116.0</ele><time>2026-04-03T16:38:41.999Z</time></trkpt><trkpt lat="42.63898578605274" lon="11.411482473568821"><ele>116.0</ele><time>2026-04-03T16:38:42.999Z</time></trkpt><trkpt lat="42.63900107469735" lon="11.411290260263959"><ele>116.0</ele><time>2026-04-03T16:38:43.999Z</time></trkpt><trkpt lat="42.639019347537044" lon="11.411078380589377"><ele>116.0</ele><time>2026-04-03T16:38:44.999Z</time></trkpt><trkpt lat="42.639039089621164" lon="11.410871017281924"><ele>117.0</ele><time>2026-04-03T16:38:45.999Z</time></trkpt><trkpt lat="42.639054832588045" lon="11.410671256494581"><ele>118.0</ele><time>2026-04-03T16:38:46.999Z</time></trkpt><trkpt lat="42.63906831731529" lon="11.410465883292906"><ele>119.0</ele><time>2026-04-03T16:38:47.999Z</time></trkpt><trkpt lat="42.63906925248644" lon="11.4102371468062"><ele>119.66666666666666</ele><time>2026-04-03T16:38:48.999Z</time></trkpt><trkpt lat="42.63904818384865" lon="11.409999488217709"><ele>120.33333333333334</ele><time>2026-04-03T16:38:49.999Z</time></trkpt><trkpt lat="42.63901882010619" lon="11.409755167817144"><ele>121.0</ele><time>2026-04-03T16:38:50.999Z</time></trkpt><trkpt lat="42.63899764168255" lon="11.409510605147917"><ele>122.0</ele><time>2026-04-03T16:38:51.999Z</time></trkpt><trkpt lat="42.6389679782014" lon="11.40927028197267"><ele>123.0</ele><time>2026-04-03T16:38:52.999Z</time></trkpt><trkpt lat="42.63893919649883" lon="11.409041359830521"><ele>124.0</ele><time>2026-04-03T16:38:53.999Z</time></trkpt><trkpt lat="42.63891271713345" lon="11.408816181704312"><ele>125.0</ele><time>2026-04-03T16:38:54.999Z</time></trkpt><trkpt lat="42.63888472016409" lon="11.40858835283915"><ele>126.0</ele><time>2026-04-03T16:38:55.999Z</time></trkpt><trkpt lat="42.638859378603776" lon="11.408385232669826"><ele>127.0</ele><time>2026-04-03T16:38:56.999Z</time></trkpt><trkpt lat="42.63883847401614" lon="11.4081988904681"><ele>127.0</ele><time>2026-04-03T16:38:57.999Z</time></trkpt><trkpt lat="42.63881628513169" lon="11.408037213266642"><ele>127.0</ele><time>2026-04-03T16:38:58.999Z</time></trkpt><trkpt lat="42.638800212043385" lon="11.407871196144196"><ele>127.0</ele><time>2026-04-03T16:38:59.999Z</time></trkpt><trkpt lat="42.63878602984549" lon="11.40769312957945"><ele>127.0</ele><time>2026-04-03T16:39:00.999Z</time></trkpt><trkpt lat="42.63877430803603" lon="11.407532262139076"><ele>132.0</ele><time>2026-04-03T16:39:01.999Z</time></trkpt><trkpt lat="42.6387690246979" lon="11.407403903726436"><ele>132.0</ele><time>2026-04-03T16:39:02.999Z</time></trkpt><trkpt lat="42.63877042600264" lon="11.407300114509507"><ele>132.0</ele><time>2026-04-03T16:39:03.999Z</time></trkpt><trkpt lat="42.63874588820308" lon="11.407191914355957"><ele>132.0</ele><time>2026-04-03T16:39:05.999Z</time></trkpt><trkpt lat="42.63871634909638" lon="11.407115648200318"><ele>139.0</ele><time>2026-04-03T16:39:08.999Z</time></trkpt></trkseg><trkseg><trkpt lat="42.63865034250068" lon="11.407194585194162"><ele>133.16666666666666</ele><time>2026-04-03T16:50:55Z</time></trkpt><trkpt lat="42.63871093200094" lon="11.407081389064874"><ele>134.33333333333334</ele><time>2026-04-03T16:51:00Z</time></trkpt><trkpt lat="42.638711151520255" lon="11.406985120163272"><ele>135.5</ele><time>2026-04-03T16:51:01Z</time></trkpt><trkpt lat="42.63871240082419" lon="11.40687543729592"><ele>136.66666666666669</ele><time>2026-04-03T16:51:02Z</time></trkpt><trkpt lat="42.63872736458553" lon="11.40676565252913"><ele>137.83333333333334</ele><time>2026-04-03T16:51:03Z</time></trkpt><trkpt lat="42.638745193016746" lon="11.40667229611153"><ele>139.0</ele><time>2026-04-03T16:51:04Z</time></trkpt><trkpt lat="42.63880699173915" lon="11.406509672434824"><ele>139.0</ele><time>2026-04-03T16:51:06Z</time></trkpt><trkpt lat="42.638858747782436" lon="11.406422414689526"><ele>139.0</ele><time>2026-04-03T16:51:07Z</time></trkpt><trkpt lat="42.638916330208176" lon="11.406343199294904"><ele>139.0</ele><time>2026-04-03T16:51:08Z</time></trkpt><trkpt lat="42.638979675486944" lon="11.406261491192275"><ele>139.0</ele><time>2026-04-03T16:51:09Z</time></trkpt><trkpt lat="42.639038031068395" lon="11.4061896562063"><ele>139.0</ele><time>2026-04-03T16:51:10Z</time></trkpt><trkpt lat="42.63910358221624" lon="11.406104176765417"><ele>139.0</ele><time>2026-04-03T16:51:11Z</time></trkpt><trkpt lat="42.63918600152937" lon="11.4060000530326"><ele>140.0</ele><time>2026-04-03T16:51:12Z</time></trkpt><trkpt lat="42.639261498860414" lon="11.40590529401444"><ele>141.0</ele><time>2026-04-03T16:51:13Z</time></trkpt><trkpt lat="42.63932598879318" lon="11.405825558047633"><ele>142.0</ele><time>2026-04-03T16:51:14Z</time></trkpt><trkpt lat="42.63938951746013" lon="11.405745319996392"><ele>143.0</ele><time>2026-04-03T16:51:15Z</time></trkpt><trkpt lat="42.63946776827508" lon="11.405642147158506"><ele>144.0</ele><time>2026-04-03T16:51:16Z</time></trkpt><trkpt lat="42.63956534717964" lon="11.405516383242487"><ele>144.33333333333334</ele><time>2026-04-03T16:51:17Z</time></trkpt><trkpt lat="42.63966431844889" lon="11.405386250046213"><ele>144.66666666666669</ele><time>2026-04-03T16:51:18Z</time></trkpt><trkpt lat="42.639775067465465" lon="11.405237158168758"><ele>145.0</ele><time>2026-04-03T16:51:19Z</time></trkpt><trkpt lat="42.63990654162433" lon="11.405060065368449"><ele>145.0</ele><time>2026-04-03T16:51:19.999Z</time></trkpt><trkpt lat="42.640033704442985" lon="11.404881685178982"><ele>145.0</ele><time>2026-04-03T16:51:20.999Z</time></trkpt><trkpt lat="42.640154400458044" lon="11.404713534683875"><ele>145.0</ele><time>2026-04-03T16:51:21.999Z</time></trkpt><trkpt lat="42.64029185648345" lon="11.40452262958288"><ele>144.66666666666669</ele><time>2026-04-03T16:51:22.999Z</time></trkpt><trkpt lat="42.64043229000109" lon="11.404338428026493"><ele>144.33333333333334</ele><time>2026-04-03T16:51:23.999Z</time></trkpt><trkpt lat="42.64057529338355" lon="11.404156061551943"><ele>144.0</ele><time>2026-04-03T16:51:24.999Z</time></trkpt><trkpt lat="42.640725244895066" lon="11.403977314264392"><ele>145.33333333333334</ele><time>2026-04-03T16:51:25.999Z</time></trkpt><trkpt lat="42.64087225234428" lon="11.403802775456187"><ele>146.66666666666669</ele><time>2026-04-03T16:51:26.999Z</time></trkpt><trkpt lat="42.64101259722918" lon="11.403616936979725"><ele>148.0</ele><time>2026-04-03T16:51:27.999Z</time></trkpt><trkpt lat="42.64115119303895" lon="11.403432449119533"><ele>148.0</ele><time>2026-04-03T16:51:28.999Z</time></trkpt><trkpt lat="42.64128851061418" lon="11.403254527302163"><ele>148.0</ele><time>2026-04-03T16:51:29.999Z</time></trkpt><trkpt lat="42.64142526706286" lon="11.403075299451425"><ele>148.0</ele><time>2026-04-03T16:51:30.999Z</time></trkpt><trkpt lat="42.64156028042865" lon="11.402893187341874"><ele>148.0</ele><time>2026-04-03T16:51:31.999Z</time></trkpt><trkpt lat="42.64169687001079" lon="11.402716965768379"><ele>148.0</ele><time>2026-04-03T16:51:32.999Z</time></trkpt><trkpt lat="42.641835519852904" lon="11.40254196838391"><ele>148.0</ele><time>2026-04-03T16:51:33.999Z</time></trkpt><trkpt lat="42.64197056994169" lon="11.402364858529644"><ele>149.0</ele><time>2026-04-03T16:51:34.999Z</time></trkpt><trkpt lat="42.642106324585555" lon="11.402184902663516"><ele>150.0</ele><time>2026-04-03T16:51:35.999Z</time></trkpt><trkpt lat="42.64223942028702" lon="11.402008409340787"><ele>151.0</ele><time>2026-04-03T16:51:36.999Z</time></trkpt><trkpt lat="42.642376663121404" lon="11.401829097279753"><ele>151.0</ele><time>2026-04-03T16:51:37.999Z</time></trkpt><trkpt lat="42.64251636668606" lon="11.401645979415486"><ele>151.0</ele><time>2026-04-03T16:51:38.999Z</time></trkpt><trkpt lat="42.64265519808038" lon="11.401463604628885"><ele>151.0</ele><time>2026-04-03T16:51:39.999Z</time></trkpt><trkpt lat="42.64278852592607" lon="11.401285064519508"><ele>152.33333333333334</ele><time>2026-04-03T16:51:40.999Z</time></trkpt><trkpt lat="42.6429233910206" lon="11.401110805297648"><ele>153.66666666666666</ele><time>2026-04-03T16:51:41.999Z</time></trkpt><trkpt lat="42.64305675427385" lon="11.40093436941435"><ele>155.0</ele><time>2026-04-03T16:51:42.999Z</time></trkpt><trkpt lat="42.643189877973896" lon="11.40075329795897"><ele>155.0</ele><time>2026-04-03T16:51:43.999Z</time></trkpt><trkpt lat="42.64332869412252" lon="11.400567695053311"><ele>155.0</ele><time>2026-04-03T16:51:44.999Z</time></trkpt><trkpt lat="42.64347303231845" lon="11.400379167983083"><ele>155.0</ele><time>2026-04-03T16:51:45.999Z</time></trkpt><trkpt lat="42.643622952908316" lon="11.400192616410706"><ele>156.66666666666666</ele><time>2026-04-03T16:51:46.999Z</time></trkpt><trkpt lat="42.64376876095782" lon="11.399996791135761"><ele>158.33333333333334</ele><time>2026-04-03T16:51:47.999Z</time></trkpt><trkpt lat="42.64391577558939" lon="11.39981252486349"><ele>160.0</ele><time>2026-04-03T16:51:48.999Z</time></trkpt><trkpt lat="42.64402219930673" lon="11.399666922308727"><ele>160.0</ele><time>2026-04-03T16:51:49.999Z</time></trkpt><trkpt lat="42.64413047690265" lon="11.399523334540854"><ele>160.0</ele><time>2026-04-03T16:51:50.999Z</time></trkpt><trkpt lat="42.64425620883367" lon="11.399351925921072"><ele>160.0</ele><time>2026-04-03T16:51:51.999Z</time></trkpt><trkpt lat="42.64440155497586" lon="11.399166828060725"><ele>160.33333333333334</ele><time>2026-04-03T16:51:52.999Z</time></trkpt><trkpt lat="42.64452584706718" lon="11.399010416791537"><ele>160.66666666666666</ele><time>2026-04-03T16:51:53.999Z</time></trkpt><trkpt lat="42.64469554024056" lon="11.398834767579947"><ele>161.0</ele><time>2026-04-03T16:51:54.999Z</time></trkpt><trkpt lat="42.64489450535399" lon="11.398723807944203"><ele>161.0</ele><time>2026-04-03T16:51:55.999Z</time></trkpt><trkpt lat="42.64509619685185" lon="11.398592780383343"><ele>161.0</ele><time>2026-04-03T16:51:56.999Z</time></trkpt><trkpt lat="42.64525145493505" lon="11.398483527515383"><ele>161.0</ele><time>2026-04-03T16:51:57.999Z</time></trkpt><trkpt lat="42.64537035525009" lon="11.39833522931902"><ele>161.0</ele><time>2026-04-03T16:51:58.999Z</time></trkpt><trkpt lat="42.645530207181075" lon="11.398184894931333"><ele>161.0</ele><time>2026-04-03T16:51:59.999Z</time></trkpt><trkpt lat="42.645702649619395" lon="11.398047059371878"><ele>161.0</ele><time>2026-04-03T16:52:00.999Z</time></trkpt><trkpt lat="42.645858225014095" lon="11.397934035035439"><ele>161.0</ele><time>2026-04-03T16:52:01.999Z</time></trkpt><trkpt lat="42.646017819192075" lon="11.397814257059803"><ele>161.0</ele><time>2026-04-03T16:52:02.999Z</time></trkpt><trkpt lat="42.646198287332844" lon="11.397674259991081"><ele>161.0</ele><time>2026-04-03T16:52:03.999Z</time></trkpt><trkpt lat="42.64635948561947" lon="11.397534374535205"><ele>161.0</ele><time>2026-04-03T16:52:04.999Z</time></trkpt><trkpt lat="42.64650544067023" lon="11.397441309562911"><ele>161.0</ele><time>2026-04-03T16:52:05.999Z</time></trkpt><trkpt lat="42.64666417665162" lon="11.3973100328226"><ele>161.0</ele><time>2026-04-03T16:52:06.999Z</time></trkpt><trkpt lat="42.646796548127185" lon="11.397211688237658"><ele>159.75</ele><time>2026-04-03T16:52:07.999Z</time></trkpt><trkpt lat="42.646922479293195" lon="11.397124370404297"><ele>158.5</ele><time>2026-04-03T16:52:08.999Z</time></trkpt><trkpt lat="42.64703641212005" lon="11.397016611752118"><ele>157.25</ele><time>2026-04-03T16:52:09.999Z</time></trkpt><trkpt lat="42.6471219495057" lon="11.396877344672934"><ele>156.0</ele><time>2026-04-03T16:52:10.999Z</time></trkpt><trkpt lat="42.64717523889472" lon="11.396692694878373"><ele>156.0</ele><time>2026-04-03T16:52:11.999Z</time></trkpt><trkpt lat="42.647200092519086" lon="11.39647472227958"><ele>156.0</ele><time>2026-04-03T16:52:12.999Z</time></trkpt><trkpt lat="42.64721661515778" lon="11.39624325008157"><ele>156.0</ele><time>2026-04-03T16:52:13.999Z</time></trkpt><trkpt lat="42.6472321420189" lon="11.395993233010165"><ele>154.33333333333334</ele><time>2026-04-03T16:52:14.999Z</time></trkpt><trkpt lat="42.64725855765266" lon="11.395731155164043"><ele>152.66666666666669</ele><time>2026-04-03T16:52:15.999Z</time></trkpt><trkpt lat="42.647280024463036" lon="11.395460791297118"><ele>151.0</ele><time>2026-04-03T16:52:16.999Z</time></trkpt><trkpt lat="42.647296552485955" lon="11.395195230937802"><ele>150.66666666666669</ele><time>2026-04-03T16:52:17.999Z</time></trkpt><trkpt lat="42.64732064961359" lon="11.394932509991582"><ele>150.33333333333334</ele><time>2026-04-03T16:52:18.999Z</time></trkpt><trkpt lat="42.64734082264699" lon="11.394679246643976"><ele>150.0</ele><time>2026-04-03T16:52:19.999Z</time></trkpt><trkpt lat="42.647357149873066" lon="11.394436776063454"><ele>150.0</ele><time>2026-04-03T16:52:20.999Z</time></trkpt><trkpt lat="42.647374305456125" lon="11.394208255462866"><ele>150.0</ele><time>2026-04-03T16:52:21.999Z</time></trkpt><trkpt lat="42.647390362250704" lon="11.3940012034332"><ele>150.0</ele><time>2026-04-03T16:52:22.999Z</time></trkpt><trkpt lat="42.647400424595574" lon="11.393798017672484"><ele>152.0</ele><time>2026-04-03T16:52:23.999Z</time></trkpt><trkpt lat="42.64737959564837" lon="11.393596268795655"><ele>154.0</ele><time>2026-04-03T16:52:24.999Z</time></trkpt><trkpt lat="42.64731732089612" lon="11.3934263412027"><ele>156.0</ele><time>2026-04-03T16:52:25.999Z</time></trkpt><trkpt lat="42.64723193022807" lon="11.39325942879137"><ele>158.0</ele><time>2026-04-03T16:52:26.999Z</time></trkpt><trkpt lat="42.647080685158535" lon="11.393170717859576"><ele>159.0</ele><time>2026-04-03T16:52:27.999Z</time></trkpt><trkpt lat="42.64690118556155" lon="11.393083304869124"><ele>160.0</ele><time>2026-04-03T16:52:28.999Z</time></trkpt><trkpt lat="42.64671075596715" lon="11.39301121181544"><ele>161.0</ele><time>2026-04-03T16:52:29.999Z</time></trkpt><trkpt lat="42.646509230777184" lon="11.392938323891537"><ele>161.0</ele><time>2026-04-03T16:52:31Z</time></trkpt><trkpt lat="42.64629790492715" lon="11.392860878456787"><ele>161.0</ele><time>2026-04-03T16:52:32Z</time></trkpt><trkpt lat="42.64609430223865" lon="11.392783549031783"><ele>161.0</ele><time>2026-04-03T16:52:33Z</time></trkpt><trkpt lat="42.64590888014622" lon="11.392709984638797"><ele>160.66666666666666</ele><time>2026-04-03T16:52:34Z</time></trkpt><trkpt lat="42.64573568457758" lon="11.39262600409463"><ele>160.33333333333334</ele><time>2026-04-03T16:52:35Z</time></trkpt><trkpt lat="42.645565500115225" lon="11.392514842807675"><ele>160.0</ele><time>2026-04-03T16:52:36Z</time></trkpt><trkpt lat="42.64538826315089" lon="11.392376698468878"><ele>160.66666666666669</ele><time>2026-04-03T16:52:37Z</time></trkpt><trkpt lat="42.645206737337695" lon="11.392259110580767"><ele>161.33333333333334</ele><time>2026-04-03T16:52:38Z</time></trkpt><trkpt lat="42.64504632431048" lon="11.392133812228959"><ele>162.0</ele><time>2026-04-03T16:52:39Z</time></trkpt><trkpt lat="42.64489906184656" lon="11.392018276183963"><ele>162.0</ele><time>2026-04-03T16:52:40Z</time></trkpt><trkpt lat="42.644761607321996" lon="11.391910599533245"><ele>162.0</ele><time>2026-04-03T16:52:41Z</time></trkpt><trkpt lat="42.64463388187037" lon="11.391810301449036"><ele>162.0</ele><time>2026-04-03T16:52:42Z</time></trkpt><trkpt lat="42.6445286378595" lon="11.391687905292367"><ele>162.0</ele><time>2026-04-03T16:52:43Z</time></trkpt><trkpt lat="42.6444420653538" lon="11.391569642840762"><ele>161.25</ele><time>2026-04-03T16:52:44Z</time></trkpt><trkpt lat="42.644363671964086" lon="11.391436729167033"><ele>160.5</ele><time>2026-04-03T16:52:45Z</time></trkpt><trkpt lat="42.644347718759796" lon="11.391254449357067"><ele>159.75</ele><time>2026-04-03T16:52:46Z</time></trkpt><trkpt lat="42.64436928719135" lon="11.391048329695579"><ele>159.0</ele><time>2026-04-03T16:52:47Z</time></trkpt><trkpt lat="42.644420433795275" lon="11.390827064003423"><ele>159.33333333333334</ele><time>2026-04-03T16:52:48Z</time></trkpt><trkpt lat="42.64447230740585" lon="11.3906066952232"><ele>159.66666666666669</ele><time>2026-04-03T16:52:49Z</time></trkpt><trkpt lat="42.644523372950246" lon="11.390375833379675"><ele>160.0</ele><time>2026-04-03T16:52:50Z</time></trkpt><trkpt lat="42.644577596198644" lon="11.390125128444673"><ele>160.0</ele><time>2026-04-03T16:52:51Z</time></trkpt><trkpt lat="42.64463834900697" lon="11.389863220353481"><ele>160.0</ele><time>2026-04-03T16:52:52Z</time></trkpt><trkpt lat="42.64469365421727" lon="11.389592107395305"><ele>160.0</ele><time>2026-04-03T16:52:53Z</time></trkpt><trkpt lat="42.64474970869866" lon="11.389335580307462"><ele>159.66666666666669</ele><time>2026-04-03T16:52:54Z</time></trkpt><trkpt lat="42.644806835964374" lon="11.38909091806244"><ele>159.33333333333334</ele><time>2026-04-03T16:52:55Z</time></trkpt><trkpt lat="42.644863862735114" lon="11.388861930307185"><ele>159.0</ele><time>2026-04-03T16:52:56Z</time></trkpt><trkpt lat="42.6449139158653" lon="11.38864743489706"><ele>159.0</ele><time>2026-04-03T16:52:57Z</time></trkpt><trkpt lat="42.64494899200213" lon="11.38844901741642"><ele>159.0</ele><time>2026-04-03T16:52:58Z</time></trkpt><trkpt lat="42.644953054309475" lon="11.388252209674807"><ele>159.0</ele><time>2026-04-03T16:52:59Z</time></trkpt><trkpt lat="42.64491208582413" lon="11.388039536366175"><ele>159.0</ele><time>2026-04-03T16:53:00Z</time></trkpt><trkpt lat="42.64482802811647" lon="11.387829616843153"><ele>159.0</ele><time>2026-04-03T16:53:01Z</time></trkpt><trkpt lat="42.644723033597735" lon="11.387640289136874"><ele>159.0</ele><time>2026-04-03T16:53:02Z</time></trkpt><trkpt lat="42.64461624502272" lon="11.387452234053313"><ele>159.0</ele><time>2026-04-03T16:53:03Z</time></trkpt><trkpt lat="42.64452417375356" lon="11.387277009489766"><ele>159.0</ele><time>2026-04-03T16:53:04Z</time></trkpt><trkpt lat="42.64443503580635" lon="11.38709844552572"><ele>159.0</ele><time>2026-04-03T16:53:05Z</time></trkpt><trkpt lat="42.64434018489548" lon="11.386912099596131"><ele>160.0</ele><time>2026-04-03T16:53:06Z</time></trkpt><trkpt lat="42.644239569154735" lon="11.386719679322038"><ele>161.0</ele><time>2026-04-03T16:53:07Z</time></trkpt><trkpt lat="42.64414327184767" lon="11.386524183183012"><ele>162.0</ele><time>2026-04-03T16:53:07.999Z</time></trkpt><trkpt lat="42.6440598997144" lon="11.386349126299969"><ele>162.75</ele><time>2026-04-03T16:53:08.999Z</time></trkpt><trkpt lat="42.6440009991716" lon="11.386175493020044"><ele>163.5</ele><time>2026-04-03T16:53:09.999Z</time></trkpt><trkpt lat="42.64398618307866" lon="11.386012453448442"><ele>164.25</ele><time>2026-04-03T16:53:10.999Z</time></trkpt><trkpt lat="42.64400959398695" lon="11.385855336322207"><ele>165.0</ele><time>2026-04-03T16:53:11.999Z</time></trkpt><trkpt lat="42.64406509504551" lon="11.385686587987706"><ele>165.0</ele><time>2026-04-03T16:53:12.999Z</time></trkpt><trkpt lat="42.644153743476565" lon="11.385533346677105"><ele>165.0</ele><time>2026-04-03T16:53:13.999Z</time></trkpt><trkpt lat="42.64426301937139" lon="11.38540902645813"><ele>165.0</ele><time>2026-04-03T16:53:14.999Z</time></trkpt><trkpt lat="42.64437576939452" lon="11.385264119039878"><ele>165.0</ele><time>2026-04-03T16:53:15.999Z</time></trkpt><trkpt lat="42.64448442425892" lon="11.385106645572776"><ele>164.33333333333334</ele><time>2026-04-03T16:53:16.999Z</time></trkpt><trkpt lat="42.6446025062766" lon="11.384954328247433"><ele>163.66666666666669</ele><time>2026-04-03T16:53:17.999Z</time></trkpt><trkpt lat="42.644726865637054" lon="11.384805052514894"><ele>163.0</ele><time>2026-04-03T16:53:18.999Z</time></trkpt><trkpt lat="42.64483773637621" lon="11.384663633698617"><ele>163.0</ele><time>2026-04-03T16:53:19.999Z</time></trkpt><trkpt lat="42.64494837300158" lon="11.384514543449534"><ele>163.0</ele><time>2026-04-03T16:53:20.999Z</time></trkpt><trkpt lat="42.645063564895494" lon="11.384368997360715"><ele>163.0</ele><time>2026-04-03T16:53:21.999Z</time></trkpt><trkpt lat="42.64517112075088" lon="11.384241440666264"><ele>163.0</ele><time>2026-04-03T16:53:22.999Z</time></trkpt><trkpt lat="42.64527044883379" lon="11.384118520369709"><ele>163.0</ele><time>2026-04-03T16:53:23.999Z</time></trkpt><trkpt lat="42.64536257452304" lon="11.384015571434384"><ele>163.0</ele><time>2026-04-03T16:53:24.999Z</time></trkpt><trkpt lat="42.645452143145796" lon="11.383926201696628"><ele>163.0</ele><time>2026-04-03T16:53:25.999Z</time></trkpt><trkpt lat="42.64555512698327" lon="11.3838353277035"><ele>162.33333333333334</ele><time>2026-04-03T16:53:26.999Z</time></trkpt><trkpt lat="42.64567388940438" lon="11.383745990870118"><ele>161.66666666666666</ele><time>2026-04-03T16:53:27.999Z</time></trkpt><trkpt lat="42.645835771301584" lon="11.38365623668596"><ele>161.0</ele><time>2026-04-03T16:53:28.999Z</time></trkpt><trkpt lat="42.645998323170936" lon="11.383557520447717"><ele>164.0</ele><time>2026-04-03T16:53:29.999Z</time></trkpt><trkpt lat="42.64614732102595" lon="11.383470621931796"><ele>167.0</ele><time>2026-04-03T16:53:30.999Z</time></trkpt><trkpt lat="42.646276811365674" lon="11.383391511197352"><ele>170.0</ele><time>2026-04-03T16:53:31.999Z</time></trkpt><trkpt lat="42.64639129473692" lon="11.383307508316918"><ele>173.0</ele><time>2026-04-03T16:53:32.999Z</time></trkpt><trkpt lat="42.64648706886615" lon="11.383165303007356"><ele>169.33333333333331</ele><time>2026-04-03T16:53:33.999Z</time></trkpt><trkpt lat="42.646569265653305" lon="11.382970878430699"><ele>165.66666666666666</ele><time>2026-04-03T16:53:34.999Z</time></trkpt><trkpt lat="42.64664033563355" lon="11.38274586948143"><ele>162.0</ele><time>2026-04-03T16:53:35.999Z</time></trkpt><trkpt lat="42.64670423995036" lon="11.382518808022501"><ele>162.0</ele><time>2026-04-03T16:53:36.999Z</time></trkpt><trkpt lat="42.6467655001387" lon="11.382308264275325"><ele>162.0</ele><time>2026-04-03T16:53:37.999Z</time></trkpt><trkpt lat="42.64682500613601" lon="11.382106903280024"><ele>162.0</ele><time>2026-04-03T16:53:38.999Z</time></trkpt><trkpt lat="42.64688029421803" lon="11.381914596416726"><ele>162.75</ele><time>2026-04-03T16:53:39.999Z</time></trkpt><trkpt lat="42.64693242299554" lon="11.381723213484763"><ele>163.5</ele><time>2026-04-03T16:53:40.999Z</time></trkpt><trkpt lat="42.646989146930686" lon="11.381531994310055"><ele>164.25</ele><time>2026-04-03T16:53:41.999Z</time></trkpt><trkpt lat="42.64705415577433" lon="11.381362617974165"><ele>165.0</ele><time>2026-04-03T16:53:42.999Z</time></trkpt><trkpt lat="42.647128802100035" lon="11.381213918311968"><ele>168.66666666666666</ele><time>2026-04-03T16:53:43.999Z</time></trkpt><trkpt lat="42.64724038072973" lon="11.38108989678099"><ele>172.33333333333331</ele><time>2026-04-03T16:53:44.999Z</time></trkpt><trkpt lat="42.647388089958675" lon="11.38101115545617"><ele>176.0</ele><time>2026-04-03T16:53:45.999Z</time></trkpt><trkpt lat="42.64755913136024" lon="11.380995174772949"><ele>176.0</ele><time>2026-04-03T16:53:46.999Z</time></trkpt><trkpt lat="42.64774096670962" lon="11.381019053373324"><ele>176.0</ele><time>2026-04-03T16:53:47.999Z</time></trkpt><trkpt lat="42.6479334599847" lon="11.381043977168687"><ele>176.0</ele><time>2026-04-03T16:53:48.999Z</time></trkpt><trkpt lat="42.648117351004686" lon="11.381051346643629"><ele>177.66666666666666</ele><time>2026-04-03T16:53:49.999Z</time></trkpt><trkpt lat="42.648301972359356" lon="11.381059120481687"><ele>179.33333333333334</ele><time>2026-04-03T16:53:50.999Z</time></trkpt><trkpt lat="42.64850106341043" lon="11.381075114857609"><ele>181.0</ele><time>2026-04-03T16:53:51.999Z</time></trkpt><trkpt lat="42.64869772820267" lon="11.38108735624571"><ele>184.33333333333334</ele><time>2026-04-03T16:53:52.999Z</time></trkpt><trkpt lat="42.64889988018941" lon="11.38110381899823"><ele>187.66666666666666</ele><time>2026-04-03T16:53:53.999Z</time></trkpt><trkpt lat="42.649083624275185" lon="11.381135255409674"><ele>191.0</ele><time>2026-04-03T16:53:54.999Z</time></trkpt><trkpt lat="42.649256757305416" lon="11.381172808877075"><ele>191.0</ele><time>2026-04-03T16:53:55.999Z</time></trkpt><trkpt lat="42.64942533800125" lon="11.38120352246261"><ele>191.0</ele><time>2026-04-03T16:53:56.999Z</time></trkpt><trkpt lat="42.64959075347208" lon="11.381238363214711"><ele>191.0</ele><time>2026-04-03T16:53:57.999Z</time></trkpt><trkpt lat="42.64975000575518" lon="11.381273439707313"><ele>189.0</ele><time>2026-04-03T16:53:58.999Z</time></trkpt><trkpt lat="42.64990635918346" lon="11.381302661505856"><ele>187.0</ele><time>2026-04-03T16:53:59.999Z</time></trkpt><trkpt lat="42.65006934185659" lon="11.381337804414956"><ele>185.0</ele><time>2026-04-03T16:54:00.999Z</time></trkpt><trkpt lat="42.65021727607143" lon="11.381368173144947"><ele>185.0</ele><time>2026-04-03T16:54:01.999Z</time></trkpt><trkpt lat="42.6503457946716" lon="11.381376831336613"><ele>185.0</ele><time>2026-04-03T16:54:02.999Z</time></trkpt><trkpt lat="42.650464625096774" lon="11.381337852033903"><ele>185.0</ele><time>2026-04-03T16:54:03.999Z</time></trkpt><trkpt lat="42.65058567515694" lon="11.381238726292855"><ele>185.0</ele><time>2026-04-03T16:54:04.999Z</time></trkpt><trkpt lat="42.65070437736046" lon="11.381115445636574"><ele>190.0</ele><time>2026-04-03T16:54:05.999Z</time></trkpt><trkpt lat="42.65083754188172" lon="11.380986901509832"><ele>195.0</ele><time>2026-04-03T16:54:06.999Z</time></trkpt><trkpt lat="42.6509652584428" lon="11.380852597026847"><ele>200.0</ele><time>2026-04-03T16:54:07.999Z</time></trkpt><trkpt lat="42.651098555871776" lon="11.380729712952109"><ele>199.33333333333334</ele><time>2026-04-03T16:54:08.999Z</time></trkpt><trkpt lat="42.651250973832205" lon="11.380646030794509"><ele>198.66666666666669</ele><time>2026-04-03T16:54:09.999Z</time></trkpt><trkpt lat="42.65143443647221" lon="11.380600581960328"><ele>198.0</ele><time>2026-04-03T16:54:10.999Z</time></trkpt><trkpt lat="42.65162519535573" lon="11.380573762126664"><ele>198.0</ele><time>2026-04-03T16:54:11.999Z</time></trkpt><trkpt lat="42.65181042327682" lon="11.380526916855288"><ele>198.0</ele><time>2026-04-03T16:54:12.999Z</time></trkpt><trkpt lat="42.65199253397769" lon="11.380464582696913"><ele>198.0</ele><time>2026-04-03T16:54:13.999Z</time></trkpt><trkpt lat="42.65216439384067" lon="11.380375561482639"><ele>203.66666666666669</ele><time>2026-04-03T16:54:14.999Z</time></trkpt><trkpt lat="42.65233772738601" lon="11.3802987217927"><ele>209.33333333333334</ele><time>2026-04-03T16:54:15.999Z</time></trkpt><trkpt lat="42.652495271818836" lon="11.38018033131717"><ele>215.0</ele><time>2026-04-03T16:54:16.999Z</time></trkpt><trkpt lat="42.652647021965635" lon="11.380094078712196"><ele>216.0</ele><time>2026-04-03T16:54:17.999Z</time></trkpt><trkpt lat="42.65279587691051" lon="11.380007247295726"><ele>217.0</ele><time>2026-04-03T16:54:18.999Z</time></trkpt><trkpt lat="42.652958496231" lon="11.379955694162076"><ele>218.0</ele><time>2026-04-03T16:54:19.999Z</time></trkpt><trkpt lat="42.65313786176982" lon="11.379938672496545"><ele>218.0</ele><time>2026-04-03T16:54:20.999Z</time></trkpt><trkpt lat="42.65334201885533" lon="11.379938880626824"><ele>218.0</ele><time>2026-04-03T16:54:21.999Z</time></trkpt><trkpt lat="42.653548053448034" lon="11.37992588854402"><ele>218.0</ele><time>2026-04-03T16:54:22.999Z</time></trkpt><trkpt lat="42.65371969856029" lon="11.3799282978759"><ele>219.33333333333334</ele><time>2026-04-03T16:54:23.999Z</time></trkpt><trkpt lat="42.65386645962434" lon="11.379910644821683"><ele>220.66666666666669</ele><time>2026-04-03T16:54:24.999Z</time></trkpt><trkpt lat="42.65399791455069" lon="11.379837889239907"><ele>222.0</ele><time>2026-04-03T16:54:25.999Z</time></trkpt><trkpt lat="42.654120240847156" lon="11.379685578554223"><ele>225.33333333333331</ele><time>2026-04-03T16:54:26.999Z</time></trkpt><trkpt lat="42.65425559602087" lon="11.379506158925428"><ele>228.66666666666666</ele><time>2026-04-03T16:54:27.999Z</time></trkpt><trkpt lat="42.65440923743185" lon="11.379335042453123"><ele>232.0</ele><time>2026-04-03T16:54:28.999Z</time></trkpt><trkpt lat="42.654557705526045" lon="11.379171855795029"><ele>232.33333333333331</ele><time>2026-04-03T16:54:29.999Z</time></trkpt><trkpt lat="42.65469453006509" lon="11.379023923720528"><ele>232.66666666666669</ele><time>2026-04-03T16:54:30.999Z</time></trkpt><trkpt lat="42.65481569852974" lon="11.378887149579876"><ele>233.0</ele><time>2026-04-03T16:54:31.999Z</time></trkpt><trkpt lat="42.65492834492825" lon="11.378760897309668"><ele>233.33333333333334</ele><time>2026-04-03T16:54:32.999Z</time></trkpt><trkpt lat="42.65506131457522" lon="11.378641031428218"><ele>233.66666666666669</ele><time>2026-04-03T16:54:33.999Z</time></trkpt><trkpt lat="42.655229018648654" lon="11.378567670541191"><ele>234.0</ele><time>2026-04-03T16:54:34.999Z</time></trkpt><trkpt lat="42.65540957797996" lon="11.378465002348516"><ele>234.0</ele><time>2026-04-03T16:54:35.999Z</time></trkpt><trkpt lat="42.65561028074069" lon="11.378373563335334"><ele>234.0</ele><time>2026-04-03T16:54:36.999Z</time></trkpt><trkpt lat="42.655815327814445" lon="11.378274255746417"><ele>234.0</ele><time>2026-04-03T16:54:37.999Z</time></trkpt><trkpt lat="42.656020482340345" lon="11.378164375275997"><ele>234.0</ele><time>2026-04-03T16:54:38.999Z</time></trkpt><trkpt lat="42.65621025843734" lon="11.378067569356109"><ele>234.0</ele><time>2026-04-03T16:54:39.999Z</time></trkpt><trkpt lat="42.65639487840096" lon="11.377972675071579"><ele>234.0</ele><time>2026-04-03T16:54:40.999Z</time></trkpt><trkpt lat="42.656571991814275" lon="11.377885359387003"><ele>234.0</ele><time>2026-04-03T16:54:41.999Z</time></trkpt><trkpt lat="42.65675946424895" lon="11.377779961184691"><ele>234.0</ele><time>2026-04-03T16:54:42.999Z</time></trkpt><trkpt lat="42.656944290874804" lon="11.377682154559253"><ele>234.0</ele><time>2026-04-03T16:54:43.999Z</time></trkpt><trkpt lat="42.65711308808516" lon="11.377595884208171"><ele>236.0</ele><time>2026-04-03T16:54:44.999Z</time></trkpt><trkpt lat="42.65726899650144" lon="11.377512885729667"><ele>238.0</ele><time>2026-04-03T16:54:45.999Z</time></trkpt><trkpt lat="42.65741166848975" lon="11.377439833388324"><ele>240.0</ele><time>2026-04-03T16:54:46.999Z</time></trkpt><trkpt lat="42.65754315785031" lon="11.377372812310831"><ele>240.0</ele><time>2026-04-03T16:54:47.999Z</time></trkpt><trkpt lat="42.65766989596087" lon="11.377322205530069"><ele>240.0</ele><time>2026-04-03T16:54:48.999Z</time></trkpt><trkpt lat="42.65780472339529" lon="11.377310118586259"><ele>240.0</ele><time>2026-04-03T16:54:50Z</time></trkpt><trkpt lat="42.65796387717453" lon="11.37735655840294"><ele>240.0</ele><time>2026-04-03T16:54:51Z</time></trkpt><trkpt lat="42.6581297617857" lon="11.377446921224012"><ele>240.0</ele><time>2026-04-03T16:54:52Z</time></trkpt><trkpt lat="42.658304567574085" lon="11.377549371332629"><ele>240.0</ele><time>2026-04-03T16:54:53Z</time></trkpt><trkpt lat="42.65847795965408" lon="11.377631679902546"><ele>240.0</ele><time>2026-04-03T16:54:54Z</time></trkpt><trkpt lat="42.65864754754176" lon="11.377704207333863"><ele>240.0</ele><time>2026-04-03T16:54:55Z</time></trkpt><trkpt lat="42.65882389119357" lon="11.377772305613517"><ele>240.0</ele><time>2026-04-03T16:54:56Z</time></trkpt><trkpt lat="42.65899876011634" lon="11.377838974465657"><ele>240.0</ele><time>2026-04-03T16:54:57Z</time></trkpt><trkpt lat="42.659172827109394" lon="11.377903983465071"><ele>240.0</ele><time>2026-04-03T16:54:58Z</time></trkpt><trkpt lat="42.659342704593506" lon="11.377963946200165"><ele>240.0</ele><time>2026-04-03T16:54:59Z</time></trkpt><trkpt lat="42.65953214327813" lon="11.378006234887094"><ele>240.0</ele><time>2026-04-03T16:55:00Z</time></trkpt><trkpt lat="42.65973958835313" lon="11.378005598880579"><ele>239.66666666666669</ele><time>2026-04-03T16:55:01Z</time></trkpt><trkpt lat="42.65995616936801" lon="11.377969256649038"><ele>239.33333333333334</ele><time>2026-04-03T16:55:02Z</time></trkpt><trkpt lat="42.66018445700989" lon="11.377936894553033"><ele>239.0</ele><time>2026-04-03T16:55:03Z</time></trkpt><trkpt lat="42.66040209159939" lon="11.377898608287877"><ele>240.66666666666669</ele><time>2026-04-03T16:55:04Z</time></trkpt><trkpt lat="42.660604003325695" lon="11.377869003332332"><ele>242.33333333333331</ele><time>2026-04-03T16:55:05Z</time></trkpt><trkpt lat="42.66080321294015" lon="11.377846994178952"><ele>244.0</ele><time>2026-04-03T16:55:06Z</time></trkpt><trkpt lat="42.66100519504946" lon="11.377853685872411"><ele>246.33333333333331</ele><time>2026-04-03T16:55:07Z</time></trkpt><trkpt lat="42.6612208281888" lon="11.377894160237702"><ele>248.66666666666669</ele><time>2026-04-03T16:55:08Z</time></trkpt><trkpt lat="42.66143882038408" lon="11.377939512611569"><ele>251.0</ele><time>2026-04-03T16:55:09Z</time></trkpt><trkpt lat="42.661652455073416" lon="11.37796714318438"><ele>251.0</ele><time>2026-04-03T16:55:10Z</time></trkpt><trkpt lat="42.66186431761921" lon="11.377972897805856"><ele>251.0</ele><time>2026-04-03T16:55:11Z</time></trkpt><trkpt lat="42.66208448713986" lon="11.377932446065364"><ele>251.0</ele><time>2026-04-03T16:55:12Z</time></trkpt><trkpt lat="42.66229997684969" lon="11.377903774023837"><ele>253.33333333333334</ele><time>2026-04-03T16:55:12.999Z</time></trkpt><trkpt lat="42.66252428149042" lon="11.37788359587863"><ele>255.66666666666669</ele><time>2026-04-03T16:55:13.999Z</time></trkpt><trkpt lat="42.662733981779205" lon="11.37785137508899"><ele>258.0</ele><time>2026-04-03T16:55:14.999Z</time></trkpt><trkpt lat="42.66292227135105" lon="11.377831586966746"><ele>259.0</ele><time>2026-04-03T16:55:15.999Z</time></trkpt><trkpt lat="42.66309557264437" lon="11.377808023377282"><ele>260.0</ele><time>2026-04-03T16:55:16.999Z</time></trkpt><trkpt lat="42.66325470400199" lon="11.377786712635467"><ele>261.0</ele><time>2026-04-03T16:55:17.999Z</time></trkpt><trkpt lat="42.66341212445795" lon="11.377783093093376"><ele>261.0</ele><time>2026-04-03T16:55:18.999Z</time></trkpt><trkpt lat="42.66357997473934" lon="11.377804861669242"><ele>261.0</ele><time>2026-04-03T16:55:19.999Z</time></trkpt><trkpt lat="42.6637589346064" lon="11.377857437505718"><ele>261.0</ele><time>2026-04-03T16:55:20.999Z</time></trkpt><trkpt lat="42.66393579144033" lon="11.377923636454767"><ele>261.6666666666667</ele><time>2026-04-03T16:55:21.999Z</time></trkpt><trkpt lat="42.66410065121381" lon="11.377979222137053"><ele>262.33333333333337</ele><time>2026-04-03T16:55:22.999Z</time></trkpt><trkpt lat="42.66425906675078" lon="11.378017866494783"><ele>263.0</ele><time>2026-04-03T16:55:23.999Z</time></trkpt><trkpt lat="42.66442920418069" lon="11.378022428441573"><ele>264.0</ele><time>2026-04-03T16:55:24.999Z</time></trkpt><trkpt lat="42.66461579601023" lon="11.377999322993443"><ele>265.0</ele><time>2026-04-03T16:55:25.999Z</time></trkpt><trkpt lat="42.66481258426131" lon="11.377974965234388"><ele>266.0</ele><time>2026-04-03T16:55:26.999Z</time></trkpt><trkpt lat="42.665011248551814" lon="11.377941251913196"><ele>266.0</ele><time>2026-04-03T16:55:27.999Z</time></trkpt><trkpt lat="42.66521901538082" lon="11.377908123194718"><ele>266.0</ele><time>2026-04-03T16:55:28.999Z</time></trkpt><trkpt lat="42.665418086732124" lon="11.377875831790329"><ele>266.0</ele><time>2026-04-03T16:55:29.999Z</time></trkpt><trkpt lat="42.66561470985103" lon="11.377850753188296"><ele>268.6666666666667</ele><time>2026-04-03T16:55:30.999Z</time></trkpt><trkpt lat="42.66580899257569" lon="11.377819831175778"><ele>271.3333333333333</ele><time>2026-04-03T16:55:31.999Z</time></trkpt><trkpt lat="42.66598313613466" lon="11.37779064277155"><ele>274.0</ele><time>2026-04-03T16:55:32.999Z</time></trkpt><trkpt lat="42.66613506966775" lon="11.377731100336725"><ele>277.66666666666663</ele><time>2026-04-03T16:55:33.999Z</time></trkpt><trkpt lat="42.66628107435776" lon="11.377652078981889"><ele>281.3333333333333</ele><time>2026-04-03T16:55:34.999Z</time></trkpt><trkpt lat="42.66641765795164" lon="11.377494145465683"><ele>285.0</ele><time>2026-04-03T16:55:35.999Z</time></trkpt><trkpt lat="42.66654852347318" lon="11.37732671757213"><ele>287.0</ele><time>2026-04-03T16:55:36.999Z</time></trkpt><trkpt lat="42.66669140859419" lon="11.377165510536688"><ele>289.0</ele><time>2026-04-03T16:55:37.999Z</time></trkpt><trkpt lat="42.66684276699554" lon="11.377000249475646"><ele>291.0</ele><time>2026-04-03T16:55:38.999Z</time></trkpt><trkpt lat="42.666996259727284" lon="11.376844690410469"><ele>291.0</ele><time>2026-04-03T16:55:39.999Z</time></trkpt><trkpt lat="42.667147302993754" lon="11.376681756049496"><ele>291.0</ele><time>2026-04-03T16:55:40.999Z</time></trkpt><trkpt lat="42.66730054736801" lon="11.37654222694596"><ele>291.0</ele><time>2026-04-03T16:55:41.999Z</time></trkpt><trkpt lat="42.6674398541386" lon="11.376419631289304"><ele>288.3333333333333</ele><time>2026-04-03T16:55:42.999Z</time></trkpt><trkpt lat="42.667566485116026" lon="11.376302788465178"><ele>285.66666666666663</ele><time>2026-04-03T16:55:43.999Z</time></trkpt><trkpt lat="42.66768347624148" lon="11.376180941424911"><ele>283.0</ele><time>2026-04-03T16:55:44.999Z</time></trkpt><trkpt lat="42.66781380569897" lon="11.376041836770062"><ele>288.0</ele><time>2026-04-03T16:55:45.999Z</time></trkpt><trkpt lat="42.667930729559124" lon="11.3758619168351"><ele>293.0</ele><time>2026-04-03T16:55:46.999Z</time></trkpt><trkpt lat="42.66803799793034" lon="11.375650234966034"><ele>298.0</ele><time>2026-04-03T16:55:47.999Z</time></trkpt><trkpt lat="42.668136229929814" lon="11.375424802925028"><ele>298.0</ele><time>2026-04-03T16:55:48.999Z</time></trkpt><trkpt lat="42.66820845915339" lon="11.37520667265506"><ele>298.0</ele><time>2026-04-03T16:55:49.999Z</time></trkpt><trkpt lat="42.66825514353581" lon="11.37500756901386"><ele>298.0</ele><time>2026-04-03T16:55:50.999Z</time></trkpt><trkpt lat="42.66828293865231" lon="11.374791828593112"><ele>296.5</ele><time>2026-04-03T16:55:51.999Z</time></trkpt><trkpt lat="42.66831823509464" lon="11.374589651276382"><ele>295.0</ele><time>2026-04-03T16:55:52.999Z</time></trkpt><trkpt lat="42.66836251204931" lon="11.374422124607156"><ele>293.5</ele><time>2026-04-03T16:55:53.999Z</time></trkpt><trkpt lat="42.66843195529797" lon="11.374261137214223"><ele>292.0</ele><time>2026-04-03T16:55:54.999Z</time></trkpt><trkpt lat="42.668552123014145" lon="11.374113133156321"><ele>293.66666666666663</ele><time>2026-04-03T16:55:55.999Z</time></trkpt><trkpt lat="42.668690734564365" lon="11.37396210724386"><ele>295.3333333333333</ele><time>2026-04-03T16:55:56.999Z</time></trkpt><trkpt lat="42.668813034637324" lon="11.373809001638215"><ele>297.0</ele><time>2026-04-03T16:55:57.999Z</time></trkpt><trkpt lat="42.668936944090184" lon="11.373662235397509"><ele>297.0</ele><time>2026-04-03T16:55:58.999Z</time></trkpt><trkpt lat="42.66907961405602" lon="11.373491577928222"><ele>297.0</ele><time>2026-04-03T16:55:59.999Z</time></trkpt><trkpt lat="42.66923064296205" lon="11.373314038592541"><ele>297.0</ele><time>2026-04-03T16:56:00.999Z</time></trkpt><trkpt lat="42.669381464962456" lon="11.37312832472715"><ele>300.0</ele><time>2026-04-03T16:56:01.999Z</time></trkpt><trkpt lat="42.66952916566722" lon="11.372945208935764"><ele>303.0</ele><time>2026-04-03T16:56:02.999Z</time></trkpt><trkpt lat="42.669677113513224" lon="11.372768619280448"><ele>306.0</ele><time>2026-04-03T16:56:03.999Z</time></trkpt><trkpt lat="42.66982660108267" lon="11.372595945488007"><ele>306.0</ele><time>2026-04-03T16:56:04.999Z</time></trkpt><trkpt lat="42.669971066870716" lon="11.372420716414386"><ele>306.0</ele><time>2026-04-03T16:56:05.999Z</time></trkpt><trkpt lat="42.670116767567194" lon="11.37224152081244"><ele>306.0</ele><time>2026-04-03T16:56:06.999Z</time></trkpt><trkpt lat="42.67025989598459" lon="11.372064166156528"><ele>307.0</ele><time>2026-04-03T16:56:07.999Z</time></trkpt><trkpt lat="42.670408855254536" lon="11.371895415076338"><ele>308.0</ele><time>2026-04-03T16:56:08.999Z</time></trkpt><trkpt lat="42.67053793483852" lon="11.371737768706474"><ele>309.0</ele><time>2026-04-03T16:56:09.999Z</time></trkpt><trkpt lat="42.670655459988566" lon="11.371592473613777"><ele>309.0</ele><time>2026-04-03T16:56:10.999Z</time></trkpt><trkpt lat="42.670765406968165" lon="11.371463146147738"><ele>309.0</ele><time>2026-04-03T16:56:11.999Z</time></trkpt><trkpt lat="42.67086849737293" lon="11.371351372722078"><ele>309.0</ele><time>2026-04-03T16:56:12.999Z</time></trkpt><trkpt lat="42.67098708387085" lon="11.371273334447334"><ele>309.0</ele><time>2026-04-03T16:56:13.999Z</time></trkpt><trkpt lat="42.67113079221352" lon="11.371229599691167"><ele>308.6666666666667</ele><time>2026-04-03T16:56:14.999Z</time></trkpt><trkpt lat="42.671297744934726" lon="11.3712125112397"><ele>308.33333333333337</ele><time>2026-04-03T16:56:15.999Z</time></trkpt><trkpt lat="42.67147335380828" lon="11.37119214788195"><ele>308.0</ele><time>2026-04-03T16:56:16.999Z</time></trkpt><trkpt lat="42.67165621737942" lon="11.371162314789595"><ele>308.0</ele><time>2026-04-03T16:56:17.999Z</time></trkpt><trkpt lat="42.67184468337582" lon="11.37113285368626"><ele>308.0</ele><time>2026-04-03T16:56:18.999Z</time></trkpt><trkpt lat="42.672045205877964" lon="11.371102655689244"><ele>308.0</ele><time>2026-04-03T16:56:19.999Z</time></trkpt><trkpt lat="42.672254717537655" lon="11.371072000751962"><ele>308.33333333333337</ele><time>2026-04-03T16:56:20.999Z</time></trkpt><trkpt lat="42.672458108536205" lon="11.371048737402605"><ele>308.6666666666667</ele><time>2026-04-03T16:56:21.999Z</time></trkpt><trkpt lat="42.67265749285898" lon="11.371023056922336"><ele>309.0</ele><time>2026-04-03T16:56:22.999Z</time></trkpt><trkpt lat="42.67285260580374" lon="11.370997892949536"><ele>311.6666666666667</ele><time>2026-04-03T16:56:23.999Z</time></trkpt><trkpt lat="42.673045198870966" lon="11.370973895785218"><ele>314.33333333333337</ele><time>2026-04-03T16:56:24.999Z</time></trkpt><trkpt lat="42.673232204422945" lon="11.370945370654946"><ele>317.0</ele><time>2026-04-03T16:56:25.999Z</time></trkpt><trkpt lat="42.673423480100354" lon="11.37091627818358"><ele>319.0</ele><time>2026-04-03T16:56:26.999Z</time></trkpt><trkpt lat="42.673627392828216" lon="11.370887198872184"><ele>321.0</ele><time>2026-04-03T16:56:27.999Z</time></trkpt><trkpt lat="42.67383978096909" lon="11.370858734561544"><ele>323.0</ele><time>2026-04-03T16:56:28.999Z</time></trkpt><trkpt lat="42.67405484871627" lon="11.370816650313065"><ele>323.0</ele><time>2026-04-03T16:56:29.999Z</time></trkpt><trkpt lat="42.674240700682006" lon="11.370778416579798"><ele>323.0</ele><time>2026-04-03T16:56:30.999Z</time></trkpt><trkpt lat="42.674417908623084" lon="11.370706338798927"><ele>323.0</ele><time>2026-04-03T16:56:31.999Z</time></trkpt><trkpt lat="42.674581013075475" lon="11.370666234307109"><ele>325.0</ele><time>2026-04-03T16:56:32.999Z</time></trkpt><trkpt lat="42.674735176366525" lon="11.370618296131399"><ele>327.0</ele><time>2026-04-03T16:56:33.999Z</time></trkpt><trkpt lat="42.67488248820436" lon="11.37057559569006"><ele>329.0</ele><time>2026-04-03T16:56:34.999Z</time></trkpt><trkpt lat="42.67502336919949" lon="11.370468313310987"><ele>328.0</ele><time>2026-04-03T16:56:35.999Z</time></trkpt><trkpt lat="42.67514552799078" lon="11.37029107285295"><ele>327.0</ele><time>2026-04-03T16:56:36.999Z</time></trkpt><trkpt lat="42.67526889696486" lon="11.370084128009175"><ele>326.0</ele><time>2026-04-03T16:56:37.999Z</time></trkpt><trkpt lat="42.67540240101665" lon="11.36987572301298"><ele>324.6666666666667</ele><time>2026-04-03T16:56:38.999Z</time></trkpt><trkpt lat="42.67553624383743" lon="11.36965690361575"><ele>323.3333333333333</ele><time>2026-04-03T16:56:39.999Z</time></trkpt><trkpt lat="42.675668902167416" lon="11.369445317700935"><ele>322.0</ele><time>2026-04-03T16:56:40.999Z</time></trkpt><trkpt lat="42.67579471788496" lon="11.36924342883967"><ele>322.0</ele><time>2026-04-03T16:56:41.999Z</time></trkpt><trkpt lat="42.67591813034467" lon="11.369053134132129"><ele>322.0</ele><time>2026-04-03T16:56:43Z</time></trkpt><trkpt lat="42.67605122480099" lon="11.368858031858222"><ele>322.0</ele><time>2026-04-03T16:56:44Z</time></trkpt><trkpt lat="42.676191520930196" lon="11.368677105271738"><ele>326.0</ele><time>2026-04-03T16:56:45Z</time></trkpt><trkpt lat="42.676356389546896" lon="11.368490210181644"><ele>330.0</ele><time>2026-04-03T16:56:46Z</time></trkpt><trkpt lat="42.67653010872207" lon="11.368299504691038"><ele>334.0</ele><time>2026-04-03T16:56:47Z</time></trkpt><trkpt lat="42.676689588581596" lon="11.368097689050751"><ele>335.3333333333333</ele><time>2026-04-03T16:56:48Z</time></trkpt><trkpt lat="42.67683762364635" lon="11.367929819559556"><ele>336.6666666666667</ele><time>2026-04-03T16:56:49Z</time></trkpt><trkpt lat="42.67698200306137" lon="11.367767230597991"><ele>338.0</ele><time>2026-04-03T16:56:50Z</time></trkpt><trkpt lat="42.67712218713785" lon="11.36760196667686"><ele>338.0</ele><time>2026-04-03T16:56:51Z</time></trkpt><trkpt lat="42.67726838872909" lon="11.367436274459488"><ele>338.0</ele><time>2026-04-03T16:56:52Z</time></trkpt><trkpt lat="42.67741128594646" lon="11.367267316879369"><ele>338.0</ele><time>2026-04-03T16:56:53Z</time></trkpt><trkpt lat="42.67755618819917" lon="11.367095180551352"><ele>341.0</ele><time>2026-04-03T16:56:54Z</time></trkpt><trkpt lat="42.677698076702434" lon="11.366931496032322"><ele>344.0</ele><time>2026-04-03T16:56:55Z</time></trkpt><trkpt lat="42.67783957293387" lon="11.366766425713125"><ele>347.0</ele><time>2026-04-03T16:56:56Z</time></trkpt><trkpt lat="42.677971579722936" lon="11.36661315459916"><ele>347.0</ele><time>2026-04-03T16:56:57Z</time></trkpt><trkpt lat="42.67809993939023" lon="11.366464812778496"><ele>347.0</ele><time>2026-04-03T16:56:58Z</time></trkpt><trkpt lat="42.67823984299457" lon="11.366306778653408"><ele>347.0</ele><time>2026-04-03T16:56:59Z</time></trkpt><trkpt lat="42.67837838922838" lon="11.36614447958978"><ele>349.33333333333337</ele><time>2026-04-03T16:57:00Z</time></trkpt><trkpt lat="42.678514646205244" lon="11.365988489395033"><ele>351.6666666666667</ele><time>2026-04-03T16:57:01Z</time></trkpt><trkpt lat="42.67865113073927" lon="11.365831405193832"><ele>354.0</ele><time>2026-04-03T16:57:02Z</time></trkpt><trkpt lat="42.67878583026539" lon="11.36567319304095"><ele>350.3333333333333</ele><time>2026-04-03T16:57:03Z</time></trkpt><trkpt lat="42.67891996458007" lon="11.36551673173667"><ele>346.66666666666663</ele><time>2026-04-03T16:57:04Z</time></trkpt><trkpt lat="42.679048646716545" lon="11.365362810401976"><ele>343.0</ele><time>2026-04-03T16:57:05Z</time></trkpt><trkpt lat="42.67916818107633" lon="11.365196790793101"><ele>343.0</ele><time>2026-04-03T16:57:06Z</time></trkpt><trkpt lat="42.6792656590595" lon="11.365005591411727"><ele>343.0</ele><time>2026-04-03T16:57:07Z</time></trkpt><trkpt lat="42.67934075477204" lon="11.364770135369248"><ele>343.0</ele><time>2026-04-03T16:57:08Z</time></trkpt><trkpt lat="42.67939169701898" lon="11.364529701804269"><ele>346.66666666666663</ele><time>2026-04-03T16:57:09Z</time></trkpt><trkpt lat="42.6794378455986" lon="11.36430754927314"><ele>350.3333333333333</ele><time>2026-04-03T16:57:10Z</time></trkpt><trkpt lat="42.679483992303155" lon="11.364094976995956"><ele>354.0</ele><time>2026-04-03T16:57:11Z</time></trkpt><trkpt lat="42.67952798713212" lon="11.363883738362276"><ele>354.25</ele><time>2026-04-03T16:57:12Z</time></trkpt><trkpt lat="42.679567450851366" lon="11.363690860843219"><ele>354.5</ele><time>2026-04-03T16:57:13Z</time></trkpt><trkpt lat="42.67960434779791" lon="11.363508735025718"><ele>354.75</ele><time>2026-04-03T16:57:14Z</time></trkpt><trkpt lat="42.67963963978303" lon="11.363327111414389"><ele>355.0</ele><time>2026-04-03T16:57:15Z</time></trkpt><trkpt lat="42.67967375201476" lon="11.36314845828952"><ele>355.0</ele><time>2026-04-03T16:57:16Z</time></trkpt><trkpt lat="42.679707298866724" lon="11.362965770433052"><ele>355.0</ele><time>2026-04-03T16:57:17Z</time></trkpt><trkpt lat="42.67974374674536" lon="11.362780034112077"><ele>355.0</ele><time>2026-04-03T16:57:18Z</time></trkpt><trkpt lat="42.67978609289836" lon="11.362576706779864"><ele>355.0</ele><time>2026-04-03T16:57:19Z</time></trkpt><trkpt lat="42.67983361808308" lon="11.362352286169774"><ele>355.3333333333333</ele><time>2026-04-03T16:57:20Z</time></trkpt><trkpt lat="42.67988021582534" lon="11.362111448043631"><ele>355.6666666666667</ele><time>2026-04-03T16:57:21Z</time></trkpt><trkpt lat="42.67992229907434" lon="11.3618682056079"><ele>356.0</ele><time>2026-04-03T16:57:22Z</time></trkpt><trkpt lat="42.67995245178941" lon="11.361627346441416"><ele>356.0</ele><time>2026-04-03T16:57:23Z</time></trkpt><trkpt lat="42.67996204977185" lon="11.361383650404898"><ele>356.0</ele><time>2026-04-03T16:57:24Z</time></trkpt><trkpt lat="42.67995443928153" lon="11.361121967582797"><ele>356.0</ele><time>2026-04-03T16:57:25Z</time></trkpt><trkpt lat="42.67993431991063" lon="11.360871964660584"><ele>358.6666666666667</ele><time>2026-04-03T16:57:26Z</time></trkpt><trkpt lat="42.679914491243736" lon="11.360635945547592"><ele>361.3333333333333</ele><time>2026-04-03T16:57:27Z</time></trkpt><trkpt lat="42.6798987606853" lon="11.360409152250641"><ele>364.0</ele><time>2026-04-03T16:57:28Z</time></trkpt><trkpt lat="42.67988893849591" lon="11.360191692074318"><ele>364.0</ele><time>2026-04-03T16:57:29Z</time></trkpt><trkpt lat="42.67989217354942" lon="11.35996961477087"><ele>364.0</ele><time>2026-04-03T16:57:30Z</time></trkpt><trkpt lat="42.67991516963425" lon="11.359741602486574"><ele>364.0</ele><time>2026-04-03T16:57:31Z</time></trkpt><trkpt lat="42.67995213059888" lon="11.359522808000673"><ele>364.0</ele><time>2026-04-03T16:57:32Z</time></trkpt><trkpt lat="42.67999261446235" lon="11.359308443968406"><ele>364.0</ele><time>2026-04-03T16:57:33Z</time></trkpt><trkpt lat="42.68003778730105" lon="11.35909656910321"><ele>364.0</ele><time>2026-04-03T16:57:34Z</time></trkpt><trkpt lat="42.680081809563376" lon="11.358886350272394"><ele>363.75</ele><time>2026-04-03T16:57:35Z</time></trkpt><trkpt lat="42.68012620439472" lon="11.35869701620399"><ele>363.5</ele><time>2026-04-03T16:57:36Z</time></trkpt><trkpt lat="42.68017620378614" lon="11.358533444507785"><ele>363.25</ele><time>2026-04-03T16:57:37Z</time></trkpt><trkpt lat="42.68024270321176" lon="11.35838727686551"><ele>363.0</ele><time>2026-04-03T16:57:38Z</time></trkpt><trkpt lat="42.68033888418387" lon="11.358242112082404"><ele>364.0</ele><time>2026-04-03T16:57:39Z</time></trkpt><trkpt lat="42.68046859157149" lon="11.358112845257471"><ele>365.0</ele><time>2026-04-03T16:57:40Z</time></trkpt><trkpt lat="42.680620654027074" lon="11.35800877608186"><ele>366.0</ele><time>2026-04-03T16:57:40.999Z</time></trkpt><trkpt lat="42.68077901135515" lon="11.357926151067144"><ele>366.0</ele><time>2026-04-03T16:57:41.999Z</time></trkpt><trkpt lat="42.68093378603268" lon="11.357846440876827"><ele>366.0</ele><time>2026-04-03T16:57:42.999Z</time></trkpt><trkpt lat="42.6810860071463" lon="11.35776921878026"><ele>366.0</ele><time>2026-04-03T16:57:43.999Z</time></trkpt><trkpt lat="42.6812387728403" lon="11.357693815475454"><ele>368.3333333333333</ele><time>2026-04-03T16:57:44.999Z</time></trkpt><trkpt lat="42.681399005338704" lon="11.357612994719403"><ele>370.66666666666663</ele><time>2026-04-03T16:57:45.999Z</time></trkpt><trkpt lat="42.681542758938654" lon="11.357537053246729"><ele>373.0</ele><time>2026-04-03T16:57:46.999Z</time></trkpt><trkpt lat="42.68168164481659" lon="11.357469553504417"><ele>373.0</ele><time>2026-04-03T16:57:47.999Z</time></trkpt><trkpt lat="42.68182165974741" lon="11.357385196917868"><ele>373.0</ele><time>2026-04-03T16:57:48.999Z</time></trkpt><trkpt lat="42.68193983669316" lon="11.357260846280177"><ele>373.0</ele><time>2026-04-03T16:57:49.999Z</time></trkpt><trkpt lat="42.6820204406958" lon="11.357096650488856"><ele>373.0</ele><time>2026-04-03T16:57:50.999Z</time></trkpt><trkpt lat="42.68206999263527" lon="11.356890006999212"><ele>377.66666666666663</ele><time>2026-04-03T16:57:51.999Z</time></trkpt><trkpt lat="42.68208484428123" lon="11.356649631633228"><ele>382.3333333333333</ele><time>2026-04-03T16:57:52.999Z</time></trkpt><trkpt lat="42.68210241264383" lon="11.356401457311886"><ele>387.0</ele><time>2026-04-03T16:57:53.999Z</time></trkpt><trkpt lat="42.68213021987211" lon="11.35615248524204"><ele>386.33333333333337</ele><time>2026-04-03T16:57:54.999Z</time></trkpt><trkpt lat="42.68215483658392" lon="11.355926782358843"><ele>385.6666666666667</ele><time>2026-04-03T16:57:55.999Z</time></trkpt><trkpt lat="42.68217528941244" lon="11.355721368876083"><ele>385.0</ele><time>2026-04-03T16:57:56.999Z</time></trkpt><trkpt lat="42.68219848489583" lon="11.355534903631716"><ele>385.0</ele><time>2026-04-03T16:57:57.999Z</time></trkpt><trkpt lat="42.682243170607386" lon="11.355342862175364"><ele>385.0</ele><time>2026-04-03T16:57:58.999Z</time></trkpt><trkpt lat="42.68232521691119" lon="11.355151461726033"><ele>385.0</ele><time>2026-04-03T16:57:59.999Z</time></trkpt><trkpt lat="42.68244438195376" lon="11.354970670761654"><ele>385.0</ele><time>2026-04-03T16:58:00.999Z</time></trkpt><trkpt lat="42.68257559010663" lon="11.354799087291116"><ele>385.0</ele><time>2026-04-03T16:58:01.999Z</time></trkpt><trkpt lat="42.682702231652705" lon="11.354637448892994"><ele>385.0</ele><time>2026-04-03T16:58:02.999Z</time></trkpt><trkpt lat="42.682817130640295" lon="11.354488891751997"><ele>386.33333333333337</ele><time>2026-04-03T16:58:03.999Z</time></trkpt><trkpt lat="42.68293162372507" lon="11.354344613972764"><ele>387.66666666666663</ele><time>2026-04-03T16:58:04.999Z</time></trkpt><trkpt lat="42.68305322614529" lon="11.354195357531305"><ele>389.0</ele><time>2026-04-03T16:58:05.999Z</time></trkpt><trkpt lat="42.68317514720424" lon="11.35405225083269"><ele>389.0</ele><time>2026-04-03T16:58:06.999Z</time></trkpt><trkpt lat="42.68330874305064" lon="11.353938872477128"><ele>389.0</ele><time>2026-04-03T16:58:07.999Z</time></trkpt><trkpt lat="42.68345555561818" lon="11.353870724597074"><ele>389.0</ele><time>2026-04-03T16:58:08.999Z</time></trkpt><trkpt lat="42.68361854591694" lon="11.353829162059304"><ele>388.0</ele><time>2026-04-03T16:58:09.999Z</time></trkpt><trkpt lat="42.68379515755904" lon="11.35381017088179"><ele>387.0</ele><time>2026-04-03T16:58:10.999Z</time></trkpt><trkpt lat="42.68397238155806" lon="11.353802633121472"><ele>386.0</ele><time>2026-04-03T16:58:11.999Z</time></trkpt><trkpt lat="42.684138579447406" lon="11.353792921810381"><ele>386.0</ele><time>2026-04-03T16:58:12.999Z</time></trkpt><trkpt lat="42.68429081705922" lon="11.353776609239443"><ele>386.0</ele><time>2026-04-03T16:58:13.999Z</time></trkpt><trkpt lat="42.684441688871566" lon="11.353747020399123"><ele>386.0</ele><time>2026-04-03T16:58:14.999Z</time></trkpt><trkpt lat="42.68458755218994" lon="11.353668241033334"><ele>389.0</ele><time>2026-04-03T16:58:15.999Z</time></trkpt><trkpt lat="42.68471821207275" lon="11.353517082778673"><ele>392.0</ele><time>2026-04-03T16:58:16.999Z</time></trkpt><trkpt lat="42.68484257160472" lon="11.35332257379082"><ele>395.0</ele><time>2026-04-03T16:58:17.999Z</time></trkpt><trkpt lat="42.684970289700274" lon="11.353111117791455"><ele>395.3333333333333</ele><time>2026-04-03T16:58:18.999Z</time></trkpt><trkpt lat="42.68510540917356" lon="11.352894724928284"><ele>395.66666666666663</ele><time>2026-04-03T16:58:19.999Z</time></trkpt><trkpt lat="42.68524084535515" lon="11.352670769896454"><ele>396.0</ele><time>2026-04-03T16:58:20.999Z</time></trkpt><trkpt lat="42.685365526862604" lon="11.352456718650556"><ele>396.0</ele><time>2026-04-03T16:58:21.999Z</time></trkpt><trkpt lat="42.68548953925724" lon="11.352246130791743"><ele>396.0</ele><time>2026-04-03T16:58:22.999Z</time></trkpt><trkpt lat="42.68562229629686" lon="11.352029462953263"><ele>396.0</ele><time>2026-04-03T16:58:23.999Z</time></trkpt><trkpt lat="42.68575078488267" lon="11.351823881207098"><ele>395.66666666666663</ele><time>2026-04-03T16:58:24.999Z</time></trkpt><trkpt lat="42.685873422063835" lon="11.351623174168175"><ele>395.3333333333333</ele><time>2026-04-03T16:58:25.999Z</time></trkpt><trkpt lat="42.68599930534481" lon="11.351409782120335"><ele>395.0</ele><time>2026-04-03T16:58:26.999Z</time></trkpt><trkpt lat="42.68612693581363" lon="11.351209164067011"><ele>398.0</ele><time>2026-04-03T16:58:27.999Z</time></trkpt><trkpt lat="42.68624485068013" lon="11.351012003833544"><ele>401.0</ele><time>2026-04-03T16:58:28.999Z</time></trkpt><trkpt lat="42.68635474779789" lon="11.350825374397187"><ele>404.0</ele><time>2026-04-03T16:58:29.999Z</time></trkpt><trkpt lat="42.68645047246376" lon="11.35064618018648"><ele>406.3333333333333</ele><time>2026-04-03T16:58:30.999Z</time></trkpt><trkpt lat="42.68652657573741" lon="11.350451936307442"><ele>408.66666666666663</ele><time>2026-04-03T16:58:31.999Z</time></trkpt><trkpt lat="42.68657527712043" lon="11.35023272877842"><ele>411.0</ele><time>2026-04-03T16:58:32.999Z</time></trkpt><trkpt lat="42.68659531806012" lon="11.349982708515704"><ele>411.0</ele><time>2026-04-03T16:58:33.999Z</time></trkpt><trkpt lat="42.68658686273652" lon="11.349733440360916"><ele>411.0</ele><time>2026-04-03T16:58:34.999Z</time></trkpt><trkpt lat="42.686555084735325" lon="11.349494289709305"><ele>411.0</ele><time>2026-04-03T16:58:35.999Z</time></trkpt><trkpt lat="42.686524156618944" lon="11.349261677649713"><ele>412.25</ele><time>2026-04-03T16:58:36.999Z</time></trkpt><trkpt lat="42.6865078782569" lon="11.349052187283988"><ele>413.5</ele><time>2026-04-03T16:58:37.999Z</time></trkpt><trkpt lat="42.68647968085853" lon="11.348858652975773"><ele>414.75</ele><time>2026-04-03T16:58:38.999Z</time></trkpt><trkpt lat="42.686447250241905" lon="11.348675818072682"><ele>416.0</ele><time>2026-04-03T16:58:39.999Z</time></trkpt><trkpt lat="42.68642519346018" lon="11.348469706294338"><ele>417.25</ele><time>2026-04-03T16:58:40.999Z</time></trkpt><trkpt lat="42.68644240922924" lon="11.348263844278557"><ele>418.5</ele><time>2026-04-03T16:58:41.999Z</time></trkpt><trkpt lat="42.68648301548843" lon="11.348066738981483"><ele>419.75</ele><time>2026-04-03T16:58:42.999Z</time></trkpt><trkpt lat="42.6865224273279" lon="11.347880395716617"><ele>421.0</ele><time>2026-04-03T16:58:43.999Z</time></trkpt><trkpt lat="42.6865515026984" lon="11.34767288975423"><ele>421.0</ele><time>2026-04-03T16:58:44.999Z</time></trkpt><trkpt lat="42.686595891758486" lon="11.347464858215371"><ele>421.0</ele><time>2026-04-03T16:58:45.999Z</time></trkpt><trkpt lat="42.686642246055825" lon="11.3472871341673"><ele>421.0</ele><time>2026-04-03T16:58:46.999Z</time></trkpt><trkpt lat="42.6866996746743" lon="11.347143235963106"><ele>421.0</ele><time>2026-04-03T16:58:47.999Z</time></trkpt><trkpt lat="42.6867786478256" lon="11.347012967117681"><ele>422.75</ele><time>2026-04-03T16:58:49Z</time></trkpt><trkpt lat="42.68688628989858" lon="11.346895220495941"><ele>424.5</ele><time>2026-04-03T16:58:50Z</time></trkpt><trkpt lat="42.68702028622206" lon="11.346798536322641"><ele>426.25</ele><time>2026-04-03T16:58:51Z</time></trkpt><trkpt lat="42.687173208254976" lon="11.346736628025772"><ele>428.0</ele><time>2026-04-03T16:58:52Z</time></trkpt><trkpt lat="42.687341728773006" lon="11.346684983898932"><ele>428.0</ele><time>2026-04-03T16:58:53Z</time></trkpt><trkpt lat="42.68749603474401" lon="11.346634920002131"><ele>428.0</ele><time>2026-04-03T16:58:54Z</time></trkpt><trkpt lat="42.68763609876518" lon="11.346586768156113"><ele>428.0</ele><time>2026-04-03T16:58:55Z</time></trkpt><trkpt lat="42.68777432011856" lon="11.346537501096446"><ele>428.0</ele><time>2026-04-03T16:58:56Z</time></trkpt><trkpt lat="42.68791015872372" lon="11.34649106310783"><ele>426.0</ele><time>2026-04-03T16:58:57Z</time></trkpt><trkpt lat="42.688047705636585" lon="11.346443532819757"><ele>424.0</ele><time>2026-04-03T16:58:58Z</time></trkpt><trkpt lat="42.68818159336963" lon="11.346395147913602"><ele>422.0</ele><time>2026-04-03T16:58:59Z</time></trkpt><trkpt lat="42.6883199252521" lon="11.346347008746996"><ele>420.0</ele><time>2026-04-03T16:59:00Z</time></trkpt><trkpt lat="42.68845632108898" lon="11.346301299951635"><ele>422.33333333333337</ele><time>2026-04-03T16:59:01Z</time></trkpt><trkpt lat="42.68859677257998" lon="11.346275792680729"><ele>424.6666666666667</ele><time>2026-04-03T16:59:02Z</time></trkpt><trkpt lat="42.68874384264306" lon="11.34627882187421"><ele>427.0</ele><time>2026-04-03T16:59:03Z</time></trkpt><trkpt lat="42.688907856053376" lon="11.34630737929211"><ele>427.0</ele><time>2026-04-03T16:59:04Z</time></trkpt><trkpt lat="42.689065973415744" lon="11.346353268795884"><ele>427.0</ele><time>2026-04-03T16:59:05Z</time></trkpt><trkpt lat="42.689204455164024" lon="11.34639813981066"><ele>427.0</ele><time>2026-04-03T16:59:06Z</time></trkpt><trkpt lat="42.68933497690198" lon="11.346440870542358"><ele>427.0</ele><time>2026-04-03T16:59:07Z</time></trkpt><trkpt lat="42.68947902533072" lon="11.346496016762634"><ele>432.6666666666667</ele><time>2026-04-03T16:59:08Z</time></trkpt><trkpt lat="42.68963245279388" lon="11.346551665360321"><ele>438.33333333333337</ele><time>2026-04-03T16:59:09Z</time></trkpt><trkpt lat="42.68978166759767" lon="11.346602588293102"><ele>444.0</ele><time>2026-04-03T16:59:10Z</time></trkpt><trkpt lat="42.689928707916025" lon="11.346651422253014"><ele>444.0</ele><time>2026-04-03T16:59:11Z</time></trkpt><trkpt lat="42.69006221665204" lon="11.34669170872633"><ele>444.0</ele><time>2026-04-03T16:59:12Z</time></trkpt><trkpt lat="42.690186838524106" lon="11.34671508329117"><ele>444.0</ele><time>2026-04-03T16:59:13Z</time></trkpt><trkpt lat="42.69031542991927" lon="11.346706580139976"><ele>444.0</ele><time>2026-04-03T16:59:14Z</time></trkpt><trkpt lat="42.69045328642011" lon="11.346657543467881"><ele>446.25</ele><time>2026-04-03T16:59:15Z</time></trkpt><trkpt lat="42.69059138454121" lon="11.346572116192487"><ele>448.5</ele><time>2026-04-03T16:59:16Z</time></trkpt><trkpt lat="42.69071038859892" lon="11.346452348517435"><ele>450.75</ele><time>2026-04-03T16:59:17Z</time></trkpt><trkpt lat="42.69079581247307" lon="11.34631351048635"><ele>453.0</ele><time>2026-04-03T16:59:18Z</time></trkpt><trkpt lat="42.69085259666181" lon="11.346159740313233"><ele>454.0</ele><time>2026-04-03T16:59:19Z</time></trkpt><trkpt lat="42.690863862436615" lon="11.345991314309549"><ele>455.0</ele><time>2026-04-03T16:59:20Z</time></trkpt><trkpt lat="42.69082571807132" lon="11.345825531274944"><ele>456.0</ele><time>2026-04-03T16:59:21Z</time></trkpt><trkpt lat="42.69073963538648" lon="11.34568227142356"><ele>457.0</ele><time>2026-04-03T16:59:22Z</time></trkpt><trkpt lat="42.690608001874175" lon="11.345565548620446"><ele>456.33333333333337</ele><time>2026-04-03T16:59:23Z</time></trkpt><trkpt lat="42.69045352526224" lon="11.345459978050839"><ele>455.66666666666663</ele><time>2026-04-03T16:59:24Z</time></trkpt><trkpt lat="42.690319424661475" lon="11.345359399677532"><ele>455.0</ele><time>2026-04-03T16:59:25Z</time></trkpt><trkpt lat="42.69020656145932" lon="11.3452730921794"><ele>455.0</ele><time>2026-04-03T16:59:26Z</time></trkpt><trkpt lat="42.690109747166396" lon="11.345188376025797"><ele>455.0</ele><time>2026-04-03T16:59:27Z</time></trkpt><trkpt lat="42.69002155503895" lon="11.345077377546916"><ele>455.0</ele><time>2026-04-03T16:59:28Z</time></trkpt><trkpt lat="42.68994957633359" lon="11.344925644643563"><ele>455.0</ele><time>2026-04-03T16:59:29Z</time></trkpt><trkpt lat="42.68989579183545" lon="11.344747727597193"><ele>456.75</ele><time>2026-04-03T16:59:30Z</time></trkpt><trkpt lat="42.68986942502226" lon="11.34457114769778"><ele>458.5</ele><time>2026-04-03T16:59:31Z</time></trkpt><trkpt lat="42.68986913828105" lon="11.344411198727798"><ele>460.25</ele><time>2026-04-03T16:59:32Z</time></trkpt><trkpt lat="42.689884991800966" lon="11.344247861943154"><ele>462.0</ele><time>2026-04-03T16:59:33Z</time></trkpt><trkpt lat="42.689913293369116" lon="11.3440806530498"><ele>462.0</ele><time>2026-04-03T16:59:34Z</time></trkpt><trkpt lat="42.68997798780759" lon="11.343921496548335"><ele>462.0</ele><time>2026-04-03T16:59:35Z</time></trkpt><trkpt lat="42.69009539277385" lon="11.343771028681513"><ele>462.0</ele><time>2026-04-03T16:59:36Z</time></trkpt><trkpt lat="42.69021428032871" lon="11.343617862742969"><ele>468.33333333333337</ele><time>2026-04-03T16:59:37Z</time></trkpt><trkpt lat="42.69033754898218" lon="11.343466294953519"><ele>474.6666666666667</ele><time>2026-04-03T16:59:38Z</time></trkpt><trkpt lat="42.69045892494859" lon="11.343328798703553"><ele>481.0</ele><time>2026-04-03T16:59:39Z</time></trkpt><trkpt lat="42.69057606294082" lon="11.343193683609297"><ele>481.0</ele><time>2026-04-03T16:59:40Z</time></trkpt><trkpt lat="42.69068608004499" lon="11.34305961407909"><ele>481.0</ele><time>2026-04-03T16:59:41Z</time></trkpt><trkpt lat="42.690795555206776" lon="11.342934932278737"><ele>481.0</ele><time>2026-04-03T16:59:42Z</time></trkpt><trkpt lat="42.690899106963926" lon="11.34281281945942"><ele>481.0</ele><time>2026-04-03T16:59:43Z</time></trkpt><trkpt lat="42.6909971399453" lon="11.34268498185391"><ele>477.75</ele><time>2026-04-03T16:59:44Z</time></trkpt><trkpt lat="42.691084825585236" lon="11.342558325195398"><ele>474.5</ele><time>2026-04-03T16:59:45Z</time></trkpt><trkpt lat="42.69114733075998" lon="11.342411294830026"><ele>471.25</ele><time>2026-04-03T16:59:46Z</time></trkpt><trkpt lat="42.69117203257875" lon="11.342213949445117"><ele>468.0</ele><time>2026-04-03T16:59:47Z</time></trkpt><trkpt lat="42.691154920457095" lon="11.341996833748896"><ele>471.5</ele><time>2026-04-03T16:59:48Z</time></trkpt><trkpt lat="42.69112497946864" lon="11.341797671767953"><ele>475.0</ele><time>2026-04-03T16:59:49Z</time></trkpt><trkpt lat="42.69110385397553" lon="11.341619490928787"><ele>478.5</ele><time>2026-04-03T16:59:50Z</time></trkpt><trkpt lat="42.69109523534808" lon="11.34145466122421"><ele>482.0</ele><time>2026-04-03T16:59:51Z</time></trkpt><trkpt lat="42.69111103753715" lon="11.341294141092584"><ele>482.0</ele><time>2026-04-03T16:59:52Z</time></trkpt><trkpt lat="42.69116216067839" lon="11.341151415614897"><ele>482.0</ele><time>2026-04-03T16:59:53Z</time></trkpt><trkpt lat="42.69124719343365" lon="11.341028252679516"><ele>482.0</ele><time>2026-04-03T16:59:54Z</time></trkpt><trkpt lat="42.691360000928604" lon="11.340934116917571"><ele>482.0</ele><time>2026-04-03T16:59:55Z</time></trkpt><trkpt lat="42.6914737262275" lon="11.34082202811338"><ele>482.0</ele><time>2026-04-03T16:59:56Z</time></trkpt><trkpt lat="42.691590246270586" lon="11.340708012185555"><ele>482.0</ele><time>2026-04-03T16:59:57Z</time></trkpt><trkpt lat="42.691701079622824" lon="11.340593342656849"><ele>482.0</ele><time>2026-04-03T16:59:58Z</time></trkpt><trkpt lat="42.69180712460161" lon="11.340491772705107"><ele>482.0</ele><time>2026-04-03T16:59:59Z</time></trkpt><trkpt lat="42.69190334577083" lon="11.340384428684645"><ele>486.25</ele><time>2026-04-03T17:00:00Z</time></trkpt><trkpt lat="42.691982025820906" lon="11.340236677819073"><ele>490.5</ele><time>2026-04-03T17:00:01Z</time></trkpt><trkpt lat="42.692027817445144" lon="11.340044487730482"><ele>494.75</ele><time>2026-04-03T17:00:02Z</time></trkpt><trkpt lat="42.692033028448584" lon="11.339833276997142"><ele>499.0</ele><time>2026-04-03T17:00:03Z</time></trkpt><trkpt lat="42.691978237966765" lon="11.33960119993502"><ele>492.6666666666667</ele><time>2026-04-03T17:00:04Z</time></trkpt><trkpt lat="42.69188416260643" lon="11.339374277196688"><ele>486.33333333333337</ele><time>2026-04-03T17:00:05Z</time></trkpt><trkpt lat="42.69179501351848" lon="11.339163433132557"><ele>480.0</ele><time>2026-04-03T17:00:06Z</time></trkpt><trkpt lat="42.691724485544725" lon="11.338963998582642"><ele>484.5</ele><time>2026-04-03T17:00:07Z</time></trkpt><trkpt lat="42.69162089379969" lon="11.338759740046854"><ele>489.0</ele><time>2026-04-03T17:00:08Z</time></trkpt><trkpt lat="42.69154616354024" lon="11.338598453083451"><ele>493.5</ele><time>2026-04-03T17:00:09Z</time></trkpt><trkpt lat="42.6914884399924" lon="11.33845034665651"><ele>498.0</ele><time>2026-04-03T17:00:10Z</time></trkpt><trkpt lat="42.69145240476895" lon="11.338296162476734"><ele>498.0</ele><time>2026-04-03T17:00:10.999Z</time></trkpt><trkpt lat="42.6914278685791" lon="11.338161077130776"><ele>497.99999999999994</ele><time>2026-04-03T17:00:11.999Z</time></trkpt><trkpt lat="42.6913982856992" lon="11.338003168802237"><ele>497.99999999999994</ele><time>2026-04-03T17:00:12.999Z</time></trkpt><trkpt lat="42.691370491019754" lon="11.337864820312392"><ele>498.0</ele><time>2026-04-03T17:00:13.999Z</time></trkpt><trkpt lat="42.69133617977282" lon="11.337787822198909"><ele>498.0</ele><time>2026-04-03T17:00:14.999Z</time></trkpt><trkpt lat="42.69132758953841" lon="11.337697968363036"><ele>498.6666666666667</ele><time>2026-04-03T17:00:15.999Z</time></trkpt><trkpt lat="42.6913506832876" lon="11.337606922700626"><ele>499.33333333333337</ele><time>2026-04-03T17:00:17.999Z</time></trkpt><trkpt lat="42.691432588922595" lon="11.337548917827775"><ele>500.0</ele><time>2026-04-03T17:00:26.999Z</time></trkpt><trkpt lat="42.69149789888803" lon="11.337480566357742"><ele>500.6666666666667</ele><time>2026-04-03T17:00:27.999Z</time></trkpt><trkpt lat="42.69158363142854" lon="11.337421934096662"><ele>501.33333333333337</ele><time>2026-04-03T17:00:28.999Z</time></trkpt><trkpt lat="42.69162463698268" lon="11.337304409656042"><ele>502.0</ele><time>2026-04-03T17:00:29.999Z</time></trkpt><trkpt lat="42.691698629222905" lon="11.337129874425656"><ele>502.0</ele><time>2026-04-03T17:00:30.999Z</time></trkpt><trkpt lat="42.69179481741496" lon="11.337001471105047"><ele>502.0</ele><time>2026-04-03T17:00:31.999Z</time></trkpt><trkpt lat="42.69188002077335" lon="11.336851243579535"><ele>502.0</ele><time>2026-04-03T17:00:32.999Z</time></trkpt><trkpt lat="42.691930488238214" lon="11.3366981790665"><ele>502.0</ele><time>2026-04-03T17:00:33.999Z</time></trkpt><trkpt lat="42.69195959845408" lon="11.336551474064278"><ele>502.0</ele><time>2026-04-03T17:00:34.999Z</time></trkpt><trkpt lat="42.69199418774501" lon="11.336410824766356"><ele>502.0</ele><time>2026-04-03T17:00:35.999Z</time></trkpt><trkpt lat="42.69207250233165" lon="11.336305199565716"><ele>502.0</ele><time>2026-04-03T17:00:36.999Z</time></trkpt><trkpt lat="42.69218560993283" lon="11.336231298116832"><ele>502.0</ele><time>2026-04-03T17:00:37.999Z</time></trkpt><trkpt lat="42.69232147570406" lon="11.336200641097633"><ele>502.0</ele><time>2026-04-03T17:00:38.999Z</time></trkpt><trkpt lat="42.69247832496352" lon="11.33619442596137"><ele>502.0</ele><time>2026-04-03T17:00:39.999Z</time></trkpt><trkpt lat="42.69263605764807" lon="11.33621006668485"><ele>502.0</ele><time>2026-04-03T17:00:40.999Z</time></trkpt><trkpt lat="42.69277181956573" lon="11.336201038584143"><ele>502.0</ele><time>2026-04-03T17:00:41.999Z</time></trkpt><trkpt lat="42.692887101991836" lon="11.336180735399358"><ele>502.0</ele><time>2026-04-03T17:00:42.999Z</time></trkpt><trkpt lat="42.692998938141145" lon="11.33614982297269"><ele>502.0</ele><time>2026-04-03T17:00:43.999Z</time></trkpt><trkpt lat="42.69310247747769" lon="11.336079280691495"><ele>502.0</ele><time>2026-04-03T17:00:44.999Z</time></trkpt><trkpt lat="42.693171205293595" lon="11.335968610967472"><ele>502.0</ele><time>2026-04-03T17:00:45.999Z</time></trkpt><trkpt lat="42.69320323130136" lon="11.335829514189037"><ele>502.0</ele><time>2026-04-03T17:00:46.999Z</time></trkpt><trkpt lat="42.69319070765032" lon="11.33567762119523"><ele>502.0</ele><time>2026-04-03T17:00:47.999Z</time></trkpt><trkpt lat="42.69311455981412" lon="11.33551397918623"><ele>502.0</ele><time>2026-04-03T17:00:48.999Z</time></trkpt><trkpt lat="42.6930069039248" lon="11.335377417805386"><ele>502.25</ele><time>2026-04-03T17:00:49.999Z</time></trkpt><trkpt lat="42.69291941073091" lon="11.335255421790018"><ele>502.5</ele><time>2026-04-03T17:00:50.999Z</time></trkpt><trkpt lat="42.69284173451445" lon="11.335136547552086"><ele>502.75</ele><time>2026-04-03T17:00:51.999Z</time></trkpt><trkpt lat="42.69277576496541" lon="11.33498210507726"><ele>503.0</ele><time>2026-04-03T17:00:52.999Z</time></trkpt><trkpt lat="42.692741806152014" lon="11.334819057906374"><ele>503.8333333333333</ele><time>2026-04-03T17:00:53.999Z</time></trkpt><trkpt lat="42.69273583284029" lon="11.33468224948037"><ele>504.66666666666663</ele><time>2026-04-03T17:00:55Z</time></trkpt><trkpt lat="42.692759159703975" lon="11.334559955373116"><ele>505.5</ele><time>2026-04-03T17:00:56Z</time></trkpt><trkpt lat="42.69278122404903" lon="11.334475872369454"><ele>506.33333333333337</ele><time>2026-04-03T17:00:57Z</time></trkpt><trkpt lat="42.6928103845136" lon="11.334347381236945"><ele>507.1666666666667</ele><time>2026-04-03T17:00:59Z</time></trkpt><trkpt lat="42.69285280775277" lon="11.334260466150814"><ele>508.0</ele><time>2026-04-03T17:01:01Z</time></trkpt><trkpt lat="42.69293725155023" lon="11.334257677692587"><ele>508.00000000000006</ele><time>2026-04-03T17:01:03Z</time></trkpt><trkpt lat="42.692998821413575" lon="11.334298363526322"><ele>508.0</ele><time>2026-04-03T17:01:04Z</time></trkpt><trkpt lat="42.69307632059018" lon="11.334354718617854"><ele>508.0</ele><time>2026-04-03T17:01:05Z</time></trkpt><trkpt lat="42.69315460298698" lon="11.334400033550423"><ele>508.0</ele><time>2026-04-03T17:01:06Z</time></trkpt><trkpt lat="42.693242089828296" lon="11.334447029681153"><ele>508.00000000000006</ele><time>2026-04-03T17:01:07Z</time></trkpt><trkpt lat="42.69331909116982" lon="11.33447542072882"><ele>508.0</ele><time>2026-04-03T17:01:08Z</time></trkpt><trkpt lat="42.693401737432644" lon="11.334527969021952"><ele>508.00000000000006</ele><time>2026-04-03T17:01:10Z</time></trkpt><trkpt lat="42.693400961375374" lon="11.334639650446771"><ele>508.0</ele><time>2026-04-03T17:01:28Z</time></trkpt><trkpt lat="42.69337583964988" lon="11.3347332453651"><ele>508.0</ele><time>2026-04-03T17:01:29Z</time></trkpt><trkpt lat="42.693362099929914" lon="11.334832960515943"><ele>508.0</ele><time>2026-04-03T17:01:30Z</time></trkpt><trkpt lat="42.69331394658971" lon="11.334963440607773"><ele>508.00000000000006</ele><time>2026-04-03T17:01:32Z</time></trkpt><trkpt lat="42.6933227260355" lon="11.33506619313541"><ele>508.0</ele><time>2026-04-03T17:01:34Z</time></trkpt><trkpt lat="42.69337842760527" lon="11.335135498254026"><ele>507.1666666666667</ele><time>2026-04-03T17:01:36Z</time></trkpt><trkpt lat="42.69342519442863" lon="11.335200601645163"><ele>506.33333333333337</ele><time>2026-04-03T17:01:37Z</time></trkpt><trkpt lat="42.69347935071439" lon="11.335284485751108"><ele>505.5</ele><time>2026-04-03T17:01:38Z</time></trkpt><trkpt lat="42.69354477079362" lon="11.335366132211757"><ele>504.66666666666663</ele><time>2026-04-03T17:01:39Z</time></trkpt><trkpt lat="42.69362422374913" lon="11.335457085090388"><ele>503.8333333333333</ele><time>2026-04-03T17:01:40Z</time></trkpt><trkpt lat="42.69371116901169" lon="11.335537164752186"><ele>503.0</ele><time>2026-04-03T17:01:41Z</time></trkpt><trkpt lat="42.693786887036424" lon="11.335604757452836"><ele>505.59999999999997</ele><time>2026-04-03T17:01:42Z</time></trkpt><trkpt lat="42.693865589358836" lon="11.335678186913228"><ele>508.19999999999993</ele><time>2026-04-03T17:01:43Z</time></trkpt><trkpt lat="42.69394232072495" lon="11.335734308329029"><ele>510.8</ele><time>2026-04-03T17:01:44Z</time></trkpt><trkpt lat="42.69402316714906" lon="11.335776507771314"><ele>513.4</ele><time>2026-04-03T17:01:45Z</time></trkpt><trkpt lat="42.69412357645249" lon="11.3357951295861"><ele>516.0</ele><time>2026-04-03T17:01:46Z</time></trkpt><trkpt lat="42.69424141905091" lon="11.335799373076487"><ele>516.0</ele><time>2026-04-03T17:01:47Z</time></trkpt><trkpt lat="42.694357619447885" lon="11.335782444360712"><ele>516.0</ele><time>2026-04-03T17:01:48Z</time></trkpt><trkpt lat="42.69446923192157" lon="11.3357605553355"><ele>516.0</ele><time>2026-04-03T17:01:49Z</time></trkpt><trkpt lat="42.694580806149105" lon="11.335747136335785"><ele>516.0</ele><time>2026-04-03T17:01:50Z</time></trkpt><trkpt lat="42.69468923349251" lon="11.33575812280655"><ele>517.5</ele><time>2026-04-03T17:01:51Z</time></trkpt><trkpt lat="42.69479011092209" lon="11.335814160295604"><ele>519.0</ele><time>2026-04-03T17:01:52Z</time></trkpt><trkpt lat="42.6949024710374" lon="11.335867981659469"><ele>520.5</ele><time>2026-04-03T17:01:53Z</time></trkpt><trkpt lat="42.695016523700765" lon="11.335932872706753"><ele>522.0</ele><time>2026-04-03T17:01:54Z</time></trkpt><trkpt lat="42.69515086222037" lon="11.335994969653374"><ele>524.0</ele><time>2026-04-03T17:01:55Z</time></trkpt><trkpt lat="42.69528384186171" lon="11.336036081809967"><ele>526.0</ele><time>2026-04-03T17:01:56Z</time></trkpt><trkpt lat="42.69541028639235" lon="11.336054374955228"><ele>528.0</ele><time>2026-04-03T17:01:57Z</time></trkpt><trkpt lat="42.69552669433586" lon="11.336070309990756"><ele>530.0</ele><time>2026-04-03T17:01:58Z</time></trkpt><trkpt lat="42.69565474568364" lon="11.336097359323043"><ele>530.0</ele><time>2026-04-03T17:01:59Z</time></trkpt><trkpt lat="42.695792918022406" lon="11.336150254751345"><ele>530.0</ele><time>2026-04-03T17:02:00Z</time></trkpt><trkpt lat="42.695929171492125" lon="11.336229112947164"><ele>530.0</ele><time>2026-04-03T17:02:01Z</time></trkpt><trkpt lat="42.696055364577546" lon="11.336281929516376"><ele>530.0</ele><time>2026-04-03T17:02:02Z</time></trkpt><trkpt lat="42.69615383297678" lon="11.3363151587"><ele>530.8333333333333</ele><time>2026-04-03T17:02:03Z</time></trkpt><trkpt lat="42.69624252864262" lon="11.336349347486454"><ele>531.6666666666666</ele><time>2026-04-03T17:02:04Z</time></trkpt><trkpt lat="42.696317995445774" lon="11.336384247490663"><ele>532.5</ele><time>2026-04-03T17:02:05Z</time></trkpt><trkpt lat="42.69637622674343" lon="11.336426302285185"><ele>533.3333333333334</ele><time>2026-04-03T17:02:06Z</time></trkpt><trkpt lat="42.696441594117566" lon="11.336459696920738"><ele>534.1666666666667</ele><time>2026-04-03T17:02:07Z</time></trkpt><trkpt lat="42.696520932549674" lon="11.336456893561484"><ele>535.0</ele><time>2026-04-03T17:02:08Z</time></trkpt><trkpt lat="42.69658999461754" lon="11.33642179051273"><ele>535.1666666666667</ele><time>2026-04-03T17:02:08.999Z</time></trkpt><trkpt lat="42.69663869787151" lon="11.336366365498005"><ele>535.3333333333334</ele><time>2026-04-03T17:02:09.999Z</time></trkpt><trkpt lat="42.696676639252495" lon="11.336286102546465"><ele>535.5</ele><time>2026-04-03T17:02:10.999Z</time></trkpt><trkpt lat="42.69671901684026" lon="11.336178069392764"><ele>535.6666666666666</ele><time>2026-04-03T17:02:12.999Z</time></trkpt><trkpt lat="42.69676554550992" lon="11.336075459488443"><ele>535.8333333333333</ele><time>2026-04-03T17:02:16.999Z</time></trkpt><trkpt lat="42.69672037439061" lon="11.335951716229737"><ele>536.0</ele><time>2026-04-03T17:02:17.999Z</time></trkpt><trkpt lat="42.69669806699194" lon="11.335837613485413"><ele>536.0</ele><time>2026-04-03T17:02:18.999Z</time></trkpt><trkpt lat="42.69667963743927" lon="11.335713949141716"><ele>536.0</ele><time>2026-04-03T17:02:19.999Z</time></trkpt><trkpt lat="42.696674022522664" lon="11.335558291837962"><ele>536.0</ele><time>2026-04-03T17:02:20.999Z</time></trkpt><trkpt lat="42.69667932288545" lon="11.335394867442623"><ele>536.0</ele><time>2026-04-03T17:02:21.999Z</time></trkpt><trkpt lat="42.6966800465185" lon="11.33521713417506"><ele>536.5</ele><time>2026-04-03T17:02:22.999Z</time></trkpt><trkpt lat="42.69668390625746" lon="11.33502919061831"><ele>537.0</ele><time>2026-04-03T17:02:23.999Z</time></trkpt><trkpt lat="42.696688337765714" lon="11.334822130192086"><ele>537.5</ele><time>2026-04-03T17:02:24.999Z</time></trkpt><trkpt lat="42.696681451649454" lon="11.334613486586916"><ele>538.0</ele><time>2026-04-03T17:02:25.999Z</time></trkpt><trkpt lat="42.69665416615027" lon="11.334398638910253"><ele>538.0</ele><time>2026-04-03T17:02:26.999Z</time></trkpt><trkpt lat="42.69660962418156" lon="11.334191496767076"><ele>538.0</ele><time>2026-04-03T17:02:27.999Z</time></trkpt><trkpt lat="42.69655366217694" lon="11.333988656533966"><ele>538.0</ele><time>2026-04-03T17:02:28.999Z</time></trkpt><trkpt lat="42.69648670527258" lon="11.333797532496781"><ele>539.3333333333334</ele><time>2026-04-03T17:02:29.999Z</time></trkpt><trkpt lat="42.69641482050035" lon="11.33361070108403"><ele>540.6666666666666</ele><time>2026-04-03T17:02:30.999Z</time></trkpt><trkpt lat="42.696351115242315" lon="11.333419765535686"><ele>542.0</ele><time>2026-04-03T17:02:31.999Z</time></trkpt><trkpt lat="42.69628360933927" lon="11.333227834602308"><ele>540.5</ele><time>2026-04-03T17:02:32.999Z</time></trkpt><trkpt lat="42.696218940523394" lon="11.333044203837014"><ele>539.0</ele><time>2026-04-03T17:02:33.999Z</time></trkpt><trkpt lat="42.69616610424752" lon="11.332862070057326"><ele>537.5</ele><time>2026-04-03T17:02:34.999Z</time></trkpt><trkpt lat="42.69612741142903" lon="11.332664879681012"><ele>536.0</ele><time>2026-04-03T17:02:35.999Z</time></trkpt><trkpt lat="42.6961230257448" lon="11.332445373394489"><ele>536.0</ele><time>2026-04-03T17:02:36.999Z</time></trkpt><trkpt lat="42.696150333211556" lon="11.332227014995818"><ele>536.0</ele><time>2026-04-03T17:02:37.999Z</time></trkpt><trkpt lat="42.696180086400084" lon="11.332008098259235"><ele>536.0</ele><time>2026-04-03T17:02:38.999Z</time></trkpt><trkpt lat="42.696200778707194" lon="11.331798774345973"><ele>535.5</ele><time>2026-04-03T17:02:39.999Z</time></trkpt><trkpt lat="42.69621571080998" lon="11.331612634360333"><ele>535.0</ele><time>2026-04-03T17:02:40.999Z</time></trkpt><trkpt lat="42.69622207669193" lon="11.331424475912938"><ele>534.5</ele><time>2026-04-03T17:02:41.999Z</time></trkpt><trkpt lat="42.696200686516676" lon="11.331228734752775"><ele>534.0</ele><time>2026-04-03T17:02:42.999Z</time></trkpt><trkpt lat="42.6961572421061" lon="11.331027480686414"><ele>535.6666666666666</ele><time>2026-04-03T17:02:43.999Z</time></trkpt><trkpt lat="42.696070889011295" lon="11.330847982541467"><ele>537.3333333333333</ele><time>2026-04-03T17:02:44.999Z</time></trkpt><trkpt lat="42.69597705100726" lon="11.330681019753053"><ele>539.0</ele><time>2026-04-03T17:02:45.999Z</time></trkpt><trkpt lat="42.69588032800979" lon="11.330512404085466"><ele>539.0</ele><time>2026-04-03T17:02:46.999Z</time></trkpt><trkpt lat="42.69576952394955" lon="11.330354937057944"><ele>539.0</ele><time>2026-04-03T17:02:47.999Z</time></trkpt><trkpt lat="42.695683661807095" lon="11.330165766303518"><ele>539.0</ele><time>2026-04-03T17:02:48.999Z</time></trkpt><trkpt lat="42.695577681082504" lon="11.329996796053688"><ele>539.0</ele><time>2026-04-03T17:02:49.999Z</time></trkpt><trkpt lat="42.695465979026636" lon="11.329833487572095"><ele>539.0</ele><time>2026-04-03T17:02:50.999Z</time></trkpt><trkpt lat="42.695352483776226" lon="11.329691505926423"><ele>539.0</ele><time>2026-04-03T17:02:51.999Z</time></trkpt><trkpt lat="42.69524687156087" lon="11.329549575135228"><ele>541.3333333333333</ele><time>2026-04-03T17:02:52.999Z</time></trkpt><trkpt lat="42.69514706133569" lon="11.329408115244314"><ele>543.6666666666666</ele><time>2026-04-03T17:02:53.999Z</time></trkpt><trkpt lat="42.695039186269426" lon="11.329250153129712"><ele>546.0</ele><time>2026-04-03T17:02:54.999Z</time></trkpt><trkpt lat="42.69492776413869" lon="11.329093558515218"><ele>546.0</ele><time>2026-04-03T17:02:55.999Z</time></trkpt><trkpt lat="42.69482951901028" lon="11.328933599600191"><ele>546.0</ele><time>2026-04-03T17:02:56.999Z</time></trkpt><trkpt lat="42.694690282765954" lon="11.328803882056384"><ele>546.0</ele><time>2026-04-03T17:02:57.999Z</time></trkpt><trkpt lat="42.69454103248161" lon="11.328688527527326"><ele>544.3333333333334</ele><time>2026-04-03T17:02:58.999Z</time></trkpt><trkpt lat="42.694400054203584" lon="11.328582288962314"><ele>542.6666666666667</ele><time>2026-04-03T17:02:59.999Z</time></trkpt><trkpt lat="42.69426434609911" lon="11.328484597747485"><ele>541.0</ele><time>2026-04-03T17:03:01Z</time></trkpt><trkpt lat="42.69413416943954" lon="11.328401112854833"><ele>541.0</ele><time>2026-04-03T17:03:02Z</time></trkpt><trkpt lat="42.69398909318359" lon="11.328333357790596"><ele>541.0</ele><time>2026-04-03T17:03:03Z</time></trkpt><trkpt lat="42.693812085401134" lon="11.328315588485832"><ele>541.0</ele><time>2026-04-03T17:03:04Z</time></trkpt><trkpt lat="42.69362818910464" lon="11.328334130865967"><ele>542.6666666666667</ele><time>2026-04-03T17:03:05Z</time></trkpt><trkpt lat="42.69345123527474" lon="11.328364914210953"><ele>544.3333333333334</ele><time>2026-04-03T17:03:06Z</time></trkpt><trkpt lat="42.693286826801256" lon="11.328395102852724"><ele>546.0</ele><time>2026-04-03T17:03:07Z</time></trkpt><trkpt lat="42.69313302672154" lon="11.328423343578342"><ele>546.0</ele><time>2026-04-03T17:03:08Z</time></trkpt><trkpt lat="42.69298412866585" lon="11.328450684202554"><ele>546.0</ele><time>2026-04-03T17:03:09Z</time></trkpt><trkpt lat="42.69283934697216" lon="11.328473545441339"><ele>546.0</ele><time>2026-04-03T17:03:10Z</time></trkpt><trkpt lat="42.6926932476352" lon="11.328475612827658"><ele>546.0</ele><time>2026-04-03T17:03:11Z</time></trkpt><trkpt lat="42.69253799125465" lon="11.328436527124719"><ele>546.6666666666666</ele><time>2026-04-03T17:03:12Z</time></trkpt><trkpt lat="42.692379129940235" lon="11.328356060258379"><ele>547.3333333333333</ele><time>2026-04-03T17:03:13Z</time></trkpt><trkpt lat="42.692247593396345" lon="11.328186108584163"><ele>548.0</ele><time>2026-04-03T17:03:14Z</time></trkpt><trkpt lat="42.692113224620606" lon="11.328033037474505"><ele>549.3333333333333</ele><time>2026-04-03T17:03:15Z</time></trkpt><trkpt lat="42.69199343050174" lon="11.327866562109328"><ele>550.6666666666666</ele><time>2026-04-03T17:03:16Z</time></trkpt><trkpt lat="42.69187849055247" lon="11.327716608512198"><ele>552.0</ele><time>2026-04-03T17:03:17Z</time></trkpt><trkpt lat="42.69177380544517" lon="11.327557910132057"><ele>552.6666666666666</ele><time>2026-04-03T17:03:18Z</time></trkpt><trkpt lat="42.6916908504117" lon="11.327402839516003"><ele>553.3333333333333</ele><time>2026-04-03T17:03:19Z</time></trkpt><trkpt lat="42.6916239592974" lon="11.32722585912815"><ele>554.0</ele><time>2026-04-03T17:03:20Z</time></trkpt><trkpt lat="42.69157044096619" lon="11.327016591395186"><ele>555.3333333333333</ele><time>2026-04-03T17:03:21Z</time></trkpt><trkpt lat="42.691529237444314" lon="11.326802260505602"><ele>556.6666666666666</ele><time>2026-04-03T17:03:22Z</time></trkpt><trkpt lat="42.69148964095559" lon="11.326589068563196"><ele>558.0</ele><time>2026-04-03T17:03:23Z</time></trkpt><trkpt lat="42.69145171433412" lon="11.326407891993552"><ele>558.25</ele><time>2026-04-03T17:03:24Z</time></trkpt><trkpt lat="42.69141666815984" lon="11.326239059442013"><ele>558.5</ele><time>2026-04-03T17:03:25Z</time></trkpt><trkpt lat="42.691383724671084" lon="11.326090280920917"><ele>558.75</ele><time>2026-04-03T17:03:26Z</time></trkpt><trkpt lat="42.69135436680503" lon="11.325931862573297"><ele>559.0</ele><time>2026-04-03T17:03:27Z</time></trkpt><trkpt lat="42.69132403815328" lon="11.325761011778532"><ele>559.0</ele><time>2026-04-03T17:03:28Z</time></trkpt><trkpt lat="42.691294069095015" lon="11.325607915872254"><ele>559.0</ele><time>2026-04-03T17:03:29Z</time></trkpt><trkpt lat="42.69126455675745" lon="11.325467450476891"><ele>559.0</ele><time>2026-04-03T17:03:30Z</time></trkpt><trkpt lat="42.6912358356637" lon="11.325322097400509"><ele>559.0</ele><time>2026-04-03T17:03:31Z</time></trkpt><trkpt lat="42.691203780809275" lon="11.325170029828312"><ele>559.2</ele><time>2026-04-03T17:03:32Z</time></trkpt><trkpt lat="42.691164702286045" lon="11.32502563464192"><ele>559.4</ele><time>2026-04-03T17:03:33Z</time></trkpt><trkpt lat="42.69113474502758" lon="11.324884690423506"><ele>559.6</ele><time>2026-04-03T17:03:34Z</time></trkpt><trkpt lat="42.691070070451424" lon="11.32477880224883"><ele>559.8</ele><time>2026-04-03T17:03:35Z</time></trkpt><trkpt lat="42.691020877965194" lon="11.324675196525366"><ele>560.0</ele><time>2026-04-03T17:03:36Z</time></trkpt><trkpt lat="42.69097439039936" lon="11.324564094894214"><ele>560.0</ele><time>2026-04-03T17:03:38Z</time></trkpt><trkpt lat="42.69095370418041" lon="11.324482070839156"><ele>560.0</ele><time>2026-04-03T17:03:40Z</time></trkpt><trkpt lat="42.690931040840354" lon="11.324359310425674"><ele>560.0</ele><time>2026-04-03T17:03:42Z</time></trkpt><trkpt lat="42.69093104084047" lon="11.324266015007968"><ele>560.0</ele><time>2026-04-03T17:03:43Z</time></trkpt><trkpt lat="42.691023425721745" lon="11.324165264719252"><ele>560.0</ele><time>2026-04-03T17:03:44Z</time></trkpt><trkpt lat="42.69109076153542" lon="11.324053662124392"><ele>560.0</ele><time>2026-04-03T17:03:45Z</time></trkpt><trkpt lat="42.691179935544994" lon="11.323955407382435"><ele>560.0</ele><time>2026-04-03T17:03:46Z</time></trkpt><trkpt lat="42.69128165968812" lon="11.323848191408443"><ele>560.0</ele><time>2026-04-03T17:03:47Z</time></trkpt><trkpt lat="42.69138613538546" lon="11.323725766768437"><ele>560.0</ele><time>2026-04-03T17:03:48Z</time></trkpt><trkpt lat="42.69149979101922" lon="11.323594806425048"><ele>559.6666666666666</ele><time>2026-04-03T17:03:49Z</time></trkpt><trkpt lat="42.691621875212036" lon="11.323453831309275"><ele>559.3333333333334</ele><time>2026-04-03T17:03:50Z</time></trkpt><trkpt lat="42.69174599864256" lon="11.323306365663319"><ele>559.0</ele><time>2026-04-03T17:03:51Z</time></trkpt><trkpt lat="42.691865506099774" lon="11.323164425318522"><ele>558.75</ele><time>2026-04-03T17:03:52Z</time></trkpt><trkpt lat="42.69198099030745" lon="11.323030050139115"><ele>558.5</ele><time>2026-04-03T17:03:53Z</time></trkpt><trkpt lat="42.692091652651165" lon="11.322906451309418"><ele>558.25</ele><time>2026-04-03T17:03:54Z</time></trkpt><trkpt lat="42.69220534447374" lon="11.322774817599985"><ele>558.0</ele><time>2026-04-03T17:03:55Z</time></trkpt><trkpt lat="42.69232165376132" lon="11.322638078564168"><ele>558.0</ele><time>2026-04-03T17:03:56Z</time></trkpt><trkpt lat="42.69244306694581" lon="11.322493692943889"><ele>558.0</ele><time>2026-04-03T17:03:57Z</time></trkpt><trkpt lat="42.692569121014685" lon="11.322341648132204"><ele>558.0</ele><time>2026-04-03T17:03:58Z</time></trkpt><trkpt lat="42.692698205675505" lon="11.322182864751959"><ele>555.3333333333334</ele><time>2026-04-03T17:03:59Z</time></trkpt><trkpt lat="42.69282448940616" lon="11.322012545903718"><ele>552.6666666666667</ele><time>2026-04-03T17:04:00Z</time></trkpt><trkpt lat="42.692938924064045" lon="11.321823310356319"><ele>550.0</ele><time>2026-04-03T17:04:01Z</time></trkpt><trkpt lat="42.69304091400447" lon="11.321627025216952"><ele>550.0</ele><time>2026-04-03T17:04:02Z</time></trkpt><trkpt lat="42.6931328325577" lon="11.321426101414936"><ele>550.0</ele><time>2026-04-03T17:04:03Z</time></trkpt><trkpt lat="42.69321372683563" lon="11.321225543468257"><ele>550.0</ele><time>2026-04-03T17:04:04Z</time></trkpt><trkpt lat="42.69329079273872" lon="11.321034031250557"><ele>549.5</ele><time>2026-04-03T17:04:05Z</time></trkpt><trkpt lat="42.693362456272354" lon="11.320851591594845"><ele>549.0</ele><time>2026-04-03T17:04:06Z</time></trkpt><trkpt lat="42.69342819962051" lon="11.320676126784427"><ele>548.5</ele><time>2026-04-03T17:04:07Z</time></trkpt><trkpt lat="42.69349301514561" lon="11.320506590626193"><ele>548.0</ele><time>2026-04-03T17:04:08Z</time></trkpt><trkpt lat="42.69355581791557" lon="11.32034118152659"><ele>546.5</ele><time>2026-04-03T17:04:09Z</time></trkpt><trkpt lat="42.69362519861352" lon="11.320162867846449"><ele>545.0</ele><time>2026-04-03T17:04:09.999Z</time></trkpt><trkpt lat="42.693689920529174" lon="11.319995783164874"><ele>543.5</ele><time>2026-04-03T17:04:10.999Z</time></trkpt><trkpt lat="42.69375863873172" lon="11.319832440048538"><ele>542.0</ele><time>2026-04-03T17:04:11.999Z</time></trkpt><trkpt lat="42.69383209186134" lon="11.31967301315773"><ele>542.0</ele><time>2026-04-03T17:04:12.999Z</time></trkpt><trkpt lat="42.693906963078135" lon="11.319516362536133"><ele>542.0</ele><time>2026-04-03T17:04:13.999Z</time></trkpt><trkpt lat="42.69398075286488" lon="11.31936769172628"><ele>542.0</ele><time>2026-04-03T17:04:14.999Z</time></trkpt><trkpt lat="42.694049679639335" lon="11.319225777202133"><ele>542.0</ele><time>2026-04-03T17:04:15.999Z</time></trkpt><trkpt lat="42.69411859430659" lon="11.319088824781085"><ele>542.0</ele><time>2026-04-03T17:04:16.999Z</time></trkpt><trkpt lat="42.694190853486376" lon="11.318948223801451"><ele>542.0</ele><time>2026-04-03T17:04:17.999Z</time></trkpt><trkpt lat="42.69426165502266" lon="11.318801676179508"><ele>542.0</ele><time>2026-04-03T17:04:18.999Z</time></trkpt><trkpt lat="42.69432618081934" lon="11.318655300203028"><ele>542.0</ele><time>2026-04-03T17:04:19.999Z</time></trkpt><trkpt lat="42.69439652341324" lon="11.318515188610068"><ele>542.0</ele><time>2026-04-03T17:04:20.999Z</time></trkpt><trkpt lat="42.69446871724213" lon="11.31838157695137"><ele>542.0</ele><time>2026-04-03T17:04:21.999Z</time></trkpt><trkpt lat="42.694537079160014" lon="11.318248810032031"><ele>542.0</ele><time>2026-04-03T17:04:22.999Z</time></trkpt><trkpt lat="42.69460497686224" lon="11.318113485250665"><ele>542.0</ele><time>2026-04-03T17:04:23.999Z</time></trkpt><trkpt lat="42.69467192270235" lon="11.317972799931256"><ele>542.5</ele><time>2026-04-03T17:04:24.999Z</time></trkpt><trkpt lat="42.694738320604046" lon="11.317834357927161"><ele>543.0</ele><time>2026-04-03T17:04:25.999Z</time></trkpt><trkpt lat="42.69480510658575" lon="11.317701907157753"><ele>543.5</ele><time>2026-04-03T17:04:26.999Z</time></trkpt><trkpt lat="42.694874283827254" lon="11.317563748151647"><ele>544.0</ele><time>2026-04-03T17:04:27.999Z</time></trkpt><trkpt lat="42.694946075274046" lon="11.317423491969729"><ele>544.0</ele><time>2026-04-03T17:04:28.999Z</time></trkpt><trkpt lat="42.69501250518036" lon="11.317290774290967"><ele>544.0</ele><time>2026-04-03T17:04:29.999Z</time></trkpt><trkpt lat="42.69507607517149" lon="11.31716046633123"><ele>544.0</ele><time>2026-04-03T17:04:30.999Z</time></trkpt><trkpt lat="42.695141917165294" lon="11.317025341799813"><ele>544.0</ele><time>2026-04-03T17:04:31.999Z</time></trkpt><trkpt lat="42.695209254646905" lon="11.316888622323036"><ele>543.25</ele><time>2026-04-03T17:04:32.999Z</time></trkpt><trkpt lat="42.69527597422092" lon="11.316754588627528"><ele>542.5</ele><time>2026-04-03T17:04:33.999Z</time></trkpt><trkpt lat="42.6953384525601" lon="11.316628405159872"><ele>541.75</ele><time>2026-04-03T17:04:34.999Z</time></trkpt><trkpt lat="42.69540163219436" lon="11.316496279138002"><ele>541.0</ele><time>2026-04-03T17:04:35.999Z</time></trkpt><trkpt lat="42.69546669865088" lon="11.316356552861745"><ele>540.0</ele><time>2026-04-03T17:04:36.999Z</time></trkpt><trkpt lat="42.69553298913766" lon="11.31621158843205"><ele>539.0</ele><time>2026-04-03T17:04:37.999Z</time></trkpt><trkpt lat="42.69559718759116" lon="11.316072268991027"><ele>538.0</ele><time>2026-04-03T17:04:38.999Z</time></trkpt><trkpt lat="42.695651183076784" lon="11.315933496818412"><ele>537.0</ele><time>2026-04-03T17:04:39.999Z</time></trkpt><trkpt lat="42.695696635189776" lon="11.315782826065359"><ele>537.0</ele><time>2026-04-03T17:04:40.999Z</time></trkpt><trkpt lat="42.69573544784589" lon="11.315601411163229"><ele>537.0</ele><time>2026-04-03T17:04:41.999Z</time></trkpt><trkpt lat="42.695761997596584" lon="11.315406982338766"><ele>537.0</ele><time>2026-04-03T17:04:42.999Z</time></trkpt><trkpt lat="42.69578763660298" lon="11.315214571135817"><ele>537.0</ele><time>2026-04-03T17:04:43.999Z</time></trkpt><trkpt lat="42.69579545922715" lon="11.315042244067897"><ele>536.25</ele><time>2026-04-03T17:04:44.999Z</time></trkpt><trkpt lat="42.695784873368225" lon="11.314873862207886"><ele>535.5</ele><time>2026-04-03T17:04:45.999Z</time></trkpt><trkpt lat="42.695769956322394" lon="11.3147129106758"><ele>534.75</ele><time>2026-04-03T17:04:46.999Z</time></trkpt><trkpt lat="42.6957471102595" lon="11.31455685999782"><ele>534.0</ele><time>2026-04-03T17:04:47.999Z</time></trkpt><trkpt lat="42.695713843061036" lon="11.31439279860802"><ele>534.0</ele><time>2026-04-03T17:04:48.999Z</time></trkpt><trkpt lat="42.695666347727666" lon="11.314239935647437"><ele>534.0</ele><time>2026-04-03T17:04:49.999Z</time></trkpt><trkpt lat="42.69561081202049" lon="11.314092954421797"><ele>534.0</ele><time>2026-04-03T17:04:50.999Z</time></trkpt><trkpt lat="42.695546251984275" lon="11.313945189327"><ele>534.0</ele><time>2026-04-03T17:04:51.999Z</time></trkpt><trkpt lat="42.695479742923055" lon="11.313808446897463"><ele>535.25</ele><time>2026-04-03T17:04:52.999Z</time></trkpt><trkpt lat="42.69541467780846" lon="11.313676798045176"><ele>536.5</ele><time>2026-04-03T17:04:53.999Z</time></trkpt><trkpt lat="42.69535138181695" lon="11.313547980756114"><ele>537.75</ele><time>2026-04-03T17:04:54.999Z</time></trkpt><trkpt lat="42.69528819235977" lon="11.313416897465956"><ele>539.0</ele><time>2026-04-03T17:04:55.999Z</time></trkpt><trkpt lat="42.69522377268042" lon="11.313281938335862"><ele>539.0</ele><time>2026-04-03T17:04:56.999Z</time></trkpt><trkpt lat="42.69515526660217" lon="11.313139621841081"><ele>539.0</ele><time>2026-04-03T17:04:57.999Z</time></trkpt><trkpt lat="42.69508550927074" lon="11.312995894154062"><ele>539.0</ele><time>2026-04-03T17:04:58.999Z</time></trkpt><trkpt lat="42.69502028991413" lon="11.312850156011791"><ele>539.0</ele><time>2026-04-03T17:04:59.999Z</time></trkpt><trkpt lat="42.694953786085314" lon="11.31270722615322"><ele>537.0</ele><time>2026-04-03T17:05:00.999Z</time></trkpt><trkpt lat="42.694885624280914" lon="11.31255801955763"><ele>535.0</ele><time>2026-04-03T17:05:01.999Z</time></trkpt><trkpt lat="42.694821380145555" lon="11.312401251778386"><ele>533.0</ele><time>2026-04-03T17:05:02.999Z</time></trkpt><trkpt lat="42.69476194528435" lon="11.312265371538524"><ele>531.0</ele><time>2026-04-03T17:05:03.999Z</time></trkpt><trkpt lat="42.69468119279304" lon="11.31212654058696"><ele>529.0</ele><time>2026-04-03T17:05:04.999Z</time></trkpt><trkpt lat="42.69461114851036" lon="11.312003372052724"><ele>527.0</ele><time>2026-04-03T17:05:05.999Z</time></trkpt><trkpt lat="42.6945047205972" lon="11.31186691986152"><ele>525.0</ele><time>2026-04-03T17:05:07Z</time></trkpt><trkpt lat="42.694420243191026" lon="11.311752190220815"><ele>523.0</ele><time>2026-04-03T17:05:08Z</time></trkpt><trkpt lat="42.69431877832106" lon="11.311663284330502"><ele>523.0</ele><time>2026-04-03T17:05:09Z</time></trkpt><trkpt lat="42.69411786360805" lon="11.31158356911916"><ele>523.0</ele><time>2026-04-03T17:05:10Z</time></trkpt><trkpt lat="42.69398364710735" lon="11.311494143672501"><ele>523.0</ele><time>2026-04-03T17:05:11Z</time></trkpt><trkpt lat="42.693850659171" lon="11.31140893710845"><ele>520.75</ele><time>2026-04-03T17:05:12Z</time></trkpt><trkpt lat="42.69371913327564" lon="11.311321112027597"><ele>518.5</ele><time>2026-04-03T17:05:13Z</time></trkpt><trkpt lat="42.69358889139294" lon="11.311236722414655"><ele>516.25</ele><time>2026-04-03T17:05:14Z</time></trkpt><trkpt lat="42.693465180327564" lon="11.311155922627478"><ele>514.0</ele><time>2026-04-03T17:05:15Z</time></trkpt><trkpt lat="42.693344801611865" lon="11.31107707782871"><ele>514.0</ele><time>2026-04-03T17:05:16Z</time></trkpt><trkpt lat="42.69322604803764" lon="11.311000928104997"><ele>514.0</ele><time>2026-04-03T17:05:17Z</time></trkpt><trkpt lat="42.69310550993982" lon="11.310921996530505"><ele>514.0</ele><time>2026-04-03T17:05:18Z</time></trkpt><trkpt lat="42.69298270606732" lon="11.310846083120873"><ele>514.0</ele><time>2026-04-03T17:05:19Z</time></trkpt><trkpt lat="42.69286365277214" lon="11.310775764361958"><ele>514.0</ele><time>2026-04-03T17:05:20Z</time></trkpt><trkpt lat="42.69274403454864" lon="11.310700077380433"><ele>514.0</ele><time>2026-04-03T17:05:21Z</time></trkpt><trkpt lat="42.69261966215521" lon="11.31060277631348"><ele>514.0</ele><time>2026-04-03T17:05:22Z</time></trkpt><trkpt lat="42.69249176045293" lon="11.310482995002758"><ele>514.0</ele><time>2026-04-03T17:05:23Z</time></trkpt><trkpt lat="42.692384882773844" lon="11.31034699380623"><ele>512.25</ele><time>2026-04-03T17:05:24Z</time></trkpt><trkpt lat="42.69230939741863" lon="11.31019205666494"><ele>510.5</ele><time>2026-04-03T17:05:25Z</time></trkpt><trkpt lat="42.69225306829141" lon="11.310011184642004"><ele>508.75</ele><time>2026-04-03T17:05:26Z</time></trkpt><trkpt lat="42.692219741263685" lon="11.309824569682693"><ele>507.0</ele><time>2026-04-03T17:05:27Z</time></trkpt><trkpt lat="42.69221253828161" lon="11.309642723400591"><ele>506.75</ele><time>2026-04-03T17:05:28Z</time></trkpt><trkpt lat="42.69222600985552" lon="11.309471563243404"><ele>506.5</ele><time>2026-04-03T17:05:29Z</time></trkpt><trkpt lat="42.69226121523678" lon="11.309309376762133"><ele>506.25</ele><time>2026-04-03T17:05:30Z</time></trkpt><trkpt lat="42.69232079904778" lon="11.309158762081877"><ele>506.0</ele><time>2026-04-03T17:05:31Z</time></trkpt><trkpt lat="42.69239487348094" lon="11.30902212137211"><ele>506.25</ele><time>2026-04-03T17:05:32Z</time></trkpt><trkpt lat="42.69249017513581" lon="11.308900542792912"><ele>506.5</ele><time>2026-04-03T17:05:33Z</time></trkpt><trkpt lat="42.69261490686926" lon="11.308793384306858"><ele>506.75</ele><time>2026-04-03T17:05:34Z</time></trkpt><trkpt lat="42.69276726954398" lon="11.308702105649408"><ele>507.0</ele><time>2026-04-03T17:05:35Z</time></trkpt><trkpt lat="42.69293880783349" lon="11.308614003810373"><ele>507.0</ele><time>2026-04-03T17:05:36Z</time></trkpt><trkpt lat="42.693104882372005" lon="11.308534705035761"><ele>507.0</ele><time>2026-04-03T17:05:37Z</time></trkpt><trkpt lat="42.6932511601502" lon="11.308461992975749"><ele>507.0</ele><time>2026-04-03T17:05:38Z</time></trkpt><trkpt lat="42.69339308362061" lon="11.30839161431499"><ele>507.0</ele><time>2026-04-03T17:05:39Z</time></trkpt><trkpt lat="42.693554644588176" lon="11.308311362984826"><ele>507.0</ele><time>2026-04-03T17:05:40Z</time></trkpt><trkpt lat="42.69373595066547" lon="11.308214162238256"><ele>507.0</ele><time>2026-04-03T17:05:41Z</time></trkpt><trkpt lat="42.69393651687622" lon="11.308114617187872"><ele>505.5</ele><time>2026-04-03T17:05:42Z</time></trkpt><trkpt lat="42.69415900525832" lon="11.308010637164081"><ele>504.0</ele><time>2026-04-03T17:05:43Z</time></trkpt><trkpt lat="42.69439278793933" lon="11.307904102668912"><ele>503.5</ele><time>2026-04-03T17:05:44Z</time></trkpt><trkpt lat="42.6946307732292" lon="11.30780012377143"><ele>503.0</ele><time>2026-04-03T17:05:45Z</time></trkpt><trkpt lat="42.69485233935134" lon="11.307707756444726"><ele>503.0</ele><time>2026-04-03T17:05:46Z</time></trkpt><trkpt lat="42.69505902346483" lon="11.307613905165011"><ele>503.0</ele><time>2026-04-03T17:05:47Z</time></trkpt><trkpt lat="42.69524959802217" lon="11.307514406940578"><ele>503.0</ele><time>2026-04-03T17:05:48Z</time></trkpt><trkpt lat="42.69544713695617" lon="11.30742035950138"><ele>502.66666666666663</ele><time>2026-04-03T17:05:49Z</time></trkpt><trkpt lat="42.69565172486693" lon="11.307327386156809"><ele>502.33333333333337</ele><time>2026-04-03T17:05:50Z</time></trkpt><trkpt lat="42.69586077547266" lon="11.307226303656785"><ele>502.0</ele><time>2026-04-03T17:05:51Z</time></trkpt><trkpt lat="42.696071694062276" lon="11.307124505353208"><ele>504.0</ele><time>2026-04-03T17:05:52Z</time></trkpt><trkpt lat="42.69628896782819" lon="11.307015463352581"><ele>506.0</ele><time>2026-04-03T17:05:53Z</time></trkpt><trkpt lat="42.696509443841265" lon="11.30690457629248"><ele>506.0</ele><time>2026-04-03T17:05:54Z</time></trkpt><trkpt lat="42.69672733890445" lon="11.306800925938873"><ele>506.0</ele><time>2026-04-03T17:05:55Z</time></trkpt><trkpt lat="42.69695142799262" lon="11.306709549640692"><ele>507.5</ele><time>2026-04-03T17:05:56Z</time></trkpt><trkpt lat="42.69718890965809" lon="11.306638602820408"><ele>509.0</ele><time>2026-04-03T17:05:57Z</time></trkpt><trkpt lat="42.69743982853884" lon="11.306604555288638"><ele>509.0</ele><time>2026-04-03T17:05:58Z</time></trkpt><trkpt lat="42.69769524535638" lon="11.306581782771918"><ele>509.0</ele><time>2026-04-03T17:05:59Z</time></trkpt><trkpt lat="42.69792929418153" lon="11.306516174536505"><ele>509.0</ele><time>2026-04-03T17:06:00Z</time></trkpt><trkpt lat="42.69817501679376" lon="11.306489347841838"><ele>509.0</ele><time>2026-04-03T17:06:01Z</time></trkpt><trkpt lat="42.69841346163294" lon="11.306465049041096"><ele>507.0</ele><time>2026-04-03T17:06:02Z</time></trkpt><trkpt lat="42.69864880508222" lon="11.306436784693487"><ele>505.0</ele><time>2026-04-03T17:06:03Z</time></trkpt><trkpt lat="42.69888074278635" lon="11.306397954823497"><ele>505.0</ele><time>2026-04-03T17:06:04Z</time></trkpt><trkpt lat="42.69910725316321" lon="11.306363162281537"><ele>505.0</ele><time>2026-04-03T17:06:05Z</time></trkpt><trkpt lat="42.69932963313358" lon="11.306334252188394"><ele>503.0</ele><time>2026-04-03T17:06:06Z</time></trkpt><trkpt lat="42.699554375172845" lon="11.306308605218694"><ele>501.0</ele><time>2026-04-03T17:06:07Z</time></trkpt><trkpt lat="42.69978068561812" lon="11.306277967340689"><ele>501.0</ele><time>2026-04-03T17:06:08Z</time></trkpt><trkpt lat="42.699998389293405" lon="11.306241151470573"><ele>501.0</ele><time>2026-04-03T17:06:09Z</time></trkpt><trkpt lat="42.70020297291616" lon="11.306209970046487"><ele>501.0</ele><time>2026-04-03T17:06:10Z</time></trkpt><trkpt lat="42.7004106685125" lon="11.306189177463764"><ele>501.66666666666663</ele><time>2026-04-03T17:06:11Z</time></trkpt><trkpt lat="42.70062336158697" lon="11.306184506352318"><ele>502.3333333333333</ele><time>2026-04-03T17:06:12Z</time></trkpt><trkpt lat="42.700830345435804" lon="11.306246779888758"><ele>503.0</ele><time>2026-04-03T17:06:13Z</time></trkpt><trkpt lat="42.70104558605518" lon="11.306330534264331"><ele>503.0</ele><time>2026-04-03T17:06:13.999Z</time></trkpt><trkpt lat="42.701266511322366" lon="11.306404616136811"><ele>503.0</ele><time>2026-04-03T17:06:14.999Z</time></trkpt><trkpt lat="42.70147397806536" lon="11.306523008183358"><ele>503.3333333333333</ele><time>2026-04-03T17:06:15.999Z</time></trkpt><trkpt lat="42.701685149180015" lon="11.306629987337027"><ele>503.66666666666663</ele><time>2026-04-03T17:06:16.999Z</time></trkpt><trkpt lat="42.70188135707556" lon="11.30672296595378"><ele>504.0</ele><time>2026-04-03T17:06:17.999Z</time></trkpt><trkpt lat="42.702067087024886" lon="11.306808985283846"><ele>504.0</ele><time>2026-04-03T17:06:18.999Z</time></trkpt><trkpt lat="42.70224502395546" lon="11.306890486835213"><ele>504.0</ele><time>2026-04-03T17:06:19.999Z</time></trkpt><trkpt lat="42.702432097782086" lon="11.306975667038534"><ele>504.0</ele><time>2026-04-03T17:06:20.999Z</time></trkpt><trkpt lat="42.702619855090866" lon="11.307061973680375"><ele>503.33333333333337</ele><time>2026-04-03T17:06:21.999Z</time></trkpt><trkpt lat="42.70278372795013" lon="11.307145869582396"><ele>502.6666666666667</ele><time>2026-04-03T17:06:22.999Z</time></trkpt><trkpt lat="42.70295870934588" lon="11.307216853997225"><ele>502.0</ele><time>2026-04-03T17:06:23.999Z</time></trkpt><trkpt lat="42.70315286685776" lon="11.307258485466647"><ele>500.6666666666667</ele><time>2026-04-03T17:06:24.999Z</time></trkpt><trkpt lat="42.70335057042994" lon="11.307242563339729"><ele>499.33333333333337</ele><time>2026-04-03T17:06:25.999Z</time></trkpt><trkpt lat="42.70355055539537" lon="11.307173958728646"><ele>498.0</ele><time>2026-04-03T17:06:26.999Z</time></trkpt><trkpt lat="42.70375001732049" lon="11.307087552778135"><ele>495.66666666666663</ele><time>2026-04-03T17:06:27.999Z</time></trkpt><trkpt lat="42.70394905349988" lon="11.306993530627793"><ele>493.3333333333333</ele><time>2026-04-03T17:06:28.999Z</time></trkpt><trkpt lat="42.70413823862366" lon="11.306914349603876"><ele>491.0</ele><time>2026-04-03T17:06:29.999Z</time></trkpt><trkpt lat="42.70432645305186" lon="11.306840247234442"><ele>489.66666666666663</ele><time>2026-04-03T17:06:30.999Z</time></trkpt><trkpt lat="42.70450715651684" lon="11.30676450540497"><ele>488.33333333333337</ele><time>2026-04-03T17:06:31.999Z</time></trkpt><trkpt lat="42.70468124367714" lon="11.306689780739099"><ele>487.0</ele><time>2026-04-03T17:06:32.999Z</time></trkpt><trkpt lat="42.70484669257745" lon="11.306620732896215"><ele>487.0</ele><time>2026-04-03T17:06:33.999Z</time></trkpt><trkpt lat="42.705019182387936" lon="11.306546024131805"><ele>487.0</ele><time>2026-04-03T17:06:34.999Z</time></trkpt><trkpt lat="42.70518633857034" lon="11.306478064463006"><ele>487.0</ele><time>2026-04-03T17:06:35.999Z</time></trkpt><trkpt lat="42.705343397353225" lon="11.306411620764319"><ele>484.33333333333337</ele><time>2026-04-03T17:06:36.999Z</time></trkpt><trkpt lat="42.705496648040416" lon="11.30634397254706"><ele>481.66666666666663</ele><time>2026-04-03T17:06:37.999Z</time></trkpt><trkpt lat="42.70564784611948" lon="11.306280989696694"><ele>479.0</ele><time>2026-04-03T17:06:38.999Z</time></trkpt><trkpt lat="42.705792908396326" lon="11.306219445674525"><ele>479.0</ele><time>2026-04-03T17:06:39.999Z</time></trkpt><trkpt lat="42.70593530439676" lon="11.30616093880766"><ele>479.0</ele><time>2026-04-03T17:06:40.999Z</time></trkpt><trkpt lat="42.70607761706763" lon="11.30610008483986"><ele>479.0</ele><time>2026-04-03T17:06:41.999Z</time></trkpt><trkpt lat="42.70622447634039" lon="11.306036296254513"><ele>478.66666666666663</ele><time>2026-04-03T17:06:42.999Z</time></trkpt><trkpt lat="42.706365656864236" lon="11.305976855176134"><ele>478.33333333333337</ele><time>2026-04-03T17:06:43.999Z</time></trkpt><trkpt lat="42.70650593927052" lon="11.30591949081929"><ele>478.0</ele><time>2026-04-03T17:06:44.999Z</time></trkpt><trkpt lat="42.70665595145332" lon="11.305857987770764"><ele>478.0</ele><time>2026-04-03T17:06:45.999Z</time></trkpt><trkpt lat="42.70680400652719" lon="11.305794001154041"><ele>478.0</ele><time>2026-04-03T17:06:46.999Z</time></trkpt><trkpt lat="42.7069581900713" lon="11.30573102516107"><ele>478.0</ele><time>2026-04-03T17:06:47.999Z</time></trkpt><trkpt lat="42.70712266770212" lon="11.30566244026525"><ele>478.33333333333337</ele><time>2026-04-03T17:06:48.999Z</time></trkpt><trkpt lat="42.70729306786956" lon="11.30559574626079"><ele>478.66666666666663</ele><time>2026-04-03T17:06:49.999Z</time></trkpt><trkpt lat="42.707450149128626" lon="11.305522500526044"><ele>479.0</ele><time>2026-04-03T17:06:50.999Z</time></trkpt><trkpt lat="42.70760442689707" lon="11.305455905876126"><ele>476.66666666666663</ele><time>2026-04-03T17:06:51.999Z</time></trkpt><trkpt lat="42.707754804078235" lon="11.305394289055"><ele>474.33333333333337</ele><time>2026-04-03T17:06:52.999Z</time></trkpt><trkpt lat="42.707903859739154" lon="11.305333878467877"><ele>472.0</ele><time>2026-04-03T17:06:53.999Z</time></trkpt><trkpt lat="42.708054212066855" lon="11.305272146690529"><ele>472.0</ele><time>2026-04-03T17:06:54.999Z</time></trkpt><trkpt lat="42.708197496444214" lon="11.305212119495016"><ele>472.0</ele><time>2026-04-03T17:06:55.999Z</time></trkpt><trkpt lat="42.708343858716425" lon="11.305151421646352"><ele>472.0</ele><time>2026-04-03T17:06:56.999Z</time></trkpt><trkpt lat="42.70849218278556" lon="11.305092629383516"><ele>471.33333333333337</ele><time>2026-04-03T17:06:57.999Z</time></trkpt><trkpt lat="42.708643749211774" lon="11.30503528643279"><ele>470.66666666666663</ele><time>2026-04-03T17:06:58.999Z</time></trkpt><trkpt lat="42.70879442482557" lon="11.304982027327688"><ele>470.0</ele><time>2026-04-03T17:06:59.999Z</time></trkpt><trkpt lat="42.708946093837795" lon="11.30493258812914"><ele>470.0</ele><time>2026-04-03T17:07:00.999Z</time></trkpt><trkpt lat="42.70909515017845" lon="11.3048858415156"><ele>470.0</ele><time>2026-04-03T17:07:01.999Z</time></trkpt><trkpt lat="42.7092280585459" lon="11.304846272438255"><ele>470.0</ele><time>2026-04-03T17:07:02.999Z</time></trkpt><trkpt lat="42.70934722827704" lon="11.304811896513893"><ele>470.0</ele><time>2026-04-03T17:07:03.999Z</time></trkpt><trkpt lat="42.70946337578351" lon="11.304779520865873"><ele>469.6</ele><time>2026-04-03T17:07:04.999Z</time></trkpt><trkpt lat="42.709566604792975" lon="11.304763774700218"><ele>469.2</ele><time>2026-04-03T17:07:05.999Z</time></trkpt><trkpt lat="42.709650913968495" lon="11.304778942642287"><ele>468.79999999999995</ele><time>2026-04-03T17:07:06.999Z</time></trkpt><trkpt lat="42.70972532014867" lon="11.304811861334045"><ele>468.4</ele><time>2026-04-03T17:07:07.999Z</time></trkpt><trkpt lat="42.70980174921211" lon="11.304877321026082"><ele>468.0</ele><time>2026-04-03T17:07:08.999Z</time></trkpt><trkpt lat="42.70988540566649" lon="11.304950074576558"><ele>468.0</ele><time>2026-04-03T17:07:09.999Z</time></trkpt><trkpt lat="42.709942957203275" lon="11.30509342885497"><ele>468.0</ele><time>2026-04-03T17:07:10.999Z</time></trkpt><trkpt lat="42.71002108260703" lon="11.30521709988098"><ele>468.0</ele><time>2026-04-03T17:07:11.999Z</time></trkpt><trkpt lat="42.71012574912042" lon="11.305349087446482"><ele>468.0</ele><time>2026-04-03T17:07:13Z</time></trkpt><trkpt lat="42.71023185097653" lon="11.305432790496873"><ele>467.66666666666663</ele><time>2026-04-03T17:07:14Z</time></trkpt><trkpt lat="42.7103725761182" lon="11.305523593058735"><ele>467.3333333333333</ele><time>2026-04-03T17:07:15Z</time></trkpt><trkpt lat="42.71053107031699" lon="11.305598255004977"><ele>467.0</ele><time>2026-04-03T17:07:16Z</time></trkpt><trkpt lat="42.710693827176335" lon="11.305672946240723"><ele>467.0</ele><time>2026-04-03T17:07:17Z</time></trkpt><trkpt lat="42.71085719976989" lon="11.305745898726343"><ele>467.0</ele><time>2026-04-03T17:07:18Z</time></trkpt><trkpt lat="42.71100756644403" lon="11.305810345577989"><ele>467.0</ele><time>2026-04-03T17:07:19Z</time></trkpt><trkpt lat="42.71114030037029" lon="11.305878100953105"><ele>467.0</ele><time>2026-04-03T17:07:20Z</time></trkpt><trkpt lat="42.7112704742668" lon="11.305939933920973"><ele>467.0</ele><time>2026-04-03T17:07:21Z</time></trkpt><trkpt lat="42.71140166722535" lon="11.306043410843188"><ele>467.0</ele><time>2026-04-03T17:07:22Z</time></trkpt><trkpt lat="42.71152960081167" lon="11.306185354802233"><ele>467.0</ele><time>2026-04-03T17:07:23Z</time></trkpt><trkpt lat="42.711653014016186" lon="11.306334301318556"><ele>467.0</ele><time>2026-04-03T17:07:24Z</time></trkpt><trkpt lat="42.71176973106156" lon="11.306480081356808"><ele>467.0</ele><time>2026-04-03T17:07:25Z</time></trkpt><trkpt lat="42.71189577245496" lon="11.306619381363234"><ele>466.0</ele><time>2026-04-03T17:07:26Z</time></trkpt><trkpt lat="42.71203904875069" lon="11.306754659701124"><ele>465.0</ele><time>2026-04-03T17:07:27Z</time></trkpt><trkpt lat="42.71221433809913" lon="11.306891685166331"><ele>464.0</ele><time>2026-04-03T17:07:28Z</time></trkpt><trkpt lat="42.71239948357058" lon="11.307023488593686"><ele>464.0</ele><time>2026-04-03T17:07:29Z</time></trkpt><trkpt lat="42.71259002514101" lon="11.307153184135949"><ele>464.0</ele><time>2026-04-03T17:07:30Z</time></trkpt><trkpt lat="42.71277616091501" lon="11.307280668076766"><ele>464.0</ele><time>2026-04-03T17:07:31Z</time></trkpt><trkpt lat="42.71295076930237" lon="11.307403094380925"><ele>462.66666666666663</ele><time>2026-04-03T17:07:32Z</time></trkpt><trkpt lat="42.71312737362602" lon="11.30752722204875"><ele>461.33333333333337</ele><time>2026-04-03T17:07:33Z</time></trkpt><trkpt lat="42.71330058046623" lon="11.307646496018636"><ele>460.0</ele><time>2026-04-03T17:07:34Z</time></trkpt><trkpt lat="42.71346449574301" lon="11.307751101337299"><ele>461.33333333333337</ele><time>2026-04-03T17:07:35Z</time></trkpt><trkpt lat="42.71363311487335" lon="11.307860487623197"><ele>462.66666666666663</ele><time>2026-04-03T17:07:36Z</time></trkpt><trkpt lat="42.713806247484435" lon="11.307970152965884"><ele>464.0</ele><time>2026-04-03T17:07:37Z</time></trkpt><trkpt lat="42.71397643296772" lon="11.308068960569758"><ele>463.3333333333333</ele><time>2026-04-03T17:07:38Z</time></trkpt><trkpt lat="42.71413717568606" lon="11.308149639848713"><ele>462.66666666666663</ele><time>2026-04-03T17:07:39Z</time></trkpt><trkpt lat="42.71428761113483" lon="11.308222956503563"><ele>462.0</ele><time>2026-04-03T17:07:40Z</time></trkpt><trkpt lat="42.71442902884929" lon="11.308298354288103"><ele>461.5</ele><time>2026-04-03T17:07:41Z</time></trkpt><trkpt lat="42.71456766086411" lon="11.308369233623207"><ele>461.0</ele><time>2026-04-03T17:07:42Z</time></trkpt><trkpt lat="42.71470288212739" lon="11.30843929991981"><ele>460.5</ele><time>2026-04-03T17:07:43Z</time></trkpt><trkpt lat="42.71483678739341" lon="11.308533997423252"><ele>460.0</ele><time>2026-04-03T17:07:44Z</time></trkpt><trkpt lat="42.71495172982493" lon="11.308649372226428"><ele>460.0</ele><time>2026-04-03T17:07:45Z</time></trkpt><trkpt lat="42.71505904364436" lon="11.308788439850131"><ele>460.0</ele><time>2026-04-03T17:07:46Z</time></trkpt><trkpt lat="42.715154744421085" lon="11.308954635674981"><ele>460.0</ele><time>2026-04-03T17:07:47Z</time></trkpt><trkpt lat="42.7152534592482" lon="11.309147281631954"><ele>460.0</ele><time>2026-04-03T17:07:48Z</time></trkpt><trkpt lat="42.71535603474903" lon="11.309346554154718"><ele>460.0</ele><time>2026-04-03T17:07:49Z</time></trkpt><trkpt lat="42.71545575836922" lon="11.309545488577886"><ele>460.0</ele><time>2026-04-03T17:07:50Z</time></trkpt><trkpt lat="42.71555475781223" lon="11.30973685421467"><ele>458.0</ele><time>2026-04-03T17:07:51Z</time></trkpt><trkpt lat="42.71565379213284" lon="11.309927892268954"><ele>456.0</ele><time>2026-04-03T17:07:52Z</time></trkpt><trkpt lat="42.715762510307826" lon="11.31012543247265"><ele>454.0</ele><time>2026-04-03T17:07:53Z</time></trkpt><trkpt lat="42.71589190419328" lon="11.310346173286417"><ele>454.0</ele><time>2026-04-03T17:07:54Z</time></trkpt><trkpt lat="42.71603894253596" lon="11.310556118224378"><ele>454.0</ele><time>2026-04-03T17:07:55Z</time></trkpt><trkpt lat="42.71619768951477" lon="11.310760103253374"><ele>454.0</ele><time>2026-04-03T17:07:56Z</time></trkpt><trkpt lat="42.71634407240239" lon="11.310958399987795"><ele>453.6666666666667</ele><time>2026-04-03T17:07:57Z</time></trkpt><trkpt lat="42.71647373777345" lon="11.311126737872256"><ele>453.33333333333337</ele><time>2026-04-03T17:07:58Z</time></trkpt><trkpt lat="42.71658425256416" lon="11.311282179035503"><ele>453.0</ele><time>2026-04-03T17:07:59Z</time></trkpt><trkpt lat="42.71666739455907" lon="11.311435906603544"><ele>453.75</ele><time>2026-04-03T17:08:00Z</time></trkpt><trkpt lat="42.71672632833231" lon="11.311591693444765"><ele>454.5</ele><time>2026-04-03T17:08:01Z</time></trkpt><trkpt lat="42.71672164542133" lon="11.311768522097958"><ele>455.25</ele><time>2026-04-03T17:08:02Z</time></trkpt><trkpt lat="42.71669323340423" lon="11.311962697730158"><ele>456.0</ele><time>2026-04-03T17:08:03Z</time></trkpt><trkpt lat="42.71663188140498" lon="11.312156098467334"><ele>457.25</ele><time>2026-04-03T17:08:04Z</time></trkpt><trkpt lat="42.71659632581304" lon="11.312328961639599"><ele>458.5</ele><time>2026-04-03T17:08:05Z</time></trkpt><trkpt lat="42.71657726266335" lon="11.312505716853332"><ele>459.75</ele><time>2026-04-03T17:08:06Z</time></trkpt><trkpt lat="42.71658016142414" lon="11.312712347821506"><ele>461.0</ele><time>2026-04-03T17:08:07Z</time></trkpt><trkpt lat="42.71661345046052" lon="11.31292561681304"><ele>461.0</ele><time>2026-04-03T17:08:08Z</time></trkpt><trkpt lat="42.71664061356706" lon="11.313131254851509"><ele>461.0</ele><time>2026-04-03T17:08:09Z</time></trkpt><trkpt lat="42.71667422666856" lon="11.313321850284117"><ele>461.0</ele><time>2026-04-03T17:08:10Z</time></trkpt><trkpt lat="42.71673807136118" lon="11.313478760130211"><ele>461.0</ele><time>2026-04-03T17:08:11Z</time></trkpt><trkpt lat="42.71684448122614" lon="11.313621336084001"><ele>463.0</ele><time>2026-04-03T17:08:12Z</time></trkpt><trkpt lat="42.716993012671516" lon="11.313738638724068"><ele>465.0</ele><time>2026-04-03T17:08:13Z</time></trkpt><trkpt lat="42.717152951460555" lon="11.313857271828772"><ele>467.0</ele><time>2026-04-03T17:08:13.999Z</time></trkpt><trkpt lat="42.717315091075996" lon="11.313987348633773"><ele>467.0</ele><time>2026-04-03T17:08:14.999Z</time></trkpt><trkpt lat="42.71747901346939" lon="11.31411699406694"><ele>467.0</ele><time>2026-04-03T17:08:15.999Z</time></trkpt><trkpt lat="42.71763370151253" lon="11.314248997758575"><ele>467.0</ele><time>2026-04-03T17:08:16.999Z</time></trkpt><trkpt lat="42.71777709796887" lon="11.314368142735386"><ele>471.0</ele><time>2026-04-03T17:08:17.999Z</time></trkpt><trkpt lat="42.71790934143865" lon="11.31444380043233"><ele>475.0</ele><time>2026-04-03T17:08:18.999Z</time></trkpt><trkpt lat="42.71806002382016" lon="11.314505427328832"><ele>479.0</ele><time>2026-04-03T17:08:19.999Z</time></trkpt><trkpt lat="42.71822556542939" lon="11.314516888603166"><ele>479.0</ele><time>2026-04-03T17:08:20.999Z</time></trkpt><trkpt lat="42.718380799199245" lon="11.31453196686692"><ele>479.0</ele><time>2026-04-03T17:08:21.999Z</time></trkpt><trkpt lat="42.718525884593035" lon="11.314571681465267"><ele>479.0</ele><time>2026-04-03T17:08:22.999Z</time></trkpt><trkpt lat="42.718664206740996" lon="11.314632202493268"><ele>479.0</ele><time>2026-04-03T17:08:23.999Z</time></trkpt><trkpt lat="42.718799318875284" lon="11.314739937677581"><ele>479.3333333333333</ele><time>2026-04-03T17:08:24.999Z</time></trkpt><trkpt lat="42.71892184830263" lon="11.314902089771172"><ele>479.66666666666663</ele><time>2026-04-03T17:08:25.999Z</time></trkpt><trkpt lat="42.71902831337834" lon="11.315086159930377"><ele>480.0</ele><time>2026-04-03T17:08:26.999Z</time></trkpt><trkpt lat="42.71912684217603" lon="11.315279602689754"><ele>480.0</ele><time>2026-04-03T17:08:27.999Z</time></trkpt><trkpt lat="42.71923384640937" lon="11.315463757232575"><ele>480.0</ele><time>2026-04-03T17:08:28.999Z</time></trkpt><trkpt lat="42.71934219495593" lon="11.315648156083604"><ele>480.0</ele><time>2026-04-03T17:08:29.999Z</time></trkpt><trkpt lat="42.7194511776736" lon="11.315830200436329"><ele>476.33333333333337</ele><time>2026-04-03T17:08:30.999Z</time></trkpt><trkpt lat="42.71955479949694" lon="11.3160156494857"><ele>472.6666666666667</ele><time>2026-04-03T17:08:31.999Z</time></trkpt><trkpt lat="42.719659180675684" lon="11.316201268450024"><ele>469.0</ele><time>2026-04-03T17:08:32.999Z</time></trkpt><trkpt lat="42.71976891981007" lon="11.316387732137343"><ele>468.33333333333337</ele><time>2026-04-03T17:08:33.999Z</time></trkpt><trkpt lat="42.7198728184119" lon="11.316573564303175"><ele>467.66666666666663</ele><time>2026-04-03T17:08:34.999Z</time></trkpt><trkpt lat="42.71998070548019" lon="11.316749400315397"><ele>467.0</ele><time>2026-04-03T17:08:35.999Z</time></trkpt><trkpt lat="42.72008609311315" lon="11.316920934085857"><ele>467.0</ele><time>2026-04-03T17:08:36.999Z</time></trkpt><trkpt lat="42.72021128321785" lon="11.31708264040691"><ele>467.0</ele><time>2026-04-03T17:08:37.999Z</time></trkpt><trkpt lat="42.72034545347787" lon="11.317208242456163"><ele>467.0</ele><time>2026-04-03T17:08:38.999Z</time></trkpt><trkpt lat="42.7204883628777" lon="11.317316597290484"><ele>469.66666666666663</ele><time>2026-04-03T17:08:39.999Z</time></trkpt><trkpt lat="42.720620172071804" lon="11.317441013670443"><ele>472.33333333333337</ele><time>2026-04-03T17:08:40.999Z</time></trkpt><trkpt lat="42.720734913255924" lon="11.317615911031973"><ele>475.0</ele><time>2026-04-03T17:08:41.999Z</time></trkpt><trkpt lat="42.72083197439361" lon="11.317828435993988"><ele>475.0</ele><time>2026-04-03T17:08:42.999Z</time></trkpt><trkpt lat="42.720937541605544" lon="11.31803737326206"><ele>475.0</ele><time>2026-04-03T17:08:43.999Z</time></trkpt><trkpt lat="42.721056763829054" lon="11.31820343980103"><ele>475.0</ele><time>2026-04-03T17:08:44.999Z</time></trkpt><trkpt lat="42.72119173368285" lon="11.318334603155744"><ele>473.33333333333337</ele><time>2026-04-03T17:08:45.999Z</time></trkpt><trkpt lat="42.72133702268084" lon="11.318446084417607"><ele>471.66666666666663</ele><time>2026-04-03T17:08:46.999Z</time></trkpt><trkpt lat="42.72148116832089" lon="11.318562415717182"><ele>470.0</ele><time>2026-04-03T17:08:47.999Z</time></trkpt><trkpt lat="42.72161662960738" lon="11.318693548321763"><ele>470.0</ele><time>2026-04-03T17:08:48.999Z</time></trkpt><trkpt lat="42.721748473302895" lon="11.318842852543977"><ele>470.0</ele><time>2026-04-03T17:08:49.999Z</time></trkpt><trkpt lat="42.72187638415451" lon="11.318997465347774"><ele>470.0</ele><time>2026-04-03T17:08:50.999Z</time></trkpt><trkpt lat="42.72199584679228" lon="11.319146979435939"><ele>469.66666666666663</ele><time>2026-04-03T17:08:51.999Z</time></trkpt><trkpt lat="42.722111560881324" lon="11.319285833742638"><ele>469.33333333333337</ele><time>2026-04-03T17:08:52.999Z</time></trkpt><trkpt lat="42.72222801609068" lon="11.319418671207048"><ele>469.0</ele><time>2026-04-03T17:08:53.999Z</time></trkpt><trkpt lat="42.72235145949804" lon="11.319551360094467"><ele>469.0</ele><time>2026-04-03T17:08:54.999Z</time></trkpt><trkpt lat="42.72249073899723" lon="11.319665138297756"><ele>469.0</ele><time>2026-04-03T17:08:55.999Z</time></trkpt><trkpt lat="42.72264507059706" lon="11.319750330928015"><ele>469.0</ele><time>2026-04-03T17:08:56.999Z</time></trkpt><trkpt lat="42.722810507362524" lon="11.319814300567344"><ele>468.0</ele><time>2026-04-03T17:08:57.999Z</time></trkpt><trkpt lat="42.72298180863383" lon="11.319874046415844"><ele>467.0</ele><time>2026-04-03T17:08:58.999Z</time></trkpt><trkpt lat="42.72315756853678" lon="11.319935665150568"><ele>466.0</ele><time>2026-04-03T17:08:59.999Z</time></trkpt><trkpt lat="42.72333284640603" lon="11.320003134234057"><ele>466.0</ele><time>2026-04-03T17:09:00.999Z</time></trkpt><trkpt lat="42.72350561446866" lon="11.320078740372669"><ele>466.0</ele><time>2026-04-03T17:09:01.999Z</time></trkpt><trkpt lat="42.723674808065816" lon="11.320157628759459"><ele>466.0</ele><time>2026-04-03T17:09:02.999Z</time></trkpt><trkpt lat="42.72384303485101" lon="11.320232844367746"><ele>466.0</ele><time>2026-04-03T17:09:03.999Z</time></trkpt><trkpt lat="42.72402130283895" lon="11.320312588015069"><ele>466.0</ele><time>2026-04-03T17:09:04.999Z</time></trkpt><trkpt lat="42.72419763615827" lon="11.320392558323235"><ele>466.0</ele><time>2026-04-03T17:09:05.999Z</time></trkpt><trkpt lat="42.72437467141987" lon="11.320471697220745"><ele>467.6666666666667</ele><time>2026-04-03T17:09:06.999Z</time></trkpt><trkpt lat="42.72455866070355" lon="11.320553249992878"><ele>469.33333333333337</ele><time>2026-04-03T17:09:07.999Z</time></trkpt><trkpt lat="42.724739142711115" lon="11.320636209316838"><ele>471.0</ele><time>2026-04-03T17:09:08.999Z</time></trkpt><trkpt lat="42.72491633928351" lon="11.320718889708555"><ele>472.0</ele><time>2026-04-03T17:09:09.999Z</time></trkpt><trkpt lat="42.72508998149551" lon="11.320803882514499"><ele>473.0</ele><time>2026-04-03T17:09:10.999Z</time></trkpt><trkpt lat="42.72526731326586" lon="11.32089877588269"><ele>474.0</ele><time>2026-04-03T17:09:11.999Z</time></trkpt><trkpt lat="42.7254554904612" lon="11.321013435788046"><ele>474.66666666666663</ele><time>2026-04-03T17:09:12.999Z</time></trkpt><trkpt lat="42.7256504538036" lon="11.321140100259422"><ele>475.3333333333333</ele><time>2026-04-03T17:09:13.999Z</time></trkpt><trkpt lat="42.72584651823699" lon="11.321276415711539"><ele>476.0</ele><time>2026-04-03T17:09:14.999Z</time></trkpt><trkpt lat="42.7260432634361" lon="11.321413367143773"><ele>478.0</ele><time>2026-04-03T17:09:15.999Z</time></trkpt><trkpt lat="42.72623723473406" lon="11.321542869349292"><ele>480.0</ele><time>2026-04-03T17:09:16.999Z</time></trkpt><trkpt lat="42.72641786758639" lon="11.321681814742794"><ele>482.0</ele><time>2026-04-03T17:09:17.999Z</time></trkpt><trkpt lat="42.72663196405225" lon="11.321787286535569"><ele>482.0</ele><time>2026-04-03T17:09:19Z</time></trkpt><trkpt lat="42.72681414266668" lon="11.321914124432226"><ele>482.0</ele><time>2026-04-03T17:09:20Z</time></trkpt><trkpt lat="42.72698117622473" lon="11.322036278693117"><ele>482.0</ele><time>2026-04-03T17:09:21Z</time></trkpt><trkpt lat="42.727132012033856" lon="11.32218562960794"><ele>484.66666666666663</ele><time>2026-04-03T17:09:22Z</time></trkpt><trkpt lat="42.72728457281174" lon="11.322329358773107"><ele>487.33333333333337</ele><time>2026-04-03T17:09:23Z</time></trkpt><trkpt lat="42.727456310451494" lon="11.322472405585797"><ele>490.0</ele><time>2026-04-03T17:09:24Z</time></trkpt><trkpt lat="42.72762125841814" lon="11.32263543963705"><ele>490.0</ele><time>2026-04-03T17:09:25Z</time></trkpt><trkpt lat="42.727786936066906" lon="11.32279438148413"><ele>490.0</ele><time>2026-04-03T17:09:26Z</time></trkpt><trkpt lat="42.72795073142058" lon="11.322953437343543"><ele>490.0</ele><time>2026-04-03T17:09:27Z</time></trkpt><trkpt lat="42.72810602805875" lon="11.323107066629722"><ele>490.0</ele><time>2026-04-03T17:09:28Z</time></trkpt><trkpt lat="42.72826048839883" lon="11.323255549370844"><ele>490.0</ele><time>2026-04-03T17:09:29Z</time></trkpt><trkpt lat="42.72842986364106" lon="11.323419396934522"><ele>490.0</ele><time>2026-04-03T17:09:30Z</time></trkpt><trkpt lat="42.728600540018505" lon="11.323583501109745"><ele>490.0</ele><time>2026-04-03T17:09:31Z</time></trkpt><trkpt lat="42.72874598011812" lon="11.323773000808313"><ele>490.0</ele><time>2026-04-03T17:09:32Z</time></trkpt><trkpt lat="42.728890002184905" lon="11.32395849255133"><ele>490.0</ele><time>2026-04-03T17:09:33Z</time></trkpt><trkpt lat="42.72903336090481" lon="11.324136980282894"><ele>493.0</ele><time>2026-04-03T17:09:34Z</time></trkpt><trkpt lat="42.7291559544105" lon="11.324311180097954"><ele>496.0</ele><time>2026-04-03T17:09:35Z</time></trkpt><trkpt lat="42.72927077022978" lon="11.324466967221177"><ele>499.0</ele><time>2026-04-03T17:09:36Z</time></trkpt><trkpt lat="42.72937805553801" lon="11.324608038142253"><ele>500.6666666666667</ele><time>2026-04-03T17:09:37Z</time></trkpt><trkpt lat="42.72947970840697" lon="11.324736705914647"><ele>502.33333333333337</ele><time>2026-04-03T17:09:38Z</time></trkpt><trkpt lat="42.729618892799714" lon="11.324825056614252"><ele>504.0</ele><time>2026-04-03T17:09:39Z</time></trkpt><trkpt lat="42.72977094832356" lon="11.32488542686987"><ele>504.0</ele><time>2026-04-03T17:09:40Z</time></trkpt><trkpt lat="42.72992329587112" lon="11.324939722354578"><ele>504.0</ele><time>2026-04-03T17:09:41Z</time></trkpt><trkpt lat="42.73008795862581" lon="11.324935373532446"><ele>504.0</ele><time>2026-04-03T17:09:42Z</time></trkpt><trkpt lat="42.73025235316491" lon="11.324941484550514"><ele>507.33333333333337</ele><time>2026-04-03T17:09:43Z</time></trkpt><trkpt lat="42.73042947992236" lon="11.324921735993067"><ele>510.6666666666667</ele><time>2026-04-03T17:09:44Z</time></trkpt><trkpt lat="42.73058977158286" lon="11.324898495496697"><ele>514.0</ele><time>2026-04-03T17:09:45Z</time></trkpt><trkpt lat="42.730718487397745" lon="11.324854847553905"><ele>514.0</ele><time>2026-04-03T17:09:46Z</time></trkpt><trkpt lat="42.73082743923068" lon="11.324757413546354"><ele>514.0</ele><time>2026-04-03T17:09:47Z</time></trkpt><trkpt lat="42.730921987817865" lon="11.324602375459976"><ele>514.0</ele><time>2026-04-03T17:09:48Z</time></trkpt><trkpt lat="42.730994163042595" lon="11.324420437526209"><ele>514.0</ele><time>2026-04-03T17:09:49Z</time></trkpt><trkpt lat="42.73106413802652" lon="11.324276132097385"><ele>514.5</ele><time>2026-04-03T17:09:50Z</time></trkpt><trkpt lat="42.73115482132414" lon="11.32417468642824"><ele>515.0</ele><time>2026-04-03T17:09:51Z</time></trkpt><trkpt lat="42.73127220396825" lon="11.324119170452581"><ele>515.5</ele><time>2026-04-03T17:09:52Z</time></trkpt><trkpt lat="42.7314179626224" lon="11.324109197885939"><ele>516.0</ele><time>2026-04-03T17:09:53Z</time></trkpt><trkpt lat="42.731577581945494" lon="11.324127675069265"><ele>516.0</ele><time>2026-04-03T17:09:54Z</time></trkpt><trkpt lat="42.731741766193" lon="11.324135812238563"><ele>516.0</ele><time>2026-04-03T17:09:55Z</time></trkpt><trkpt lat="42.73192801943694" lon="11.324131555106401"><ele>516.0</ele><time>2026-04-03T17:09:56Z</time></trkpt><trkpt lat="42.7321068977803" lon="11.324095811201538"><ele>517.6666666666666</ele><time>2026-04-03T17:09:57Z</time></trkpt><trkpt lat="42.73228141457436" lon="11.32404122947594"><ele>519.3333333333333</ele><time>2026-04-03T17:09:58Z</time></trkpt><trkpt lat="42.7324480570437" lon="11.324009820804793"><ele>521.0</ele><time>2026-04-03T17:09:59Z</time></trkpt><trkpt lat="42.73260925890159" lon="11.323988810858069"><ele>521.0</ele><time>2026-04-03T17:10:00Z</time></trkpt><trkpt lat="42.732759352113106" lon="11.32398701894501"><ele>521.0</ele><time>2026-04-03T17:10:01Z</time></trkpt><trkpt lat="42.73289908682746" lon="11.32399419563809"><ele>521.0</ele><time>2026-04-03T17:10:02Z</time></trkpt><trkpt lat="42.73302577078165" lon="11.32399472910294"><ele>521.0</ele><time>2026-04-03T17:10:03Z</time></trkpt><trkpt lat="42.733151109349826" lon="11.323986771454688"><ele>521.0</ele><time>2026-04-03T17:10:04Z</time></trkpt><trkpt lat="42.73328938417504" lon="11.323922778551607"><ele>521.0</ele><time>2026-04-03T17:10:05Z</time></trkpt><trkpt lat="42.73342392297389" lon="11.323792012083786"><ele>521.0</ele><time>2026-04-03T17:10:06Z</time></trkpt><trkpt lat="42.733558944112296" lon="11.32362242274335"><ele>520.6666666666666</ele><time>2026-04-03T17:10:07Z</time></trkpt><trkpt lat="42.73367847187569" lon="11.323456308770696"><ele>520.3333333333334</ele><time>2026-04-03T17:10:08Z</time></trkpt><trkpt lat="42.7338003875437" lon="11.323315141635433"><ele>520.0</ele><time>2026-04-03T17:10:09Z</time></trkpt><trkpt lat="42.733936103024924" lon="11.323206841829673"><ele>520.0</ele><time>2026-04-03T17:10:10Z</time></trkpt><trkpt lat="42.73408118255771" lon="11.323115544180556"><ele>520.0</ele><time>2026-04-03T17:10:11Z</time></trkpt><trkpt lat="42.73423608090626" lon="11.323034386294808"><ele>520.0</ele><time>2026-04-03T17:10:12Z</time></trkpt><trkpt lat="42.73438768702269" lon="11.322987413381194"><ele>518.25</ele><time>2026-04-03T17:10:13Z</time></trkpt><trkpt lat="42.73453944332149" lon="11.322962894788946"><ele>516.5</ele><time>2026-04-03T17:10:14Z</time></trkpt><trkpt lat="42.734685077659435" lon="11.3229427778819"><ele>514.75</ele><time>2026-04-03T17:10:15Z</time></trkpt><trkpt lat="42.73481680748005" lon="11.322911485951114"><ele>513.0</ele><time>2026-04-03T17:10:16Z</time></trkpt><trkpt lat="42.734922910125555" lon="11.322834438850679"><ele>513.0</ele><time>2026-04-03T17:10:17Z</time></trkpt><trkpt lat="42.73498992383764" lon="11.322712109743037"><ele>513.0</ele><time>2026-04-03T17:10:18Z</time></trkpt><trkpt lat="42.73502752773714" lon="11.322536207987167"><ele>513.0</ele><time>2026-04-03T17:10:18.999Z</time></trkpt><trkpt lat="42.73505674394358" lon="11.322334018401275"><ele>513.0</ele><time>2026-04-03T17:10:19.999Z</time></trkpt><trkpt lat="42.735093381976114" lon="11.322167292145549"><ele>512.5</ele><time>2026-04-03T17:10:20.999Z</time></trkpt><trkpt lat="42.73514200722206" lon="11.322043851034783"><ele>512.0</ele><time>2026-04-03T17:10:21.999Z</time></trkpt><trkpt lat="42.73520947929294" lon="11.321940068541924"><ele>511.5</ele><time>2026-04-03T17:10:22.999Z</time></trkpt><trkpt lat="42.73530865475866" lon="11.321862458898941"><ele>511.0</ele><time>2026-04-03T17:10:23.999Z</time></trkpt><trkpt lat="42.7354438123259" lon="11.321809554120003"><ele>513.75</ele><time>2026-04-03T17:10:24.999Z</time></trkpt><trkpt lat="42.73557359905769" lon="11.321787216325772"><ele>516.5</ele><time>2026-04-03T17:10:25.999Z</time></trkpt><trkpt lat="42.73570264896206" lon="11.321715968533624"><ele>519.25</ele><time>2026-04-03T17:10:26.999Z</time></trkpt><trkpt lat="42.735817211440505" lon="11.321581469367766"><ele>522.0</ele><time>2026-04-03T17:10:27.999Z</time></trkpt><trkpt lat="42.73590317307416" lon="11.321432491259003"><ele>520.75</ele><time>2026-04-03T17:10:28.999Z</time></trkpt><trkpt lat="42.73596420153208" lon="11.32129108985066"><ele>519.5</ele><time>2026-04-03T17:10:29.999Z</time></trkpt><trkpt lat="42.73604557389509" lon="11.321181114298415"><ele>518.25</ele><time>2026-04-03T17:10:30.999Z</time></trkpt><trkpt lat="42.736151729106844" lon="11.321105665166929"><ele>517.0</ele><time>2026-04-03T17:10:31.999Z</time></trkpt><trkpt lat="42.73629898577699" lon="11.321090340210512"><ele>517.0</ele><time>2026-04-03T17:10:32.999Z</time></trkpt><trkpt lat="42.73646055143953" lon="11.321098397332289"><ele>517.0</ele><time>2026-04-03T17:10:33.999Z</time></trkpt><trkpt lat="42.736643521030125" lon="11.321116797817083"><ele>517.0</ele><time>2026-04-03T17:10:34.999Z</time></trkpt><trkpt lat="42.736848692166404" lon="11.321118360444219"><ele>518.6666666666667</ele><time>2026-04-03T17:10:35.999Z</time></trkpt><trkpt lat="42.737064113388556" lon="11.321121785783513"><ele>520.3333333333334</ele><time>2026-04-03T17:10:36.999Z</time></trkpt><trkpt lat="42.73727849390757" lon="11.321125716018066"><ele>522.0</ele><time>2026-04-03T17:10:37.999Z</time></trkpt><trkpt lat="42.73747380764186" lon="11.321127595247471"><ele>522.0</ele><time>2026-04-03T17:10:38.999Z</time></trkpt><trkpt lat="42.73766355142609" lon="11.321124201712003"><ele>522.0</ele><time>2026-04-03T17:10:39.999Z</time></trkpt><trkpt lat="42.737836762865726" lon="11.321133630524693"><ele>522.0</ele><time>2026-04-03T17:10:40.999Z</time></trkpt><trkpt lat="42.73799931773338" lon="11.32117083257936"><ele>521.75</ele><time>2026-04-03T17:10:41.999Z</time></trkpt><trkpt lat="42.73813659869195" lon="11.321262853637474"><ele>521.5</ele><time>2026-04-03T17:10:42.999Z</time></trkpt><trkpt lat="42.73824260520858" lon="11.32136803367637"><ele>521.25</ele><time>2026-04-03T17:10:43.999Z</time></trkpt><trkpt lat="42.73834290031399" lon="11.32145746154138"><ele>521.0</ele><time>2026-04-03T17:10:44.999Z</time></trkpt><trkpt lat="42.73845817912683" lon="11.321486088299402"><ele>518.5</ele><time>2026-04-03T17:10:45.999Z</time></trkpt><trkpt lat="42.73858767028362" lon="11.321446102874976"><ele>516.0</ele><time>2026-04-03T17:10:46.999Z</time></trkpt><trkpt lat="42.738720177925565" lon="11.321328924718205"><ele>513.5</ele><time>2026-04-03T17:10:47.999Z</time></trkpt><trkpt lat="42.73884997640586" lon="11.321207188426868"><ele>511.0</ele><time>2026-04-03T17:10:48.999Z</time></trkpt><trkpt lat="42.738970361645755" lon="11.32110107229811"><ele>511.0</ele><time>2026-04-03T17:10:49.999Z</time></trkpt><trkpt lat="42.73909954794659" lon="11.321019189120456"><ele>511.0</ele><time>2026-04-03T17:10:50.999Z</time></trkpt><trkpt lat="42.73926579310379" lon="11.320958171949112"><ele>511.0</ele><time>2026-04-03T17:10:51.999Z</time></trkpt><trkpt lat="42.73942619870255" lon="11.320944294330781"><ele>507.75</ele><time>2026-04-03T17:10:52.999Z</time></trkpt><trkpt lat="42.739575022468614" lon="11.320932748706115"><ele>504.5</ele><time>2026-04-03T17:10:53.999Z</time></trkpt><trkpt lat="42.73971189074277" lon="11.32089986863564"><ele>501.25</ele><time>2026-04-03T17:10:54.999Z</time></trkpt><trkpt lat="42.73982436734755" lon="11.320819776285857"><ele>498.0</ele><time>2026-04-03T17:10:55.999Z</time></trkpt><trkpt lat="42.73990515665988" lon="11.32068844174843"><ele>499.25</ele><time>2026-04-03T17:10:56.999Z</time></trkpt><trkpt lat="42.73997184031721" lon="11.3205386735794"><ele>500.5</ele><time>2026-04-03T17:10:57.999Z</time></trkpt><trkpt lat="42.7399956604431" lon="11.320373456200366"><ele>501.75</ele><time>2026-04-03T17:10:58.999Z</time></trkpt><trkpt lat="42.739973951512034" lon="11.320230903450938"><ele>503.0</ele><time>2026-04-03T17:10:59.999Z</time></trkpt><trkpt lat="42.739926917629106" lon="11.320125669913049"><ele>503.0</ele><time>2026-04-03T17:11:00.999Z</time></trkpt><trkpt lat="42.739883948421344" lon="11.320036828173832"><ele>502.99999999999994</ele><time>2026-04-03T17:11:01.999Z</time></trkpt><trkpt lat="42.73986031528274" lon="11.319936700730509"><ele>502.99999999999994</ele><time>2026-04-03T17:11:02.999Z</time></trkpt><trkpt lat="42.739874989722814" lon="11.319823076902077"><ele>503.0</ele><time>2026-04-03T17:11:03.999Z</time></trkpt><trkpt lat="42.73994025439156" lon="11.319718217572058"><ele>503.0</ele><time>2026-04-03T17:11:04.999Z</time></trkpt><trkpt lat="42.740059029710956" lon="11.319660433454086"><ele>503.75</ele><time>2026-04-03T17:11:05.999Z</time></trkpt><trkpt lat="42.740204018179526" lon="11.319643659137833"><ele>504.5</ele><time>2026-04-03T17:11:06.999Z</time></trkpt><trkpt lat="42.74032832899616" lon="11.319608787834095"><ele>505.25</ele><time>2026-04-03T17:11:07.999Z</time></trkpt><trkpt lat="42.74044910598632" lon="11.319527161697245"><ele>506.0</ele><time>2026-04-03T17:11:08.999Z</time></trkpt><trkpt lat="42.74053938562053" lon="11.319402778803727"><ele>502.75</ele><time>2026-04-03T17:11:09.999Z</time></trkpt><trkpt lat="42.740600816998885" lon="11.319245566146138"><ele>499.5</ele><time>2026-04-03T17:11:10.999Z</time></trkpt><trkpt lat="42.74063733841275" lon="11.319094778299146"><ele>496.25</ele><time>2026-04-03T17:11:11.999Z</time></trkpt><trkpt lat="42.74069485613364" lon="11.318956829117964"><ele>493.0</ele><time>2026-04-03T17:11:12.999Z</time></trkpt><trkpt lat="42.74078760780264" lon="11.318863369671249"><ele>492.0</ele><time>2026-04-03T17:11:13.999Z</time></trkpt><trkpt lat="42.740902637506935" lon="11.318823040291237"><ele>491.0</ele><time>2026-04-03T17:11:14.999Z</time></trkpt><trkpt lat="42.74103508289289" lon="11.318839458371626"><ele>490.0</ele><time>2026-04-03T17:11:15.999Z</time></trkpt><trkpt lat="42.741169082126255" lon="11.318916664088857"><ele>489.0</ele><time>2026-04-03T17:11:16.999Z</time></trkpt><trkpt lat="42.74129097412023" lon="11.31901602116723"><ele>487.0</ele><time>2026-04-03T17:11:17.999Z</time></trkpt><trkpt lat="42.74141676646321" lon="11.31909045235339"><ele>485.0</ele><time>2026-04-03T17:11:18.999Z</time></trkpt><trkpt lat="42.74153504666391" lon="11.319161129741099"><ele>483.0</ele><time>2026-04-03T17:11:19.999Z</time></trkpt><trkpt lat="42.74165535119565" lon="11.319216854833538"><ele>481.0</ele><time>2026-04-03T17:11:20.999Z</time></trkpt><trkpt lat="42.74178061778302" lon="11.319228358036181"><ele>479.25</ele><time>2026-04-03T17:11:21.999Z</time></trkpt><trkpt lat="42.741904093935716" lon="11.319193495591453"><ele>477.5</ele><time>2026-04-03T17:11:22.999Z</time></trkpt><trkpt lat="42.7420143533984" lon="11.319131565349267"><ele>475.75</ele><time>2026-04-03T17:11:23.999Z</time></trkpt><trkpt lat="42.74211689790377" lon="11.319072068456745"><ele>474.0</ele><time>2026-04-03T17:11:25Z</time></trkpt><trkpt lat="42.74222960494704" lon="11.319057576971865"><ele>474.0</ele><time>2026-04-03T17:11:26Z</time></trkpt><trkpt lat="42.74234703048747" lon="11.319111301786494"><ele>474.0</ele><time>2026-04-03T17:11:27Z</time></trkpt><trkpt lat="42.74246347239345" lon="11.319185366076953"><ele>474.0</ele><time>2026-04-03T17:11:28Z</time></trkpt><trkpt lat="42.74260665094643" lon="11.319206121880246"><ele>474.0</ele><time>2026-04-03T17:11:29Z</time></trkpt><trkpt lat="42.742742781903345" lon="11.319178563572615"><ele>472.25</ele><time>2026-04-03T17:11:30Z</time></trkpt><trkpt lat="42.7428692769509" lon="11.31912045105377"><ele>470.5</ele><time>2026-04-03T17:11:31Z</time></trkpt><trkpt lat="42.742992718743686" lon="11.319011314629277"><ele>468.75</ele><time>2026-04-03T17:11:32Z</time></trkpt><trkpt lat="42.74309471181534" lon="11.3188900592526"><ele>467.0</ele><time>2026-04-03T17:11:33Z</time></trkpt><trkpt lat="42.743199689215665" lon="11.318777788514039"><ele>462.66666666666663</ele><time>2026-04-03T17:11:34Z</time></trkpt><trkpt lat="42.74332650392112" lon="11.31870253614171"><ele>458.33333333333337</ele><time>2026-04-03T17:11:35Z</time></trkpt><trkpt lat="42.74347886096807" lon="11.318649621344386"><ele>454.0</ele><time>2026-04-03T17:11:36Z</time></trkpt><trkpt lat="42.743649679184784" lon="11.318591597091238"><ele>453.33333333333337</ele><time>2026-04-03T17:11:37Z</time></trkpt><trkpt lat="42.743813978209225" lon="11.318531322535804"><ele>452.66666666666663</ele><time>2026-04-03T17:11:38Z</time></trkpt><trkpt lat="42.743966662090784" lon="11.318469045031444"><ele>452.0</ele><time>2026-04-03T17:11:39Z</time></trkpt><trkpt lat="42.74410609040563" lon="11.318380505681922"><ele>452.0</ele><time>2026-04-03T17:11:40Z</time></trkpt><trkpt lat="42.74422178424781" lon="11.318261185349964"><ele>452.0</ele><time>2026-04-03T17:11:41Z</time></trkpt><trkpt lat="42.744324257794815" lon="11.31813878400584"><ele>452.0</ele><time>2026-04-03T17:11:42Z</time></trkpt><trkpt lat="42.74442816400535" lon="11.31805004164604"><ele>452.0</ele><time>2026-04-03T17:11:43Z</time></trkpt><trkpt lat="42.74454730009081" lon="11.317994645508776"><ele>448.3333333333333</ele><time>2026-04-03T17:11:44Z</time></trkpt><trkpt lat="42.74468900459213" lon="11.317964674855938"><ele>444.66666666666663</ele><time>2026-04-03T17:11:45Z</time></trkpt><trkpt lat="42.74485151624401" lon="11.317945826589717"><ele>441.0</ele><time>2026-04-03T17:11:46Z</time></trkpt><trkpt lat="42.74503293848833" lon="11.317911431699013"><ele>441.0</ele><time>2026-04-03T17:11:47Z</time></trkpt><trkpt lat="42.74520917323167" lon="11.31790242249421"><ele>441.0</ele><time>2026-04-03T17:11:48Z</time></trkpt><trkpt lat="42.74538008749044" lon="11.317880535726575"><ele>441.0</ele><time>2026-04-03T17:11:49Z</time></trkpt><trkpt lat="42.74554072128464" lon="11.317856277263665"><ele>441.0</ele><time>2026-04-03T17:11:50Z</time></trkpt><trkpt lat="42.745692034912956" lon="11.317804140735179"><ele>441.0</ele><time>2026-04-03T17:11:51Z</time></trkpt><trkpt lat="42.745811727044284" lon="11.31773325322851"><ele>441.0</ele><time>2026-04-03T17:11:52Z</time></trkpt><trkpt lat="42.7459229180751" lon="11.317676041332145"><ele>441.0</ele><time>2026-04-03T17:11:53Z</time></trkpt><trkpt lat="42.7460294895361" lon="11.317651384177552"><ele>440.0</ele><time>2026-04-03T17:11:54Z</time></trkpt><trkpt lat="42.74613500799765" lon="11.317701486203692"><ele>439.0</ele><time>2026-04-03T17:11:55Z</time></trkpt><trkpt lat="42.74624730494777" lon="11.317807838084862"><ele>438.0</ele><time>2026-04-03T17:11:56Z</time></trkpt><trkpt lat="42.74634921685858" lon="11.317941329851138"><ele>437.0</ele><time>2026-04-03T17:11:57Z</time></trkpt><trkpt lat="42.746440148076566" lon="11.31805586243123"><ele>437.0</ele><time>2026-04-03T17:11:58Z</time></trkpt><trkpt lat="42.7465298973911" lon="11.318147327483503"><ele>437.00000000000006</ele><time>2026-04-03T17:11:59Z</time></trkpt><trkpt lat="42.746619406998875" lon="11.318199469494516"><ele>437.00000000000006</ele><time>2026-04-03T17:12:00Z</time></trkpt><trkpt lat="42.74671238414763" lon="11.318193165016151"><ele>437.0</ele><time>2026-04-03T17:12:01Z</time></trkpt><trkpt lat="42.74679254053659" lon="11.318129334057978"><ele>437.0</ele><time>2026-04-03T17:12:02Z</time></trkpt><trkpt lat="42.74684168691821" lon="11.317997545287822"><ele>437.0</ele><time>2026-04-03T17:12:03Z</time></trkpt><trkpt lat="42.746869030304225" lon="11.317816989815892"><ele>437.0</ele><time>2026-04-03T17:12:04Z</time></trkpt><trkpt lat="42.746897390449426" lon="11.317599674059872"><ele>437.0</ele><time>2026-04-03T17:12:05Z</time></trkpt><trkpt lat="42.7469382220417" lon="11.317372034112195"><ele>437.66666666666663</ele><time>2026-04-03T17:12:06Z</time></trkpt><trkpt lat="42.74697566316142" lon="11.317146973590868"><ele>438.33333333333337</ele><time>2026-04-03T17:12:07Z</time></trkpt><trkpt lat="42.74701571525418" lon="11.316938874695593"><ele>439.0</ele><time>2026-04-03T17:12:08Z</time></trkpt><trkpt lat="42.74705211951179" lon="11.31673151828032"><ele>439.0</ele><time>2026-04-03T17:12:09Z</time></trkpt><trkpt lat="42.74708940310077" lon="11.316532860557214"><ele>439.0</ele><time>2026-04-03T17:12:10Z</time></trkpt><trkpt lat="42.74713100394697" lon="11.316343905210696"><ele>439.0</ele><time>2026-04-03T17:12:11Z</time></trkpt><trkpt lat="42.74717412917292" lon="11.316181942989166"><ele>439.0</ele><time>2026-04-03T17:12:12Z</time></trkpt><trkpt lat="42.74722198402683" lon="11.316043937942483"><ele>436.0</ele><time>2026-04-03T17:12:13Z</time></trkpt><trkpt lat="42.74730507683359" lon="11.315934079977152"><ele>433.0</ele><time>2026-04-03T17:12:14Z</time></trkpt><trkpt lat="42.74743053249745" lon="11.315881010044345"><ele>430.0</ele><time>2026-04-03T17:12:15Z</time></trkpt><trkpt lat="42.747562938782806" lon="11.315880467007648"><ele>427.0</ele><time>2026-04-03T17:12:16Z</time></trkpt><trkpt lat="42.74768516079599" lon="11.315888407590137"><ele>428.5</ele><time>2026-04-03T17:12:17Z</time></trkpt><trkpt lat="42.74780315701341" lon="11.315858590196166"><ele>430.0</ele><time>2026-04-03T17:12:18Z</time></trkpt><trkpt lat="42.7479105096694" lon="11.315769631716568"><ele>431.5</ele><time>2026-04-03T17:12:19Z</time></trkpt><trkpt lat="42.74800348312658" lon="11.31562835635595"><ele>433.0</ele><time>2026-04-03T17:12:20Z</time></trkpt><trkpt lat="42.748071169709426" lon="11.315473487689738"><ele>429.79999999999995</ele><time>2026-04-03T17:12:21Z</time></trkpt><trkpt lat="42.74812624413493" lon="11.315326236287769"><ele>426.59999999999997</ele><time>2026-04-03T17:12:22Z</time></trkpt><trkpt lat="42.74817964913522" lon="11.315188124000564"><ele>423.4</ele><time>2026-04-03T17:12:22.999Z</time></trkpt><trkpt lat="42.74823941772593" lon="11.315073866417814"><ele>420.20000000000005</ele><time>2026-04-03T17:12:23.999Z</time></trkpt><trkpt lat="42.748320486948096" lon="11.315006600616439"><ele>417.0</ele><time>2026-04-03T17:12:24.999Z</time></trkpt><trkpt lat="42.74842236081933" lon="11.315005755753466"><ele>417.0</ele><time>2026-04-03T17:12:25.999Z</time></trkpt><trkpt lat="42.74853138004423" lon="11.315078471444423"><ele>417.0</ele><time>2026-04-03T17:12:26.999Z</time></trkpt><trkpt lat="42.74864523687693" lon="11.315199929172508"><ele>417.0</ele><time>2026-04-03T17:12:27.999Z</time></trkpt><trkpt lat="42.74874415039205" lon="11.31529089527502"><ele>417.0</ele><time>2026-04-03T17:12:28.999Z</time></trkpt><trkpt lat="42.74883245165446" lon="11.315348062198163"><ele>417.0</ele><time>2026-04-03T17:12:29.999Z</time></trkpt><trkpt lat="42.74893595669105" lon="11.315365444159776"><ele>417.0</ele><time>2026-04-03T17:12:30.999Z</time></trkpt><trkpt lat="42.7490352479388" lon="11.315335515351284"><ele>417.0</ele><time>2026-04-03T17:12:31.999Z</time></trkpt><trkpt lat="42.749107420886155" lon="11.315248755389863"><ele>417.0</ele><time>2026-04-03T17:12:32.999Z</time></trkpt><trkpt lat="42.7491501838277" lon="11.315116075619018"><ele>417.0</ele><time>2026-04-03T17:12:33.999Z</time></trkpt><trkpt lat="42.74917727103765" lon="11.314955192562566"><ele>417.0</ele><time>2026-04-03T17:12:34.999Z</time></trkpt><trkpt lat="42.74921481884741" lon="11.314767249139999"><ele>417.0</ele><time>2026-04-03T17:12:35.999Z</time></trkpt><trkpt lat="42.749276046792374" lon="11.31456423669931"><ele>417.0</ele><time>2026-04-03T17:12:36.999Z</time></trkpt><trkpt lat="42.74935217664084" lon="11.314353611602845"><ele>414.0</ele><time>2026-04-03T17:12:37.999Z</time></trkpt><trkpt lat="42.74942311407961" lon="11.314153839657024"><ele>411.0</ele><time>2026-04-03T17:12:38.999Z</time></trkpt><trkpt lat="42.749508525899486" lon="11.313974947901954"><ele>408.0</ele><time>2026-04-03T17:12:39.999Z</time></trkpt><trkpt lat="42.74957930048548" lon="11.313811645518363"><ele>403.25</ele><time>2026-04-03T17:12:40.999Z</time></trkpt><trkpt lat="42.749665539932614" lon="11.313692852164372"><ele>398.5</ele><time>2026-04-03T17:12:41.999Z</time></trkpt><trkpt lat="42.749794353643914" lon="11.313603313240385"><ele>393.75</ele><time>2026-04-03T17:12:42.999Z</time></trkpt><trkpt lat="42.74994743018351" lon="11.31356149999152"><ele>389.0</ele><time>2026-04-03T17:12:43.999Z</time></trkpt><trkpt lat="42.75012873349822" lon="11.313481876934082"><ele>387.25</ele><time>2026-04-03T17:12:44.999Z</time></trkpt><trkpt lat="42.750291946993805" lon="11.313443557029485"><ele>385.5</ele><time>2026-04-03T17:12:45.999Z</time></trkpt><trkpt lat="42.75042715281398" lon="11.313392207523087"><ele>383.75</ele><time>2026-04-03T17:12:46.999Z</time></trkpt><trkpt lat="42.75054797714348" lon="11.313349876548424"><ele>382.0</ele><time>2026-04-03T17:12:47.999Z</time></trkpt><trkpt lat="42.75065344306372" lon="11.313355336131057"><ele>382.0</ele><time>2026-04-03T17:12:48.999Z</time></trkpt><trkpt lat="42.75073547504278" lon="11.313388671519709"><ele>382.0</ele><time>2026-04-03T17:12:49.999Z</time></trkpt><trkpt lat="42.750793339038864" lon="11.313472319066955"><ele>382.0</ele><time>2026-04-03T17:12:50.999Z</time></trkpt><trkpt lat="42.7508481694047" lon="11.31359962268492"><ele>382.0</ele><time>2026-04-03T17:12:51.999Z</time></trkpt><trkpt lat="42.75092758405547" lon="11.313729000981645"><ele>382.0</ele><time>2026-04-03T17:12:52.999Z</time></trkpt><trkpt lat="42.751012988828506" lon="11.313842374472063"><ele>382.75</ele><time>2026-04-03T17:12:53.999Z</time></trkpt><trkpt lat="42.75111987891862" lon="11.313856929061444"><ele>383.5</ele><time>2026-04-03T17:12:54.999Z</time></trkpt><trkpt lat="42.75123691443322" lon="11.313791947466497"><ele>384.25</ele><time>2026-04-03T17:12:55.999Z</time></trkpt><trkpt lat="42.75136045502827" lon="11.313662048197376"><ele>385.0</ele><time>2026-04-03T17:12:56.999Z</time></trkpt><trkpt lat="42.751480699597536" lon="11.313483145692128"><ele>385.0</ele><time>2026-04-03T17:12:57.999Z</time></trkpt><trkpt lat="42.751614201914634" lon="11.313302752173806"><ele>385.0</ele><time>2026-04-03T17:12:58.999Z</time></trkpt><trkpt lat="42.75175252519005" lon="11.313113299342834"><ele>385.0</ele><time>2026-04-03T17:12:59.999Z</time></trkpt><trkpt lat="42.75187739082637" lon="11.312944433204192"><ele>384.25</ele><time>2026-04-03T17:13:00.999Z</time></trkpt><trkpt lat="42.75198389643202" lon="11.31278562174334"><ele>383.5</ele><time>2026-04-03T17:13:01.999Z</time></trkpt><trkpt lat="42.75208550056284" lon="11.312680492321313"><ele>382.75</ele><time>2026-04-03T17:13:02.999Z</time></trkpt><trkpt lat="42.75217847727317" lon="11.312619979256475"><ele>382.0</ele><time>2026-04-03T17:13:03.999Z</time></trkpt><trkpt lat="42.75228106546011" lon="11.312586971115746"><ele>382.0</ele><time>2026-04-03T17:13:04.999Z</time></trkpt><trkpt lat="42.75240149897666" lon="11.312603814218326"><ele>382.0</ele><time>2026-04-03T17:13:05.999Z</time></trkpt><trkpt lat="42.752542990622906" lon="11.31264850151138"><ele>382.0</ele><time>2026-04-03T17:13:06.999Z</time></trkpt><trkpt lat="42.75269684804064" lon="11.312693371579797"><ele>382.0</ele><time>2026-04-03T17:13:07.999Z</time></trkpt><trkpt lat="42.75283195221749" lon="11.312701040608578"><ele>381.0</ele><time>2026-04-03T17:13:08.999Z</time></trkpt><trkpt lat="42.75297800680971" lon="11.312707945655156"><ele>380.0</ele><time>2026-04-03T17:13:09.999Z</time></trkpt><trkpt lat="42.753146618912396" lon="11.31269288176938"><ele>379.0</ele><time>2026-04-03T17:13:10.999Z</time></trkpt><trkpt lat="42.75329941027705" lon="11.312660779369814"><ele>379.0</ele><time>2026-04-03T17:13:11.999Z</time></trkpt><trkpt lat="42.7534433795628" lon="11.312627964885683"><ele>379.0</ele><time>2026-04-03T17:13:12.999Z</time></trkpt><trkpt lat="42.753584704999284" lon="11.312601274984617"><ele>379.0</ele><time>2026-04-03T17:13:13.999Z</time></trkpt><trkpt lat="42.753716159654076" lon="11.312579599832487"><ele>379.0</ele><time>2026-04-03T17:13:14.999Z</time></trkpt><trkpt lat="42.753835324675705" lon="11.312585493190921"><ele>378.5</ele><time>2026-04-03T17:13:15.999Z</time></trkpt><trkpt lat="42.75394383002238" lon="11.312619762919445"><ele>378.0</ele><time>2026-04-03T17:13:16.999Z</time></trkpt><trkpt lat="42.75405119459484" lon="11.312646581013473"><ele>377.5</ele><time>2026-04-03T17:13:17.999Z</time></trkpt><trkpt lat="42.754163226994116" lon="11.312598465144236"><ele>377.0</ele><time>2026-04-03T17:13:18.999Z</time></trkpt><trkpt lat="42.75424854268242" lon="11.312457608238203"><ele>377.0</ele><time>2026-04-03T17:13:19.999Z</time></trkpt><trkpt lat="42.754303723844096" lon="11.312272362144789"><ele>377.0</ele><time>2026-04-03T17:13:20.999Z</time></trkpt><trkpt lat="42.754361056143274" lon="11.312082678056"><ele>377.0</ele><time>2026-04-03T17:13:21.999Z</time></trkpt><trkpt lat="42.754431199652196" lon="11.311909465181893"><ele>377.0</ele><time>2026-04-03T17:13:22.999Z</time></trkpt><trkpt lat="42.75448799849714" lon="11.311750938187359"><ele>376.75</ele><time>2026-04-03T17:13:23.999Z</time></trkpt><trkpt lat="42.754543821215876" lon="11.311609506141755"><ele>376.5</ele><time>2026-04-03T17:13:24.999Z</time></trkpt><trkpt lat="42.75462018922341" lon="11.311487311483901"><ele>376.25</ele><time>2026-04-03T17:13:25.999Z</time></trkpt><trkpt lat="42.75472509522901" lon="11.311395045789196"><ele>376.0</ele><time>2026-04-03T17:13:26.999Z</time></trkpt><trkpt lat="42.75485348218449" lon="11.311314495639902"><ele>374.25</ele><time>2026-04-03T17:13:27.999Z</time></trkpt><trkpt lat="42.754989034364485" lon="11.311284136655624"><ele>372.5</ele><time>2026-04-03T17:13:28.999Z</time></trkpt><trkpt lat="42.75511995822555" lon="11.311315528119708"><ele>370.75</ele><time>2026-04-03T17:13:29.999Z</time></trkpt><trkpt lat="42.75522217960992" lon="11.31138893815133"><ele>369.0</ele><time>2026-04-03T17:13:31Z</time></trkpt><trkpt lat="42.75530264292823" lon="11.311517676136072"><ele>369.0</ele><time>2026-04-03T17:13:32Z</time></trkpt><trkpt lat="42.75538842336749" lon="11.311653023535516"><ele>369.0</ele><time>2026-04-03T17:13:33Z</time></trkpt><trkpt lat="42.755488751283934" lon="11.311762485160521"><ele>369.0</ele><time>2026-04-03T17:13:34Z</time></trkpt><trkpt lat="42.755614825287076" lon="11.31184036497062"><ele>369.0</ele><time>2026-04-03T17:13:35Z</time></trkpt><trkpt lat="42.755759712158884" lon="11.311858118067663"><ele>369.0</ele><time>2026-04-03T17:13:36Z</time></trkpt><trkpt lat="42.755915001782995" lon="11.31185604449723"><ele>369.0</ele><time>2026-04-03T17:13:37Z</time></trkpt><trkpt lat="42.75607392183404" lon="11.311837278151852"><ele>369.0</ele><time>2026-04-03T17:13:38Z</time></trkpt><trkpt lat="42.756248375020604" lon="11.311852507131118"><ele>366.6666666666667</ele><time>2026-04-03T17:13:39Z</time></trkpt><trkpt lat="42.756414924616706" lon="11.311890738028605"><ele>364.33333333333337</ele><time>2026-04-03T17:13:40Z</time></trkpt><trkpt lat="42.75657049830312" lon="11.31190784367655"><ele>362.0</ele><time>2026-04-03T17:13:41Z</time></trkpt><trkpt lat="42.75674135318929" lon="11.31189332862991"><ele>361.0</ele><time>2026-04-03T17:13:42Z</time></trkpt><trkpt lat="42.75690802753652" lon="11.311887105553984"><ele>360.0</ele><time>2026-04-03T17:13:43Z</time></trkpt><trkpt lat="42.75706490482485" lon="11.311879303496159"><ele>359.0</ele><time>2026-04-03T17:13:44Z</time></trkpt><trkpt lat="42.75721751218298" lon="11.311874872967087"><ele>359.0</ele><time>2026-04-03T17:13:45Z</time></trkpt><trkpt lat="42.757361812173436" lon="11.311880394224538"><ele>359.0</ele><time>2026-04-03T17:13:46Z</time></trkpt><trkpt lat="42.757497882705024" lon="11.31191352169905"><ele>359.0</ele><time>2026-04-03T17:13:47Z</time></trkpt><trkpt lat="42.757612735923544" lon="11.311996544121074"><ele>359.0</ele><time>2026-04-03T17:13:48Z</time></trkpt><trkpt lat="42.75769142318427" lon="11.31211461204624"><ele>358.5</ele><time>2026-04-03T17:13:49Z</time></trkpt><trkpt lat="42.75774636928171" lon="11.312263212837994"><ele>358.0</ele><time>2026-04-03T17:13:50Z</time></trkpt><trkpt lat="42.75777451369976" lon="11.31242970433927"><ele>357.5</ele><time>2026-04-03T17:13:51Z</time></trkpt><trkpt lat="42.7578090170301" lon="11.312568373630938"><ele>357.0</ele><time>2026-04-03T17:13:52Z</time></trkpt><trkpt lat="42.757885535497635" lon="11.312689729190264"><ele>357.0</ele><time>2026-04-03T17:13:53Z</time></trkpt><trkpt lat="42.7580162414668" lon="11.312779372532926"><ele>357.0</ele><time>2026-04-03T17:13:54Z</time></trkpt><trkpt lat="42.75817548572989" lon="11.312849523393659"><ele>357.0</ele><time>2026-04-03T17:13:55Z</time></trkpt><trkpt lat="42.758333230040606" lon="11.312917787321092"><ele>357.0</ele><time>2026-04-03T17:13:56Z</time></trkpt><trkpt lat="42.758493310785745" lon="11.312993120272084"><ele>357.0</ele><time>2026-04-03T17:13:57Z</time></trkpt><trkpt lat="42.7586399124558" lon="11.31306555529661"><ele>357.0</ele><time>2026-04-03T17:13:58Z</time></trkpt><trkpt lat="42.75877920058082" lon="11.31313728050456"><ele>356.5</ele><time>2026-04-03T17:13:59Z</time></trkpt><trkpt lat="42.75891760972404" lon="11.313207698511345"><ele>356.0</ele><time>2026-04-03T17:14:00Z</time></trkpt><trkpt lat="42.75904803931107" lon="11.313276404289734"><ele>355.5</ele><time>2026-04-03T17:14:01Z</time></trkpt><trkpt lat="42.75917851318161" lon="11.313356205965006"><ele>355.0</ele><time>2026-04-03T17:14:02Z</time></trkpt><trkpt lat="42.759298991810226" lon="11.313446488016167"><ele>353.8</ele><time>2026-04-03T17:14:03Z</time></trkpt><trkpt lat="42.75939171286548" lon="11.31353489280514"><ele>352.6</ele><time>2026-04-03T17:14:04Z</time></trkpt><trkpt lat="42.75947235436606" lon="11.313626131400198"><ele>351.4</ele><time>2026-04-03T17:14:05Z</time></trkpt><trkpt lat="42.75954103381231" lon="11.31371470198903"><ele>350.2</ele><time>2026-04-03T17:14:06Z</time></trkpt><trkpt lat="42.759607461586626" lon="11.313798395624186"><ele>349.0</ele><time>2026-04-03T17:14:07Z</time></trkpt><trkpt lat="42.75968185138964" lon="11.313892507642407"><ele>349.79999999999995</ele><time>2026-04-03T17:14:08Z</time></trkpt><trkpt lat="42.759755348408426" lon="11.31397243275261"><ele>350.59999999999997</ele><time>2026-04-03T17:14:09Z</time></trkpt><trkpt lat="42.759823729781594" lon="11.314039777298374"><ele>351.4</ele><time>2026-04-03T17:14:10Z</time></trkpt><trkpt lat="42.75990583675445" lon="11.314093803108605"><ele>352.2</ele><time>2026-04-03T17:14:11Z</time></trkpt><trkpt lat="42.7600111351708" lon="11.31416639865715"><ele>353.0</ele><time>2026-04-03T17:14:12Z</time></trkpt><trkpt lat="42.76011332634593" lon="11.314265308198092"><ele>351.2</ele><time>2026-04-03T17:14:13Z</time></trkpt><trkpt lat="42.760207133472484" lon="11.314348583119415"><ele>349.4</ele><time>2026-04-03T17:14:14Z</time></trkpt><trkpt lat="42.760299246578604" lon="11.314409539831356"><ele>347.59999999999997</ele><time>2026-04-03T17:14:15Z</time></trkpt><trkpt lat="42.76038650721246" lon="11.314455664751558"><ele>345.79999999999995</ele><time>2026-04-03T17:14:16Z</time></trkpt><trkpt lat="42.76047785368269" lon="11.314467589219397"><ele>344.0</ele><time>2026-04-03T17:14:17Z</time></trkpt><trkpt lat="42.76058410416386" lon="11.314428595929119"><ele>344.0</ele><time>2026-04-03T17:14:18Z</time></trkpt><trkpt lat="42.760689788897764" lon="11.314337204074919"><ele>344.0</ele><time>2026-04-03T17:14:19Z</time></trkpt><trkpt lat="42.76079246493885" lon="11.31422309520109"><ele>344.0</ele><time>2026-04-03T17:14:19.999Z</time></trkpt><trkpt lat="42.760884816375885" lon="11.314108746941296"><ele>344.0</ele><time>2026-04-03T17:14:20.999Z</time></trkpt><trkpt lat="42.76097840321799" lon="11.314004357126725"><ele>341.79999999999995</ele><time>2026-04-03T17:14:21.999Z</time></trkpt><trkpt lat="42.76107023573486" lon="11.313925750391238"><ele>339.59999999999997</ele><time>2026-04-03T17:14:22.999Z</time></trkpt><trkpt lat="42.761157357189326" lon="11.313872706308272"><ele>337.4</ele><time>2026-04-03T17:14:23.999Z</time></trkpt><trkpt lat="42.761240507180005" lon="11.31385160008056"><ele>335.2</ele><time>2026-04-03T17:14:24.999Z</time></trkpt><trkpt lat="42.761331712571454" lon="11.31386036464036"><ele>333.0</ele><time>2026-04-03T17:14:25.999Z</time></trkpt><trkpt lat="42.761417759390795" lon="11.313904009813685"><ele>333.0</ele><time>2026-04-03T17:14:26.999Z</time></trkpt><trkpt lat="42.76149589893259" lon="11.313995330846504"><ele>333.0</ele><time>2026-04-03T17:14:27.999Z</time></trkpt><trkpt lat="42.761560867985885" lon="11.314132210180487"><ele>333.0</ele><time>2026-04-03T17:14:28.999Z</time></trkpt><trkpt lat="42.761630573475045" lon="11.314293937496478"><ele>333.0</ele><time>2026-04-03T17:14:29.999Z</time></trkpt><trkpt lat="42.76170815251467" lon="11.314453217173302"><ele>333.0</ele><time>2026-04-03T17:14:30.999Z</time></trkpt><trkpt lat="42.76179708805073" lon="11.314630059478533"><ele>333.0</ele><time>2026-04-03T17:14:31.999Z</time></trkpt><trkpt lat="42.761867792578165" lon="11.314790942107432"><ele>333.0</ele><time>2026-04-03T17:14:32.999Z</time></trkpt><trkpt lat="42.76194420507566" lon="11.314957886910433"><ele>333.0</ele><time>2026-04-03T17:14:33.999Z</time></trkpt><trkpt lat="42.76202061310038" lon="11.315106865612341"><ele>331.5</ele><time>2026-04-03T17:14:34.999Z</time></trkpt><trkpt lat="42.76210350585958" lon="11.315250528750935"><ele>330.0</ele><time>2026-04-03T17:14:35.999Z</time></trkpt><trkpt lat="42.76218377927413" lon="11.315383283472633"><ele>328.5</ele><time>2026-04-03T17:14:36.999Z</time></trkpt><trkpt lat="42.76226950448132" lon="11.315493321156804"><ele>327.0</ele><time>2026-04-03T17:14:37.999Z</time></trkpt><trkpt lat="42.76234936144319" lon="11.315606177199951"><ele>327.0</ele><time>2026-04-03T17:14:38.999Z</time></trkpt><trkpt lat="42.76241989802275" lon="11.315702186841042"><ele>327.0</ele><time>2026-04-03T17:14:39.999Z</time></trkpt><trkpt lat="42.762494783218585" lon="11.315769820553571"><ele>327.0</ele><time>2026-04-03T17:14:40.999Z</time></trkpt><trkpt lat="42.76258322584181" lon="11.315778921512385"><ele>327.0</ele><time>2026-04-03T17:14:41.999Z</time></trkpt><trkpt lat="42.76268369218656" lon="11.31572292497235"><ele>327.0</ele><time>2026-04-03T17:14:42.999Z</time></trkpt><trkpt lat="42.7627801137209" lon="11.315591507075721"><ele>320.5</ele><time>2026-04-03T17:14:43.999Z</time></trkpt><trkpt lat="42.76286265795439" lon="11.315471434333249"><ele>314.0</ele><time>2026-04-03T17:14:44.999Z</time></trkpt><trkpt lat="42.762950569542326" lon="11.315371428129298"><ele>307.5</ele><time>2026-04-03T17:14:45.999Z</time></trkpt><trkpt lat="42.763050717101244" lon="11.315297475089398"><ele>301.0</ele><time>2026-04-03T17:14:46.999Z</time></trkpt><trkpt lat="42.763167333958016" lon="11.315269047463993"><ele>301.0</ele><time>2026-04-03T17:14:47.999Z</time></trkpt><trkpt lat="42.7632947039726" lon="11.315308643234067"><ele>301.0</ele><time>2026-04-03T17:14:48.999Z</time></trkpt><trkpt lat="42.76342243111561" lon="11.315400796632021"><ele>301.0</ele><time>2026-04-03T17:14:49.999Z</time></trkpt><trkpt lat="42.7635312213028" lon="11.315516912459614"><ele>301.0</ele><time>2026-04-03T17:14:50.999Z</time></trkpt><trkpt lat="42.76364130617895" lon="11.315622691444183"><ele>300.25</ele><time>2026-04-03T17:14:51.999Z</time></trkpt><trkpt lat="42.76374910709319" lon="11.315717607824157"><ele>299.5</ele><time>2026-04-03T17:14:52.999Z</time></trkpt><trkpt lat="42.76385742333134" lon="11.315815386229074"><ele>298.75</ele><time>2026-04-03T17:14:53.999Z</time></trkpt><trkpt lat="42.76396431601112" lon="11.315914895114851"><ele>298.0</ele><time>2026-04-03T17:14:54.999Z</time></trkpt><trkpt lat="42.764082601655225" lon="11.316001143588535"><ele>298.0</ele><time>2026-04-03T17:14:55.999Z</time></trkpt><trkpt lat="42.764206465231034" lon="11.316072307527069"><ele>298.0</ele><time>2026-04-03T17:14:56.999Z</time></trkpt><trkpt lat="42.7643289558033" lon="11.316119993479711"><ele>298.0</ele><time>2026-04-03T17:14:57.999Z</time></trkpt><trkpt lat="42.764454638031545" lon="11.31614729897611"><ele>298.0</ele><time>2026-04-03T17:14:58.999Z</time></trkpt><trkpt lat="42.764580920755165" lon="11.316128588177769"><ele>295.75</ele><time>2026-04-03T17:14:59.999Z</time></trkpt><trkpt lat="42.76471463520372" lon="11.316078073623656"><ele>293.5</ele><time>2026-04-03T17:15:00.999Z</time></trkpt><trkpt lat="42.76484940911582" lon="11.31603274946604"><ele>291.25</ele><time>2026-04-03T17:15:01.999Z</time></trkpt><trkpt lat="42.76498535734992" lon="11.316006827015398"><ele>289.0</ele><time>2026-04-03T17:15:02.999Z</time></trkpt><trkpt lat="42.76511786811953" lon="11.315980786254379"><ele>287.0</ele><time>2026-04-03T17:15:03.999Z</time></trkpt><trkpt lat="42.76524288552164" lon="11.315950645048613"><ele>285.0</ele><time>2026-04-03T17:15:04.999Z</time></trkpt><trkpt lat="42.76537250268755" lon="11.315925897358046"><ele>283.0</ele><time>2026-04-03T17:15:05.999Z</time></trkpt><trkpt lat="42.76549854663215" lon="11.315898517020885"><ele>281.0</ele><time>2026-04-03T17:15:06.999Z</time></trkpt><trkpt lat="42.765622469331" lon="11.31587262174132"><ele>281.0</ele><time>2026-04-03T17:15:07.999Z</time></trkpt><trkpt lat="42.76575310060061" lon="11.315851927449575"><ele>281.0</ele><time>2026-04-03T17:15:08.999Z</time></trkpt><trkpt lat="42.76588857843723" lon="11.315853443959318"><ele>281.0</ele><time>2026-04-03T17:15:09.999Z</time></trkpt><trkpt lat="42.766019634942914" lon="11.315879158437816"><ele>281.0</ele><time>2026-04-03T17:15:10.999Z</time></trkpt><trkpt lat="42.76614423610584" lon="11.315933821092548"><ele>277.6666666666667</ele><time>2026-04-03T17:15:11.999Z</time></trkpt><trkpt lat="42.76627490534312" lon="11.316030156823041"><ele>274.3333333333333</ele><time>2026-04-03T17:15:12.999Z</time></trkpt><trkpt lat="42.766404372362054" lon="11.316174952380576"><ele>271.0</ele><time>2026-04-03T17:15:13.999Z</time></trkpt><trkpt lat="42.766533066217626" lon="11.316306707610844"><ele>272.66666666666663</ele><time>2026-04-03T17:15:14.999Z</time></trkpt><trkpt lat="42.76666227287388" lon="11.31643293822951"><ele>274.3333333333333</ele><time>2026-04-03T17:15:15.999Z</time></trkpt><trkpt lat="42.766817182567216" lon="11.316562118980194"><ele>276.0</ele><time>2026-04-03T17:15:16.999Z</time></trkpt><trkpt lat="42.766993548103756" lon="11.316665477166625"><ele>276.0</ele><time>2026-04-03T17:15:17.999Z</time></trkpt><trkpt lat="42.767159101781324" lon="11.316739508513475"><ele>276.0</ele><time>2026-04-03T17:15:18.999Z</time></trkpt><trkpt lat="42.76731084487051" lon="11.316805165187672"><ele>276.0</ele><time>2026-04-03T17:15:19.999Z</time></trkpt><trkpt lat="42.76744496643739" lon="11.316871631247777"><ele>276.0</ele><time>2026-04-03T17:15:20.999Z</time></trkpt><trkpt lat="42.76756188857589" lon="11.31692712928355"><ele>276.0</ele><time>2026-04-03T17:15:21.999Z</time></trkpt><trkpt lat="42.76765891470459" lon="11.316973886667672"><ele>276.0</ele><time>2026-04-03T17:15:22.999Z</time></trkpt><trkpt lat="42.76774373045415" lon="11.317028241431286"><ele>276.0</ele><time>2026-04-03T17:15:23.999Z</time></trkpt><trkpt lat="42.76781638110883" lon="11.31709860578358"><ele>276.0</ele><time>2026-04-03T17:15:24.999Z</time></trkpt><trkpt lat="42.767878024932635" lon="11.317197095126525"><ele>274.40000000000003</ele><time>2026-04-03T17:15:25.999Z</time></trkpt><trkpt lat="42.76789904747708" lon="11.317329278601957"><ele>272.8</ele><time>2026-04-03T17:15:26.999Z</time></trkpt><trkpt lat="42.7679022485212" lon="11.317464274352403"><ele>271.20000000000005</ele><time>2026-04-03T17:15:27.999Z</time></trkpt><trkpt lat="42.767926201822235" lon="11.317620430229743"><ele>269.6</ele><time>2026-04-03T17:15:28.999Z</time></trkpt><trkpt lat="42.767972587665376" lon="11.317783287489481"><ele>268.0</ele><time>2026-04-03T17:15:29.999Z</time></trkpt><trkpt lat="42.76806729338606" lon="11.317949785507611"><ele>268.75</ele><time>2026-04-03T17:15:30.999Z</time></trkpt><trkpt lat="42.768184414481745" lon="11.318087495552442"><ele>269.5</ele><time>2026-04-03T17:15:31.999Z</time></trkpt><trkpt lat="42.76829932944803" lon="11.318209044118824"><ele>270.25</ele><time>2026-04-03T17:15:32.999Z</time></trkpt><trkpt lat="42.768402813037646" lon="11.318325293295102"><ele>271.0</ele><time>2026-04-03T17:15:33.999Z</time></trkpt><trkpt lat="42.768496601726916" lon="11.318443805133908"><ele>270.25</ele><time>2026-04-03T17:15:34.999Z</time></trkpt><trkpt lat="42.76856714068019" lon="11.318580853123114"><ele>269.5</ele><time>2026-04-03T17:15:35.999Z</time></trkpt><trkpt lat="42.768638449614464" lon="11.3187123542535"><ele>268.75</ele><time>2026-04-03T17:15:37Z</time></trkpt><trkpt lat="42.76872136029115" lon="11.31883582051406"><ele>268.0</ele><time>2026-04-03T17:15:38Z</time></trkpt><trkpt lat="42.76879235321558" lon="11.31896584987397"><ele>268.0</ele><time>2026-04-03T17:15:39Z</time></trkpt><trkpt lat="42.76886240088236" lon="11.31909634137096"><ele>268.0</ele><time>2026-04-03T17:15:40Z</time></trkpt><trkpt lat="42.76892112112499" lon="11.319208115497016"><ele>268.0</ele><time>2026-04-03T17:15:41Z</time></trkpt><trkpt lat="42.768972858685636" lon="11.31930075077744"><ele>268.0</ele><time>2026-04-03T17:15:42Z</time></trkpt><trkpt lat="42.7690274535475" lon="11.319371807465846"><ele>268.0</ele><time>2026-04-03T17:15:43Z</time></trkpt><trkpt lat="42.76910140079404" lon="11.319421664475257"><ele>268.0</ele><time>2026-04-03T17:15:44Z</time></trkpt><trkpt lat="42.76918888555107" lon="11.31943480086752"><ele>268.0</ele><time>2026-04-03T17:15:45Z</time></trkpt><trkpt lat="42.76929325258736" lon="11.319406641404706"><ele>268.0</ele><time>2026-04-03T17:15:46Z</time></trkpt><trkpt lat="42.76939127693027" lon="11.319360096082326"><ele>268.0</ele><time>2026-04-03T17:15:47Z</time></trkpt><trkpt lat="42.76947820165379" lon="11.319334694836735"><ele>268.0</ele><time>2026-04-03T17:15:48Z</time></trkpt><trkpt lat="42.76956304789938" lon="11.319306189690078"><ele>268.2857142857143</ele><time>2026-04-03T17:15:49Z</time></trkpt><trkpt lat="42.769635181160155" lon="11.319277253928885"><ele>268.57142857142856</ele><time>2026-04-03T17:15:50Z</time></trkpt><trkpt lat="42.769706811584584" lon="11.319260625678444"><ele>268.85714285714283</ele><time>2026-04-03T17:15:51Z</time></trkpt><trkpt lat="42.76977292664449" lon="11.319259765956444"><ele>269.1428571428571</ele><time>2026-04-03T17:15:52Z</time></trkpt><trkpt lat="42.769839452051805" lon="11.3192596306664"><ele>269.4285714285714</ele><time>2026-04-03T17:15:53Z</time></trkpt><trkpt lat="42.76990830542769" lon="11.319246898776568"><ele>269.7142857142857</ele><time>2026-04-03T17:15:54Z</time></trkpt><trkpt lat="42.7699873244208" lon="11.319218252168644"><ele>270.0</ele><time>2026-04-03T17:15:55Z</time></trkpt><trkpt lat="42.77006855142355" lon="11.31918538677745"><ele>270.0</ele><time>2026-04-03T17:15:56Z</time></trkpt><trkpt lat="42.77015976134632" lon="11.319153597408075"><ele>270.0</ele><time>2026-04-03T17:15:57Z</time></trkpt><trkpt lat="42.77024900684113" lon="11.319119794389367"><ele>270.0</ele><time>2026-04-03T17:15:58Z</time></trkpt><trkpt lat="42.7703271461001" lon="11.319085326193601"><ele>270.0</ele><time>2026-04-03T17:15:59Z</time></trkpt><trkpt lat="42.77039868867902" lon="11.319069538213865"><ele>270.0</ele><time>2026-04-03T17:16:00Z</time></trkpt><trkpt lat="42.77046473244447" lon="11.31904644864705"><ele>270.0</ele><time>2026-04-03T17:16:01Z</time></trkpt><trkpt lat="42.770541250850656" lon="11.319037184774162"><ele>270.3333333333333</ele><time>2026-04-03T17:16:02Z</time></trkpt><trkpt lat="42.77059970530698" lon="11.319080072637318"><ele>270.6666666666667</ele><time>2026-04-03T17:16:03Z</time></trkpt><trkpt lat="42.770729396962295" lon="11.319051033321966"><ele>271.0</ele><time>2026-04-03T17:16:05Z</time></trkpt><trkpt lat="42.77080664692299" lon="11.319014325317704"><ele>271.33333333333337</ele><time>2026-04-03T17:16:06Z</time></trkpt><trkpt lat="42.770885489179776" lon="11.318977927543095"><ele>271.6666666666667</ele><time>2026-04-03T17:16:07Z</time></trkpt><trkpt lat="42.77096561923137" lon="11.318941488165096"><ele>272.0</ele><time>2026-04-03T17:16:08Z</time></trkpt><trkpt lat="42.771046396898136" lon="11.318904807278194"><ele>271.83333333333337</ele><time>2026-04-03T17:16:09Z</time></trkpt><trkpt lat="42.7711017105099" lon="11.318833357126486"><ele>271.6666666666667</ele><time>2026-04-03T17:16:10Z</time></trkpt><trkpt lat="42.77118353200049" lon="11.318772250358153"><ele>271.5</ele><time>2026-04-03T17:16:12Z</time></trkpt><trkpt lat="42.771278933705574" lon="11.318734537146101"><ele>271.3333333333333</ele><time>2026-04-03T17:16:14Z</time></trkpt><trkpt lat="42.771351336064164" lon="11.318691248152707"><ele>271.16666666666663</ele><time>2026-04-03T17:16:15Z</time></trkpt><trkpt lat="42.77143166387137" lon="11.318644137757081"><ele>271.0</ele><time>2026-04-03T17:16:16Z</time></trkpt><trkpt lat="42.77150849094535" lon="11.31860292994413"><ele>271.0</ele><time>2026-04-03T17:16:17Z</time></trkpt><trkpt lat="42.77158465038255" lon="11.31856686714299"><ele>271.0</ele><time>2026-04-03T17:16:18Z</time></trkpt><trkpt lat="42.77166840798705" lon="11.318527206479283"><ele>271.0</ele><time>2026-04-03T17:16:19Z</time></trkpt><trkpt lat="42.77174959275206" lon="11.3184663849327"><ele>271.0</ele><time>2026-04-03T17:16:20Z</time></trkpt><trkpt lat="42.77183449447302" lon="11.318423604792274"><ele>271.0</ele><time>2026-04-03T17:16:21Z</time></trkpt><trkpt lat="42.77191407799011" lon="11.318375263320416"><ele>271.0</ele><time>2026-04-03T17:16:22Z</time></trkpt><trkpt lat="42.77199307256067" lon="11.31833193720982"><ele>270.0</ele><time>2026-04-03T17:16:23Z</time></trkpt><trkpt lat="42.772071733203255" lon="11.31829961084127"><ele>269.0</ele><time>2026-04-03T17:16:24Z</time></trkpt><trkpt lat="42.772150069516805" lon="11.318265052035994"><ele>268.0</ele><time>2026-04-03T17:16:25Z</time></trkpt><trkpt lat="42.77223368581502" lon="11.318217564346769"><ele>267.0</ele><time>2026-04-03T17:16:25.999Z</time></trkpt><trkpt lat="42.77232231503312" lon="11.318164263701059"><ele>266.0</ele><time>2026-04-03T17:16:26.999Z</time></trkpt><trkpt lat="42.77241004524701" lon="11.318111181986364"><ele>265.0</ele><time>2026-04-03T17:16:27.999Z</time></trkpt><trkpt lat="42.7724994389174" lon="11.318069653511852"><ele>263.4</ele><time>2026-04-03T17:16:28.999Z</time></trkpt><trkpt lat="42.772596167486455" lon="11.318033895757097"><ele>261.8</ele><time>2026-04-03T17:16:29.999Z</time></trkpt><trkpt lat="42.77269285790545" lon="11.318020838361608"><ele>260.2</ele><time>2026-04-03T17:16:30.999Z</time></trkpt><trkpt lat="42.77278530040431" lon="11.318005501324679"><ele>258.6</ele><time>2026-04-03T17:16:31.999Z</time></trkpt><trkpt lat="42.77287591110536" lon="11.317997881800766"><ele>257.0</ele><time>2026-04-03T17:16:32.999Z</time></trkpt><trkpt lat="42.77296769752046" lon="11.318010433583026"><ele>256.6</ele><time>2026-04-03T17:16:33.999Z</time></trkpt><trkpt lat="42.77305758946613" lon="11.318035987266004"><ele>256.2</ele><time>2026-04-03T17:16:34.999Z</time></trkpt><trkpt lat="42.77314988305449" lon="11.318073628964703"><ele>255.8</ele><time>2026-04-03T17:16:35.999Z</time></trkpt><trkpt lat="42.7732433673974" lon="11.318112501670726"><ele>255.4</ele><time>2026-04-03T17:16:36.999Z</time></trkpt><trkpt lat="42.77334225614577" lon="11.318124992542446"><ele>255.0</ele><time>2026-04-03T17:16:37.999Z</time></trkpt><trkpt lat="42.77344565185914" lon="11.318080722293509"><ele>252.25</ele><time>2026-04-03T17:16:38.999Z</time></trkpt><trkpt lat="42.77354611203832" lon="11.31798490766359"><ele>249.5</ele><time>2026-04-03T17:16:39.999Z</time></trkpt><trkpt lat="42.77364360925584" lon="11.317889725344862"><ele>246.75</ele><time>2026-04-03T17:16:40.999Z</time></trkpt><trkpt lat="42.77373817842783" lon="11.317795823937765"><ele>244.0</ele><time>2026-04-03T17:16:41.999Z</time></trkpt><trkpt lat="42.77383194515009" lon="11.31770165398933"><ele>244.0</ele><time>2026-04-03T17:16:42.999Z</time></trkpt><trkpt lat="42.77392889475796" lon="11.317611191769448"><ele>244.0</ele><time>2026-04-03T17:16:43.999Z</time></trkpt><trkpt lat="42.77402567189935" lon="11.317524841618912"><ele>244.0</ele><time>2026-04-03T17:16:44.999Z</time></trkpt><trkpt lat="42.7741231840228" lon="11.317442150415944"><ele>244.0</ele><time>2026-04-03T17:16:45.999Z</time></trkpt><trkpt lat="42.77421358532527" lon="11.317369900100172"><ele>244.0</ele><time>2026-04-03T17:16:46.999Z</time></trkpt><trkpt lat="42.77430442231443" lon="11.317316075360383"><ele>243.99999999999997</ele><time>2026-04-03T17:16:47.999Z</time></trkpt><trkpt lat="42.77439525588345" lon="11.317299864458933"><ele>243.99999999999997</ele><time>2026-04-03T17:16:48.999Z</time></trkpt><trkpt lat="42.7744854353899" lon="11.317335387881572"><ele>244.0</ele><time>2026-04-03T17:16:49.999Z</time></trkpt><trkpt lat="42.77456767234407" lon="11.317408690446351"><ele>244.0</ele><time>2026-04-03T17:16:50.999Z</time></trkpt><trkpt lat="42.774653411761555" lon="11.317482255807716"><ele>243.0</ele><time>2026-04-03T17:16:51.999Z</time></trkpt><trkpt lat="42.77475792837473" lon="11.317502813895869"><ele>242.0</ele><time>2026-04-03T17:16:52.999Z</time></trkpt><trkpt lat="42.7748843838195" lon="11.31747341500284"><ele>241.0</ele><time>2026-04-03T17:16:53.999Z</time></trkpt><trkpt lat="42.7750097493052" lon="11.317409962852961"><ele>240.0</ele><time>2026-04-03T17:16:54.999Z</time></trkpt><trkpt lat="42.77512202031043" lon="11.317348143289877"><ele>239.0</ele><time>2026-04-03T17:16:55.999Z</time></trkpt><trkpt lat="42.77523102767865" lon="11.317288156271111"><ele>238.0</ele><time>2026-04-03T17:16:56.999Z</time></trkpt><trkpt lat="42.775321964806245" lon="11.31720796053995"><ele>237.0</ele><time>2026-04-03T17:16:57.999Z</time></trkpt><trkpt lat="42.77541310291346" lon="11.317127396143476"><ele>236.0</ele><time>2026-04-03T17:16:58.999Z</time></trkpt><trkpt lat="42.775510776113755" lon="11.317064589041623"><ele>235.0</ele><time>2026-04-03T17:16:59.999Z</time></trkpt><trkpt lat="42.77561048355252" lon="11.317010520480832"><ele>231.6</ele><time>2026-04-03T17:17:00.999Z</time></trkpt><trkpt lat="42.77571134891268" lon="11.316959339950966"><ele>228.2</ele><time>2026-04-03T17:17:01.999Z</time></trkpt><trkpt lat="42.77579967686962" lon="11.316894072704114"><ele>224.8</ele><time>2026-04-03T17:17:02.999Z</time></trkpt><trkpt lat="42.77587223698158" lon="11.316800928639777"><ele>221.4</ele><time>2026-04-03T17:17:03.999Z</time></trkpt><trkpt lat="42.77593248078089" lon="11.316708367364697"><ele>218.0</ele><time>2026-04-03T17:17:04.999Z</time></trkpt><trkpt lat="42.77600417374141" lon="11.316632180256342"><ele>215.60000000000002</ele><time>2026-04-03T17:17:05.999Z</time></trkpt><trkpt lat="42.77609131359195" lon="11.316584288178413"><ele>213.20000000000002</ele><time>2026-04-03T17:17:06.999Z</time></trkpt><trkpt lat="42.776182379502856" lon="11.316571928384462"><ele>210.8</ele><time>2026-04-03T17:17:07.999Z</time></trkpt><trkpt lat="42.776272209174266" lon="11.316606994986145"><ele>208.4</ele><time>2026-04-03T17:17:08.999Z</time></trkpt><trkpt lat="42.77635377626598" lon="11.31666534757753"><ele>206.0</ele><time>2026-04-03T17:17:09.999Z</time></trkpt><trkpt lat="42.77643345368165" lon="11.316741462638129"><ele>206.0</ele><time>2026-04-03T17:17:10.999Z</time></trkpt><trkpt lat="42.77651012590392" lon="11.316822777625443"><ele>206.0</ele><time>2026-04-03T17:17:11.999Z</time></trkpt><trkpt lat="42.77659758258544" lon="11.316894546383137"><ele>206.0</ele><time>2026-04-03T17:17:12.999Z</time></trkpt><trkpt lat="42.776698240132475" lon="11.316948671634488"><ele>206.0</ele><time>2026-04-03T17:17:13.999Z</time></trkpt><trkpt lat="42.77680298497304" lon="11.316991057884923"><ele>206.0</ele><time>2026-04-03T17:17:14.999Z</time></trkpt><trkpt lat="42.77690804732632" lon="11.31702466627899"><ele>203.25</ele><time>2026-04-03T17:17:15.999Z</time></trkpt><trkpt lat="42.77701725360011" lon="11.317057604610358"><ele>200.5</ele><time>2026-04-03T17:17:16.999Z</time></trkpt><trkpt lat="42.777124939320025" lon="11.317067738640931"><ele>197.75</ele><time>2026-04-03T17:17:17.999Z</time></trkpt><trkpt lat="42.777235742581404" lon="11.317043504901132"><ele>195.0</ele><time>2026-04-03T17:17:18.999Z</time></trkpt><trkpt lat="42.777349498196685" lon="11.316988797311927"><ele>195.0</ele><time>2026-04-03T17:17:19.999Z</time></trkpt><trkpt lat="42.77745091773412" lon="11.316921182971504"><ele>195.0</ele><time>2026-04-03T17:17:20.999Z</time></trkpt><trkpt lat="42.77756121649066" lon="11.316885142890314"><ele>195.0</ele><time>2026-04-03T17:17:21.999Z</time></trkpt><trkpt lat="42.77768914062678" lon="11.316868767541985"><ele>195.0</ele><time>2026-04-03T17:17:22.999Z</time></trkpt><trkpt lat="42.777827315663025" lon="11.31688284232341"><ele>194.5</ele><time>2026-04-03T17:17:23.999Z</time></trkpt><trkpt lat="42.77795066620898" lon="11.316913591163456"><ele>194.0</ele><time>2026-04-03T17:17:24.999Z</time></trkpt><trkpt lat="42.778066520660786" lon="11.316935094086176"><ele>193.5</ele><time>2026-04-03T17:17:25.999Z</time></trkpt><trkpt lat="42.778188158548645" lon="11.316934232174095"><ele>193.0</ele><time>2026-04-03T17:17:26.999Z</time></trkpt><trkpt lat="42.77832154734045" lon="11.316911128188622"><ele>193.0</ele><time>2026-04-03T17:17:27.999Z</time></trkpt><trkpt lat="42.77845070802239" lon="11.316873915015732"><ele>193.0</ele><time>2026-04-03T17:17:28.999Z</time></trkpt><trkpt lat="42.77857554111598" lon="11.31683396907553"><ele>193.0</ele><time>2026-04-03T17:17:29.999Z</time></trkpt><trkpt lat="42.77869647043374" lon="11.316800057355454"><ele>193.0</ele><time>2026-04-03T17:17:30.999Z</time></trkpt><trkpt lat="42.77881869492453" lon="11.316784057226602"><ele>190.25</ele><time>2026-04-03T17:17:31.999Z</time></trkpt><trkpt lat="42.778949147199974" lon="11.31678656315849"><ele>187.5</ele><time>2026-04-03T17:17:32.999Z</time></trkpt><trkpt lat="42.77907792231613" lon="11.316799240231443"><ele>184.75</ele><time>2026-04-03T17:17:33.999Z</time></trkpt><trkpt lat="42.77920629572657" lon="11.316809872480091"><ele>182.0</ele><time>2026-04-03T17:17:34.999Z</time></trkpt><trkpt lat="42.7793328979523" lon="11.316826630200369"><ele>180.0</ele><time>2026-04-03T17:17:35.999Z</time></trkpt><trkpt lat="42.7794579700414" lon="11.316850744319282"><ele>178.0</ele><time>2026-04-03T17:17:36.999Z</time></trkpt><trkpt lat="42.77957960597115" lon="11.316874170585479"><ele>176.0</ele><time>2026-04-03T17:17:37.999Z</time></trkpt><trkpt lat="42.77969825574272" lon="11.316894645489024"><ele>174.0</ele><time>2026-04-03T17:17:38.999Z</time></trkpt><trkpt lat="42.77981584578399" lon="11.316905059972667"><ele>174.0</ele><time>2026-04-03T17:17:39.999Z</time></trkpt><trkpt lat="42.7799357267881" lon="11.316885987994276"><ele>174.0</ele><time>2026-04-03T17:17:40.999Z</time></trkpt><trkpt lat="42.780042147315854" lon="11.316812101646594"><ele>174.0</ele><time>2026-04-03T17:17:42Z</time></trkpt><trkpt lat="42.78013290262432" lon="11.31670325266741"><ele>174.0</ele><time>2026-04-03T17:17:43Z</time></trkpt><trkpt lat="42.78021451003431" lon="11.316590383971024"><ele>170.5</ele><time>2026-04-03T17:17:44Z</time></trkpt><trkpt lat="42.780298407997776" lon="11.316494878408367"><ele>167.0</ele><time>2026-04-03T17:17:45Z</time></trkpt><trkpt lat="42.78040535544726" lon="11.316444089532624"><ele>163.5</ele><time>2026-04-03T17:17:46Z</time></trkpt><trkpt lat="42.780535772108344" lon="11.316445844472545"><ele>160.0</ele><time>2026-04-03T17:17:47Z</time></trkpt><trkpt lat="42.78068301509286" lon="11.31646191518757"><ele>160.0</ele><time>2026-04-03T17:17:48Z</time></trkpt><trkpt lat="42.78083950294674" lon="11.316469799624834"><ele>160.0</ele><time>2026-04-03T17:17:49Z</time></trkpt><trkpt lat="42.78099982987297" lon="11.316478666986441"><ele>160.0</ele><time>2026-04-03T17:17:50Z</time></trkpt><trkpt lat="42.781156328057506" lon="11.316482335319495"><ele>158.25</ele><time>2026-04-03T17:17:51Z</time></trkpt><trkpt lat="42.78130790541759" lon="11.316481331360256"><ele>156.5</ele><time>2026-04-03T17:17:52Z</time></trkpt><trkpt lat="42.78145427166324" lon="11.316481986422101"><ele>154.75</ele><time>2026-04-03T17:17:53Z</time></trkpt><trkpt lat="42.781597215388466" lon="11.316474067496136"><ele>153.0</ele><time>2026-04-03T17:17:54Z</time></trkpt><trkpt lat="42.78173719890606" lon="11.316458940106424"><ele>151.5</ele><time>2026-04-03T17:17:55Z</time></trkpt><trkpt lat="42.78188396255917" lon="11.316467405483987"><ele>150.0</ele><time>2026-04-03T17:17:56Z</time></trkpt><trkpt lat="42.78202152194462" lon="11.31650117084436"><ele>148.5</ele><time>2026-04-03T17:17:57Z</time></trkpt><trkpt lat="42.78215858016378" lon="11.316554830232084"><ele>147.0</ele><time>2026-04-03T17:17:58Z</time></trkpt><trkpt lat="42.7822877087323" lon="11.316617333681668"><ele>147.0</ele><time>2026-04-03T17:17:59Z</time></trkpt><trkpt lat="42.78240930970266" lon="11.316681101343946"><ele>147.0</ele><time>2026-04-03T17:18:00Z</time></trkpt><trkpt lat="42.7825238787713" lon="11.316731525315701"><ele>147.0</ele><time>2026-04-03T17:18:01Z</time></trkpt><trkpt lat="42.78263864530504" lon="11.316734431688278"><ele>147.0</ele><time>2026-04-03T17:18:02Z</time></trkpt><trkpt lat="42.782745298846855" lon="11.316673362657383"><ele>145.75</ele><time>2026-04-03T17:18:03Z</time></trkpt><trkpt lat="42.7828498409553" lon="11.31658382914691"><ele>144.5</ele><time>2026-04-03T17:18:04Z</time></trkpt><trkpt lat="42.782959733756705" lon="11.31650930692246"><ele>143.25</ele><time>2026-04-03T17:18:05Z</time></trkpt><trkpt lat="42.783079717842604" lon="11.316459431754415"><ele>142.0</ele><time>2026-04-03T17:18:06Z</time></trkpt><trkpt lat="42.78320238364077" lon="11.316452187897049"><ele>142.0</ele><time>2026-04-03T17:18:07Z</time></trkpt><trkpt lat="42.78333010964114" lon="11.316459618678087"><ele>142.0</ele><time>2026-04-03T17:18:08Z</time></trkpt><trkpt lat="42.783458627386786" lon="11.316473488598634"><ele>142.0</ele><time>2026-04-03T17:18:09Z</time></trkpt><trkpt lat="42.78357541678216" lon="11.316501569373264"><ele>142.0</ele><time>2026-04-03T17:18:10Z</time></trkpt><trkpt lat="42.78368369714782" lon="11.316540475156913"><ele>136.75</ele><time>2026-04-03T17:18:11Z</time></trkpt><trkpt lat="42.783784749640624" lon="11.316616928145196"><ele>131.5</ele><time>2026-04-03T17:18:12Z</time></trkpt><trkpt lat="42.783863481656375" lon="11.316736179070219"><ele>126.25</ele><time>2026-04-03T17:18:13Z</time></trkpt><trkpt lat="42.78393607617096" lon="11.316875923519397"><ele>121.0</ele><time>2026-04-03T17:18:14Z</time></trkpt><trkpt lat="42.784004446713006" lon="11.317024451721931"><ele>121.0</ele><time>2026-04-03T17:18:15Z</time></trkpt><trkpt lat="42.78407533032299" lon="11.317169128358291"><ele>121.0</ele><time>2026-04-03T17:18:16Z</time></trkpt><trkpt lat="42.78415639092709" lon="11.317305122984854"><ele>121.0</ele><time>2026-04-03T17:18:17Z</time></trkpt><trkpt lat="42.784247202346485" lon="11.317428569885553"><ele>121.0</ele><time>2026-04-03T17:18:18Z</time></trkpt><trkpt lat="42.78432805622741" lon="11.317566248140881"><ele>116.75</ele><time>2026-04-03T17:18:19Z</time></trkpt><trkpt lat="42.784419478680284" lon="11.317685131885051"><ele>112.5</ele><time>2026-04-03T17:18:20Z</time></trkpt><trkpt lat="42.78451636419879" lon="11.317799346177836"><ele>108.25</ele><time>2026-04-03T17:18:21Z</time></trkpt><trkpt lat="42.784624578945184" lon="11.317892380760382"><ele>104.0</ele><time>2026-04-03T17:18:22Z</time></trkpt><trkpt lat="42.78472457078545" lon="11.317993674366598"><ele>103.4</ele><time>2026-04-03T17:18:23Z</time></trkpt><trkpt lat="42.78481457662232" lon="11.318080262276201"><ele>102.80000000000001</ele><time>2026-04-03T17:18:24Z</time></trkpt><trkpt lat="42.78488750192667" lon="11.318174189295425"><ele>102.19999999999999</ele><time>2026-04-03T17:18:25Z</time></trkpt><trkpt lat="42.78493903213823" lon="11.318285255946734"><ele>101.6</ele><time>2026-04-03T17:18:26Z</time></trkpt><trkpt lat="42.78496720805471" lon="11.318412266061896"><ele>101.0</ele><time>2026-04-03T17:18:27Z</time></trkpt><trkpt lat="42.78498715536483" lon="11.3185371249717"><ele>100.99999999999999</ele><time>2026-04-03T17:18:28Z</time></trkpt><trkpt lat="42.78497971613614" lon="11.318651207177924"><ele>101.0</ele><time>2026-04-03T17:18:29Z</time></trkpt><trkpt lat="42.78500114481317" lon="11.31875389846017"><ele>101.0</ele><time>2026-04-03T17:18:30Z</time></trkpt><trkpt lat="42.78500528886849" lon="11.31885369304625"><ele>101.0</ele><time>2026-04-03T17:18:31Z</time></trkpt><trkpt lat="42.78501494054078" lon="11.318944490703105"><ele>100.99999999999999</ele><time>2026-04-03T17:18:32Z</time></trkpt><trkpt lat="42.785048663061716" lon="11.319077708586528"><ele>101.0</ele><time>2026-04-03T17:18:33.999Z</time></trkpt><trkpt lat="42.785096593029486" lon="11.319201552220118"><ele>100.33333333333333</ele><time>2026-04-03T17:18:35.999Z</time></trkpt><trkpt lat="42.78513466125749" lon="11.319295908889334"><ele>99.66666666666666</ele><time>2026-04-03T17:18:52.999Z</time></trkpt><trkpt lat="42.78519056185684" lon="11.319368805791791"><ele>99.0</ele><time>2026-04-03T17:18:54.999Z</time></trkpt><trkpt lat="42.785270886837445" lon="11.319404263627037"><ele>98.33333333333334</ele><time>2026-04-03T17:18:56.999Z</time></trkpt><trkpt lat="42.78535595811968" lon="11.319470640256585"><ele>97.66666666666667</ele><time>2026-04-03T17:18:58.999Z</time></trkpt><trkpt lat="42.78543476514865" lon="11.319476089094684"><ele>97.0</ele><time>2026-04-03T17:19:00.999Z</time></trkpt><trkpt lat="42.78554201503027" lon="11.31951103496179"><ele>96.0</ele><time>2026-04-03T17:19:03.999Z</time></trkpt><trkpt lat="42.7856244082285" lon="11.319536091391699"><ele>95.0</ele><time>2026-04-03T17:19:05.999Z</time></trkpt><trkpt lat="42.785711610690335" lon="11.319575114714139"><ele>94.0</ele><time>2026-04-03T17:19:07.999Z</time></trkpt><trkpt lat="42.785815146436505" lon="11.319626177351706"><ele>93.0</ele><time>2026-04-03T17:19:09.999Z</time></trkpt><trkpt lat="42.78589546708132" lon="11.319651646853993"><ele>92.0</ele><time>2026-04-03T17:19:10.999Z</time></trkpt><trkpt lat="42.78598419264904" lon="11.319685308417675"><ele>92.0</ele><time>2026-04-03T17:19:11.999Z</time></trkpt><trkpt lat="42.786061287696874" lon="11.319715122163904"><ele>92.0</ele><time>2026-04-03T17:19:12.999Z</time></trkpt><trkpt lat="42.78613380666032" lon="11.3197413417512"><ele>92.0</ele><time>2026-04-03T17:19:13.999Z</time></trkpt><trkpt lat="42.7862134006926" lon="11.319773939135741"><ele>92.0</ele><time>2026-04-03T17:19:14.999Z</time></trkpt><trkpt lat="42.78628102281132" lon="11.319803106932115"><ele>92.0</ele><time>2026-04-03T17:19:15.999Z</time></trkpt><trkpt lat="42.78638058653079" lon="11.319841633419053"><ele>92.0</ele><time>2026-04-03T17:19:17.999Z</time></trkpt><trkpt lat="42.78643384060675" lon="11.319912986786637"><ele>92.39999999999999</ele><time>2026-04-03T17:19:19.999Z</time></trkpt><trkpt lat="42.78648782965319" lon="11.320003695573904"><ele>92.8</ele><time>2026-04-03T17:19:22.999Z</time></trkpt><trkpt lat="42.78656126661434" lon="11.320120998423842"><ele>93.2</ele><time>2026-04-03T17:19:24.999Z</time></trkpt><trkpt lat="42.78664151948186" lon="11.320251837877484"><ele>93.6</ele><time>2026-04-03T17:19:26.999Z</time></trkpt><trkpt lat="42.78669147401733" lon="11.320306376268244"><ele>94.0</ele><time>2026-04-03T17:19:27.999Z</time></trkpt><trkpt lat="42.78675172966916" lon="11.320352477501498"><ele>94.0</ele><time>2026-04-03T17:19:28.999Z</time></trkpt><trkpt lat="42.786821038201786" lon="11.320384315129933"><ele>94.0</ele><time>2026-04-03T17:19:29.999Z</time></trkpt><trkpt lat="42.78690634445518" lon="11.320392683398156"><ele>94.0</ele><time>2026-04-03T17:19:30.999Z</time></trkpt><trkpt lat="42.786994856653024" lon="11.320388569851591"><ele>94.0</ele><time>2026-04-03T17:19:31.999Z</time></trkpt><trkpt lat="42.78708580293881" lon="11.320376953715568"><ele>94.0</ele><time>2026-04-03T17:19:32.999Z</time></trkpt><trkpt lat="42.78716672687385" lon="11.320354478549346"><ele>94.0</ele><time>2026-04-03T17:19:33.999Z</time></trkpt><trkpt lat="42.78724088714311" lon="11.320326608714685"><ele>93.71428571428571</ele><time>2026-04-03T17:19:34.999Z</time></trkpt><trkpt lat="42.78731209393855" lon="11.320304847292343"><ele>93.42857142857142</ele><time>2026-04-03T17:19:35.999Z</time></trkpt><trkpt lat="42.78737647644362" lon="11.32029736941264"><ele>93.14285714285714</ele><time>2026-04-03T17:19:36.999Z</time></trkpt><trkpt lat="42.78744485425097" lon="11.32031289267487"><ele>92.85714285714286</ele><time>2026-04-03T17:19:37.999Z</time></trkpt><trkpt lat="42.787515711348405" lon="11.320356163991754"><ele>92.57142857142857</ele><time>2026-04-03T17:19:38.999Z</time></trkpt><trkpt lat="42.787571478817014" lon="11.320438411305283"><ele>92.28571428571429</ele><time>2026-04-03T17:19:39.999Z</time></trkpt><trkpt lat="42.787631543419955" lon="11.320501775314327"><ele>92.0</ele><time>2026-04-03T17:19:40.999Z</time></trkpt><trkpt lat="42.78769063018824" lon="11.320556998839074"><ele>92.16666666666667</ele><time>2026-04-03T17:19:41.999Z</time></trkpt><trkpt lat="42.787763087230736" lon="11.32057430887399"><ele>92.33333333333334</ele><time>2026-04-03T17:19:42.999Z</time></trkpt><trkpt lat="42.78782575073203" lon="11.320591063481015"><ele>92.5</ele><time>2026-04-03T17:19:43.999Z</time></trkpt><trkpt lat="42.78790240325077" lon="11.32059590061998"><ele>92.66666666666667</ele><time>2026-04-03T17:19:45.999Z</time></trkpt><trkpt lat="42.78798489790809" lon="11.320578245196995"><ele>92.83333333333333</ele><time>2026-04-03T17:19:59Z</time></trkpt><trkpt lat="42.78806760567786" lon="11.320562248434479"><ele>93.0</ele><time>2026-04-03T17:20:01Z</time></trkpt><trkpt lat="42.788171281839396" lon="11.320539333905165"><ele>92.60000000000001</ele><time>2026-04-03T17:20:03Z</time></trkpt><trkpt lat="42.78828066941902" lon="11.320521540976369"><ele>92.2</ele><time>2026-04-03T17:20:05Z</time></trkpt><trkpt lat="42.78838846341217" lon="11.320496848420746"><ele>91.8</ele><time>2026-04-03T17:20:07Z</time></trkpt><trkpt lat="42.78851874686868" lon="11.320436222826954"><ele>91.4</ele><time>2026-04-03T17:20:09Z</time></trkpt><trkpt lat="42.78859825657767" lon="11.320401040055964"><ele>91.0</ele><time>2026-04-03T17:20:10Z</time></trkpt><trkpt lat="42.78867392902148" lon="11.320377784534898"><ele>92.6</ele><time>2026-04-03T17:20:11Z</time></trkpt><trkpt lat="42.78875158455444" lon="11.320334835264884"><ele>94.19999999999999</ele><time>2026-04-03T17:20:12Z</time></trkpt><trkpt lat="42.78881831689089" lon="11.320273127777018"><ele>95.80000000000001</ele><time>2026-04-03T17:20:13Z</time></trkpt><trkpt lat="42.78888397331872" lon="11.320180089972201"><ele>97.4</ele><time>2026-04-03T17:20:14Z</time></trkpt><trkpt lat="42.78894753975779" lon="11.3200713674305"><ele>99.0</ele><time>2026-04-03T17:20:15Z</time></trkpt><trkpt lat="42.78901943472056" lon="11.319959525275712"><ele>99.0</ele><time>2026-04-03T17:20:16Z</time></trkpt><trkpt lat="42.789099116785685" lon="11.319848907984843"><ele>99.0</ele><time>2026-04-03T17:20:17Z</time></trkpt><trkpt lat="42.78917876938249" lon="11.319740172859914"><ele>99.0</ele><time>2026-04-03T17:20:18Z</time></trkpt><trkpt lat="42.78926028758759" lon="11.31961164482199"><ele>99.0</ele><time>2026-04-03T17:20:19Z</time></trkpt><trkpt lat="42.78932898950004" lon="11.319464179735949"><ele>99.5</ele><time>2026-04-03T17:20:20Z</time></trkpt><trkpt lat="42.78939445285445" lon="11.319310716571009"><ele>100.0</ele><time>2026-04-03T17:20:21Z</time></trkpt><trkpt lat="42.78946498547183" lon="11.319159986417732"><ele>100.5</ele><time>2026-04-03T17:20:22Z</time></trkpt><trkpt lat="42.78955488136634" lon="11.319041103447084"><ele>101.0</ele><time>2026-04-03T17:20:23Z</time></trkpt><trkpt lat="42.789615504910756" lon="11.318849585261406"><ele>101.0</ele><time>2026-04-03T17:20:24Z</time></trkpt><trkpt lat="42.789679392635044" lon="11.318658820251768"><ele>101.0</ele><time>2026-04-03T17:20:25Z</time></trkpt><trkpt lat="42.78973894233582" lon="11.318469437284534"><ele>101.0</ele><time>2026-04-03T17:20:26Z</time></trkpt><trkpt lat="42.789797747324926" lon="11.31828052618312"><ele>101.0</ele><time>2026-04-03T17:20:27Z</time></trkpt><trkpt lat="42.78986005963582" lon="11.318089796042797"><ele>101.0</ele><time>2026-04-03T17:20:28Z</time></trkpt><trkpt lat="42.78993752123769" lon="11.317902795390681"><ele>101.0</ele><time>2026-04-03T17:20:29Z</time></trkpt><trkpt lat="42.790001062284816" lon="11.317710263040423"><ele>102.25</ele><time>2026-04-03T17:20:30Z</time></trkpt><trkpt lat="42.790046280984924" lon="11.31752142052742"><ele>103.5</ele><time>2026-04-03T17:20:31Z</time></trkpt><trkpt lat="42.79010670756341" lon="11.31734309221752"><ele>104.75</ele><time>2026-04-03T17:20:32Z</time></trkpt><trkpt lat="42.790160286209854" lon="11.317168995457207"><ele>106.0</ele><time>2026-04-03T17:20:33Z</time></trkpt><trkpt lat="42.79023077951613" lon="11.317015449197276"><ele>106.0</ele><time>2026-04-03T17:20:34Z</time></trkpt><trkpt lat="42.7902831849612" lon="11.31685047174165"><ele>106.0</ele><time>2026-04-03T17:20:35Z</time></trkpt><trkpt lat="42.79030376506449" lon="11.316687987939648"><ele>106.0</ele><time>2026-04-03T17:20:36Z</time></trkpt><trkpt lat="42.79032422724459" lon="11.316549001166345"><ele>106.0</ele><time>2026-04-03T17:20:37Z</time></trkpt><trkpt lat="42.79033632063745" lon="11.316422155426439"><ele>106.19999999999999</ele><time>2026-04-03T17:20:38Z</time></trkpt><trkpt lat="42.79034750650392" lon="11.316302570247913"><ele>106.39999999999999</ele><time>2026-04-03T17:20:39Z</time></trkpt><trkpt lat="42.79035844863492" lon="11.3161658647348"><ele>106.6</ele><time>2026-04-03T17:20:40Z</time></trkpt><trkpt lat="42.790372321477115" lon="11.31600690957577"><ele>106.8</ele><time>2026-04-03T17:20:41Z</time></trkpt><trkpt lat="42.79038398110933" lon="11.315830386902517"><ele>107.0</ele><time>2026-04-03T17:20:42Z</time></trkpt><trkpt lat="42.790395538746616" lon="11.315664921604476"><ele>106.5</ele><time>2026-04-03T17:20:43Z</time></trkpt><trkpt lat="42.79041107498622" lon="11.315506000523719"><ele>106.0</ele><time>2026-04-03T17:20:44Z</time></trkpt><trkpt lat="42.79042987284274" lon="11.315339538209319"><ele>105.5</ele><time>2026-04-03T17:20:45Z</time></trkpt><trkpt lat="42.79046381437795" lon="11.315168922305295"><ele>105.0</ele><time>2026-04-03T17:20:46Z</time></trkpt><trkpt lat="42.79051522641374" lon="11.314991043077343"><ele>105.0</ele><time>2026-04-03T17:20:47Z</time></trkpt><trkpt lat="42.79058439454677" lon="11.314807130105637"><ele>105.0</ele><time>2026-04-03T17:20:48Z</time></trkpt><trkpt lat="42.790648761258005" lon="11.314641113203924"><ele>105.0</ele><time>2026-04-03T17:20:48.999Z</time></trkpt><trkpt lat="42.790718517355536" lon="11.314498865450139"><ele>105.0</ele><time>2026-04-03T17:20:49.999Z</time></trkpt><trkpt lat="42.790768065482595" lon="11.31435121282935"><ele>105.4</ele><time>2026-04-03T17:20:50.999Z</time></trkpt><trkpt lat="42.79081195047198" lon="11.314208744274433"><ele>105.8</ele><time>2026-04-03T17:20:51.999Z</time></trkpt><trkpt lat="42.79083669628328" lon="11.314079375601768"><ele>106.19999999999999</ele><time>2026-04-03T17:20:52.999Z</time></trkpt><trkpt lat="42.79087488283762" lon="11.313982306720119"><ele>106.6</ele><time>2026-04-03T17:20:53.999Z</time></trkpt><trkpt lat="42.79094203386941" lon="11.31387158407712"><ele>107.0</ele><time>2026-04-03T17:20:55.999Z</time></trkpt><trkpt lat="42.79108094024537" lon="11.313810985553104"><ele>107.0</ele><time>2026-04-03T17:20:57.999Z</time></trkpt><trkpt lat="42.79118258110754" lon="11.313756739277128"><ele>107.0</ele><time>2026-04-03T17:20:58.999Z</time></trkpt><trkpt lat="42.791295339876605" lon="11.313709367536127"><ele>107.0</ele><time>2026-04-03T17:20:59.999Z</time></trkpt><trkpt lat="42.79141779268629" lon="11.313663319488645"><ele>107.0</ele><time>2026-04-03T17:21:00.999Z</time></trkpt><trkpt lat="42.79154625455817" lon="11.313614929825764"><ele>107.0</ele><time>2026-04-03T17:21:01.999Z</time></trkpt><trkpt lat="42.79166997529959" lon="11.313568530987846"><ele>107.0</ele><time>2026-04-03T17:21:02.999Z</time></trkpt><trkpt lat="42.791803157495664" lon="11.313517058168685"><ele>107.0</ele><time>2026-04-03T17:21:03.999Z</time></trkpt><trkpt lat="42.79193313965712" lon="11.313466584932725"><ele>107.0</ele><time>2026-04-03T17:21:04.999Z</time></trkpt><trkpt lat="42.792060928825194" lon="11.313419061835399"><ele>106.8</ele><time>2026-04-03T17:21:05.999Z</time></trkpt><trkpt lat="42.79218082168222" lon="11.313377858311814"><ele>106.6</ele><time>2026-04-03T17:21:06.999Z</time></trkpt><trkpt lat="42.79229527424663" lon="11.313346592324375"><ele>106.39999999999999</ele><time>2026-04-03T17:21:07.999Z</time></trkpt><trkpt lat="42.7923970059449" lon="11.3133113775065"><ele>106.19999999999999</ele><time>2026-04-03T17:21:08.999Z</time></trkpt><trkpt lat="42.792490086212865" lon="11.313280743115767"><ele>106.0</ele><time>2026-04-03T17:21:09.999Z</time></trkpt><trkpt lat="42.79257750462955" lon="11.313250751351838"><ele>106.0</ele><time>2026-04-03T17:21:10.999Z</time></trkpt><trkpt lat="42.792647378261925" lon="11.31322410040724"><ele>106.0</ele><time>2026-04-03T17:21:11.999Z</time></trkpt><trkpt lat="42.79273433312214" lon="11.313189644017474"><ele>106.0</ele><time>2026-04-03T17:21:13.999Z</time></trkpt><trkpt lat="42.79280488056914" lon="11.313202284070156"><ele>106.0</ele><time>2026-04-03T17:21:16.999Z</time></trkpt><trkpt lat="42.792813108896716" lon="11.31339157890402"><ele>106.0</ele><time>2026-04-03T17:21:18.999Z</time></trkpt><trkpt lat="42.7928277697361" lon="11.313545445365998"><ele>106.0</ele><time>2026-04-03T17:21:19.999Z</time></trkpt><trkpt lat="42.7928430080292" lon="11.313705373127954"><ele>106.0</ele><time>2026-04-03T17:21:20.999Z</time></trkpt><trkpt lat="42.79285903932188" lon="11.313873626814301"><ele>106.0</ele><time>2026-04-03T17:21:21.999Z</time></trkpt><trkpt lat="42.792893061542564" lon="11.31405902460142"><ele>106.0</ele><time>2026-04-03T17:21:22.999Z</time></trkpt><trkpt lat="42.792912782293705" lon="11.314273362189525"><ele>106.0</ele><time>2026-04-03T17:21:23.999Z</time></trkpt><trkpt lat="42.792928247934086" lon="11.314508374042267"><ele>106.0</ele><time>2026-04-03T17:21:24.999Z</time></trkpt><trkpt lat="42.79295660717149" lon="11.314768496107202"><ele>106.0</ele><time>2026-04-03T17:21:25.999Z</time></trkpt><trkpt lat="42.792984020269785" lon="11.315046296964043"><ele>107.0</ele><time>2026-04-03T17:21:26.999Z</time></trkpt><trkpt lat="42.79301521590747" lon="11.315344715153339"><ele>108.0</ele><time>2026-04-03T17:21:27.999Z</time></trkpt><trkpt lat="42.79304238266622" lon="11.315655795850937"><ele>108.5</ele><time>2026-04-03T17:21:28.999Z</time></trkpt><trkpt lat="42.79307025284267" lon="11.315972528076655"><ele>109.0</ele><time>2026-04-03T17:21:29.999Z</time></trkpt><trkpt lat="42.7931019158965" lon="11.316293404440053"><ele>109.5</ele><time>2026-04-03T17:21:30.999Z</time></trkpt><trkpt lat="42.793131797014716" lon="11.316612032263574"><ele>110.0</ele><time>2026-04-03T17:21:31.999Z</time></trkpt><trkpt lat="42.7931618071523" lon="11.316925399601375"><ele>110.0</ele><time>2026-04-03T17:21:32.999Z</time></trkpt><trkpt lat="42.79319271267691" lon="11.317234870787871"><ele>110.0</ele><time>2026-04-03T17:21:33.999Z</time></trkpt><trkpt lat="42.79322150710894" lon="11.317542752852908"><ele>110.66666666666666</ele><time>2026-04-03T17:21:34.999Z</time></trkpt><trkpt lat="42.793253291778534" lon="11.317848107755172"><ele>111.33333333333334</ele><time>2026-04-03T17:21:35.999Z</time></trkpt><trkpt lat="42.79328492242546" lon="11.318147871836754"><ele>112.0</ele><time>2026-04-03T17:21:36.999Z</time></trkpt><trkpt lat="42.79330038841229" lon="11.318446570008751"><ele>112.66666666666667</ele><time>2026-04-03T17:21:37.999Z</time></trkpt><trkpt lat="42.79334369980267" lon="11.318738971887008"><ele>113.33333333333334</ele><time>2026-04-03T17:21:38.999Z</time></trkpt><trkpt lat="42.79335658245733" lon="11.319045372081883"><ele>114.0</ele><time>2026-04-03T17:21:39.999Z</time></trkpt><trkpt lat="42.793385611235124" lon="11.319354701903062"><ele>114.0</ele><time>2026-04-03T17:21:40.999Z</time></trkpt><trkpt lat="42.79341505199063" lon="11.319665390484257"><ele>114.0</ele><time>2026-04-03T17:21:41.999Z</time></trkpt><trkpt lat="42.79344551638256" lon="11.319978314911781"><ele>113.5</ele><time>2026-04-03T17:21:42.999Z</time></trkpt><trkpt lat="42.79347624873713" lon="11.320293031196991"><ele>113.0</ele><time>2026-04-03T17:21:43.999Z</time></trkpt><trkpt lat="42.79350664246984" lon="11.320604279777694"><ele>114.0</ele><time>2026-04-03T17:21:44.999Z</time></trkpt><trkpt lat="42.79353691475273" lon="11.320916857120634"><ele>115.0</ele><time>2026-04-03T17:21:45.999Z</time></trkpt><trkpt lat="42.79356670303056" lon="11.321226445444696"><ele>114.5</ele><time>2026-04-03T17:21:46.999Z</time></trkpt><trkpt lat="42.79359632564758" lon="11.3215343120859"><ele>114.0</ele><time>2026-04-03T17:21:47.999Z</time></trkpt><trkpt lat="42.79362559792787" lon="11.321838537685649"><ele>114.0</ele><time>2026-04-03T17:21:48.999Z</time></trkpt><trkpt lat="42.793653402471804" lon="11.322127509156907"><ele>114.0</ele><time>2026-04-03T17:21:49.999Z</time></trkpt><trkpt lat="42.793681338382804" lon="11.322417845939555"><ele>114.0</ele><time>2026-04-03T17:21:50.999Z</time></trkpt><trkpt lat="42.79371103003742" lon="11.322726430177886"><ele>114.5</ele><time>2026-04-03T17:21:51.999Z</time></trkpt><trkpt lat="42.79374038667544" lon="11.323031532429443"><ele>115.0</ele><time>2026-04-03T17:21:52.999Z</time></trkpt><trkpt lat="42.79378506355619" lon="11.323330827964824"><ele>116.0</ele><time>2026-04-03T17:21:54Z</time></trkpt><trkpt lat="42.7938105100689" lon="11.323623401998217"><ele>117.0</ele><time>2026-04-03T17:21:55Z</time></trkpt><trkpt lat="42.7938387182263" lon="11.323910454396257"><ele>118.0</ele><time>2026-04-03T17:21:56Z</time></trkpt><trkpt lat="42.79386790788353" lon="11.324183836190512"><ele>118.0</ele><time>2026-04-03T17:21:57Z</time></trkpt><trkpt lat="42.79389186541449" lon="11.324439062672363"><ele>118.0</ele><time>2026-04-03T17:21:58Z</time></trkpt><trkpt lat="42.79391378866368" lon="11.324675345643518"><ele>118.0</ele><time>2026-04-03T17:21:59Z</time></trkpt><trkpt lat="42.79393608885526" lon="11.32490663333544"><ele>118.25</ele><time>2026-04-03T17:22:00Z</time></trkpt><trkpt lat="42.79395638460556" lon="11.325119911036321"><ele>118.5</ele><time>2026-04-03T17:22:01Z</time></trkpt><trkpt lat="42.79397411104579" lon="11.325319019504311"><ele>118.75</ele><time>2026-04-03T17:22:02Z</time></trkpt><trkpt lat="42.79399169671098" lon="11.325498508508225"><ele>119.0</ele><time>2026-04-03T17:22:03Z</time></trkpt><trkpt lat="42.79400652065936" lon="11.325668226977204"><ele>119.2</ele><time>2026-04-03T17:22:04Z</time></trkpt><trkpt lat="42.79402242201401" lon="11.325833438658622"><ele>119.4</ele><time>2026-04-03T17:22:05Z</time></trkpt><trkpt lat="42.79403854232642" lon="11.32598759722747"><ele>119.6</ele><time>2026-04-03T17:22:06Z</time></trkpt><trkpt lat="42.79405312769971" lon="11.326119863087232"><ele>119.8</ele><time>2026-04-03T17:22:07Z</time></trkpt><trkpt lat="42.794060695760884" lon="11.326228383410154"><ele>120.0</ele><time>2026-04-03T17:22:08Z</time></trkpt><trkpt lat="42.794070024491994" lon="11.326339488111334"><ele>120.16666666666667</ele><time>2026-04-03T17:22:10Z</time></trkpt><trkpt lat="42.79406607884116" lon="11.3264448214774"><ele>120.33333333333334</ele><time>2026-04-03T17:22:14Z</time></trkpt><trkpt lat="42.79416099554508" lon="11.326446961381881"><ele>120.5</ele><time>2026-04-03T17:22:15Z</time></trkpt><trkpt lat="42.79424671432186" lon="11.326473190136754"><ele>120.66666666666667</ele><time>2026-04-03T17:22:16Z</time></trkpt><trkpt lat="42.79433359834842" lon="11.326486784248788"><ele>120.83333333333334</ele><time>2026-04-03T17:22:17Z</time></trkpt><trkpt lat="42.794418311196885" lon="11.326534364840562"><ele>121.0</ele><time>2026-04-03T17:22:18Z</time></trkpt><trkpt lat="42.79448115861946" lon="11.326636899919473"><ele>121.0</ele><time>2026-04-03T17:22:19Z</time></trkpt><trkpt lat="42.794555754041596" lon="11.326734557772589"><ele>121.0</ele><time>2026-04-03T17:22:20Z</time></trkpt><trkpt lat="42.794604011258286" lon="11.326863696331358"><ele>121.0</ele><time>2026-04-03T17:22:21Z</time></trkpt><trkpt lat="42.794681641665846" lon="11.326974927194323"><ele>121.0</ele><time>2026-04-03T17:22:22Z</time></trkpt><trkpt lat="42.794751290108834" lon="11.327107427513226"><ele>121.0</ele><time>2026-04-03T17:22:23Z</time></trkpt><trkpt lat="42.79482417085271" lon="11.327246839077299"><ele>121.75</ele><time>2026-04-03T17:22:24Z</time></trkpt><trkpt lat="42.79490119641601" lon="11.327393297977308"><ele>122.5</ele><time>2026-04-03T17:22:25Z</time></trkpt><trkpt lat="42.79498293856451" lon="11.327542152795067"><ele>123.25</ele><time>2026-04-03T17:22:26Z</time></trkpt><trkpt lat="42.79507044180589" lon="11.32770638783081"><ele>124.0</ele><time>2026-04-03T17:22:27Z</time></trkpt><trkpt lat="42.79516646020476" lon="11.327886811814247"><ele>126.0</ele><time>2026-04-03T17:22:28Z</time></trkpt><trkpt lat="42.795261647518956" lon="11.32808471666678"><ele>128.0</ele><time>2026-04-03T17:22:29Z</time></trkpt><trkpt lat="42.79538308825399" lon="11.328269970426556"><ele>130.0</ele><time>2026-04-03T17:22:30Z</time></trkpt><trkpt lat="42.7954945869405" lon="11.328453831498342"><ele>130.0</ele><time>2026-04-03T17:22:31Z</time></trkpt><trkpt lat="42.79560077418585" lon="11.328632041365669"><ele>130.0</ele><time>2026-04-03T17:22:32Z</time></trkpt><trkpt lat="42.795707529800964" lon="11.328803607018264"><ele>130.0</ele><time>2026-04-03T17:22:33Z</time></trkpt><trkpt lat="42.79581981389954" lon="11.328976178655534"><ele>130.66666666666669</ele><time>2026-04-03T17:22:34Z</time></trkpt><trkpt lat="42.79592952349802" lon="11.329152885584975"><ele>131.33333333333334</ele><time>2026-04-03T17:22:35Z</time></trkpt><trkpt lat="42.796024623233905" lon="11.329305024148528"><ele>132.0</ele><time>2026-04-03T17:22:36Z</time></trkpt><trkpt lat="42.796119803811386" lon="11.32945457459598"><ele>132.0</ele><time>2026-04-03T17:22:37Z</time></trkpt><trkpt lat="42.79622112374196" lon="11.329610489899439"><ele>132.0</ele><time>2026-04-03T17:22:38Z</time></trkpt><trkpt lat="42.79631503011129" lon="11.329753931260429"><ele>132.0</ele><time>2026-04-03T17:22:39Z</time></trkpt><trkpt lat="42.796401707489245" lon="11.329893175310922"><ele>132.0</ele><time>2026-04-03T17:22:40Z</time></trkpt><trkpt lat="42.79650003386703" lon="11.330052388221304"><ele>131.0</ele><time>2026-04-03T17:22:41Z</time></trkpt><trkpt lat="42.796603249489756" lon="11.330214687176282"><ele>130.0</ele><time>2026-04-03T17:22:42Z</time></trkpt><trkpt lat="42.79670293281546" lon="11.330369775519177"><ele>129.0</ele><time>2026-04-03T17:22:43Z</time></trkpt><trkpt lat="42.79679704582024" lon="11.33051004585793"><ele>128.0</ele><time>2026-04-03T17:22:44Z</time></trkpt><trkpt lat="42.79690112410635" lon="11.330653508983888"><ele>131.0</ele><time>2026-04-03T17:22:45Z</time></trkpt><trkpt lat="42.797006004306155" lon="11.33079495118426"><ele>134.0</ele><time>2026-04-03T17:22:45.999Z</time></trkpt><trkpt lat="42.79711447151356" lon="11.330931040506293"><ele>137.0</ele><time>2026-04-03T17:22:46.999Z</time></trkpt><trkpt lat="42.79722475428704" lon="11.331064838225656"><ele>140.0</ele><time>2026-04-03T17:22:47.999Z</time></trkpt><trkpt lat="42.79733538301926" lon="11.331198780550933"><ele>140.0</ele><time>2026-04-03T17:22:48.999Z</time></trkpt><trkpt lat="42.79744179018828" lon="11.331332328731714"><ele>140.0</ele><time>2026-04-03T17:22:49.999Z</time></trkpt><trkpt lat="42.797547885681716" lon="11.331464747994149"><ele>140.0</ele><time>2026-04-03T17:22:50.999Z</time></trkpt><trkpt lat="42.797656394797656" lon="11.331596809430547"><ele>140.0</ele><time>2026-04-03T17:22:51.999Z</time></trkpt><trkpt lat="42.79777242070656" lon="11.331736211904978"><ele>141.0</ele><time>2026-04-03T17:22:52.999Z</time></trkpt><trkpt lat="42.79790048238363" lon="11.331882292976854"><ele>142.0</ele><time>2026-04-03T17:22:53.999Z</time></trkpt><trkpt lat="42.79803433195279" lon="11.332017515555314"><ele>143.0</ele><time>2026-04-03T17:22:54.999Z</time></trkpt><trkpt lat="42.79817458155464" lon="11.332142172592494"><ele>144.66666666666666</ele><time>2026-04-03T17:22:55.999Z</time></trkpt><trkpt lat="42.798323223734755" lon="11.332256957548186"><ele>146.33333333333334</ele><time>2026-04-03T17:22:56.999Z</time></trkpt><trkpt lat="42.79847298341481" lon="11.33236537162174"><ele>148.0</ele><time>2026-04-03T17:22:57.999Z</time></trkpt><trkpt lat="42.79861756690197" lon="11.332473215479286"><ele>148.0</ele><time>2026-04-03T17:22:58.999Z</time></trkpt><trkpt lat="42.79874977170018" lon="11.332596554578327"><ele>148.0</ele><time>2026-04-03T17:22:59.999Z</time></trkpt><trkpt lat="42.79888298674146" lon="11.332701110970868"><ele>148.0</ele><time>2026-04-03T17:23:00.999Z</time></trkpt><trkpt lat="42.79903637146503" lon="11.332793236922583"><ele>148.0</ele><time>2026-04-03T17:23:01.999Z</time></trkpt><trkpt lat="42.799194559018495" lon="11.33290397504508"><ele>148.0</ele><time>2026-04-03T17:23:02.999Z</time></trkpt><trkpt lat="42.799346201611755" lon="11.33298727716395"><ele>148.0</ele><time>2026-04-03T17:23:03.999Z</time></trkpt><trkpt lat="42.79948702176082" lon="11.333051704229726"><ele>147.25</ele><time>2026-04-03T17:23:04.999Z</time></trkpt><trkpt lat="42.79961235088395" lon="11.333107591190716"><ele>146.5</ele><time>2026-04-03T17:23:05.999Z</time></trkpt><trkpt lat="42.799725433605516" lon="11.333185977093304"><ele>145.75</ele><time>2026-04-03T17:23:06.999Z</time></trkpt><trkpt lat="42.79984354883151" lon="11.333244201204607"><ele>145.0</ele><time>2026-04-03T17:23:07.999Z</time></trkpt><trkpt lat="42.79995774351312" lon="11.333299336747173"><ele>145.0</ele><time>2026-04-03T17:23:08.999Z</time></trkpt><trkpt lat="42.80007052070147" lon="11.333337822478702"><ele>145.0</ele><time>2026-04-03T17:23:09.999Z</time></trkpt><trkpt lat="42.80017700238962" lon="11.333392314986522"><ele>145.0</ele><time>2026-04-03T17:23:10.999Z</time></trkpt><trkpt lat="42.80027248320161" lon="11.333454381991508"><ele>145.0</ele><time>2026-04-03T17:23:11.999Z</time></trkpt><trkpt lat="42.800355488121" lon="11.333518816663211"><ele>145.0</ele><time>2026-04-03T17:23:12.999Z</time></trkpt><trkpt lat="42.80042798566022" lon="11.333588385975482"><ele>144.6</ele><time>2026-04-03T17:23:13.999Z</time></trkpt><trkpt lat="42.80049192049672" lon="11.333673803461243"><ele>144.2</ele><time>2026-04-03T17:23:14.999Z</time></trkpt><trkpt lat="42.80055000106278" lon="11.333781408405692"><ele>143.8</ele><time>2026-04-03T17:23:15.999Z</time></trkpt><trkpt lat="42.800602034845674" lon="11.333907817235188"><ele>143.4</ele><time>2026-04-03T17:23:16.999Z</time></trkpt><trkpt lat="42.800634299055446" lon="11.334048331180956"><ele>143.0</ele><time>2026-04-03T17:23:17.999Z</time></trkpt><trkpt lat="42.800669516853645" lon="11.334187892844351"><ele>142.33333333333331</ele><time>2026-04-03T17:23:18.999Z</time></trkpt><trkpt lat="42.80070098052715" lon="11.334318067375614"><ele>141.66666666666666</ele><time>2026-04-03T17:23:19.999Z</time></trkpt><trkpt lat="42.80072982610716" lon="11.334432759692227"><ele>141.0</ele><time>2026-04-03T17:23:20.999Z</time></trkpt><trkpt lat="42.800757732799056" lon="11.334543718794535"><ele>140.33333333333334</ele><time>2026-04-03T17:23:21.999Z</time></trkpt><trkpt lat="42.80078644757944" lon="11.334657890899795"><ele>139.66666666666669</ele><time>2026-04-03T17:23:22.999Z</time></trkpt><trkpt lat="42.8008110865714" lon="11.334758623121207"><ele>139.0</ele><time>2026-04-03T17:23:23.999Z</time></trkpt><trkpt lat="42.80084799005507" lon="11.334856193886022"><ele>139.0</ele><time>2026-04-03T17:23:24.999Z</time></trkpt><trkpt lat="42.800874428451976" lon="11.334955376472784"><ele>139.0</ele><time>2026-04-03T17:23:25.999Z</time></trkpt><trkpt lat="42.80089979869744" lon="11.335051439162145"><ele>139.0</ele><time>2026-04-03T17:23:26.999Z</time></trkpt><trkpt lat="42.80092405529053" lon="11.335150324576919"><ele>139.0</ele><time>2026-04-03T17:23:27.999Z</time></trkpt><trkpt lat="42.80094544197246" lon="11.335241482475942"><ele>139.0</ele><time>2026-04-03T17:23:28.999Z</time></trkpt><trkpt lat="42.80097189295423" lon="11.335356091334557"><ele>139.0</ele><time>2026-04-03T17:23:30.999Z</time></trkpt><trkpt lat="42.800990640046344" lon="11.33543996511409"><ele>139.0</ele><time>2026-04-03T17:23:36.999Z</time></trkpt><trkpt lat="42.800913219595756" lon="11.33555093874531"><ele>139.0</ele><time>2026-04-03T17:23:55.999Z</time></trkpt><trkpt lat="42.80079769997339" lon="11.335527553448607"><ele>139.0</ele><time>2026-04-03T17:23:57.999Z</time></trkpt><trkpt lat="42.80072731992209" lon="11.335522873942981"><ele>139.0</ele><time>2026-04-03T17:23:58.999Z</time></trkpt><trkpt lat="42.80065117947885" lon="11.335515850868703"><ele>139.0</ele><time>2026-04-03T17:24:00Z</time></trkpt><trkpt lat="42.80057026063636" lon="11.335508321654022"><ele>139.0</ele><time>2026-04-03T17:24:01Z</time></trkpt><trkpt lat="42.80049925847967" lon="11.33550450164049"><ele>139.0</ele><time>2026-04-03T17:24:02Z</time></trkpt><trkpt lat="42.80042802089822" lon="11.33553003984496"><ele>139.0</ele><time>2026-04-03T17:24:03Z</time></trkpt><trkpt lat="42.80035563979819" lon="11.335513845471349"><ele>139.0</ele><time>2026-04-03T17:24:04Z</time></trkpt><trkpt lat="42.80028059119768" lon="11.335547739349106"><ele>139.0</ele><time>2026-04-03T17:24:05Z</time></trkpt><trkpt lat="42.8002074809688" lon="11.3356011769165"><ele>139.0</ele><time>2026-04-03T17:24:06Z</time></trkpt><trkpt lat="42.8001351375196" lon="11.335667256130826"><ele>139.0</ele><time>2026-04-03T17:24:07Z</time></trkpt><trkpt lat="42.8000630850656" lon="11.335737886988356"><ele>139.0</ele><time>2026-04-03T17:24:08Z</time></trkpt><trkpt lat="42.79999092710336" lon="11.335808595026698"><ele>139.0</ele><time>2026-04-03T17:24:09Z</time></trkpt><trkpt lat="42.79992344839627" lon="11.335900474010536"><ele>139.0</ele><time>2026-04-03T17:24:10Z</time></trkpt><trkpt lat="42.79984663154467" lon="11.335970690295339"><ele>139.0</ele><time>2026-04-03T17:24:11Z</time></trkpt><trkpt lat="42.799774053331845" lon="11.33604266449211"><ele>139.0</ele><time>2026-04-03T17:24:12Z</time></trkpt><trkpt lat="42.799699938443595" lon="11.33609381586362"><ele>139.0</ele><time>2026-04-03T17:24:13Z</time></trkpt><trkpt lat="42.79963618408682" lon="11.336156394836785"><ele>139.0</ele><time>2026-04-03T17:24:14Z</time></trkpt><trkpt lat="42.79956861044211" lon="11.336222722462647"><ele>139.0</ele><time>2026-04-03T17:24:15Z</time></trkpt><trkpt lat="42.799492550212285" lon="11.336297380274072"><ele>139.0</ele><time>2026-04-03T17:24:16Z</time></trkpt><trkpt lat="42.799417921865334" lon="11.336370632583092"><ele>139.0</ele><time>2026-04-03T17:24:17Z</time></trkpt><trkpt lat="42.79934159433574" lon="11.336444814731049"><ele>140.33333333333334</ele><time>2026-04-03T17:24:18Z</time></trkpt><trkpt lat="42.79927567169615" lon="11.336507680657286"><ele>141.66666666666669</ele><time>2026-04-03T17:24:19Z</time></trkpt><trkpt lat="42.79920598436176" lon="11.336574136702218"><ele>143.0</ele><time>2026-04-03T17:24:20Z</time></trkpt><trkpt lat="42.79913730539883" lon="11.336639631194515"><ele>144.33333333333334</ele><time>2026-04-03T17:24:21Z</time></trkpt><trkpt lat="42.79906734801211" lon="11.336706344780199"><ele>145.66666666666666</ele><time>2026-04-03T17:24:22Z</time></trkpt><trkpt lat="42.79899507650408" lon="11.336776831196454"><ele>147.0</ele><time>2026-04-03T17:24:23Z</time></trkpt><trkpt lat="42.79892333982819" lon="11.336849658668239"><ele>147.0</ele><time>2026-04-03T17:24:24Z</time></trkpt><trkpt lat="42.798860734484286" lon="11.33694127242204"><ele>147.0</ele><time>2026-04-03T17:24:25Z</time></trkpt><trkpt lat="42.79878462978214" lon="11.337020723723512"><ele>147.0</ele><time>2026-04-03T17:24:26Z</time></trkpt><trkpt lat="42.798699989145014" lon="11.337115733597326"><ele>147.0</ele><time>2026-04-03T17:24:27Z</time></trkpt><trkpt lat="42.79861931719467" lon="11.337220368731396"><ele>147.0</ele><time>2026-04-03T17:24:28Z</time></trkpt><trkpt lat="42.79854693546558" lon="11.337314381908294"><ele>149.4</ele><time>2026-04-03T17:24:29Z</time></trkpt><trkpt lat="42.7984775722064" lon="11.337401257288532"><ele>151.79999999999998</ele><time>2026-04-03T17:24:30Z</time></trkpt><trkpt lat="42.79840900322279" lon="11.33749184747721"><ele>154.2</ele><time>2026-04-03T17:24:31Z</time></trkpt><trkpt lat="42.798339008221255" lon="11.337585307455532"><ele>156.6</ele><time>2026-04-03T17:24:32Z</time></trkpt><trkpt lat="42.7982655073741" lon="11.337680121847672"><ele>159.0</ele><time>2026-04-03T17:24:33Z</time></trkpt><trkpt lat="42.79819118693382" lon="11.337778908430048"><ele>159.0</ele><time>2026-04-03T17:24:34Z</time></trkpt><trkpt lat="42.79811639594471" lon="11.337878545401137"><ele>159.0</ele><time>2026-04-03T17:24:35Z</time></trkpt><trkpt lat="42.798033443887775" lon="11.337980054506527"><ele>159.0</ele><time>2026-04-03T17:24:36Z</time></trkpt><trkpt lat="42.79794679363907" lon="11.33808569622062"><ele>159.0</ele><time>2026-04-03T17:24:37Z</time></trkpt><trkpt lat="42.79786214042264" lon="11.338189578930661"><ele>159.0</ele><time>2026-04-03T17:24:38Z</time></trkpt><trkpt lat="42.79778759166234" lon="11.338266670681438"><ele>160.4</ele><time>2026-04-03T17:24:39Z</time></trkpt><trkpt lat="42.79772398752902" lon="11.33832946946109"><ele>161.8</ele><time>2026-04-03T17:24:40Z</time></trkpt><trkpt lat="42.79764052995556" lon="11.338387343124422"><ele>163.20000000000002</ele><time>2026-04-03T17:24:42Z</time></trkpt><trkpt lat="42.79757324173678" lon="11.338381268197942"><ele>164.60000000000002</ele><time>2026-04-03T17:24:43Z</time></trkpt><trkpt lat="42.79748126982801" lon="11.338298471426686"><ele>166.0</ele><time>2026-04-03T17:24:45Z</time></trkpt><trkpt lat="42.79753720966509" lon="11.33814815361019"><ele>167.20000000000002</ele><time>2026-04-03T17:24:47Z</time></trkpt><trkpt lat="42.79758100213385" lon="11.338052425821937"><ele>168.4</ele><time>2026-04-03T17:24:48Z</time></trkpt><trkpt lat="42.79763332995254" lon="11.337940010931321"><ele>169.6</ele><time>2026-04-03T17:24:49Z</time></trkpt><trkpt lat="42.797687739403884" lon="11.337826344146876"><ele>170.8</ele><time>2026-04-03T17:24:50Z</time></trkpt><trkpt lat="42.79774358183949" lon="11.337720676747708"><ele>172.0</ele><time>2026-04-03T17:24:51Z</time></trkpt><trkpt lat="42.797800818596635" lon="11.337621061793367"><ele>169.83333333333334</ele><time>2026-04-03T17:24:52Z</time></trkpt><trkpt lat="42.79785454061859" lon="11.33752756387"><ele>167.66666666666669</ele><time>2026-04-03T17:24:53Z</time></trkpt><trkpt lat="42.797892870199455" lon="11.337427137806309"><ele>165.5</ele><time>2026-04-03T17:24:54Z</time></trkpt><trkpt lat="42.79794255827882" lon="11.337341136786257"><ele>163.33333333333334</ele><time>2026-04-03T17:24:55Z</time></trkpt><trkpt lat="42.79798023768662" lon="11.3372480993891"><ele>161.16666666666666</ele><time>2026-04-03T17:24:55.999Z</time></trkpt><trkpt lat="42.79799911552456" lon="11.337157183435606"><ele>159.0</ele><time>2026-04-03T17:24:56.999Z</time></trkpt><trkpt lat="42.797999660357235" lon="11.337062949086265"><ele>158.5</ele><time>2026-04-03T17:24:57.999Z</time></trkpt><trkpt lat="42.79797586505165" lon="11.336967430868912"><ele>158.0</ele><time>2026-04-03T17:24:58.999Z</time></trkpt><trkpt lat="42.79791915462463" lon="11.336892367657672"><ele>157.5</ele><time>2026-04-03T17:24:59.999Z</time></trkpt><trkpt lat="42.79784723067824" lon="11.336853746136907"><ele>157.0</ele><time>2026-04-03T17:25:00.999Z</time></trkpt><trkpt lat="42.79777864466114" lon="11.336806900548591"><ele>156.5</ele><time>2026-04-03T17:25:01.999Z</time></trkpt><trkpt lat="42.79768543794133" lon="11.336844148272686"><ele>156.0</ele><time>2026-04-03T17:25:02.999Z</time></trkpt><trkpt lat="42.79761371786109" lon="11.336929869058991"><ele>158.4</ele><time>2026-04-03T17:25:03.999Z</time></trkpt><trkpt lat="42.79754940501234" lon="11.337022123170486"><ele>160.8</ele><time>2026-04-03T17:25:04.999Z</time></trkpt><trkpt lat="42.797480282758926" lon="11.33713175219304"><ele>163.20000000000002</ele><time>2026-04-03T17:25:05.999Z</time></trkpt><trkpt lat="42.79740991446531" lon="11.337247224647347"><ele>165.6</ele><time>2026-04-03T17:25:06.999Z</time></trkpt><trkpt lat="42.79733417216017" lon="11.337371515287096"><ele>168.0</ele><time>2026-04-03T17:25:07.999Z</time></trkpt><trkpt lat="42.79726084453359" lon="11.337492789577029"><ele>168.8</ele><time>2026-04-03T17:25:08.999Z</time></trkpt><trkpt lat="42.79719596827478" lon="11.337603026411822"><ele>169.60000000000002</ele><time>2026-04-03T17:25:09.999Z</time></trkpt><trkpt lat="42.797133368215256" lon="11.337718730897803"><ele>170.39999999999998</ele><time>2026-04-03T17:25:10.999Z</time></trkpt><trkpt lat="42.797076624745614" lon="11.337845606720617"><ele>171.2</ele><time>2026-04-03T17:25:11.999Z</time></trkpt><trkpt lat="42.79704157852887" lon="11.33798679325648"><ele>172.0</ele><time>2026-04-03T17:25:12.999Z</time></trkpt><trkpt lat="42.79699172317768" lon="11.3381242475244"><ele>172.5</ele><time>2026-04-03T17:25:13.999Z</time></trkpt><trkpt lat="42.796948408112875" lon="11.338271293627246"><ele>173.0</ele><time>2026-04-03T17:25:14.999Z</time></trkpt><trkpt lat="42.79690969300803" lon="11.338412398521314"><ele>173.5</ele><time>2026-04-03T17:25:15.999Z</time></trkpt><trkpt lat="42.79685112320539" lon="11.33854120635096"><ele>174.0</ele><time>2026-04-03T17:25:16.999Z</time></trkpt><trkpt lat="42.79680456888669" lon="11.338679893915879"><ele>175.5</ele><time>2026-04-03T17:25:17.999Z</time></trkpt><trkpt lat="42.79676986703156" lon="11.338826483759846"><ele>177.0</ele><time>2026-04-03T17:25:18.999Z</time></trkpt><trkpt lat="42.79671723134674" lon="11.338970737652264"><ele>178.5</ele><time>2026-04-03T17:25:19.999Z</time></trkpt><trkpt lat="42.79667269286833" lon="11.339108675547383"><ele>180.0</ele><time>2026-04-03T17:25:20.999Z</time></trkpt><trkpt lat="42.79662500081588" lon="11.339254785204119"><ele>181.8</ele><time>2026-04-03T17:25:21.999Z</time></trkpt><trkpt lat="42.79657524816206" lon="11.339395193172118"><ele>183.6</ele><time>2026-04-03T17:25:22.999Z</time></trkpt><trkpt lat="42.796527131314285" lon="11.339533220045457"><ele>185.39999999999998</ele><time>2026-04-03T17:25:23.999Z</time></trkpt><trkpt lat="42.79648062487848" lon="11.339667732033615"><ele>187.2</ele><time>2026-04-03T17:25:24.999Z</time></trkpt><trkpt lat="42.79641056308717" lon="11.339778469518714"><ele>189.0</ele><time>2026-04-03T17:25:25.999Z</time></trkpt><trkpt lat="42.79634985098704" lon="11.339898196438652"><ele>191.0</ele><time>2026-04-03T17:25:26.999Z</time></trkpt><trkpt lat="42.79628700068234" lon="11.34003158454486"><ele>193.0</ele><time>2026-04-03T17:25:27.999Z</time></trkpt><trkpt lat="42.79619112027895" lon="11.340170518975587"><ele>195.0</ele><time>2026-04-03T17:25:28.999Z</time></trkpt><trkpt lat="42.796097121141884" lon="11.340308614331603"><ele>197.0</ele><time>2026-04-03T17:25:29.999Z</time></trkpt><trkpt lat="42.7960116189687" lon="11.340431025085815"><ele>199.75</ele><time>2026-04-03T17:25:30.999Z</time></trkpt><trkpt lat="42.795932596332605" lon="11.340556305093044"><ele>202.5</ele><time>2026-04-03T17:25:31.999Z</time></trkpt><trkpt lat="42.7958572459418" lon="11.340675082431222"><ele>205.25</ele><time>2026-04-03T17:25:32.999Z</time></trkpt><trkpt lat="42.795779326849875" lon="11.340789575439349"><ele>208.0</ele><time>2026-04-03T17:25:33.999Z</time></trkpt><trkpt lat="42.79569754906955" lon="11.34090082858568"><ele>208.0</ele><time>2026-04-03T17:25:34.999Z</time></trkpt><trkpt lat="42.795610031466126" lon="11.341008780734358"><ele>208.0</ele><time>2026-04-03T17:25:35.999Z</time></trkpt><trkpt lat="42.795508174434694" lon="11.341126992957086"><ele>208.0</ele><time>2026-04-03T17:25:36.999Z</time></trkpt><trkpt lat="42.795408204684094" lon="11.341238860993661"><ele>208.0</ele><time>2026-04-03T17:25:37.999Z</time></trkpt><trkpt lat="42.795313716821454" lon="11.341339959191004"><ele>209.25</ele><time>2026-04-03T17:25:38.999Z</time></trkpt><trkpt lat="42.79520782132875" lon="11.341457600049155"><ele>210.5</ele><time>2026-04-03T17:25:39.999Z</time></trkpt><trkpt lat="42.79509970047337" lon="11.341541398015893"><ele>211.75</ele><time>2026-04-03T17:25:40.999Z</time></trkpt><trkpt lat="42.79500180285191" lon="11.341637725852895"><ele>213.0</ele><time>2026-04-03T17:25:41.999Z</time></trkpt><trkpt lat="42.79489689729855" lon="11.341744671327817"><ele>213.0</ele><time>2026-04-03T17:25:42.999Z</time></trkpt><trkpt lat="42.794792448137585" lon="11.341859720390298"><ele>213.0</ele><time>2026-04-03T17:25:43.999Z</time></trkpt><trkpt lat="42.79469322316567" lon="11.341968428577848"><ele>213.0</ele><time>2026-04-03T17:25:44.999Z</time></trkpt><trkpt lat="42.794592399023614" lon="11.342074128267914"><ele>213.0</ele><time>2026-04-03T17:25:45.999Z</time></trkpt><trkpt lat="42.794493028269386" lon="11.342182479763663"><ele>215.0</ele><time>2026-04-03T17:25:46.999Z</time></trkpt><trkpt lat="42.794377690275155" lon="11.342254192517352"><ele>217.0</ele><time>2026-04-03T17:25:47.999Z</time></trkpt><trkpt lat="42.794277443785354" lon="11.342319606000249"><ele>219.0</ele><time>2026-04-03T17:25:48.999Z</time></trkpt><trkpt lat="42.79419360519812" lon="11.342375850662348"><ele>221.0</ele><time>2026-04-03T17:25:49.999Z</time></trkpt><trkpt lat="42.794120588464054" lon="11.342386247807438"><ele>223.0</ele><time>2026-04-03T17:25:50.999Z</time></trkpt><trkpt lat="42.79401450218955" lon="11.34235167725949"><ele>222.99999999999997</ele><time>2026-04-03T17:25:52.999Z</time></trkpt><trkpt lat="42.7939646661054" lon="11.342281891611291"><ele>223.0</ele><time>2026-04-03T17:25:53.999Z</time></trkpt><trkpt lat="42.79393590004012" lon="11.342184801885683"><ele>223.0</ele><time>2026-04-03T17:25:54.999Z</time></trkpt><trkpt lat="42.793889095970805" lon="11.342108388023636"><ele>223.0</ele><time>2026-04-03T17:25:55.999Z</time></trkpt><trkpt lat="42.793819938005996" lon="11.342078923195679"><ele>222.99999999999997</ele><time>2026-04-03T17:25:57.999Z</time></trkpt><trkpt lat="42.79376403402549" lon="11.342012199727005"><ele>223.0</ele><time>2026-04-03T17:26:58Z</time></trkpt><trkpt lat="42.793722726418316" lon="11.34187060664577"><ele>220.99999999999997</ele><time>2026-04-03T17:27:00Z</time></trkpt><trkpt lat="42.793710915701276" lon="11.341785239578055"><ele>219.0</ele><time>2026-04-03T17:27:01Z</time></trkpt><trkpt lat="42.79371457026071" lon="11.341687791073358"><ele>217.0</ele><time>2026-04-03T17:27:02Z</time></trkpt><trkpt lat="42.793723172076" lon="11.341596277320864"><ele>215.0</ele><time>2026-04-03T17:27:03Z</time></trkpt><trkpt lat="42.793736690426314" lon="11.341499254536977"><ele>212.99999999999997</ele><time>2026-04-03T17:27:04Z</time></trkpt><trkpt lat="42.79375440406233" lon="11.34137822108637"><ele>211.0</ele><time>2026-04-03T17:27:05Z</time></trkpt><trkpt lat="42.793786382918114" lon="11.341258256505705"><ele>210.33333333333331</ele><time>2026-04-03T17:27:06Z</time></trkpt><trkpt lat="42.79379354912772" lon="11.341136121938922"><ele>209.66666666666666</ele><time>2026-04-03T17:27:07Z</time></trkpt><trkpt lat="42.793793513789076" lon="11.341023928511948"><ele>209.0</ele><time>2026-04-03T17:27:07.999Z</time></trkpt><trkpt lat="42.793789397399394" lon="11.340906105561338"><ele>208.33333333333331</ele><time>2026-04-03T17:27:08.999Z</time></trkpt><trkpt lat="42.793784629416834" lon="11.340783915572233"><ele>207.66666666666666</ele><time>2026-04-03T17:27:09.999Z</time></trkpt><trkpt lat="42.79377651071305" lon="11.340652598349054"><ele>207.0</ele><time>2026-04-03T17:27:10.999Z</time></trkpt><trkpt lat="42.793750939486166" lon="11.340542766872002"><ele>206.0</ele><time>2026-04-03T17:27:11.999Z</time></trkpt><trkpt lat="42.79375323202363" lon="11.340442667254933"><ele>206.0</ele><time>2026-04-03T17:27:12.999Z</time></trkpt><trkpt lat="42.793733991774374" lon="11.340310255169443"><ele>206.0</ele><time>2026-04-03T17:27:14.999Z</time></trkpt><trkpt lat="42.793720946069506" lon="11.34021688537866"><ele>206.0</ele><time>2026-04-03T17:27:17.999Z</time></trkpt></trkseg></trk></gpx>